<?xml version="1.0" encoding="UTF-8" standalone="no" ?>
<gpx xmlns="http://www.topografix.com/GPX/1/1" xmlns:xsi="http://www.w3.org/2001/XMLSchema-instance" xsi:schemaLocation="http://www.topografix.com/GPX/1/1 http://www.topografix.com/GPX/1/1/gpx.xsd" version="1.1" creator="VisuGPX - https://www.visugpx.com">
  <metadata>
    <name>Roche Bernard</name>
  </metadata>
  <trk>
    <name><![CDATA[Roche Bernard_1]]></name>
    <trkseg>
      <trkpt lat="44.99728" lon="6.47811">
        <ele>1556.6</ele>
        <time>2022-01-14T07:51:24Z</time>
      </trkpt>
      <trkpt lat="44.99704" lon="6.47792">
        <ele>1555.9</ele>
        <time>2022-01-14T07:51:25Z</time>
      </trkpt>
      <trkpt lat="44.99708" lon="6.47778">
        <ele>1555.6</ele>
        <time>2022-01-14T07:51:26Z</time>
      </trkpt>
      <trkpt lat="44.99711" lon="6.47761">
        <ele>1555.3</ele>
        <time>2022-01-14T07:51:27Z</time>
      </trkpt>
      <trkpt lat="44.99708" lon="6.47754">
        <ele>1555.1</ele>
        <time>2022-01-14T07:51:28Z</time>
      </trkpt>
      <trkpt lat="44.99705" lon="6.47751">
        <ele>1555.1</ele>
        <time>2022-01-14T07:51:29Z</time>
      </trkpt>
      <trkpt lat="44.99707" lon="6.4775">
        <ele>1555</ele>
        <time>2022-01-14T07:51:30Z</time>
      </trkpt>
      <trkpt lat="44.99708" lon="6.47747">
        <ele>1555</ele>
        <time>2022-01-14T07:51:31Z</time>
      </trkpt>
      <trkpt lat="44.9971" lon="6.47743">
        <ele>1554.9</ele>
        <time>2022-01-14T07:51:32Z</time>
      </trkpt>
      <trkpt lat="44.9971" lon="6.47742">
        <ele>1554.9</ele>
        <time>2022-01-14T07:51:33Z</time>
      </trkpt>
      <trkpt lat="44.9971" lon="6.47742">
        <ele>1554.8</ele>
        <time>2022-01-14T07:51:34Z</time>
      </trkpt>
      <trkpt lat="44.9971" lon="6.47742">
        <ele>1554.8</ele>
        <time>2022-01-14T07:51:35Z</time>
      </trkpt>
      <trkpt lat="44.99709" lon="6.47742">
        <ele>1554.8</ele>
        <time>2022-01-14T07:51:36Z</time>
      </trkpt>
      <trkpt lat="44.99709" lon="6.47741">
        <ele>1554.8</ele>
        <time>2022-01-14T07:51:37Z</time>
      </trkpt>
      <trkpt lat="44.99709" lon="6.47741">
        <ele>1554.8</ele>
        <time>2022-01-14T07:51:38Z</time>
      </trkpt>
      <trkpt lat="44.99709" lon="6.47741">
        <ele>1554.8</ele>
        <time>2022-01-14T07:51:39Z</time>
      </trkpt>
      <trkpt lat="44.9971" lon="6.47742">
        <ele>1554.8</ele>
        <time>2022-01-14T07:51:40Z</time>
      </trkpt>
      <trkpt lat="44.9971" lon="6.47742">
        <ele>1554.8</ele>
        <time>2022-01-14T07:51:41Z</time>
      </trkpt>
      <trkpt lat="44.9971" lon="6.47741">
        <ele>1554.7</ele>
        <time>2022-01-14T07:51:42Z</time>
      </trkpt>
      <trkpt lat="44.9971" lon="6.4774">
        <ele>1554.7</ele>
        <time>2022-01-14T07:51:43Z</time>
      </trkpt>
      <trkpt lat="44.9971" lon="6.4774">
        <ele>1554.7</ele>
        <time>2022-01-14T07:51:44Z</time>
      </trkpt>
      <trkpt lat="44.99711" lon="6.47739">
        <ele>1554.7</ele>
        <time>2022-01-14T07:51:45Z</time>
      </trkpt>
      <trkpt lat="44.99711" lon="6.47739">
        <ele>1554.7</ele>
        <time>2022-01-14T07:51:46Z</time>
      </trkpt>
      <trkpt lat="44.99711" lon="6.47739">
        <ele>1554.7</ele>
        <time>2022-01-14T07:51:47Z</time>
      </trkpt>
      <trkpt lat="44.99712" lon="6.4774">
        <ele>1554.7</ele>
        <time>2022-01-14T07:51:48Z</time>
      </trkpt>
      <trkpt lat="44.99712" lon="6.47741">
        <ele>1554.7</ele>
        <time>2022-01-14T07:51:49Z</time>
      </trkpt>
      <trkpt lat="44.99712" lon="6.47741">
        <ele>1554.8</ele>
        <time>2022-01-14T07:51:50Z</time>
      </trkpt>
      <trkpt lat="44.99712" lon="6.47742">
        <ele>1554.8</ele>
        <time>2022-01-14T07:51:51Z</time>
      </trkpt>
      <trkpt lat="44.99712" lon="6.47742">
        <ele>1554.8</ele>
        <time>2022-01-14T07:51:52Z</time>
      </trkpt>
      <trkpt lat="44.99713" lon="6.47742">
        <ele>1554.8</ele>
        <time>2022-01-14T07:51:53Z</time>
      </trkpt>
      <trkpt lat="44.99714" lon="6.47742">
        <ele>1554.8</ele>
        <time>2022-01-14T07:51:54Z</time>
      </trkpt>
      <trkpt lat="44.99714" lon="6.47741">
        <ele>1554.8</ele>
        <time>2022-01-14T07:51:55Z</time>
      </trkpt>
      <trkpt lat="44.99714" lon="6.47741">
        <ele>1554.8</ele>
        <time>2022-01-14T07:51:56Z</time>
      </trkpt>
      <trkpt lat="44.99714" lon="6.4774">
        <ele>1554.8</ele>
        <time>2022-01-14T07:51:57Z</time>
      </trkpt>
      <trkpt lat="44.99715" lon="6.47739">
        <ele>1554.9</ele>
        <time>2022-01-14T07:51:58Z</time>
      </trkpt>
      <trkpt lat="44.99715" lon="6.47739">
        <ele>1554.9</ele>
        <time>2022-01-14T07:51:59Z</time>
      </trkpt>
      <trkpt lat="44.99715" lon="6.47738">
        <ele>1554.9</ele>
        <time>2022-01-14T07:52:00Z</time>
      </trkpt>
      <trkpt lat="44.99715" lon="6.47738">
        <ele>1554.9</ele>
        <time>2022-01-14T07:52:01Z</time>
      </trkpt>
      <trkpt lat="44.99714" lon="6.47738">
        <ele>1554.9</ele>
        <time>2022-01-14T07:52:02Z</time>
      </trkpt>
      <trkpt lat="44.99714" lon="6.47739">
        <ele>1554.9</ele>
        <time>2022-01-14T07:52:03Z</time>
      </trkpt>
      <trkpt lat="44.99713" lon="6.47739">
        <ele>1555</ele>
        <time>2022-01-14T07:52:04Z</time>
      </trkpt>
      <trkpt lat="44.99713" lon="6.47739">
        <ele>1555</ele>
        <time>2022-01-14T07:52:05Z</time>
      </trkpt>
      <trkpt lat="44.99713" lon="6.47739">
        <ele>1555</ele>
        <time>2022-01-14T07:52:06Z</time>
      </trkpt>
      <trkpt lat="44.99713" lon="6.47739">
        <ele>1555</ele>
        <time>2022-01-14T07:52:07Z</time>
      </trkpt>
      <trkpt lat="44.99713" lon="6.47739">
        <ele>1555</ele>
        <time>2022-01-14T07:52:08Z</time>
      </trkpt>
      <trkpt lat="44.99713" lon="6.47739">
        <ele>1555</ele>
        <time>2022-01-14T07:52:09Z</time>
      </trkpt>
      <trkpt lat="44.99713" lon="6.47739">
        <ele>1555</ele>
        <time>2022-01-14T07:52:10Z</time>
      </trkpt>
      <trkpt lat="44.99713" lon="6.47739">
        <ele>1555</ele>
        <time>2022-01-14T07:52:11Z</time>
      </trkpt>
      <trkpt lat="44.99713" lon="6.47739">
        <ele>1555</ele>
        <time>2022-01-14T07:52:12Z</time>
      </trkpt>
      <trkpt lat="44.99713" lon="6.47739">
        <ele>1555</ele>
        <time>2022-01-14T07:52:13Z</time>
      </trkpt>
      <trkpt lat="44.99713" lon="6.47739">
        <ele>1555</ele>
        <time>2022-01-14T07:52:14Z</time>
      </trkpt>
      <trkpt lat="44.99713" lon="6.47739">
        <ele>1555</ele>
        <time>2022-01-14T07:52:15Z</time>
      </trkpt>
      <trkpt lat="44.99713" lon="6.47739">
        <ele>1555</ele>
        <time>2022-01-14T07:52:16Z</time>
      </trkpt>
      <trkpt lat="44.99712" lon="6.47739">
        <ele>1555</ele>
        <time>2022-01-14T07:52:17Z</time>
      </trkpt>
      <trkpt lat="44.99712" lon="6.47739">
        <ele>1555</ele>
        <time>2022-01-14T07:52:18Z</time>
      </trkpt>
      <trkpt lat="44.99712" lon="6.47739">
        <ele>1555</ele>
        <time>2022-01-14T07:52:19Z</time>
      </trkpt>
      <trkpt lat="44.99712" lon="6.47739">
        <ele>1555</ele>
        <time>2022-01-14T07:52:20Z</time>
      </trkpt>
      <trkpt lat="44.99712" lon="6.47739">
        <ele>1555</ele>
        <time>2022-01-14T07:52:21Z</time>
      </trkpt>
      <trkpt lat="44.99712" lon="6.47739">
        <ele>1555</ele>
        <time>2022-01-14T07:52:22Z</time>
      </trkpt>
      <trkpt lat="44.99712" lon="6.47738">
        <ele>1555</ele>
        <time>2022-01-14T07:52:23Z</time>
      </trkpt>
      <trkpt lat="44.99712" lon="6.47738">
        <ele>1555</ele>
        <time>2022-01-14T07:52:24Z</time>
      </trkpt>
      <trkpt lat="44.99712" lon="6.47738">
        <ele>1555</ele>
        <time>2022-01-14T07:52:25Z</time>
      </trkpt>
      <trkpt lat="44.99712" lon="6.47738">
        <ele>1555</ele>
        <time>2022-01-14T07:52:26Z</time>
      </trkpt>
      <trkpt lat="44.99712" lon="6.47738">
        <ele>1555</ele>
        <time>2022-01-14T07:52:27Z</time>
      </trkpt>
      <trkpt lat="44.99712" lon="6.47738">
        <ele>1555</ele>
        <time>2022-01-14T07:52:28Z</time>
      </trkpt>
      <trkpt lat="44.99712" lon="6.47738">
        <ele>1555</ele>
        <time>2022-01-14T07:52:29Z</time>
      </trkpt>
      <trkpt lat="44.99712" lon="6.47738">
        <ele>1555</ele>
        <time>2022-01-14T07:52:30Z</time>
      </trkpt>
      <trkpt lat="44.99712" lon="6.47738">
        <ele>1555</ele>
        <time>2022-01-14T07:52:31Z</time>
      </trkpt>
      <trkpt lat="44.99712" lon="6.47738">
        <ele>1555</ele>
        <time>2022-01-14T07:52:32Z</time>
      </trkpt>
      <trkpt lat="44.99712" lon="6.47738">
        <ele>1555</ele>
        <time>2022-01-14T07:52:33Z</time>
      </trkpt>
      <trkpt lat="44.99712" lon="6.47738">
        <ele>1555</ele>
        <time>2022-01-14T07:52:34Z</time>
      </trkpt>
      <trkpt lat="44.99712" lon="6.47738">
        <ele>1555</ele>
        <time>2022-01-14T07:52:35Z</time>
      </trkpt>
      <trkpt lat="44.99712" lon="6.47738">
        <ele>1555</ele>
        <time>2022-01-14T07:52:36Z</time>
      </trkpt>
      <trkpt lat="44.99711" lon="6.47738">
        <ele>1555</ele>
        <time>2022-01-14T07:52:37Z</time>
      </trkpt>
      <trkpt lat="44.99711" lon="6.47738">
        <ele>1555</ele>
        <time>2022-01-14T07:52:38Z</time>
      </trkpt>
      <trkpt lat="44.99712" lon="6.47738">
        <ele>1555</ele>
        <time>2022-01-14T07:52:39Z</time>
      </trkpt>
      <trkpt lat="44.99712" lon="6.47738">
        <ele>1555</ele>
        <time>2022-01-14T07:52:40Z</time>
      </trkpt>
      <trkpt lat="44.99712" lon="6.47738">
        <ele>1555</ele>
        <time>2022-01-14T07:52:41Z</time>
      </trkpt>
      <trkpt lat="44.99711" lon="6.47738">
        <ele>1555</ele>
        <time>2022-01-14T07:52:42Z</time>
      </trkpt>
      <trkpt lat="44.99711" lon="6.47738">
        <ele>1555</ele>
        <time>2022-01-14T07:52:43Z</time>
      </trkpt>
      <trkpt lat="44.99711" lon="6.47738">
        <ele>1555</ele>
        <time>2022-01-14T07:52:44Z</time>
      </trkpt>
      <trkpt lat="44.99711" lon="6.47738">
        <ele>1555</ele>
        <time>2022-01-14T07:52:45Z</time>
      </trkpt>
      <trkpt lat="44.99711" lon="6.47738">
        <ele>1555</ele>
        <time>2022-01-14T07:52:46Z</time>
      </trkpt>
      <trkpt lat="44.99711" lon="6.47738">
        <ele>1555.1</ele>
        <time>2022-01-14T07:52:47Z</time>
      </trkpt>
      <trkpt lat="44.99711" lon="6.47738">
        <ele>1555.1</ele>
        <time>2022-01-14T07:52:48Z</time>
      </trkpt>
      <trkpt lat="44.9971" lon="6.47738">
        <ele>1555.1</ele>
        <time>2022-01-14T07:52:49Z</time>
      </trkpt>
      <trkpt lat="44.9971" lon="6.47738">
        <ele>1555.1</ele>
        <time>2022-01-14T07:52:50Z</time>
      </trkpt>
      <trkpt lat="44.9971" lon="6.47738">
        <ele>1555.1</ele>
        <time>2022-01-14T07:52:51Z</time>
      </trkpt>
      <trkpt lat="44.9971" lon="6.47737">
        <ele>1555.1</ele>
        <time>2022-01-14T07:52:52Z</time>
      </trkpt>
      <trkpt lat="44.9971" lon="6.47737">
        <ele>1555.1</ele>
        <time>2022-01-14T07:52:53Z</time>
      </trkpt>
      <trkpt lat="44.99709" lon="6.47737">
        <ele>1555.1</ele>
        <time>2022-01-14T07:52:54Z</time>
      </trkpt>
      <trkpt lat="44.99709" lon="6.47737">
        <ele>1555.1</ele>
        <time>2022-01-14T07:52:55Z</time>
      </trkpt>
      <trkpt lat="44.9971" lon="6.47738">
        <ele>1555.1</ele>
        <time>2022-01-14T07:52:56Z</time>
      </trkpt>
      <trkpt lat="44.99709" lon="6.47738">
        <ele>1555.1</ele>
        <time>2022-01-14T07:52:57Z</time>
      </trkpt>
      <trkpt lat="44.99709" lon="6.47738">
        <ele>1555.1</ele>
        <time>2022-01-14T07:52:58Z</time>
      </trkpt>
      <trkpt lat="44.99709" lon="6.47738">
        <ele>1555.1</ele>
        <time>2022-01-14T07:52:59Z</time>
      </trkpt>
      <trkpt lat="44.99709" lon="6.47738">
        <ele>1555.1</ele>
        <time>2022-01-14T07:53:00Z</time>
      </trkpt>
      <trkpt lat="44.9971" lon="6.47738">
        <ele>1555.1</ele>
        <time>2022-01-14T07:53:01Z</time>
      </trkpt>
      <trkpt lat="44.9971" lon="6.47738">
        <ele>1555.1</ele>
        <time>2022-01-14T07:53:02Z</time>
      </trkpt>
      <trkpt lat="44.9971" lon="6.47738">
        <ele>1555.1</ele>
        <time>2022-01-14T07:53:03Z</time>
      </trkpt>
      <trkpt lat="44.9971" lon="6.47738">
        <ele>1555.1</ele>
        <time>2022-01-14T07:53:04Z</time>
      </trkpt>
      <trkpt lat="44.9971" lon="6.47738">
        <ele>1555.1</ele>
        <time>2022-01-14T07:53:05Z</time>
      </trkpt>
      <trkpt lat="44.9971" lon="6.47738">
        <ele>1555.1</ele>
        <time>2022-01-14T07:53:06Z</time>
      </trkpt>
      <trkpt lat="44.9971" lon="6.47738">
        <ele>1555.1</ele>
        <time>2022-01-14T07:53:07Z</time>
      </trkpt>
      <trkpt lat="44.9971" lon="6.47738">
        <ele>1555.1</ele>
        <time>2022-01-14T07:53:08Z</time>
      </trkpt>
      <trkpt lat="44.9971" lon="6.47738">
        <ele>1555.1</ele>
        <time>2022-01-14T07:53:09Z</time>
      </trkpt>
      <trkpt lat="44.99709" lon="6.47738">
        <ele>1555.1</ele>
        <time>2022-01-14T07:53:10Z</time>
      </trkpt>
      <trkpt lat="44.99709" lon="6.47738">
        <ele>1555.1</ele>
        <time>2022-01-14T07:53:11Z</time>
      </trkpt>
      <trkpt lat="44.9971" lon="6.47738">
        <ele>1555.1</ele>
        <time>2022-01-14T07:53:12Z</time>
      </trkpt>
      <trkpt lat="44.9971" lon="6.47738">
        <ele>1555.1</ele>
        <time>2022-01-14T07:53:13Z</time>
      </trkpt>
      <trkpt lat="44.9971" lon="6.47738">
        <ele>1555.1</ele>
        <time>2022-01-14T07:53:14Z</time>
      </trkpt>
      <trkpt lat="44.9971" lon="6.47738">
        <ele>1555.1</ele>
        <time>2022-01-14T07:53:15Z</time>
      </trkpt>
      <trkpt lat="44.99709" lon="6.47738">
        <ele>1555.2</ele>
        <time>2022-01-14T07:53:16Z</time>
      </trkpt>
      <trkpt lat="44.99709" lon="6.4774">
        <ele>1555.2</ele>
        <time>2022-01-14T07:53:17Z</time>
      </trkpt>
      <trkpt lat="44.9971" lon="6.47741">
        <ele>1555.2</ele>
        <time>2022-01-14T07:53:18Z</time>
      </trkpt>
      <trkpt lat="44.9971" lon="6.47742">
        <ele>1555.2</ele>
        <time>2022-01-14T07:53:19Z</time>
      </trkpt>
      <trkpt lat="44.9971" lon="6.47742">
        <ele>1555.2</ele>
        <time>2022-01-14T07:53:20Z</time>
      </trkpt>
      <trkpt lat="44.9971" lon="6.47743">
        <ele>1555.2</ele>
        <time>2022-01-14T07:53:21Z</time>
      </trkpt>
      <trkpt lat="44.9971" lon="6.47743">
        <ele>1555.2</ele>
        <time>2022-01-14T07:53:22Z</time>
      </trkpt>
      <trkpt lat="44.9971" lon="6.47743">
        <ele>1555.2</ele>
        <time>2022-01-14T07:53:23Z</time>
      </trkpt>
      <trkpt lat="44.9971" lon="6.47743">
        <ele>1555.2</ele>
        <time>2022-01-14T07:53:24Z</time>
      </trkpt>
      <trkpt lat="44.9971" lon="6.47743">
        <ele>1555.2</ele>
        <time>2022-01-14T07:53:25Z</time>
      </trkpt>
      <trkpt lat="44.9971" lon="6.47743">
        <ele>1555.3</ele>
        <time>2022-01-14T07:53:26Z</time>
      </trkpt>
      <trkpt lat="44.9971" lon="6.47744">
        <ele>1555.3</ele>
        <time>2022-01-14T07:53:27Z</time>
      </trkpt>
      <trkpt lat="44.9971" lon="6.47744">
        <ele>1555.3</ele>
        <time>2022-01-14T07:53:28Z</time>
      </trkpt>
      <trkpt lat="44.9971" lon="6.47744">
        <ele>1555.3</ele>
        <time>2022-01-14T07:53:29Z</time>
      </trkpt>
      <trkpt lat="44.9971" lon="6.47744">
        <ele>1555.3</ele>
        <time>2022-01-14T07:53:30Z</time>
      </trkpt>
      <trkpt lat="44.9971" lon="6.47744">
        <ele>1555.3</ele>
        <time>2022-01-14T07:53:31Z</time>
      </trkpt>
      <trkpt lat="44.9971" lon="6.47744">
        <ele>1555.3</ele>
        <time>2022-01-14T07:53:32Z</time>
      </trkpt>
      <trkpt lat="44.99711" lon="6.47744">
        <ele>1555.3</ele>
        <time>2022-01-14T07:53:33Z</time>
      </trkpt>
      <trkpt lat="44.9971" lon="6.47744">
        <ele>1555.3</ele>
        <time>2022-01-14T07:53:34Z</time>
      </trkpt>
      <trkpt lat="44.9971" lon="6.47744">
        <ele>1555.3</ele>
        <time>2022-01-14T07:53:35Z</time>
      </trkpt>
      <trkpt lat="44.99711" lon="6.47744">
        <ele>1555.3</ele>
        <time>2022-01-14T07:53:36Z</time>
      </trkpt>
      <trkpt lat="44.99711" lon="6.47745">
        <ele>1555.3</ele>
        <time>2022-01-14T07:53:37Z</time>
      </trkpt>
      <trkpt lat="44.99711" lon="6.47745">
        <ele>1555.3</ele>
        <time>2022-01-14T07:53:38Z</time>
      </trkpt>
      <trkpt lat="44.99712" lon="6.47744">
        <ele>1555.3</ele>
        <time>2022-01-14T07:53:39Z</time>
      </trkpt>
      <trkpt lat="44.99712" lon="6.47744">
        <ele>1555.3</ele>
        <time>2022-01-14T07:53:40Z</time>
      </trkpt>
      <trkpt lat="44.99712" lon="6.47743">
        <ele>1555.4</ele>
        <time>2022-01-14T07:53:41Z</time>
      </trkpt>
      <trkpt lat="44.99712" lon="6.47743">
        <ele>1555.4</ele>
        <time>2022-01-14T07:53:42Z</time>
      </trkpt>
      <trkpt lat="44.99713" lon="6.47743">
        <ele>1555.4</ele>
        <time>2022-01-14T07:53:43Z</time>
      </trkpt>
      <trkpt lat="44.99712" lon="6.47742">
        <ele>1555.4</ele>
        <time>2022-01-14T07:53:44Z</time>
      </trkpt>
      <trkpt lat="44.99712" lon="6.47742">
        <ele>1555.4</ele>
        <time>2022-01-14T07:53:45Z</time>
      </trkpt>
      <trkpt lat="44.99712" lon="6.47741">
        <ele>1555.4</ele>
        <time>2022-01-14T07:53:46Z</time>
      </trkpt>
      <trkpt lat="44.99712" lon="6.4774">
        <ele>1555.4</ele>
        <time>2022-01-14T07:53:47Z</time>
      </trkpt>
      <trkpt lat="44.99712" lon="6.47738">
        <ele>1555.5</ele>
        <time>2022-01-14T07:53:48Z</time>
      </trkpt>
      <trkpt lat="44.99712" lon="6.47738">
        <ele>1555.5</ele>
        <time>2022-01-14T07:53:49Z</time>
      </trkpt>
      <trkpt lat="44.99712" lon="6.47739">
        <ele>1555.5</ele>
        <time>2022-01-14T07:53:50Z</time>
      </trkpt>
      <trkpt lat="44.99711" lon="6.47739">
        <ele>1555.5</ele>
        <time>2022-01-14T07:53:51Z</time>
      </trkpt>
      <trkpt lat="44.99711" lon="6.47739">
        <ele>1555.5</ele>
        <time>2022-01-14T07:53:52Z</time>
      </trkpt>
      <trkpt lat="44.99711" lon="6.47739">
        <ele>1555.5</ele>
        <time>2022-01-14T07:53:53Z</time>
      </trkpt>
      <trkpt lat="44.99711" lon="6.47739">
        <ele>1555.5</ele>
        <time>2022-01-14T07:53:54Z</time>
      </trkpt>
      <trkpt lat="44.99711" lon="6.47739">
        <ele>1555.5</ele>
        <time>2022-01-14T07:53:55Z</time>
      </trkpt>
      <trkpt lat="44.99711" lon="6.47739">
        <ele>1555.5</ele>
        <time>2022-01-14T07:53:56Z</time>
      </trkpt>
      <trkpt lat="44.99711" lon="6.47739">
        <ele>1555.5</ele>
        <time>2022-01-14T07:53:57Z</time>
      </trkpt>
      <trkpt lat="44.99711" lon="6.47739">
        <ele>1555.5</ele>
        <time>2022-01-14T07:53:58Z</time>
      </trkpt>
      <trkpt lat="44.99711" lon="6.47739">
        <ele>1555.5</ele>
        <time>2022-01-14T07:53:59Z</time>
      </trkpt>
      <trkpt lat="44.99711" lon="6.47739">
        <ele>1555.5</ele>
        <time>2022-01-14T07:54:00Z</time>
      </trkpt>
      <trkpt lat="44.99711" lon="6.47739">
        <ele>1555.5</ele>
        <time>2022-01-14T07:54:01Z</time>
      </trkpt>
      <trkpt lat="44.99711" lon="6.47739">
        <ele>1555.5</ele>
        <time>2022-01-14T07:54:02Z</time>
      </trkpt>
      <trkpt lat="44.99711" lon="6.47739">
        <ele>1555.5</ele>
        <time>2022-01-14T07:54:03Z</time>
      </trkpt>
      <trkpt lat="44.99711" lon="6.47739">
        <ele>1555.5</ele>
        <time>2022-01-14T07:54:04Z</time>
      </trkpt>
      <trkpt lat="44.99711" lon="6.47739">
        <ele>1555.5</ele>
        <time>2022-01-14T07:54:05Z</time>
      </trkpt>
      <trkpt lat="44.99711" lon="6.47739">
        <ele>1555.5</ele>
        <time>2022-01-14T07:54:06Z</time>
      </trkpt>
      <trkpt lat="44.99711" lon="6.47739">
        <ele>1555.5</ele>
        <time>2022-01-14T07:54:07Z</time>
      </trkpt>
      <trkpt lat="44.99712" lon="6.47739">
        <ele>1555.5</ele>
        <time>2022-01-14T07:54:08Z</time>
      </trkpt>
      <trkpt lat="44.99712" lon="6.47738">
        <ele>1555.6</ele>
        <time>2022-01-14T07:54:09Z</time>
      </trkpt>
      <trkpt lat="44.99711" lon="6.47738">
        <ele>1555.6</ele>
        <time>2022-01-14T07:54:10Z</time>
      </trkpt>
      <trkpt lat="44.99711" lon="6.47739">
        <ele>1555.6</ele>
        <time>2022-01-14T07:54:11Z</time>
      </trkpt>
      <trkpt lat="44.99711" lon="6.47739">
        <ele>1555.6</ele>
        <time>2022-01-14T07:54:12Z</time>
      </trkpt>
      <trkpt lat="44.99711" lon="6.47739">
        <ele>1555.6</ele>
        <time>2022-01-14T07:54:13Z</time>
      </trkpt>
      <trkpt lat="44.99711" lon="6.47739">
        <ele>1555.6</ele>
        <time>2022-01-14T07:54:14Z</time>
      </trkpt>
      <trkpt lat="44.99711" lon="6.47739">
        <ele>1555.6</ele>
        <time>2022-01-14T07:54:15Z</time>
      </trkpt>
      <trkpt lat="44.99711" lon="6.47739">
        <ele>1555.6</ele>
        <time>2022-01-14T07:54:16Z</time>
      </trkpt>
      <trkpt lat="44.99711" lon="6.47739">
        <ele>1555.6</ele>
        <time>2022-01-14T07:54:17Z</time>
      </trkpt>
      <trkpt lat="44.99711" lon="6.47739">
        <ele>1555.6</ele>
        <time>2022-01-14T07:54:18Z</time>
      </trkpt>
      <trkpt lat="44.99711" lon="6.47739">
        <ele>1555.6</ele>
        <time>2022-01-14T07:54:19Z</time>
      </trkpt>
      <trkpt lat="44.99711" lon="6.4774">
        <ele>1555.6</ele>
        <time>2022-01-14T07:54:20Z</time>
      </trkpt>
      <trkpt lat="44.99712" lon="6.47739">
        <ele>1555.6</ele>
        <time>2022-01-14T07:54:21Z</time>
      </trkpt>
      <trkpt lat="44.99712" lon="6.47739">
        <ele>1555.6</ele>
        <time>2022-01-14T07:54:22Z</time>
      </trkpt>
      <trkpt lat="44.99712" lon="6.4774">
        <ele>1555.6</ele>
        <time>2022-01-14T07:54:23Z</time>
      </trkpt>
      <trkpt lat="44.99712" lon="6.4774">
        <ele>1555.6</ele>
        <time>2022-01-14T07:54:24Z</time>
      </trkpt>
      <trkpt lat="44.99712" lon="6.4774">
        <ele>1555.6</ele>
        <time>2022-01-14T07:54:25Z</time>
      </trkpt>
      <trkpt lat="44.99712" lon="6.4774">
        <ele>1555.6</ele>
        <time>2022-01-14T07:54:26Z</time>
      </trkpt>
      <trkpt lat="44.99712" lon="6.4774">
        <ele>1555.6</ele>
        <time>2022-01-14T07:54:27Z</time>
      </trkpt>
      <trkpt lat="44.99712" lon="6.4774">
        <ele>1555.6</ele>
        <time>2022-01-14T07:54:28Z</time>
      </trkpt>
      <trkpt lat="44.99712" lon="6.4774">
        <ele>1555.6</ele>
        <time>2022-01-14T07:54:29Z</time>
      </trkpt>
      <trkpt lat="44.99712" lon="6.4774">
        <ele>1555.6</ele>
        <time>2022-01-14T07:54:30Z</time>
      </trkpt>
      <trkpt lat="44.99712" lon="6.4774">
        <ele>1555.6</ele>
        <time>2022-01-14T07:54:31Z</time>
      </trkpt>
      <trkpt lat="44.99712" lon="6.4774">
        <ele>1555.6</ele>
        <time>2022-01-14T07:54:32Z</time>
      </trkpt>
      <trkpt lat="44.99712" lon="6.4774">
        <ele>1555.7</ele>
        <time>2022-01-14T07:54:33Z</time>
      </trkpt>
      <trkpt lat="44.99712" lon="6.4774">
        <ele>1555.7</ele>
        <time>2022-01-14T07:54:34Z</time>
      </trkpt>
      <trkpt lat="44.99712" lon="6.4774">
        <ele>1555.7</ele>
        <time>2022-01-14T07:54:35Z</time>
      </trkpt>
      <trkpt lat="44.99712" lon="6.4774">
        <ele>1555.7</ele>
        <time>2022-01-14T07:54:36Z</time>
      </trkpt>
      <trkpt lat="44.99712" lon="6.4774">
        <ele>1555.7</ele>
        <time>2022-01-14T07:54:37Z</time>
      </trkpt>
      <trkpt lat="44.99712" lon="6.4774">
        <ele>1555.7</ele>
        <time>2022-01-14T07:54:38Z</time>
      </trkpt>
      <trkpt lat="44.99712" lon="6.4774">
        <ele>1555.7</ele>
        <time>2022-01-14T07:54:39Z</time>
      </trkpt>
      <trkpt lat="44.99712" lon="6.4774">
        <ele>1555.7</ele>
        <time>2022-01-14T07:54:40Z</time>
      </trkpt>
      <trkpt lat="44.99712" lon="6.4774">
        <ele>1555.7</ele>
        <time>2022-01-14T07:54:41Z</time>
      </trkpt>
      <trkpt lat="44.99712" lon="6.4774">
        <ele>1555.7</ele>
        <time>2022-01-14T07:54:42Z</time>
      </trkpt>
      <trkpt lat="44.99712" lon="6.4774">
        <ele>1555.7</ele>
        <time>2022-01-14T07:54:43Z</time>
      </trkpt>
      <trkpt lat="44.99712" lon="6.4774">
        <ele>1555.7</ele>
        <time>2022-01-14T07:54:44Z</time>
      </trkpt>
      <trkpt lat="44.99712" lon="6.4774">
        <ele>1555.7</ele>
        <time>2022-01-14T07:54:45Z</time>
      </trkpt>
      <trkpt lat="44.99712" lon="6.4774">
        <ele>1555.7</ele>
        <time>2022-01-14T07:54:46Z</time>
      </trkpt>
      <trkpt lat="44.99712" lon="6.4774">
        <ele>1555.7</ele>
        <time>2022-01-14T07:54:47Z</time>
      </trkpt>
      <trkpt lat="44.99712" lon="6.4774">
        <ele>1555.7</ele>
        <time>2022-01-14T07:54:48Z</time>
      </trkpt>
      <trkpt lat="44.99712" lon="6.4774">
        <ele>1555.7</ele>
        <time>2022-01-14T07:54:49Z</time>
      </trkpt>
      <trkpt lat="44.99712" lon="6.4774">
        <ele>1555.7</ele>
        <time>2022-01-14T07:54:50Z</time>
      </trkpt>
      <trkpt lat="44.99712" lon="6.4774">
        <ele>1555.7</ele>
        <time>2022-01-14T07:54:51Z</time>
      </trkpt>
      <trkpt lat="44.99712" lon="6.4774">
        <ele>1555.7</ele>
        <time>2022-01-14T07:54:52Z</time>
      </trkpt>
      <trkpt lat="44.99712" lon="6.4774">
        <ele>1555.7</ele>
        <time>2022-01-14T07:54:53Z</time>
      </trkpt>
      <trkpt lat="44.99713" lon="6.4774">
        <ele>1555.7</ele>
        <time>2022-01-14T07:54:54Z</time>
      </trkpt>
      <trkpt lat="44.99713" lon="6.4774">
        <ele>1555.7</ele>
        <time>2022-01-14T07:54:55Z</time>
      </trkpt>
      <trkpt lat="44.99713" lon="6.4774">
        <ele>1555.7</ele>
        <time>2022-01-14T07:54:56Z</time>
      </trkpt>
      <trkpt lat="44.99713" lon="6.47739">
        <ele>1555.7</ele>
        <time>2022-01-14T07:54:57Z</time>
      </trkpt>
      <trkpt lat="44.99712" lon="6.47739">
        <ele>1555.7</ele>
        <time>2022-01-14T07:54:58Z</time>
      </trkpt>
      <trkpt lat="44.99712" lon="6.47738">
        <ele>1555.8</ele>
        <time>2022-01-14T07:54:59Z</time>
      </trkpt>
      <trkpt lat="44.99712" lon="6.47738">
        <ele>1555.8</ele>
        <time>2022-01-14T07:55:00Z</time>
      </trkpt>
      <trkpt lat="44.99711" lon="6.47738">
        <ele>1555.8</ele>
        <time>2022-01-14T07:55:01Z</time>
      </trkpt>
      <trkpt lat="44.99711" lon="6.47738">
        <ele>1555.8</ele>
        <time>2022-01-14T07:55:02Z</time>
      </trkpt>
      <trkpt lat="44.99711" lon="6.47738">
        <ele>1555.8</ele>
        <time>2022-01-14T07:55:03Z</time>
      </trkpt>
      <trkpt lat="44.99711" lon="6.47738">
        <ele>1555.8</ele>
        <time>2022-01-14T07:55:04Z</time>
      </trkpt>
      <trkpt lat="44.99711" lon="6.47739">
        <ele>1555.8</ele>
        <time>2022-01-14T07:55:05Z</time>
      </trkpt>
      <trkpt lat="44.99711" lon="6.47739">
        <ele>1555.8</ele>
        <time>2022-01-14T07:55:06Z</time>
      </trkpt>
      <trkpt lat="44.99711" lon="6.47738">
        <ele>1555.8</ele>
        <time>2022-01-14T07:55:07Z</time>
      </trkpt>
      <trkpt lat="44.99711" lon="6.47739">
        <ele>1555.8</ele>
        <time>2022-01-14T07:55:08Z</time>
      </trkpt>
      <trkpt lat="44.99711" lon="6.47739">
        <ele>1555.9</ele>
        <time>2022-01-14T07:55:09Z</time>
      </trkpt>
      <trkpt lat="44.99712" lon="6.47739">
        <ele>1555.9</ele>
        <time>2022-01-14T07:55:10Z</time>
      </trkpt>
      <trkpt lat="44.99712" lon="6.47739">
        <ele>1555.9</ele>
        <time>2022-01-14T07:55:11Z</time>
      </trkpt>
      <trkpt lat="44.99712" lon="6.47739">
        <ele>1555.9</ele>
        <time>2022-01-14T07:55:12Z</time>
      </trkpt>
      <trkpt lat="44.99712" lon="6.4774">
        <ele>1555.9</ele>
        <time>2022-01-14T07:55:13Z</time>
      </trkpt>
      <trkpt lat="44.99712" lon="6.4774">
        <ele>1555.9</ele>
        <time>2022-01-14T07:55:14Z</time>
      </trkpt>
      <trkpt lat="44.99712" lon="6.4774">
        <ele>1555.9</ele>
        <time>2022-01-14T07:55:15Z</time>
      </trkpt>
      <trkpt lat="44.99712" lon="6.4774">
        <ele>1555.9</ele>
        <time>2022-01-14T07:55:16Z</time>
      </trkpt>
      <trkpt lat="44.99712" lon="6.47741">
        <ele>1555.9</ele>
        <time>2022-01-14T07:55:17Z</time>
      </trkpt>
      <trkpt lat="44.99712" lon="6.47741">
        <ele>1555.9</ele>
        <time>2022-01-14T07:55:18Z</time>
      </trkpt>
      <trkpt lat="44.99713" lon="6.47743">
        <ele>1556</ele>
        <time>2022-01-14T07:55:19Z</time>
      </trkpt>
      <trkpt lat="44.99714" lon="6.47744">
        <ele>1556</ele>
        <time>2022-01-14T07:55:20Z</time>
      </trkpt>
      <trkpt lat="44.99714" lon="6.47745">
        <ele>1556</ele>
        <time>2022-01-14T07:55:21Z</time>
      </trkpt>
      <trkpt lat="44.99715" lon="6.47746">
        <ele>1556</ele>
        <time>2022-01-14T07:55:22Z</time>
      </trkpt>
      <trkpt lat="44.99715" lon="6.47746">
        <ele>1556.1</ele>
        <time>2022-01-14T07:55:23Z</time>
      </trkpt>
      <trkpt lat="44.99716" lon="6.47747">
        <ele>1556.1</ele>
        <time>2022-01-14T07:55:24Z</time>
      </trkpt>
      <trkpt lat="44.99717" lon="6.47747">
        <ele>1556.1</ele>
        <time>2022-01-14T07:55:25Z</time>
      </trkpt>
      <trkpt lat="44.99718" lon="6.47747">
        <ele>1556.1</ele>
        <time>2022-01-14T07:55:26Z</time>
      </trkpt>
      <trkpt lat="44.99719" lon="6.47746">
        <ele>1556.2</ele>
        <time>2022-01-14T07:55:27Z</time>
      </trkpt>
      <trkpt lat="44.99721" lon="6.47746">
        <ele>1556.2</ele>
        <time>2022-01-14T07:55:28Z</time>
      </trkpt>
      <trkpt lat="44.99722" lon="6.47746">
        <ele>1556.2</ele>
        <time>2022-01-14T07:55:29Z</time>
      </trkpt>
      <trkpt lat="44.99722" lon="6.47746">
        <ele>1556.3</ele>
        <time>2022-01-14T07:55:30Z</time>
      </trkpt>
      <trkpt lat="44.99724" lon="6.47746">
        <ele>1556.3</ele>
        <time>2022-01-14T07:55:31Z</time>
      </trkpt>
      <trkpt lat="44.99725" lon="6.47746">
        <ele>1556.3</ele>
        <time>2022-01-14T07:55:32Z</time>
      </trkpt>
      <trkpt lat="44.99726" lon="6.47746">
        <ele>1556.3</ele>
        <time>2022-01-14T07:55:33Z</time>
      </trkpt>
      <trkpt lat="44.99726" lon="6.47746">
        <ele>1556.4</ele>
        <time>2022-01-14T07:55:34Z</time>
      </trkpt>
      <trkpt lat="44.99727" lon="6.47746">
        <ele>1556.4</ele>
        <time>2022-01-14T07:55:35Z</time>
      </trkpt>
      <trkpt lat="44.99727" lon="6.47745">
        <ele>1556.4</ele>
        <time>2022-01-14T07:55:36Z</time>
      </trkpt>
      <trkpt lat="44.99728" lon="6.47745">
        <ele>1556.4</ele>
        <time>2022-01-14T07:55:37Z</time>
      </trkpt>
      <trkpt lat="44.99728" lon="6.47744">
        <ele>1556.4</ele>
        <time>2022-01-14T07:55:38Z</time>
      </trkpt>
      <trkpt lat="44.99728" lon="6.47743">
        <ele>1556.4</ele>
        <time>2022-01-14T07:55:39Z</time>
      </trkpt>
      <trkpt lat="44.99729" lon="6.47743">
        <ele>1556.4</ele>
        <time>2022-01-14T07:55:40Z</time>
      </trkpt>
      <trkpt lat="44.99729" lon="6.47742">
        <ele>1556.5</ele>
        <time>2022-01-14T07:55:41Z</time>
      </trkpt>
      <trkpt lat="44.9973" lon="6.47743">
        <ele>1556.5</ele>
        <time>2022-01-14T07:55:42Z</time>
      </trkpt>
      <trkpt lat="44.99731" lon="6.47744">
        <ele>1556.5</ele>
        <time>2022-01-14T07:55:43Z</time>
      </trkpt>
      <trkpt lat="44.99732" lon="6.47744">
        <ele>1556.5</ele>
        <time>2022-01-14T07:55:44Z</time>
      </trkpt>
      <trkpt lat="44.99732" lon="6.47743">
        <ele>1556.5</ele>
        <time>2022-01-14T07:55:45Z</time>
      </trkpt>
      <trkpt lat="44.99733" lon="6.47743">
        <ele>1556.6</ele>
        <time>2022-01-14T07:55:46Z</time>
      </trkpt>
      <trkpt lat="44.99733" lon="6.47743">
        <ele>1556.6</ele>
        <time>2022-01-14T07:55:47Z</time>
      </trkpt>
      <trkpt lat="44.99734" lon="6.47742">
        <ele>1556.6</ele>
        <time>2022-01-14T07:55:48Z</time>
      </trkpt>
      <trkpt lat="44.99734" lon="6.47742">
        <ele>1556.6</ele>
        <time>2022-01-14T07:55:49Z</time>
      </trkpt>
      <trkpt lat="44.99735" lon="6.47741">
        <ele>1556.6</ele>
        <time>2022-01-14T07:55:50Z</time>
      </trkpt>
      <trkpt lat="44.99735" lon="6.47741">
        <ele>1556.6</ele>
        <time>2022-01-14T07:55:51Z</time>
      </trkpt>
      <trkpt lat="44.99736" lon="6.47741">
        <ele>1556.6</ele>
        <time>2022-01-14T07:55:52Z</time>
      </trkpt>
      <trkpt lat="44.99737" lon="6.4774">
        <ele>1556.7</ele>
        <time>2022-01-14T07:55:53Z</time>
      </trkpt>
      <trkpt lat="44.99738" lon="6.47739">
        <ele>1556.7</ele>
        <time>2022-01-14T07:55:54Z</time>
      </trkpt>
      <trkpt lat="44.99738" lon="6.47739">
        <ele>1556.7</ele>
        <time>2022-01-14T07:55:55Z</time>
      </trkpt>
      <trkpt lat="44.99739" lon="6.47739">
        <ele>1556.7</ele>
        <time>2022-01-14T07:55:56Z</time>
      </trkpt>
      <trkpt lat="44.99739" lon="6.47739">
        <ele>1556.7</ele>
        <time>2022-01-14T07:55:57Z</time>
      </trkpt>
      <trkpt lat="44.9974" lon="6.47739">
        <ele>1556.7</ele>
        <time>2022-01-14T07:55:58Z</time>
      </trkpt>
      <trkpt lat="44.9974" lon="6.47738">
        <ele>1556.7</ele>
        <time>2022-01-14T07:55:59Z</time>
      </trkpt>
      <trkpt lat="44.99741" lon="6.47738">
        <ele>1556.7</ele>
        <time>2022-01-14T07:56:00Z</time>
      </trkpt>
      <trkpt lat="44.99742" lon="6.47739">
        <ele>1556.8</ele>
        <time>2022-01-14T07:56:01Z</time>
      </trkpt>
      <trkpt lat="44.99743" lon="6.47738">
        <ele>1556.8</ele>
        <time>2022-01-14T07:56:02Z</time>
      </trkpt>
      <trkpt lat="44.99743" lon="6.47737">
        <ele>1556.8</ele>
        <time>2022-01-14T07:56:03Z</time>
      </trkpt>
      <trkpt lat="44.99744" lon="6.47737">
        <ele>1556.8</ele>
        <time>2022-01-14T07:56:04Z</time>
      </trkpt>
      <trkpt lat="44.99744" lon="6.47737">
        <ele>1556.8</ele>
        <time>2022-01-14T07:56:05Z</time>
      </trkpt>
      <trkpt lat="44.99744" lon="6.47737">
        <ele>1556.8</ele>
        <time>2022-01-14T07:56:06Z</time>
      </trkpt>
      <trkpt lat="44.99745" lon="6.47736">
        <ele>1556.8</ele>
        <time>2022-01-14T07:56:07Z</time>
      </trkpt>
      <trkpt lat="44.99747" lon="6.47735">
        <ele>1556.9</ele>
        <time>2022-01-14T07:56:08Z</time>
      </trkpt>
      <trkpt lat="44.99747" lon="6.47735">
        <ele>1556.9</ele>
        <time>2022-01-14T07:56:09Z</time>
      </trkpt>
      <trkpt lat="44.99748" lon="6.47735">
        <ele>1556.9</ele>
        <time>2022-01-14T07:56:10Z</time>
      </trkpt>
      <trkpt lat="44.99749" lon="6.47735">
        <ele>1556.9</ele>
        <time>2022-01-14T07:56:11Z</time>
      </trkpt>
      <trkpt lat="44.9975" lon="6.47735">
        <ele>1556.9</ele>
        <time>2022-01-14T07:56:12Z</time>
      </trkpt>
      <trkpt lat="44.99751" lon="6.47734">
        <ele>1557</ele>
        <time>2022-01-14T07:56:13Z</time>
      </trkpt>
      <trkpt lat="44.99752" lon="6.47733">
        <ele>1557</ele>
        <time>2022-01-14T07:56:14Z</time>
      </trkpt>
      <trkpt lat="44.99753" lon="6.47732">
        <ele>1557</ele>
        <time>2022-01-14T07:56:15Z</time>
      </trkpt>
      <trkpt lat="44.99754" lon="6.47731">
        <ele>1557</ele>
        <time>2022-01-14T07:56:16Z</time>
      </trkpt>
      <trkpt lat="44.99755" lon="6.4773">
        <ele>1557.1</ele>
        <time>2022-01-14T07:56:17Z</time>
      </trkpt>
      <trkpt lat="44.99757" lon="6.47729">
        <ele>1557.1</ele>
        <time>2022-01-14T07:56:18Z</time>
      </trkpt>
      <trkpt lat="44.99757" lon="6.47729">
        <ele>1557.1</ele>
        <time>2022-01-14T07:56:19Z</time>
      </trkpt>
      <trkpt lat="44.99759" lon="6.47728">
        <ele>1557.1</ele>
        <time>2022-01-14T07:56:20Z</time>
      </trkpt>
      <trkpt lat="44.9976" lon="6.47727">
        <ele>1557.1</ele>
        <time>2022-01-14T07:56:21Z</time>
      </trkpt>
      <trkpt lat="44.9976" lon="6.47726">
        <ele>1557.1</ele>
        <time>2022-01-14T07:56:22Z</time>
      </trkpt>
      <trkpt lat="44.99761" lon="6.47725">
        <ele>1557.2</ele>
        <time>2022-01-14T07:56:23Z</time>
      </trkpt>
      <trkpt lat="44.99762" lon="6.47724">
        <ele>1557.2</ele>
        <time>2022-01-14T07:56:24Z</time>
      </trkpt>
      <trkpt lat="44.99763" lon="6.47724">
        <ele>1557.2</ele>
        <time>2022-01-14T07:56:25Z</time>
      </trkpt>
      <trkpt lat="44.99764" lon="6.47724">
        <ele>1557.2</ele>
        <time>2022-01-14T07:56:26Z</time>
      </trkpt>
      <trkpt lat="44.99765" lon="6.47723">
        <ele>1557.2</ele>
        <time>2022-01-14T07:56:27Z</time>
      </trkpt>
      <trkpt lat="44.99767" lon="6.47722">
        <ele>1557.3</ele>
        <time>2022-01-14T07:56:28Z</time>
      </trkpt>
      <trkpt lat="44.99768" lon="6.47721">
        <ele>1557.3</ele>
        <time>2022-01-14T07:56:29Z</time>
      </trkpt>
      <trkpt lat="44.99768" lon="6.47721">
        <ele>1557.3</ele>
        <time>2022-01-14T07:56:30Z</time>
      </trkpt>
      <trkpt lat="44.99769" lon="6.47721">
        <ele>1557.3</ele>
        <time>2022-01-14T07:56:31Z</time>
      </trkpt>
      <trkpt lat="44.99769" lon="6.4772">
        <ele>1557.3</ele>
        <time>2022-01-14T07:56:32Z</time>
      </trkpt>
      <trkpt lat="44.9977" lon="6.47719">
        <ele>1557.3</ele>
        <time>2022-01-14T07:56:33Z</time>
      </trkpt>
      <trkpt lat="44.9977" lon="6.47719">
        <ele>1557.3</ele>
        <time>2022-01-14T07:56:34Z</time>
      </trkpt>
      <trkpt lat="44.99771" lon="6.47718">
        <ele>1557.3</ele>
        <time>2022-01-14T07:56:35Z</time>
      </trkpt>
      <trkpt lat="44.99772" lon="6.47717">
        <ele>1557.3</ele>
        <time>2022-01-14T07:56:36Z</time>
      </trkpt>
      <trkpt lat="44.99772" lon="6.47718">
        <ele>1557.3</ele>
        <time>2022-01-14T07:56:37Z</time>
      </trkpt>
      <trkpt lat="44.99774" lon="6.47717">
        <ele>1557.3</ele>
        <time>2022-01-14T07:56:38Z</time>
      </trkpt>
      <trkpt lat="44.99775" lon="6.47717">
        <ele>1557.4</ele>
        <time>2022-01-14T07:56:39Z</time>
      </trkpt>
      <trkpt lat="44.99775" lon="6.47716">
        <ele>1557.4</ele>
        <time>2022-01-14T07:56:40Z</time>
      </trkpt>
      <trkpt lat="44.99775" lon="6.47716">
        <ele>1557.4</ele>
        <time>2022-01-14T07:56:41Z</time>
      </trkpt>
      <trkpt lat="44.99777" lon="6.47715">
        <ele>1557.4</ele>
        <time>2022-01-14T07:56:42Z</time>
      </trkpt>
      <trkpt lat="44.99778" lon="6.47714">
        <ele>1557.4</ele>
        <time>2022-01-14T07:56:43Z</time>
      </trkpt>
      <trkpt lat="44.99779" lon="6.47713">
        <ele>1557.4</ele>
        <time>2022-01-14T07:56:44Z</time>
      </trkpt>
      <trkpt lat="44.9978" lon="6.47713">
        <ele>1557.4</ele>
        <time>2022-01-14T07:56:45Z</time>
      </trkpt>
      <trkpt lat="44.99781" lon="6.47712">
        <ele>1557.4</ele>
        <time>2022-01-14T07:56:46Z</time>
      </trkpt>
      <trkpt lat="44.99782" lon="6.47712">
        <ele>1557.4</ele>
        <time>2022-01-14T07:56:47Z</time>
      </trkpt>
      <trkpt lat="44.99783" lon="6.47711">
        <ele>1557.5</ele>
        <time>2022-01-14T07:56:48Z</time>
      </trkpt>
      <trkpt lat="44.99784" lon="6.47711">
        <ele>1557.5</ele>
        <time>2022-01-14T07:56:49Z</time>
      </trkpt>
      <trkpt lat="44.99785" lon="6.47711">
        <ele>1557.5</ele>
        <time>2022-01-14T07:56:50Z</time>
      </trkpt>
      <trkpt lat="44.99787" lon="6.47711">
        <ele>1557.5</ele>
        <time>2022-01-14T07:56:51Z</time>
      </trkpt>
      <trkpt lat="44.99788" lon="6.4771">
        <ele>1557.5</ele>
        <time>2022-01-14T07:56:52Z</time>
      </trkpt>
      <trkpt lat="44.99789" lon="6.4771">
        <ele>1557.5</ele>
        <time>2022-01-14T07:56:53Z</time>
      </trkpt>
      <trkpt lat="44.9979" lon="6.4771">
        <ele>1557.5</ele>
        <time>2022-01-14T07:56:54Z</time>
      </trkpt>
      <trkpt lat="44.99791" lon="6.47711">
        <ele>1557.5</ele>
        <time>2022-01-14T07:56:55Z</time>
      </trkpt>
      <trkpt lat="44.99792" lon="6.47711">
        <ele>1557.5</ele>
        <time>2022-01-14T07:56:56Z</time>
      </trkpt>
      <trkpt lat="44.99793" lon="6.47711">
        <ele>1557.5</ele>
        <time>2022-01-14T07:56:57Z</time>
      </trkpt>
      <trkpt lat="44.99793" lon="6.47711">
        <ele>1557.5</ele>
        <time>2022-01-14T07:56:58Z</time>
      </trkpt>
      <trkpt lat="44.99795" lon="6.47711">
        <ele>1557.5</ele>
        <time>2022-01-14T07:56:59Z</time>
      </trkpt>
      <trkpt lat="44.99796" lon="6.47712">
        <ele>1557.5</ele>
        <time>2022-01-14T07:57:00Z</time>
      </trkpt>
      <trkpt lat="44.99796" lon="6.47712">
        <ele>1557.5</ele>
        <time>2022-01-14T07:57:01Z</time>
      </trkpt>
      <trkpt lat="44.99797" lon="6.47712">
        <ele>1557.5</ele>
        <time>2022-01-14T07:57:02Z</time>
      </trkpt>
      <trkpt lat="44.99799" lon="6.47712">
        <ele>1557.6</ele>
        <time>2022-01-14T07:57:03Z</time>
      </trkpt>
      <trkpt lat="44.998" lon="6.47712">
        <ele>1557.6</ele>
        <time>2022-01-14T07:57:04Z</time>
      </trkpt>
      <trkpt lat="44.99801" lon="6.47712">
        <ele>1557.6</ele>
        <time>2022-01-14T07:57:05Z</time>
      </trkpt>
      <trkpt lat="44.99803" lon="6.47713">
        <ele>1557.6</ele>
        <time>2022-01-14T07:57:06Z</time>
      </trkpt>
      <trkpt lat="44.99804" lon="6.47713">
        <ele>1557.6</ele>
        <time>2022-01-14T07:57:07Z</time>
      </trkpt>
      <trkpt lat="44.99805" lon="6.47713">
        <ele>1557.6</ele>
        <time>2022-01-14T07:57:08Z</time>
      </trkpt>
      <trkpt lat="44.99806" lon="6.47714">
        <ele>1557.6</ele>
        <time>2022-01-14T07:57:09Z</time>
      </trkpt>
      <trkpt lat="44.99808" lon="6.47713">
        <ele>1557.6</ele>
        <time>2022-01-14T07:57:10Z</time>
      </trkpt>
      <trkpt lat="44.99809" lon="6.47713">
        <ele>1557.6</ele>
        <time>2022-01-14T07:57:11Z</time>
      </trkpt>
      <trkpt lat="44.9981" lon="6.47712">
        <ele>1557.6</ele>
        <time>2022-01-14T07:57:12Z</time>
      </trkpt>
      <trkpt lat="44.99812" lon="6.47712">
        <ele>1557.6</ele>
        <time>2022-01-14T07:57:13Z</time>
      </trkpt>
      <trkpt lat="44.99814" lon="6.47711">
        <ele>1557.6</ele>
        <time>2022-01-14T07:57:14Z</time>
      </trkpt>
      <trkpt lat="44.99816" lon="6.47708">
        <ele>1557.5</ele>
        <time>2022-01-14T07:57:15Z</time>
      </trkpt>
      <trkpt lat="44.99817" lon="6.47707">
        <ele>1557.5</ele>
        <time>2022-01-14T07:57:16Z</time>
      </trkpt>
      <trkpt lat="44.99818" lon="6.47705">
        <ele>1557.5</ele>
        <time>2022-01-14T07:57:17Z</time>
      </trkpt>
      <trkpt lat="44.99819" lon="6.47704">
        <ele>1557.5</ele>
        <time>2022-01-14T07:57:18Z</time>
      </trkpt>
      <trkpt lat="44.99819" lon="6.47702">
        <ele>1557.5</ele>
        <time>2022-01-14T07:57:19Z</time>
      </trkpt>
      <trkpt lat="44.9982" lon="6.477">
        <ele>1557.5</ele>
        <time>2022-01-14T07:57:20Z</time>
      </trkpt>
      <trkpt lat="44.9982" lon="6.47697">
        <ele>1557.5</ele>
        <time>2022-01-14T07:57:21Z</time>
      </trkpt>
      <trkpt lat="44.9982" lon="6.47695">
        <ele>1557.5</ele>
        <time>2022-01-14T07:57:22Z</time>
      </trkpt>
      <trkpt lat="44.99821" lon="6.47692">
        <ele>1557.5</ele>
        <time>2022-01-14T07:57:23Z</time>
      </trkpt>
      <trkpt lat="44.99821" lon="6.47691">
        <ele>1557.5</ele>
        <time>2022-01-14T07:57:24Z</time>
      </trkpt>
      <trkpt lat="44.99822" lon="6.47688">
        <ele>1557.5</ele>
        <time>2022-01-14T07:57:25Z</time>
      </trkpt>
      <trkpt lat="44.99822" lon="6.47686">
        <ele>1557.5</ele>
        <time>2022-01-14T07:57:26Z</time>
      </trkpt>
      <trkpt lat="44.99822" lon="6.47685">
        <ele>1557.5</ele>
        <time>2022-01-14T07:57:27Z</time>
      </trkpt>
      <trkpt lat="44.99823" lon="6.47682">
        <ele>1557.5</ele>
        <time>2022-01-14T07:57:28Z</time>
      </trkpt>
      <trkpt lat="44.99821" lon="6.47681">
        <ele>1557.5</ele>
        <time>2022-01-14T07:57:29Z</time>
      </trkpt>
      <trkpt lat="44.99821" lon="6.47679">
        <ele>1557.5</ele>
        <time>2022-01-14T07:57:30Z</time>
      </trkpt>
      <trkpt lat="44.99821" lon="6.47677">
        <ele>1557.5</ele>
        <time>2022-01-14T07:57:31Z</time>
      </trkpt>
      <trkpt lat="44.9982" lon="6.47676">
        <ele>1557.5</ele>
        <time>2022-01-14T07:57:32Z</time>
      </trkpt>
      <trkpt lat="44.9982" lon="6.47674">
        <ele>1557.5</ele>
        <time>2022-01-14T07:57:33Z</time>
      </trkpt>
      <trkpt lat="44.9982" lon="6.47673">
        <ele>1557.5</ele>
        <time>2022-01-14T07:57:34Z</time>
      </trkpt>
      <trkpt lat="44.9982" lon="6.47672">
        <ele>1557.5</ele>
        <time>2022-01-14T07:57:35Z</time>
      </trkpt>
      <trkpt lat="44.9982" lon="6.4767">
        <ele>1557.5</ele>
        <time>2022-01-14T07:57:36Z</time>
      </trkpt>
      <trkpt lat="44.9982" lon="6.47669">
        <ele>1557.5</ele>
        <time>2022-01-14T07:57:37Z</time>
      </trkpt>
      <trkpt lat="44.9982" lon="6.47667">
        <ele>1557.5</ele>
        <time>2022-01-14T07:57:38Z</time>
      </trkpt>
      <trkpt lat="44.99819" lon="6.47665">
        <ele>1557.6</ele>
        <time>2022-01-14T07:57:39Z</time>
      </trkpt>
      <trkpt lat="44.99819" lon="6.47663">
        <ele>1557.6</ele>
        <time>2022-01-14T07:57:40Z</time>
      </trkpt>
      <trkpt lat="44.99819" lon="6.47662">
        <ele>1557.6</ele>
        <time>2022-01-14T07:57:41Z</time>
      </trkpt>
      <trkpt lat="44.99818" lon="6.47661">
        <ele>1557.6</ele>
        <time>2022-01-14T07:57:42Z</time>
      </trkpt>
      <trkpt lat="44.99817" lon="6.47658">
        <ele>1557.6</ele>
        <time>2022-01-14T07:57:43Z</time>
      </trkpt>
      <trkpt lat="44.99817" lon="6.47657">
        <ele>1557.7</ele>
        <time>2022-01-14T07:57:44Z</time>
      </trkpt>
      <trkpt lat="44.99816" lon="6.47655">
        <ele>1557.7</ele>
        <time>2022-01-14T07:57:45Z</time>
      </trkpt>
      <trkpt lat="44.99816" lon="6.47655">
        <ele>1557.7</ele>
        <time>2022-01-14T07:57:46Z</time>
      </trkpt>
      <trkpt lat="44.99816" lon="6.47653">
        <ele>1557.7</ele>
        <time>2022-01-14T07:57:47Z</time>
      </trkpt>
      <trkpt lat="44.99815" lon="6.47652">
        <ele>1557.7</ele>
        <time>2022-01-14T07:57:48Z</time>
      </trkpt>
      <trkpt lat="44.99816" lon="6.4765">
        <ele>1557.8</ele>
        <time>2022-01-14T07:57:49Z</time>
      </trkpt>
      <trkpt lat="44.99817" lon="6.47648">
        <ele>1557.8</ele>
        <time>2022-01-14T07:57:50Z</time>
      </trkpt>
      <trkpt lat="44.99817" lon="6.47646">
        <ele>1557.9</ele>
        <time>2022-01-14T07:57:51Z</time>
      </trkpt>
      <trkpt lat="44.99817" lon="6.47644">
        <ele>1557.9</ele>
        <time>2022-01-14T07:57:52Z</time>
      </trkpt>
      <trkpt lat="44.99817" lon="6.47643">
        <ele>1558</ele>
        <time>2022-01-14T07:57:53Z</time>
      </trkpt>
      <trkpt lat="44.99816" lon="6.47641">
        <ele>1558</ele>
        <time>2022-01-14T07:57:54Z</time>
      </trkpt>
      <trkpt lat="44.99816" lon="6.47639">
        <ele>1558.1</ele>
        <time>2022-01-14T07:57:55Z</time>
      </trkpt>
      <trkpt lat="44.99817" lon="6.47638">
        <ele>1558.1</ele>
        <time>2022-01-14T07:57:56Z</time>
      </trkpt>
      <trkpt lat="44.99817" lon="6.47637">
        <ele>1558.2</ele>
        <time>2022-01-14T07:57:57Z</time>
      </trkpt>
      <trkpt lat="44.99817" lon="6.47633">
        <ele>1558.3</ele>
        <time>2022-01-14T07:57:58Z</time>
      </trkpt>
      <trkpt lat="44.99816" lon="6.47633">
        <ele>1558.4</ele>
        <time>2022-01-14T07:57:59Z</time>
      </trkpt>
      <trkpt lat="44.99816" lon="6.47632">
        <ele>1558.4</ele>
        <time>2022-01-14T07:58:00Z</time>
      </trkpt>
      <trkpt lat="44.99816" lon="6.47631">
        <ele>1558.5</ele>
        <time>2022-01-14T07:58:01Z</time>
      </trkpt>
      <trkpt lat="44.99816" lon="6.47629">
        <ele>1558.5</ele>
        <time>2022-01-14T07:58:02Z</time>
      </trkpt>
      <trkpt lat="44.99816" lon="6.47629">
        <ele>1558.5</ele>
        <time>2022-01-14T07:58:03Z</time>
      </trkpt>
      <trkpt lat="44.99817" lon="6.47628">
        <ele>1558.5</ele>
        <time>2022-01-14T07:58:04Z</time>
      </trkpt>
      <trkpt lat="44.99817" lon="6.47627">
        <ele>1559.4</ele>
        <time>2022-01-14T07:58:05Z</time>
      </trkpt>
      <trkpt lat="44.99816" lon="6.47626">
        <ele>1559.4</ele>
        <time>2022-01-14T07:58:06Z</time>
      </trkpt>
      <trkpt lat="44.99816" lon="6.47625">
        <ele>1559.5</ele>
        <time>2022-01-14T07:58:07Z</time>
      </trkpt>
      <trkpt lat="44.99816" lon="6.47625">
        <ele>1559.4</ele>
        <time>2022-01-14T07:58:08Z</time>
      </trkpt>
      <trkpt lat="44.99816" lon="6.47625">
        <ele>1559.4</ele>
        <time>2022-01-14T07:58:09Z</time>
      </trkpt>
      <trkpt lat="44.99817" lon="6.47625">
        <ele>1559.4</ele>
        <time>2022-01-14T07:58:10Z</time>
      </trkpt>
      <trkpt lat="44.99817" lon="6.47624">
        <ele>1559.4</ele>
        <time>2022-01-14T07:58:11Z</time>
      </trkpt>
      <trkpt lat="44.99817" lon="6.47624">
        <ele>1559.4</ele>
        <time>2022-01-14T07:58:12Z</time>
      </trkpt>
      <trkpt lat="44.99817" lon="6.47622">
        <ele>1560.3</ele>
        <time>2022-01-14T07:58:13Z</time>
      </trkpt>
      <trkpt lat="44.99817" lon="6.47621">
        <ele>1560.3</ele>
        <time>2022-01-14T07:58:14Z</time>
      </trkpt>
      <trkpt lat="44.99817" lon="6.4762">
        <ele>1560.3</ele>
        <time>2022-01-14T07:58:15Z</time>
      </trkpt>
      <trkpt lat="44.99817" lon="6.4762">
        <ele>1560.3</ele>
        <time>2022-01-14T07:58:16Z</time>
      </trkpt>
      <trkpt lat="44.99816" lon="6.47618">
        <ele>1561.3</ele>
        <time>2022-01-14T07:58:17Z</time>
      </trkpt>
      <trkpt lat="44.99815" lon="6.47618">
        <ele>1561.3</ele>
        <time>2022-01-14T07:58:18Z</time>
      </trkpt>
      <trkpt lat="44.99814" lon="6.47617">
        <ele>1561.3</ele>
        <time>2022-01-14T07:58:19Z</time>
      </trkpt>
      <trkpt lat="44.99814" lon="6.47617">
        <ele>1561.3</ele>
        <time>2022-01-14T07:58:20Z</time>
      </trkpt>
      <trkpt lat="44.99812" lon="6.47615">
        <ele>1561.6</ele>
        <time>2022-01-14T07:58:21Z</time>
      </trkpt>
      <trkpt lat="44.99812" lon="6.47615">
        <ele>1561.6</ele>
        <time>2022-01-14T07:58:22Z</time>
      </trkpt>
      <trkpt lat="44.99811" lon="6.47614">
        <ele>1562.3</ele>
        <time>2022-01-14T07:58:23Z</time>
      </trkpt>
      <trkpt lat="44.9981" lon="6.47613">
        <ele>1562.3</ele>
        <time>2022-01-14T07:58:24Z</time>
      </trkpt>
      <trkpt lat="44.99809" lon="6.47613">
        <ele>1562.6</ele>
        <time>2022-01-14T07:58:25Z</time>
      </trkpt>
      <trkpt lat="44.99808" lon="6.47611">
        <ele>1562.6</ele>
        <time>2022-01-14T07:58:26Z</time>
      </trkpt>
      <trkpt lat="44.99806" lon="6.4761">
        <ele>1562.8</ele>
        <time>2022-01-14T07:58:27Z</time>
      </trkpt>
      <trkpt lat="44.99805" lon="6.4761">
        <ele>1563.6</ele>
        <time>2022-01-14T07:58:28Z</time>
      </trkpt>
      <trkpt lat="44.99804" lon="6.47609">
        <ele>1563.6</ele>
        <time>2022-01-14T07:58:29Z</time>
      </trkpt>
      <trkpt lat="44.99803" lon="6.47608">
        <ele>1563.8</ele>
        <time>2022-01-14T07:58:30Z</time>
      </trkpt>
      <trkpt lat="44.99803" lon="6.47609">
        <ele>1563.8</ele>
        <time>2022-01-14T07:58:31Z</time>
      </trkpt>
      <trkpt lat="44.99803" lon="6.47608">
        <ele>1563.8</ele>
        <time>2022-01-14T07:58:32Z</time>
      </trkpt>
      <trkpt lat="44.99803" lon="6.47607">
        <ele>1563.8</ele>
        <time>2022-01-14T07:58:33Z</time>
      </trkpt>
      <trkpt lat="44.99801" lon="6.47606">
        <ele>1563.8</ele>
        <time>2022-01-14T07:58:34Z</time>
      </trkpt>
      <trkpt lat="44.99801" lon="6.47606">
        <ele>1563.8</ele>
        <time>2022-01-14T07:58:35Z</time>
      </trkpt>
      <trkpt lat="44.998" lon="6.47605">
        <ele>1564.8</ele>
        <time>2022-01-14T07:58:36Z</time>
      </trkpt>
      <trkpt lat="44.998" lon="6.47604">
        <ele>1564.8</ele>
        <time>2022-01-14T07:58:37Z</time>
      </trkpt>
      <trkpt lat="44.99799" lon="6.47604">
        <ele>1564.8</ele>
        <time>2022-01-14T07:58:38Z</time>
      </trkpt>
      <trkpt lat="44.99799" lon="6.47604">
        <ele>1564.8</ele>
        <time>2022-01-14T07:58:39Z</time>
      </trkpt>
      <trkpt lat="44.99799" lon="6.47604">
        <ele>1564.8</ele>
        <time>2022-01-14T07:58:40Z</time>
      </trkpt>
      <trkpt lat="44.99798" lon="6.47604">
        <ele>1564.8</ele>
        <time>2022-01-14T07:58:41Z</time>
      </trkpt>
      <trkpt lat="44.99798" lon="6.47604">
        <ele>1564.8</ele>
        <time>2022-01-14T07:58:42Z</time>
      </trkpt>
      <trkpt lat="44.99797" lon="6.47604">
        <ele>1564.8</ele>
        <time>2022-01-14T07:58:43Z</time>
      </trkpt>
      <trkpt lat="44.99797" lon="6.47604">
        <ele>1564.8</ele>
        <time>2022-01-14T07:58:44Z</time>
      </trkpt>
      <trkpt lat="44.99796" lon="6.47604">
        <ele>1564.8</ele>
        <time>2022-01-14T07:58:45Z</time>
      </trkpt>
      <trkpt lat="44.99794" lon="6.47604">
        <ele>1564.8</ele>
        <time>2022-01-14T07:58:46Z</time>
      </trkpt>
      <trkpt lat="44.99793" lon="6.47604">
        <ele>1564.8</ele>
        <time>2022-01-14T07:58:47Z</time>
      </trkpt>
      <trkpt lat="44.99791" lon="6.47604">
        <ele>1564.9</ele>
        <time>2022-01-14T07:58:48Z</time>
      </trkpt>
      <trkpt lat="44.99791" lon="6.47604">
        <ele>1564.9</ele>
        <time>2022-01-14T07:58:49Z</time>
      </trkpt>
      <trkpt lat="44.9979" lon="6.47604">
        <ele>1564.9</ele>
        <time>2022-01-14T07:58:50Z</time>
      </trkpt>
      <trkpt lat="44.99789" lon="6.47605">
        <ele>1564.9</ele>
        <time>2022-01-14T07:58:51Z</time>
      </trkpt>
      <trkpt lat="44.99788" lon="6.47605">
        <ele>1564.9</ele>
        <time>2022-01-14T07:58:52Z</time>
      </trkpt>
      <trkpt lat="44.99786" lon="6.47605">
        <ele>1564.9</ele>
        <time>2022-01-14T07:58:53Z</time>
      </trkpt>
      <trkpt lat="44.99785" lon="6.47605">
        <ele>1564.9</ele>
        <time>2022-01-14T07:58:54Z</time>
      </trkpt>
      <trkpt lat="44.99784" lon="6.47605">
        <ele>1564.9</ele>
        <time>2022-01-14T07:58:55Z</time>
      </trkpt>
      <trkpt lat="44.99783" lon="6.47605">
        <ele>1564.9</ele>
        <time>2022-01-14T07:58:56Z</time>
      </trkpt>
      <trkpt lat="44.99782" lon="6.47604">
        <ele>1564.9</ele>
        <time>2022-01-14T07:58:57Z</time>
      </trkpt>
      <trkpt lat="44.99781" lon="6.47604">
        <ele>1564.9</ele>
        <time>2022-01-14T07:58:58Z</time>
      </trkpt>
      <trkpt lat="44.9978" lon="6.47603">
        <ele>1564.9</ele>
        <time>2022-01-14T07:58:59Z</time>
      </trkpt>
      <trkpt lat="44.99778" lon="6.47602">
        <ele>1564.9</ele>
        <time>2022-01-14T07:59:00Z</time>
      </trkpt>
      <trkpt lat="44.99777" lon="6.47601">
        <ele>1564.9</ele>
        <time>2022-01-14T07:59:01Z</time>
      </trkpt>
      <trkpt lat="44.99776" lon="6.47601">
        <ele>1565.4</ele>
        <time>2022-01-14T07:59:02Z</time>
      </trkpt>
      <trkpt lat="44.99777" lon="6.47599">
        <ele>1565.4</ele>
        <time>2022-01-14T07:59:03Z</time>
      </trkpt>
      <trkpt lat="44.99777" lon="6.47599">
        <ele>1565.4</ele>
        <time>2022-01-14T07:59:04Z</time>
      </trkpt>
      <trkpt lat="44.99776" lon="6.47599">
        <ele>1565.4</ele>
        <time>2022-01-14T07:59:05Z</time>
      </trkpt>
      <trkpt lat="44.99776" lon="6.47599">
        <ele>1565.4</ele>
        <time>2022-01-14T07:59:06Z</time>
      </trkpt>
      <trkpt lat="44.99775" lon="6.47599">
        <ele>1565.4</ele>
        <time>2022-01-14T07:59:07Z</time>
      </trkpt>
      <trkpt lat="44.99775" lon="6.47599">
        <ele>1565.4</ele>
        <time>2022-01-14T07:59:08Z</time>
      </trkpt>
      <trkpt lat="44.99774" lon="6.47599">
        <ele>1565.4</ele>
        <time>2022-01-14T07:59:09Z</time>
      </trkpt>
      <trkpt lat="44.99773" lon="6.47598">
        <ele>1565.4</ele>
        <time>2022-01-14T07:59:10Z</time>
      </trkpt>
      <trkpt lat="44.99773" lon="6.47597">
        <ele>1565.4</ele>
        <time>2022-01-14T07:59:11Z</time>
      </trkpt>
      <trkpt lat="44.99773" lon="6.47596">
        <ele>1565.9</ele>
        <time>2022-01-14T07:59:12Z</time>
      </trkpt>
      <trkpt lat="44.99771" lon="6.47595">
        <ele>1565.9</ele>
        <time>2022-01-14T07:59:13Z</time>
      </trkpt>
      <trkpt lat="44.9977" lon="6.47594">
        <ele>1565.9</ele>
        <time>2022-01-14T07:59:14Z</time>
      </trkpt>
      <trkpt lat="44.99769" lon="6.47594">
        <ele>1565.9</ele>
        <time>2022-01-14T07:59:15Z</time>
      </trkpt>
      <trkpt lat="44.99768" lon="6.47593">
        <ele>1565.9</ele>
        <time>2022-01-14T07:59:16Z</time>
      </trkpt>
      <trkpt lat="44.99767" lon="6.47592">
        <ele>1566.4</ele>
        <time>2022-01-14T07:59:17Z</time>
      </trkpt>
      <trkpt lat="44.99766" lon="6.47591">
        <ele>1566.4</ele>
        <time>2022-01-14T07:59:18Z</time>
      </trkpt>
      <trkpt lat="44.99765" lon="6.47591">
        <ele>1566.4</ele>
        <time>2022-01-14T07:59:19Z</time>
      </trkpt>
      <trkpt lat="44.99764" lon="6.4759">
        <ele>1566.4</ele>
        <time>2022-01-14T07:59:20Z</time>
      </trkpt>
      <trkpt lat="44.99765" lon="6.47589">
        <ele>1566.4</ele>
        <time>2022-01-14T07:59:21Z</time>
      </trkpt>
      <trkpt lat="44.99764" lon="6.47588">
        <ele>1566.9</ele>
        <time>2022-01-14T07:59:22Z</time>
      </trkpt>
      <trkpt lat="44.99763" lon="6.47587">
        <ele>1566.9</ele>
        <time>2022-01-14T07:59:23Z</time>
      </trkpt>
      <trkpt lat="44.99763" lon="6.47586">
        <ele>1566.9</ele>
        <time>2022-01-14T07:59:24Z</time>
      </trkpt>
      <trkpt lat="44.99762" lon="6.47585">
        <ele>1566.9</ele>
        <time>2022-01-14T07:59:25Z</time>
      </trkpt>
      <trkpt lat="44.99762" lon="6.47586">
        <ele>1566.9</ele>
        <time>2022-01-14T07:59:26Z</time>
      </trkpt>
      <trkpt lat="44.99763" lon="6.47586">
        <ele>1566.9</ele>
        <time>2022-01-14T07:59:27Z</time>
      </trkpt>
      <trkpt lat="44.99762" lon="6.47584">
        <ele>1566.9</ele>
        <time>2022-01-14T07:59:28Z</time>
      </trkpt>
      <trkpt lat="44.99762" lon="6.47582">
        <ele>1567.4</ele>
        <time>2022-01-14T07:59:29Z</time>
      </trkpt>
      <trkpt lat="44.99761" lon="6.47581">
        <ele>1567.4</ele>
        <time>2022-01-14T07:59:30Z</time>
      </trkpt>
      <trkpt lat="44.99761" lon="6.4758">
        <ele>1567.4</ele>
        <time>2022-01-14T07:59:31Z</time>
      </trkpt>
      <trkpt lat="44.99762" lon="6.47579">
        <ele>1567.9</ele>
        <time>2022-01-14T07:59:32Z</time>
      </trkpt>
      <trkpt lat="44.99762" lon="6.47579">
        <ele>1567.9</ele>
        <time>2022-01-14T07:59:33Z</time>
      </trkpt>
      <trkpt lat="44.99762" lon="6.47579">
        <ele>1567.9</ele>
        <time>2022-01-14T07:59:34Z</time>
      </trkpt>
      <trkpt lat="44.99762" lon="6.47578">
        <ele>1567.9</ele>
        <time>2022-01-14T07:59:35Z</time>
      </trkpt>
      <trkpt lat="44.99762" lon="6.47578">
        <ele>1567.9</ele>
        <time>2022-01-14T07:59:36Z</time>
      </trkpt>
      <trkpt lat="44.99762" lon="6.47578">
        <ele>1567.9</ele>
        <time>2022-01-14T07:59:37Z</time>
      </trkpt>
      <trkpt lat="44.99762" lon="6.47577">
        <ele>1567.9</ele>
        <time>2022-01-14T07:59:38Z</time>
      </trkpt>
      <trkpt lat="44.99762" lon="6.47577">
        <ele>1567.9</ele>
        <time>2022-01-14T07:59:39Z</time>
      </trkpt>
      <trkpt lat="44.99761" lon="6.47576">
        <ele>1567.9</ele>
        <time>2022-01-14T07:59:40Z</time>
      </trkpt>
      <trkpt lat="44.9976" lon="6.47575">
        <ele>1568.4</ele>
        <time>2022-01-14T07:59:41Z</time>
      </trkpt>
      <trkpt lat="44.99759" lon="6.47574">
        <ele>1568.4</ele>
        <time>2022-01-14T07:59:42Z</time>
      </trkpt>
      <trkpt lat="44.99759" lon="6.47574">
        <ele>1568.4</ele>
        <time>2022-01-14T07:59:43Z</time>
      </trkpt>
      <trkpt lat="44.99759" lon="6.47573">
        <ele>1568.4</ele>
        <time>2022-01-14T07:59:44Z</time>
      </trkpt>
      <trkpt lat="44.99759" lon="6.47573">
        <ele>1568.4</ele>
        <time>2022-01-14T07:59:45Z</time>
      </trkpt>
      <trkpt lat="44.99759" lon="6.47574">
        <ele>1568.4</ele>
        <time>2022-01-14T07:59:46Z</time>
      </trkpt>
      <trkpt lat="44.99758" lon="6.47573">
        <ele>1568.4</ele>
        <time>2022-01-14T07:59:47Z</time>
      </trkpt>
      <trkpt lat="44.99758" lon="6.47573">
        <ele>1568.4</ele>
        <time>2022-01-14T07:59:48Z</time>
      </trkpt>
      <trkpt lat="44.99757" lon="6.47574">
        <ele>1568.4</ele>
        <time>2022-01-14T07:59:49Z</time>
      </trkpt>
      <trkpt lat="44.99756" lon="6.47573">
        <ele>1568.4</ele>
        <time>2022-01-14T07:59:50Z</time>
      </trkpt>
      <trkpt lat="44.99758" lon="6.47574">
        <ele>1568.4</ele>
        <time>2022-01-14T07:59:51Z</time>
      </trkpt>
      <trkpt lat="44.99757" lon="6.47574">
        <ele>1568.4</ele>
        <time>2022-01-14T07:59:52Z</time>
      </trkpt>
      <trkpt lat="44.99756" lon="6.47574">
        <ele>1568.4</ele>
        <time>2022-01-14T07:59:53Z</time>
      </trkpt>
      <trkpt lat="44.99756" lon="6.47572">
        <ele>1568.4</ele>
        <time>2022-01-14T07:59:54Z</time>
      </trkpt>
      <trkpt lat="44.99755" lon="6.4757">
        <ele>1568.9</ele>
        <time>2022-01-14T07:59:55Z</time>
      </trkpt>
      <trkpt lat="44.99755" lon="6.47569">
        <ele>1568.9</ele>
        <time>2022-01-14T07:59:56Z</time>
      </trkpt>
      <trkpt lat="44.99754" lon="6.47568">
        <ele>1568.9</ele>
        <time>2022-01-14T07:59:57Z</time>
      </trkpt>
      <trkpt lat="44.99753" lon="6.47566">
        <ele>1569.4</ele>
        <time>2022-01-14T07:59:58Z</time>
      </trkpt>
      <trkpt lat="44.99752" lon="6.47565">
        <ele>1569.4</ele>
        <time>2022-01-14T07:59:59Z</time>
      </trkpt>
      <trkpt lat="44.99751" lon="6.47564">
        <ele>1569.4</ele>
        <time>2022-01-14T08:00:00Z</time>
      </trkpt>
      <trkpt lat="44.9975" lon="6.47564">
        <ele>1569.4</ele>
        <time>2022-01-14T08:00:01Z</time>
      </trkpt>
      <trkpt lat="44.9975" lon="6.47563">
        <ele>1569.4</ele>
        <time>2022-01-14T08:00:02Z</time>
      </trkpt>
      <trkpt lat="44.9975" lon="6.47562">
        <ele>1569.9</ele>
        <time>2022-01-14T08:00:03Z</time>
      </trkpt>
      <trkpt lat="44.99749" lon="6.47561">
        <ele>1569.9</ele>
        <time>2022-01-14T08:00:04Z</time>
      </trkpt>
      <trkpt lat="44.99748" lon="6.4756">
        <ele>1569.9</ele>
        <time>2022-01-14T08:00:05Z</time>
      </trkpt>
      <trkpt lat="44.99747" lon="6.47559">
        <ele>1569.9</ele>
        <time>2022-01-14T08:00:06Z</time>
      </trkpt>
      <trkpt lat="44.99746" lon="6.47558">
        <ele>1570.4</ele>
        <time>2022-01-14T08:00:07Z</time>
      </trkpt>
      <trkpt lat="44.99745" lon="6.47558">
        <ele>1570.4</ele>
        <time>2022-01-14T08:00:08Z</time>
      </trkpt>
      <trkpt lat="44.99744" lon="6.47557">
        <ele>1570.4</ele>
        <time>2022-01-14T08:00:09Z</time>
      </trkpt>
      <trkpt lat="44.99744" lon="6.47556">
        <ele>1570.4</ele>
        <time>2022-01-14T08:00:10Z</time>
      </trkpt>
      <trkpt lat="44.99744" lon="6.47556">
        <ele>1570.4</ele>
        <time>2022-01-14T08:00:11Z</time>
      </trkpt>
      <trkpt lat="44.99742" lon="6.47556">
        <ele>1570.4</ele>
        <time>2022-01-14T08:00:12Z</time>
      </trkpt>
      <trkpt lat="44.99741" lon="6.47557">
        <ele>1570.4</ele>
        <time>2022-01-14T08:00:13Z</time>
      </trkpt>
      <trkpt lat="44.99739" lon="6.47558">
        <ele>1570.4</ele>
        <time>2022-01-14T08:00:14Z</time>
      </trkpt>
      <trkpt lat="44.99738" lon="6.47558">
        <ele>1570.4</ele>
        <time>2022-01-14T08:00:15Z</time>
      </trkpt>
      <trkpt lat="44.99736" lon="6.47558">
        <ele>1570.7</ele>
        <time>2022-01-14T08:00:16Z</time>
      </trkpt>
      <trkpt lat="44.99736" lon="6.47558">
        <ele>1570.7</ele>
        <time>2022-01-14T08:00:17Z</time>
      </trkpt>
      <trkpt lat="44.99735" lon="6.47558">
        <ele>1570.7</ele>
        <time>2022-01-14T08:00:18Z</time>
      </trkpt>
      <trkpt lat="44.99734" lon="6.47559">
        <ele>1570.4</ele>
        <time>2022-01-14T08:00:19Z</time>
      </trkpt>
      <trkpt lat="44.99732" lon="6.4756">
        <ele>1570.4</ele>
        <time>2022-01-14T08:00:20Z</time>
      </trkpt>
      <trkpt lat="44.99731" lon="6.4756">
        <ele>1570.4</ele>
        <time>2022-01-14T08:00:21Z</time>
      </trkpt>
      <trkpt lat="44.99729" lon="6.47561">
        <ele>1570.7</ele>
        <time>2022-01-14T08:00:22Z</time>
      </trkpt>
      <trkpt lat="44.99729" lon="6.47561">
        <ele>1570.7</ele>
        <time>2022-01-14T08:00:23Z</time>
      </trkpt>
      <trkpt lat="44.99728" lon="6.47561">
        <ele>1570.7</ele>
        <time>2022-01-14T08:00:24Z</time>
      </trkpt>
      <trkpt lat="44.99728" lon="6.47561">
        <ele>1570.9</ele>
        <time>2022-01-14T08:00:25Z</time>
      </trkpt>
      <trkpt lat="44.99727" lon="6.47561">
        <ele>1570.9</ele>
        <time>2022-01-14T08:00:26Z</time>
      </trkpt>
      <trkpt lat="44.99726" lon="6.47561">
        <ele>1570.9</ele>
        <time>2022-01-14T08:00:27Z</time>
      </trkpt>
      <trkpt lat="44.99726" lon="6.47561">
        <ele>1570.9</ele>
        <time>2022-01-14T08:00:28Z</time>
      </trkpt>
      <trkpt lat="44.99726" lon="6.47562">
        <ele>1570.9</ele>
        <time>2022-01-14T08:00:29Z</time>
      </trkpt>
      <trkpt lat="44.99725" lon="6.47561">
        <ele>1570.9</ele>
        <time>2022-01-14T08:00:30Z</time>
      </trkpt>
      <trkpt lat="44.99725" lon="6.47561">
        <ele>1570.9</ele>
        <time>2022-01-14T08:00:31Z</time>
      </trkpt>
      <trkpt lat="44.99725" lon="6.47562">
        <ele>1570.9</ele>
        <time>2022-01-14T08:00:32Z</time>
      </trkpt>
      <trkpt lat="44.99724" lon="6.4756">
        <ele>1571.2</ele>
        <time>2022-01-14T08:00:33Z</time>
      </trkpt>
      <trkpt lat="44.99723" lon="6.4756">
        <ele>1571.2</ele>
        <time>2022-01-14T08:00:34Z</time>
      </trkpt>
      <trkpt lat="44.99722" lon="6.4756">
        <ele>1571.2</ele>
        <time>2022-01-14T08:00:35Z</time>
      </trkpt>
      <trkpt lat="44.99722" lon="6.47559">
        <ele>1571.4</ele>
        <time>2022-01-14T08:00:36Z</time>
      </trkpt>
      <trkpt lat="44.99722" lon="6.47557">
        <ele>1571.7</ele>
        <time>2022-01-14T08:00:37Z</time>
      </trkpt>
      <trkpt lat="44.99721" lon="6.47556">
        <ele>1571.9</ele>
        <time>2022-01-14T08:00:38Z</time>
      </trkpt>
      <trkpt lat="44.9972" lon="6.47556">
        <ele>1571.9</ele>
        <time>2022-01-14T08:00:39Z</time>
      </trkpt>
      <trkpt lat="44.9972" lon="6.47556">
        <ele>1571.9</ele>
        <time>2022-01-14T08:00:40Z</time>
      </trkpt>
      <trkpt lat="44.99718" lon="6.47556">
        <ele>1572.2</ele>
        <time>2022-01-14T08:00:41Z</time>
      </trkpt>
      <trkpt lat="44.99718" lon="6.47556">
        <ele>1572.2</ele>
        <time>2022-01-14T08:00:42Z</time>
      </trkpt>
      <trkpt lat="44.99717" lon="6.47556">
        <ele>1572.2</ele>
        <time>2022-01-14T08:00:43Z</time>
      </trkpt>
      <trkpt lat="44.99716" lon="6.47556">
        <ele>1572.4</ele>
        <time>2022-01-14T08:00:44Z</time>
      </trkpt>
      <trkpt lat="44.99715" lon="6.47556">
        <ele>1572.4</ele>
        <time>2022-01-14T08:00:45Z</time>
      </trkpt>
      <trkpt lat="44.99714" lon="6.47555">
        <ele>1572.4</ele>
        <time>2022-01-14T08:00:46Z</time>
      </trkpt>
      <trkpt lat="44.99712" lon="6.47554">
        <ele>1572.4</ele>
        <time>2022-01-14T08:00:47Z</time>
      </trkpt>
      <trkpt lat="44.99711" lon="6.47554">
        <ele>1572.9</ele>
        <time>2022-01-14T08:00:48Z</time>
      </trkpt>
      <trkpt lat="44.99711" lon="6.47552">
        <ele>1572.9</ele>
        <time>2022-01-14T08:00:49Z</time>
      </trkpt>
      <trkpt lat="44.9971" lon="6.47551">
        <ele>1572.9</ele>
        <time>2022-01-14T08:00:50Z</time>
      </trkpt>
      <trkpt lat="44.99709" lon="6.4755">
        <ele>1572.9</ele>
        <time>2022-01-14T08:00:51Z</time>
      </trkpt>
      <trkpt lat="44.99709" lon="6.47548">
        <ele>1573.5</ele>
        <time>2022-01-14T08:00:52Z</time>
      </trkpt>
      <trkpt lat="44.99709" lon="6.47547">
        <ele>1573.5</ele>
        <time>2022-01-14T08:00:53Z</time>
      </trkpt>
      <trkpt lat="44.99708" lon="6.47545">
        <ele>1573.5</ele>
        <time>2022-01-14T08:00:54Z</time>
      </trkpt>
      <trkpt lat="44.99708" lon="6.47545">
        <ele>1574.2</ele>
        <time>2022-01-14T08:00:55Z</time>
      </trkpt>
      <trkpt lat="44.99708" lon="6.47544">
        <ele>1574.2</ele>
        <time>2022-01-14T08:00:56Z</time>
      </trkpt>
      <trkpt lat="44.99708" lon="6.47544">
        <ele>1574.2</ele>
        <time>2022-01-14T08:00:57Z</time>
      </trkpt>
      <trkpt lat="44.99708" lon="6.47543">
        <ele>1574.2</ele>
        <time>2022-01-14T08:00:58Z</time>
      </trkpt>
      <trkpt lat="44.99708" lon="6.47542">
        <ele>1574.2</ele>
        <time>2022-01-14T08:00:59Z</time>
      </trkpt>
      <trkpt lat="44.99707" lon="6.47542">
        <ele>1574.2</ele>
        <time>2022-01-14T08:01:00Z</time>
      </trkpt>
      <trkpt lat="44.99705" lon="6.47542">
        <ele>1574.2</ele>
        <time>2022-01-14T08:01:01Z</time>
      </trkpt>
      <trkpt lat="44.99704" lon="6.47541">
        <ele>1575</ele>
        <time>2022-01-14T08:01:02Z</time>
      </trkpt>
      <trkpt lat="44.99703" lon="6.47541">
        <ele>1574.9</ele>
        <time>2022-01-14T08:01:03Z</time>
      </trkpt>
      <trkpt lat="44.99703" lon="6.47541">
        <ele>1574.9</ele>
        <time>2022-01-14T08:01:04Z</time>
      </trkpt>
      <trkpt lat="44.99702" lon="6.47541">
        <ele>1574.9</ele>
        <time>2022-01-14T08:01:05Z</time>
      </trkpt>
      <trkpt lat="44.99702" lon="6.4754">
        <ele>1574.9</ele>
        <time>2022-01-14T08:01:06Z</time>
      </trkpt>
      <trkpt lat="44.99701" lon="6.4754">
        <ele>1574.9</ele>
        <time>2022-01-14T08:01:07Z</time>
      </trkpt>
      <trkpt lat="44.99701" lon="6.47539">
        <ele>1574.9</ele>
        <time>2022-01-14T08:01:08Z</time>
      </trkpt>
      <trkpt lat="44.99701" lon="6.47538">
        <ele>1574.9</ele>
        <time>2022-01-14T08:01:09Z</time>
      </trkpt>
      <trkpt lat="44.997" lon="6.47537">
        <ele>1575.4</ele>
        <time>2022-01-14T08:01:10Z</time>
      </trkpt>
      <trkpt lat="44.99699" lon="6.47535">
        <ele>1575.4</ele>
        <time>2022-01-14T08:01:11Z</time>
      </trkpt>
      <trkpt lat="44.99698" lon="6.47535">
        <ele>1575.4</ele>
        <time>2022-01-14T08:01:12Z</time>
      </trkpt>
      <trkpt lat="44.99697" lon="6.47533">
        <ele>1575.2</ele>
        <time>2022-01-14T08:01:13Z</time>
      </trkpt>
      <trkpt lat="44.99697" lon="6.47533">
        <ele>1575.2</ele>
        <time>2022-01-14T08:01:14Z</time>
      </trkpt>
      <trkpt lat="44.99696" lon="6.47532">
        <ele>1575.9</ele>
        <time>2022-01-14T08:01:15Z</time>
      </trkpt>
      <trkpt lat="44.99695" lon="6.47532">
        <ele>1575.9</ele>
        <time>2022-01-14T08:01:16Z</time>
      </trkpt>
      <trkpt lat="44.99694" lon="6.47532">
        <ele>1575.6</ele>
        <time>2022-01-14T08:01:17Z</time>
      </trkpt>
      <trkpt lat="44.99693" lon="6.47533">
        <ele>1575</ele>
        <time>2022-01-14T08:01:18Z</time>
      </trkpt>
      <trkpt lat="44.99692" lon="6.47533">
        <ele>1575</ele>
        <time>2022-01-14T08:01:19Z</time>
      </trkpt>
      <trkpt lat="44.99692" lon="6.47533">
        <ele>1575</ele>
        <time>2022-01-14T08:01:20Z</time>
      </trkpt>
      <trkpt lat="44.99691" lon="6.47533">
        <ele>1574.8</ele>
        <time>2022-01-14T08:01:21Z</time>
      </trkpt>
      <trkpt lat="44.99691" lon="6.47533">
        <ele>1574.8</ele>
        <time>2022-01-14T08:01:22Z</time>
      </trkpt>
      <trkpt lat="44.9969" lon="6.47532">
        <ele>1575.4</ele>
        <time>2022-01-14T08:01:23Z</time>
      </trkpt>
      <trkpt lat="44.9969" lon="6.47532">
        <ele>1575.4</ele>
        <time>2022-01-14T08:01:24Z</time>
      </trkpt>
      <trkpt lat="44.99689" lon="6.47532">
        <ele>1575.4</ele>
        <time>2022-01-14T08:01:25Z</time>
      </trkpt>
      <trkpt lat="44.99689" lon="6.47531">
        <ele>1575.4</ele>
        <time>2022-01-14T08:01:26Z</time>
      </trkpt>
      <trkpt lat="44.99689" lon="6.47531">
        <ele>1575.4</ele>
        <time>2022-01-14T08:01:27Z</time>
      </trkpt>
      <trkpt lat="44.99688" lon="6.47531">
        <ele>1575.1</ele>
        <time>2022-01-14T08:01:28Z</time>
      </trkpt>
      <trkpt lat="44.99688" lon="6.4753">
        <ele>1575.1</ele>
        <time>2022-01-14T08:01:29Z</time>
      </trkpt>
      <trkpt lat="44.99687" lon="6.47529">
        <ele>1575.1</ele>
        <time>2022-01-14T08:01:31Z</time>
      </trkpt>
      <trkpt lat="44.99688" lon="6.47528">
        <ele>1575.9</ele>
        <time>2022-01-14T08:01:32Z</time>
      </trkpt>
      <trkpt lat="44.99687" lon="6.47528">
        <ele>1575.9</ele>
        <time>2022-01-14T08:01:33Z</time>
      </trkpt>
      <trkpt lat="44.99687" lon="6.47528">
        <ele>1575.9</ele>
        <time>2022-01-14T08:01:34Z</time>
      </trkpt>
      <trkpt lat="44.99686" lon="6.47527">
        <ele>1575.9</ele>
        <time>2022-01-14T08:01:35Z</time>
      </trkpt>
      <trkpt lat="44.99685" lon="6.47527">
        <ele>1575.6</ele>
        <time>2022-01-14T08:01:36Z</time>
      </trkpt>
      <trkpt lat="44.99685" lon="6.47525">
        <ele>1575.6</ele>
        <time>2022-01-14T08:01:37Z</time>
      </trkpt>
      <trkpt lat="44.99685" lon="6.47524">
        <ele>1575.6</ele>
        <time>2022-01-14T08:01:38Z</time>
      </trkpt>
      <trkpt lat="44.99684" lon="6.47524">
        <ele>1575.6</ele>
        <time>2022-01-14T08:01:39Z</time>
      </trkpt>
      <trkpt lat="44.99683" lon="6.47523">
        <ele>1576.4</ele>
        <time>2022-01-14T08:01:40Z</time>
      </trkpt>
      <trkpt lat="44.99683" lon="6.47522">
        <ele>1576.4</ele>
        <time>2022-01-14T08:01:41Z</time>
      </trkpt>
      <trkpt lat="44.99682" lon="6.47521">
        <ele>1576.1</ele>
        <time>2022-01-14T08:01:42Z</time>
      </trkpt>
      <trkpt lat="44.99682" lon="6.47521">
        <ele>1576.1</ele>
        <time>2022-01-14T08:01:43Z</time>
      </trkpt>
      <trkpt lat="44.99682" lon="6.47519">
        <ele>1576.9</ele>
        <time>2022-01-14T08:01:44Z</time>
      </trkpt>
      <trkpt lat="44.99681" lon="6.47519">
        <ele>1576.9</ele>
        <time>2022-01-14T08:01:45Z</time>
      </trkpt>
      <trkpt lat="44.9968" lon="6.47517">
        <ele>1576.9</ele>
        <time>2022-01-14T08:01:46Z</time>
      </trkpt>
      <trkpt lat="44.99679" lon="6.47516">
        <ele>1576.9</ele>
        <time>2022-01-14T08:01:47Z</time>
      </trkpt>
      <trkpt lat="44.99679" lon="6.47515">
        <ele>1576.6</ele>
        <time>2022-01-14T08:01:48Z</time>
      </trkpt>
      <trkpt lat="44.99679" lon="6.47515">
        <ele>1577.3</ele>
        <time>2022-01-14T08:01:49Z</time>
      </trkpt>
      <trkpt lat="44.99679" lon="6.47514">
        <ele>1577.3</ele>
        <time>2022-01-14T08:01:50Z</time>
      </trkpt>
      <trkpt lat="44.99679" lon="6.47513">
        <ele>1577.3</ele>
        <time>2022-01-14T08:01:51Z</time>
      </trkpt>
      <trkpt lat="44.99679" lon="6.47513">
        <ele>1577.3</ele>
        <time>2022-01-14T08:01:52Z</time>
      </trkpt>
      <trkpt lat="44.99679" lon="6.47512">
        <ele>1577.3</ele>
        <time>2022-01-14T08:01:53Z</time>
      </trkpt>
      <trkpt lat="44.99678" lon="6.47511">
        <ele>1578.1</ele>
        <time>2022-01-14T08:01:54Z</time>
      </trkpt>
      <trkpt lat="44.99678" lon="6.4751">
        <ele>1578.1</ele>
        <time>2022-01-14T08:01:55Z</time>
      </trkpt>
      <trkpt lat="44.99677" lon="6.47509">
        <ele>1578.1</ele>
        <time>2022-01-14T08:01:56Z</time>
      </trkpt>
      <trkpt lat="44.99677" lon="6.47507">
        <ele>1578.1</ele>
        <time>2022-01-14T08:01:57Z</time>
      </trkpt>
      <trkpt lat="44.99676" lon="6.47507">
        <ele>1578.3</ele>
        <time>2022-01-14T08:01:58Z</time>
      </trkpt>
      <trkpt lat="44.99675" lon="6.47506">
        <ele>1578.3</ele>
        <time>2022-01-14T08:01:59Z</time>
      </trkpt>
      <trkpt lat="44.99675" lon="6.47506">
        <ele>1578.3</ele>
        <time>2022-01-14T08:02:00Z</time>
      </trkpt>
      <trkpt lat="44.99674" lon="6.47505">
        <ele>1578.3</ele>
        <time>2022-01-14T08:02:01Z</time>
      </trkpt>
      <trkpt lat="44.99674" lon="6.47504">
        <ele>1578.3</ele>
        <time>2022-01-14T08:02:02Z</time>
      </trkpt>
      <trkpt lat="44.99674" lon="6.47505">
        <ele>1578.3</ele>
        <time>2022-01-14T08:02:03Z</time>
      </trkpt>
      <trkpt lat="44.99674" lon="6.47505">
        <ele>1578.3</ele>
        <time>2022-01-14T08:02:04Z</time>
      </trkpt>
      <trkpt lat="44.99674" lon="6.47505">
        <ele>1578.3</ele>
        <time>2022-01-14T08:02:05Z</time>
      </trkpt>
      <trkpt lat="44.99673" lon="6.47505">
        <ele>1578.3</ele>
        <time>2022-01-14T08:02:06Z</time>
      </trkpt>
      <trkpt lat="44.99673" lon="6.47505">
        <ele>1578.3</ele>
        <time>2022-01-14T08:02:07Z</time>
      </trkpt>
      <trkpt lat="44.99673" lon="6.47505">
        <ele>1578.3</ele>
        <time>2022-01-14T08:02:08Z</time>
      </trkpt>
      <trkpt lat="44.99673" lon="6.47505">
        <ele>1578.3</ele>
        <time>2022-01-14T08:02:09Z</time>
      </trkpt>
      <trkpt lat="44.99673" lon="6.47505">
        <ele>1577.8</ele>
        <time>2022-01-14T08:02:10Z</time>
      </trkpt>
      <trkpt lat="44.99672" lon="6.47506">
        <ele>1577.8</ele>
        <time>2022-01-14T08:02:11Z</time>
      </trkpt>
      <trkpt lat="44.99672" lon="6.47505">
        <ele>1577.8</ele>
        <time>2022-01-14T08:02:12Z</time>
      </trkpt>
      <trkpt lat="44.99671" lon="6.47506">
        <ele>1577.8</ele>
        <time>2022-01-14T08:02:13Z</time>
      </trkpt>
      <trkpt lat="44.9967" lon="6.47506">
        <ele>1577.3</ele>
        <time>2022-01-14T08:02:14Z</time>
      </trkpt>
      <trkpt lat="44.99669" lon="6.47505">
        <ele>1577.3</ele>
        <time>2022-01-14T08:02:15Z</time>
      </trkpt>
      <trkpt lat="44.99668" lon="6.47505">
        <ele>1577.3</ele>
        <time>2022-01-14T08:02:16Z</time>
      </trkpt>
      <trkpt lat="44.99667" lon="6.47503">
        <ele>1576.9</ele>
        <time>2022-01-14T08:02:17Z</time>
      </trkpt>
      <trkpt lat="44.99665" lon="6.47503">
        <ele>1576.9</ele>
        <time>2022-01-14T08:02:18Z</time>
      </trkpt>
      <trkpt lat="44.99665" lon="6.47503">
        <ele>1576.9</ele>
        <time>2022-01-14T08:02:19Z</time>
      </trkpt>
      <trkpt lat="44.99664" lon="6.47503">
        <ele>1576.6</ele>
        <time>2022-01-14T08:02:20Z</time>
      </trkpt>
      <trkpt lat="44.99663" lon="6.47503">
        <ele>1576.6</ele>
        <time>2022-01-14T08:02:21Z</time>
      </trkpt>
      <trkpt lat="44.99661" lon="6.47502">
        <ele>1577.4</ele>
        <time>2022-01-14T08:02:22Z</time>
      </trkpt>
      <trkpt lat="44.9966" lon="6.47501">
        <ele>1577.1</ele>
        <time>2022-01-14T08:02:23Z</time>
      </trkpt>
      <trkpt lat="44.99659" lon="6.47499">
        <ele>1577.1</ele>
        <time>2022-01-14T08:02:24Z</time>
      </trkpt>
      <trkpt lat="44.99658" lon="6.47498">
        <ele>1577.9</ele>
        <time>2022-01-14T08:02:25Z</time>
      </trkpt>
      <trkpt lat="44.99658" lon="6.47497">
        <ele>1577.7</ele>
        <time>2022-01-14T08:02:26Z</time>
      </trkpt>
      <trkpt lat="44.99657" lon="6.47497">
        <ele>1577.7</ele>
        <time>2022-01-14T08:02:27Z</time>
      </trkpt>
      <trkpt lat="44.99657" lon="6.47497">
        <ele>1577.7</ele>
        <time>2022-01-14T08:02:28Z</time>
      </trkpt>
      <trkpt lat="44.99657" lon="6.47497">
        <ele>1577.7</ele>
        <time>2022-01-14T08:02:29Z</time>
      </trkpt>
      <trkpt lat="44.99656" lon="6.47497">
        <ele>1577.7</ele>
        <time>2022-01-14T08:02:30Z</time>
      </trkpt>
      <trkpt lat="44.99656" lon="6.47498">
        <ele>1577.7</ele>
        <time>2022-01-14T08:02:31Z</time>
      </trkpt>
      <trkpt lat="44.99656" lon="6.47496">
        <ele>1577.7</ele>
        <time>2022-01-14T08:02:32Z</time>
      </trkpt>
      <trkpt lat="44.99655" lon="6.47496">
        <ele>1577.3</ele>
        <time>2022-01-14T08:02:33Z</time>
      </trkpt>
      <trkpt lat="44.99655" lon="6.47495">
        <ele>1577.3</ele>
        <time>2022-01-14T08:02:34Z</time>
      </trkpt>
      <trkpt lat="44.99655" lon="6.47494">
        <ele>1577.3</ele>
        <time>2022-01-14T08:02:35Z</time>
      </trkpt>
      <trkpt lat="44.99654" lon="6.47494">
        <ele>1577.3</ele>
        <time>2022-01-14T08:02:36Z</time>
      </trkpt>
      <trkpt lat="44.99654" lon="6.47493">
        <ele>1578.1</ele>
        <time>2022-01-14T08:02:37Z</time>
      </trkpt>
      <trkpt lat="44.99654" lon="6.47493">
        <ele>1578.1</ele>
        <time>2022-01-14T08:02:38Z</time>
      </trkpt>
      <trkpt lat="44.99654" lon="6.47491">
        <ele>1578.1</ele>
        <time>2022-01-14T08:02:39Z</time>
      </trkpt>
      <trkpt lat="44.99653" lon="6.47489">
        <ele>1578.8</ele>
        <time>2022-01-14T08:02:40Z</time>
      </trkpt>
      <trkpt lat="44.99652" lon="6.47488">
        <ele>1578.3</ele>
        <time>2022-01-14T08:02:41Z</time>
      </trkpt>
      <trkpt lat="44.99652" lon="6.47486">
        <ele>1578.3</ele>
        <time>2022-01-14T08:02:42Z</time>
      </trkpt>
      <trkpt lat="44.99651" lon="6.47485">
        <ele>1579.1</ele>
        <time>2022-01-14T08:02:43Z</time>
      </trkpt>
      <trkpt lat="44.99651" lon="6.47484">
        <ele>1579.1</ele>
        <time>2022-01-14T08:02:44Z</time>
      </trkpt>
      <trkpt lat="44.9965" lon="6.47484">
        <ele>1579.1</ele>
        <time>2022-01-14T08:02:45Z</time>
      </trkpt>
      <trkpt lat="44.9965" lon="6.47483">
        <ele>1579.1</ele>
        <time>2022-01-14T08:02:46Z</time>
      </trkpt>
      <trkpt lat="44.99649" lon="6.47483">
        <ele>1579.1</ele>
        <time>2022-01-14T08:02:47Z</time>
      </trkpt>
      <trkpt lat="44.99648" lon="6.47482">
        <ele>1578.6</ele>
        <time>2022-01-14T08:02:48Z</time>
      </trkpt>
      <trkpt lat="44.99648" lon="6.47482">
        <ele>1578.6</ele>
        <time>2022-01-14T08:02:49Z</time>
      </trkpt>
      <trkpt lat="44.99648" lon="6.4748">
        <ele>1579.3</ele>
        <time>2022-01-14T08:02:50Z</time>
      </trkpt>
      <trkpt lat="44.99649" lon="6.47479">
        <ele>1579.3</ele>
        <time>2022-01-14T08:02:51Z</time>
      </trkpt>
      <trkpt lat="44.99649" lon="6.47478">
        <ele>1579.3</ele>
        <time>2022-01-14T08:02:52Z</time>
      </trkpt>
      <trkpt lat="44.99649" lon="6.47477">
        <ele>1580.3</ele>
        <time>2022-01-14T08:02:53Z</time>
      </trkpt>
      <trkpt lat="44.99649" lon="6.47475">
        <ele>1580.3</ele>
        <time>2022-01-14T08:02:54Z</time>
      </trkpt>
      <trkpt lat="44.99649" lon="6.47475">
        <ele>1579.9</ele>
        <time>2022-01-14T08:02:55Z</time>
      </trkpt>
      <trkpt lat="44.99649" lon="6.47474">
        <ele>1579.9</ele>
        <time>2022-01-14T08:02:56Z</time>
      </trkpt>
      <trkpt lat="44.99648" lon="6.47473">
        <ele>1579.9</ele>
        <time>2022-01-14T08:02:57Z</time>
      </trkpt>
      <trkpt lat="44.99648" lon="6.47473">
        <ele>1579.9</ele>
        <time>2022-01-14T08:02:58Z</time>
      </trkpt>
      <trkpt lat="44.99648" lon="6.47473">
        <ele>1579.9</ele>
        <time>2022-01-14T08:02:59Z</time>
      </trkpt>
      <trkpt lat="44.99647" lon="6.47473">
        <ele>1579.9</ele>
        <time>2022-01-14T08:03:00Z</time>
      </trkpt>
      <trkpt lat="44.99645" lon="6.47473">
        <ele>1579.5</ele>
        <time>2022-01-14T08:03:01Z</time>
      </trkpt>
      <trkpt lat="44.99645" lon="6.47473">
        <ele>1579.5</ele>
        <time>2022-01-14T08:03:02Z</time>
      </trkpt>
      <trkpt lat="44.99644" lon="6.47474">
        <ele>1579.5</ele>
        <time>2022-01-14T08:03:03Z</time>
      </trkpt>
      <trkpt lat="44.99644" lon="6.47474">
        <ele>1579.5</ele>
        <time>2022-01-14T08:03:04Z</time>
      </trkpt>
      <trkpt lat="44.99644" lon="6.47474">
        <ele>1579.5</ele>
        <time>2022-01-14T08:03:05Z</time>
      </trkpt>
      <trkpt lat="44.99643" lon="6.47474">
        <ele>1579.5</ele>
        <time>2022-01-14T08:03:06Z</time>
      </trkpt>
      <trkpt lat="44.99643" lon="6.47474">
        <ele>1579.5</ele>
        <time>2022-01-14T08:03:07Z</time>
      </trkpt>
      <trkpt lat="44.99643" lon="6.47474">
        <ele>1579.5</ele>
        <time>2022-01-14T08:03:08Z</time>
      </trkpt>
      <trkpt lat="44.99643" lon="6.47474">
        <ele>1579.5</ele>
        <time>2022-01-14T08:03:09Z</time>
      </trkpt>
      <trkpt lat="44.99643" lon="6.47474">
        <ele>1579.2</ele>
        <time>2022-01-14T08:03:10Z</time>
      </trkpt>
      <trkpt lat="44.99642" lon="6.47474">
        <ele>1579.2</ele>
        <time>2022-01-14T08:03:11Z</time>
      </trkpt>
      <trkpt lat="44.99642" lon="6.47472">
        <ele>1579.9</ele>
        <time>2022-01-14T08:03:12Z</time>
      </trkpt>
      <trkpt lat="44.99642" lon="6.47471">
        <ele>1579.9</ele>
        <time>2022-01-14T08:03:13Z</time>
      </trkpt>
      <trkpt lat="44.99642" lon="6.47471">
        <ele>1579.9</ele>
        <time>2022-01-14T08:03:14Z</time>
      </trkpt>
      <trkpt lat="44.99642" lon="6.47469">
        <ele>1579.9</ele>
        <time>2022-01-14T08:03:15Z</time>
      </trkpt>
      <trkpt lat="44.99643" lon="6.47467">
        <ele>1580.6</ele>
        <time>2022-01-14T08:03:16Z</time>
      </trkpt>
      <trkpt lat="44.99642" lon="6.47465">
        <ele>1580.6</ele>
        <time>2022-01-14T08:03:17Z</time>
      </trkpt>
      <trkpt lat="44.99642" lon="6.47464">
        <ele>1581.4</ele>
        <time>2022-01-14T08:03:18Z</time>
      </trkpt>
      <trkpt lat="44.99643" lon="6.47462">
        <ele>1581.4</ele>
        <time>2022-01-14T08:03:19Z</time>
      </trkpt>
      <trkpt lat="44.99643" lon="6.47461">
        <ele>1581.4</ele>
        <time>2022-01-14T08:03:20Z</time>
      </trkpt>
      <trkpt lat="44.99644" lon="6.47461">
        <ele>1581.6</ele>
        <time>2022-01-14T08:03:21Z</time>
      </trkpt>
      <trkpt lat="44.99644" lon="6.4746">
        <ele>1582.4</ele>
        <time>2022-01-14T08:03:22Z</time>
      </trkpt>
      <trkpt lat="44.99645" lon="6.47459">
        <ele>1582.4</ele>
        <time>2022-01-14T08:03:23Z</time>
      </trkpt>
      <trkpt lat="44.99645" lon="6.47458">
        <ele>1582.4</ele>
        <time>2022-01-14T08:03:24Z</time>
      </trkpt>
      <trkpt lat="44.99644" lon="6.47458">
        <ele>1582.4</ele>
        <time>2022-01-14T08:03:25Z</time>
      </trkpt>
      <trkpt lat="44.99643" lon="6.47459">
        <ele>1582.4</ele>
        <time>2022-01-14T08:03:26Z</time>
      </trkpt>
      <trkpt lat="44.99642" lon="6.47456">
        <ele>1582.1</ele>
        <time>2022-01-14T08:03:27Z</time>
      </trkpt>
      <trkpt lat="44.99642" lon="6.47456">
        <ele>1582.1</ele>
        <time>2022-01-14T08:03:28Z</time>
      </trkpt>
      <trkpt lat="44.99641" lon="6.47455">
        <ele>1582.9</ele>
        <time>2022-01-14T08:03:29Z</time>
      </trkpt>
      <trkpt lat="44.99641" lon="6.47454">
        <ele>1582.9</ele>
        <time>2022-01-14T08:03:30Z</time>
      </trkpt>
      <trkpt lat="44.9964" lon="6.47454">
        <ele>1582.9</ele>
        <time>2022-01-14T08:03:31Z</time>
      </trkpt>
      <trkpt lat="44.9964" lon="6.47454">
        <ele>1582.6</ele>
        <time>2022-01-14T08:03:32Z</time>
      </trkpt>
      <trkpt lat="44.99639" lon="6.47454">
        <ele>1582.6</ele>
        <time>2022-01-14T08:03:33Z</time>
      </trkpt>
      <trkpt lat="44.99639" lon="6.47454">
        <ele>1582.6</ele>
        <time>2022-01-14T08:03:34Z</time>
      </trkpt>
      <trkpt lat="44.99638" lon="6.47453">
        <ele>1582.6</ele>
        <time>2022-01-14T08:03:35Z</time>
      </trkpt>
      <trkpt lat="44.99638" lon="6.47453">
        <ele>1582.6</ele>
        <time>2022-01-14T08:03:36Z</time>
      </trkpt>
      <trkpt lat="44.99637" lon="6.47452">
        <ele>1582.6</ele>
        <time>2022-01-14T08:03:37Z</time>
      </trkpt>
      <trkpt lat="44.99637" lon="6.4745">
        <ele>1583.4</ele>
        <time>2022-01-14T08:03:38Z</time>
      </trkpt>
      <trkpt lat="44.99637" lon="6.47449">
        <ele>1583.1</ele>
        <time>2022-01-14T08:03:39Z</time>
      </trkpt>
      <trkpt lat="44.99636" lon="6.47448">
        <ele>1583.1</ele>
        <time>2022-01-14T08:03:40Z</time>
      </trkpt>
      <trkpt lat="44.99636" lon="6.47448">
        <ele>1583.1</ele>
        <time>2022-01-14T08:03:41Z</time>
      </trkpt>
      <trkpt lat="44.99636" lon="6.47447">
        <ele>1583.1</ele>
        <time>2022-01-14T08:03:42Z</time>
      </trkpt>
      <trkpt lat="44.99636" lon="6.47446">
        <ele>1583.9</ele>
        <time>2022-01-14T08:03:43Z</time>
      </trkpt>
      <trkpt lat="44.99636" lon="6.47445">
        <ele>1583.9</ele>
        <time>2022-01-14T08:03:44Z</time>
      </trkpt>
      <trkpt lat="44.99635" lon="6.47445">
        <ele>1583.9</ele>
        <time>2022-01-14T08:03:45Z</time>
      </trkpt>
      <trkpt lat="44.99635" lon="6.47444">
        <ele>1583.9</ele>
        <time>2022-01-14T08:03:46Z</time>
      </trkpt>
      <trkpt lat="44.99635" lon="6.47443">
        <ele>1583.9</ele>
        <time>2022-01-14T08:03:47Z</time>
      </trkpt>
      <trkpt lat="44.99635" lon="6.47443">
        <ele>1583.9</ele>
        <time>2022-01-14T08:03:48Z</time>
      </trkpt>
      <trkpt lat="44.99634" lon="6.47442">
        <ele>1584.8</ele>
        <time>2022-01-14T08:03:49Z</time>
      </trkpt>
      <trkpt lat="44.99634" lon="6.47442">
        <ele>1584.4</ele>
        <time>2022-01-14T08:03:50Z</time>
      </trkpt>
      <trkpt lat="44.99634" lon="6.47441">
        <ele>1584.8</ele>
        <time>2022-01-14T08:03:51Z</time>
      </trkpt>
      <trkpt lat="44.99634" lon="6.4744">
        <ele>1584.8</ele>
        <time>2022-01-14T08:03:52Z</time>
      </trkpt>
      <trkpt lat="44.99634" lon="6.47439">
        <ele>1584.8</ele>
        <time>2022-01-14T08:03:53Z</time>
      </trkpt>
      <trkpt lat="44.99634" lon="6.47439">
        <ele>1584.8</ele>
        <time>2022-01-14T08:03:54Z</time>
      </trkpt>
      <trkpt lat="44.99635" lon="6.47438">
        <ele>1584.8</ele>
        <time>2022-01-14T08:03:55Z</time>
      </trkpt>
      <trkpt lat="44.99635" lon="6.47437">
        <ele>1585.6</ele>
        <time>2022-01-14T08:03:56Z</time>
      </trkpt>
      <trkpt lat="44.99635" lon="6.47437">
        <ele>1585.6</ele>
        <time>2022-01-14T08:03:57Z</time>
      </trkpt>
      <trkpt lat="44.99636" lon="6.47436">
        <ele>1585.6</ele>
        <time>2022-01-14T08:03:58Z</time>
      </trkpt>
      <trkpt lat="44.99636" lon="6.47436">
        <ele>1585.6</ele>
        <time>2022-01-14T08:03:59Z</time>
      </trkpt>
      <trkpt lat="44.99636" lon="6.47435">
        <ele>1585.6</ele>
        <time>2022-01-14T08:04:00Z</time>
      </trkpt>
      <trkpt lat="44.99636" lon="6.47435">
        <ele>1585.6</ele>
        <time>2022-01-14T08:04:01Z</time>
      </trkpt>
      <trkpt lat="44.99637" lon="6.47435">
        <ele>1585.6</ele>
        <time>2022-01-14T08:04:02Z</time>
      </trkpt>
      <trkpt lat="44.99637" lon="6.47435">
        <ele>1585.6</ele>
        <time>2022-01-14T08:04:03Z</time>
      </trkpt>
      <trkpt lat="44.99637" lon="6.47435">
        <ele>1585.6</ele>
        <time>2022-01-14T08:04:04Z</time>
      </trkpt>
      <trkpt lat="44.99636" lon="6.47434">
        <ele>1585.6</ele>
        <time>2022-01-14T08:04:05Z</time>
      </trkpt>
      <trkpt lat="44.99636" lon="6.47434">
        <ele>1586.5</ele>
        <time>2022-01-14T08:04:06Z</time>
      </trkpt>
      <trkpt lat="44.99635" lon="6.47433">
        <ele>1586.5</ele>
        <time>2022-01-14T08:04:07Z</time>
      </trkpt>
      <trkpt lat="44.99635" lon="6.47431">
        <ele>1586.5</ele>
        <time>2022-01-14T08:04:08Z</time>
      </trkpt>
      <trkpt lat="44.99635" lon="6.47431">
        <ele>1586.5</ele>
        <time>2022-01-14T08:04:09Z</time>
      </trkpt>
      <trkpt lat="44.99635" lon="6.47431">
        <ele>1586.5</ele>
        <time>2022-01-14T08:04:10Z</time>
      </trkpt>
      <trkpt lat="44.99634" lon="6.4743">
        <ele>1586.5</ele>
        <time>2022-01-14T08:04:11Z</time>
      </trkpt>
      <trkpt lat="44.99635" lon="6.4743">
        <ele>1586.5</ele>
        <time>2022-01-14T08:04:12Z</time>
      </trkpt>
      <trkpt lat="44.99634" lon="6.47429">
        <ele>1586.9</ele>
        <time>2022-01-14T08:04:13Z</time>
      </trkpt>
      <trkpt lat="44.99633" lon="6.47428">
        <ele>1586.9</ele>
        <time>2022-01-14T08:04:14Z</time>
      </trkpt>
      <trkpt lat="44.99633" lon="6.47428">
        <ele>1586.9</ele>
        <time>2022-01-14T08:04:15Z</time>
      </trkpt>
      <trkpt lat="44.99633" lon="6.47428">
        <ele>1586.9</ele>
        <time>2022-01-14T08:04:16Z</time>
      </trkpt>
      <trkpt lat="44.99633" lon="6.47428">
        <ele>1586.9</ele>
        <time>2022-01-14T08:04:17Z</time>
      </trkpt>
      <trkpt lat="44.99633" lon="6.47428">
        <ele>1586.9</ele>
        <time>2022-01-14T08:04:18Z</time>
      </trkpt>
      <trkpt lat="44.99633" lon="6.47427">
        <ele>1586.9</ele>
        <time>2022-01-14T08:04:19Z</time>
      </trkpt>
      <trkpt lat="44.99633" lon="6.47427">
        <ele>1586.9</ele>
        <time>2022-01-14T08:04:20Z</time>
      </trkpt>
      <trkpt lat="44.99633" lon="6.47427">
        <ele>1586.9</ele>
        <time>2022-01-14T08:04:21Z</time>
      </trkpt>
      <trkpt lat="44.99633" lon="6.47426">
        <ele>1586.9</ele>
        <time>2022-01-14T08:04:22Z</time>
      </trkpt>
      <trkpt lat="44.99633" lon="6.47425">
        <ele>1587.8</ele>
        <time>2022-01-14T08:04:23Z</time>
      </trkpt>
      <trkpt lat="44.99633" lon="6.47424">
        <ele>1587.8</ele>
        <time>2022-01-14T08:04:24Z</time>
      </trkpt>
      <trkpt lat="44.99634" lon="6.47423">
        <ele>1588.3</ele>
        <time>2022-01-14T08:04:25Z</time>
      </trkpt>
      <trkpt lat="44.99634" lon="6.47421">
        <ele>1589.1</ele>
        <time>2022-01-14T08:04:26Z</time>
      </trkpt>
      <trkpt lat="44.99634" lon="6.47419">
        <ele>1589.1</ele>
        <time>2022-01-14T08:04:27Z</time>
      </trkpt>
      <trkpt lat="44.99634" lon="6.47418">
        <ele>1588.8</ele>
        <time>2022-01-14T08:04:28Z</time>
      </trkpt>
      <trkpt lat="44.99633" lon="6.47416">
        <ele>1589.7</ele>
        <time>2022-01-14T08:04:29Z</time>
      </trkpt>
      <trkpt lat="44.99632" lon="6.47414">
        <ele>1589.7</ele>
        <time>2022-01-14T08:04:30Z</time>
      </trkpt>
      <trkpt lat="44.99631" lon="6.47414">
        <ele>1589.7</ele>
        <time>2022-01-14T08:04:31Z</time>
      </trkpt>
      <trkpt lat="44.99631" lon="6.47412">
        <ele>1590.7</ele>
        <time>2022-01-14T08:04:32Z</time>
      </trkpt>
      <trkpt lat="44.99631" lon="6.47412">
        <ele>1590.7</ele>
        <time>2022-01-14T08:04:33Z</time>
      </trkpt>
      <trkpt lat="44.99631" lon="6.47411">
        <ele>1590.4</ele>
        <time>2022-01-14T08:04:34Z</time>
      </trkpt>
      <trkpt lat="44.99631" lon="6.4741">
        <ele>1590.4</ele>
        <time>2022-01-14T08:04:35Z</time>
      </trkpt>
      <trkpt lat="44.99631" lon="6.47409">
        <ele>1590.7</ele>
        <time>2022-01-14T08:04:36Z</time>
      </trkpt>
      <trkpt lat="44.99631" lon="6.47407">
        <ele>1591.7</ele>
        <time>2022-01-14T08:04:37Z</time>
      </trkpt>
      <trkpt lat="44.99632" lon="6.47406">
        <ele>1591.7</ele>
        <time>2022-01-14T08:04:38Z</time>
      </trkpt>
      <trkpt lat="44.99632" lon="6.47406">
        <ele>1591.7</ele>
        <time>2022-01-14T08:04:39Z</time>
      </trkpt>
      <trkpt lat="44.99631" lon="6.47406">
        <ele>1591.4</ele>
        <time>2022-01-14T08:04:40Z</time>
      </trkpt>
      <trkpt lat="44.99631" lon="6.47405">
        <ele>1591.7</ele>
        <time>2022-01-14T08:04:41Z</time>
      </trkpt>
      <trkpt lat="44.99631" lon="6.47403">
        <ele>1592.7</ele>
        <time>2022-01-14T08:04:42Z</time>
      </trkpt>
      <trkpt lat="44.99632" lon="6.47402">
        <ele>1592.7</ele>
        <time>2022-01-14T08:04:43Z</time>
      </trkpt>
      <trkpt lat="44.99633" lon="6.47401">
        <ele>1592.7</ele>
        <time>2022-01-14T08:04:44Z</time>
      </trkpt>
      <trkpt lat="44.99633" lon="6.47401">
        <ele>1592.7</ele>
        <time>2022-01-14T08:04:45Z</time>
      </trkpt>
      <trkpt lat="44.99632" lon="6.47401">
        <ele>1592.7</ele>
        <time>2022-01-14T08:04:46Z</time>
      </trkpt>
      <trkpt lat="44.99632" lon="6.47401">
        <ele>1592.7</ele>
        <time>2022-01-14T08:04:47Z</time>
      </trkpt>
      <trkpt lat="44.99631" lon="6.47401">
        <ele>1592.7</ele>
        <time>2022-01-14T08:04:48Z</time>
      </trkpt>
      <trkpt lat="44.99632" lon="6.474">
        <ele>1592.7</ele>
        <time>2022-01-14T08:04:49Z</time>
      </trkpt>
      <trkpt lat="44.99631" lon="6.47398">
        <ele>1593.7</ele>
        <time>2022-01-14T08:04:50Z</time>
      </trkpt>
      <trkpt lat="44.99631" lon="6.47397">
        <ele>1593.7</ele>
        <time>2022-01-14T08:04:51Z</time>
      </trkpt>
      <trkpt lat="44.99631" lon="6.47398">
        <ele>1593.7</ele>
        <time>2022-01-14T08:04:52Z</time>
      </trkpt>
      <trkpt lat="44.99631" lon="6.47398">
        <ele>1593.7</ele>
        <time>2022-01-14T08:04:53Z</time>
      </trkpt>
      <trkpt lat="44.99631" lon="6.47398">
        <ele>1593.7</ele>
        <time>2022-01-14T08:04:54Z</time>
      </trkpt>
      <trkpt lat="44.99631" lon="6.47398">
        <ele>1593.7</ele>
        <time>2022-01-14T08:04:55Z</time>
      </trkpt>
      <trkpt lat="44.9963" lon="6.47397">
        <ele>1593.4</ele>
        <time>2022-01-14T08:04:56Z</time>
      </trkpt>
      <trkpt lat="44.9963" lon="6.47396">
        <ele>1593.4</ele>
        <time>2022-01-14T08:04:57Z</time>
      </trkpt>
      <trkpt lat="44.9963" lon="6.47395">
        <ele>1593.4</ele>
        <time>2022-01-14T08:04:58Z</time>
      </trkpt>
      <trkpt lat="44.9963" lon="6.47396">
        <ele>1593.4</ele>
        <time>2022-01-14T08:04:59Z</time>
      </trkpt>
      <trkpt lat="44.9963" lon="6.47396">
        <ele>1593.4</ele>
        <time>2022-01-14T08:05:00Z</time>
      </trkpt>
      <trkpt lat="44.9963" lon="6.47395">
        <ele>1594.3</ele>
        <time>2022-01-14T08:05:01Z</time>
      </trkpt>
      <trkpt lat="44.9963" lon="6.47395">
        <ele>1593.4</ele>
        <time>2022-01-14T08:05:02Z</time>
      </trkpt>
      <trkpt lat="44.99631" lon="6.47394">
        <ele>1594.3</ele>
        <time>2022-01-14T08:05:03Z</time>
      </trkpt>
      <trkpt lat="44.99632" lon="6.47393">
        <ele>1594.6</ele>
        <time>2022-01-14T08:05:04Z</time>
      </trkpt>
      <trkpt lat="44.99632" lon="6.47392">
        <ele>1594.6</ele>
        <time>2022-01-14T08:05:05Z</time>
      </trkpt>
      <trkpt lat="44.99632" lon="6.47391">
        <ele>1594.6</ele>
        <time>2022-01-14T08:05:06Z</time>
      </trkpt>
      <trkpt lat="44.99632" lon="6.47391">
        <ele>1595.4</ele>
        <time>2022-01-14T08:05:07Z</time>
      </trkpt>
      <trkpt lat="44.99632" lon="6.4739">
        <ele>1595.4</ele>
        <time>2022-01-14T08:05:08Z</time>
      </trkpt>
      <trkpt lat="44.99632" lon="6.4739">
        <ele>1595.4</ele>
        <time>2022-01-14T08:05:09Z</time>
      </trkpt>
      <trkpt lat="44.99632" lon="6.47389">
        <ele>1595.4</ele>
        <time>2022-01-14T08:05:10Z</time>
      </trkpt>
      <trkpt lat="44.99632" lon="6.47389">
        <ele>1595.4</ele>
        <time>2022-01-14T08:05:11Z</time>
      </trkpt>
      <trkpt lat="44.99632" lon="6.47389">
        <ele>1595.4</ele>
        <time>2022-01-14T08:05:12Z</time>
      </trkpt>
      <trkpt lat="44.99632" lon="6.47388">
        <ele>1595.4</ele>
        <time>2022-01-14T08:05:13Z</time>
      </trkpt>
      <trkpt lat="44.99632" lon="6.47387">
        <ele>1596.1</ele>
        <time>2022-01-14T08:05:14Z</time>
      </trkpt>
      <trkpt lat="44.99633" lon="6.47386">
        <ele>1596.1</ele>
        <time>2022-01-14T08:05:15Z</time>
      </trkpt>
      <trkpt lat="44.99632" lon="6.47385">
        <ele>1596.1</ele>
        <time>2022-01-14T08:05:16Z</time>
      </trkpt>
      <trkpt lat="44.99632" lon="6.47385">
        <ele>1596.1</ele>
        <time>2022-01-14T08:05:17Z</time>
      </trkpt>
      <trkpt lat="44.99632" lon="6.47384">
        <ele>1596.1</ele>
        <time>2022-01-14T08:05:18Z</time>
      </trkpt>
      <trkpt lat="44.99632" lon="6.47383">
        <ele>1596.1</ele>
        <time>2022-01-14T08:05:19Z</time>
      </trkpt>
      <trkpt lat="44.99632" lon="6.47382">
        <ele>1596.8</ele>
        <time>2022-01-14T08:05:20Z</time>
      </trkpt>
      <trkpt lat="44.99632" lon="6.4738">
        <ele>1596.8</ele>
        <time>2022-01-14T08:05:21Z</time>
      </trkpt>
      <trkpt lat="44.99632" lon="6.47379">
        <ele>1596.8</ele>
        <time>2022-01-14T08:05:22Z</time>
      </trkpt>
      <trkpt lat="44.99633" lon="6.47378">
        <ele>1596.8</ele>
        <time>2022-01-14T08:05:23Z</time>
      </trkpt>
      <trkpt lat="44.99633" lon="6.47377">
        <ele>1597.5</ele>
        <time>2022-01-14T08:05:24Z</time>
      </trkpt>
      <trkpt lat="44.99634" lon="6.47376">
        <ele>1597.5</ele>
        <time>2022-01-14T08:05:25Z</time>
      </trkpt>
      <trkpt lat="44.99634" lon="6.47375">
        <ele>1597.5</ele>
        <time>2022-01-14T08:05:26Z</time>
      </trkpt>
      <trkpt lat="44.99634" lon="6.47375">
        <ele>1597.8</ele>
        <time>2022-01-14T08:05:27Z</time>
      </trkpt>
      <trkpt lat="44.99634" lon="6.47376">
        <ele>1597.8</ele>
        <time>2022-01-14T08:05:28Z</time>
      </trkpt>
      <trkpt lat="44.99634" lon="6.47376">
        <ele>1597.5</ele>
        <time>2022-01-14T08:05:29Z</time>
      </trkpt>
      <trkpt lat="44.99634" lon="6.47376">
        <ele>1597.5</ele>
        <time>2022-01-14T08:05:30Z</time>
      </trkpt>
      <trkpt lat="44.99634" lon="6.47375">
        <ele>1597.5</ele>
        <time>2022-01-14T08:05:31Z</time>
      </trkpt>
      <trkpt lat="44.99634" lon="6.47374">
        <ele>1597.5</ele>
        <time>2022-01-14T08:05:32Z</time>
      </trkpt>
      <trkpt lat="44.99634" lon="6.47373">
        <ele>1598</ele>
        <time>2022-01-14T08:05:33Z</time>
      </trkpt>
      <trkpt lat="44.99634" lon="6.47373">
        <ele>1598</ele>
        <time>2022-01-14T08:05:34Z</time>
      </trkpt>
      <trkpt lat="44.99634" lon="6.47372">
        <ele>1598</ele>
        <time>2022-01-14T08:05:35Z</time>
      </trkpt>
      <trkpt lat="44.99633" lon="6.47372">
        <ele>1598</ele>
        <time>2022-01-14T08:05:36Z</time>
      </trkpt>
      <trkpt lat="44.99633" lon="6.47372">
        <ele>1598</ele>
        <time>2022-01-14T08:05:37Z</time>
      </trkpt>
      <trkpt lat="44.99632" lon="6.47372">
        <ele>1598</ele>
        <time>2022-01-14T08:05:38Z</time>
      </trkpt>
      <trkpt lat="44.99632" lon="6.47372">
        <ele>1598</ele>
        <time>2022-01-14T08:05:39Z</time>
      </trkpt>
      <trkpt lat="44.99631" lon="6.47372">
        <ele>1598</ele>
        <time>2022-01-14T08:05:40Z</time>
      </trkpt>
      <trkpt lat="44.99632" lon="6.47371">
        <ele>1598</ele>
        <time>2022-01-14T08:05:41Z</time>
      </trkpt>
      <trkpt lat="44.99631" lon="6.4737">
        <ele>1598</ele>
        <time>2022-01-14T08:05:42Z</time>
      </trkpt>
      <trkpt lat="44.99631" lon="6.47369">
        <ele>1598.2</ele>
        <time>2022-01-14T08:05:43Z</time>
      </trkpt>
      <trkpt lat="44.9963" lon="6.47368">
        <ele>1598.2</ele>
        <time>2022-01-14T08:05:44Z</time>
      </trkpt>
      <trkpt lat="44.9963" lon="6.47367">
        <ele>1598.2</ele>
        <time>2022-01-14T08:05:45Z</time>
      </trkpt>
      <trkpt lat="44.9963" lon="6.47365">
        <ele>1598.2</ele>
        <time>2022-01-14T08:05:46Z</time>
      </trkpt>
      <trkpt lat="44.99629" lon="6.47364">
        <ele>1598.7</ele>
        <time>2022-01-14T08:05:47Z</time>
      </trkpt>
      <trkpt lat="44.99629" lon="6.47364">
        <ele>1598.7</ele>
        <time>2022-01-14T08:05:48Z</time>
      </trkpt>
      <trkpt lat="44.99629" lon="6.47364">
        <ele>1598.7</ele>
        <time>2022-01-14T08:05:49Z</time>
      </trkpt>
      <trkpt lat="44.9963" lon="6.47363">
        <ele>1598.7</ele>
        <time>2022-01-14T08:05:50Z</time>
      </trkpt>
      <trkpt lat="44.9963" lon="6.47363">
        <ele>1598.7</ele>
        <time>2022-01-14T08:05:51Z</time>
      </trkpt>
      <trkpt lat="44.9963" lon="6.47363">
        <ele>1598.7</ele>
        <time>2022-01-14T08:05:52Z</time>
      </trkpt>
      <trkpt lat="44.9963" lon="6.47363">
        <ele>1598.7</ele>
        <time>2022-01-14T08:05:53Z</time>
      </trkpt>
      <trkpt lat="44.9963" lon="6.47362">
        <ele>1598.7</ele>
        <time>2022-01-14T08:05:54Z</time>
      </trkpt>
      <trkpt lat="44.9963" lon="6.47362">
        <ele>1598.7</ele>
        <time>2022-01-14T08:05:55Z</time>
      </trkpt>
      <trkpt lat="44.9963" lon="6.47362">
        <ele>1598.7</ele>
        <time>2022-01-14T08:05:56Z</time>
      </trkpt>
      <trkpt lat="44.9963" lon="6.47361">
        <ele>1598.7</ele>
        <time>2022-01-14T08:05:57Z</time>
      </trkpt>
      <trkpt lat="44.9963" lon="6.47361">
        <ele>1598.7</ele>
        <time>2022-01-14T08:05:58Z</time>
      </trkpt>
      <trkpt lat="44.9963" lon="6.47361">
        <ele>1598.7</ele>
        <time>2022-01-14T08:05:59Z</time>
      </trkpt>
      <trkpt lat="44.9963" lon="6.47361">
        <ele>1599.3</ele>
        <time>2022-01-14T08:06:00Z</time>
      </trkpt>
      <trkpt lat="44.9963" lon="6.4736">
        <ele>1599.3</ele>
        <time>2022-01-14T08:06:01Z</time>
      </trkpt>
      <trkpt lat="44.99631" lon="6.47359">
        <ele>1599.6</ele>
        <time>2022-01-14T08:06:02Z</time>
      </trkpt>
      <trkpt lat="44.99632" lon="6.47359">
        <ele>1599.6</ele>
        <time>2022-01-14T08:06:03Z</time>
      </trkpt>
      <trkpt lat="44.99633" lon="6.47358">
        <ele>1599.6</ele>
        <time>2022-01-14T08:06:04Z</time>
      </trkpt>
      <trkpt lat="44.99634" lon="6.47357">
        <ele>1599.6</ele>
        <time>2022-01-14T08:06:05Z</time>
      </trkpt>
      <trkpt lat="44.99635" lon="6.47357">
        <ele>1599.8</ele>
        <time>2022-01-14T08:06:06Z</time>
      </trkpt>
      <trkpt lat="44.99634" lon="6.47357">
        <ele>1599.8</ele>
        <time>2022-01-14T08:06:07Z</time>
      </trkpt>
      <trkpt lat="44.99635" lon="6.47357">
        <ele>1599.8</ele>
        <time>2022-01-14T08:06:08Z</time>
      </trkpt>
      <trkpt lat="44.99636" lon="6.47357">
        <ele>1599.8</ele>
        <time>2022-01-14T08:06:09Z</time>
      </trkpt>
      <trkpt lat="44.99636" lon="6.47356">
        <ele>1600.6</ele>
        <time>2022-01-14T08:06:10Z</time>
      </trkpt>
      <trkpt lat="44.99637" lon="6.47354">
        <ele>1600.6</ele>
        <time>2022-01-14T08:06:11Z</time>
      </trkpt>
      <trkpt lat="44.99637" lon="6.47353">
        <ele>1600.6</ele>
        <time>2022-01-14T08:06:12Z</time>
      </trkpt>
      <trkpt lat="44.99637" lon="6.47352">
        <ele>1601.6</ele>
        <time>2022-01-14T08:06:13Z</time>
      </trkpt>
      <trkpt lat="44.99639" lon="6.4735">
        <ele>1601.6</ele>
        <time>2022-01-14T08:06:14Z</time>
      </trkpt>
      <trkpt lat="44.99639" lon="6.4735">
        <ele>1601.6</ele>
        <time>2022-01-14T08:06:15Z</time>
      </trkpt>
      <trkpt lat="44.9964" lon="6.47349">
        <ele>1601.6</ele>
        <time>2022-01-14T08:06:16Z</time>
      </trkpt>
      <trkpt lat="44.9964" lon="6.47349">
        <ele>1601.8</ele>
        <time>2022-01-14T08:06:17Z</time>
      </trkpt>
      <trkpt lat="44.9964" lon="6.47348">
        <ele>1602.6</ele>
        <time>2022-01-14T08:06:18Z</time>
      </trkpt>
      <trkpt lat="44.99641" lon="6.47348">
        <ele>1602.6</ele>
        <time>2022-01-14T08:06:19Z</time>
      </trkpt>
      <trkpt lat="44.99641" lon="6.47348">
        <ele>1602.6</ele>
        <time>2022-01-14T08:06:20Z</time>
      </trkpt>
      <trkpt lat="44.99642" lon="6.47347">
        <ele>1602.6</ele>
        <time>2022-01-14T08:06:21Z</time>
      </trkpt>
      <trkpt lat="44.99642" lon="6.47347">
        <ele>1602.6</ele>
        <time>2022-01-14T08:06:22Z</time>
      </trkpt>
      <trkpt lat="44.99642" lon="6.47346">
        <ele>1602.6</ele>
        <time>2022-01-14T08:06:23Z</time>
      </trkpt>
      <trkpt lat="44.99642" lon="6.47344">
        <ele>1602.6</ele>
        <time>2022-01-14T08:06:24Z</time>
      </trkpt>
      <trkpt lat="44.99642" lon="6.47344">
        <ele>1603.3</ele>
        <time>2022-01-14T08:06:25Z</time>
      </trkpt>
      <trkpt lat="44.99642" lon="6.47344">
        <ele>1603.3</ele>
        <time>2022-01-14T08:06:26Z</time>
      </trkpt>
      <trkpt lat="44.99642" lon="6.47344">
        <ele>1603.3</ele>
        <time>2022-01-14T08:06:27Z</time>
      </trkpt>
      <trkpt lat="44.99642" lon="6.47342">
        <ele>1603.3</ele>
        <time>2022-01-14T08:06:28Z</time>
      </trkpt>
      <trkpt lat="44.99643" lon="6.47342">
        <ele>1603.6</ele>
        <time>2022-01-14T08:06:29Z</time>
      </trkpt>
      <trkpt lat="44.99643" lon="6.4734">
        <ele>1603.6</ele>
        <time>2022-01-14T08:06:30Z</time>
      </trkpt>
      <trkpt lat="44.99644" lon="6.47339">
        <ele>1604.3</ele>
        <time>2022-01-14T08:06:31Z</time>
      </trkpt>
      <trkpt lat="44.99644" lon="6.47338">
        <ele>1604.3</ele>
        <time>2022-01-14T08:06:32Z</time>
      </trkpt>
      <trkpt lat="44.99644" lon="6.47337">
        <ele>1604.3</ele>
        <time>2022-01-14T08:06:33Z</time>
      </trkpt>
      <trkpt lat="44.99644" lon="6.47338">
        <ele>1604.3</ele>
        <time>2022-01-14T08:06:34Z</time>
      </trkpt>
      <trkpt lat="44.99644" lon="6.47338">
        <ele>1604.3</ele>
        <time>2022-01-14T08:06:35Z</time>
      </trkpt>
      <trkpt lat="44.99644" lon="6.47337">
        <ele>1604.3</ele>
        <time>2022-01-14T08:06:36Z</time>
      </trkpt>
      <trkpt lat="44.99644" lon="6.47337">
        <ele>1604.3</ele>
        <time>2022-01-14T08:06:37Z</time>
      </trkpt>
      <trkpt lat="44.99644" lon="6.47337">
        <ele>1604.3</ele>
        <time>2022-01-14T08:06:38Z</time>
      </trkpt>
      <trkpt lat="44.99644" lon="6.47337">
        <ele>1604.3</ele>
        <time>2022-01-14T08:06:39Z</time>
      </trkpt>
      <trkpt lat="44.99644" lon="6.47337">
        <ele>1604.3</ele>
        <time>2022-01-14T08:06:40Z</time>
      </trkpt>
      <trkpt lat="44.99643" lon="6.47338">
        <ele>1604.1</ele>
        <time>2022-01-14T08:06:41Z</time>
      </trkpt>
      <trkpt lat="44.99641" lon="6.47338">
        <ele>1604.1</ele>
        <time>2022-01-14T08:06:42Z</time>
      </trkpt>
      <trkpt lat="44.99641" lon="6.47336">
        <ele>1604.1</ele>
        <time>2022-01-14T08:06:43Z</time>
      </trkpt>
      <trkpt lat="44.99641" lon="6.47336">
        <ele>1604.1</ele>
        <time>2022-01-14T08:06:44Z</time>
      </trkpt>
      <trkpt lat="44.99642" lon="6.47334">
        <ele>1604.8</ele>
        <time>2022-01-14T08:06:45Z</time>
      </trkpt>
      <trkpt lat="44.99642" lon="6.47334">
        <ele>1604.8</ele>
        <time>2022-01-14T08:06:46Z</time>
      </trkpt>
      <trkpt lat="44.99641" lon="6.47333">
        <ele>1604.8</ele>
        <time>2022-01-14T08:06:47Z</time>
      </trkpt>
      <trkpt lat="44.99641" lon="6.47332">
        <ele>1604.8</ele>
        <time>2022-01-14T08:06:48Z</time>
      </trkpt>
      <trkpt lat="44.99642" lon="6.47331">
        <ele>1604.8</ele>
        <time>2022-01-14T08:06:49Z</time>
      </trkpt>
      <trkpt lat="44.99642" lon="6.4733">
        <ele>1605.6</ele>
        <time>2022-01-14T08:06:50Z</time>
      </trkpt>
      <trkpt lat="44.99641" lon="6.47329">
        <ele>1605.6</ele>
        <time>2022-01-14T08:06:51Z</time>
      </trkpt>
      <trkpt lat="44.99641" lon="6.47328">
        <ele>1605.6</ele>
        <time>2022-01-14T08:06:52Z</time>
      </trkpt>
      <trkpt lat="44.99641" lon="6.47328">
        <ele>1605.6</ele>
        <time>2022-01-14T08:06:53Z</time>
      </trkpt>
      <trkpt lat="44.99642" lon="6.47328">
        <ele>1605.6</ele>
        <time>2022-01-14T08:06:54Z</time>
      </trkpt>
      <trkpt lat="44.99642" lon="6.47328">
        <ele>1605.6</ele>
        <time>2022-01-14T08:06:55Z</time>
      </trkpt>
      <trkpt lat="44.99643" lon="6.47328">
        <ele>1605.6</ele>
        <time>2022-01-14T08:06:56Z</time>
      </trkpt>
      <trkpt lat="44.99642" lon="6.47328">
        <ele>1605.6</ele>
        <time>2022-01-14T08:06:57Z</time>
      </trkpt>
      <trkpt lat="44.99643" lon="6.47328">
        <ele>1605.6</ele>
        <time>2022-01-14T08:06:58Z</time>
      </trkpt>
      <trkpt lat="44.99642" lon="6.47328">
        <ele>1605.6</ele>
        <time>2022-01-14T08:06:59Z</time>
      </trkpt>
      <trkpt lat="44.99642" lon="6.47328">
        <ele>1605.6</ele>
        <time>2022-01-14T08:07:00Z</time>
      </trkpt>
      <trkpt lat="44.99642" lon="6.47328">
        <ele>1605.6</ele>
        <time>2022-01-14T08:07:01Z</time>
      </trkpt>
      <trkpt lat="44.99642" lon="6.47327">
        <ele>1605.6</ele>
        <time>2022-01-14T08:07:02Z</time>
      </trkpt>
      <trkpt lat="44.99643" lon="6.47326">
        <ele>1606.7</ele>
        <time>2022-01-14T08:07:03Z</time>
      </trkpt>
      <trkpt lat="44.99643" lon="6.47324">
        <ele>1606.7</ele>
        <time>2022-01-14T08:07:04Z</time>
      </trkpt>
      <trkpt lat="44.99642" lon="6.47323">
        <ele>1606.5</ele>
        <time>2022-01-14T08:07:05Z</time>
      </trkpt>
      <trkpt lat="44.99641" lon="6.47322">
        <ele>1607.7</ele>
        <time>2022-01-14T08:07:06Z</time>
      </trkpt>
      <trkpt lat="44.99642" lon="6.4732">
        <ele>1607.7</ele>
        <time>2022-01-14T08:07:07Z</time>
      </trkpt>
      <trkpt lat="44.99642" lon="6.4732">
        <ele>1607.7</ele>
        <time>2022-01-14T08:07:08Z</time>
      </trkpt>
      <trkpt lat="44.99642" lon="6.47319">
        <ele>1607.7</ele>
        <time>2022-01-14T08:07:09Z</time>
      </trkpt>
      <trkpt lat="44.99642" lon="6.47319">
        <ele>1607.7</ele>
        <time>2022-01-14T08:07:10Z</time>
      </trkpt>
      <trkpt lat="44.99641" lon="6.47318">
        <ele>1607.7</ele>
        <time>2022-01-14T08:07:11Z</time>
      </trkpt>
      <trkpt lat="44.99641" lon="6.47318">
        <ele>1608.9</ele>
        <time>2022-01-14T08:07:12Z</time>
      </trkpt>
      <trkpt lat="44.99641" lon="6.47317">
        <ele>1608.9</ele>
        <time>2022-01-14T08:07:13Z</time>
      </trkpt>
      <trkpt lat="44.9964" lon="6.47316">
        <ele>1608.9</ele>
        <time>2022-01-14T08:07:14Z</time>
      </trkpt>
      <trkpt lat="44.9964" lon="6.47315">
        <ele>1608.6</ele>
        <time>2022-01-14T08:07:15Z</time>
      </trkpt>
      <trkpt lat="44.9964" lon="6.47314">
        <ele>1608.6</ele>
        <time>2022-01-14T08:07:16Z</time>
      </trkpt>
      <trkpt lat="44.99639" lon="6.47313">
        <ele>1609.7</ele>
        <time>2022-01-14T08:07:17Z</time>
      </trkpt>
      <trkpt lat="44.99639" lon="6.47312">
        <ele>1609.7</ele>
        <time>2022-01-14T08:07:18Z</time>
      </trkpt>
      <trkpt lat="44.99639" lon="6.4731">
        <ele>1609.7</ele>
        <time>2022-01-14T08:07:19Z</time>
      </trkpt>
      <trkpt lat="44.99639" lon="6.47309">
        <ele>1610.8</ele>
        <time>2022-01-14T08:07:20Z</time>
      </trkpt>
      <trkpt lat="44.99639" lon="6.47308">
        <ele>1610.8</ele>
        <time>2022-01-14T08:07:21Z</time>
      </trkpt>
      <trkpt lat="44.99639" lon="6.47308">
        <ele>1610.8</ele>
        <time>2022-01-14T08:07:22Z</time>
      </trkpt>
      <trkpt lat="44.99638" lon="6.47307">
        <ele>1610.8</ele>
        <time>2022-01-14T08:07:23Z</time>
      </trkpt>
      <trkpt lat="44.99638" lon="6.47306">
        <ele>1610.8</ele>
        <time>2022-01-14T08:07:24Z</time>
      </trkpt>
      <trkpt lat="44.99638" lon="6.47305">
        <ele>1611.6</ele>
        <time>2022-01-14T08:07:25Z</time>
      </trkpt>
      <trkpt lat="44.99638" lon="6.47304">
        <ele>1611.6</ele>
        <time>2022-01-14T08:07:26Z</time>
      </trkpt>
      <trkpt lat="44.99638" lon="6.47303">
        <ele>1611.6</ele>
        <time>2022-01-14T08:07:27Z</time>
      </trkpt>
      <trkpt lat="44.99638" lon="6.47302">
        <ele>1611.6</ele>
        <time>2022-01-14T08:07:28Z</time>
      </trkpt>
      <trkpt lat="44.99638" lon="6.47301">
        <ele>1611.6</ele>
        <time>2022-01-14T08:07:29Z</time>
      </trkpt>
      <trkpt lat="44.99638" lon="6.47301">
        <ele>1612.4</ele>
        <time>2022-01-14T08:07:30Z</time>
      </trkpt>
      <trkpt lat="44.99638" lon="6.473">
        <ele>1612.4</ele>
        <time>2022-01-14T08:07:31Z</time>
      </trkpt>
      <trkpt lat="44.99638" lon="6.473">
        <ele>1612.4</ele>
        <time>2022-01-14T08:07:32Z</time>
      </trkpt>
      <trkpt lat="44.99638" lon="6.473">
        <ele>1612.4</ele>
        <time>2022-01-14T08:07:33Z</time>
      </trkpt>
      <trkpt lat="44.99638" lon="6.473">
        <ele>1612.4</ele>
        <time>2022-01-14T08:07:34Z</time>
      </trkpt>
      <trkpt lat="44.99638" lon="6.47299">
        <ele>1612.4</ele>
        <time>2022-01-14T08:07:35Z</time>
      </trkpt>
      <trkpt lat="44.99638" lon="6.47299">
        <ele>1612.4</ele>
        <time>2022-01-14T08:07:36Z</time>
      </trkpt>
      <trkpt lat="44.99638" lon="6.47299">
        <ele>1612.4</ele>
        <time>2022-01-14T08:07:37Z</time>
      </trkpt>
      <trkpt lat="44.99639" lon="6.47298">
        <ele>1612.4</ele>
        <time>2022-01-14T08:07:38Z</time>
      </trkpt>
      <trkpt lat="44.99639" lon="6.47297">
        <ele>1612.4</ele>
        <time>2022-01-14T08:07:39Z</time>
      </trkpt>
      <trkpt lat="44.99639" lon="6.47296">
        <ele>1613.3</ele>
        <time>2022-01-14T08:07:40Z</time>
      </trkpt>
      <trkpt lat="44.99639" lon="6.47295">
        <ele>1613.3</ele>
        <time>2022-01-14T08:07:41Z</time>
      </trkpt>
      <trkpt lat="44.9964" lon="6.47294">
        <ele>1613.3</ele>
        <time>2022-01-14T08:07:42Z</time>
      </trkpt>
      <trkpt lat="44.9964" lon="6.47294">
        <ele>1613.3</ele>
        <time>2022-01-14T08:07:43Z</time>
      </trkpt>
      <trkpt lat="44.9964" lon="6.47293">
        <ele>1613.3</ele>
        <time>2022-01-14T08:07:44Z</time>
      </trkpt>
      <trkpt lat="44.9964" lon="6.47293">
        <ele>1613.6</ele>
        <time>2022-01-14T08:07:45Z</time>
      </trkpt>
      <trkpt lat="44.9964" lon="6.47292">
        <ele>1614.1</ele>
        <time>2022-01-14T08:07:46Z</time>
      </trkpt>
      <trkpt lat="44.99639" lon="6.47292">
        <ele>1614.1</ele>
        <time>2022-01-14T08:07:47Z</time>
      </trkpt>
      <trkpt lat="44.99639" lon="6.47291">
        <ele>1614.1</ele>
        <time>2022-01-14T08:07:48Z</time>
      </trkpt>
      <trkpt lat="44.99639" lon="6.4729">
        <ele>1614.1</ele>
        <time>2022-01-14T08:07:49Z</time>
      </trkpt>
      <trkpt lat="44.99639" lon="6.47289">
        <ele>1614.1</ele>
        <time>2022-01-14T08:07:50Z</time>
      </trkpt>
      <trkpt lat="44.9964" lon="6.47287">
        <ele>1615.1</ele>
        <time>2022-01-14T08:07:52Z</time>
      </trkpt>
      <trkpt lat="44.9964" lon="6.47286">
        <ele>1615.4</ele>
        <time>2022-01-14T08:07:53Z</time>
      </trkpt>
      <trkpt lat="44.99641" lon="6.47286">
        <ele>1615.4</ele>
        <time>2022-01-14T08:07:54Z</time>
      </trkpt>
      <trkpt lat="44.99641" lon="6.47285">
        <ele>1615.4</ele>
        <time>2022-01-14T08:07:55Z</time>
      </trkpt>
      <trkpt lat="44.99641" lon="6.47285">
        <ele>1615.4</ele>
        <time>2022-01-14T08:07:56Z</time>
      </trkpt>
      <trkpt lat="44.99641" lon="6.47285">
        <ele>1615.4</ele>
        <time>2022-01-14T08:07:57Z</time>
      </trkpt>
      <trkpt lat="44.99641" lon="6.47285">
        <ele>1615.4</ele>
        <time>2022-01-14T08:07:58Z</time>
      </trkpt>
      <trkpt lat="44.99641" lon="6.47285">
        <ele>1615.4</ele>
        <time>2022-01-14T08:07:59Z</time>
      </trkpt>
      <trkpt lat="44.99641" lon="6.47284">
        <ele>1615.4</ele>
        <time>2022-01-14T08:08:00Z</time>
      </trkpt>
      <trkpt lat="44.99641" lon="6.47282">
        <ele>1616.4</ele>
        <time>2022-01-14T08:08:01Z</time>
      </trkpt>
      <trkpt lat="44.99639" lon="6.47282">
        <ele>1616.1</ele>
        <time>2022-01-14T08:08:02Z</time>
      </trkpt>
      <trkpt lat="44.99638" lon="6.47281">
        <ele>1616.1</ele>
        <time>2022-01-14T08:08:03Z</time>
      </trkpt>
      <trkpt lat="44.99638" lon="6.4728">
        <ele>1616.1</ele>
        <time>2022-01-14T08:08:04Z</time>
      </trkpt>
      <trkpt lat="44.99638" lon="6.47279">
        <ele>1617.1</ele>
        <time>2022-01-14T08:08:05Z</time>
      </trkpt>
      <trkpt lat="44.99638" lon="6.47279">
        <ele>1617.1</ele>
        <time>2022-01-14T08:08:06Z</time>
      </trkpt>
      <trkpt lat="44.99637" lon="6.47279">
        <ele>1617.1</ele>
        <time>2022-01-14T08:08:07Z</time>
      </trkpt>
      <trkpt lat="44.99637" lon="6.47279">
        <ele>1617.1</ele>
        <time>2022-01-14T08:08:08Z</time>
      </trkpt>
      <trkpt lat="44.99637" lon="6.47279">
        <ele>1617.1</ele>
        <time>2022-01-14T08:08:09Z</time>
      </trkpt>
      <trkpt lat="44.99637" lon="6.47278">
        <ele>1616.9</ele>
        <time>2022-01-14T08:08:10Z</time>
      </trkpt>
      <trkpt lat="44.99636" lon="6.47277">
        <ele>1616.9</ele>
        <time>2022-01-14T08:08:11Z</time>
      </trkpt>
      <trkpt lat="44.99637" lon="6.47275">
        <ele>1617.9</ele>
        <time>2022-01-14T08:08:12Z</time>
      </trkpt>
      <trkpt lat="44.99637" lon="6.47274">
        <ele>1618.1</ele>
        <time>2022-01-14T08:08:13Z</time>
      </trkpt>
      <trkpt lat="44.99639" lon="6.47274">
        <ele>1618.1</ele>
        <time>2022-01-14T08:08:14Z</time>
      </trkpt>
      <trkpt lat="44.99639" lon="6.47271">
        <ele>1618.1</ele>
        <time>2022-01-14T08:08:15Z</time>
      </trkpt>
      <trkpt lat="44.99639" lon="6.47269">
        <ele>1619.1</ele>
        <time>2022-01-14T08:08:16Z</time>
      </trkpt>
      <trkpt lat="44.99639" lon="6.47268">
        <ele>1619.1</ele>
        <time>2022-01-14T08:08:17Z</time>
      </trkpt>
      <trkpt lat="44.99638" lon="6.47267">
        <ele>1619.1</ele>
        <time>2022-01-14T08:08:18Z</time>
      </trkpt>
      <trkpt lat="44.99637" lon="6.47266">
        <ele>1620.1</ele>
        <time>2022-01-14T08:08:19Z</time>
      </trkpt>
      <trkpt lat="44.99638" lon="6.47265">
        <ele>1620.1</ele>
        <time>2022-01-14T08:08:20Z</time>
      </trkpt>
      <trkpt lat="44.99638" lon="6.47265">
        <ele>1620.1</ele>
        <time>2022-01-14T08:08:21Z</time>
      </trkpt>
      <trkpt lat="44.99638" lon="6.47264">
        <ele>1620.1</ele>
        <time>2022-01-14T08:08:22Z</time>
      </trkpt>
      <trkpt lat="44.99637" lon="6.47264">
        <ele>1620.1</ele>
        <time>2022-01-14T08:08:23Z</time>
      </trkpt>
      <trkpt lat="44.99637" lon="6.47265">
        <ele>1620.1</ele>
        <time>2022-01-14T08:08:24Z</time>
      </trkpt>
      <trkpt lat="44.99637" lon="6.47265">
        <ele>1619.9</ele>
        <time>2022-01-14T08:08:25Z</time>
      </trkpt>
      <trkpt lat="44.99637" lon="6.47266">
        <ele>1620.1</ele>
        <time>2022-01-14T08:08:26Z</time>
      </trkpt>
      <trkpt lat="44.99637" lon="6.47267">
        <ele>1618.9</ele>
        <time>2022-01-14T08:08:27Z</time>
      </trkpt>
      <trkpt lat="44.99637" lon="6.47265">
        <ele>1619.9</ele>
        <time>2022-01-14T08:08:28Z</time>
      </trkpt>
      <trkpt lat="44.99636" lon="6.47264">
        <ele>1619.9</ele>
        <time>2022-01-14T08:08:29Z</time>
      </trkpt>
      <trkpt lat="44.99637" lon="6.47263">
        <ele>1619.9</ele>
        <time>2022-01-14T08:08:30Z</time>
      </trkpt>
      <trkpt lat="44.99637" lon="6.47262">
        <ele>1620.1</ele>
        <time>2022-01-14T08:08:31Z</time>
      </trkpt>
      <trkpt lat="44.99638" lon="6.47262">
        <ele>1621.1</ele>
        <time>2022-01-14T08:08:32Z</time>
      </trkpt>
      <trkpt lat="44.99637" lon="6.47262">
        <ele>1621.1</ele>
        <time>2022-01-14T08:08:33Z</time>
      </trkpt>
      <trkpt lat="44.99637" lon="6.47262">
        <ele>1620.9</ele>
        <time>2022-01-14T08:08:34Z</time>
      </trkpt>
      <trkpt lat="44.99636" lon="6.47261">
        <ele>1620.9</ele>
        <time>2022-01-14T08:08:35Z</time>
      </trkpt>
      <trkpt lat="44.99636" lon="6.4726">
        <ele>1620.9</ele>
        <time>2022-01-14T08:08:36Z</time>
      </trkpt>
      <trkpt lat="44.99636" lon="6.47259">
        <ele>1620.9</ele>
        <time>2022-01-14T08:08:37Z</time>
      </trkpt>
      <trkpt lat="44.99637" lon="6.47258">
        <ele>1620.9</ele>
        <time>2022-01-14T08:08:38Z</time>
      </trkpt>
      <trkpt lat="44.99637" lon="6.47258">
        <ele>1621.1</ele>
        <time>2022-01-14T08:08:39Z</time>
      </trkpt>
      <trkpt lat="44.99637" lon="6.47258">
        <ele>1622.1</ele>
        <time>2022-01-14T08:08:40Z</time>
      </trkpt>
      <trkpt lat="44.99637" lon="6.47259">
        <ele>1621.1</ele>
        <time>2022-01-14T08:08:41Z</time>
      </trkpt>
      <trkpt lat="44.99637" lon="6.47258">
        <ele>1621.1</ele>
        <time>2022-01-14T08:08:42Z</time>
      </trkpt>
      <trkpt lat="44.99637" lon="6.47257">
        <ele>1622.1</ele>
        <time>2022-01-14T08:08:43Z</time>
      </trkpt>
      <trkpt lat="44.99637" lon="6.47257">
        <ele>1622.1</ele>
        <time>2022-01-14T08:08:44Z</time>
      </trkpt>
      <trkpt lat="44.99637" lon="6.47256">
        <ele>1621.8</ele>
        <time>2022-01-14T08:08:45Z</time>
      </trkpt>
      <trkpt lat="44.99637" lon="6.47255">
        <ele>1621.8</ele>
        <time>2022-01-14T08:08:46Z</time>
      </trkpt>
      <trkpt lat="44.99636" lon="6.47254">
        <ele>1621.8</ele>
        <time>2022-01-14T08:08:47Z</time>
      </trkpt>
      <trkpt lat="44.99636" lon="6.47253">
        <ele>1622.7</ele>
        <time>2022-01-14T08:08:48Z</time>
      </trkpt>
      <trkpt lat="44.99635" lon="6.47253">
        <ele>1622.7</ele>
        <time>2022-01-14T08:08:49Z</time>
      </trkpt>
      <trkpt lat="44.99635" lon="6.47252">
        <ele>1622.7</ele>
        <time>2022-01-14T08:08:50Z</time>
      </trkpt>
      <trkpt lat="44.99635" lon="6.47251">
        <ele>1622.7</ele>
        <time>2022-01-14T08:08:51Z</time>
      </trkpt>
      <trkpt lat="44.99635" lon="6.4725">
        <ele>1622.7</ele>
        <time>2022-01-14T08:08:52Z</time>
      </trkpt>
      <trkpt lat="44.99635" lon="6.47249">
        <ele>1623.6</ele>
        <time>2022-01-14T08:08:53Z</time>
      </trkpt>
      <trkpt lat="44.99634" lon="6.47248">
        <ele>1623.6</ele>
        <time>2022-01-14T08:08:54Z</time>
      </trkpt>
      <trkpt lat="44.99634" lon="6.47248">
        <ele>1623.6</ele>
        <time>2022-01-14T08:08:55Z</time>
      </trkpt>
      <trkpt lat="44.99634" lon="6.47247">
        <ele>1623.6</ele>
        <time>2022-01-14T08:08:56Z</time>
      </trkpt>
      <trkpt lat="44.99633" lon="6.47246">
        <ele>1623.5</ele>
        <time>2022-01-14T08:08:57Z</time>
      </trkpt>
      <trkpt lat="44.99633" lon="6.47247">
        <ele>1623.5</ele>
        <time>2022-01-14T08:08:58Z</time>
      </trkpt>
      <trkpt lat="44.99633" lon="6.47247">
        <ele>1623.5</ele>
        <time>2022-01-14T08:08:59Z</time>
      </trkpt>
      <trkpt lat="44.99632" lon="6.47246">
        <ele>1623.5</ele>
        <time>2022-01-14T08:09:00Z</time>
      </trkpt>
      <trkpt lat="44.99632" lon="6.47245">
        <ele>1624.5</ele>
        <time>2022-01-14T08:09:01Z</time>
      </trkpt>
      <trkpt lat="44.99631" lon="6.47244">
        <ele>1624.5</ele>
        <time>2022-01-14T08:09:02Z</time>
      </trkpt>
      <trkpt lat="44.99631" lon="6.47242">
        <ele>1624.5</ele>
        <time>2022-01-14T08:09:03Z</time>
      </trkpt>
      <trkpt lat="44.9963" lon="6.4724">
        <ele>1625.4</ele>
        <time>2022-01-14T08:09:04Z</time>
      </trkpt>
      <trkpt lat="44.99631" lon="6.47238">
        <ele>1625.4</ele>
        <time>2022-01-14T08:09:05Z</time>
      </trkpt>
      <trkpt lat="44.9963" lon="6.47237">
        <ele>1625.4</ele>
        <time>2022-01-14T08:09:06Z</time>
      </trkpt>
      <trkpt lat="44.9963" lon="6.47236">
        <ele>1626.5</ele>
        <time>2022-01-14T08:09:07Z</time>
      </trkpt>
      <trkpt lat="44.99629" lon="6.47235">
        <ele>1626.5</ele>
        <time>2022-01-14T08:09:08Z</time>
      </trkpt>
      <trkpt lat="44.99629" lon="6.47234">
        <ele>1626.5</ele>
        <time>2022-01-14T08:09:09Z</time>
      </trkpt>
      <trkpt lat="44.99629" lon="6.47233">
        <ele>1626.5</ele>
        <time>2022-01-14T08:09:10Z</time>
      </trkpt>
      <trkpt lat="44.99629" lon="6.47233">
        <ele>1626.5</ele>
        <time>2022-01-14T08:09:11Z</time>
      </trkpt>
      <trkpt lat="44.99629" lon="6.47233">
        <ele>1626.5</ele>
        <time>2022-01-14T08:09:12Z</time>
      </trkpt>
      <trkpt lat="44.99629" lon="6.47233">
        <ele>1626.5</ele>
        <time>2022-01-14T08:09:13Z</time>
      </trkpt>
      <trkpt lat="44.9963" lon="6.47234">
        <ele>1626.5</ele>
        <time>2022-01-14T08:09:14Z</time>
      </trkpt>
      <trkpt lat="44.9963" lon="6.47232">
        <ele>1626.5</ele>
        <time>2022-01-14T08:09:15Z</time>
      </trkpt>
      <trkpt lat="44.99631" lon="6.47233">
        <ele>1626.5</ele>
        <time>2022-01-14T08:09:16Z</time>
      </trkpt>
      <trkpt lat="44.9963" lon="6.47232">
        <ele>1627.5</ele>
        <time>2022-01-14T08:09:17Z</time>
      </trkpt>
      <trkpt lat="44.99631" lon="6.47231">
        <ele>1627.5</ele>
        <time>2022-01-14T08:09:18Z</time>
      </trkpt>
      <trkpt lat="44.99631" lon="6.4723">
        <ele>1627.4</ele>
        <time>2022-01-14T08:09:19Z</time>
      </trkpt>
      <trkpt lat="44.99632" lon="6.47229">
        <ele>1627.4</ele>
        <time>2022-01-14T08:09:20Z</time>
      </trkpt>
      <trkpt lat="44.99632" lon="6.47227">
        <ele>1628.4</ele>
        <time>2022-01-14T08:09:21Z</time>
      </trkpt>
      <trkpt lat="44.99633" lon="6.47226">
        <ele>1628.4</ele>
        <time>2022-01-14T08:09:22Z</time>
      </trkpt>
      <trkpt lat="44.99633" lon="6.47226">
        <ele>1628.4</ele>
        <time>2022-01-14T08:09:23Z</time>
      </trkpt>
      <trkpt lat="44.99634" lon="6.47225">
        <ele>1628.4</ele>
        <time>2022-01-14T08:09:24Z</time>
      </trkpt>
      <trkpt lat="44.99634" lon="6.47227">
        <ele>1628.4</ele>
        <time>2022-01-14T08:09:25Z</time>
      </trkpt>
      <trkpt lat="44.99636" lon="6.47226">
        <ele>1628.4</ele>
        <time>2022-01-14T08:09:26Z</time>
      </trkpt>
      <trkpt lat="44.99637" lon="6.47225">
        <ele>1628.4</ele>
        <time>2022-01-14T08:09:27Z</time>
      </trkpt>
      <trkpt lat="44.99637" lon="6.47224">
        <ele>1628.4</ele>
        <time>2022-01-14T08:09:28Z</time>
      </trkpt>
      <trkpt lat="44.99638" lon="6.47224">
        <ele>1628.4</ele>
        <time>2022-01-14T08:09:29Z</time>
      </trkpt>
      <trkpt lat="44.99638" lon="6.47224">
        <ele>1628.4</ele>
        <time>2022-01-14T08:09:30Z</time>
      </trkpt>
      <trkpt lat="44.99638" lon="6.47223">
        <ele>1629.4</ele>
        <time>2022-01-14T08:09:31Z</time>
      </trkpt>
      <trkpt lat="44.99638" lon="6.47221">
        <ele>1629.4</ele>
        <time>2022-01-14T08:09:32Z</time>
      </trkpt>
      <trkpt lat="44.99638" lon="6.4722">
        <ele>1629.4</ele>
        <time>2022-01-14T08:09:33Z</time>
      </trkpt>
      <trkpt lat="44.99638" lon="6.47219">
        <ele>1630.5</ele>
        <time>2022-01-14T08:09:34Z</time>
      </trkpt>
      <trkpt lat="44.99639" lon="6.47217">
        <ele>1630.5</ele>
        <time>2022-01-14T08:09:35Z</time>
      </trkpt>
      <trkpt lat="44.99639" lon="6.47216">
        <ele>1630.5</ele>
        <time>2022-01-14T08:09:36Z</time>
      </trkpt>
      <trkpt lat="44.9964" lon="6.47215">
        <ele>1631.6</ele>
        <time>2022-01-14T08:09:37Z</time>
      </trkpt>
      <trkpt lat="44.9964" lon="6.47214">
        <ele>1631.4</ele>
        <time>2022-01-14T08:09:38Z</time>
      </trkpt>
      <trkpt lat="44.99642" lon="6.47214">
        <ele>1631.4</ele>
        <time>2022-01-14T08:09:39Z</time>
      </trkpt>
      <trkpt lat="44.99642" lon="6.47213">
        <ele>1631.4</ele>
        <time>2022-01-14T08:09:40Z</time>
      </trkpt>
      <trkpt lat="44.99642" lon="6.47212">
        <ele>1631.4</ele>
        <time>2022-01-14T08:09:41Z</time>
      </trkpt>
      <trkpt lat="44.99642" lon="6.47211">
        <ele>1631.4</ele>
        <time>2022-01-14T08:09:42Z</time>
      </trkpt>
      <trkpt lat="44.99642" lon="6.4721">
        <ele>1632.5</ele>
        <time>2022-01-14T08:09:43Z</time>
      </trkpt>
      <trkpt lat="44.99642" lon="6.47209">
        <ele>1632.5</ele>
        <time>2022-01-14T08:09:44Z</time>
      </trkpt>
      <trkpt lat="44.99643" lon="6.47209">
        <ele>1632.5</ele>
        <time>2022-01-14T08:09:45Z</time>
      </trkpt>
      <trkpt lat="44.99643" lon="6.47208">
        <ele>1632.2</ele>
        <time>2022-01-14T08:09:46Z</time>
      </trkpt>
      <trkpt lat="44.99644" lon="6.47209">
        <ele>1632.2</ele>
        <time>2022-01-14T08:09:47Z</time>
      </trkpt>
      <trkpt lat="44.99645" lon="6.47208">
        <ele>1632.2</ele>
        <time>2022-01-14T08:09:48Z</time>
      </trkpt>
      <trkpt lat="44.99646" lon="6.47208">
        <ele>1632.2</ele>
        <time>2022-01-14T08:09:49Z</time>
      </trkpt>
      <trkpt lat="44.99647" lon="6.47208">
        <ele>1632</ele>
        <time>2022-01-14T08:09:50Z</time>
      </trkpt>
      <trkpt lat="44.99648" lon="6.47208">
        <ele>1632</ele>
        <time>2022-01-14T08:09:51Z</time>
      </trkpt>
      <trkpt lat="44.99648" lon="6.47207">
        <ele>1632</ele>
        <time>2022-01-14T08:09:52Z</time>
      </trkpt>
      <trkpt lat="44.99648" lon="6.47207">
        <ele>1632</ele>
        <time>2022-01-14T08:09:53Z</time>
      </trkpt>
      <trkpt lat="44.99648" lon="6.47206">
        <ele>1633</ele>
        <time>2022-01-14T08:09:54Z</time>
      </trkpt>
      <trkpt lat="44.99649" lon="6.47206">
        <ele>1633</ele>
        <time>2022-01-14T08:09:55Z</time>
      </trkpt>
      <trkpt lat="44.99649" lon="6.47206">
        <ele>1633</ele>
        <time>2022-01-14T08:09:56Z</time>
      </trkpt>
      <trkpt lat="44.99649" lon="6.47204">
        <ele>1633</ele>
        <time>2022-01-14T08:09:57Z</time>
      </trkpt>
      <trkpt lat="44.9965" lon="6.47203">
        <ele>1632.7</ele>
        <time>2022-01-14T08:09:58Z</time>
      </trkpt>
      <trkpt lat="44.99649" lon="6.47202">
        <ele>1632.7</ele>
        <time>2022-01-14T08:09:59Z</time>
      </trkpt>
      <trkpt lat="44.99649" lon="6.47202">
        <ele>1632.7</ele>
        <time>2022-01-14T08:10:00Z</time>
      </trkpt>
      <trkpt lat="44.9965" lon="6.472">
        <ele>1633.7</ele>
        <time>2022-01-14T08:10:01Z</time>
      </trkpt>
      <trkpt lat="44.9965" lon="6.47199">
        <ele>1633.7</ele>
        <time>2022-01-14T08:10:02Z</time>
      </trkpt>
      <trkpt lat="44.9965" lon="6.472">
        <ele>1633.7</ele>
        <time>2022-01-14T08:10:03Z</time>
      </trkpt>
      <trkpt lat="44.9965" lon="6.472">
        <ele>1633.7</ele>
        <time>2022-01-14T08:10:04Z</time>
      </trkpt>
      <trkpt lat="44.99651" lon="6.472">
        <ele>1633.7</ele>
        <time>2022-01-14T08:10:05Z</time>
      </trkpt>
      <trkpt lat="44.99652" lon="6.47199">
        <ele>1633.7</ele>
        <time>2022-01-14T08:10:06Z</time>
      </trkpt>
      <trkpt lat="44.99652" lon="6.47198">
        <ele>1633.7</ele>
        <time>2022-01-14T08:10:07Z</time>
      </trkpt>
      <trkpt lat="44.99652" lon="6.47198">
        <ele>1633.5</ele>
        <time>2022-01-14T08:10:08Z</time>
      </trkpt>
      <trkpt lat="44.99653" lon="6.47198">
        <ele>1634.5</ele>
        <time>2022-01-14T08:10:09Z</time>
      </trkpt>
      <trkpt lat="44.99652" lon="6.47197">
        <ele>1634.5</ele>
        <time>2022-01-14T08:10:10Z</time>
      </trkpt>
      <trkpt lat="44.99652" lon="6.47197">
        <ele>1634.5</ele>
        <time>2022-01-14T08:10:11Z</time>
      </trkpt>
      <trkpt lat="44.99653" lon="6.47196">
        <ele>1634.5</ele>
        <time>2022-01-14T08:10:12Z</time>
      </trkpt>
      <trkpt lat="44.99653" lon="6.47196">
        <ele>1634.5</ele>
        <time>2022-01-14T08:10:13Z</time>
      </trkpt>
      <trkpt lat="44.99653" lon="6.47195">
        <ele>1634.5</ele>
        <time>2022-01-14T08:10:14Z</time>
      </trkpt>
      <trkpt lat="44.99653" lon="6.47194">
        <ele>1634.5</ele>
        <time>2022-01-14T08:10:15Z</time>
      </trkpt>
      <trkpt lat="44.99653" lon="6.47194">
        <ele>1634.5</ele>
        <time>2022-01-14T08:10:16Z</time>
      </trkpt>
      <trkpt lat="44.99653" lon="6.47193">
        <ele>1635.5</ele>
        <time>2022-01-14T08:10:17Z</time>
      </trkpt>
      <trkpt lat="44.99653" lon="6.47193">
        <ele>1635.5</ele>
        <time>2022-01-14T08:10:18Z</time>
      </trkpt>
      <trkpt lat="44.99653" lon="6.47192">
        <ele>1635.5</ele>
        <time>2022-01-14T08:10:19Z</time>
      </trkpt>
      <trkpt lat="44.99654" lon="6.4719">
        <ele>1635.5</ele>
        <time>2022-01-14T08:10:20Z</time>
      </trkpt>
      <trkpt lat="44.99654" lon="6.47189">
        <ele>1636.5</ele>
        <time>2022-01-14T08:10:21Z</time>
      </trkpt>
      <trkpt lat="44.99654" lon="6.47188">
        <ele>1636.5</ele>
        <time>2022-01-14T08:10:22Z</time>
      </trkpt>
      <trkpt lat="44.99654" lon="6.47188">
        <ele>1636.5</ele>
        <time>2022-01-14T08:10:23Z</time>
      </trkpt>
      <trkpt lat="44.99654" lon="6.47186">
        <ele>1636.5</ele>
        <time>2022-01-14T08:10:24Z</time>
      </trkpt>
      <trkpt lat="44.99653" lon="6.47186">
        <ele>1636.5</ele>
        <time>2022-01-14T08:10:25Z</time>
      </trkpt>
      <trkpt lat="44.99652" lon="6.47186">
        <ele>1636.7</ele>
        <time>2022-01-14T08:10:26Z</time>
      </trkpt>
      <trkpt lat="44.99652" lon="6.47185">
        <ele>1636.5</ele>
        <time>2022-01-14T08:10:27Z</time>
      </trkpt>
      <trkpt lat="44.99652" lon="6.47184">
        <ele>1637.7</ele>
        <time>2022-01-14T08:10:28Z</time>
      </trkpt>
      <trkpt lat="44.99652" lon="6.47185">
        <ele>1637.7</ele>
        <time>2022-01-14T08:10:29Z</time>
      </trkpt>
      <trkpt lat="44.99652" lon="6.47184">
        <ele>1637.7</ele>
        <time>2022-01-14T08:10:30Z</time>
      </trkpt>
      <trkpt lat="44.99652" lon="6.47182">
        <ele>1637.7</ele>
        <time>2022-01-14T08:10:31Z</time>
      </trkpt>
      <trkpt lat="44.99652" lon="6.47182">
        <ele>1637.4</ele>
        <time>2022-01-14T08:10:32Z</time>
      </trkpt>
      <trkpt lat="44.99653" lon="6.47181">
        <ele>1637.4</ele>
        <time>2022-01-14T08:10:33Z</time>
      </trkpt>
      <trkpt lat="44.99653" lon="6.4718">
        <ele>1638.4</ele>
        <time>2022-01-14T08:10:34Z</time>
      </trkpt>
      <trkpt lat="44.99653" lon="6.4718">
        <ele>1638.4</ele>
        <time>2022-01-14T08:10:35Z</time>
      </trkpt>
      <trkpt lat="44.99653" lon="6.4718">
        <ele>1638.4</ele>
        <time>2022-01-14T08:10:36Z</time>
      </trkpt>
      <trkpt lat="44.99653" lon="6.47179">
        <ele>1638.4</ele>
        <time>2022-01-14T08:10:37Z</time>
      </trkpt>
      <trkpt lat="44.99653" lon="6.47178">
        <ele>1638.4</ele>
        <time>2022-01-14T08:10:38Z</time>
      </trkpt>
      <trkpt lat="44.99654" lon="6.47178">
        <ele>1638.4</ele>
        <time>2022-01-14T08:10:39Z</time>
      </trkpt>
      <trkpt lat="44.99654" lon="6.47177">
        <ele>1638.4</ele>
        <time>2022-01-14T08:10:40Z</time>
      </trkpt>
      <trkpt lat="44.99654" lon="6.47177">
        <ele>1638.4</ele>
        <time>2022-01-14T08:10:41Z</time>
      </trkpt>
      <trkpt lat="44.99655" lon="6.47176">
        <ele>1639.4</ele>
        <time>2022-01-14T08:10:42Z</time>
      </trkpt>
      <trkpt lat="44.99655" lon="6.47175">
        <ele>1639.3</ele>
        <time>2022-01-14T08:10:43Z</time>
      </trkpt>
      <trkpt lat="44.99656" lon="6.47174">
        <ele>1639.3</ele>
        <time>2022-01-14T08:10:44Z</time>
      </trkpt>
      <trkpt lat="44.99657" lon="6.47173">
        <ele>1639.3</ele>
        <time>2022-01-14T08:10:45Z</time>
      </trkpt>
      <trkpt lat="44.99657" lon="6.47172">
        <ele>1639.3</ele>
        <time>2022-01-14T08:10:46Z</time>
      </trkpt>
      <trkpt lat="44.99657" lon="6.47172">
        <ele>1640.4</ele>
        <time>2022-01-14T08:10:47Z</time>
      </trkpt>
      <trkpt lat="44.99658" lon="6.47171">
        <ele>1640.4</ele>
        <time>2022-01-14T08:10:48Z</time>
      </trkpt>
      <trkpt lat="44.99658" lon="6.4717">
        <ele>1640.4</ele>
        <time>2022-01-14T08:10:49Z</time>
      </trkpt>
      <trkpt lat="44.99658" lon="6.47169">
        <ele>1640.4</ele>
        <time>2022-01-14T08:10:50Z</time>
      </trkpt>
      <trkpt lat="44.99657" lon="6.47168">
        <ele>1640.4</ele>
        <time>2022-01-14T08:10:51Z</time>
      </trkpt>
      <trkpt lat="44.99658" lon="6.47169">
        <ele>1640.4</ele>
        <time>2022-01-14T08:10:52Z</time>
      </trkpt>
      <trkpt lat="44.99657" lon="6.47168">
        <ele>1640.4</ele>
        <time>2022-01-14T08:10:53Z</time>
      </trkpt>
      <trkpt lat="44.99658" lon="6.47166">
        <ele>1641.4</ele>
        <time>2022-01-14T08:10:54Z</time>
      </trkpt>
      <trkpt lat="44.99659" lon="6.47166">
        <ele>1641.4</ele>
        <time>2022-01-14T08:10:55Z</time>
      </trkpt>
      <trkpt lat="44.99659" lon="6.47166">
        <ele>1641.4</ele>
        <time>2022-01-14T08:10:56Z</time>
      </trkpt>
      <trkpt lat="44.99659" lon="6.47166">
        <ele>1641.4</ele>
        <time>2022-01-14T08:10:57Z</time>
      </trkpt>
      <trkpt lat="44.99659" lon="6.47166">
        <ele>1641.4</ele>
        <time>2022-01-14T08:10:58Z</time>
      </trkpt>
      <trkpt lat="44.99658" lon="6.47166">
        <ele>1641.4</ele>
        <time>2022-01-14T08:10:59Z</time>
      </trkpt>
      <trkpt lat="44.99658" lon="6.47166">
        <ele>1641.5</ele>
        <time>2022-01-14T08:11:00Z</time>
      </trkpt>
      <trkpt lat="44.99658" lon="6.47166">
        <ele>1641.5</ele>
        <time>2022-01-14T08:11:01Z</time>
      </trkpt>
      <trkpt lat="44.99658" lon="6.47165">
        <ele>1641.5</ele>
        <time>2022-01-14T08:11:02Z</time>
      </trkpt>
      <trkpt lat="44.99658" lon="6.47163">
        <ele>1642.5</ele>
        <time>2022-01-14T08:11:03Z</time>
      </trkpt>
      <trkpt lat="44.99657" lon="6.47163">
        <ele>1642.6</ele>
        <time>2022-01-14T08:11:04Z</time>
      </trkpt>
      <trkpt lat="44.99657" lon="6.47163">
        <ele>1642.6</ele>
        <time>2022-01-14T08:11:05Z</time>
      </trkpt>
      <trkpt lat="44.99656" lon="6.47163">
        <ele>1642.6</ele>
        <time>2022-01-14T08:11:06Z</time>
      </trkpt>
      <trkpt lat="44.99656" lon="6.47163">
        <ele>1642.7</ele>
        <time>2022-01-14T08:11:07Z</time>
      </trkpt>
      <trkpt lat="44.99655" lon="6.47163">
        <ele>1642.7</ele>
        <time>2022-01-14T08:11:08Z</time>
      </trkpt>
      <trkpt lat="44.99655" lon="6.47162">
        <ele>1642.7</ele>
        <time>2022-01-14T08:11:09Z</time>
      </trkpt>
      <trkpt lat="44.99654" lon="6.47162">
        <ele>1642.7</ele>
        <time>2022-01-14T08:11:10Z</time>
      </trkpt>
      <trkpt lat="44.99654" lon="6.47162">
        <ele>1642.8</ele>
        <time>2022-01-14T08:11:11Z</time>
      </trkpt>
      <trkpt lat="44.99654" lon="6.47161">
        <ele>1642.8</ele>
        <time>2022-01-14T08:11:12Z</time>
      </trkpt>
      <trkpt lat="44.99653" lon="6.47161">
        <ele>1642.8</ele>
        <time>2022-01-14T08:11:13Z</time>
      </trkpt>
      <trkpt lat="44.99653" lon="6.4716">
        <ele>1642.9</ele>
        <time>2022-01-14T08:11:14Z</time>
      </trkpt>
      <trkpt lat="44.99653" lon="6.47158">
        <ele>1643.9</ele>
        <time>2022-01-14T08:11:15Z</time>
      </trkpt>
      <trkpt lat="44.99652" lon="6.47156">
        <ele>1643.9</ele>
        <time>2022-01-14T08:11:16Z</time>
      </trkpt>
      <trkpt lat="44.99652" lon="6.47155">
        <ele>1644</ele>
        <time>2022-01-14T08:11:17Z</time>
      </trkpt>
      <trkpt lat="44.99652" lon="6.47154">
        <ele>1645</ele>
        <time>2022-01-14T08:11:18Z</time>
      </trkpt>
      <trkpt lat="44.99652" lon="6.47153">
        <ele>1645</ele>
        <time>2022-01-14T08:11:19Z</time>
      </trkpt>
      <trkpt lat="44.99652" lon="6.47152">
        <ele>1645.3</ele>
        <time>2022-01-14T08:11:20Z</time>
      </trkpt>
      <trkpt lat="44.99652" lon="6.47152">
        <ele>1645.3</ele>
        <time>2022-01-14T08:11:21Z</time>
      </trkpt>
      <trkpt lat="44.99651" lon="6.47151">
        <ele>1645.4</ele>
        <time>2022-01-14T08:11:22Z</time>
      </trkpt>
      <trkpt lat="44.99651" lon="6.47151">
        <ele>1645.4</ele>
        <time>2022-01-14T08:11:23Z</time>
      </trkpt>
      <trkpt lat="44.99651" lon="6.4715">
        <ele>1646.3</ele>
        <time>2022-01-14T08:11:24Z</time>
      </trkpt>
      <trkpt lat="44.99651" lon="6.4715">
        <ele>1646.4</ele>
        <time>2022-01-14T08:11:25Z</time>
      </trkpt>
      <trkpt lat="44.99651" lon="6.47149">
        <ele>1646.4</ele>
        <time>2022-01-14T08:11:26Z</time>
      </trkpt>
      <trkpt lat="44.99651" lon="6.47149">
        <ele>1646.4</ele>
        <time>2022-01-14T08:11:27Z</time>
      </trkpt>
      <trkpt lat="44.99651" lon="6.47148">
        <ele>1646.4</ele>
        <time>2022-01-14T08:11:28Z</time>
      </trkpt>
      <trkpt lat="44.9965" lon="6.47147">
        <ele>1646.5</ele>
        <time>2022-01-14T08:11:29Z</time>
      </trkpt>
      <trkpt lat="44.99651" lon="6.47147">
        <ele>1646.5</ele>
        <time>2022-01-14T08:11:30Z</time>
      </trkpt>
      <trkpt lat="44.9965" lon="6.47147">
        <ele>1646.5</ele>
        <time>2022-01-14T08:11:31Z</time>
      </trkpt>
      <trkpt lat="44.99651" lon="6.47147">
        <ele>1646.6</ele>
        <time>2022-01-14T08:11:32Z</time>
      </trkpt>
      <trkpt lat="44.99651" lon="6.47147">
        <ele>1646.6</ele>
        <time>2022-01-14T08:11:33Z</time>
      </trkpt>
      <trkpt lat="44.99651" lon="6.47147">
        <ele>1646.6</ele>
        <time>2022-01-14T08:11:34Z</time>
      </trkpt>
      <trkpt lat="44.9965" lon="6.47147">
        <ele>1646.6</ele>
        <time>2022-01-14T08:11:35Z</time>
      </trkpt>
      <trkpt lat="44.9965" lon="6.47146">
        <ele>1647.6</ele>
        <time>2022-01-14T08:11:36Z</time>
      </trkpt>
      <trkpt lat="44.9965" lon="6.47147">
        <ele>1646.7</ele>
        <time>2022-01-14T08:11:37Z</time>
      </trkpt>
      <trkpt lat="44.99651" lon="6.47146">
        <ele>1647.7</ele>
        <time>2022-01-14T08:11:38Z</time>
      </trkpt>
      <trkpt lat="44.9965" lon="6.47144">
        <ele>1647.7</ele>
        <time>2022-01-14T08:11:39Z</time>
      </trkpt>
      <trkpt lat="44.9965" lon="6.47143">
        <ele>1647.7</ele>
        <time>2022-01-14T08:11:40Z</time>
      </trkpt>
      <trkpt lat="44.99649" lon="6.47141">
        <ele>1648.6</ele>
        <time>2022-01-14T08:11:41Z</time>
      </trkpt>
      <trkpt lat="44.99649" lon="6.4714">
        <ele>1648.7</ele>
        <time>2022-01-14T08:11:42Z</time>
      </trkpt>
      <trkpt lat="44.99649" lon="6.47139">
        <ele>1648.7</ele>
        <time>2022-01-14T08:11:43Z</time>
      </trkpt>
      <trkpt lat="44.9965" lon="6.47139">
        <ele>1648.7</ele>
        <time>2022-01-14T08:11:44Z</time>
      </trkpt>
      <trkpt lat="44.9965" lon="6.47138">
        <ele>1648.8</ele>
        <time>2022-01-14T08:11:45Z</time>
      </trkpt>
      <trkpt lat="44.99651" lon="6.47138">
        <ele>1649.7</ele>
        <time>2022-01-14T08:11:46Z</time>
      </trkpt>
      <trkpt lat="44.99651" lon="6.47136">
        <ele>1649.7</ele>
        <time>2022-01-14T08:11:47Z</time>
      </trkpt>
      <trkpt lat="44.99651" lon="6.47136">
        <ele>1649.8</ele>
        <time>2022-01-14T08:11:48Z</time>
      </trkpt>
      <trkpt lat="44.9965" lon="6.47135">
        <ele>1649.8</ele>
        <time>2022-01-14T08:11:49Z</time>
      </trkpt>
      <trkpt lat="44.9965" lon="6.47134">
        <ele>1649.8</ele>
        <time>2022-01-14T08:11:50Z</time>
      </trkpt>
      <trkpt lat="44.9965" lon="6.47134">
        <ele>1649.8</ele>
        <time>2022-01-14T08:11:51Z</time>
      </trkpt>
      <trkpt lat="44.9965" lon="6.47134">
        <ele>1649.9</ele>
        <time>2022-01-14T08:11:52Z</time>
      </trkpt>
      <trkpt lat="44.99651" lon="6.47134">
        <ele>1649.9</ele>
        <time>2022-01-14T08:11:53Z</time>
      </trkpt>
      <trkpt lat="44.99651" lon="6.47134">
        <ele>1649.9</ele>
        <time>2022-01-14T08:11:54Z</time>
      </trkpt>
      <trkpt lat="44.99651" lon="6.47134">
        <ele>1650</ele>
        <time>2022-01-14T08:11:55Z</time>
      </trkpt>
      <trkpt lat="44.9965" lon="6.47133">
        <ele>1650.9</ele>
        <time>2022-01-14T08:11:56Z</time>
      </trkpt>
      <trkpt lat="44.9965" lon="6.47132">
        <ele>1651</ele>
        <time>2022-01-14T08:11:57Z</time>
      </trkpt>
      <trkpt lat="44.99651" lon="6.47131">
        <ele>1651</ele>
        <time>2022-01-14T08:11:58Z</time>
      </trkpt>
      <trkpt lat="44.99651" lon="6.47131">
        <ele>1651</ele>
        <time>2022-01-14T08:11:59Z</time>
      </trkpt>
      <trkpt lat="44.99651" lon="6.4713">
        <ele>1651</ele>
        <time>2022-01-14T08:12:00Z</time>
      </trkpt>
      <trkpt lat="44.99651" lon="6.4713">
        <ele>1651.1</ele>
        <time>2022-01-14T08:12:01Z</time>
      </trkpt>
      <trkpt lat="44.99651" lon="6.47129">
        <ele>1651.1</ele>
        <time>2022-01-14T08:12:02Z</time>
      </trkpt>
      <trkpt lat="44.99651" lon="6.47129">
        <ele>1652</ele>
        <time>2022-01-14T08:12:03Z</time>
      </trkpt>
      <trkpt lat="44.99651" lon="6.47128">
        <ele>1652</ele>
        <time>2022-01-14T08:12:04Z</time>
      </trkpt>
      <trkpt lat="44.99651" lon="6.47128">
        <ele>1652.1</ele>
        <time>2022-01-14T08:12:05Z</time>
      </trkpt>
      <trkpt lat="44.99651" lon="6.47127">
        <ele>1652.1</ele>
        <time>2022-01-14T08:12:06Z</time>
      </trkpt>
      <trkpt lat="44.99651" lon="6.47128">
        <ele>1652.1</ele>
        <time>2022-01-14T08:12:07Z</time>
      </trkpt>
      <trkpt lat="44.9965" lon="6.47127">
        <ele>1652.2</ele>
        <time>2022-01-14T08:12:08Z</time>
      </trkpt>
      <trkpt lat="44.9965" lon="6.47126">
        <ele>1652.2</ele>
        <time>2022-01-14T08:12:09Z</time>
      </trkpt>
      <trkpt lat="44.9965" lon="6.47126">
        <ele>1652.2</ele>
        <time>2022-01-14T08:12:10Z</time>
      </trkpt>
      <trkpt lat="44.9965" lon="6.47126">
        <ele>1652.2</ele>
        <time>2022-01-14T08:12:11Z</time>
      </trkpt>
      <trkpt lat="44.9965" lon="6.47126">
        <ele>1652.3</ele>
        <time>2022-01-14T08:12:12Z</time>
      </trkpt>
      <trkpt lat="44.9965" lon="6.47124">
        <ele>1653.3</ele>
        <time>2022-01-14T08:12:13Z</time>
      </trkpt>
      <trkpt lat="44.9965" lon="6.47123">
        <ele>1653.3</ele>
        <time>2022-01-14T08:12:14Z</time>
      </trkpt>
      <trkpt lat="44.99649" lon="6.47122">
        <ele>1653.1</ele>
        <time>2022-01-14T08:12:15Z</time>
      </trkpt>
      <trkpt lat="44.99648" lon="6.47121">
        <ele>1653.2</ele>
        <time>2022-01-14T08:12:16Z</time>
      </trkpt>
      <trkpt lat="44.99648" lon="6.47121">
        <ele>1653.2</ele>
        <time>2022-01-14T08:12:17Z</time>
      </trkpt>
      <trkpt lat="44.99647" lon="6.4712">
        <ele>1654</ele>
        <time>2022-01-14T08:12:18Z</time>
      </trkpt>
      <trkpt lat="44.99647" lon="6.47119">
        <ele>1654.1</ele>
        <time>2022-01-14T08:12:19Z</time>
      </trkpt>
      <trkpt lat="44.99647" lon="6.47119">
        <ele>1654.1</ele>
        <time>2022-01-14T08:12:20Z</time>
      </trkpt>
      <trkpt lat="44.99647" lon="6.47118">
        <ele>1654.1</ele>
        <time>2022-01-14T08:12:21Z</time>
      </trkpt>
      <trkpt lat="44.99647" lon="6.47118">
        <ele>1654.2</ele>
        <time>2022-01-14T08:12:22Z</time>
      </trkpt>
      <trkpt lat="44.99647" lon="6.47117">
        <ele>1654.2</ele>
        <time>2022-01-14T08:12:23Z</time>
      </trkpt>
      <trkpt lat="44.99647" lon="6.47115">
        <ele>1655.1</ele>
        <time>2022-01-14T08:12:24Z</time>
      </trkpt>
      <trkpt lat="44.99647" lon="6.47113">
        <ele>1655.1</ele>
        <time>2022-01-14T08:12:25Z</time>
      </trkpt>
      <trkpt lat="44.99647" lon="6.47111">
        <ele>1656.1</ele>
        <time>2022-01-14T08:12:26Z</time>
      </trkpt>
      <trkpt lat="44.99647" lon="6.47111">
        <ele>1656.1</ele>
        <time>2022-01-14T08:12:27Z</time>
      </trkpt>
      <trkpt lat="44.99646" lon="6.4711">
        <ele>1656.1</ele>
        <time>2022-01-14T08:12:28Z</time>
      </trkpt>
      <trkpt lat="44.99646" lon="6.47109">
        <ele>1656.1</ele>
        <time>2022-01-14T08:12:29Z</time>
      </trkpt>
      <trkpt lat="44.99647" lon="6.47108">
        <ele>1656.2</ele>
        <time>2022-01-14T08:12:30Z</time>
      </trkpt>
      <trkpt lat="44.99647" lon="6.47108">
        <ele>1656.2</ele>
        <time>2022-01-14T08:12:31Z</time>
      </trkpt>
      <trkpt lat="44.99647" lon="6.47108">
        <ele>1656.2</ele>
        <time>2022-01-14T08:12:32Z</time>
      </trkpt>
      <trkpt lat="44.99646" lon="6.47109">
        <ele>1656.3</ele>
        <time>2022-01-14T08:12:33Z</time>
      </trkpt>
      <trkpt lat="44.99646" lon="6.47109">
        <ele>1656.3</ele>
        <time>2022-01-14T08:12:34Z</time>
      </trkpt>
      <trkpt lat="44.99646" lon="6.47108">
        <ele>1656.2</ele>
        <time>2022-01-14T08:12:35Z</time>
      </trkpt>
      <trkpt lat="44.99646" lon="6.47108">
        <ele>1657.1</ele>
        <time>2022-01-14T08:12:36Z</time>
      </trkpt>
      <trkpt lat="44.99645" lon="6.47107">
        <ele>1657.2</ele>
        <time>2022-01-14T08:12:37Z</time>
      </trkpt>
      <trkpt lat="44.99645" lon="6.47106">
        <ele>1657.2</ele>
        <time>2022-01-14T08:12:38Z</time>
      </trkpt>
      <trkpt lat="44.99644" lon="6.47105">
        <ele>1657.2</ele>
        <time>2022-01-14T08:12:39Z</time>
      </trkpt>
      <trkpt lat="44.99644" lon="6.47106">
        <ele>1657.2</ele>
        <time>2022-01-14T08:12:40Z</time>
      </trkpt>
      <trkpt lat="44.99644" lon="6.47106">
        <ele>1657.2</ele>
        <time>2022-01-14T08:12:41Z</time>
      </trkpt>
      <trkpt lat="44.99643" lon="6.47105">
        <ele>1657.2</ele>
        <time>2022-01-14T08:12:42Z</time>
      </trkpt>
      <trkpt lat="44.99644" lon="6.47105">
        <ele>1657.2</ele>
        <time>2022-01-14T08:12:43Z</time>
      </trkpt>
      <trkpt lat="44.99644" lon="6.47104">
        <ele>1657.2</ele>
        <time>2022-01-14T08:12:44Z</time>
      </trkpt>
      <trkpt lat="44.99645" lon="6.47104">
        <ele>1657.2</ele>
        <time>2022-01-14T08:12:45Z</time>
      </trkpt>
      <trkpt lat="44.99644" lon="6.47105">
        <ele>1657.2</ele>
        <time>2022-01-14T08:12:46Z</time>
      </trkpt>
      <trkpt lat="44.99643" lon="6.47104">
        <ele>1657.2</ele>
        <time>2022-01-14T08:12:47Z</time>
      </trkpt>
      <trkpt lat="44.99643" lon="6.47103">
        <ele>1658.3</ele>
        <time>2022-01-14T08:12:48Z</time>
      </trkpt>
      <trkpt lat="44.99643" lon="6.47102">
        <ele>1658.3</ele>
        <time>2022-01-14T08:12:49Z</time>
      </trkpt>
      <trkpt lat="44.99643" lon="6.47101">
        <ele>1658.3</ele>
        <time>2022-01-14T08:12:50Z</time>
      </trkpt>
      <trkpt lat="44.99643" lon="6.47101">
        <ele>1658.3</ele>
        <time>2022-01-14T08:12:51Z</time>
      </trkpt>
      <trkpt lat="44.99642" lon="6.47101">
        <ele>1658.3</ele>
        <time>2022-01-14T08:12:52Z</time>
      </trkpt>
      <trkpt lat="44.99642" lon="6.47099">
        <ele>1659.5</ele>
        <time>2022-01-14T08:12:53Z</time>
      </trkpt>
      <trkpt lat="44.99641" lon="6.47099">
        <ele>1659.5</ele>
        <time>2022-01-14T08:12:54Z</time>
      </trkpt>
      <trkpt lat="44.9964" lon="6.47098">
        <ele>1659.5</ele>
        <time>2022-01-14T08:12:55Z</time>
      </trkpt>
      <trkpt lat="44.99639" lon="6.47098">
        <ele>1659.5</ele>
        <time>2022-01-14T08:12:56Z</time>
      </trkpt>
      <trkpt lat="44.99639" lon="6.47098">
        <ele>1659.5</ele>
        <time>2022-01-14T08:12:57Z</time>
      </trkpt>
      <trkpt lat="44.9964" lon="6.47098">
        <ele>1659.5</ele>
        <time>2022-01-14T08:12:58Z</time>
      </trkpt>
      <trkpt lat="44.9964" lon="6.47098">
        <ele>1659.5</ele>
        <time>2022-01-14T08:12:59Z</time>
      </trkpt>
      <trkpt lat="44.99639" lon="6.47097">
        <ele>1659.5</ele>
        <time>2022-01-14T08:13:00Z</time>
      </trkpt>
      <trkpt lat="44.99638" lon="6.47097">
        <ele>1659.5</ele>
        <time>2022-01-14T08:13:01Z</time>
      </trkpt>
      <trkpt lat="44.99637" lon="6.47097">
        <ele>1659.5</ele>
        <time>2022-01-14T08:13:02Z</time>
      </trkpt>
      <trkpt lat="44.99637" lon="6.47096">
        <ele>1659.5</ele>
        <time>2022-01-14T08:13:03Z</time>
      </trkpt>
      <trkpt lat="44.99637" lon="6.47096">
        <ele>1659.5</ele>
        <time>2022-01-14T08:13:04Z</time>
      </trkpt>
      <trkpt lat="44.99637" lon="6.47097">
        <ele>1659.5</ele>
        <time>2022-01-14T08:13:05Z</time>
      </trkpt>
      <trkpt lat="44.99637" lon="6.47096">
        <ele>1659.5</ele>
        <time>2022-01-14T08:13:06Z</time>
      </trkpt>
      <trkpt lat="44.99636" lon="6.47096">
        <ele>1659.5</ele>
        <time>2022-01-14T08:13:07Z</time>
      </trkpt>
      <trkpt lat="44.99636" lon="6.47095">
        <ele>1659.5</ele>
        <time>2022-01-14T08:13:08Z</time>
      </trkpt>
      <trkpt lat="44.99636" lon="6.47095">
        <ele>1661.5</ele>
        <time>2022-01-14T08:13:09Z</time>
      </trkpt>
      <trkpt lat="44.99635" lon="6.47094">
        <ele>1661.5</ele>
        <time>2022-01-14T08:13:10Z</time>
      </trkpt>
      <trkpt lat="44.99635" lon="6.47094">
        <ele>1661.5</ele>
        <time>2022-01-14T08:13:11Z</time>
      </trkpt>
      <trkpt lat="44.99636" lon="6.47093">
        <ele>1661.5</ele>
        <time>2022-01-14T08:13:12Z</time>
      </trkpt>
      <trkpt lat="44.99636" lon="6.47093">
        <ele>1661.5</ele>
        <time>2022-01-14T08:13:13Z</time>
      </trkpt>
      <trkpt lat="44.99636" lon="6.47092">
        <ele>1661.5</ele>
        <time>2022-01-14T08:13:14Z</time>
      </trkpt>
      <trkpt lat="44.99636" lon="6.47092">
        <ele>1661.5</ele>
        <time>2022-01-14T08:13:15Z</time>
      </trkpt>
      <trkpt lat="44.99635" lon="6.47091">
        <ele>1661.5</ele>
        <time>2022-01-14T08:13:16Z</time>
      </trkpt>
      <trkpt lat="44.99635" lon="6.4709">
        <ele>1662.7</ele>
        <time>2022-01-14T08:13:17Z</time>
      </trkpt>
      <trkpt lat="44.99635" lon="6.47089">
        <ele>1662.7</ele>
        <time>2022-01-14T08:13:18Z</time>
      </trkpt>
      <trkpt lat="44.99635" lon="6.47089">
        <ele>1662.7</ele>
        <time>2022-01-14T08:13:19Z</time>
      </trkpt>
      <trkpt lat="44.99635" lon="6.47088">
        <ele>1662.7</ele>
        <time>2022-01-14T08:13:20Z</time>
      </trkpt>
      <trkpt lat="44.99634" lon="6.47087">
        <ele>1662.7</ele>
        <time>2022-01-14T08:13:21Z</time>
      </trkpt>
      <trkpt lat="44.99634" lon="6.47087">
        <ele>1662.7</ele>
        <time>2022-01-14T08:13:22Z</time>
      </trkpt>
      <trkpt lat="44.99634" lon="6.47088">
        <ele>1662.7</ele>
        <time>2022-01-14T08:13:23Z</time>
      </trkpt>
      <trkpt lat="44.99634" lon="6.47087">
        <ele>1662.7</ele>
        <time>2022-01-14T08:13:24Z</time>
      </trkpt>
      <trkpt lat="44.99635" lon="6.47088">
        <ele>1662.7</ele>
        <time>2022-01-14T08:13:25Z</time>
      </trkpt>
      <trkpt lat="44.99636" lon="6.47088">
        <ele>1662.7</ele>
        <time>2022-01-14T08:13:26Z</time>
      </trkpt>
      <trkpt lat="44.99636" lon="6.47087">
        <ele>1662.7</ele>
        <time>2022-01-14T08:13:27Z</time>
      </trkpt>
      <trkpt lat="44.99636" lon="6.47085">
        <ele>1663.8</ele>
        <time>2022-01-14T08:13:28Z</time>
      </trkpt>
      <trkpt lat="44.99636" lon="6.47083">
        <ele>1663.8</ele>
        <time>2022-01-14T08:13:29Z</time>
      </trkpt>
      <trkpt lat="44.99636" lon="6.47081">
        <ele>1664.8</ele>
        <time>2022-01-14T08:13:30Z</time>
      </trkpt>
      <trkpt lat="44.99636" lon="6.4708">
        <ele>1664.8</ele>
        <time>2022-01-14T08:13:31Z</time>
      </trkpt>
      <trkpt lat="44.99637" lon="6.4708">
        <ele>1664.8</ele>
        <time>2022-01-14T08:13:32Z</time>
      </trkpt>
      <trkpt lat="44.99638" lon="6.4708">
        <ele>1664.8</ele>
        <time>2022-01-14T08:13:33Z</time>
      </trkpt>
      <trkpt lat="44.99639" lon="6.47078">
        <ele>1664.8</ele>
        <time>2022-01-14T08:13:34Z</time>
      </trkpt>
      <trkpt lat="44.99639" lon="6.47077">
        <ele>1665.8</ele>
        <time>2022-01-14T08:13:35Z</time>
      </trkpt>
      <trkpt lat="44.9964" lon="6.47077">
        <ele>1665.8</ele>
        <time>2022-01-14T08:13:36Z</time>
      </trkpt>
      <trkpt lat="44.9964" lon="6.47077">
        <ele>1665.8</ele>
        <time>2022-01-14T08:13:37Z</time>
      </trkpt>
      <trkpt lat="44.99641" lon="6.47077">
        <ele>1665.8</ele>
        <time>2022-01-14T08:13:38Z</time>
      </trkpt>
      <trkpt lat="44.99641" lon="6.47076">
        <ele>1665.8</ele>
        <time>2022-01-14T08:13:39Z</time>
      </trkpt>
      <trkpt lat="44.9964" lon="6.47075">
        <ele>1665.8</ele>
        <time>2022-01-14T08:13:40Z</time>
      </trkpt>
      <trkpt lat="44.99641" lon="6.47075">
        <ele>1665.8</ele>
        <time>2022-01-14T08:13:41Z</time>
      </trkpt>
      <trkpt lat="44.99641" lon="6.47075">
        <ele>1665.8</ele>
        <time>2022-01-14T08:13:42Z</time>
      </trkpt>
      <trkpt lat="44.99641" lon="6.47074">
        <ele>1665.8</ele>
        <time>2022-01-14T08:13:43Z</time>
      </trkpt>
      <trkpt lat="44.99641" lon="6.47073">
        <ele>1666.8</ele>
        <time>2022-01-14T08:13:44Z</time>
      </trkpt>
      <trkpt lat="44.99641" lon="6.47073">
        <ele>1666.8</ele>
        <time>2022-01-14T08:13:45Z</time>
      </trkpt>
      <trkpt lat="44.99641" lon="6.47072">
        <ele>1666.8</ele>
        <time>2022-01-14T08:13:46Z</time>
      </trkpt>
      <trkpt lat="44.99641" lon="6.47071">
        <ele>1666.8</ele>
        <time>2022-01-14T08:13:47Z</time>
      </trkpt>
      <trkpt lat="44.99642" lon="6.4707">
        <ele>1666.8</ele>
        <time>2022-01-14T08:13:48Z</time>
      </trkpt>
      <trkpt lat="44.99642" lon="6.47068">
        <ele>1667.8</ele>
        <time>2022-01-14T08:13:49Z</time>
      </trkpt>
      <trkpt lat="44.99643" lon="6.47067">
        <ele>1667.8</ele>
        <time>2022-01-14T08:13:50Z</time>
      </trkpt>
      <trkpt lat="44.99643" lon="6.47066">
        <ele>1667.8</ele>
        <time>2022-01-14T08:13:51Z</time>
      </trkpt>
      <trkpt lat="44.99643" lon="6.47065">
        <ele>1667.8</ele>
        <time>2022-01-14T08:13:52Z</time>
      </trkpt>
      <trkpt lat="44.99644" lon="6.47064">
        <ele>1668.8</ele>
        <time>2022-01-14T08:13:53Z</time>
      </trkpt>
      <trkpt lat="44.99644" lon="6.47062">
        <ele>1668.8</ele>
        <time>2022-01-14T08:13:54Z</time>
      </trkpt>
      <trkpt lat="44.99644" lon="6.47061">
        <ele>1668.8</ele>
        <time>2022-01-14T08:13:55Z</time>
      </trkpt>
      <trkpt lat="44.99644" lon="6.47061">
        <ele>1668.8</ele>
        <time>2022-01-14T08:13:56Z</time>
      </trkpt>
      <trkpt lat="44.99644" lon="6.47062">
        <ele>1668.8</ele>
        <time>2022-01-14T08:13:57Z</time>
      </trkpt>
      <trkpt lat="44.99643" lon="6.47061">
        <ele>1668.8</ele>
        <time>2022-01-14T08:13:58Z</time>
      </trkpt>
      <trkpt lat="44.99643" lon="6.47061">
        <ele>1668.8</ele>
        <time>2022-01-14T08:13:59Z</time>
      </trkpt>
      <trkpt lat="44.99642" lon="6.47061">
        <ele>1668.8</ele>
        <time>2022-01-14T08:14:00Z</time>
      </trkpt>
      <trkpt lat="44.99642" lon="6.4706">
        <ele>1669.8</ele>
        <time>2022-01-14T08:14:01Z</time>
      </trkpt>
      <trkpt lat="44.99642" lon="6.4706">
        <ele>1669.8</ele>
        <time>2022-01-14T08:14:02Z</time>
      </trkpt>
      <trkpt lat="44.99642" lon="6.4706">
        <ele>1669.8</ele>
        <time>2022-01-14T08:14:03Z</time>
      </trkpt>
      <trkpt lat="44.99642" lon="6.47059">
        <ele>1669.8</ele>
        <time>2022-01-14T08:14:04Z</time>
      </trkpt>
      <trkpt lat="44.99642" lon="6.47058">
        <ele>1669.8</ele>
        <time>2022-01-14T08:14:05Z</time>
      </trkpt>
      <trkpt lat="44.99642" lon="6.47057">
        <ele>1669.8</ele>
        <time>2022-01-14T08:14:06Z</time>
      </trkpt>
      <trkpt lat="44.99641" lon="6.47057">
        <ele>1669.8</ele>
        <time>2022-01-14T08:14:07Z</time>
      </trkpt>
      <trkpt lat="44.9964" lon="6.47056">
        <ele>1670.8</ele>
        <time>2022-01-14T08:14:08Z</time>
      </trkpt>
      <trkpt lat="44.99639" lon="6.47055">
        <ele>1670.8</ele>
        <time>2022-01-14T08:14:09Z</time>
      </trkpt>
      <trkpt lat="44.99638" lon="6.47056">
        <ele>1670.8</ele>
        <time>2022-01-14T08:14:10Z</time>
      </trkpt>
      <trkpt lat="44.99638" lon="6.47055">
        <ele>1670.8</ele>
        <time>2022-01-14T08:14:11Z</time>
      </trkpt>
      <trkpt lat="44.99637" lon="6.47054">
        <ele>1670.8</ele>
        <time>2022-01-14T08:14:12Z</time>
      </trkpt>
      <trkpt lat="44.99637" lon="6.47054">
        <ele>1670.8</ele>
        <time>2022-01-14T08:14:13Z</time>
      </trkpt>
      <trkpt lat="44.99636" lon="6.47054">
        <ele>1670.8</ele>
        <time>2022-01-14T08:14:14Z</time>
      </trkpt>
      <trkpt lat="44.99636" lon="6.47054">
        <ele>1670.8</ele>
        <time>2022-01-14T08:14:15Z</time>
      </trkpt>
      <trkpt lat="44.99635" lon="6.47054">
        <ele>1670.8</ele>
        <time>2022-01-14T08:14:16Z</time>
      </trkpt>
      <trkpt lat="44.99635" lon="6.47056">
        <ele>1670.8</ele>
        <time>2022-01-14T08:14:17Z</time>
      </trkpt>
      <trkpt lat="44.99635" lon="6.47055">
        <ele>1670.8</ele>
        <time>2022-01-14T08:14:18Z</time>
      </trkpt>
      <trkpt lat="44.99634" lon="6.47054">
        <ele>1670.8</ele>
        <time>2022-01-14T08:14:19Z</time>
      </trkpt>
      <trkpt lat="44.99633" lon="6.47054">
        <ele>1670.8</ele>
        <time>2022-01-14T08:14:20Z</time>
      </trkpt>
      <trkpt lat="44.99632" lon="6.47053">
        <ele>1670.8</ele>
        <time>2022-01-14T08:14:21Z</time>
      </trkpt>
      <trkpt lat="44.99632" lon="6.47053">
        <ele>1670.8</ele>
        <time>2022-01-14T08:14:22Z</time>
      </trkpt>
      <trkpt lat="44.99631" lon="6.47053">
        <ele>1670.8</ele>
        <time>2022-01-14T08:14:23Z</time>
      </trkpt>
      <trkpt lat="44.9963" lon="6.47053">
        <ele>1670.9</ele>
        <time>2022-01-14T08:14:24Z</time>
      </trkpt>
      <trkpt lat="44.99629" lon="6.47051">
        <ele>1672.1</ele>
        <time>2022-01-14T08:14:25Z</time>
      </trkpt>
      <trkpt lat="44.99629" lon="6.4705">
        <ele>1672.1</ele>
        <time>2022-01-14T08:14:26Z</time>
      </trkpt>
      <trkpt lat="44.99628" lon="6.4705">
        <ele>1672.1</ele>
        <time>2022-01-14T08:14:27Z</time>
      </trkpt>
      <trkpt lat="44.99628" lon="6.47049">
        <ele>1672.8</ele>
        <time>2022-01-14T08:14:28Z</time>
      </trkpt>
      <trkpt lat="44.99625" lon="6.47049">
        <ele>1672.8</ele>
        <time>2022-01-14T08:14:29Z</time>
      </trkpt>
      <trkpt lat="44.99625" lon="6.47049">
        <ele>1672.8</ele>
        <time>2022-01-14T08:14:30Z</time>
      </trkpt>
      <trkpt lat="44.99624" lon="6.47049">
        <ele>1673.5</ele>
        <time>2022-01-14T08:14:31Z</time>
      </trkpt>
      <trkpt lat="44.99623" lon="6.47049">
        <ele>1673.5</ele>
        <time>2022-01-14T08:14:32Z</time>
      </trkpt>
      <trkpt lat="44.99623" lon="6.47049">
        <ele>1673.5</ele>
        <time>2022-01-14T08:14:33Z</time>
      </trkpt>
      <trkpt lat="44.99622" lon="6.47049">
        <ele>1673.5</ele>
        <time>2022-01-14T08:14:34Z</time>
      </trkpt>
      <trkpt lat="44.99622" lon="6.47049">
        <ele>1674.2</ele>
        <time>2022-01-14T08:14:35Z</time>
      </trkpt>
      <trkpt lat="44.99621" lon="6.47049">
        <ele>1674.2</ele>
        <time>2022-01-14T08:14:36Z</time>
      </trkpt>
      <trkpt lat="44.9962" lon="6.47049">
        <ele>1674.2</ele>
        <time>2022-01-14T08:14:37Z</time>
      </trkpt>
      <trkpt lat="44.99619" lon="6.47049">
        <ele>1674.2</ele>
        <time>2022-01-14T08:14:38Z</time>
      </trkpt>
      <trkpt lat="44.99618" lon="6.47049">
        <ele>1675</ele>
        <time>2022-01-14T08:14:39Z</time>
      </trkpt>
      <trkpt lat="44.99617" lon="6.47049">
        <ele>1675</ele>
        <time>2022-01-14T08:14:40Z</time>
      </trkpt>
      <trkpt lat="44.99617" lon="6.4705">
        <ele>1675</ele>
        <time>2022-01-14T08:14:41Z</time>
      </trkpt>
      <trkpt lat="44.99616" lon="6.4705">
        <ele>1675</ele>
        <time>2022-01-14T08:14:42Z</time>
      </trkpt>
      <trkpt lat="44.99616" lon="6.47051">
        <ele>1675</ele>
        <time>2022-01-14T08:14:43Z</time>
      </trkpt>
      <trkpt lat="44.99615" lon="6.47051">
        <ele>1676</ele>
        <time>2022-01-14T08:14:44Z</time>
      </trkpt>
      <trkpt lat="44.99615" lon="6.47051">
        <ele>1676</ele>
        <time>2022-01-14T08:14:45Z</time>
      </trkpt>
      <trkpt lat="44.99614" lon="6.47051">
        <ele>1676</ele>
        <time>2022-01-14T08:14:46Z</time>
      </trkpt>
      <trkpt lat="44.99614" lon="6.47052">
        <ele>1676</ele>
        <time>2022-01-14T08:14:47Z</time>
      </trkpt>
      <trkpt lat="44.99614" lon="6.47051">
        <ele>1676</ele>
        <time>2022-01-14T08:14:48Z</time>
      </trkpt>
      <trkpt lat="44.99613" lon="6.47054">
        <ele>1674.9</ele>
        <time>2022-01-14T08:14:49Z</time>
      </trkpt>
      <trkpt lat="44.99612" lon="6.47055">
        <ele>1675.9</ele>
        <time>2022-01-14T08:14:50Z</time>
      </trkpt>
      <trkpt lat="44.99612" lon="6.47054">
        <ele>1675.9</ele>
        <time>2022-01-14T08:14:51Z</time>
      </trkpt>
      <trkpt lat="44.99612" lon="6.47054">
        <ele>1675.9</ele>
        <time>2022-01-14T08:14:52Z</time>
      </trkpt>
      <trkpt lat="44.99612" lon="6.47053">
        <ele>1675.9</ele>
        <time>2022-01-14T08:14:53Z</time>
      </trkpt>
      <trkpt lat="44.99612" lon="6.47052">
        <ele>1675.9</ele>
        <time>2022-01-14T08:14:54Z</time>
      </trkpt>
      <trkpt lat="44.99611" lon="6.47051">
        <ele>1677</ele>
        <time>2022-01-14T08:14:55Z</time>
      </trkpt>
      <trkpt lat="44.99611" lon="6.47051">
        <ele>1677</ele>
        <time>2022-01-14T08:14:56Z</time>
      </trkpt>
      <trkpt lat="44.99611" lon="6.4705">
        <ele>1677</ele>
        <time>2022-01-14T08:14:57Z</time>
      </trkpt>
      <trkpt lat="44.99611" lon="6.47049">
        <ele>1677</ele>
        <time>2022-01-14T08:14:58Z</time>
      </trkpt>
      <trkpt lat="44.9961" lon="6.47048">
        <ele>1677</ele>
        <time>2022-01-14T08:14:59Z</time>
      </trkpt>
      <trkpt lat="44.99609" lon="6.47048">
        <ele>1678</ele>
        <time>2022-01-14T08:15:00Z</time>
      </trkpt>
      <trkpt lat="44.99609" lon="6.47047">
        <ele>1679</ele>
        <time>2022-01-14T08:15:01Z</time>
      </trkpt>
      <trkpt lat="44.99608" lon="6.47047">
        <ele>1679</ele>
        <time>2022-01-14T08:15:02Z</time>
      </trkpt>
      <trkpt lat="44.99607" lon="6.47048">
        <ele>1678</ele>
        <time>2022-01-14T08:15:03Z</time>
      </trkpt>
      <trkpt lat="44.99606" lon="6.47048">
        <ele>1679.1</ele>
        <time>2022-01-14T08:15:04Z</time>
      </trkpt>
      <trkpt lat="44.99605" lon="6.4705">
        <ele>1679.1</ele>
        <time>2022-01-14T08:15:05Z</time>
      </trkpt>
      <trkpt lat="44.99604" lon="6.4705">
        <ele>1679.1</ele>
        <time>2022-01-14T08:15:06Z</time>
      </trkpt>
      <trkpt lat="44.99604" lon="6.47051">
        <ele>1679.1</ele>
        <time>2022-01-14T08:15:07Z</time>
      </trkpt>
      <trkpt lat="44.99604" lon="6.4705">
        <ele>1679.1</ele>
        <time>2022-01-14T08:15:08Z</time>
      </trkpt>
      <trkpt lat="44.99604" lon="6.47051">
        <ele>1679.1</ele>
        <time>2022-01-14T08:15:09Z</time>
      </trkpt>
      <trkpt lat="44.99604" lon="6.47051">
        <ele>1679.1</ele>
        <time>2022-01-14T08:15:10Z</time>
      </trkpt>
      <trkpt lat="44.99604" lon="6.47051">
        <ele>1679.1</ele>
        <time>2022-01-14T08:15:11Z</time>
      </trkpt>
      <trkpt lat="44.99603" lon="6.4705">
        <ele>1680.3</ele>
        <time>2022-01-14T08:15:12Z</time>
      </trkpt>
      <trkpt lat="44.99603" lon="6.4705">
        <ele>1680.3</ele>
        <time>2022-01-14T08:15:13Z</time>
      </trkpt>
      <trkpt lat="44.99603" lon="6.4705">
        <ele>1680.3</ele>
        <time>2022-01-14T08:15:14Z</time>
      </trkpt>
      <trkpt lat="44.99603" lon="6.47049">
        <ele>1680.3</ele>
        <time>2022-01-14T08:15:15Z</time>
      </trkpt>
      <trkpt lat="44.99603" lon="6.47049">
        <ele>1680.3</ele>
        <time>2022-01-14T08:15:16Z</time>
      </trkpt>
      <trkpt lat="44.99603" lon="6.47048">
        <ele>1680.3</ele>
        <time>2022-01-14T08:15:17Z</time>
      </trkpt>
      <trkpt lat="44.99603" lon="6.47048">
        <ele>1680.3</ele>
        <time>2022-01-14T08:15:18Z</time>
      </trkpt>
      <trkpt lat="44.99603" lon="6.47047">
        <ele>1681.4</ele>
        <time>2022-01-14T08:15:19Z</time>
      </trkpt>
      <trkpt lat="44.99602" lon="6.47046">
        <ele>1681.4</ele>
        <time>2022-01-14T08:15:20Z</time>
      </trkpt>
      <trkpt lat="44.99602" lon="6.47046">
        <ele>1681.4</ele>
        <time>2022-01-14T08:15:21Z</time>
      </trkpt>
      <trkpt lat="44.99602" lon="6.47046">
        <ele>1681.4</ele>
        <time>2022-01-14T08:15:22Z</time>
      </trkpt>
      <trkpt lat="44.99601" lon="6.47047">
        <ele>1681.4</ele>
        <time>2022-01-14T08:15:23Z</time>
      </trkpt>
      <trkpt lat="44.99601" lon="6.47047">
        <ele>1681.4</ele>
        <time>2022-01-14T08:15:24Z</time>
      </trkpt>
      <trkpt lat="44.99601" lon="6.47048">
        <ele>1680.3</ele>
        <time>2022-01-14T08:15:25Z</time>
      </trkpt>
      <trkpt lat="44.99601" lon="6.47048">
        <ele>1680.3</ele>
        <time>2022-01-14T08:15:26Z</time>
      </trkpt>
      <trkpt lat="44.99601" lon="6.47048">
        <ele>1680.3</ele>
        <time>2022-01-14T08:15:27Z</time>
      </trkpt>
      <trkpt lat="44.996" lon="6.47048">
        <ele>1681.6</ele>
        <time>2022-01-14T08:15:28Z</time>
      </trkpt>
      <trkpt lat="44.99601" lon="6.47048">
        <ele>1680.3</ele>
        <time>2022-01-14T08:15:29Z</time>
      </trkpt>
      <trkpt lat="44.996" lon="6.47048">
        <ele>1681.6</ele>
        <time>2022-01-14T08:15:30Z</time>
      </trkpt>
      <trkpt lat="44.99601" lon="6.47048">
        <ele>1680.3</ele>
        <time>2022-01-14T08:15:31Z</time>
      </trkpt>
      <trkpt lat="44.99601" lon="6.47047">
        <ele>1681.4</ele>
        <time>2022-01-14T08:15:32Z</time>
      </trkpt>
      <trkpt lat="44.996" lon="6.47048">
        <ele>1681.6</ele>
        <time>2022-01-14T08:15:33Z</time>
      </trkpt>
      <trkpt lat="44.996" lon="6.47048">
        <ele>1681.6</ele>
        <time>2022-01-14T08:15:34Z</time>
      </trkpt>
      <trkpt lat="44.996" lon="6.47047">
        <ele>1682.8</ele>
        <time>2022-01-14T08:15:35Z</time>
      </trkpt>
      <trkpt lat="44.996" lon="6.47047">
        <ele>1682.8</ele>
        <time>2022-01-14T08:15:36Z</time>
      </trkpt>
      <trkpt lat="44.99599" lon="6.47048">
        <ele>1681.6</ele>
        <time>2022-01-14T08:15:37Z</time>
      </trkpt>
      <trkpt lat="44.99599" lon="6.47048">
        <ele>1681.6</ele>
        <time>2022-01-14T08:15:38Z</time>
      </trkpt>
      <trkpt lat="44.99598" lon="6.47046">
        <ele>1682.8</ele>
        <time>2022-01-14T08:15:39Z</time>
      </trkpt>
      <trkpt lat="44.99597" lon="6.47045">
        <ele>1684.1</ele>
        <time>2022-01-14T08:15:40Z</time>
      </trkpt>
      <trkpt lat="44.99597" lon="6.47045">
        <ele>1684.1</ele>
        <time>2022-01-14T08:15:41Z</time>
      </trkpt>
      <trkpt lat="44.99597" lon="6.47044">
        <ele>1684.1</ele>
        <time>2022-01-14T08:15:42Z</time>
      </trkpt>
      <trkpt lat="44.99597" lon="6.47043">
        <ele>1685.3</ele>
        <time>2022-01-14T08:15:43Z</time>
      </trkpt>
      <trkpt lat="44.99597" lon="6.47042">
        <ele>1685.3</ele>
        <time>2022-01-14T08:15:44Z</time>
      </trkpt>
      <trkpt lat="44.99596" lon="6.47042">
        <ele>1685.3</ele>
        <time>2022-01-14T08:15:45Z</time>
      </trkpt>
      <trkpt lat="44.99595" lon="6.47042">
        <ele>1685.3</ele>
        <time>2022-01-14T08:15:46Z</time>
      </trkpt>
      <trkpt lat="44.99595" lon="6.4704">
        <ele>1685.3</ele>
        <time>2022-01-14T08:15:47Z</time>
      </trkpt>
      <trkpt lat="44.99594" lon="6.47039">
        <ele>1686.7</ele>
        <time>2022-01-14T08:15:48Z</time>
      </trkpt>
      <trkpt lat="44.99594" lon="6.47038">
        <ele>1688</ele>
        <time>2022-01-14T08:15:49Z</time>
      </trkpt>
      <trkpt lat="44.99593" lon="6.47038">
        <ele>1688</ele>
        <time>2022-01-14T08:15:50Z</time>
      </trkpt>
      <trkpt lat="44.99592" lon="6.47038">
        <ele>1688</ele>
        <time>2022-01-14T08:15:51Z</time>
      </trkpt>
      <trkpt lat="44.99591" lon="6.47037">
        <ele>1688</ele>
        <time>2022-01-14T08:15:52Z</time>
      </trkpt>
      <trkpt lat="44.9959" lon="6.47035">
        <ele>1689.2</ele>
        <time>2022-01-14T08:15:53Z</time>
      </trkpt>
      <trkpt lat="44.9959" lon="6.47035">
        <ele>1689.2</ele>
        <time>2022-01-14T08:15:54Z</time>
      </trkpt>
      <trkpt lat="44.9959" lon="6.47034">
        <ele>1689.9</ele>
        <time>2022-01-14T08:15:55Z</time>
      </trkpt>
      <trkpt lat="44.99589" lon="6.47034">
        <ele>1689.9</ele>
        <time>2022-01-14T08:15:56Z</time>
      </trkpt>
      <trkpt lat="44.99588" lon="6.47034">
        <ele>1689.9</ele>
        <time>2022-01-14T08:15:57Z</time>
      </trkpt>
      <trkpt lat="44.99588" lon="6.47034">
        <ele>1690.3</ele>
        <time>2022-01-14T08:15:58Z</time>
      </trkpt>
      <trkpt lat="44.99587" lon="6.47034">
        <ele>1690.3</ele>
        <time>2022-01-14T08:15:59Z</time>
      </trkpt>
      <trkpt lat="44.99587" lon="6.47035">
        <ele>1690.3</ele>
        <time>2022-01-14T08:16:00Z</time>
      </trkpt>
      <trkpt lat="44.99586" lon="6.47035">
        <ele>1690.5</ele>
        <time>2022-01-14T08:16:01Z</time>
      </trkpt>
      <trkpt lat="44.99585" lon="6.47035">
        <ele>1690.5</ele>
        <time>2022-01-14T08:16:02Z</time>
      </trkpt>
      <trkpt lat="44.99584" lon="6.47034">
        <ele>1690.9</ele>
        <time>2022-01-14T08:16:03Z</time>
      </trkpt>
      <trkpt lat="44.99583" lon="6.47034">
        <ele>1691.3</ele>
        <time>2022-01-14T08:16:04Z</time>
      </trkpt>
      <trkpt lat="44.99583" lon="6.47034">
        <ele>1691.7</ele>
        <time>2022-01-14T08:16:05Z</time>
      </trkpt>
      <trkpt lat="44.99582" lon="6.47033">
        <ele>1691.7</ele>
        <time>2022-01-14T08:16:06Z</time>
      </trkpt>
      <trkpt lat="44.99582" lon="6.47032">
        <ele>1691.9</ele>
        <time>2022-01-14T08:16:07Z</time>
      </trkpt>
      <trkpt lat="44.99582" lon="6.47033">
        <ele>1692.1</ele>
        <time>2022-01-14T08:16:08Z</time>
      </trkpt>
      <trkpt lat="44.99581" lon="6.47032">
        <ele>1692.1</ele>
        <time>2022-01-14T08:16:09Z</time>
      </trkpt>
      <trkpt lat="44.99581" lon="6.47032">
        <ele>1692.3</ele>
        <time>2022-01-14T08:16:10Z</time>
      </trkpt>
      <trkpt lat="44.99581" lon="6.4703">
        <ele>1692.3</ele>
        <time>2022-01-14T08:16:11Z</time>
      </trkpt>
      <trkpt lat="44.9958" lon="6.47029">
        <ele>1692.9</ele>
        <time>2022-01-14T08:16:12Z</time>
      </trkpt>
      <trkpt lat="44.9958" lon="6.47029">
        <ele>1693.3</ele>
        <time>2022-01-14T08:16:13Z</time>
      </trkpt>
      <trkpt lat="44.9958" lon="6.47028">
        <ele>1693.3</ele>
        <time>2022-01-14T08:16:14Z</time>
      </trkpt>
      <trkpt lat="44.99579" lon="6.47028">
        <ele>1693.5</ele>
        <time>2022-01-14T08:16:15Z</time>
      </trkpt>
      <trkpt lat="44.99578" lon="6.47029">
        <ele>1693.5</ele>
        <time>2022-01-14T08:16:16Z</time>
      </trkpt>
      <trkpt lat="44.99577" lon="6.47028">
        <ele>1693.3</ele>
        <time>2022-01-14T08:16:17Z</time>
      </trkpt>
      <trkpt lat="44.99577" lon="6.47027">
        <ele>1693.5</ele>
        <time>2022-01-14T08:16:18Z</time>
      </trkpt>
      <trkpt lat="44.99576" lon="6.47026">
        <ele>1694.1</ele>
        <time>2022-01-14T08:16:19Z</time>
      </trkpt>
      <trkpt lat="44.99576" lon="6.47026">
        <ele>1694.3</ele>
        <time>2022-01-14T08:16:20Z</time>
      </trkpt>
      <trkpt lat="44.99576" lon="6.47026">
        <ele>1694.1</ele>
        <time>2022-01-14T08:16:21Z</time>
      </trkpt>
      <trkpt lat="44.99576" lon="6.47025">
        <ele>1694.3</ele>
        <time>2022-01-14T08:16:22Z</time>
      </trkpt>
      <trkpt lat="44.99576" lon="6.47025">
        <ele>1694.5</ele>
        <time>2022-01-14T08:16:23Z</time>
      </trkpt>
      <trkpt lat="44.99577" lon="6.47024">
        <ele>1694.5</ele>
        <time>2022-01-14T08:16:24Z</time>
      </trkpt>
      <trkpt lat="44.99577" lon="6.47024">
        <ele>1694.5</ele>
        <time>2022-01-14T08:16:25Z</time>
      </trkpt>
      <trkpt lat="44.99577" lon="6.47023">
        <ele>1694.3</ele>
        <time>2022-01-14T08:16:26Z</time>
      </trkpt>
      <trkpt lat="44.99577" lon="6.47023">
        <ele>1694.7</ele>
        <time>2022-01-14T08:16:27Z</time>
      </trkpt>
      <trkpt lat="44.99577" lon="6.47023">
        <ele>1694.5</ele>
        <time>2022-01-14T08:16:28Z</time>
      </trkpt>
      <trkpt lat="44.99577" lon="6.47022">
        <ele>1695.1</ele>
        <time>2022-01-14T08:16:29Z</time>
      </trkpt>
      <trkpt lat="44.99577" lon="6.47022">
        <ele>1695.3</ele>
        <time>2022-01-14T08:16:30Z</time>
      </trkpt>
      <trkpt lat="44.99577" lon="6.47021">
        <ele>1695.5</ele>
        <time>2022-01-14T08:16:31Z</time>
      </trkpt>
      <trkpt lat="44.99577" lon="6.47021">
        <ele>1695.5</ele>
        <time>2022-01-14T08:16:32Z</time>
      </trkpt>
      <trkpt lat="44.99577" lon="6.4702">
        <ele>1696.1</ele>
        <time>2022-01-14T08:16:33Z</time>
      </trkpt>
      <trkpt lat="44.99577" lon="6.47019">
        <ele>1696.3</ele>
        <time>2022-01-14T08:16:34Z</time>
      </trkpt>
      <trkpt lat="44.99577" lon="6.47018">
        <ele>1696.7</ele>
        <time>2022-01-14T08:16:35Z</time>
      </trkpt>
      <trkpt lat="44.99576" lon="6.47016">
        <ele>1697.1</ele>
        <time>2022-01-14T08:16:36Z</time>
      </trkpt>
      <trkpt lat="44.99576" lon="6.47015">
        <ele>1697.7</ele>
        <time>2022-01-14T08:16:37Z</time>
      </trkpt>
      <trkpt lat="44.99576" lon="6.47016">
        <ele>1697.9</ele>
        <time>2022-01-14T08:16:38Z</time>
      </trkpt>
      <trkpt lat="44.99577" lon="6.47016">
        <ele>1697.7</ele>
        <time>2022-01-14T08:16:39Z</time>
      </trkpt>
      <trkpt lat="44.99577" lon="6.47015">
        <ele>1697.7</ele>
        <time>2022-01-14T08:16:40Z</time>
      </trkpt>
      <trkpt lat="44.99577" lon="6.47015">
        <ele>1698.1</ele>
        <time>2022-01-14T08:16:41Z</time>
      </trkpt>
      <trkpt lat="44.99576" lon="6.47015">
        <ele>1698.1</ele>
        <time>2022-01-14T08:16:42Z</time>
      </trkpt>
      <trkpt lat="44.99575" lon="6.47015">
        <ele>1697.9</ele>
        <time>2022-01-14T08:16:43Z</time>
      </trkpt>
      <trkpt lat="44.99575" lon="6.47014">
        <ele>1698.1</ele>
        <time>2022-01-14T08:16:44Z</time>
      </trkpt>
      <trkpt lat="44.99576" lon="6.47014">
        <ele>1698.3</ele>
        <time>2022-01-14T08:16:45Z</time>
      </trkpt>
      <trkpt lat="44.99577" lon="6.47014">
        <ele>1698.3</ele>
        <time>2022-01-14T08:16:46Z</time>
      </trkpt>
      <trkpt lat="44.99577" lon="6.47013">
        <ele>1698.5</ele>
        <time>2022-01-14T08:16:47Z</time>
      </trkpt>
      <trkpt lat="44.99576" lon="6.47013">
        <ele>1698.7</ele>
        <time>2022-01-14T08:16:48Z</time>
      </trkpt>
      <trkpt lat="44.99576" lon="6.47012">
        <ele>1698.9</ele>
        <time>2022-01-14T08:16:49Z</time>
      </trkpt>
      <trkpt lat="44.99576" lon="6.47012">
        <ele>1699.1</ele>
        <time>2022-01-14T08:16:50Z</time>
      </trkpt>
      <trkpt lat="44.99576" lon="6.47009">
        <ele>1699.3</ele>
        <time>2022-01-14T08:16:51Z</time>
      </trkpt>
      <trkpt lat="44.99576" lon="6.47008">
        <ele>1699.5</ele>
        <time>2022-01-14T08:16:52Z</time>
      </trkpt>
      <trkpt lat="44.99576" lon="6.47007">
        <ele>1700.3</ele>
        <time>2022-01-14T08:16:53Z</time>
      </trkpt>
      <trkpt lat="44.99576" lon="6.47006">
        <ele>1700.9</ele>
        <time>2022-01-14T08:16:54Z</time>
      </trkpt>
      <trkpt lat="44.99576" lon="6.47006">
        <ele>1701.1</ele>
        <time>2022-01-14T08:16:55Z</time>
      </trkpt>
      <trkpt lat="44.99576" lon="6.47006">
        <ele>1701.3</ele>
        <time>2022-01-14T08:16:56Z</time>
      </trkpt>
      <trkpt lat="44.99575" lon="6.47005">
        <ele>1701.3</ele>
        <time>2022-01-14T08:16:57Z</time>
      </trkpt>
      <trkpt lat="44.99575" lon="6.47004">
        <ele>1701.5</ele>
        <time>2022-01-14T08:16:58Z</time>
      </trkpt>
      <trkpt lat="44.99575" lon="6.47002">
        <ele>1702.1</ele>
        <time>2022-01-14T08:16:59Z</time>
      </trkpt>
      <trkpt lat="44.99575" lon="6.47001">
        <ele>1702.5</ele>
        <time>2022-01-14T08:17:00Z</time>
      </trkpt>
      <trkpt lat="44.99575" lon="6.47">
        <ele>1702.7</ele>
        <time>2022-01-14T08:17:01Z</time>
      </trkpt>
      <trkpt lat="44.99575" lon="6.46999">
        <ele>1703.3</ele>
        <time>2022-01-14T08:17:02Z</time>
      </trkpt>
      <trkpt lat="44.99576" lon="6.46998">
        <ele>1703.3</ele>
        <time>2022-01-14T08:17:03Z</time>
      </trkpt>
      <trkpt lat="44.99576" lon="6.46998">
        <ele>1703.5</ele>
        <time>2022-01-14T08:17:04Z</time>
      </trkpt>
      <trkpt lat="44.99577" lon="6.46997">
        <ele>1703.5</ele>
        <time>2022-01-14T08:17:05Z</time>
      </trkpt>
      <trkpt lat="44.99577" lon="6.46996">
        <ele>1703.5</ele>
        <time>2022-01-14T08:17:07Z</time>
      </trkpt>
      <trkpt lat="44.99577" lon="6.46996">
        <ele>1703.5</ele>
        <time>2022-01-14T08:17:08Z</time>
      </trkpt>
      <trkpt lat="44.99577" lon="6.46996">
        <ele>1703.7</ele>
        <time>2022-01-14T08:17:09Z</time>
      </trkpt>
      <trkpt lat="44.99577" lon="6.46996">
        <ele>1703.7</ele>
        <time>2022-01-14T08:17:10Z</time>
      </trkpt>
      <trkpt lat="44.99577" lon="6.46995">
        <ele>1703.7</ele>
        <time>2022-01-14T08:17:11Z</time>
      </trkpt>
      <trkpt lat="44.99577" lon="6.46994">
        <ele>1703.7</ele>
        <time>2022-01-14T08:17:12Z</time>
      </trkpt>
      <trkpt lat="44.99576" lon="6.46993">
        <ele>1703.7</ele>
        <time>2022-01-14T08:17:13Z</time>
      </trkpt>
      <trkpt lat="44.99576" lon="6.46992">
        <ele>1703.9</ele>
        <time>2022-01-14T08:17:14Z</time>
      </trkpt>
      <trkpt lat="44.99575" lon="6.46991">
        <ele>1704.1</ele>
        <time>2022-01-14T08:17:15Z</time>
      </trkpt>
      <trkpt lat="44.99575" lon="6.4699">
        <ele>1704.1</ele>
        <time>2022-01-14T08:17:16Z</time>
      </trkpt>
      <trkpt lat="44.99574" lon="6.46989">
        <ele>1704.3</ele>
        <time>2022-01-14T08:17:17Z</time>
      </trkpt>
      <trkpt lat="44.99573" lon="6.46988">
        <ele>1704.5</ele>
        <time>2022-01-14T08:17:18Z</time>
      </trkpt>
      <trkpt lat="44.99573" lon="6.46987">
        <ele>1704.7</ele>
        <time>2022-01-14T08:17:19Z</time>
      </trkpt>
      <trkpt lat="44.99573" lon="6.46987">
        <ele>1704.9</ele>
        <time>2022-01-14T08:17:20Z</time>
      </trkpt>
      <trkpt lat="44.99573" lon="6.46986">
        <ele>1705.1</ele>
        <time>2022-01-14T08:17:21Z</time>
      </trkpt>
      <trkpt lat="44.99572" lon="6.46985">
        <ele>1705.1</ele>
        <time>2022-01-14T08:17:22Z</time>
      </trkpt>
      <trkpt lat="44.99571" lon="6.46983">
        <ele>1705.5</ele>
        <time>2022-01-14T08:17:23Z</time>
      </trkpt>
      <trkpt lat="44.99571" lon="6.46982">
        <ele>1705.9</ele>
        <time>2022-01-14T08:17:24Z</time>
      </trkpt>
      <trkpt lat="44.99571" lon="6.46981">
        <ele>1706.1</ele>
        <time>2022-01-14T08:17:25Z</time>
      </trkpt>
      <trkpt lat="44.99571" lon="6.46981">
        <ele>1706.3</ele>
        <time>2022-01-14T08:17:26Z</time>
      </trkpt>
      <trkpt lat="44.9957" lon="6.46981">
        <ele>1706.3</ele>
        <time>2022-01-14T08:17:27Z</time>
      </trkpt>
      <trkpt lat="44.9957" lon="6.4698">
        <ele>1706.3</ele>
        <time>2022-01-14T08:17:28Z</time>
      </trkpt>
      <trkpt lat="44.99569" lon="6.4698">
        <ele>1706.5</ele>
        <time>2022-01-14T08:17:29Z</time>
      </trkpt>
      <trkpt lat="44.99568" lon="6.4698">
        <ele>1706.9</ele>
        <time>2022-01-14T08:17:30Z</time>
      </trkpt>
      <trkpt lat="44.99568" lon="6.4698">
        <ele>1707.1</ele>
        <time>2022-01-14T08:17:31Z</time>
      </trkpt>
      <trkpt lat="44.99567" lon="6.46979">
        <ele>1707.3</ele>
        <time>2022-01-14T08:17:32Z</time>
      </trkpt>
      <trkpt lat="44.99567" lon="6.46979">
        <ele>1707.5</ele>
        <time>2022-01-14T08:17:33Z</time>
      </trkpt>
      <trkpt lat="44.99567" lon="6.46978">
        <ele>1707.5</ele>
        <time>2022-01-14T08:17:34Z</time>
      </trkpt>
      <trkpt lat="44.99567" lon="6.46976">
        <ele>1707.9</ele>
        <time>2022-01-14T08:17:35Z</time>
      </trkpt>
      <trkpt lat="44.99567" lon="6.46975">
        <ele>1708.3</ele>
        <time>2022-01-14T08:17:36Z</time>
      </trkpt>
      <trkpt lat="44.99568" lon="6.46973">
        <ele>1708.3</ele>
        <time>2022-01-14T08:17:37Z</time>
      </trkpt>
      <trkpt lat="44.99568" lon="6.46972">
        <ele>1708.5</ele>
        <time>2022-01-14T08:17:38Z</time>
      </trkpt>
      <trkpt lat="44.99567" lon="6.46971">
        <ele>1708.7</ele>
        <time>2022-01-14T08:17:39Z</time>
      </trkpt>
      <trkpt lat="44.99568" lon="6.4697">
        <ele>1708.9</ele>
        <time>2022-01-14T08:17:40Z</time>
      </trkpt>
      <trkpt lat="44.99568" lon="6.46969">
        <ele>1708.9</ele>
        <time>2022-01-14T08:17:41Z</time>
      </trkpt>
      <trkpt lat="44.99568" lon="6.4697">
        <ele>1708.9</ele>
        <time>2022-01-14T08:17:42Z</time>
      </trkpt>
      <trkpt lat="44.99568" lon="6.4697">
        <ele>1708.9</ele>
        <time>2022-01-14T08:17:43Z</time>
      </trkpt>
      <trkpt lat="44.99568" lon="6.46969">
        <ele>1708.9</ele>
        <time>2022-01-14T08:17:44Z</time>
      </trkpt>
      <trkpt lat="44.99567" lon="6.46969">
        <ele>1709.1</ele>
        <time>2022-01-14T08:17:45Z</time>
      </trkpt>
      <trkpt lat="44.99566" lon="6.46969">
        <ele>1709.5</ele>
        <time>2022-01-14T08:17:46Z</time>
      </trkpt>
      <trkpt lat="44.99566" lon="6.4697">
        <ele>1709.7</ele>
        <time>2022-01-14T08:17:47Z</time>
      </trkpt>
      <trkpt lat="44.99566" lon="6.4697">
        <ele>1709.7</ele>
        <time>2022-01-14T08:17:48Z</time>
      </trkpt>
      <trkpt lat="44.99566" lon="6.46969">
        <ele>1709.7</ele>
        <time>2022-01-14T08:17:49Z</time>
      </trkpt>
      <trkpt lat="44.99566" lon="6.46969">
        <ele>1709.7</ele>
        <time>2022-01-14T08:17:50Z</time>
      </trkpt>
      <trkpt lat="44.99565" lon="6.46969">
        <ele>1709.9</ele>
        <time>2022-01-14T08:17:51Z</time>
      </trkpt>
      <trkpt lat="44.99565" lon="6.46968">
        <ele>1709.9</ele>
        <time>2022-01-14T08:17:52Z</time>
      </trkpt>
      <trkpt lat="44.99565" lon="6.46967">
        <ele>1710.1</ele>
        <time>2022-01-14T08:17:53Z</time>
      </trkpt>
      <trkpt lat="44.99565" lon="6.46967">
        <ele>1710.1</ele>
        <time>2022-01-14T08:17:54Z</time>
      </trkpt>
      <trkpt lat="44.99564" lon="6.46966">
        <ele>1710.3</ele>
        <time>2022-01-14T08:17:55Z</time>
      </trkpt>
      <trkpt lat="44.99562" lon="6.46966">
        <ele>1710.5</ele>
        <time>2022-01-14T08:17:56Z</time>
      </trkpt>
      <trkpt lat="44.99561" lon="6.46966">
        <ele>1710.7</ele>
        <time>2022-01-14T08:17:57Z</time>
      </trkpt>
      <trkpt lat="44.9956" lon="6.46965">
        <ele>1711.3</ele>
        <time>2022-01-14T08:17:58Z</time>
      </trkpt>
      <trkpt lat="44.99559" lon="6.46966">
        <ele>1711.5</ele>
        <time>2022-01-14T08:17:59Z</time>
      </trkpt>
      <trkpt lat="44.99558" lon="6.46966">
        <ele>1711.9</ele>
        <time>2022-01-14T08:18:00Z</time>
      </trkpt>
      <trkpt lat="44.99557" lon="6.46966">
        <ele>1712.3</ele>
        <time>2022-01-14T08:18:01Z</time>
      </trkpt>
      <trkpt lat="44.99556" lon="6.46967">
        <ele>1712.5</ele>
        <time>2022-01-14T08:18:02Z</time>
      </trkpt>
      <trkpt lat="44.99555" lon="6.46967">
        <ele>1712.7</ele>
        <time>2022-01-14T08:18:03Z</time>
      </trkpt>
      <trkpt lat="44.99555" lon="6.46967">
        <ele>1712.9</ele>
        <time>2022-01-14T08:18:04Z</time>
      </trkpt>
      <trkpt lat="44.99554" lon="6.46968">
        <ele>1712.9</ele>
        <time>2022-01-14T08:18:05Z</time>
      </trkpt>
      <trkpt lat="44.99553" lon="6.46968">
        <ele>1712.9</ele>
        <time>2022-01-14T08:18:06Z</time>
      </trkpt>
      <trkpt lat="44.99553" lon="6.46969">
        <ele>1712.9</ele>
        <time>2022-01-14T08:18:07Z</time>
      </trkpt>
      <trkpt lat="44.99552" lon="6.46969">
        <ele>1712.9</ele>
        <time>2022-01-14T08:18:08Z</time>
      </trkpt>
      <trkpt lat="44.99552" lon="6.46969">
        <ele>1712.9</ele>
        <time>2022-01-14T08:18:09Z</time>
      </trkpt>
      <trkpt lat="44.99552" lon="6.4697">
        <ele>1712.9</ele>
        <time>2022-01-14T08:18:10Z</time>
      </trkpt>
      <trkpt lat="44.99552" lon="6.4697">
        <ele>1712.9</ele>
        <time>2022-01-14T08:18:11Z</time>
      </trkpt>
      <trkpt lat="44.99551" lon="6.46969">
        <ele>1712.9</ele>
        <time>2022-01-14T08:18:12Z</time>
      </trkpt>
      <trkpt lat="44.9955" lon="6.46969">
        <ele>1712.9</ele>
        <time>2022-01-14T08:18:13Z</time>
      </trkpt>
      <trkpt lat="44.9955" lon="6.46967">
        <ele>1712.9</ele>
        <time>2022-01-14T08:18:14Z</time>
      </trkpt>
      <trkpt lat="44.9955" lon="6.46966">
        <ele>1712.9</ele>
        <time>2022-01-14T08:18:15Z</time>
      </trkpt>
      <trkpt lat="44.9955" lon="6.46962">
        <ele>1712.9</ele>
        <time>2022-01-14T08:18:16Z</time>
      </trkpt>
      <trkpt lat="44.9955" lon="6.4696">
        <ele>1712.9</ele>
        <time>2022-01-14T08:18:17Z</time>
      </trkpt>
      <trkpt lat="44.9955" lon="6.46958">
        <ele>1712.9</ele>
        <time>2022-01-14T08:18:18Z</time>
      </trkpt>
      <trkpt lat="44.99551" lon="6.46957">
        <ele>1712.9</ele>
        <time>2022-01-14T08:18:19Z</time>
      </trkpt>
      <trkpt lat="44.99552" lon="6.46956">
        <ele>1712.9</ele>
        <time>2022-01-14T08:18:20Z</time>
      </trkpt>
      <trkpt lat="44.99553" lon="6.46956">
        <ele>1712.9</ele>
        <time>2022-01-14T08:18:21Z</time>
      </trkpt>
      <trkpt lat="44.99554" lon="6.46955">
        <ele>1712.9</ele>
        <time>2022-01-14T08:18:22Z</time>
      </trkpt>
      <trkpt lat="44.99555" lon="6.46955">
        <ele>1712.9</ele>
        <time>2022-01-14T08:18:23Z</time>
      </trkpt>
      <trkpt lat="44.99556" lon="6.46954">
        <ele>1712.9</ele>
        <time>2022-01-14T08:18:24Z</time>
      </trkpt>
      <trkpt lat="44.99557" lon="6.46954">
        <ele>1712.9</ele>
        <time>2022-01-14T08:18:25Z</time>
      </trkpt>
      <trkpt lat="44.99558" lon="6.46954">
        <ele>1712.7</ele>
        <time>2022-01-14T08:18:26Z</time>
      </trkpt>
      <trkpt lat="44.99558" lon="6.46955">
        <ele>1712.7</ele>
        <time>2022-01-14T08:18:27Z</time>
      </trkpt>
      <trkpt lat="44.99558" lon="6.46955">
        <ele>1712.7</ele>
        <time>2022-01-14T08:18:28Z</time>
      </trkpt>
      <trkpt lat="44.99559" lon="6.46954">
        <ele>1712.5</ele>
        <time>2022-01-14T08:18:29Z</time>
      </trkpt>
      <trkpt lat="44.9956" lon="6.46953">
        <ele>1712.5</ele>
        <time>2022-01-14T08:18:30Z</time>
      </trkpt>
      <trkpt lat="44.9956" lon="6.46953">
        <ele>1712.5</ele>
        <time>2022-01-14T08:18:31Z</time>
      </trkpt>
      <trkpt lat="44.99561" lon="6.46953">
        <ele>1712.3</ele>
        <time>2022-01-14T08:18:32Z</time>
      </trkpt>
      <trkpt lat="44.99562" lon="6.46953">
        <ele>1712.3</ele>
        <time>2022-01-14T08:18:33Z</time>
      </trkpt>
      <trkpt lat="44.99562" lon="6.46952">
        <ele>1712.3</ele>
        <time>2022-01-14T08:18:34Z</time>
      </trkpt>
      <trkpt lat="44.99562" lon="6.46952">
        <ele>1712.3</ele>
        <time>2022-01-14T08:18:35Z</time>
      </trkpt>
      <trkpt lat="44.99563" lon="6.46952">
        <ele>1712.3</ele>
        <time>2022-01-14T08:18:36Z</time>
      </trkpt>
      <trkpt lat="44.99563" lon="6.46952">
        <ele>1712.3</ele>
        <time>2022-01-14T08:18:37Z</time>
      </trkpt>
      <trkpt lat="44.99563" lon="6.46951">
        <ele>1712.3</ele>
        <time>2022-01-14T08:18:38Z</time>
      </trkpt>
      <trkpt lat="44.99564" lon="6.46951">
        <ele>1712.3</ele>
        <time>2022-01-14T08:18:39Z</time>
      </trkpt>
      <trkpt lat="44.99564" lon="6.46949">
        <ele>1712.3</ele>
        <time>2022-01-14T08:18:40Z</time>
      </trkpt>
      <trkpt lat="44.99565" lon="6.46947">
        <ele>1712.3</ele>
        <time>2022-01-14T08:18:41Z</time>
      </trkpt>
      <trkpt lat="44.99566" lon="6.46946">
        <ele>1712.5</ele>
        <time>2022-01-14T08:18:42Z</time>
      </trkpt>
      <trkpt lat="44.99566" lon="6.46945">
        <ele>1712.7</ele>
        <time>2022-01-14T08:18:43Z</time>
      </trkpt>
      <trkpt lat="44.99567" lon="6.46944">
        <ele>1712.9</ele>
        <time>2022-01-14T08:18:44Z</time>
      </trkpt>
      <trkpt lat="44.99567" lon="6.46943">
        <ele>1712.9</ele>
        <time>2022-01-14T08:18:45Z</time>
      </trkpt>
      <trkpt lat="44.99567" lon="6.46943">
        <ele>1713.1</ele>
        <time>2022-01-14T08:18:46Z</time>
      </trkpt>
      <trkpt lat="44.99567" lon="6.46943">
        <ele>1713.1</ele>
        <time>2022-01-14T08:18:47Z</time>
      </trkpt>
      <trkpt lat="44.99567" lon="6.46942">
        <ele>1713.1</ele>
        <time>2022-01-14T08:18:48Z</time>
      </trkpt>
      <trkpt lat="44.99568" lon="6.46941">
        <ele>1713.3</ele>
        <time>2022-01-14T08:18:49Z</time>
      </trkpt>
      <trkpt lat="44.99568" lon="6.46941">
        <ele>1713.5</ele>
        <time>2022-01-14T08:18:50Z</time>
      </trkpt>
      <trkpt lat="44.99568" lon="6.46941">
        <ele>1713.5</ele>
        <time>2022-01-14T08:18:51Z</time>
      </trkpt>
      <trkpt lat="44.99568" lon="6.46941">
        <ele>1713.5</ele>
        <time>2022-01-14T08:18:52Z</time>
      </trkpt>
      <trkpt lat="44.99568" lon="6.46941">
        <ele>1713.5</ele>
        <time>2022-01-14T08:18:53Z</time>
      </trkpt>
      <trkpt lat="44.99568" lon="6.4694">
        <ele>1713.5</ele>
        <time>2022-01-14T08:18:54Z</time>
      </trkpt>
      <trkpt lat="44.99568" lon="6.46939">
        <ele>1713.7</ele>
        <time>2022-01-14T08:18:55Z</time>
      </trkpt>
      <trkpt lat="44.99569" lon="6.46938">
        <ele>1713.9</ele>
        <time>2022-01-14T08:18:56Z</time>
      </trkpt>
      <trkpt lat="44.99569" lon="6.46938">
        <ele>1714.1</ele>
        <time>2022-01-14T08:18:57Z</time>
      </trkpt>
      <trkpt lat="44.99569" lon="6.46937">
        <ele>1714.1</ele>
        <time>2022-01-14T08:18:58Z</time>
      </trkpt>
      <trkpt lat="44.9957" lon="6.46937">
        <ele>1714.1</ele>
        <time>2022-01-14T08:18:59Z</time>
      </trkpt>
      <trkpt lat="44.9957" lon="6.46936">
        <ele>1714.1</ele>
        <time>2022-01-14T08:19:00Z</time>
      </trkpt>
      <trkpt lat="44.9957" lon="6.46935">
        <ele>1714.1</ele>
        <time>2022-01-14T08:19:01Z</time>
      </trkpt>
      <trkpt lat="44.99571" lon="6.46933">
        <ele>1714.3</ele>
        <time>2022-01-14T08:19:02Z</time>
      </trkpt>
      <trkpt lat="44.99571" lon="6.46932">
        <ele>1714.7</ele>
        <time>2022-01-14T08:19:03Z</time>
      </trkpt>
      <trkpt lat="44.99571" lon="6.46931">
        <ele>1714.7</ele>
        <time>2022-01-14T08:19:04Z</time>
      </trkpt>
      <trkpt lat="44.99571" lon="6.4693">
        <ele>1714.9</ele>
        <time>2022-01-14T08:19:05Z</time>
      </trkpt>
      <trkpt lat="44.99571" lon="6.46929">
        <ele>1715.1</ele>
        <time>2022-01-14T08:19:06Z</time>
      </trkpt>
      <trkpt lat="44.99571" lon="6.46929">
        <ele>1715.3</ele>
        <time>2022-01-14T08:19:07Z</time>
      </trkpt>
      <trkpt lat="44.9957" lon="6.46929">
        <ele>1715.3</ele>
        <time>2022-01-14T08:19:08Z</time>
      </trkpt>
      <trkpt lat="44.99571" lon="6.46927">
        <ele>1715.5</ele>
        <time>2022-01-14T08:19:09Z</time>
      </trkpt>
      <trkpt lat="44.9957" lon="6.46926">
        <ele>1715.5</ele>
        <time>2022-01-14T08:19:10Z</time>
      </trkpt>
      <trkpt lat="44.9957" lon="6.46926">
        <ele>1715.9</ele>
        <time>2022-01-14T08:19:11Z</time>
      </trkpt>
      <trkpt lat="44.9957" lon="6.46925">
        <ele>1715.9</ele>
        <time>2022-01-14T08:19:12Z</time>
      </trkpt>
      <trkpt lat="44.9957" lon="6.46924">
        <ele>1715.9</ele>
        <time>2022-01-14T08:19:13Z</time>
      </trkpt>
      <trkpt lat="44.9957" lon="6.46924">
        <ele>1716.3</ele>
        <time>2022-01-14T08:19:14Z</time>
      </trkpt>
      <trkpt lat="44.99569" lon="6.46923">
        <ele>1716.5</ele>
        <time>2022-01-14T08:19:15Z</time>
      </trkpt>
      <trkpt lat="44.99568" lon="6.46924">
        <ele>1716.7</ele>
        <time>2022-01-14T08:19:16Z</time>
      </trkpt>
      <trkpt lat="44.99568" lon="6.46923">
        <ele>1716.7</ele>
        <time>2022-01-14T08:19:17Z</time>
      </trkpt>
      <trkpt lat="44.99568" lon="6.46922">
        <ele>1716.9</ele>
        <time>2022-01-14T08:19:18Z</time>
      </trkpt>
      <trkpt lat="44.99567" lon="6.46921">
        <ele>1717.1</ele>
        <time>2022-01-14T08:19:19Z</time>
      </trkpt>
      <trkpt lat="44.99567" lon="6.46919">
        <ele>1717.5</ele>
        <time>2022-01-14T08:19:20Z</time>
      </trkpt>
      <trkpt lat="44.99567" lon="6.46918">
        <ele>1717.7</ele>
        <time>2022-01-14T08:19:21Z</time>
      </trkpt>
      <trkpt lat="44.99567" lon="6.46917">
        <ele>1717.7</ele>
        <time>2022-01-14T08:19:22Z</time>
      </trkpt>
      <trkpt lat="44.99567" lon="6.46916">
        <ele>1718.1</ele>
        <time>2022-01-14T08:19:23Z</time>
      </trkpt>
      <trkpt lat="44.99567" lon="6.46916">
        <ele>1718.3</ele>
        <time>2022-01-14T08:19:24Z</time>
      </trkpt>
      <trkpt lat="44.99566" lon="6.46912">
        <ele>1718.9</ele>
        <time>2022-01-14T08:19:25Z</time>
      </trkpt>
      <trkpt lat="44.99566" lon="6.46912">
        <ele>1719.3</ele>
        <time>2022-01-14T08:19:26Z</time>
      </trkpt>
      <trkpt lat="44.99565" lon="6.46912">
        <ele>1719.5</ele>
        <time>2022-01-14T08:19:27Z</time>
      </trkpt>
      <trkpt lat="44.99565" lon="6.46911">
        <ele>1719.7</ele>
        <time>2022-01-14T08:19:28Z</time>
      </trkpt>
      <trkpt lat="44.99564" lon="6.46909">
        <ele>1720.1</ele>
        <time>2022-01-14T08:19:29Z</time>
      </trkpt>
      <trkpt lat="44.99563" lon="6.46909">
        <ele>1720.3</ele>
        <time>2022-01-14T08:19:30Z</time>
      </trkpt>
      <trkpt lat="44.99563" lon="6.46908">
        <ele>1720.5</ele>
        <time>2022-01-14T08:19:31Z</time>
      </trkpt>
      <trkpt lat="44.99563" lon="6.46907">
        <ele>1720.7</ele>
        <time>2022-01-14T08:19:32Z</time>
      </trkpt>
      <trkpt lat="44.99564" lon="6.46905">
        <ele>1720.9</ele>
        <time>2022-01-14T08:19:33Z</time>
      </trkpt>
      <trkpt lat="44.99564" lon="6.46904">
        <ele>1720.9</ele>
        <time>2022-01-14T08:19:34Z</time>
      </trkpt>
      <trkpt lat="44.99564" lon="6.46902">
        <ele>1720.9</ele>
        <time>2022-01-14T08:19:35Z</time>
      </trkpt>
      <trkpt lat="44.99564" lon="6.46901">
        <ele>1721.1</ele>
        <time>2022-01-14T08:19:36Z</time>
      </trkpt>
      <trkpt lat="44.99564" lon="6.469">
        <ele>1721.1</ele>
        <time>2022-01-14T08:19:37Z</time>
      </trkpt>
      <trkpt lat="44.99563" lon="6.46899">
        <ele>1721.3</ele>
        <time>2022-01-14T08:19:38Z</time>
      </trkpt>
      <trkpt lat="44.99563" lon="6.46899">
        <ele>1721.5</ele>
        <time>2022-01-14T08:19:39Z</time>
      </trkpt>
      <trkpt lat="44.99563" lon="6.46899">
        <ele>1721.5</ele>
        <time>2022-01-14T08:19:40Z</time>
      </trkpt>
      <trkpt lat="44.99563" lon="6.46898">
        <ele>1721.5</ele>
        <time>2022-01-14T08:19:41Z</time>
      </trkpt>
      <trkpt lat="44.99563" lon="6.46898">
        <ele>1721.7</ele>
        <time>2022-01-14T08:19:42Z</time>
      </trkpt>
      <trkpt lat="44.99563" lon="6.46898">
        <ele>1721.7</ele>
        <time>2022-01-14T08:19:43Z</time>
      </trkpt>
      <trkpt lat="44.99563" lon="6.46898">
        <ele>1721.7</ele>
        <time>2022-01-14T08:19:44Z</time>
      </trkpt>
      <trkpt lat="44.99563" lon="6.46898">
        <ele>1721.7</ele>
        <time>2022-01-14T08:19:45Z</time>
      </trkpt>
      <trkpt lat="44.99563" lon="6.46898">
        <ele>1721.7</ele>
        <time>2022-01-14T08:19:46Z</time>
      </trkpt>
      <trkpt lat="44.99563" lon="6.46898">
        <ele>1721.7</ele>
        <time>2022-01-14T08:19:47Z</time>
      </trkpt>
      <trkpt lat="44.99562" lon="6.46898">
        <ele>1721.7</ele>
        <time>2022-01-14T08:19:48Z</time>
      </trkpt>
      <trkpt lat="44.99562" lon="6.46896">
        <ele>1721.9</ele>
        <time>2022-01-14T08:19:49Z</time>
      </trkpt>
      <trkpt lat="44.99561" lon="6.46895">
        <ele>1721.9</ele>
        <time>2022-01-14T08:19:50Z</time>
      </trkpt>
      <trkpt lat="44.99561" lon="6.46895">
        <ele>1722.1</ele>
        <time>2022-01-14T08:19:51Z</time>
      </trkpt>
      <trkpt lat="44.99561" lon="6.46894">
        <ele>1722.1</ele>
        <time>2022-01-14T08:19:52Z</time>
      </trkpt>
      <trkpt lat="44.99561" lon="6.46894">
        <ele>1722.1</ele>
        <time>2022-01-14T08:19:53Z</time>
      </trkpt>
      <trkpt lat="44.9956" lon="6.46893">
        <ele>1722.3</ele>
        <time>2022-01-14T08:19:54Z</time>
      </trkpt>
      <trkpt lat="44.9956" lon="6.46892">
        <ele>1722.3</ele>
        <time>2022-01-14T08:19:55Z</time>
      </trkpt>
      <trkpt lat="44.99561" lon="6.4689">
        <ele>1722.3</ele>
        <time>2022-01-14T08:19:56Z</time>
      </trkpt>
      <trkpt lat="44.99561" lon="6.46889">
        <ele>1722.3</ele>
        <time>2022-01-14T08:19:57Z</time>
      </trkpt>
      <trkpt lat="44.99561" lon="6.46887">
        <ele>1722.5</ele>
        <time>2022-01-14T08:19:58Z</time>
      </trkpt>
      <trkpt lat="44.99561" lon="6.46886">
        <ele>1722.9</ele>
        <time>2022-01-14T08:19:59Z</time>
      </trkpt>
      <trkpt lat="44.99562" lon="6.46884">
        <ele>1723.3</ele>
        <time>2022-01-14T08:20:00Z</time>
      </trkpt>
      <trkpt lat="44.99561" lon="6.46883">
        <ele>1723.9</ele>
        <time>2022-01-14T08:20:01Z</time>
      </trkpt>
      <trkpt lat="44.99561" lon="6.46882">
        <ele>1724.1</ele>
        <time>2022-01-14T08:20:02Z</time>
      </trkpt>
      <trkpt lat="44.99561" lon="6.46881">
        <ele>1724.5</ele>
        <time>2022-01-14T08:20:03Z</time>
      </trkpt>
      <trkpt lat="44.99561" lon="6.46881">
        <ele>1724.7</ele>
        <time>2022-01-14T08:20:04Z</time>
      </trkpt>
      <trkpt lat="44.99561" lon="6.4688">
        <ele>1724.7</ele>
        <time>2022-01-14T08:20:05Z</time>
      </trkpt>
      <trkpt lat="44.99561" lon="6.46879">
        <ele>1724.9</ele>
        <time>2022-01-14T08:20:06Z</time>
      </trkpt>
      <trkpt lat="44.99562" lon="6.46879">
        <ele>1725.1</ele>
        <time>2022-01-14T08:20:07Z</time>
      </trkpt>
      <trkpt lat="44.99562" lon="6.46878">
        <ele>1725.1</ele>
        <time>2022-01-14T08:20:08Z</time>
      </trkpt>
      <trkpt lat="44.99562" lon="6.46878">
        <ele>1725.3</ele>
        <time>2022-01-14T08:20:09Z</time>
      </trkpt>
      <trkpt lat="44.99562" lon="6.46878">
        <ele>1725.5</ele>
        <time>2022-01-14T08:20:10Z</time>
      </trkpt>
      <trkpt lat="44.99562" lon="6.46878">
        <ele>1725.3</ele>
        <time>2022-01-14T08:20:11Z</time>
      </trkpt>
      <trkpt lat="44.99562" lon="6.46877">
        <ele>1725.3</ele>
        <time>2022-01-14T08:20:12Z</time>
      </trkpt>
      <trkpt lat="44.99562" lon="6.46876">
        <ele>1725.5</ele>
        <time>2022-01-14T08:20:13Z</time>
      </trkpt>
      <trkpt lat="44.99562" lon="6.46876">
        <ele>1725.7</ele>
        <time>2022-01-14T08:20:14Z</time>
      </trkpt>
      <trkpt lat="44.99563" lon="6.46876">
        <ele>1726.1</ele>
        <time>2022-01-14T08:20:15Z</time>
      </trkpt>
      <trkpt lat="44.99564" lon="6.46876">
        <ele>1725.9</ele>
        <time>2022-01-14T08:20:16Z</time>
      </trkpt>
      <trkpt lat="44.99564" lon="6.46876">
        <ele>1725.7</ele>
        <time>2022-01-14T08:20:17Z</time>
      </trkpt>
      <trkpt lat="44.99564" lon="6.46877">
        <ele>1725.5</ele>
        <time>2022-01-14T08:20:18Z</time>
      </trkpt>
      <trkpt lat="44.99565" lon="6.46877">
        <ele>1725.3</ele>
        <time>2022-01-14T08:20:19Z</time>
      </trkpt>
      <trkpt lat="44.99565" lon="6.46877">
        <ele>1725.3</ele>
        <time>2022-01-14T08:20:20Z</time>
      </trkpt>
      <trkpt lat="44.99566" lon="6.46877">
        <ele>1725.1</ele>
        <time>2022-01-14T08:20:21Z</time>
      </trkpt>
      <trkpt lat="44.99565" lon="6.46877">
        <ele>1725.1</ele>
        <time>2022-01-14T08:20:22Z</time>
      </trkpt>
      <trkpt lat="44.99566" lon="6.46876">
        <ele>1725.3</ele>
        <time>2022-01-14T08:20:23Z</time>
      </trkpt>
      <trkpt lat="44.99568" lon="6.46875">
        <ele>1725.3</ele>
        <time>2022-01-14T08:20:24Z</time>
      </trkpt>
      <trkpt lat="44.99569" lon="6.46873">
        <ele>1725.3</ele>
        <time>2022-01-14T08:20:25Z</time>
      </trkpt>
      <trkpt lat="44.9957" lon="6.46872">
        <ele>1725.3</ele>
        <time>2022-01-14T08:20:26Z</time>
      </trkpt>
      <trkpt lat="44.99571" lon="6.46871">
        <ele>1725.3</ele>
        <time>2022-01-14T08:20:27Z</time>
      </trkpt>
      <trkpt lat="44.9957" lon="6.46871">
        <ele>1725.3</ele>
        <time>2022-01-14T08:20:28Z</time>
      </trkpt>
      <trkpt lat="44.99571" lon="6.46871">
        <ele>1725.5</ele>
        <time>2022-01-14T08:20:29Z</time>
      </trkpt>
      <trkpt lat="44.99571" lon="6.4687">
        <ele>1725.3</ele>
        <time>2022-01-14T08:20:30Z</time>
      </trkpt>
      <trkpt lat="44.99571" lon="6.4687">
        <ele>1725.3</ele>
        <time>2022-01-14T08:20:31Z</time>
      </trkpt>
      <trkpt lat="44.99572" lon="6.46869">
        <ele>1725.3</ele>
        <time>2022-01-14T08:20:32Z</time>
      </trkpt>
      <trkpt lat="44.99572" lon="6.46869">
        <ele>1725.3</ele>
        <time>2022-01-14T08:20:33Z</time>
      </trkpt>
      <trkpt lat="44.99572" lon="6.46868">
        <ele>1725.3</ele>
        <time>2022-01-14T08:20:34Z</time>
      </trkpt>
      <trkpt lat="44.99572" lon="6.46868">
        <ele>1725.3</ele>
        <time>2022-01-14T08:20:35Z</time>
      </trkpt>
      <trkpt lat="44.99573" lon="6.46869">
        <ele>1725.3</ele>
        <time>2022-01-14T08:20:36Z</time>
      </trkpt>
      <trkpt lat="44.99574" lon="6.46868">
        <ele>1725.1</ele>
        <time>2022-01-14T08:20:37Z</time>
      </trkpt>
      <trkpt lat="44.99574" lon="6.46868">
        <ele>1724.9</ele>
        <time>2022-01-14T08:20:38Z</time>
      </trkpt>
      <trkpt lat="44.99574" lon="6.46867">
        <ele>1724.9</ele>
        <time>2022-01-14T08:20:39Z</time>
      </trkpt>
      <trkpt lat="44.99574" lon="6.46867">
        <ele>1725.1</ele>
        <time>2022-01-14T08:20:40Z</time>
      </trkpt>
      <trkpt lat="44.99574" lon="6.46867">
        <ele>1725.1</ele>
        <time>2022-01-14T08:20:41Z</time>
      </trkpt>
      <trkpt lat="44.99573" lon="6.46867">
        <ele>1725.1</ele>
        <time>2022-01-14T08:20:42Z</time>
      </trkpt>
      <trkpt lat="44.99572" lon="6.46867">
        <ele>1725.3</ele>
        <time>2022-01-14T08:20:43Z</time>
      </trkpt>
      <trkpt lat="44.99572" lon="6.46868">
        <ele>1725.5</ele>
        <time>2022-01-14T08:20:44Z</time>
      </trkpt>
      <trkpt lat="44.99572" lon="6.46867">
        <ele>1725.5</ele>
        <time>2022-01-14T08:20:45Z</time>
      </trkpt>
      <trkpt lat="44.99572" lon="6.46866">
        <ele>1725.7</ele>
        <time>2022-01-14T08:20:46Z</time>
      </trkpt>
      <trkpt lat="44.99571" lon="6.46864">
        <ele>1725.7</ele>
        <time>2022-01-14T08:20:47Z</time>
      </trkpt>
      <trkpt lat="44.99571" lon="6.46863">
        <ele>1726.1</ele>
        <time>2022-01-14T08:20:48Z</time>
      </trkpt>
      <trkpt lat="44.99571" lon="6.46863">
        <ele>1726.5</ele>
        <time>2022-01-14T08:20:49Z</time>
      </trkpt>
      <trkpt lat="44.9957" lon="6.46863">
        <ele>1726.7</ele>
        <time>2022-01-14T08:20:50Z</time>
      </trkpt>
      <trkpt lat="44.9957" lon="6.46862">
        <ele>1726.7</ele>
        <time>2022-01-14T08:20:51Z</time>
      </trkpt>
      <trkpt lat="44.99571" lon="6.46862">
        <ele>1726.9</ele>
        <time>2022-01-14T08:20:52Z</time>
      </trkpt>
      <trkpt lat="44.99571" lon="6.46861">
        <ele>1726.9</ele>
        <time>2022-01-14T08:20:53Z</time>
      </trkpt>
      <trkpt lat="44.9957" lon="6.46862">
        <ele>1726.1</ele>
        <time>2022-01-14T08:20:54Z</time>
      </trkpt>
      <trkpt lat="44.9957" lon="6.4686">
        <ele>1725.7</ele>
        <time>2022-01-14T08:20:55Z</time>
      </trkpt>
      <trkpt lat="44.9957" lon="6.46861">
        <ele>1727.3</ele>
        <time>2022-01-14T08:20:56Z</time>
      </trkpt>
      <trkpt lat="44.99571" lon="6.4686">
        <ele>1727.1</ele>
        <time>2022-01-14T08:20:57Z</time>
      </trkpt>
      <trkpt lat="44.99571" lon="6.46859">
        <ele>1727.3</ele>
        <time>2022-01-14T08:20:58Z</time>
      </trkpt>
      <trkpt lat="44.99571" lon="6.46857">
        <ele>1727.5</ele>
        <time>2022-01-14T08:20:59Z</time>
      </trkpt>
      <trkpt lat="44.99572" lon="6.46857">
        <ele>1728.1</ele>
        <time>2022-01-14T08:21:00Z</time>
      </trkpt>
      <trkpt lat="44.99572" lon="6.46856">
        <ele>1728.1</ele>
        <time>2022-01-14T08:21:01Z</time>
      </trkpt>
      <trkpt lat="44.99571" lon="6.46855">
        <ele>1728.5</ele>
        <time>2022-01-14T08:21:02Z</time>
      </trkpt>
      <trkpt lat="44.99572" lon="6.46854">
        <ele>1728.7</ele>
        <time>2022-01-14T08:21:03Z</time>
      </trkpt>
      <trkpt lat="44.99572" lon="6.46853">
        <ele>1728.9</ele>
        <time>2022-01-14T08:21:04Z</time>
      </trkpt>
      <trkpt lat="44.99572" lon="6.46852">
        <ele>1729.3</ele>
        <time>2022-01-14T08:21:05Z</time>
      </trkpt>
      <trkpt lat="44.99572" lon="6.46851">
        <ele>1729.5</ele>
        <time>2022-01-14T08:21:06Z</time>
      </trkpt>
      <trkpt lat="44.99573" lon="6.4685">
        <ele>1729.9</ele>
        <time>2022-01-14T08:21:07Z</time>
      </trkpt>
      <trkpt lat="44.99573" lon="6.46848">
        <ele>1730.1</ele>
        <time>2022-01-14T08:21:08Z</time>
      </trkpt>
      <trkpt lat="44.99573" lon="6.46847">
        <ele>1730.5</ele>
        <time>2022-01-14T08:21:09Z</time>
      </trkpt>
      <trkpt lat="44.99573" lon="6.46845">
        <ele>1731.1</ele>
        <time>2022-01-14T08:21:10Z</time>
      </trkpt>
      <trkpt lat="44.99573" lon="6.46844">
        <ele>1731.5</ele>
        <time>2022-01-14T08:21:11Z</time>
      </trkpt>
      <trkpt lat="44.99573" lon="6.46843">
        <ele>1732.1</ele>
        <time>2022-01-14T08:21:12Z</time>
      </trkpt>
      <trkpt lat="44.99572" lon="6.46841">
        <ele>1732.5</ele>
        <time>2022-01-14T08:21:13Z</time>
      </trkpt>
      <trkpt lat="44.99572" lon="6.46841">
        <ele>1733.1</ele>
        <time>2022-01-14T08:21:14Z</time>
      </trkpt>
      <trkpt lat="44.99571" lon="6.46841">
        <ele>1733.5</ele>
        <time>2022-01-14T08:21:15Z</time>
      </trkpt>
      <trkpt lat="44.9957" lon="6.4684">
        <ele>1733.7</ele>
        <time>2022-01-14T08:21:16Z</time>
      </trkpt>
      <trkpt lat="44.9957" lon="6.4684">
        <ele>1734.1</ele>
        <time>2022-01-14T08:21:17Z</time>
      </trkpt>
      <trkpt lat="44.9957" lon="6.46839">
        <ele>1734.5</ele>
        <time>2022-01-14T08:21:18Z</time>
      </trkpt>
      <trkpt lat="44.9957" lon="6.46839">
        <ele>1734.7</ele>
        <time>2022-01-14T08:21:19Z</time>
      </trkpt>
      <trkpt lat="44.99569" lon="6.46837">
        <ele>1735.1</ele>
        <time>2022-01-14T08:21:20Z</time>
      </trkpt>
      <trkpt lat="44.99569" lon="6.46837">
        <ele>1735.5</ele>
        <time>2022-01-14T08:21:21Z</time>
      </trkpt>
      <trkpt lat="44.99569" lon="6.46836">
        <ele>1735.7</ele>
        <time>2022-01-14T08:21:22Z</time>
      </trkpt>
      <trkpt lat="44.99568" lon="6.46837">
        <ele>1736.1</ele>
        <time>2022-01-14T08:21:23Z</time>
      </trkpt>
      <trkpt lat="44.99568" lon="6.46836">
        <ele>1736.3</ele>
        <time>2022-01-14T08:21:24Z</time>
      </trkpt>
      <trkpt lat="44.99568" lon="6.46837">
        <ele>1736.5</ele>
        <time>2022-01-14T08:21:25Z</time>
      </trkpt>
      <trkpt lat="44.99568" lon="6.46837">
        <ele>1736.3</ele>
        <time>2022-01-14T08:21:26Z</time>
      </trkpt>
      <trkpt lat="44.99568" lon="6.46838">
        <ele>1736.1</ele>
        <time>2022-01-14T08:21:27Z</time>
      </trkpt>
      <trkpt lat="44.99568" lon="6.46838">
        <ele>1736.1</ele>
        <time>2022-01-14T08:21:28Z</time>
      </trkpt>
      <trkpt lat="44.99569" lon="6.46837">
        <ele>1735.9</ele>
        <time>2022-01-14T08:21:29Z</time>
      </trkpt>
      <trkpt lat="44.99569" lon="6.46837">
        <ele>1735.9</ele>
        <time>2022-01-14T08:21:30Z</time>
      </trkpt>
      <trkpt lat="44.9957" lon="6.46837">
        <ele>1735.7</ele>
        <time>2022-01-14T08:21:31Z</time>
      </trkpt>
      <trkpt lat="44.99571" lon="6.46838">
        <ele>1735.5</ele>
        <time>2022-01-14T08:21:32Z</time>
      </trkpt>
      <trkpt lat="44.99571" lon="6.46837">
        <ele>1735.1</ele>
        <time>2022-01-14T08:21:33Z</time>
      </trkpt>
      <trkpt lat="44.99573" lon="6.46837">
        <ele>1734.9</ele>
        <time>2022-01-14T08:21:34Z</time>
      </trkpt>
      <trkpt lat="44.99573" lon="6.46836">
        <ele>1734.7</ele>
        <time>2022-01-14T08:21:35Z</time>
      </trkpt>
      <trkpt lat="44.99572" lon="6.46838">
        <ele>1734.7</ele>
        <time>2022-01-14T08:21:36Z</time>
      </trkpt>
      <trkpt lat="44.99572" lon="6.46837">
        <ele>1734.5</ele>
        <time>2022-01-14T08:21:37Z</time>
      </trkpt>
      <trkpt lat="44.99573" lon="6.46837">
        <ele>1734.7</ele>
        <time>2022-01-14T08:21:38Z</time>
      </trkpt>
      <trkpt lat="44.99573" lon="6.46836">
        <ele>1734.7</ele>
        <time>2022-01-14T08:21:39Z</time>
      </trkpt>
      <trkpt lat="44.99573" lon="6.46836">
        <ele>1734.7</ele>
        <time>2022-01-14T08:21:40Z</time>
      </trkpt>
      <trkpt lat="44.99573" lon="6.46835">
        <ele>1734.9</ele>
        <time>2022-01-14T08:21:41Z</time>
      </trkpt>
      <trkpt lat="44.99573" lon="6.46836">
        <ele>1735.1</ele>
        <time>2022-01-14T08:21:42Z</time>
      </trkpt>
      <trkpt lat="44.99574" lon="6.46837">
        <ele>1734.9</ele>
        <time>2022-01-14T08:21:43Z</time>
      </trkpt>
      <trkpt lat="44.99574" lon="6.46837">
        <ele>1734.3</ele>
        <time>2022-01-14T08:21:44Z</time>
      </trkpt>
      <trkpt lat="44.99574" lon="6.46837">
        <ele>1734.3</ele>
        <time>2022-01-14T08:21:45Z</time>
      </trkpt>
      <trkpt lat="44.99573" lon="6.46837">
        <ele>1734.3</ele>
        <time>2022-01-14T08:21:46Z</time>
      </trkpt>
      <trkpt lat="44.99573" lon="6.46836">
        <ele>1734.5</ele>
        <time>2022-01-14T08:21:47Z</time>
      </trkpt>
      <trkpt lat="44.99574" lon="6.46835">
        <ele>1734.7</ele>
        <time>2022-01-14T08:21:48Z</time>
      </trkpt>
      <trkpt lat="44.99574" lon="6.46834">
        <ele>1734.7</ele>
        <time>2022-01-14T08:21:49Z</time>
      </trkpt>
      <trkpt lat="44.99574" lon="6.46833">
        <ele>1734.9</ele>
        <time>2022-01-14T08:21:50Z</time>
      </trkpt>
      <trkpt lat="44.99575" lon="6.46833">
        <ele>1735.1</ele>
        <time>2022-01-14T08:21:51Z</time>
      </trkpt>
      <trkpt lat="44.99576" lon="6.46831">
        <ele>1735.1</ele>
        <time>2022-01-14T08:21:52Z</time>
      </trkpt>
      <trkpt lat="44.99577" lon="6.4683">
        <ele>1735.3</ele>
        <time>2022-01-14T08:21:53Z</time>
      </trkpt>
      <trkpt lat="44.99577" lon="6.4683">
        <ele>1735.3</ele>
        <time>2022-01-14T08:21:54Z</time>
      </trkpt>
      <trkpt lat="44.99578" lon="6.4683">
        <ele>1735.3</ele>
        <time>2022-01-14T08:21:55Z</time>
      </trkpt>
      <trkpt lat="44.99578" lon="6.46831">
        <ele>1734.9</ele>
        <time>2022-01-14T08:21:56Z</time>
      </trkpt>
      <trkpt lat="44.99578" lon="6.46831">
        <ele>1734.7</ele>
        <time>2022-01-14T08:21:57Z</time>
      </trkpt>
      <trkpt lat="44.99579" lon="6.4683">
        <ele>1734.7</ele>
        <time>2022-01-14T08:21:58Z</time>
      </trkpt>
      <trkpt lat="44.99579" lon="6.46829">
        <ele>1734.9</ele>
        <time>2022-01-14T08:21:59Z</time>
      </trkpt>
      <trkpt lat="44.99579" lon="6.46829">
        <ele>1734.9</ele>
        <time>2022-01-14T08:22:00Z</time>
      </trkpt>
      <trkpt lat="44.99579" lon="6.46828">
        <ele>1734.9</ele>
        <time>2022-01-14T08:22:01Z</time>
      </trkpt>
      <trkpt lat="44.99579" lon="6.46828">
        <ele>1735.1</ele>
        <time>2022-01-14T08:22:02Z</time>
      </trkpt>
      <trkpt lat="44.99579" lon="6.46827">
        <ele>1735.3</ele>
        <time>2022-01-14T08:22:03Z</time>
      </trkpt>
      <trkpt lat="44.99579" lon="6.46827">
        <ele>1735.5</ele>
        <time>2022-01-14T08:22:04Z</time>
      </trkpt>
      <trkpt lat="44.99579" lon="6.46827">
        <ele>1735.5</ele>
        <time>2022-01-14T08:22:05Z</time>
      </trkpt>
      <trkpt lat="44.99579" lon="6.46825">
        <ele>1735.7</ele>
        <time>2022-01-14T08:22:06Z</time>
      </trkpt>
      <trkpt lat="44.99579" lon="6.46824">
        <ele>1735.9</ele>
        <time>2022-01-14T08:22:07Z</time>
      </trkpt>
      <trkpt lat="44.99579" lon="6.46823">
        <ele>1736.5</ele>
        <time>2022-01-14T08:22:08Z</time>
      </trkpt>
      <trkpt lat="44.99579" lon="6.46823">
        <ele>1736.7</ele>
        <time>2022-01-14T08:22:09Z</time>
      </trkpt>
      <trkpt lat="44.99579" lon="6.46824">
        <ele>1736.9</ele>
        <time>2022-01-14T08:22:10Z</time>
      </trkpt>
      <trkpt lat="44.99579" lon="6.46822">
        <ele>1736.5</ele>
        <time>2022-01-14T08:22:11Z</time>
      </trkpt>
      <trkpt lat="44.99579" lon="6.46822">
        <ele>1736.7</ele>
        <time>2022-01-14T08:22:12Z</time>
      </trkpt>
      <trkpt lat="44.99579" lon="6.46821">
        <ele>1737.1</ele>
        <time>2022-01-14T08:22:13Z</time>
      </trkpt>
      <trkpt lat="44.99578" lon="6.46822">
        <ele>1737.1</ele>
        <time>2022-01-14T08:22:14Z</time>
      </trkpt>
      <trkpt lat="44.99578" lon="6.46823">
        <ele>1737.1</ele>
        <time>2022-01-14T08:22:15Z</time>
      </trkpt>
      <trkpt lat="44.99578" lon="6.46822">
        <ele>1737.1</ele>
        <time>2022-01-14T08:22:16Z</time>
      </trkpt>
      <trkpt lat="44.99577" lon="6.46822">
        <ele>1737.1</ele>
        <time>2022-01-14T08:22:17Z</time>
      </trkpt>
      <trkpt lat="44.99577" lon="6.46821">
        <ele>1737.5</ele>
        <time>2022-01-14T08:22:18Z</time>
      </trkpt>
      <trkpt lat="44.99576" lon="6.46821">
        <ele>1737.7</ele>
        <time>2022-01-14T08:22:19Z</time>
      </trkpt>
      <trkpt lat="44.99575" lon="6.4682">
        <ele>1737.9</ele>
        <time>2022-01-14T08:22:20Z</time>
      </trkpt>
      <trkpt lat="44.99575" lon="6.46819">
        <ele>1738.3</ele>
        <time>2022-01-14T08:22:21Z</time>
      </trkpt>
      <trkpt lat="44.99575" lon="6.46819">
        <ele>1738.5</ele>
        <time>2022-01-14T08:22:22Z</time>
      </trkpt>
      <trkpt lat="44.99575" lon="6.46818">
        <ele>1738.5</ele>
        <time>2022-01-14T08:22:23Z</time>
      </trkpt>
      <trkpt lat="44.99575" lon="6.46818">
        <ele>1738.7</ele>
        <time>2022-01-14T08:22:24Z</time>
      </trkpt>
      <trkpt lat="44.99575" lon="6.46818">
        <ele>1738.7</ele>
        <time>2022-01-14T08:22:25Z</time>
      </trkpt>
      <trkpt lat="44.99575" lon="6.46817">
        <ele>1738.9</ele>
        <time>2022-01-14T08:22:26Z</time>
      </trkpt>
      <trkpt lat="44.99576" lon="6.46817">
        <ele>1738.9</ele>
        <time>2022-01-14T08:22:27Z</time>
      </trkpt>
      <trkpt lat="44.99575" lon="6.46817">
        <ele>1738.9</ele>
        <time>2022-01-14T08:22:28Z</time>
      </trkpt>
      <trkpt lat="44.99575" lon="6.46816">
        <ele>1738.9</ele>
        <time>2022-01-14T08:22:29Z</time>
      </trkpt>
      <trkpt lat="44.99575" lon="6.46815">
        <ele>1739.1</ele>
        <time>2022-01-14T08:22:30Z</time>
      </trkpt>
      <trkpt lat="44.99575" lon="6.46814">
        <ele>1739.5</ele>
        <time>2022-01-14T08:22:31Z</time>
      </trkpt>
      <trkpt lat="44.99576" lon="6.46814">
        <ele>1739.5</ele>
        <time>2022-01-14T08:22:32Z</time>
      </trkpt>
      <trkpt lat="44.99576" lon="6.46813">
        <ele>1739.7</ele>
        <time>2022-01-14T08:22:33Z</time>
      </trkpt>
      <trkpt lat="44.99576" lon="6.46811">
        <ele>1739.9</ele>
        <time>2022-01-14T08:22:34Z</time>
      </trkpt>
      <trkpt lat="44.99576" lon="6.4681">
        <ele>1740.3</ele>
        <time>2022-01-14T08:22:35Z</time>
      </trkpt>
      <trkpt lat="44.99576" lon="6.46809">
        <ele>1740.5</ele>
        <time>2022-01-14T08:22:36Z</time>
      </trkpt>
      <trkpt lat="44.99575" lon="6.46808">
        <ele>1740.9</ele>
        <time>2022-01-14T08:22:37Z</time>
      </trkpt>
      <trkpt lat="44.99576" lon="6.46808">
        <ele>1741.1</ele>
        <time>2022-01-14T08:22:38Z</time>
      </trkpt>
      <trkpt lat="44.99575" lon="6.46808">
        <ele>1741.3</ele>
        <time>2022-01-14T08:22:39Z</time>
      </trkpt>
      <trkpt lat="44.99575" lon="6.46807">
        <ele>1741.3</ele>
        <time>2022-01-14T08:22:40Z</time>
      </trkpt>
      <trkpt lat="44.99576" lon="6.46808">
        <ele>1741.3</ele>
        <time>2022-01-14T08:22:41Z</time>
      </trkpt>
      <trkpt lat="44.99576" lon="6.46809">
        <ele>1741.1</ele>
        <time>2022-01-14T08:22:42Z</time>
      </trkpt>
      <trkpt lat="44.99576" lon="6.46808">
        <ele>1740.9</ele>
        <time>2022-01-14T08:22:43Z</time>
      </trkpt>
      <trkpt lat="44.99576" lon="6.46808">
        <ele>1741.1</ele>
        <time>2022-01-14T08:22:44Z</time>
      </trkpt>
      <trkpt lat="44.99576" lon="6.46807">
        <ele>1741.1</ele>
        <time>2022-01-14T08:22:45Z</time>
      </trkpt>
      <trkpt lat="44.99576" lon="6.46807">
        <ele>1741.3</ele>
        <time>2022-01-14T08:22:46Z</time>
      </trkpt>
      <trkpt lat="44.99576" lon="6.46807">
        <ele>1741.3</ele>
        <time>2022-01-14T08:22:47Z</time>
      </trkpt>
      <trkpt lat="44.99577" lon="6.46807">
        <ele>1741.3</ele>
        <time>2022-01-14T08:22:48Z</time>
      </trkpt>
      <trkpt lat="44.99577" lon="6.46806">
        <ele>1741.5</ele>
        <time>2022-01-14T08:22:49Z</time>
      </trkpt>
      <trkpt lat="44.99577" lon="6.46806">
        <ele>1741.5</ele>
        <time>2022-01-14T08:22:50Z</time>
      </trkpt>
      <trkpt lat="44.99577" lon="6.46805">
        <ele>1741.7</ele>
        <time>2022-01-14T08:22:51Z</time>
      </trkpt>
      <trkpt lat="44.99577" lon="6.46805">
        <ele>1741.9</ele>
        <time>2022-01-14T08:22:52Z</time>
      </trkpt>
      <trkpt lat="44.99577" lon="6.46804">
        <ele>1742.1</ele>
        <time>2022-01-14T08:22:53Z</time>
      </trkpt>
      <trkpt lat="44.99577" lon="6.46803">
        <ele>1742.3</ele>
        <time>2022-01-14T08:22:54Z</time>
      </trkpt>
      <trkpt lat="44.99577" lon="6.46802">
        <ele>1742.5</ele>
        <time>2022-01-14T08:22:55Z</time>
      </trkpt>
      <trkpt lat="44.99577" lon="6.46802">
        <ele>1742.7</ele>
        <time>2022-01-14T08:22:56Z</time>
      </trkpt>
      <trkpt lat="44.99577" lon="6.46801">
        <ele>1742.9</ele>
        <time>2022-01-14T08:22:57Z</time>
      </trkpt>
      <trkpt lat="44.99577" lon="6.46801">
        <ele>1743.1</ele>
        <time>2022-01-14T08:22:58Z</time>
      </trkpt>
      <trkpt lat="44.99578" lon="6.468">
        <ele>1743.5</ele>
        <time>2022-01-14T08:22:59Z</time>
      </trkpt>
      <trkpt lat="44.99578" lon="6.468">
        <ele>1743.5</ele>
        <time>2022-01-14T08:23:00Z</time>
      </trkpt>
      <trkpt lat="44.99578" lon="6.468">
        <ele>1743.7</ele>
        <time>2022-01-14T08:23:01Z</time>
      </trkpt>
      <trkpt lat="44.99578" lon="6.46799">
        <ele>1743.7</ele>
        <time>2022-01-14T08:23:02Z</time>
      </trkpt>
      <trkpt lat="44.99578" lon="6.46799">
        <ele>1743.9</ele>
        <time>2022-01-14T08:23:03Z</time>
      </trkpt>
      <trkpt lat="44.99579" lon="6.46799">
        <ele>1744.1</ele>
        <time>2022-01-14T08:23:04Z</time>
      </trkpt>
      <trkpt lat="44.99579" lon="6.46797">
        <ele>1744.1</ele>
        <time>2022-01-14T08:23:05Z</time>
      </trkpt>
      <trkpt lat="44.99579" lon="6.46797">
        <ele>1744.5</ele>
        <time>2022-01-14T08:23:06Z</time>
      </trkpt>
      <trkpt lat="44.99579" lon="6.46797">
        <ele>1744.7</ele>
        <time>2022-01-14T08:23:07Z</time>
      </trkpt>
      <trkpt lat="44.99579" lon="6.46795">
        <ele>1744.7</ele>
        <time>2022-01-14T08:23:08Z</time>
      </trkpt>
      <trkpt lat="44.99579" lon="6.46795">
        <ele>1745.3</ele>
        <time>2022-01-14T08:23:09Z</time>
      </trkpt>
      <trkpt lat="44.99579" lon="6.46794">
        <ele>1745.5</ele>
        <time>2022-01-14T08:23:10Z</time>
      </trkpt>
      <trkpt lat="44.99578" lon="6.46794">
        <ele>1745.5</ele>
        <time>2022-01-14T08:23:11Z</time>
      </trkpt>
      <trkpt lat="44.99578" lon="6.46794">
        <ele>1745.5</ele>
        <time>2022-01-14T08:23:12Z</time>
      </trkpt>
      <trkpt lat="44.99578" lon="6.46793">
        <ele>1745.9</ele>
        <time>2022-01-14T08:23:13Z</time>
      </trkpt>
      <trkpt lat="44.99578" lon="6.46793">
        <ele>1745.9</ele>
        <time>2022-01-14T08:23:14Z</time>
      </trkpt>
      <trkpt lat="44.99578" lon="6.46793">
        <ele>1746.1</ele>
        <time>2022-01-14T08:23:15Z</time>
      </trkpt>
      <trkpt lat="44.99578" lon="6.46792">
        <ele>1746.3</ele>
        <time>2022-01-14T08:23:16Z</time>
      </trkpt>
      <trkpt lat="44.99578" lon="6.46793">
        <ele>1746.3</ele>
        <time>2022-01-14T08:23:17Z</time>
      </trkpt>
      <trkpt lat="44.99578" lon="6.46792">
        <ele>1746.1</ele>
        <time>2022-01-14T08:23:18Z</time>
      </trkpt>
      <trkpt lat="44.99578" lon="6.46791">
        <ele>1746.3</ele>
        <time>2022-01-14T08:23:19Z</time>
      </trkpt>
      <trkpt lat="44.99578" lon="6.46789">
        <ele>1746.9</ele>
        <time>2022-01-14T08:23:20Z</time>
      </trkpt>
      <trkpt lat="44.99578" lon="6.46789">
        <ele>1747.3</ele>
        <time>2022-01-14T08:23:21Z</time>
      </trkpt>
      <trkpt lat="44.99578" lon="6.46789">
        <ele>1747.5</ele>
        <time>2022-01-14T08:23:22Z</time>
      </trkpt>
      <trkpt lat="44.99577" lon="6.46788">
        <ele>1747.5</ele>
        <time>2022-01-14T08:23:23Z</time>
      </trkpt>
      <trkpt lat="44.99577" lon="6.46788">
        <ele>1747.7</ele>
        <time>2022-01-14T08:23:24Z</time>
      </trkpt>
      <trkpt lat="44.99577" lon="6.46788">
        <ele>1747.9</ele>
        <time>2022-01-14T08:23:25Z</time>
      </trkpt>
      <trkpt lat="44.99577" lon="6.46787">
        <ele>1747.7</ele>
        <time>2022-01-14T08:23:26Z</time>
      </trkpt>
      <trkpt lat="44.99577" lon="6.46785">
        <ele>1748.1</ele>
        <time>2022-01-14T08:23:27Z</time>
      </trkpt>
      <trkpt lat="44.99577" lon="6.46784">
        <ele>1748.7</ele>
        <time>2022-01-14T08:23:28Z</time>
      </trkpt>
      <trkpt lat="44.99576" lon="6.46783">
        <ele>1749.3</ele>
        <time>2022-01-14T08:23:29Z</time>
      </trkpt>
      <trkpt lat="44.99576" lon="6.46782">
        <ele>1749.5</ele>
        <time>2022-01-14T08:23:30Z</time>
      </trkpt>
      <trkpt lat="44.99574" lon="6.46782">
        <ele>1749.9</ele>
        <time>2022-01-14T08:23:31Z</time>
      </trkpt>
      <trkpt lat="44.99574" lon="6.46782">
        <ele>1749.9</ele>
        <time>2022-01-14T08:23:32Z</time>
      </trkpt>
      <trkpt lat="44.99573" lon="6.46782">
        <ele>1749.9</ele>
        <time>2022-01-14T08:23:33Z</time>
      </trkpt>
      <trkpt lat="44.99572" lon="6.46781">
        <ele>1749.9</ele>
        <time>2022-01-14T08:23:34Z</time>
      </trkpt>
      <trkpt lat="44.99571" lon="6.4678">
        <ele>1750.1</ele>
        <time>2022-01-14T08:23:35Z</time>
      </trkpt>
      <trkpt lat="44.99571" lon="6.46781">
        <ele>1750.3</ele>
        <time>2022-01-14T08:23:36Z</time>
      </trkpt>
      <trkpt lat="44.9957" lon="6.4678">
        <ele>1750.3</ele>
        <time>2022-01-14T08:23:37Z</time>
      </trkpt>
      <trkpt lat="44.99569" lon="6.46779">
        <ele>1750.7</ele>
        <time>2022-01-14T08:23:38Z</time>
      </trkpt>
      <trkpt lat="44.99569" lon="6.46779">
        <ele>1750.9</ele>
        <time>2022-01-14T08:23:39Z</time>
      </trkpt>
      <trkpt lat="44.99568" lon="6.4678">
        <ele>1750.9</ele>
        <time>2022-01-14T08:23:40Z</time>
      </trkpt>
      <trkpt lat="44.99568" lon="6.46779">
        <ele>1750.7</ele>
        <time>2022-01-14T08:23:41Z</time>
      </trkpt>
      <trkpt lat="44.99567" lon="6.46777">
        <ele>1751.1</ele>
        <time>2022-01-14T08:23:42Z</time>
      </trkpt>
      <trkpt lat="44.99567" lon="6.46775">
        <ele>1751.5</ele>
        <time>2022-01-14T08:23:43Z</time>
      </trkpt>
      <trkpt lat="44.99567" lon="6.46775">
        <ele>1752.3</ele>
        <time>2022-01-14T08:23:44Z</time>
      </trkpt>
      <trkpt lat="44.99567" lon="6.46775">
        <ele>1752.3</ele>
        <time>2022-01-14T08:23:45Z</time>
      </trkpt>
      <trkpt lat="44.99567" lon="6.46775">
        <ele>1752.3</ele>
        <time>2022-01-14T08:23:46Z</time>
      </trkpt>
      <trkpt lat="44.99567" lon="6.46775">
        <ele>1752.3</ele>
        <time>2022-01-14T08:23:47Z</time>
      </trkpt>
      <trkpt lat="44.99567" lon="6.46775">
        <ele>1752.5</ele>
        <time>2022-01-14T08:23:48Z</time>
      </trkpt>
      <trkpt lat="44.99566" lon="6.46774">
        <ele>1752.3</ele>
        <time>2022-01-14T08:23:49Z</time>
      </trkpt>
      <trkpt lat="44.99566" lon="6.46773">
        <ele>1752.7</ele>
        <time>2022-01-14T08:23:50Z</time>
      </trkpt>
      <trkpt lat="44.99566" lon="6.46773">
        <ele>1752.9</ele>
        <time>2022-01-14T08:23:51Z</time>
      </trkpt>
      <trkpt lat="44.99566" lon="6.46773">
        <ele>1753.1</ele>
        <time>2022-01-14T08:23:52Z</time>
      </trkpt>
      <trkpt lat="44.99566" lon="6.46771">
        <ele>1753.1</ele>
        <time>2022-01-14T08:23:53Z</time>
      </trkpt>
      <trkpt lat="44.99566" lon="6.4677">
        <ele>1753.7</ele>
        <time>2022-01-14T08:23:54Z</time>
      </trkpt>
      <trkpt lat="44.99566" lon="6.4677">
        <ele>1753.9</ele>
        <time>2022-01-14T08:23:55Z</time>
      </trkpt>
      <trkpt lat="44.99565" lon="6.4677">
        <ele>1754.1</ele>
        <time>2022-01-14T08:23:56Z</time>
      </trkpt>
      <trkpt lat="44.99565" lon="6.46769">
        <ele>1754.1</ele>
        <time>2022-01-14T08:23:57Z</time>
      </trkpt>
      <trkpt lat="44.99565" lon="6.46767">
        <ele>1754.5</ele>
        <time>2022-01-14T08:23:58Z</time>
      </trkpt>
      <trkpt lat="44.99565" lon="6.46766">
        <ele>1754.9</ele>
        <time>2022-01-14T08:23:59Z</time>
      </trkpt>
      <trkpt lat="44.99565" lon="6.46765">
        <ele>1755.5</ele>
        <time>2022-01-14T08:24:00Z</time>
      </trkpt>
      <trkpt lat="44.99564" lon="6.46764">
        <ele>1755.5</ele>
        <time>2022-01-14T08:24:01Z</time>
      </trkpt>
      <trkpt lat="44.99564" lon="6.46763">
        <ele>1756.1</ele>
        <time>2022-01-14T08:24:02Z</time>
      </trkpt>
      <trkpt lat="44.99563" lon="6.46763">
        <ele>1756.3</ele>
        <time>2022-01-14T08:24:03Z</time>
      </trkpt>
      <trkpt lat="44.99562" lon="6.46762">
        <ele>1756.5</ele>
        <time>2022-01-14T08:24:04Z</time>
      </trkpt>
      <trkpt lat="44.99562" lon="6.46761">
        <ele>1756.7</ele>
        <time>2022-01-14T08:24:05Z</time>
      </trkpt>
      <trkpt lat="44.99562" lon="6.46761">
        <ele>1757.1</ele>
        <time>2022-01-14T08:24:06Z</time>
      </trkpt>
      <trkpt lat="44.99562" lon="6.4676">
        <ele>1757.3</ele>
        <time>2022-01-14T08:24:07Z</time>
      </trkpt>
      <trkpt lat="44.99561" lon="6.4676">
        <ele>1757.5</ele>
        <time>2022-01-14T08:24:08Z</time>
      </trkpt>
      <trkpt lat="44.99561" lon="6.4676">
        <ele>1757.5</ele>
        <time>2022-01-14T08:24:09Z</time>
      </trkpt>
      <trkpt lat="44.9956" lon="6.4676">
        <ele>1757.5</ele>
        <time>2022-01-14T08:24:10Z</time>
      </trkpt>
      <trkpt lat="44.9956" lon="6.46759">
        <ele>1757.7</ele>
        <time>2022-01-14T08:24:11Z</time>
      </trkpt>
      <trkpt lat="44.99559" lon="6.46759">
        <ele>1757.7</ele>
        <time>2022-01-14T08:24:12Z</time>
      </trkpt>
      <trkpt lat="44.99559" lon="6.46759">
        <ele>1757.9</ele>
        <time>2022-01-14T08:24:13Z</time>
      </trkpt>
      <trkpt lat="44.99558" lon="6.46759">
        <ele>1757.9</ele>
        <time>2022-01-14T08:24:14Z</time>
      </trkpt>
      <trkpt lat="44.99557" lon="6.46758">
        <ele>1757.9</ele>
        <time>2022-01-14T08:24:15Z</time>
      </trkpt>
      <trkpt lat="44.99556" lon="6.46757">
        <ele>1758.3</ele>
        <time>2022-01-14T08:24:16Z</time>
      </trkpt>
      <trkpt lat="44.99556" lon="6.46756">
        <ele>1758.5</ele>
        <time>2022-01-14T08:24:17Z</time>
      </trkpt>
      <trkpt lat="44.99555" lon="6.46755">
        <ele>1758.9</ele>
        <time>2022-01-14T08:24:18Z</time>
      </trkpt>
      <trkpt lat="44.99555" lon="6.46754">
        <ele>1759.3</ele>
        <time>2022-01-14T08:24:19Z</time>
      </trkpt>
      <trkpt lat="44.99555" lon="6.46754">
        <ele>1759.7</ele>
        <time>2022-01-14T08:24:20Z</time>
      </trkpt>
      <trkpt lat="44.99554" lon="6.46753">
        <ele>1759.9</ele>
        <time>2022-01-14T08:24:21Z</time>
      </trkpt>
      <trkpt lat="44.99554" lon="6.46752">
        <ele>1760.3</ele>
        <time>2022-01-14T08:24:22Z</time>
      </trkpt>
      <trkpt lat="44.99554" lon="6.4675">
        <ele>1760.7</ele>
        <time>2022-01-14T08:24:23Z</time>
      </trkpt>
      <trkpt lat="44.99553" lon="6.46749">
        <ele>1761.5</ele>
        <time>2022-01-14T08:24:24Z</time>
      </trkpt>
      <trkpt lat="44.99553" lon="6.46749">
        <ele>1762.1</ele>
        <time>2022-01-14T08:24:25Z</time>
      </trkpt>
      <trkpt lat="44.99554" lon="6.46747">
        <ele>1762.3</ele>
        <time>2022-01-14T08:24:26Z</time>
      </trkpt>
      <trkpt lat="44.99552" lon="6.46749">
        <ele>1762.5</ele>
        <time>2022-01-14T08:24:27Z</time>
      </trkpt>
      <trkpt lat="44.99552" lon="6.46749">
        <ele>1762.3</ele>
        <time>2022-01-14T08:24:28Z</time>
      </trkpt>
      <trkpt lat="44.99551" lon="6.46751">
        <ele>1762.3</ele>
        <time>2022-01-14T08:24:29Z</time>
      </trkpt>
      <trkpt lat="44.99551" lon="6.46751">
        <ele>1762.3</ele>
        <time>2022-01-14T08:24:30Z</time>
      </trkpt>
      <trkpt lat="44.99551" lon="6.46751">
        <ele>1762.3</ele>
        <time>2022-01-14T08:24:31Z</time>
      </trkpt>
      <trkpt lat="44.99551" lon="6.4675">
        <ele>1762.3</ele>
        <time>2022-01-14T08:24:32Z</time>
      </trkpt>
      <trkpt lat="44.99551" lon="6.46751">
        <ele>1762.3</ele>
        <time>2022-01-14T08:24:33Z</time>
      </trkpt>
      <trkpt lat="44.99552" lon="6.46751">
        <ele>1762.3</ele>
        <time>2022-01-14T08:24:34Z</time>
      </trkpt>
      <trkpt lat="44.99552" lon="6.4675">
        <ele>1762.1</ele>
        <time>2022-01-14T08:24:35Z</time>
      </trkpt>
      <trkpt lat="44.99552" lon="6.4675">
        <ele>1762.1</ele>
        <time>2022-01-14T08:24:36Z</time>
      </trkpt>
      <trkpt lat="44.99552" lon="6.4675">
        <ele>1762.3</ele>
        <time>2022-01-14T08:24:37Z</time>
      </trkpt>
      <trkpt lat="44.99552" lon="6.46751">
        <ele>1762.3</ele>
        <time>2022-01-14T08:24:38Z</time>
      </trkpt>
      <trkpt lat="44.99551" lon="6.46752">
        <ele>1762.1</ele>
        <time>2022-01-14T08:24:39Z</time>
      </trkpt>
      <trkpt lat="44.99551" lon="6.46751">
        <ele>1761.9</ele>
        <time>2022-01-14T08:24:40Z</time>
      </trkpt>
      <trkpt lat="44.99551" lon="6.46752">
        <ele>1761.9</ele>
        <time>2022-01-14T08:24:41Z</time>
      </trkpt>
      <trkpt lat="44.99551" lon="6.46753">
        <ele>1761.7</ele>
        <time>2022-01-14T08:24:42Z</time>
      </trkpt>
      <trkpt lat="44.99551" lon="6.46753">
        <ele>1761.3</ele>
        <time>2022-01-14T08:24:43Z</time>
      </trkpt>
      <trkpt lat="44.99551" lon="6.46753">
        <ele>1761.3</ele>
        <time>2022-01-14T08:24:44Z</time>
      </trkpt>
      <trkpt lat="44.99551" lon="6.46753">
        <ele>1761.7</ele>
        <time>2022-01-14T08:24:45Z</time>
      </trkpt>
      <trkpt lat="44.99551" lon="6.46753">
        <ele>1761.7</ele>
        <time>2022-01-14T08:24:46Z</time>
      </trkpt>
      <trkpt lat="44.9955" lon="6.46753">
        <ele>1761.7</ele>
        <time>2022-01-14T08:24:47Z</time>
      </trkpt>
      <trkpt lat="44.99551" lon="6.46753">
        <ele>1761.7</ele>
        <time>2022-01-14T08:24:48Z</time>
      </trkpt>
      <trkpt lat="44.99551" lon="6.46751">
        <ele>1761.7</ele>
        <time>2022-01-14T08:24:49Z</time>
      </trkpt>
      <trkpt lat="44.99551" lon="6.46751">
        <ele>1762.1</ele>
        <time>2022-01-14T08:24:50Z</time>
      </trkpt>
      <trkpt lat="44.99552" lon="6.46751">
        <ele>1762.1</ele>
        <time>2022-01-14T08:24:51Z</time>
      </trkpt>
      <trkpt lat="44.99552" lon="6.4675">
        <ele>1762.1</ele>
        <time>2022-01-14T08:24:52Z</time>
      </trkpt>
      <trkpt lat="44.99553" lon="6.46749">
        <ele>1762.1</ele>
        <time>2022-01-14T08:24:53Z</time>
      </trkpt>
      <trkpt lat="44.99554" lon="6.46748">
        <ele>1762.1</ele>
        <time>2022-01-14T08:24:54Z</time>
      </trkpt>
      <trkpt lat="44.99554" lon="6.46748">
        <ele>1762.1</ele>
        <time>2022-01-14T08:24:55Z</time>
      </trkpt>
      <trkpt lat="44.99555" lon="6.46747">
        <ele>1762.3</ele>
        <time>2022-01-14T08:24:56Z</time>
      </trkpt>
      <trkpt lat="44.99556" lon="6.46748">
        <ele>1762.1</ele>
        <time>2022-01-14T08:24:57Z</time>
      </trkpt>
      <trkpt lat="44.99556" lon="6.46747">
        <ele>1761.7</ele>
        <time>2022-01-14T08:24:58Z</time>
      </trkpt>
      <trkpt lat="44.99556" lon="6.46746">
        <ele>1761.9</ele>
        <time>2022-01-14T08:24:59Z</time>
      </trkpt>
      <trkpt lat="44.99556" lon="6.46746">
        <ele>1762.3</ele>
        <time>2022-01-14T08:25:00Z</time>
      </trkpt>
      <trkpt lat="44.99557" lon="6.46744">
        <ele>1762.3</ele>
        <time>2022-01-14T08:25:01Z</time>
      </trkpt>
      <trkpt lat="44.99557" lon="6.46743">
        <ele>1762.9</ele>
        <time>2022-01-14T08:25:02Z</time>
      </trkpt>
      <trkpt lat="44.99557" lon="6.46742">
        <ele>1763.3</ele>
        <time>2022-01-14T08:25:03Z</time>
      </trkpt>
      <trkpt lat="44.99557" lon="6.46741">
        <ele>1763.7</ele>
        <time>2022-01-14T08:25:04Z</time>
      </trkpt>
      <trkpt lat="44.99556" lon="6.46741">
        <ele>1763.9</ele>
        <time>2022-01-14T08:25:05Z</time>
      </trkpt>
      <trkpt lat="44.99556" lon="6.4674">
        <ele>1764.1</ele>
        <time>2022-01-14T08:25:06Z</time>
      </trkpt>
      <trkpt lat="44.99556" lon="6.4674">
        <ele>1764.3</ele>
        <time>2022-01-14T08:25:07Z</time>
      </trkpt>
      <trkpt lat="44.99555" lon="6.46739">
        <ele>1764.5</ele>
        <time>2022-01-14T08:25:08Z</time>
      </trkpt>
      <trkpt lat="44.99555" lon="6.46739">
        <ele>1764.7</ele>
        <time>2022-01-14T08:25:09Z</time>
      </trkpt>
      <trkpt lat="44.99554" lon="6.4674">
        <ele>1764.9</ele>
        <time>2022-01-14T08:25:10Z</time>
      </trkpt>
      <trkpt lat="44.99553" lon="6.4674">
        <ele>1764.9</ele>
        <time>2022-01-14T08:25:11Z</time>
      </trkpt>
      <trkpt lat="44.99553" lon="6.46741">
        <ele>1765.1</ele>
        <time>2022-01-14T08:25:12Z</time>
      </trkpt>
      <trkpt lat="44.99552" lon="6.46742">
        <ele>1764.7</ele>
        <time>2022-01-14T08:25:13Z</time>
      </trkpt>
      <trkpt lat="44.99551" lon="6.46741">
        <ele>1764.7</ele>
        <time>2022-01-14T08:25:14Z</time>
      </trkpt>
      <trkpt lat="44.99551" lon="6.46741">
        <ele>1764.9</ele>
        <time>2022-01-14T08:25:15Z</time>
      </trkpt>
      <trkpt lat="44.9955" lon="6.46742">
        <ele>1765.1</ele>
        <time>2022-01-14T08:25:16Z</time>
      </trkpt>
      <trkpt lat="44.9955" lon="6.46741">
        <ele>1765.1</ele>
        <time>2022-01-14T08:25:17Z</time>
      </trkpt>
      <trkpt lat="44.99549" lon="6.46741">
        <ele>1765.3</ele>
        <time>2022-01-14T08:25:18Z</time>
      </trkpt>
      <trkpt lat="44.99549" lon="6.46739">
        <ele>1765.5</ele>
        <time>2022-01-14T08:25:19Z</time>
      </trkpt>
      <trkpt lat="44.99548" lon="6.46738">
        <ele>1766.1</ele>
        <time>2022-01-14T08:25:20Z</time>
      </trkpt>
      <trkpt lat="44.99547" lon="6.46738">
        <ele>1766.5</ele>
        <time>2022-01-14T08:25:21Z</time>
      </trkpt>
      <trkpt lat="44.99546" lon="6.46739">
        <ele>1766.7</ele>
        <time>2022-01-14T08:25:22Z</time>
      </trkpt>
      <trkpt lat="44.99545" lon="6.46738">
        <ele>1766.9</ele>
        <time>2022-01-14T08:25:23Z</time>
      </trkpt>
      <trkpt lat="44.99544" lon="6.46738">
        <ele>1767.1</ele>
        <time>2022-01-14T08:25:24Z</time>
      </trkpt>
      <trkpt lat="44.99543" lon="6.46737">
        <ele>1767.5</ele>
        <time>2022-01-14T08:25:25Z</time>
      </trkpt>
      <trkpt lat="44.99542" lon="6.46737">
        <ele>1767.7</ele>
        <time>2022-01-14T08:25:26Z</time>
      </trkpt>
      <trkpt lat="44.99542" lon="6.46736">
        <ele>1767.9</ele>
        <time>2022-01-14T08:25:27Z</time>
      </trkpt>
      <trkpt lat="44.99541" lon="6.46735">
        <ele>1768.1</ele>
        <time>2022-01-14T08:25:28Z</time>
      </trkpt>
      <trkpt lat="44.99541" lon="6.46735">
        <ele>1768.3</ele>
        <time>2022-01-14T08:25:29Z</time>
      </trkpt>
      <trkpt lat="44.9954" lon="6.46735">
        <ele>1768.5</ele>
        <time>2022-01-14T08:25:30Z</time>
      </trkpt>
      <trkpt lat="44.99539" lon="6.46736">
        <ele>1768.5</ele>
        <time>2022-01-14T08:25:31Z</time>
      </trkpt>
      <trkpt lat="44.99539" lon="6.46736">
        <ele>1768.5</ele>
        <time>2022-01-14T08:25:32Z</time>
      </trkpt>
      <trkpt lat="44.99538" lon="6.46736">
        <ele>1768.7</ele>
        <time>2022-01-14T08:25:33Z</time>
      </trkpt>
      <trkpt lat="44.99537" lon="6.46736">
        <ele>1768.7</ele>
        <time>2022-01-14T08:25:34Z</time>
      </trkpt>
      <trkpt lat="44.99536" lon="6.46737">
        <ele>1768.9</ele>
        <time>2022-01-14T08:25:35Z</time>
      </trkpt>
      <trkpt lat="44.99535" lon="6.46738">
        <ele>1769.1</ele>
        <time>2022-01-14T08:25:36Z</time>
      </trkpt>
      <trkpt lat="44.99534" lon="6.46739">
        <ele>1769.1</ele>
        <time>2022-01-14T08:25:37Z</time>
      </trkpt>
      <trkpt lat="44.99534" lon="6.46739">
        <ele>1769.1</ele>
        <time>2022-01-14T08:25:38Z</time>
      </trkpt>
      <trkpt lat="44.99535" lon="6.46739">
        <ele>1769.1</ele>
        <time>2022-01-14T08:25:39Z</time>
      </trkpt>
      <trkpt lat="44.99534" lon="6.4674">
        <ele>1769.1</ele>
        <time>2022-01-14T08:25:40Z</time>
      </trkpt>
      <trkpt lat="44.99534" lon="6.4674">
        <ele>1769.3</ele>
        <time>2022-01-14T08:25:41Z</time>
      </trkpt>
      <trkpt lat="44.99534" lon="6.4674">
        <ele>1769.3</ele>
        <time>2022-01-14T08:25:42Z</time>
      </trkpt>
      <trkpt lat="44.99533" lon="6.4674">
        <ele>1769.3</ele>
        <time>2022-01-14T08:25:43Z</time>
      </trkpt>
      <trkpt lat="44.99533" lon="6.4674">
        <ele>1769.3</ele>
        <time>2022-01-14T08:25:44Z</time>
      </trkpt>
      <trkpt lat="44.99532" lon="6.4674">
        <ele>1769.5</ele>
        <time>2022-01-14T08:25:45Z</time>
      </trkpt>
      <trkpt lat="44.99531" lon="6.46739">
        <ele>1769.7</ele>
        <time>2022-01-14T08:25:46Z</time>
      </trkpt>
      <trkpt lat="44.9953" lon="6.46738">
        <ele>1769.9</ele>
        <time>2022-01-14T08:25:47Z</time>
      </trkpt>
      <trkpt lat="44.99529" lon="6.46737">
        <ele>1770.1</ele>
        <time>2022-01-14T08:25:48Z</time>
      </trkpt>
      <trkpt lat="44.99529" lon="6.46738">
        <ele>1770.3</ele>
        <time>2022-01-14T08:25:49Z</time>
      </trkpt>
      <trkpt lat="44.99528" lon="6.46738">
        <ele>1770.3</ele>
        <time>2022-01-14T08:25:50Z</time>
      </trkpt>
      <trkpt lat="44.99526" lon="6.46738">
        <ele>1770.5</ele>
        <time>2022-01-14T08:25:51Z</time>
      </trkpt>
      <trkpt lat="44.99526" lon="6.46738">
        <ele>1770.7</ele>
        <time>2022-01-14T08:25:52Z</time>
      </trkpt>
      <trkpt lat="44.99527" lon="6.46737">
        <ele>1770.7</ele>
        <time>2022-01-14T08:25:53Z</time>
      </trkpt>
      <trkpt lat="44.99526" lon="6.46738">
        <ele>1770.7</ele>
        <time>2022-01-14T08:25:54Z</time>
      </trkpt>
      <trkpt lat="44.99525" lon="6.46737">
        <ele>1770.9</ele>
        <time>2022-01-14T08:25:55Z</time>
      </trkpt>
      <trkpt lat="44.99525" lon="6.46738">
        <ele>1770.9</ele>
        <time>2022-01-14T08:25:56Z</time>
      </trkpt>
      <trkpt lat="44.99525" lon="6.46738">
        <ele>1770.9</ele>
        <time>2022-01-14T08:25:57Z</time>
      </trkpt>
      <trkpt lat="44.99525" lon="6.46738">
        <ele>1770.9</ele>
        <time>2022-01-14T08:25:58Z</time>
      </trkpt>
      <trkpt lat="44.99525" lon="6.46739">
        <ele>1770.9</ele>
        <time>2022-01-14T08:25:59Z</time>
      </trkpt>
      <trkpt lat="44.99524" lon="6.46739">
        <ele>1770.9</ele>
        <time>2022-01-14T08:26:00Z</time>
      </trkpt>
      <trkpt lat="44.99524" lon="6.4674">
        <ele>1771.1</ele>
        <time>2022-01-14T08:26:01Z</time>
      </trkpt>
      <trkpt lat="44.99523" lon="6.46739">
        <ele>1771.1</ele>
        <time>2022-01-14T08:26:02Z</time>
      </trkpt>
      <trkpt lat="44.99523" lon="6.46739">
        <ele>1771.1</ele>
        <time>2022-01-14T08:26:03Z</time>
      </trkpt>
      <trkpt lat="44.99523" lon="6.4674">
        <ele>1771.3</ele>
        <time>2022-01-14T08:26:04Z</time>
      </trkpt>
      <trkpt lat="44.99523" lon="6.4674">
        <ele>1771.1</ele>
        <time>2022-01-14T08:26:05Z</time>
      </trkpt>
      <trkpt lat="44.99523" lon="6.4674">
        <ele>1771.1</ele>
        <time>2022-01-14T08:26:06Z</time>
      </trkpt>
      <trkpt lat="44.99522" lon="6.46741">
        <ele>1771.1</ele>
        <time>2022-01-14T08:26:07Z</time>
      </trkpt>
      <trkpt lat="44.99521" lon="6.46743">
        <ele>1771.1</ele>
        <time>2022-01-14T08:26:08Z</time>
      </trkpt>
      <trkpt lat="44.9952" lon="6.46743">
        <ele>1771.1</ele>
        <time>2022-01-14T08:26:09Z</time>
      </trkpt>
      <trkpt lat="44.99519" lon="6.46743">
        <ele>1771.3</ele>
        <time>2022-01-14T08:26:10Z</time>
      </trkpt>
      <trkpt lat="44.99518" lon="6.46745">
        <ele>1771.3</ele>
        <time>2022-01-14T08:26:11Z</time>
      </trkpt>
      <trkpt lat="44.99518" lon="6.46746">
        <ele>1771.1</ele>
        <time>2022-01-14T08:26:12Z</time>
      </trkpt>
      <trkpt lat="44.99517" lon="6.46747">
        <ele>1771.1</ele>
        <time>2022-01-14T08:26:13Z</time>
      </trkpt>
      <trkpt lat="44.99516" lon="6.46747">
        <ele>1770.9</ele>
        <time>2022-01-14T08:26:14Z</time>
      </trkpt>
      <trkpt lat="44.99516" lon="6.46748">
        <ele>1770.9</ele>
        <time>2022-01-14T08:26:15Z</time>
      </trkpt>
      <trkpt lat="44.99517" lon="6.46749">
        <ele>1770.7</ele>
        <time>2022-01-14T08:26:16Z</time>
      </trkpt>
      <trkpt lat="44.99516" lon="6.4675">
        <ele>1770.7</ele>
        <time>2022-01-14T08:26:17Z</time>
      </trkpt>
      <trkpt lat="44.99516" lon="6.4675">
        <ele>1770.5</ele>
        <time>2022-01-14T08:26:18Z</time>
      </trkpt>
      <trkpt lat="44.99517" lon="6.46751">
        <ele>1770.5</ele>
        <time>2022-01-14T08:26:19Z</time>
      </trkpt>
      <trkpt lat="44.99517" lon="6.46751">
        <ele>1770.3</ele>
        <time>2022-01-14T08:26:20Z</time>
      </trkpt>
      <trkpt lat="44.99517" lon="6.46751">
        <ele>1770.3</ele>
        <time>2022-01-14T08:26:21Z</time>
      </trkpt>
      <trkpt lat="44.99517" lon="6.46751">
        <ele>1770.1</ele>
        <time>2022-01-14T08:26:22Z</time>
      </trkpt>
      <trkpt lat="44.99517" lon="6.46751">
        <ele>1770.1</ele>
        <time>2022-01-14T08:26:23Z</time>
      </trkpt>
      <trkpt lat="44.99517" lon="6.46751">
        <ele>1770.1</ele>
        <time>2022-01-14T08:26:24Z</time>
      </trkpt>
      <trkpt lat="44.99517" lon="6.46751">
        <ele>1770.1</ele>
        <time>2022-01-14T08:26:25Z</time>
      </trkpt>
      <trkpt lat="44.99516" lon="6.46751">
        <ele>1770.1</ele>
        <time>2022-01-14T08:26:26Z</time>
      </trkpt>
      <trkpt lat="44.99515" lon="6.4675">
        <ele>1770.3</ele>
        <time>2022-01-14T08:26:27Z</time>
      </trkpt>
      <trkpt lat="44.99515" lon="6.4675">
        <ele>1770.5</ele>
        <time>2022-01-14T08:26:28Z</time>
      </trkpt>
      <trkpt lat="44.99515" lon="6.46749">
        <ele>1770.5</ele>
        <time>2022-01-14T08:26:29Z</time>
      </trkpt>
      <trkpt lat="44.99514" lon="6.46751">
        <ele>1770.7</ele>
        <time>2022-01-14T08:26:30Z</time>
      </trkpt>
      <trkpt lat="44.99512" lon="6.46751">
        <ele>1770.3</ele>
        <time>2022-01-14T08:26:31Z</time>
      </trkpt>
      <trkpt lat="44.99512" lon="6.46752">
        <ele>1770.3</ele>
        <time>2022-01-14T08:26:32Z</time>
      </trkpt>
      <trkpt lat="44.99511" lon="6.46753">
        <ele>1769.9</ele>
        <time>2022-01-14T08:26:33Z</time>
      </trkpt>
      <trkpt lat="44.99511" lon="6.46752">
        <ele>1769.7</ele>
        <time>2022-01-14T08:26:34Z</time>
      </trkpt>
      <trkpt lat="44.99511" lon="6.46753">
        <ele>1769.7</ele>
        <time>2022-01-14T08:26:35Z</time>
      </trkpt>
      <trkpt lat="44.9951" lon="6.46753">
        <ele>1769.7</ele>
        <time>2022-01-14T08:26:36Z</time>
      </trkpt>
      <trkpt lat="44.9951" lon="6.46755">
        <ele>1769.5</ele>
        <time>2022-01-14T08:26:37Z</time>
      </trkpt>
      <trkpt lat="44.99511" lon="6.46755">
        <ele>1768.9</ele>
        <time>2022-01-14T08:26:38Z</time>
      </trkpt>
      <trkpt lat="44.99512" lon="6.46755">
        <ele>1768.7</ele>
        <time>2022-01-14T08:26:39Z</time>
      </trkpt>
      <trkpt lat="44.99512" lon="6.46756">
        <ele>1768.7</ele>
        <time>2022-01-14T08:26:40Z</time>
      </trkpt>
      <trkpt lat="44.99511" lon="6.46758">
        <ele>1768.5</ele>
        <time>2022-01-14T08:26:41Z</time>
      </trkpt>
      <trkpt lat="44.9951" lon="6.46759">
        <ele>1767.9</ele>
        <time>2022-01-14T08:26:42Z</time>
      </trkpt>
      <trkpt lat="44.9951" lon="6.4676">
        <ele>1767.7</ele>
        <time>2022-01-14T08:26:43Z</time>
      </trkpt>
      <trkpt lat="44.99509" lon="6.4676">
        <ele>1767.1</ele>
        <time>2022-01-14T08:26:44Z</time>
      </trkpt>
      <trkpt lat="44.99509" lon="6.4676">
        <ele>1767.1</ele>
        <time>2022-01-14T08:26:45Z</time>
      </trkpt>
      <trkpt lat="44.99508" lon="6.46761">
        <ele>1767.1</ele>
        <time>2022-01-14T08:26:46Z</time>
      </trkpt>
      <trkpt lat="44.99508" lon="6.46761">
        <ele>1766.9</ele>
        <time>2022-01-14T08:26:47Z</time>
      </trkpt>
      <trkpt lat="44.99508" lon="6.46761">
        <ele>1766.7</ele>
        <time>2022-01-14T08:26:48Z</time>
      </trkpt>
      <trkpt lat="44.99508" lon="6.46761">
        <ele>1766.9</ele>
        <time>2022-01-14T08:26:49Z</time>
      </trkpt>
      <trkpt lat="44.99508" lon="6.46761">
        <ele>1766.9</ele>
        <time>2022-01-14T08:26:50Z</time>
      </trkpt>
      <trkpt lat="44.99508" lon="6.46761">
        <ele>1766.7</ele>
        <time>2022-01-14T08:26:51Z</time>
      </trkpt>
      <trkpt lat="44.99507" lon="6.46761">
        <ele>1766.9</ele>
        <time>2022-01-14T08:26:52Z</time>
      </trkpt>
      <trkpt lat="44.99506" lon="6.46762">
        <ele>1766.7</ele>
        <time>2022-01-14T08:26:53Z</time>
      </trkpt>
      <trkpt lat="44.99505" lon="6.46762">
        <ele>1766.5</ele>
        <time>2022-01-14T08:26:54Z</time>
      </trkpt>
      <trkpt lat="44.99505" lon="6.46763">
        <ele>1766.5</ele>
        <time>2022-01-14T08:26:55Z</time>
      </trkpt>
      <trkpt lat="44.99505" lon="6.46765">
        <ele>1766.1</ele>
        <time>2022-01-14T08:26:56Z</time>
      </trkpt>
      <trkpt lat="44.99505" lon="6.46765">
        <ele>1765.5</ele>
        <time>2022-01-14T08:26:57Z</time>
      </trkpt>
      <trkpt lat="44.99504" lon="6.46765">
        <ele>1765.3</ele>
        <time>2022-01-14T08:26:58Z</time>
      </trkpt>
      <trkpt lat="44.99502" lon="6.46767">
        <ele>1765.3</ele>
        <time>2022-01-14T08:26:59Z</time>
      </trkpt>
      <trkpt lat="44.99501" lon="6.46766">
        <ele>1764.7</ele>
        <time>2022-01-14T08:27:00Z</time>
      </trkpt>
      <trkpt lat="44.995" lon="6.46766">
        <ele>1764.9</ele>
        <time>2022-01-14T08:27:01Z</time>
      </trkpt>
      <trkpt lat="44.99499" lon="6.46766">
        <ele>1765.1</ele>
        <time>2022-01-14T08:27:02Z</time>
      </trkpt>
      <trkpt lat="44.99499" lon="6.46766">
        <ele>1765.3</ele>
        <time>2022-01-14T08:27:03Z</time>
      </trkpt>
      <trkpt lat="44.99499" lon="6.46766">
        <ele>1765.3</ele>
        <time>2022-01-14T08:27:04Z</time>
      </trkpt>
      <trkpt lat="44.99499" lon="6.46766">
        <ele>1765.3</ele>
        <time>2022-01-14T08:27:05Z</time>
      </trkpt>
      <trkpt lat="44.99499" lon="6.46766">
        <ele>1765.3</ele>
        <time>2022-01-14T08:27:06Z</time>
      </trkpt>
      <trkpt lat="44.99499" lon="6.46766">
        <ele>1765.3</ele>
        <time>2022-01-14T08:27:07Z</time>
      </trkpt>
      <trkpt lat="44.99499" lon="6.46766">
        <ele>1765.3</ele>
        <time>2022-01-14T08:27:08Z</time>
      </trkpt>
      <trkpt lat="44.99499" lon="6.46766">
        <ele>1765.3</ele>
        <time>2022-01-14T08:27:09Z</time>
      </trkpt>
      <trkpt lat="44.99499" lon="6.46766">
        <ele>1765.3</ele>
        <time>2022-01-14T08:27:10Z</time>
      </trkpt>
      <trkpt lat="44.995" lon="6.46765">
        <ele>1765.3</ele>
        <time>2022-01-14T08:27:11Z</time>
      </trkpt>
      <trkpt lat="44.995" lon="6.46765">
        <ele>1765.5</ele>
        <time>2022-01-14T08:27:12Z</time>
      </trkpt>
      <trkpt lat="44.99501" lon="6.46766">
        <ele>1765.5</ele>
        <time>2022-01-14T08:27:13Z</time>
      </trkpt>
      <trkpt lat="44.99502" lon="6.46769">
        <ele>1764.9</ele>
        <time>2022-01-14T08:27:14Z</time>
      </trkpt>
      <trkpt lat="44.99502" lon="6.4677">
        <ele>1763.9</ele>
        <time>2022-01-14T08:27:15Z</time>
      </trkpt>
      <trkpt lat="44.99502" lon="6.4677">
        <ele>1763.9</ele>
        <time>2022-01-14T08:27:16Z</time>
      </trkpt>
      <trkpt lat="44.99501" lon="6.46771">
        <ele>1763.7</ele>
        <time>2022-01-14T08:27:17Z</time>
      </trkpt>
      <trkpt lat="44.99501" lon="6.4677">
        <ele>1763.5</ele>
        <time>2022-01-14T08:27:18Z</time>
      </trkpt>
      <trkpt lat="44.99501" lon="6.46769">
        <ele>1763.7</ele>
        <time>2022-01-14T08:27:19Z</time>
      </trkpt>
      <trkpt lat="44.99501" lon="6.46769">
        <ele>1763.9</ele>
        <time>2022-01-14T08:27:20Z</time>
      </trkpt>
      <trkpt lat="44.995" lon="6.46768">
        <ele>1763.9</ele>
        <time>2022-01-14T08:27:21Z</time>
      </trkpt>
      <trkpt lat="44.995" lon="6.46768">
        <ele>1764.3</ele>
        <time>2022-01-14T08:27:22Z</time>
      </trkpt>
      <trkpt lat="44.99499" lon="6.46767">
        <ele>1764.3</ele>
        <time>2022-01-14T08:27:23Z</time>
      </trkpt>
      <trkpt lat="44.99499" lon="6.46768">
        <ele>1764.7</ele>
        <time>2022-01-14T08:27:24Z</time>
      </trkpt>
      <trkpt lat="44.99498" lon="6.46769">
        <ele>1764.7</ele>
        <time>2022-01-14T08:27:25Z</time>
      </trkpt>
      <trkpt lat="44.99498" lon="6.46768">
        <ele>1764.5</ele>
        <time>2022-01-14T08:27:26Z</time>
      </trkpt>
      <trkpt lat="44.99497" lon="6.46767">
        <ele>1764.9</ele>
        <time>2022-01-14T08:27:27Z</time>
      </trkpt>
      <trkpt lat="44.99497" lon="6.46767">
        <ele>1765.3</ele>
        <time>2022-01-14T08:27:28Z</time>
      </trkpt>
      <trkpt lat="44.99497" lon="6.46767">
        <ele>1765.3</ele>
        <time>2022-01-14T08:27:29Z</time>
      </trkpt>
      <trkpt lat="44.99497" lon="6.46766">
        <ele>1765.3</ele>
        <time>2022-01-14T08:27:30Z</time>
      </trkpt>
      <trkpt lat="44.99497" lon="6.46766">
        <ele>1765.5</ele>
        <time>2022-01-14T08:27:31Z</time>
      </trkpt>
      <trkpt lat="44.99497" lon="6.46765">
        <ele>1765.7</ele>
        <time>2022-01-14T08:27:32Z</time>
      </trkpt>
      <trkpt lat="44.99496" lon="6.46764">
        <ele>1765.9</ele>
        <time>2022-01-14T08:27:33Z</time>
      </trkpt>
      <trkpt lat="44.99496" lon="6.46762">
        <ele>1766.5</ele>
        <time>2022-01-14T08:27:34Z</time>
      </trkpt>
      <trkpt lat="44.99495" lon="6.4676">
        <ele>1767.1</ele>
        <time>2022-01-14T08:27:35Z</time>
      </trkpt>
      <trkpt lat="44.99494" lon="6.4676">
        <ele>1767.7</ele>
        <time>2022-01-14T08:27:36Z</time>
      </trkpt>
      <trkpt lat="44.99494" lon="6.46759">
        <ele>1767.9</ele>
        <time>2022-01-14T08:27:37Z</time>
      </trkpt>
      <trkpt lat="44.99494" lon="6.46758">
        <ele>1768.1</ele>
        <time>2022-01-14T08:27:38Z</time>
      </trkpt>
      <trkpt lat="44.99494" lon="6.46757">
        <ele>1768.5</ele>
        <time>2022-01-14T08:27:39Z</time>
      </trkpt>
      <trkpt lat="44.99494" lon="6.46756">
        <ele>1768.7</ele>
        <time>2022-01-14T08:27:40Z</time>
      </trkpt>
      <trkpt lat="44.99494" lon="6.46754">
        <ele>1769.1</ele>
        <time>2022-01-14T08:27:41Z</time>
      </trkpt>
      <trkpt lat="44.99495" lon="6.46754">
        <ele>1769.3</ele>
        <time>2022-01-14T08:27:42Z</time>
      </trkpt>
      <trkpt lat="44.99495" lon="6.46753">
        <ele>1769.5</ele>
        <time>2022-01-14T08:27:43Z</time>
      </trkpt>
      <trkpt lat="44.99496" lon="6.46752">
        <ele>1769.5</ele>
        <time>2022-01-14T08:27:44Z</time>
      </trkpt>
      <trkpt lat="44.99496" lon="6.46752">
        <ele>1769.9</ele>
        <time>2022-01-14T08:27:45Z</time>
      </trkpt>
      <trkpt lat="44.99497" lon="6.46752">
        <ele>1769.9</ele>
        <time>2022-01-14T08:27:46Z</time>
      </trkpt>
      <trkpt lat="44.99497" lon="6.46751">
        <ele>1770.1</ele>
        <time>2022-01-14T08:27:47Z</time>
      </trkpt>
      <trkpt lat="44.99497" lon="6.46752">
        <ele>1770.1</ele>
        <time>2022-01-14T08:27:48Z</time>
      </trkpt>
      <trkpt lat="44.99496" lon="6.46752">
        <ele>1769.9</ele>
        <time>2022-01-14T08:27:49Z</time>
      </trkpt>
      <trkpt lat="44.99496" lon="6.46753">
        <ele>1769.9</ele>
        <time>2022-01-14T08:27:50Z</time>
      </trkpt>
      <trkpt lat="44.99497" lon="6.46752">
        <ele>1769.7</ele>
        <time>2022-01-14T08:27:51Z</time>
      </trkpt>
      <trkpt lat="44.99497" lon="6.46752">
        <ele>1769.9</ele>
        <time>2022-01-14T08:27:52Z</time>
      </trkpt>
      <trkpt lat="44.99497" lon="6.46752">
        <ele>1769.9</ele>
        <time>2022-01-14T08:27:53Z</time>
      </trkpt>
      <trkpt lat="44.99497" lon="6.46753">
        <ele>1769.9</ele>
        <time>2022-01-14T08:27:54Z</time>
      </trkpt>
      <trkpt lat="44.99498" lon="6.46753">
        <ele>1769.7</ele>
        <time>2022-01-14T08:27:55Z</time>
      </trkpt>
      <trkpt lat="44.99498" lon="6.46752">
        <ele>1769.5</ele>
        <time>2022-01-14T08:27:56Z</time>
      </trkpt>
      <trkpt lat="44.99497" lon="6.46751">
        <ele>1769.9</ele>
        <time>2022-01-14T08:27:57Z</time>
      </trkpt>
      <trkpt lat="44.99497" lon="6.46751">
        <ele>1770.3</ele>
        <time>2022-01-14T08:27:58Z</time>
      </trkpt>
      <trkpt lat="44.99497" lon="6.4675">
        <ele>1770.3</ele>
        <time>2022-01-14T08:27:59Z</time>
      </trkpt>
      <trkpt lat="44.99497" lon="6.4675">
        <ele>1770.5</ele>
        <time>2022-01-14T08:28:00Z</time>
      </trkpt>
      <trkpt lat="44.99497" lon="6.46749">
        <ele>1770.5</ele>
        <time>2022-01-14T08:28:01Z</time>
      </trkpt>
      <trkpt lat="44.99498" lon="6.46748">
        <ele>1770.9</ele>
        <time>2022-01-14T08:28:02Z</time>
      </trkpt>
      <trkpt lat="44.99498" lon="6.46747">
        <ele>1771.3</ele>
        <time>2022-01-14T08:28:03Z</time>
      </trkpt>
      <trkpt lat="44.99499" lon="6.46746">
        <ele>1771.5</ele>
        <time>2022-01-14T08:28:04Z</time>
      </trkpt>
      <trkpt lat="44.99499" lon="6.46745">
        <ele>1771.9</ele>
        <time>2022-01-14T08:28:05Z</time>
      </trkpt>
      <trkpt lat="44.995" lon="6.46744">
        <ele>1772.1</ele>
        <time>2022-01-14T08:28:06Z</time>
      </trkpt>
      <trkpt lat="44.995" lon="6.46743">
        <ele>1772.5</ele>
        <time>2022-01-14T08:28:07Z</time>
      </trkpt>
      <trkpt lat="44.99501" lon="6.46744">
        <ele>1772.9</ele>
        <time>2022-01-14T08:28:08Z</time>
      </trkpt>
      <trkpt lat="44.99502" lon="6.46744">
        <ele>1772.7</ele>
        <time>2022-01-14T08:28:09Z</time>
      </trkpt>
      <trkpt lat="44.99502" lon="6.46744">
        <ele>1772.5</ele>
        <time>2022-01-14T08:28:10Z</time>
      </trkpt>
      <trkpt lat="44.99503" lon="6.46743">
        <ele>1772.5</ele>
        <time>2022-01-14T08:28:11Z</time>
      </trkpt>
      <trkpt lat="44.99504" lon="6.46742">
        <ele>1772.9</ele>
        <time>2022-01-14T08:28:12Z</time>
      </trkpt>
      <trkpt lat="44.99504" lon="6.46742">
        <ele>1772.9</ele>
        <time>2022-01-14T08:28:13Z</time>
      </trkpt>
      <trkpt lat="44.99504" lon="6.46742">
        <ele>1772.9</ele>
        <time>2022-01-14T08:28:14Z</time>
      </trkpt>
      <trkpt lat="44.99504" lon="6.46741">
        <ele>1773.1</ele>
        <time>2022-01-14T08:28:15Z</time>
      </trkpt>
      <trkpt lat="44.99504" lon="6.46741">
        <ele>1773.3</ele>
        <time>2022-01-14T08:28:16Z</time>
      </trkpt>
      <trkpt lat="44.99505" lon="6.4674">
        <ele>1773.3</ele>
        <time>2022-01-14T08:28:17Z</time>
      </trkpt>
      <trkpt lat="44.99505" lon="6.4674">
        <ele>1773.3</ele>
        <time>2022-01-14T08:28:18Z</time>
      </trkpt>
      <trkpt lat="44.99506" lon="6.46738">
        <ele>1773.5</ele>
        <time>2022-01-14T08:28:19Z</time>
      </trkpt>
      <trkpt lat="44.99506" lon="6.46738">
        <ele>1773.7</ele>
        <time>2022-01-14T08:28:20Z</time>
      </trkpt>
      <trkpt lat="44.99506" lon="6.46737">
        <ele>1773.9</ele>
        <time>2022-01-14T08:28:21Z</time>
      </trkpt>
      <trkpt lat="44.99507" lon="6.46737">
        <ele>1773.9</ele>
        <time>2022-01-14T08:28:22Z</time>
      </trkpt>
      <trkpt lat="44.99507" lon="6.46736">
        <ele>1774.1</ele>
        <time>2022-01-14T08:28:23Z</time>
      </trkpt>
      <trkpt lat="44.99507" lon="6.46736">
        <ele>1774.3</ele>
        <time>2022-01-14T08:28:24Z</time>
      </trkpt>
      <trkpt lat="44.99507" lon="6.46735">
        <ele>1774.3</ele>
        <time>2022-01-14T08:28:25Z</time>
      </trkpt>
      <trkpt lat="44.99507" lon="6.46735">
        <ele>1774.3</ele>
        <time>2022-01-14T08:28:26Z</time>
      </trkpt>
      <trkpt lat="44.99507" lon="6.46735">
        <ele>1774.3</ele>
        <time>2022-01-14T08:28:27Z</time>
      </trkpt>
      <trkpt lat="44.99506" lon="6.46735">
        <ele>1774.3</ele>
        <time>2022-01-14T08:28:28Z</time>
      </trkpt>
      <trkpt lat="44.99506" lon="6.46735">
        <ele>1774.5</ele>
        <time>2022-01-14T08:28:29Z</time>
      </trkpt>
      <trkpt lat="44.99506" lon="6.46735">
        <ele>1774.5</ele>
        <time>2022-01-14T08:28:30Z</time>
      </trkpt>
      <trkpt lat="44.99506" lon="6.46735">
        <ele>1774.5</ele>
        <time>2022-01-14T08:28:31Z</time>
      </trkpt>
      <trkpt lat="44.99506" lon="6.46734">
        <ele>1774.7</ele>
        <time>2022-01-14T08:28:32Z</time>
      </trkpt>
      <trkpt lat="44.99506" lon="6.46734">
        <ele>1774.7</ele>
        <time>2022-01-14T08:28:33Z</time>
      </trkpt>
      <trkpt lat="44.99507" lon="6.46733">
        <ele>1774.9</ele>
        <time>2022-01-14T08:28:34Z</time>
      </trkpt>
      <trkpt lat="44.99507" lon="6.46733">
        <ele>1775.1</ele>
        <time>2022-01-14T08:28:35Z</time>
      </trkpt>
      <trkpt lat="44.99508" lon="6.46732">
        <ele>1774.9</ele>
        <time>2022-01-14T08:28:36Z</time>
      </trkpt>
      <trkpt lat="44.99508" lon="6.46731">
        <ele>1775.1</ele>
        <time>2022-01-14T08:28:37Z</time>
      </trkpt>
      <trkpt lat="44.99508" lon="6.4673">
        <ele>1775.3</ele>
        <time>2022-01-14T08:28:38Z</time>
      </trkpt>
      <trkpt lat="44.99508" lon="6.4673">
        <ele>1775.5</ele>
        <time>2022-01-14T08:28:39Z</time>
      </trkpt>
      <trkpt lat="44.99508" lon="6.46729">
        <ele>1775.5</ele>
        <time>2022-01-14T08:28:40Z</time>
      </trkpt>
      <trkpt lat="44.99509" lon="6.46728">
        <ele>1775.5</ele>
        <time>2022-01-14T08:28:41Z</time>
      </trkpt>
      <trkpt lat="44.99509" lon="6.46727">
        <ele>1775.7</ele>
        <time>2022-01-14T08:28:42Z</time>
      </trkpt>
      <trkpt lat="44.99509" lon="6.46725">
        <ele>1775.9</ele>
        <time>2022-01-14T08:28:43Z</time>
      </trkpt>
      <trkpt lat="44.9951" lon="6.46722">
        <ele>1776.3</ele>
        <time>2022-01-14T08:28:44Z</time>
      </trkpt>
      <trkpt lat="44.9951" lon="6.46722">
        <ele>1776.7</ele>
        <time>2022-01-14T08:28:45Z</time>
      </trkpt>
      <trkpt lat="44.9951" lon="6.46721">
        <ele>1776.7</ele>
        <time>2022-01-14T08:28:46Z</time>
      </trkpt>
      <trkpt lat="44.9951" lon="6.4672">
        <ele>1776.7</ele>
        <time>2022-01-14T08:28:47Z</time>
      </trkpt>
      <trkpt lat="44.99511" lon="6.4672">
        <ele>1776.9</ele>
        <time>2022-01-14T08:28:48Z</time>
      </trkpt>
      <trkpt lat="44.99511" lon="6.46719">
        <ele>1776.9</ele>
        <time>2022-01-14T08:28:49Z</time>
      </trkpt>
      <trkpt lat="44.99511" lon="6.46717">
        <ele>1776.9</ele>
        <time>2022-01-14T08:28:50Z</time>
      </trkpt>
      <trkpt lat="44.9951" lon="6.46718">
        <ele>1777.1</ele>
        <time>2022-01-14T08:28:51Z</time>
      </trkpt>
      <trkpt lat="44.99511" lon="6.46718">
        <ele>1777.1</ele>
        <time>2022-01-14T08:28:52Z</time>
      </trkpt>
      <trkpt lat="44.99511" lon="6.46718">
        <ele>1777.1</ele>
        <time>2022-01-14T08:28:53Z</time>
      </trkpt>
      <trkpt lat="44.9951" lon="6.46718">
        <ele>1777.1</ele>
        <time>2022-01-14T08:28:54Z</time>
      </trkpt>
      <trkpt lat="44.99509" lon="6.46718">
        <ele>1777.1</ele>
        <time>2022-01-14T08:28:55Z</time>
      </trkpt>
      <trkpt lat="44.99509" lon="6.46719">
        <ele>1777.3</ele>
        <time>2022-01-14T08:28:56Z</time>
      </trkpt>
      <trkpt lat="44.99508" lon="6.46719">
        <ele>1777.5</ele>
        <time>2022-01-14T08:28:57Z</time>
      </trkpt>
      <trkpt lat="44.99508" lon="6.46719">
        <ele>1777.7</ele>
        <time>2022-01-14T08:28:58Z</time>
      </trkpt>
      <trkpt lat="44.99507" lon="6.46718">
        <ele>1777.9</ele>
        <time>2022-01-14T08:28:59Z</time>
      </trkpt>
      <trkpt lat="44.99508" lon="6.46717">
        <ele>1777.9</ele>
        <time>2022-01-14T08:29:00Z</time>
      </trkpt>
      <trkpt lat="44.99507" lon="6.46715">
        <ele>1777.9</ele>
        <time>2022-01-14T08:29:01Z</time>
      </trkpt>
      <trkpt lat="44.99507" lon="6.46715">
        <ele>1778.1</ele>
        <time>2022-01-14T08:29:02Z</time>
      </trkpt>
      <trkpt lat="44.99507" lon="6.46714">
        <ele>1778.3</ele>
        <time>2022-01-14T08:29:03Z</time>
      </trkpt>
      <trkpt lat="44.99506" lon="6.46713">
        <ele>1778.5</ele>
        <time>2022-01-14T08:29:04Z</time>
      </trkpt>
      <trkpt lat="44.99505" lon="6.46712">
        <ele>1778.9</ele>
        <time>2022-01-14T08:29:05Z</time>
      </trkpt>
      <trkpt lat="44.99505" lon="6.46711">
        <ele>1778.9</ele>
        <time>2022-01-14T08:29:06Z</time>
      </trkpt>
      <trkpt lat="44.99505" lon="6.46711">
        <ele>1779.1</ele>
        <time>2022-01-14T08:29:07Z</time>
      </trkpt>
      <trkpt lat="44.99505" lon="6.46711">
        <ele>1779.1</ele>
        <time>2022-01-14T08:29:08Z</time>
      </trkpt>
      <trkpt lat="44.99505" lon="6.46711">
        <ele>1779.1</ele>
        <time>2022-01-14T08:29:09Z</time>
      </trkpt>
      <trkpt lat="44.99505" lon="6.4671">
        <ele>1779.1</ele>
        <time>2022-01-14T08:29:10Z</time>
      </trkpt>
      <trkpt lat="44.99505" lon="6.4671">
        <ele>1779.1</ele>
        <time>2022-01-14T08:29:11Z</time>
      </trkpt>
      <trkpt lat="44.99505" lon="6.46708">
        <ele>1779.1</ele>
        <time>2022-01-14T08:29:12Z</time>
      </trkpt>
      <trkpt lat="44.99505" lon="6.46706">
        <ele>1779.3</ele>
        <time>2022-01-14T08:29:13Z</time>
      </trkpt>
      <trkpt lat="44.99504" lon="6.46708">
        <ele>1779.5</ele>
        <time>2022-01-14T08:29:14Z</time>
      </trkpt>
      <trkpt lat="44.99504" lon="6.46707">
        <ele>1779.5</ele>
        <time>2022-01-14T08:29:15Z</time>
      </trkpt>
      <trkpt lat="44.99504" lon="6.46707">
        <ele>1779.5</ele>
        <time>2022-01-14T08:29:16Z</time>
      </trkpt>
      <trkpt lat="44.99503" lon="6.46707">
        <ele>1779.5</ele>
        <time>2022-01-14T08:29:17Z</time>
      </trkpt>
      <trkpt lat="44.99503" lon="6.46707">
        <ele>1779.7</ele>
        <time>2022-01-14T08:29:18Z</time>
      </trkpt>
      <trkpt lat="44.99503" lon="6.46707">
        <ele>1779.7</ele>
        <time>2022-01-14T08:29:19Z</time>
      </trkpt>
      <trkpt lat="44.99503" lon="6.46706">
        <ele>1779.7</ele>
        <time>2022-01-14T08:29:20Z</time>
      </trkpt>
      <trkpt lat="44.99503" lon="6.46706">
        <ele>1779.7</ele>
        <time>2022-01-14T08:29:21Z</time>
      </trkpt>
      <trkpt lat="44.99503" lon="6.46706">
        <ele>1779.7</ele>
        <time>2022-01-14T08:29:22Z</time>
      </trkpt>
      <trkpt lat="44.99503" lon="6.46705">
        <ele>1779.7</ele>
        <time>2022-01-14T08:29:23Z</time>
      </trkpt>
      <trkpt lat="44.99503" lon="6.46705">
        <ele>1779.7</ele>
        <time>2022-01-14T08:29:24Z</time>
      </trkpt>
      <trkpt lat="44.99503" lon="6.46704">
        <ele>1779.7</ele>
        <time>2022-01-14T08:29:25Z</time>
      </trkpt>
      <trkpt lat="44.99503" lon="6.46704">
        <ele>1779.7</ele>
        <time>2022-01-14T08:29:26Z</time>
      </trkpt>
      <trkpt lat="44.99504" lon="6.46703">
        <ele>1779.7</ele>
        <time>2022-01-14T08:29:27Z</time>
      </trkpt>
      <trkpt lat="44.99504" lon="6.46703">
        <ele>1779.7</ele>
        <time>2022-01-14T08:29:28Z</time>
      </trkpt>
      <trkpt lat="44.99504" lon="6.46702">
        <ele>1779.7</ele>
        <time>2022-01-14T08:29:29Z</time>
      </trkpt>
      <trkpt lat="44.99504" lon="6.46702">
        <ele>1779.7</ele>
        <time>2022-01-14T08:29:30Z</time>
      </trkpt>
      <trkpt lat="44.99504" lon="6.46701">
        <ele>1779.7</ele>
        <time>2022-01-14T08:29:31Z</time>
      </trkpt>
      <trkpt lat="44.99504" lon="6.46701">
        <ele>1779.7</ele>
        <time>2022-01-14T08:29:32Z</time>
      </trkpt>
      <trkpt lat="44.99504" lon="6.46699">
        <ele>1779.9</ele>
        <time>2022-01-14T08:29:33Z</time>
      </trkpt>
      <trkpt lat="44.99504" lon="6.46698">
        <ele>1779.9</ele>
        <time>2022-01-14T08:29:34Z</time>
      </trkpt>
      <trkpt lat="44.99504" lon="6.46697">
        <ele>1779.9</ele>
        <time>2022-01-14T08:29:35Z</time>
      </trkpt>
      <trkpt lat="44.99505" lon="6.46697">
        <ele>1779.9</ele>
        <time>2022-01-14T08:29:36Z</time>
      </trkpt>
      <trkpt lat="44.99504" lon="6.46696">
        <ele>1780.1</ele>
        <time>2022-01-14T08:29:37Z</time>
      </trkpt>
      <trkpt lat="44.99505" lon="6.46693">
        <ele>1780.1</ele>
        <time>2022-01-14T08:29:38Z</time>
      </trkpt>
      <trkpt lat="44.99505" lon="6.46691">
        <ele>1780.7</ele>
        <time>2022-01-14T08:29:39Z</time>
      </trkpt>
      <trkpt lat="44.99505" lon="6.46692">
        <ele>1781.3</ele>
        <time>2022-01-14T08:29:40Z</time>
      </trkpt>
      <trkpt lat="44.99505" lon="6.46692">
        <ele>1781.1</ele>
        <time>2022-01-14T08:29:41Z</time>
      </trkpt>
      <trkpt lat="44.99505" lon="6.46688">
        <ele>1781.1</ele>
        <time>2022-01-14T08:29:42Z</time>
      </trkpt>
      <trkpt lat="44.99505" lon="6.46686">
        <ele>1782.3</ele>
        <time>2022-01-14T08:29:43Z</time>
      </trkpt>
      <trkpt lat="44.99504" lon="6.46684">
        <ele>1783.1</ele>
        <time>2022-01-14T08:29:44Z</time>
      </trkpt>
      <trkpt lat="44.99503" lon="6.46681">
        <ele>1783.9</ele>
        <time>2022-01-14T08:29:45Z</time>
      </trkpt>
      <trkpt lat="44.99503" lon="6.46679">
        <ele>1784.5</ele>
        <time>2022-01-14T08:29:46Z</time>
      </trkpt>
      <trkpt lat="44.99502" lon="6.46678">
        <ele>1784.9</ele>
        <time>2022-01-14T08:29:47Z</time>
      </trkpt>
      <trkpt lat="44.99502" lon="6.46677">
        <ele>1785.7</ele>
        <time>2022-01-14T08:29:48Z</time>
      </trkpt>
      <trkpt lat="44.99503" lon="6.46675">
        <ele>1786.3</ele>
        <time>2022-01-14T08:29:49Z</time>
      </trkpt>
      <trkpt lat="44.99503" lon="6.46674">
        <ele>1786.7</ele>
        <time>2022-01-14T08:29:50Z</time>
      </trkpt>
      <trkpt lat="44.99503" lon="6.46674">
        <ele>1787.1</ele>
        <time>2022-01-14T08:29:51Z</time>
      </trkpt>
      <trkpt lat="44.99502" lon="6.46673">
        <ele>1787.3</ele>
        <time>2022-01-14T08:29:52Z</time>
      </trkpt>
      <trkpt lat="44.99501" lon="6.46673">
        <ele>1787.7</ele>
        <time>2022-01-14T08:29:53Z</time>
      </trkpt>
      <trkpt lat="44.995" lon="6.46673">
        <ele>1787.5</ele>
        <time>2022-01-14T08:29:54Z</time>
      </trkpt>
      <trkpt lat="44.995" lon="6.46671">
        <ele>1787.7</ele>
        <time>2022-01-14T08:29:55Z</time>
      </trkpt>
      <trkpt lat="44.99499" lon="6.46671">
        <ele>1788.1</ele>
        <time>2022-01-14T08:29:56Z</time>
      </trkpt>
      <trkpt lat="44.99499" lon="6.4667">
        <ele>1788.3</ele>
        <time>2022-01-14T08:29:57Z</time>
      </trkpt>
      <trkpt lat="44.99498" lon="6.46669">
        <ele>1788.7</ele>
        <time>2022-01-14T08:29:58Z</time>
      </trkpt>
      <trkpt lat="44.99498" lon="6.46667">
        <ele>1789.1</ele>
        <time>2022-01-14T08:29:59Z</time>
      </trkpt>
      <trkpt lat="44.99497" lon="6.46667">
        <ele>1789.5</ele>
        <time>2022-01-14T08:30:00Z</time>
      </trkpt>
      <trkpt lat="44.99497" lon="6.46667">
        <ele>1789.5</ele>
        <time>2022-01-14T08:30:01Z</time>
      </trkpt>
      <trkpt lat="44.99497" lon="6.46666">
        <ele>1789.7</ele>
        <time>2022-01-14T08:30:02Z</time>
      </trkpt>
      <trkpt lat="44.99497" lon="6.46666">
        <ele>1789.9</ele>
        <time>2022-01-14T08:30:03Z</time>
      </trkpt>
      <trkpt lat="44.99497" lon="6.46666">
        <ele>1789.7</ele>
        <time>2022-01-14T08:30:04Z</time>
      </trkpt>
      <trkpt lat="44.99496" lon="6.46666">
        <ele>1789.7</ele>
        <time>2022-01-14T08:30:05Z</time>
      </trkpt>
      <trkpt lat="44.99496" lon="6.46665">
        <ele>1789.7</ele>
        <time>2022-01-14T08:30:06Z</time>
      </trkpt>
      <trkpt lat="44.99496" lon="6.46665">
        <ele>1789.7</ele>
        <time>2022-01-14T08:30:07Z</time>
      </trkpt>
      <trkpt lat="44.99496" lon="6.46665">
        <ele>1789.9</ele>
        <time>2022-01-14T08:30:08Z</time>
      </trkpt>
      <trkpt lat="44.99496" lon="6.46663">
        <ele>1790.5</ele>
        <time>2022-01-14T08:30:09Z</time>
      </trkpt>
      <trkpt lat="44.99495" lon="6.46662">
        <ele>1791.3</ele>
        <time>2022-01-14T08:30:10Z</time>
      </trkpt>
      <trkpt lat="44.99494" lon="6.46661">
        <ele>1791.5</ele>
        <time>2022-01-14T08:30:11Z</time>
      </trkpt>
      <trkpt lat="44.99494" lon="6.46659">
        <ele>1792.3</ele>
        <time>2022-01-14T08:30:12Z</time>
      </trkpt>
      <trkpt lat="44.99493" lon="6.46658">
        <ele>1792.9</ele>
        <time>2022-01-14T08:30:13Z</time>
      </trkpt>
      <trkpt lat="44.99493" lon="6.46656">
        <ele>1794.9</ele>
        <time>2022-01-14T08:30:14Z</time>
      </trkpt>
      <trkpt lat="44.99493" lon="6.46656">
        <ele>1796.5</ele>
        <time>2022-01-14T08:30:15Z</time>
      </trkpt>
      <trkpt lat="44.99493" lon="6.46655">
        <ele>1797.9</ele>
        <time>2022-01-14T08:30:16Z</time>
      </trkpt>
      <trkpt lat="44.99494" lon="6.46655">
        <ele>1798.7</ele>
        <time>2022-01-14T08:30:17Z</time>
      </trkpt>
      <trkpt lat="44.99494" lon="6.46655">
        <ele>1799.5</ele>
        <time>2022-01-14T08:30:18Z</time>
      </trkpt>
      <trkpt lat="44.99494" lon="6.46654">
        <ele>1800.1</ele>
        <time>2022-01-14T08:30:19Z</time>
      </trkpt>
      <trkpt lat="44.99494" lon="6.46653">
        <ele>1800.7</ele>
        <time>2022-01-14T08:30:20Z</time>
      </trkpt>
      <trkpt lat="44.99494" lon="6.46652">
        <ele>1800.9</ele>
        <time>2022-01-14T08:30:21Z</time>
      </trkpt>
      <trkpt lat="44.99494" lon="6.46652">
        <ele>1801.3</ele>
        <time>2022-01-14T08:30:22Z</time>
      </trkpt>
      <trkpt lat="44.99494" lon="6.46651">
        <ele>1796.5</ele>
        <time>2022-01-14T08:30:23Z</time>
      </trkpt>
      <trkpt lat="44.99494" lon="6.46651">
        <ele>1797.7</ele>
        <time>2022-01-14T08:30:24Z</time>
      </trkpt>
      <trkpt lat="44.99494" lon="6.4665">
        <ele>1796.3</ele>
        <time>2022-01-14T08:30:25Z</time>
      </trkpt>
      <trkpt lat="44.99494" lon="6.46649">
        <ele>1796.7</ele>
        <time>2022-01-14T08:30:26Z</time>
      </trkpt>
      <trkpt lat="44.99495" lon="6.46649">
        <ele>1796.9</ele>
        <time>2022-01-14T08:30:27Z</time>
      </trkpt>
      <trkpt lat="44.99495" lon="6.46648">
        <ele>1796.9</ele>
        <time>2022-01-14T08:30:28Z</time>
      </trkpt>
      <trkpt lat="44.99496" lon="6.46647">
        <ele>1798.5</ele>
        <time>2022-01-14T08:30:29Z</time>
      </trkpt>
      <trkpt lat="44.99497" lon="6.46646">
        <ele>1799.9</ele>
        <time>2022-01-14T08:30:30Z</time>
      </trkpt>
      <trkpt lat="44.99498" lon="6.46646">
        <ele>1801.1</ele>
        <time>2022-01-14T08:30:31Z</time>
      </trkpt>
      <trkpt lat="44.99498" lon="6.46644">
        <ele>1802.1</ele>
        <time>2022-01-14T08:30:32Z</time>
      </trkpt>
      <trkpt lat="44.99499" lon="6.46644">
        <ele>1802.8</ele>
        <time>2022-01-14T08:30:33Z</time>
      </trkpt>
      <trkpt lat="44.99499" lon="6.46643">
        <ele>1803.6</ele>
        <time>2022-01-14T08:30:34Z</time>
      </trkpt>
      <trkpt lat="44.99499" lon="6.46642">
        <ele>1804.3</ele>
        <time>2022-01-14T08:30:35Z</time>
      </trkpt>
      <trkpt lat="44.99499" lon="6.4664">
        <ele>1804.8</ele>
        <time>2022-01-14T08:30:36Z</time>
      </trkpt>
      <trkpt lat="44.99499" lon="6.46639">
        <ele>1805.3</ele>
        <time>2022-01-14T08:30:37Z</time>
      </trkpt>
      <trkpt lat="44.99499" lon="6.46638">
        <ele>1805.8</ele>
        <time>2022-01-14T08:30:38Z</time>
      </trkpt>
      <trkpt lat="44.99499" lon="6.46638">
        <ele>1806.1</ele>
        <time>2022-01-14T08:30:39Z</time>
      </trkpt>
      <trkpt lat="44.99499" lon="6.46639">
        <ele>1806.6</ele>
        <time>2022-01-14T08:30:40Z</time>
      </trkpt>
      <trkpt lat="44.99499" lon="6.46638">
        <ele>1806.9</ele>
        <time>2022-01-14T08:30:41Z</time>
      </trkpt>
      <trkpt lat="44.99499" lon="6.46638">
        <ele>1807.2</ele>
        <time>2022-01-14T08:30:42Z</time>
      </trkpt>
      <trkpt lat="44.99499" lon="6.46639">
        <ele>1800.6</ele>
        <time>2022-01-14T08:30:43Z</time>
      </trkpt>
      <trkpt lat="44.995" lon="6.46638">
        <ele>1799.9</ele>
        <time>2022-01-14T08:30:44Z</time>
      </trkpt>
      <trkpt lat="44.99501" lon="6.46636">
        <ele>1799.9</ele>
        <time>2022-01-14T08:30:45Z</time>
      </trkpt>
      <trkpt lat="44.99502" lon="6.46636">
        <ele>1799.9</ele>
        <time>2022-01-14T08:30:46Z</time>
      </trkpt>
      <trkpt lat="44.99502" lon="6.46635">
        <ele>1799.9</ele>
        <time>2022-01-14T08:30:47Z</time>
      </trkpt>
      <trkpt lat="44.99503" lon="6.46634">
        <ele>1800.2</ele>
        <time>2022-01-14T08:30:48Z</time>
      </trkpt>
      <trkpt lat="44.99503" lon="6.46633">
        <ele>1800.5</ele>
        <time>2022-01-14T08:30:49Z</time>
      </trkpt>
      <trkpt lat="44.99503" lon="6.46632">
        <ele>1801</ele>
        <time>2022-01-14T08:30:50Z</time>
      </trkpt>
      <trkpt lat="44.99503" lon="6.46632">
        <ele>1801</ele>
        <time>2022-01-14T08:30:51Z</time>
      </trkpt>
      <trkpt lat="44.99503" lon="6.46632">
        <ele>1800.9</ele>
        <time>2022-01-14T08:30:52Z</time>
      </trkpt>
      <trkpt lat="44.99503" lon="6.46632">
        <ele>1800.9</ele>
        <time>2022-01-14T08:30:53Z</time>
      </trkpt>
      <trkpt lat="44.99503" lon="6.46632">
        <ele>1800.6</ele>
        <time>2022-01-14T08:30:54Z</time>
      </trkpt>
      <trkpt lat="44.99503" lon="6.46633">
        <ele>1800.9</ele>
        <time>2022-01-14T08:30:55Z</time>
      </trkpt>
      <trkpt lat="44.99504" lon="6.46633">
        <ele>1800.4</ele>
        <time>2022-01-14T08:30:56Z</time>
      </trkpt>
      <trkpt lat="44.99504" lon="6.46632">
        <ele>1800.5</ele>
        <time>2022-01-14T08:30:57Z</time>
      </trkpt>
      <trkpt lat="44.99504" lon="6.46631">
        <ele>1802.2</ele>
        <time>2022-01-14T08:30:58Z</time>
      </trkpt>
      <trkpt lat="44.99504" lon="6.46629">
        <ele>1802.3</ele>
        <time>2022-01-14T08:30:59Z</time>
      </trkpt>
      <trkpt lat="44.99504" lon="6.46628">
        <ele>1802.7</ele>
        <time>2022-01-14T08:31:00Z</time>
      </trkpt>
      <trkpt lat="44.99505" lon="6.46627">
        <ele>1803</ele>
        <time>2022-01-14T08:31:01Z</time>
      </trkpt>
      <trkpt lat="44.99504" lon="6.46629">
        <ele>1803.1</ele>
        <time>2022-01-14T08:31:02Z</time>
      </trkpt>
      <trkpt lat="44.99503" lon="6.46628">
        <ele>1803</ele>
        <time>2022-01-14T08:31:03Z</time>
      </trkpt>
      <trkpt lat="44.99503" lon="6.46627">
        <ele>1803.6</ele>
        <time>2022-01-14T08:31:04Z</time>
      </trkpt>
      <trkpt lat="44.99503" lon="6.46625">
        <ele>1803.9</ele>
        <time>2022-01-14T08:31:05Z</time>
      </trkpt>
      <trkpt lat="44.99503" lon="6.46624">
        <ele>1804.1</ele>
        <time>2022-01-14T08:31:06Z</time>
      </trkpt>
      <trkpt lat="44.99503" lon="6.46623">
        <ele>1804.3</ele>
        <time>2022-01-14T08:31:07Z</time>
      </trkpt>
      <trkpt lat="44.99503" lon="6.46622">
        <ele>1804.5</ele>
        <time>2022-01-14T08:31:08Z</time>
      </trkpt>
      <trkpt lat="44.99503" lon="6.46622">
        <ele>1804.8</ele>
        <time>2022-01-14T08:31:09Z</time>
      </trkpt>
      <trkpt lat="44.99502" lon="6.4662">
        <ele>1805</ele>
        <time>2022-01-14T08:31:10Z</time>
      </trkpt>
      <trkpt lat="44.99503" lon="6.46619">
        <ele>1805.4</ele>
        <time>2022-01-14T08:31:11Z</time>
      </trkpt>
      <trkpt lat="44.99503" lon="6.46618">
        <ele>1805.5</ele>
        <time>2022-01-14T08:31:12Z</time>
      </trkpt>
      <trkpt lat="44.99503" lon="6.46617">
        <ele>1805.6</ele>
        <time>2022-01-14T08:31:13Z</time>
      </trkpt>
      <trkpt lat="44.99503" lon="6.46617">
        <ele>1805.6</ele>
        <time>2022-01-14T08:31:14Z</time>
      </trkpt>
      <trkpt lat="44.99503" lon="6.46616">
        <ele>1805.1</ele>
        <time>2022-01-14T08:31:15Z</time>
      </trkpt>
      <trkpt lat="44.99503" lon="6.46615">
        <ele>1805.3</ele>
        <time>2022-01-14T08:31:16Z</time>
      </trkpt>
      <trkpt lat="44.99503" lon="6.46614">
        <ele>1808.4</ele>
        <time>2022-01-14T08:31:17Z</time>
      </trkpt>
      <trkpt lat="44.99504" lon="6.46614">
        <ele>1808.6</ele>
        <time>2022-01-14T08:31:18Z</time>
      </trkpt>
      <trkpt lat="44.99505" lon="6.46614">
        <ele>1805.5</ele>
        <time>2022-01-14T08:31:19Z</time>
      </trkpt>
      <trkpt lat="44.99506" lon="6.46612">
        <ele>1808.5</ele>
        <time>2022-01-14T08:31:20Z</time>
      </trkpt>
      <trkpt lat="44.99507" lon="6.4661">
        <ele>1808.6</ele>
        <time>2022-01-14T08:31:21Z</time>
      </trkpt>
      <trkpt lat="44.99507" lon="6.46609">
        <ele>1808.7</ele>
        <time>2022-01-14T08:31:22Z</time>
      </trkpt>
      <trkpt lat="44.99508" lon="6.46609">
        <ele>1808.9</ele>
        <time>2022-01-14T08:31:23Z</time>
      </trkpt>
      <trkpt lat="44.99508" lon="6.46608">
        <ele>1808.9</ele>
        <time>2022-01-14T08:31:24Z</time>
      </trkpt>
      <trkpt lat="44.99508" lon="6.46607">
        <ele>1809</ele>
        <time>2022-01-14T08:31:25Z</time>
      </trkpt>
      <trkpt lat="44.99508" lon="6.46607">
        <ele>1809.2</ele>
        <time>2022-01-14T08:31:26Z</time>
      </trkpt>
      <trkpt lat="44.99509" lon="6.46607">
        <ele>1809.1</ele>
        <time>2022-01-14T08:31:27Z</time>
      </trkpt>
      <trkpt lat="44.99509" lon="6.46607">
        <ele>1809.1</ele>
        <time>2022-01-14T08:31:28Z</time>
      </trkpt>
      <trkpt lat="44.99509" lon="6.46606">
        <ele>1809.2</ele>
        <time>2022-01-14T08:31:29Z</time>
      </trkpt>
      <trkpt lat="44.99509" lon="6.46606">
        <ele>1809.3</ele>
        <time>2022-01-14T08:31:30Z</time>
      </trkpt>
      <trkpt lat="44.99509" lon="6.46605">
        <ele>1809.4</ele>
        <time>2022-01-14T08:31:31Z</time>
      </trkpt>
      <trkpt lat="44.99509" lon="6.46604">
        <ele>1809.5</ele>
        <time>2022-01-14T08:31:32Z</time>
      </trkpt>
      <trkpt lat="44.9951" lon="6.46604">
        <ele>1809.6</ele>
        <time>2022-01-14T08:31:33Z</time>
      </trkpt>
      <trkpt lat="44.99511" lon="6.46604">
        <ele>1809.5</ele>
        <time>2022-01-14T08:31:34Z</time>
      </trkpt>
      <trkpt lat="44.99511" lon="6.46604">
        <ele>1809.6</ele>
        <time>2022-01-14T08:31:35Z</time>
      </trkpt>
      <trkpt lat="44.99511" lon="6.46604">
        <ele>1809.5</ele>
        <time>2022-01-14T08:31:36Z</time>
      </trkpt>
      <trkpt lat="44.99512" lon="6.46603">
        <ele>1809.5</ele>
        <time>2022-01-14T08:31:37Z</time>
      </trkpt>
      <trkpt lat="44.99511" lon="6.46603">
        <ele>1809.6</ele>
        <time>2022-01-14T08:31:38Z</time>
      </trkpt>
      <trkpt lat="44.99511" lon="6.46603">
        <ele>1809.7</ele>
        <time>2022-01-14T08:31:39Z</time>
      </trkpt>
      <trkpt lat="44.99512" lon="6.46602">
        <ele>1809.7</ele>
        <time>2022-01-14T08:31:40Z</time>
      </trkpt>
      <trkpt lat="44.99511" lon="6.46602">
        <ele>1809.8</ele>
        <time>2022-01-14T08:31:41Z</time>
      </trkpt>
      <trkpt lat="44.99512" lon="6.466">
        <ele>1809.9</ele>
        <time>2022-01-14T08:31:42Z</time>
      </trkpt>
      <trkpt lat="44.99511" lon="6.46599">
        <ele>1810</ele>
        <time>2022-01-14T08:31:43Z</time>
      </trkpt>
      <trkpt lat="44.99511" lon="6.466">
        <ele>1810.1</ele>
        <time>2022-01-14T08:31:44Z</time>
      </trkpt>
      <trkpt lat="44.9951" lon="6.46599">
        <ele>1810.1</ele>
        <time>2022-01-14T08:31:45Z</time>
      </trkpt>
      <trkpt lat="44.9951" lon="6.46597">
        <ele>1810.8</ele>
        <time>2022-01-14T08:31:46Z</time>
      </trkpt>
      <trkpt lat="44.9951" lon="6.46596">
        <ele>1815.8</ele>
        <time>2022-01-14T08:31:47Z</time>
      </trkpt>
      <trkpt lat="44.9951" lon="6.46595">
        <ele>1815.2</ele>
        <time>2022-01-14T08:31:48Z</time>
      </trkpt>
      <trkpt lat="44.99509" lon="6.46594">
        <ele>1815.3</ele>
        <time>2022-01-14T08:31:49Z</time>
      </trkpt>
      <trkpt lat="44.99509" lon="6.46594">
        <ele>1815.5</ele>
        <time>2022-01-14T08:31:50Z</time>
      </trkpt>
      <trkpt lat="44.99508" lon="6.46594">
        <ele>1815.6</ele>
        <time>2022-01-14T08:31:51Z</time>
      </trkpt>
      <trkpt lat="44.99507" lon="6.46593">
        <ele>1815.7</ele>
        <time>2022-01-14T08:31:52Z</time>
      </trkpt>
      <trkpt lat="44.99507" lon="6.46593">
        <ele>1815.9</ele>
        <time>2022-01-14T08:31:53Z</time>
      </trkpt>
      <trkpt lat="44.99507" lon="6.46593">
        <ele>1815.9</ele>
        <time>2022-01-14T08:31:54Z</time>
      </trkpt>
      <trkpt lat="44.99507" lon="6.46593">
        <ele>1816</ele>
        <time>2022-01-14T08:31:55Z</time>
      </trkpt>
      <trkpt lat="44.99507" lon="6.46592">
        <ele>1816</ele>
        <time>2022-01-14T08:31:56Z</time>
      </trkpt>
      <trkpt lat="44.99507" lon="6.46591">
        <ele>1816.2</ele>
        <time>2022-01-14T08:31:57Z</time>
      </trkpt>
      <trkpt lat="44.99506" lon="6.4659">
        <ele>1816.4</ele>
        <time>2022-01-14T08:31:58Z</time>
      </trkpt>
      <trkpt lat="44.99506" lon="6.46588">
        <ele>1816.5</ele>
        <time>2022-01-14T08:31:59Z</time>
      </trkpt>
      <trkpt lat="44.99506" lon="6.46587">
        <ele>1816.6</ele>
        <time>2022-01-14T08:32:00Z</time>
      </trkpt>
      <trkpt lat="44.99505" lon="6.46586">
        <ele>1816.7</ele>
        <time>2022-01-14T08:32:01Z</time>
      </trkpt>
      <trkpt lat="44.99505" lon="6.46586">
        <ele>1816.7</ele>
        <time>2022-01-14T08:32:02Z</time>
      </trkpt>
      <trkpt lat="44.99506" lon="6.46586">
        <ele>1816.5</ele>
        <time>2022-01-14T08:32:03Z</time>
      </trkpt>
      <trkpt lat="44.99506" lon="6.46585">
        <ele>1816.4</ele>
        <time>2022-01-14T08:32:04Z</time>
      </trkpt>
      <trkpt lat="44.99505" lon="6.46583">
        <ele>1816.5</ele>
        <time>2022-01-14T08:32:05Z</time>
      </trkpt>
      <trkpt lat="44.99505" lon="6.46582">
        <ele>1816.5</ele>
        <time>2022-01-14T08:32:06Z</time>
      </trkpt>
      <trkpt lat="44.99504" lon="6.46581">
        <ele>1816.5</ele>
        <time>2022-01-14T08:32:07Z</time>
      </trkpt>
      <trkpt lat="44.99504" lon="6.46581">
        <ele>1816.6</ele>
        <time>2022-01-14T08:32:08Z</time>
      </trkpt>
      <trkpt lat="44.99503" lon="6.46581">
        <ele>1817.7</ele>
        <time>2022-01-14T08:32:09Z</time>
      </trkpt>
      <trkpt lat="44.99502" lon="6.4658">
        <ele>1817.7</ele>
        <time>2022-01-14T08:32:10Z</time>
      </trkpt>
      <trkpt lat="44.99502" lon="6.46579">
        <ele>1824.4</ele>
        <time>2022-01-14T08:32:11Z</time>
      </trkpt>
      <trkpt lat="44.99501" lon="6.46579">
        <ele>1824.4</ele>
        <time>2022-01-14T08:32:12Z</time>
      </trkpt>
      <trkpt lat="44.995" lon="6.4658">
        <ele>1817.7</ele>
        <time>2022-01-14T08:32:13Z</time>
      </trkpt>
      <trkpt lat="44.995" lon="6.46579">
        <ele>1824.4</ele>
        <time>2022-01-14T08:32:14Z</time>
      </trkpt>
      <trkpt lat="44.99499" lon="6.46579">
        <ele>1824.4</ele>
        <time>2022-01-14T08:32:15Z</time>
      </trkpt>
      <trkpt lat="44.99499" lon="6.46578">
        <ele>1824.4</ele>
        <time>2022-01-14T08:32:16Z</time>
      </trkpt>
      <trkpt lat="44.99499" lon="6.46578">
        <ele>1824.4</ele>
        <time>2022-01-14T08:32:17Z</time>
      </trkpt>
      <trkpt lat="44.99499" lon="6.46578">
        <ele>1824.4</ele>
        <time>2022-01-14T08:32:18Z</time>
      </trkpt>
      <trkpt lat="44.99499" lon="6.46579">
        <ele>1824.4</ele>
        <time>2022-01-14T08:32:19Z</time>
      </trkpt>
      <trkpt lat="44.99499" lon="6.46578">
        <ele>1824.4</ele>
        <time>2022-01-14T08:32:20Z</time>
      </trkpt>
      <trkpt lat="44.99499" lon="6.46577">
        <ele>1824.4</ele>
        <time>2022-01-14T08:32:21Z</time>
      </trkpt>
      <trkpt lat="44.99499" lon="6.46576">
        <ele>1824.4</ele>
        <time>2022-01-14T08:32:22Z</time>
      </trkpt>
      <trkpt lat="44.99499" lon="6.46576">
        <ele>1824.4</ele>
        <time>2022-01-14T08:32:23Z</time>
      </trkpt>
      <trkpt lat="44.99499" lon="6.46575">
        <ele>1824.4</ele>
        <time>2022-01-14T08:32:24Z</time>
      </trkpt>
      <trkpt lat="44.99498" lon="6.46575">
        <ele>1824.4</ele>
        <time>2022-01-14T08:32:25Z</time>
      </trkpt>
      <trkpt lat="44.99498" lon="6.46574">
        <ele>1824.4</ele>
        <time>2022-01-14T08:32:26Z</time>
      </trkpt>
      <trkpt lat="44.99498" lon="6.46573">
        <ele>1824.4</ele>
        <time>2022-01-14T08:32:27Z</time>
      </trkpt>
      <trkpt lat="44.99497" lon="6.46572">
        <ele>1824.4</ele>
        <time>2022-01-14T08:32:28Z</time>
      </trkpt>
      <trkpt lat="44.99498" lon="6.46572">
        <ele>1824.4</ele>
        <time>2022-01-14T08:32:29Z</time>
      </trkpt>
      <trkpt lat="44.99497" lon="6.46572">
        <ele>1824.4</ele>
        <time>2022-01-14T08:32:30Z</time>
      </trkpt>
      <trkpt lat="44.99498" lon="6.46571">
        <ele>1824.4</ele>
        <time>2022-01-14T08:32:31Z</time>
      </trkpt>
      <trkpt lat="44.99497" lon="6.4657">
        <ele>1824.4</ele>
        <time>2022-01-14T08:32:32Z</time>
      </trkpt>
      <trkpt lat="44.99497" lon="6.4657">
        <ele>1824.4</ele>
        <time>2022-01-14T08:32:33Z</time>
      </trkpt>
      <trkpt lat="44.99496" lon="6.4657">
        <ele>1824.4</ele>
        <time>2022-01-14T08:32:34Z</time>
      </trkpt>
      <trkpt lat="44.99495" lon="6.46571">
        <ele>1824.4</ele>
        <time>2022-01-14T08:32:35Z</time>
      </trkpt>
      <trkpt lat="44.99495" lon="6.4657">
        <ele>1824.4</ele>
        <time>2022-01-14T08:32:36Z</time>
      </trkpt>
      <trkpt lat="44.99495" lon="6.46569">
        <ele>1824.4</ele>
        <time>2022-01-14T08:32:37Z</time>
      </trkpt>
      <trkpt lat="44.99494" lon="6.46569">
        <ele>1824.4</ele>
        <time>2022-01-14T08:32:38Z</time>
      </trkpt>
      <trkpt lat="44.99493" lon="6.46569">
        <ele>1824.4</ele>
        <time>2022-01-14T08:32:39Z</time>
      </trkpt>
      <trkpt lat="44.99493" lon="6.46569">
        <ele>1824.4</ele>
        <time>2022-01-14T08:32:40Z</time>
      </trkpt>
      <trkpt lat="44.99493" lon="6.46569">
        <ele>1824.4</ele>
        <time>2022-01-14T08:32:41Z</time>
      </trkpt>
      <trkpt lat="44.99493" lon="6.46567">
        <ele>1824.4</ele>
        <time>2022-01-14T08:32:42Z</time>
      </trkpt>
      <trkpt lat="44.99493" lon="6.46566">
        <ele>1824.4</ele>
        <time>2022-01-14T08:32:43Z</time>
      </trkpt>
      <trkpt lat="44.99493" lon="6.46565">
        <ele>1824.4</ele>
        <time>2022-01-14T08:32:44Z</time>
      </trkpt>
      <trkpt lat="44.99493" lon="6.46564">
        <ele>1824.4</ele>
        <time>2022-01-14T08:32:45Z</time>
      </trkpt>
      <trkpt lat="44.99493" lon="6.46564">
        <ele>1824.4</ele>
        <time>2022-01-14T08:32:46Z</time>
      </trkpt>
      <trkpt lat="44.99492" lon="6.46564">
        <ele>1824.4</ele>
        <time>2022-01-14T08:32:47Z</time>
      </trkpt>
      <trkpt lat="44.99492" lon="6.46564">
        <ele>1824.4</ele>
        <time>2022-01-14T08:32:48Z</time>
      </trkpt>
      <trkpt lat="44.99492" lon="6.46564">
        <ele>1824.4</ele>
        <time>2022-01-14T08:32:49Z</time>
      </trkpt>
      <trkpt lat="44.99492" lon="6.46564">
        <ele>1824.4</ele>
        <time>2022-01-14T08:32:50Z</time>
      </trkpt>
      <trkpt lat="44.99492" lon="6.46563">
        <ele>1824.4</ele>
        <time>2022-01-14T08:32:51Z</time>
      </trkpt>
      <trkpt lat="44.99491" lon="6.46563">
        <ele>1825.4</ele>
        <time>2022-01-14T08:32:52Z</time>
      </trkpt>
      <trkpt lat="44.9949" lon="6.46564">
        <ele>1825.4</ele>
        <time>2022-01-14T08:32:53Z</time>
      </trkpt>
      <trkpt lat="44.99488" lon="6.46563">
        <ele>1825.4</ele>
        <time>2022-01-14T08:32:54Z</time>
      </trkpt>
      <trkpt lat="44.99487" lon="6.46562">
        <ele>1831.9</ele>
        <time>2022-01-14T08:32:55Z</time>
      </trkpt>
      <trkpt lat="44.99486" lon="6.46562">
        <ele>1831.9</ele>
        <time>2022-01-14T08:32:56Z</time>
      </trkpt>
      <trkpt lat="44.99486" lon="6.46562">
        <ele>1831.9</ele>
        <time>2022-01-14T08:32:57Z</time>
      </trkpt>
      <trkpt lat="44.99485" lon="6.46562">
        <ele>1831.9</ele>
        <time>2022-01-14T08:32:58Z</time>
      </trkpt>
      <trkpt lat="44.99486" lon="6.46561">
        <ele>1831.9</ele>
        <time>2022-01-14T08:32:59Z</time>
      </trkpt>
      <trkpt lat="44.99486" lon="6.46561">
        <ele>1831.9</ele>
        <time>2022-01-14T08:33:00Z</time>
      </trkpt>
      <trkpt lat="44.99486" lon="6.46561">
        <ele>1831.9</ele>
        <time>2022-01-14T08:33:01Z</time>
      </trkpt>
      <trkpt lat="44.99486" lon="6.4656">
        <ele>1831.9</ele>
        <time>2022-01-14T08:33:02Z</time>
      </trkpt>
      <trkpt lat="44.99486" lon="6.4656">
        <ele>1831.9</ele>
        <time>2022-01-14T08:33:03Z</time>
      </trkpt>
      <trkpt lat="44.99485" lon="6.4656">
        <ele>1831.9</ele>
        <time>2022-01-14T08:33:04Z</time>
      </trkpt>
      <trkpt lat="44.99485" lon="6.4656">
        <ele>1831.9</ele>
        <time>2022-01-14T08:33:05Z</time>
      </trkpt>
      <trkpt lat="44.99485" lon="6.4656">
        <ele>1831.9</ele>
        <time>2022-01-14T08:33:06Z</time>
      </trkpt>
      <trkpt lat="44.99485" lon="6.46561">
        <ele>1831.9</ele>
        <time>2022-01-14T08:33:07Z</time>
      </trkpt>
      <trkpt lat="44.99484" lon="6.4656">
        <ele>1831.9</ele>
        <time>2022-01-14T08:33:08Z</time>
      </trkpt>
      <trkpt lat="44.99483" lon="6.4656">
        <ele>1831.9</ele>
        <time>2022-01-14T08:33:09Z</time>
      </trkpt>
      <trkpt lat="44.99482" lon="6.46559">
        <ele>1831.9</ele>
        <time>2022-01-14T08:33:10Z</time>
      </trkpt>
      <trkpt lat="44.99481" lon="6.46559">
        <ele>1831.9</ele>
        <time>2022-01-14T08:33:11Z</time>
      </trkpt>
      <trkpt lat="44.9948" lon="6.46558">
        <ele>1831.9</ele>
        <time>2022-01-14T08:33:12Z</time>
      </trkpt>
      <trkpt lat="44.99479" lon="6.46558">
        <ele>1831.9</ele>
        <time>2022-01-14T08:33:13Z</time>
      </trkpt>
      <trkpt lat="44.99479" lon="6.46557">
        <ele>1833.2</ele>
        <time>2022-01-14T08:33:14Z</time>
      </trkpt>
      <trkpt lat="44.99479" lon="6.46558">
        <ele>1833.2</ele>
        <time>2022-01-14T08:33:15Z</time>
      </trkpt>
      <trkpt lat="44.99478" lon="6.46558">
        <ele>1833.2</ele>
        <time>2022-01-14T08:33:16Z</time>
      </trkpt>
      <trkpt lat="44.99477" lon="6.46558">
        <ele>1833.2</ele>
        <time>2022-01-14T08:33:17Z</time>
      </trkpt>
      <trkpt lat="44.99477" lon="6.46557">
        <ele>1833.2</ele>
        <time>2022-01-14T08:33:18Z</time>
      </trkpt>
      <trkpt lat="44.99477" lon="6.46556">
        <ele>1833.2</ele>
        <time>2022-01-14T08:33:19Z</time>
      </trkpt>
      <trkpt lat="44.99477" lon="6.46556">
        <ele>1833.2</ele>
        <time>2022-01-14T08:33:20Z</time>
      </trkpt>
      <trkpt lat="44.99477" lon="6.46555">
        <ele>1833.2</ele>
        <time>2022-01-14T08:33:21Z</time>
      </trkpt>
      <trkpt lat="44.99477" lon="6.46554">
        <ele>1833.2</ele>
        <time>2022-01-14T08:33:22Z</time>
      </trkpt>
      <trkpt lat="44.99478" lon="6.46555">
        <ele>1833.2</ele>
        <time>2022-01-14T08:33:23Z</time>
      </trkpt>
      <trkpt lat="44.99478" lon="6.46553">
        <ele>1833.2</ele>
        <time>2022-01-14T08:33:24Z</time>
      </trkpt>
      <trkpt lat="44.99478" lon="6.46553">
        <ele>1833.2</ele>
        <time>2022-01-14T08:33:25Z</time>
      </trkpt>
      <trkpt lat="44.99478" lon="6.46553">
        <ele>1833.2</ele>
        <time>2022-01-14T08:33:26Z</time>
      </trkpt>
      <trkpt lat="44.99478" lon="6.46552">
        <ele>1833.2</ele>
        <time>2022-01-14T08:33:27Z</time>
      </trkpt>
      <trkpt lat="44.99479" lon="6.46552">
        <ele>1831.9</ele>
        <time>2022-01-14T08:33:28Z</time>
      </trkpt>
      <trkpt lat="44.9948" lon="6.46551">
        <ele>1831.9</ele>
        <time>2022-01-14T08:33:29Z</time>
      </trkpt>
      <trkpt lat="44.99481" lon="6.46551">
        <ele>1831.9</ele>
        <time>2022-01-14T08:33:30Z</time>
      </trkpt>
      <trkpt lat="44.99481" lon="6.46551">
        <ele>1831.9</ele>
        <time>2022-01-14T08:33:31Z</time>
      </trkpt>
      <trkpt lat="44.99482" lon="6.4655">
        <ele>1831.9</ele>
        <time>2022-01-14T08:33:32Z</time>
      </trkpt>
      <trkpt lat="44.99483" lon="6.46549">
        <ele>1831.9</ele>
        <time>2022-01-14T08:33:33Z</time>
      </trkpt>
      <trkpt lat="44.99483" lon="6.46549">
        <ele>1831.9</ele>
        <time>2022-01-14T08:33:34Z</time>
      </trkpt>
      <trkpt lat="44.99484" lon="6.46548">
        <ele>1831.9</ele>
        <time>2022-01-14T08:33:35Z</time>
      </trkpt>
      <trkpt lat="44.99484" lon="6.46548">
        <ele>1831.9</ele>
        <time>2022-01-14T08:33:36Z</time>
      </trkpt>
      <trkpt lat="44.99485" lon="6.46548">
        <ele>1831.9</ele>
        <time>2022-01-14T08:33:37Z</time>
      </trkpt>
      <trkpt lat="44.99486" lon="6.46546">
        <ele>1831.9</ele>
        <time>2022-01-14T08:33:38Z</time>
      </trkpt>
      <trkpt lat="44.99486" lon="6.46546">
        <ele>1831.9</ele>
        <time>2022-01-14T08:33:39Z</time>
      </trkpt>
      <trkpt lat="44.99486" lon="6.46546">
        <ele>1831.9</ele>
        <time>2022-01-14T08:33:40Z</time>
      </trkpt>
      <trkpt lat="44.99486" lon="6.46546">
        <ele>1831.9</ele>
        <time>2022-01-14T08:33:41Z</time>
      </trkpt>
      <trkpt lat="44.99487" lon="6.46544">
        <ele>1838.3</ele>
        <time>2022-01-14T08:33:42Z</time>
      </trkpt>
      <trkpt lat="44.99487" lon="6.46544">
        <ele>1838.3</ele>
        <time>2022-01-14T08:33:43Z</time>
      </trkpt>
      <trkpt lat="44.99487" lon="6.46543">
        <ele>1838.3</ele>
        <time>2022-01-14T08:33:44Z</time>
      </trkpt>
      <trkpt lat="44.99487" lon="6.46543">
        <ele>1838.3</ele>
        <time>2022-01-14T08:33:45Z</time>
      </trkpt>
      <trkpt lat="44.99489" lon="6.46544">
        <ele>1838.3</ele>
        <time>2022-01-14T08:33:46Z</time>
      </trkpt>
      <trkpt lat="44.99489" lon="6.46544">
        <ele>1838.3</ele>
        <time>2022-01-14T08:33:47Z</time>
      </trkpt>
      <trkpt lat="44.9949" lon="6.46545">
        <ele>1838.3</ele>
        <time>2022-01-14T08:33:48Z</time>
      </trkpt>
      <trkpt lat="44.9949" lon="6.46544">
        <ele>1838.3</ele>
        <time>2022-01-14T08:33:49Z</time>
      </trkpt>
      <trkpt lat="44.9949" lon="6.46544">
        <ele>1838.3</ele>
        <time>2022-01-14T08:33:50Z</time>
      </trkpt>
      <trkpt lat="44.9949" lon="6.46544">
        <ele>1838.3</ele>
        <time>2022-01-14T08:33:51Z</time>
      </trkpt>
      <trkpt lat="44.9949" lon="6.46544">
        <ele>1838.3</ele>
        <time>2022-01-14T08:33:52Z</time>
      </trkpt>
      <trkpt lat="44.9949" lon="6.46543">
        <ele>1838.3</ele>
        <time>2022-01-14T08:33:53Z</time>
      </trkpt>
      <trkpt lat="44.9949" lon="6.46543">
        <ele>1838.3</ele>
        <time>2022-01-14T08:33:54Z</time>
      </trkpt>
      <trkpt lat="44.9949" lon="6.46543">
        <ele>1838.3</ele>
        <time>2022-01-14T08:33:55Z</time>
      </trkpt>
      <trkpt lat="44.9949" lon="6.46542">
        <ele>1838.3</ele>
        <time>2022-01-14T08:33:56Z</time>
      </trkpt>
      <trkpt lat="44.99489" lon="6.46542">
        <ele>1838.3</ele>
        <time>2022-01-14T08:33:57Z</time>
      </trkpt>
      <trkpt lat="44.99489" lon="6.46542">
        <ele>1838.3</ele>
        <time>2022-01-14T08:33:58Z</time>
      </trkpt>
      <trkpt lat="44.99489" lon="6.46541">
        <ele>1838.3</ele>
        <time>2022-01-14T08:33:59Z</time>
      </trkpt>
      <trkpt lat="44.99489" lon="6.46541">
        <ele>1838.3</ele>
        <time>2022-01-14T08:34:00Z</time>
      </trkpt>
      <trkpt lat="44.99489" lon="6.46541">
        <ele>1838.3</ele>
        <time>2022-01-14T08:34:01Z</time>
      </trkpt>
      <trkpt lat="44.99489" lon="6.4654">
        <ele>1838.3</ele>
        <time>2022-01-14T08:34:02Z</time>
      </trkpt>
      <trkpt lat="44.99489" lon="6.4654">
        <ele>1838.3</ele>
        <time>2022-01-14T08:34:03Z</time>
      </trkpt>
      <trkpt lat="44.99489" lon="6.4654">
        <ele>1838.3</ele>
        <time>2022-01-14T08:34:04Z</time>
      </trkpt>
      <trkpt lat="44.99489" lon="6.46539">
        <ele>1838.3</ele>
        <time>2022-01-14T08:34:05Z</time>
      </trkpt>
      <trkpt lat="44.99488" lon="6.46538">
        <ele>1838.3</ele>
        <time>2022-01-14T08:34:06Z</time>
      </trkpt>
      <trkpt lat="44.99487" lon="6.46539">
        <ele>1838.3</ele>
        <time>2022-01-14T08:34:07Z</time>
      </trkpt>
      <trkpt lat="44.99487" lon="6.46537">
        <ele>1838.3</ele>
        <time>2022-01-14T08:34:08Z</time>
      </trkpt>
      <trkpt lat="44.99487" lon="6.46537">
        <ele>1838.3</ele>
        <time>2022-01-14T08:34:09Z</time>
      </trkpt>
      <trkpt lat="44.99487" lon="6.46537">
        <ele>1838.3</ele>
        <time>2022-01-14T08:34:10Z</time>
      </trkpt>
      <trkpt lat="44.99486" lon="6.46537">
        <ele>1838.3</ele>
        <time>2022-01-14T08:34:11Z</time>
      </trkpt>
      <trkpt lat="44.99485" lon="6.46538">
        <ele>1838.3</ele>
        <time>2022-01-14T08:34:12Z</time>
      </trkpt>
      <trkpt lat="44.99485" lon="6.46537">
        <ele>1838.3</ele>
        <time>2022-01-14T08:34:13Z</time>
      </trkpt>
      <trkpt lat="44.99485" lon="6.46537">
        <ele>1838.3</ele>
        <time>2022-01-14T08:34:14Z</time>
      </trkpt>
      <trkpt lat="44.99485" lon="6.46537">
        <ele>1838.3</ele>
        <time>2022-01-14T08:34:15Z</time>
      </trkpt>
      <trkpt lat="44.99485" lon="6.46537">
        <ele>1838.3</ele>
        <time>2022-01-14T08:34:16Z</time>
      </trkpt>
      <trkpt lat="44.99485" lon="6.46537">
        <ele>1838.3</ele>
        <time>2022-01-14T08:34:17Z</time>
      </trkpt>
      <trkpt lat="44.99485" lon="6.46537">
        <ele>1838.3</ele>
        <time>2022-01-14T08:34:18Z</time>
      </trkpt>
      <trkpt lat="44.99486" lon="6.46535">
        <ele>1838.3</ele>
        <time>2022-01-14T08:34:19Z</time>
      </trkpt>
      <trkpt lat="44.99486" lon="6.46535">
        <ele>1838.3</ele>
        <time>2022-01-14T08:34:20Z</time>
      </trkpt>
      <trkpt lat="44.99486" lon="6.46535">
        <ele>1838.3</ele>
        <time>2022-01-14T08:34:21Z</time>
      </trkpt>
      <trkpt lat="44.99487" lon="6.46534">
        <ele>1838.3</ele>
        <time>2022-01-14T08:34:22Z</time>
      </trkpt>
      <trkpt lat="44.99487" lon="6.46534">
        <ele>1838.3</ele>
        <time>2022-01-14T08:34:23Z</time>
      </trkpt>
      <trkpt lat="44.99487" lon="6.46533">
        <ele>1838.3</ele>
        <time>2022-01-14T08:34:24Z</time>
      </trkpt>
      <trkpt lat="44.99486" lon="6.46533">
        <ele>1838.3</ele>
        <time>2022-01-14T08:34:25Z</time>
      </trkpt>
      <trkpt lat="44.99486" lon="6.46533">
        <ele>1838.3</ele>
        <time>2022-01-14T08:34:26Z</time>
      </trkpt>
      <trkpt lat="44.99486" lon="6.46533">
        <ele>1838.3</ele>
        <time>2022-01-14T08:34:27Z</time>
      </trkpt>
      <trkpt lat="44.99486" lon="6.46533">
        <ele>1838.3</ele>
        <time>2022-01-14T08:34:28Z</time>
      </trkpt>
      <trkpt lat="44.99486" lon="6.46532">
        <ele>1838.3</ele>
        <time>2022-01-14T08:34:29Z</time>
      </trkpt>
      <trkpt lat="44.99486" lon="6.46531">
        <ele>1838.3</ele>
        <time>2022-01-14T08:34:30Z</time>
      </trkpt>
      <trkpt lat="44.99485" lon="6.4653">
        <ele>1838.3</ele>
        <time>2022-01-14T08:34:31Z</time>
      </trkpt>
      <trkpt lat="44.99484" lon="6.46529">
        <ele>1838.3</ele>
        <time>2022-01-14T08:34:32Z</time>
      </trkpt>
      <trkpt lat="44.99483" lon="6.46529">
        <ele>1838.3</ele>
        <time>2022-01-14T08:34:33Z</time>
      </trkpt>
      <trkpt lat="44.99482" lon="6.46529">
        <ele>1838.3</ele>
        <time>2022-01-14T08:34:34Z</time>
      </trkpt>
      <trkpt lat="44.9948" lon="6.46528">
        <ele>1845.3</ele>
        <time>2022-01-14T08:34:35Z</time>
      </trkpt>
      <trkpt lat="44.99479" lon="6.46528">
        <ele>1845.3</ele>
        <time>2022-01-14T08:34:36Z</time>
      </trkpt>
      <trkpt lat="44.99478" lon="6.46528">
        <ele>1846.7</ele>
        <time>2022-01-14T08:34:37Z</time>
      </trkpt>
      <trkpt lat="44.99477" lon="6.46527">
        <ele>1846.7</ele>
        <time>2022-01-14T08:34:38Z</time>
      </trkpt>
      <trkpt lat="44.99476" lon="6.46527">
        <ele>1846.7</ele>
        <time>2022-01-14T08:34:39Z</time>
      </trkpt>
      <trkpt lat="44.99475" lon="6.46526">
        <ele>1846.7</ele>
        <time>2022-01-14T08:34:40Z</time>
      </trkpt>
      <trkpt lat="44.99473" lon="6.46525">
        <ele>1846.7</ele>
        <time>2022-01-14T08:34:41Z</time>
      </trkpt>
      <trkpt lat="44.99472" lon="6.46525">
        <ele>1846.7</ele>
        <time>2022-01-14T08:34:42Z</time>
      </trkpt>
      <trkpt lat="44.99472" lon="6.46525">
        <ele>1846.7</ele>
        <time>2022-01-14T08:34:43Z</time>
      </trkpt>
      <trkpt lat="44.99471" lon="6.46524">
        <ele>1846.7</ele>
        <time>2022-01-14T08:34:44Z</time>
      </trkpt>
      <trkpt lat="44.99471" lon="6.46522">
        <ele>1846.7</ele>
        <time>2022-01-14T08:34:45Z</time>
      </trkpt>
      <trkpt lat="44.99471" lon="6.46522">
        <ele>1846.7</ele>
        <time>2022-01-14T08:34:46Z</time>
      </trkpt>
      <trkpt lat="44.99471" lon="6.46522">
        <ele>1846.7</ele>
        <time>2022-01-14T08:34:47Z</time>
      </trkpt>
      <trkpt lat="44.99471" lon="6.46522">
        <ele>1846.7</ele>
        <time>2022-01-14T08:34:48Z</time>
      </trkpt>
      <trkpt lat="44.9947" lon="6.46522">
        <ele>1846.7</ele>
        <time>2022-01-14T08:34:49Z</time>
      </trkpt>
      <trkpt lat="44.99468" lon="6.46522">
        <ele>1846.7</ele>
        <time>2022-01-14T08:34:50Z</time>
      </trkpt>
      <trkpt lat="44.99468" lon="6.46521">
        <ele>1846.7</ele>
        <time>2022-01-14T08:34:51Z</time>
      </trkpt>
      <trkpt lat="44.99468" lon="6.4652">
        <ele>1846.7</ele>
        <time>2022-01-14T08:34:52Z</time>
      </trkpt>
      <trkpt lat="44.99467" lon="6.4652">
        <ele>1846.7</ele>
        <time>2022-01-14T08:34:53Z</time>
      </trkpt>
      <trkpt lat="44.99467" lon="6.46519">
        <ele>1848.5</ele>
        <time>2022-01-14T08:34:54Z</time>
      </trkpt>
      <trkpt lat="44.99466" lon="6.46518">
        <ele>1848.5</ele>
        <time>2022-01-14T08:34:55Z</time>
      </trkpt>
      <trkpt lat="44.99466" lon="6.46518">
        <ele>1848.5</ele>
        <time>2022-01-14T08:34:56Z</time>
      </trkpt>
      <trkpt lat="44.99465" lon="6.46518">
        <ele>1848.5</ele>
        <time>2022-01-14T08:34:57Z</time>
      </trkpt>
      <trkpt lat="44.99464" lon="6.46518">
        <ele>1848.5</ele>
        <time>2022-01-14T08:34:58Z</time>
      </trkpt>
      <trkpt lat="44.99464" lon="6.46519">
        <ele>1848.5</ele>
        <time>2022-01-14T08:34:59Z</time>
      </trkpt>
      <trkpt lat="44.99464" lon="6.46519">
        <ele>1848.5</ele>
        <time>2022-01-14T08:35:00Z</time>
      </trkpt>
      <trkpt lat="44.99465" lon="6.46518">
        <ele>1848.5</ele>
        <time>2022-01-14T08:35:01Z</time>
      </trkpt>
      <trkpt lat="44.99464" lon="6.46519">
        <ele>1848.5</ele>
        <time>2022-01-14T08:35:02Z</time>
      </trkpt>
      <trkpt lat="44.99464" lon="6.4652">
        <ele>1848.5</ele>
        <time>2022-01-14T08:35:03Z</time>
      </trkpt>
      <trkpt lat="44.99464" lon="6.4652">
        <ele>1848.5</ele>
        <time>2022-01-14T08:35:04Z</time>
      </trkpt>
      <trkpt lat="44.99463" lon="6.4652">
        <ele>1848.5</ele>
        <time>2022-01-14T08:35:05Z</time>
      </trkpt>
      <trkpt lat="44.99463" lon="6.4652">
        <ele>1848.5</ele>
        <time>2022-01-14T08:35:06Z</time>
      </trkpt>
      <trkpt lat="44.99463" lon="6.4652">
        <ele>1848.5</ele>
        <time>2022-01-14T08:35:07Z</time>
      </trkpt>
      <trkpt lat="44.99463" lon="6.4652">
        <ele>1848.5</ele>
        <time>2022-01-14T08:35:08Z</time>
      </trkpt>
      <trkpt lat="44.99463" lon="6.4652">
        <ele>1848.5</ele>
        <time>2022-01-14T08:35:09Z</time>
      </trkpt>
      <trkpt lat="44.99463" lon="6.46522">
        <ele>1848.5</ele>
        <time>2022-01-14T08:35:10Z</time>
      </trkpt>
      <trkpt lat="44.99463" lon="6.46522">
        <ele>1848.5</ele>
        <time>2022-01-14T08:35:11Z</time>
      </trkpt>
      <trkpt lat="44.99463" lon="6.46523">
        <ele>1848.5</ele>
        <time>2022-01-14T08:35:12Z</time>
      </trkpt>
      <trkpt lat="44.99463" lon="6.46524">
        <ele>1848.5</ele>
        <time>2022-01-14T08:35:13Z</time>
      </trkpt>
      <trkpt lat="44.99463" lon="6.46524">
        <ele>1848.5</ele>
        <time>2022-01-14T08:35:14Z</time>
      </trkpt>
      <trkpt lat="44.99463" lon="6.46524">
        <ele>1848.5</ele>
        <time>2022-01-14T08:35:15Z</time>
      </trkpt>
      <trkpt lat="44.99464" lon="6.46524">
        <ele>1848.5</ele>
        <time>2022-01-14T08:35:16Z</time>
      </trkpt>
      <trkpt lat="44.99464" lon="6.46524">
        <ele>1848.5</ele>
        <time>2022-01-14T08:35:17Z</time>
      </trkpt>
      <trkpt lat="44.99465" lon="6.46524">
        <ele>1848.5</ele>
        <time>2022-01-14T08:35:18Z</time>
      </trkpt>
      <trkpt lat="44.99465" lon="6.46524">
        <ele>1848.5</ele>
        <time>2022-01-14T08:35:19Z</time>
      </trkpt>
      <trkpt lat="44.99466" lon="6.46523">
        <ele>1848.5</ele>
        <time>2022-01-14T08:35:20Z</time>
      </trkpt>
      <trkpt lat="44.99466" lon="6.46522">
        <ele>1848.5</ele>
        <time>2022-01-14T08:35:21Z</time>
      </trkpt>
      <trkpt lat="44.99467" lon="6.46522">
        <ele>1846.7</ele>
        <time>2022-01-14T08:35:22Z</time>
      </trkpt>
      <trkpt lat="44.99467" lon="6.46521">
        <ele>1846.7</ele>
        <time>2022-01-14T08:35:23Z</time>
      </trkpt>
      <trkpt lat="44.99467" lon="6.46522">
        <ele>1846.7</ele>
        <time>2022-01-14T08:35:24Z</time>
      </trkpt>
      <trkpt lat="44.99467" lon="6.46521">
        <ele>1846.7</ele>
        <time>2022-01-14T08:35:25Z</time>
      </trkpt>
      <trkpt lat="44.99467" lon="6.46521">
        <ele>1846.7</ele>
        <time>2022-01-14T08:35:26Z</time>
      </trkpt>
      <trkpt lat="44.99467" lon="6.46521">
        <ele>1846.7</ele>
        <time>2022-01-14T08:35:27Z</time>
      </trkpt>
      <trkpt lat="44.99468" lon="6.4652">
        <ele>1846.7</ele>
        <time>2022-01-14T08:35:28Z</time>
      </trkpt>
      <trkpt lat="44.99468" lon="6.4652">
        <ele>1846.7</ele>
        <time>2022-01-14T08:35:29Z</time>
      </trkpt>
      <trkpt lat="44.99468" lon="6.4652">
        <ele>1846.7</ele>
        <time>2022-01-14T08:35:30Z</time>
      </trkpt>
      <trkpt lat="44.99468" lon="6.46519">
        <ele>1846.7</ele>
        <time>2022-01-14T08:35:31Z</time>
      </trkpt>
      <trkpt lat="44.99468" lon="6.46518">
        <ele>1846.7</ele>
        <time>2022-01-14T08:35:32Z</time>
      </trkpt>
      <trkpt lat="44.99468" lon="6.46517">
        <ele>1846.7</ele>
        <time>2022-01-14T08:35:33Z</time>
      </trkpt>
      <trkpt lat="44.99468" lon="6.46516">
        <ele>1846.7</ele>
        <time>2022-01-14T08:35:34Z</time>
      </trkpt>
      <trkpt lat="44.99468" lon="6.46515">
        <ele>1846.7</ele>
        <time>2022-01-14T08:35:35Z</time>
      </trkpt>
      <trkpt lat="44.99468" lon="6.46515">
        <ele>1846.7</ele>
        <time>2022-01-14T08:35:36Z</time>
      </trkpt>
      <trkpt lat="44.99468" lon="6.46515">
        <ele>1846.7</ele>
        <time>2022-01-14T08:35:37Z</time>
      </trkpt>
      <trkpt lat="44.99468" lon="6.46514">
        <ele>1846.7</ele>
        <time>2022-01-14T08:35:38Z</time>
      </trkpt>
      <trkpt lat="44.99468" lon="6.46512">
        <ele>1846.7</ele>
        <time>2022-01-14T08:35:39Z</time>
      </trkpt>
      <trkpt lat="44.99467" lon="6.46513">
        <ele>1846.7</ele>
        <time>2022-01-14T08:35:40Z</time>
      </trkpt>
      <trkpt lat="44.99468" lon="6.46512">
        <ele>1846.7</ele>
        <time>2022-01-14T08:35:41Z</time>
      </trkpt>
      <trkpt lat="44.99468" lon="6.46511">
        <ele>1853.1</ele>
        <time>2022-01-14T08:35:42Z</time>
      </trkpt>
      <trkpt lat="44.99468" lon="6.4651">
        <ele>1853.1</ele>
        <time>2022-01-14T08:35:43Z</time>
      </trkpt>
      <trkpt lat="44.99468" lon="6.46509">
        <ele>1853.1</ele>
        <time>2022-01-14T08:35:44Z</time>
      </trkpt>
      <trkpt lat="44.99468" lon="6.46508">
        <ele>1853.1</ele>
        <time>2022-01-14T08:35:45Z</time>
      </trkpt>
      <trkpt lat="44.99468" lon="6.46506">
        <ele>1853.1</ele>
        <time>2022-01-14T08:35:46Z</time>
      </trkpt>
      <trkpt lat="44.99468" lon="6.46506">
        <ele>1853.1</ele>
        <time>2022-01-14T08:35:47Z</time>
      </trkpt>
      <trkpt lat="44.99469" lon="6.46508">
        <ele>1853.1</ele>
        <time>2022-01-14T08:35:48Z</time>
      </trkpt>
      <trkpt lat="44.9947" lon="6.46507">
        <ele>1853.1</ele>
        <time>2022-01-14T08:35:49Z</time>
      </trkpt>
      <trkpt lat="44.9947" lon="6.46507">
        <ele>1853.1</ele>
        <time>2022-01-14T08:35:50Z</time>
      </trkpt>
      <trkpt lat="44.9947" lon="6.46505">
        <ele>1853.1</ele>
        <time>2022-01-14T08:35:51Z</time>
      </trkpt>
      <trkpt lat="44.99471" lon="6.46505">
        <ele>1853.1</ele>
        <time>2022-01-14T08:35:52Z</time>
      </trkpt>
      <trkpt lat="44.99471" lon="6.46505">
        <ele>1853.1</ele>
        <time>2022-01-14T08:35:53Z</time>
      </trkpt>
      <trkpt lat="44.99472" lon="6.46505">
        <ele>1853.1</ele>
        <time>2022-01-14T08:35:54Z</time>
      </trkpt>
      <trkpt lat="44.99472" lon="6.46504">
        <ele>1853.1</ele>
        <time>2022-01-14T08:35:55Z</time>
      </trkpt>
      <trkpt lat="44.99473" lon="6.46504">
        <ele>1853.1</ele>
        <time>2022-01-14T08:35:56Z</time>
      </trkpt>
      <trkpt lat="44.99473" lon="6.46503">
        <ele>1853.1</ele>
        <time>2022-01-14T08:35:57Z</time>
      </trkpt>
      <trkpt lat="44.99473" lon="6.46504">
        <ele>1853.1</ele>
        <time>2022-01-14T08:35:58Z</time>
      </trkpt>
      <trkpt lat="44.99474" lon="6.46503">
        <ele>1853.1</ele>
        <time>2022-01-14T08:35:59Z</time>
      </trkpt>
      <trkpt lat="44.99474" lon="6.46504">
        <ele>1853.1</ele>
        <time>2022-01-14T08:36:00Z</time>
      </trkpt>
      <trkpt lat="44.99474" lon="6.46503">
        <ele>1853.1</ele>
        <time>2022-01-14T08:36:01Z</time>
      </trkpt>
      <trkpt lat="44.99475" lon="6.46501">
        <ele>1853.1</ele>
        <time>2022-01-14T08:36:02Z</time>
      </trkpt>
      <trkpt lat="44.99474" lon="6.46501">
        <ele>1853.1</ele>
        <time>2022-01-14T08:36:03Z</time>
      </trkpt>
      <trkpt lat="44.99474" lon="6.465">
        <ele>1853.1</ele>
        <time>2022-01-14T08:36:04Z</time>
      </trkpt>
      <trkpt lat="44.99473" lon="6.46501">
        <ele>1853.1</ele>
        <time>2022-01-14T08:36:05Z</time>
      </trkpt>
      <trkpt lat="44.99472" lon="6.46502">
        <ele>1853.1</ele>
        <time>2022-01-14T08:36:06Z</time>
      </trkpt>
      <trkpt lat="44.99472" lon="6.46502">
        <ele>1853.1</ele>
        <time>2022-01-14T08:36:07Z</time>
      </trkpt>
      <trkpt lat="44.99473" lon="6.46502">
        <ele>1853.1</ele>
        <time>2022-01-14T08:36:08Z</time>
      </trkpt>
      <trkpt lat="44.99473" lon="6.46503">
        <ele>1853.1</ele>
        <time>2022-01-14T08:36:09Z</time>
      </trkpt>
      <trkpt lat="44.99473" lon="6.46504">
        <ele>1853.1</ele>
        <time>2022-01-14T08:36:10Z</time>
      </trkpt>
      <trkpt lat="44.99473" lon="6.46503">
        <ele>1853.1</ele>
        <time>2022-01-14T08:36:11Z</time>
      </trkpt>
      <trkpt lat="44.99472" lon="6.46503">
        <ele>1853.1</ele>
        <time>2022-01-14T08:36:12Z</time>
      </trkpt>
      <trkpt lat="44.99472" lon="6.46503">
        <ele>1853.1</ele>
        <time>2022-01-14T08:36:13Z</time>
      </trkpt>
      <trkpt lat="44.99472" lon="6.46503">
        <ele>1853.1</ele>
        <time>2022-01-14T08:36:14Z</time>
      </trkpt>
      <trkpt lat="44.99472" lon="6.46502">
        <ele>1853.1</ele>
        <time>2022-01-14T08:36:15Z</time>
      </trkpt>
      <trkpt lat="44.99471" lon="6.46502">
        <ele>1853.1</ele>
        <time>2022-01-14T08:36:16Z</time>
      </trkpt>
      <trkpt lat="44.9947" lon="6.465">
        <ele>1853.1</ele>
        <time>2022-01-14T08:36:17Z</time>
      </trkpt>
      <trkpt lat="44.99469" lon="6.46499">
        <ele>1853.1</ele>
        <time>2022-01-14T08:36:18Z</time>
      </trkpt>
      <trkpt lat="44.99468" lon="6.46498">
        <ele>1853.1</ele>
        <time>2022-01-14T08:36:19Z</time>
      </trkpt>
      <trkpt lat="44.99468" lon="6.46499">
        <ele>1853.1</ele>
        <time>2022-01-14T08:36:20Z</time>
      </trkpt>
      <trkpt lat="44.99467" lon="6.46498">
        <ele>1853.1</ele>
        <time>2022-01-14T08:36:21Z</time>
      </trkpt>
      <trkpt lat="44.99467" lon="6.46499">
        <ele>1855</ele>
        <time>2022-01-14T08:36:22Z</time>
      </trkpt>
      <trkpt lat="44.99466" lon="6.46499">
        <ele>1855</ele>
        <time>2022-01-14T08:36:23Z</time>
      </trkpt>
      <trkpt lat="44.99467" lon="6.46499">
        <ele>1855</ele>
        <time>2022-01-14T08:36:24Z</time>
      </trkpt>
      <trkpt lat="44.99466" lon="6.46498">
        <ele>1855</ele>
        <time>2022-01-14T08:36:25Z</time>
      </trkpt>
      <trkpt lat="44.99466" lon="6.46499">
        <ele>1855</ele>
        <time>2022-01-14T08:36:26Z</time>
      </trkpt>
      <trkpt lat="44.99465" lon="6.46499">
        <ele>1855</ele>
        <time>2022-01-14T08:36:27Z</time>
      </trkpt>
      <trkpt lat="44.99465" lon="6.46499">
        <ele>1855</ele>
        <time>2022-01-14T08:36:28Z</time>
      </trkpt>
      <trkpt lat="44.99464" lon="6.46499">
        <ele>1855</ele>
        <time>2022-01-14T08:36:29Z</time>
      </trkpt>
      <trkpt lat="44.99464" lon="6.46499">
        <ele>1855</ele>
        <time>2022-01-14T08:36:30Z</time>
      </trkpt>
      <trkpt lat="44.99463" lon="6.46498">
        <ele>1855</ele>
        <time>2022-01-14T08:36:31Z</time>
      </trkpt>
      <trkpt lat="44.99462" lon="6.46498">
        <ele>1855</ele>
        <time>2022-01-14T08:36:32Z</time>
      </trkpt>
      <trkpt lat="44.99462" lon="6.46498">
        <ele>1855</ele>
        <time>2022-01-14T08:36:33Z</time>
      </trkpt>
      <trkpt lat="44.99461" lon="6.46498">
        <ele>1855</ele>
        <time>2022-01-14T08:36:34Z</time>
      </trkpt>
      <trkpt lat="44.9946" lon="6.46499">
        <ele>1855</ele>
        <time>2022-01-14T08:36:35Z</time>
      </trkpt>
      <trkpt lat="44.9946" lon="6.46499">
        <ele>1855</ele>
        <time>2022-01-14T08:36:36Z</time>
      </trkpt>
      <trkpt lat="44.99459" lon="6.465">
        <ele>1855</ele>
        <time>2022-01-14T08:36:37Z</time>
      </trkpt>
      <trkpt lat="44.99459" lon="6.465">
        <ele>1855</ele>
        <time>2022-01-14T08:36:38Z</time>
      </trkpt>
      <trkpt lat="44.99458" lon="6.46499">
        <ele>1855</ele>
        <time>2022-01-14T08:36:39Z</time>
      </trkpt>
      <trkpt lat="44.99457" lon="6.465">
        <ele>1855</ele>
        <time>2022-01-14T08:36:40Z</time>
      </trkpt>
      <trkpt lat="44.99457" lon="6.46499">
        <ele>1855</ele>
        <time>2022-01-14T08:36:41Z</time>
      </trkpt>
      <trkpt lat="44.99456" lon="6.465">
        <ele>1855</ele>
        <time>2022-01-14T08:36:42Z</time>
      </trkpt>
      <trkpt lat="44.99456" lon="6.465">
        <ele>1855</ele>
        <time>2022-01-14T08:36:43Z</time>
      </trkpt>
      <trkpt lat="44.99455" lon="6.465">
        <ele>1855</ele>
        <time>2022-01-14T08:36:44Z</time>
      </trkpt>
      <trkpt lat="44.99455" lon="6.46501">
        <ele>1857</ele>
        <time>2022-01-14T08:36:45Z</time>
      </trkpt>
      <trkpt lat="44.99454" lon="6.46502">
        <ele>1857</ele>
        <time>2022-01-14T08:36:46Z</time>
      </trkpt>
      <trkpt lat="44.99453" lon="6.46503">
        <ele>1857</ele>
        <time>2022-01-14T08:36:47Z</time>
      </trkpt>
      <trkpt lat="44.99452" lon="6.46503">
        <ele>1857</ele>
        <time>2022-01-14T08:36:48Z</time>
      </trkpt>
      <trkpt lat="44.99451" lon="6.46503">
        <ele>1857</ele>
        <time>2022-01-14T08:36:49Z</time>
      </trkpt>
      <trkpt lat="44.9945" lon="6.46504">
        <ele>1857</ele>
        <time>2022-01-14T08:36:50Z</time>
      </trkpt>
      <trkpt lat="44.99449" lon="6.46503">
        <ele>1857</ele>
        <time>2022-01-14T08:36:51Z</time>
      </trkpt>
      <trkpt lat="44.99448" lon="6.46503">
        <ele>1857</ele>
        <time>2022-01-14T08:36:52Z</time>
      </trkpt>
      <trkpt lat="44.99448" lon="6.46502">
        <ele>1857</ele>
        <time>2022-01-14T08:36:53Z</time>
      </trkpt>
      <trkpt lat="44.99447" lon="6.46502">
        <ele>1857</ele>
        <time>2022-01-14T08:36:54Z</time>
      </trkpt>
      <trkpt lat="44.99448" lon="6.46501">
        <ele>1857</ele>
        <time>2022-01-14T08:36:55Z</time>
      </trkpt>
      <trkpt lat="44.99448" lon="6.465">
        <ele>1857</ele>
        <time>2022-01-14T08:36:56Z</time>
      </trkpt>
      <trkpt lat="44.99448" lon="6.465">
        <ele>1857</ele>
        <time>2022-01-14T08:36:57Z</time>
      </trkpt>
      <trkpt lat="44.99447" lon="6.46501">
        <ele>1857</ele>
        <time>2022-01-14T08:36:58Z</time>
      </trkpt>
      <trkpt lat="44.99447" lon="6.46501">
        <ele>1857</ele>
        <time>2022-01-14T08:36:59Z</time>
      </trkpt>
      <trkpt lat="44.99446" lon="6.46501">
        <ele>1857</ele>
        <time>2022-01-14T08:37:00Z</time>
      </trkpt>
      <trkpt lat="44.99444" lon="6.46502">
        <ele>1857</ele>
        <time>2022-01-14T08:37:01Z</time>
      </trkpt>
      <trkpt lat="44.99444" lon="6.46503">
        <ele>1857</ele>
        <time>2022-01-14T08:37:02Z</time>
      </trkpt>
      <trkpt lat="44.99444" lon="6.46503">
        <ele>1857</ele>
        <time>2022-01-14T08:37:03Z</time>
      </trkpt>
      <trkpt lat="44.99444" lon="6.46503">
        <ele>1857</ele>
        <time>2022-01-14T08:37:04Z</time>
      </trkpt>
      <trkpt lat="44.99443" lon="6.46503">
        <ele>1857</ele>
        <time>2022-01-14T08:37:05Z</time>
      </trkpt>
      <trkpt lat="44.99443" lon="6.46503">
        <ele>1857</ele>
        <time>2022-01-14T08:37:06Z</time>
      </trkpt>
      <trkpt lat="44.99443" lon="6.46503">
        <ele>1857</ele>
        <time>2022-01-14T08:37:07Z</time>
      </trkpt>
      <trkpt lat="44.99442" lon="6.46503">
        <ele>1859.6</ele>
        <time>2022-01-14T08:37:08Z</time>
      </trkpt>
      <trkpt lat="44.99441" lon="6.46502">
        <ele>1859.6</ele>
        <time>2022-01-14T08:37:09Z</time>
      </trkpt>
      <trkpt lat="44.99441" lon="6.46502">
        <ele>1859.6</ele>
        <time>2022-01-14T08:37:10Z</time>
      </trkpt>
      <trkpt lat="44.9944" lon="6.46504">
        <ele>1859.6</ele>
        <time>2022-01-14T08:37:11Z</time>
      </trkpt>
      <trkpt lat="44.99439" lon="6.46505">
        <ele>1859.6</ele>
        <time>2022-01-14T08:37:12Z</time>
      </trkpt>
      <trkpt lat="44.99438" lon="6.46506">
        <ele>1859.6</ele>
        <time>2022-01-14T08:37:13Z</time>
      </trkpt>
      <trkpt lat="44.99438" lon="6.46507">
        <ele>1859.6</ele>
        <time>2022-01-14T08:37:14Z</time>
      </trkpt>
      <trkpt lat="44.99437" lon="6.46507">
        <ele>1859.6</ele>
        <time>2022-01-14T08:37:15Z</time>
      </trkpt>
      <trkpt lat="44.99436" lon="6.46506">
        <ele>1859.6</ele>
        <time>2022-01-14T08:37:16Z</time>
      </trkpt>
      <trkpt lat="44.99436" lon="6.46507">
        <ele>1859.6</ele>
        <time>2022-01-14T08:37:17Z</time>
      </trkpt>
      <trkpt lat="44.99435" lon="6.46506">
        <ele>1859.6</ele>
        <time>2022-01-14T08:37:18Z</time>
      </trkpt>
      <trkpt lat="44.99435" lon="6.46507">
        <ele>1859.6</ele>
        <time>2022-01-14T08:37:19Z</time>
      </trkpt>
      <trkpt lat="44.99434" lon="6.46507">
        <ele>1859.6</ele>
        <time>2022-01-14T08:37:20Z</time>
      </trkpt>
      <trkpt lat="44.99433" lon="6.46505">
        <ele>1859.6</ele>
        <time>2022-01-14T08:37:21Z</time>
      </trkpt>
      <trkpt lat="44.99433" lon="6.46506">
        <ele>1859.6</ele>
        <time>2022-01-14T08:37:22Z</time>
      </trkpt>
      <trkpt lat="44.99433" lon="6.46506">
        <ele>1859.6</ele>
        <time>2022-01-14T08:37:23Z</time>
      </trkpt>
      <trkpt lat="44.99432" lon="6.46506">
        <ele>1859.6</ele>
        <time>2022-01-14T08:37:24Z</time>
      </trkpt>
      <trkpt lat="44.99432" lon="6.46507">
        <ele>1859.6</ele>
        <time>2022-01-14T08:37:25Z</time>
      </trkpt>
      <trkpt lat="44.99431" lon="6.46508">
        <ele>1859.6</ele>
        <time>2022-01-14T08:37:26Z</time>
      </trkpt>
      <trkpt lat="44.9943" lon="6.46509">
        <ele>1862.1</ele>
        <time>2022-01-14T08:37:27Z</time>
      </trkpt>
      <trkpt lat="44.99429" lon="6.46511">
        <ele>1862.1</ele>
        <time>2022-01-14T08:37:28Z</time>
      </trkpt>
      <trkpt lat="44.99429" lon="6.46511">
        <ele>1862.1</ele>
        <time>2022-01-14T08:37:29Z</time>
      </trkpt>
      <trkpt lat="44.99429" lon="6.46511">
        <ele>1855.4</ele>
        <time>2022-01-14T08:37:30Z</time>
      </trkpt>
      <trkpt lat="44.99428" lon="6.46513">
        <ele>1855.4</ele>
        <time>2022-01-14T08:37:31Z</time>
      </trkpt>
      <trkpt lat="44.99427" lon="6.46513">
        <ele>1855.4</ele>
        <time>2022-01-14T08:37:32Z</time>
      </trkpt>
      <trkpt lat="44.99427" lon="6.46513">
        <ele>1855.4</ele>
        <time>2022-01-14T08:37:33Z</time>
      </trkpt>
      <trkpt lat="44.99426" lon="6.46513">
        <ele>1855.4</ele>
        <time>2022-01-14T08:37:34Z</time>
      </trkpt>
      <trkpt lat="44.99424" lon="6.46513">
        <ele>1855.4</ele>
        <time>2022-01-14T08:37:35Z</time>
      </trkpt>
      <trkpt lat="44.99424" lon="6.46513">
        <ele>1855.4</ele>
        <time>2022-01-14T08:37:36Z</time>
      </trkpt>
      <trkpt lat="44.99422" lon="6.46513">
        <ele>1855.4</ele>
        <time>2022-01-14T08:37:37Z</time>
      </trkpt>
      <trkpt lat="44.99421" lon="6.46514">
        <ele>1855.4</ele>
        <time>2022-01-14T08:37:38Z</time>
      </trkpt>
      <trkpt lat="44.99418" lon="6.46513">
        <ele>1858.7</ele>
        <time>2022-01-14T08:37:39Z</time>
      </trkpt>
      <trkpt lat="44.99416" lon="6.46512">
        <ele>1858.7</ele>
        <time>2022-01-14T08:37:40Z</time>
      </trkpt>
      <trkpt lat="44.99415" lon="6.46511">
        <ele>1858.7</ele>
        <time>2022-01-14T08:37:41Z</time>
      </trkpt>
      <trkpt lat="44.99414" lon="6.46511">
        <ele>1865.3</ele>
        <time>2022-01-14T08:37:42Z</time>
      </trkpt>
      <trkpt lat="44.99413" lon="6.4651">
        <ele>1865.3</ele>
        <time>2022-01-14T08:37:43Z</time>
      </trkpt>
      <trkpt lat="44.99413" lon="6.4651">
        <ele>1865.3</ele>
        <time>2022-01-14T08:37:44Z</time>
      </trkpt>
      <trkpt lat="44.99413" lon="6.4651">
        <ele>1865.3</ele>
        <time>2022-01-14T08:37:45Z</time>
      </trkpt>
      <trkpt lat="44.99412" lon="6.4651">
        <ele>1865.3</ele>
        <time>2022-01-14T08:37:46Z</time>
      </trkpt>
      <trkpt lat="44.99411" lon="6.46509">
        <ele>1865.3</ele>
        <time>2022-01-14T08:37:47Z</time>
      </trkpt>
      <trkpt lat="44.9941" lon="6.46509">
        <ele>1865.3</ele>
        <time>2022-01-14T08:37:48Z</time>
      </trkpt>
      <trkpt lat="44.99409" lon="6.46509">
        <ele>1865.3</ele>
        <time>2022-01-14T08:37:49Z</time>
      </trkpt>
      <trkpt lat="44.99409" lon="6.4651">
        <ele>1865.3</ele>
        <time>2022-01-14T08:37:50Z</time>
      </trkpt>
      <trkpt lat="44.99408" lon="6.46511">
        <ele>1865.3</ele>
        <time>2022-01-14T08:37:51Z</time>
      </trkpt>
      <trkpt lat="44.99406" lon="6.46512">
        <ele>1858.7</ele>
        <time>2022-01-14T08:37:52Z</time>
      </trkpt>
      <trkpt lat="44.99405" lon="6.46512">
        <ele>1862</ele>
        <time>2022-01-14T08:37:53Z</time>
      </trkpt>
      <trkpt lat="44.99405" lon="6.46512">
        <ele>1862</ele>
        <time>2022-01-14T08:37:54Z</time>
      </trkpt>
      <trkpt lat="44.99403" lon="6.46512">
        <ele>1862</ele>
        <time>2022-01-14T08:37:55Z</time>
      </trkpt>
      <trkpt lat="44.99402" lon="6.46512">
        <ele>1862</ele>
        <time>2022-01-14T08:37:56Z</time>
      </trkpt>
      <trkpt lat="44.99401" lon="6.46511">
        <ele>1862</ele>
        <time>2022-01-14T08:37:57Z</time>
      </trkpt>
      <trkpt lat="44.99401" lon="6.46511">
        <ele>1868.5</ele>
        <time>2022-01-14T08:37:58Z</time>
      </trkpt>
      <trkpt lat="44.99401" lon="6.46512">
        <ele>1862</ele>
        <time>2022-01-14T08:37:59Z</time>
      </trkpt>
      <trkpt lat="44.99401" lon="6.46512">
        <ele>1862</ele>
        <time>2022-01-14T08:38:00Z</time>
      </trkpt>
      <trkpt lat="44.994" lon="6.46512">
        <ele>1862</ele>
        <time>2022-01-14T08:38:01Z</time>
      </trkpt>
      <trkpt lat="44.994" lon="6.46512">
        <ele>1862</ele>
        <time>2022-01-14T08:38:02Z</time>
      </trkpt>
      <trkpt lat="44.994" lon="6.46512">
        <ele>1862</ele>
        <time>2022-01-14T08:38:03Z</time>
      </trkpt>
      <trkpt lat="44.994" lon="6.46512">
        <ele>1862</ele>
        <time>2022-01-14T08:38:04Z</time>
      </trkpt>
      <trkpt lat="44.994" lon="6.46512">
        <ele>1862</ele>
        <time>2022-01-14T08:38:05Z</time>
      </trkpt>
      <trkpt lat="44.994" lon="6.46512">
        <ele>1862</ele>
        <time>2022-01-14T08:38:06Z</time>
      </trkpt>
      <trkpt lat="44.994" lon="6.46512">
        <ele>1862</ele>
        <time>2022-01-14T08:38:07Z</time>
      </trkpt>
      <trkpt lat="44.994" lon="6.46512">
        <ele>1862</ele>
        <time>2022-01-14T08:38:08Z</time>
      </trkpt>
      <trkpt lat="44.994" lon="6.46512">
        <ele>1862</ele>
        <time>2022-01-14T08:38:09Z</time>
      </trkpt>
      <trkpt lat="44.994" lon="6.46512">
        <ele>1862</ele>
        <time>2022-01-14T08:38:10Z</time>
      </trkpt>
      <trkpt lat="44.99399" lon="6.46514">
        <ele>1862</ele>
        <time>2022-01-14T08:38:11Z</time>
      </trkpt>
      <trkpt lat="44.99399" lon="6.46514">
        <ele>1862</ele>
        <time>2022-01-14T08:38:12Z</time>
      </trkpt>
      <trkpt lat="44.99399" lon="6.46514">
        <ele>1862</ele>
        <time>2022-01-14T08:38:13Z</time>
      </trkpt>
      <trkpt lat="44.99399" lon="6.46513">
        <ele>1862</ele>
        <time>2022-01-14T08:38:14Z</time>
      </trkpt>
      <trkpt lat="44.99399" lon="6.46515">
        <ele>1862</ele>
        <time>2022-01-14T08:38:15Z</time>
      </trkpt>
      <trkpt lat="44.99399" lon="6.46514">
        <ele>1862</ele>
        <time>2022-01-14T08:38:16Z</time>
      </trkpt>
      <trkpt lat="44.99399" lon="6.46514">
        <ele>1862</ele>
        <time>2022-01-14T08:38:17Z</time>
      </trkpt>
      <trkpt lat="44.99399" lon="6.46515">
        <ele>1862</ele>
        <time>2022-01-14T08:38:18Z</time>
      </trkpt>
      <trkpt lat="44.99399" lon="6.46515">
        <ele>1862</ele>
        <time>2022-01-14T08:38:19Z</time>
      </trkpt>
      <trkpt lat="44.99399" lon="6.46516">
        <ele>1862</ele>
        <time>2022-01-14T08:38:20Z</time>
      </trkpt>
      <trkpt lat="44.99399" lon="6.46516">
        <ele>1862</ele>
        <time>2022-01-14T08:38:21Z</time>
      </trkpt>
      <trkpt lat="44.99399" lon="6.46516">
        <ele>1862</ele>
        <time>2022-01-14T08:38:22Z</time>
      </trkpt>
      <trkpt lat="44.994" lon="6.46517">
        <ele>1862</ele>
        <time>2022-01-14T08:38:23Z</time>
      </trkpt>
      <trkpt lat="44.994" lon="6.46519">
        <ele>1862</ele>
        <time>2022-01-14T08:38:24Z</time>
      </trkpt>
      <trkpt lat="44.994" lon="6.46519">
        <ele>1862</ele>
        <time>2022-01-14T08:38:25Z</time>
      </trkpt>
      <trkpt lat="44.994" lon="6.4652">
        <ele>1862</ele>
        <time>2022-01-14T08:38:26Z</time>
      </trkpt>
      <trkpt lat="44.994" lon="6.4652">
        <ele>1862</ele>
        <time>2022-01-14T08:38:27Z</time>
      </trkpt>
      <trkpt lat="44.994" lon="6.46521">
        <ele>1862</ele>
        <time>2022-01-14T08:38:28Z</time>
      </trkpt>
      <trkpt lat="44.994" lon="6.46521">
        <ele>1862</ele>
        <time>2022-01-14T08:38:29Z</time>
      </trkpt>
      <trkpt lat="44.994" lon="6.46523">
        <ele>1862</ele>
        <time>2022-01-14T08:38:30Z</time>
      </trkpt>
      <trkpt lat="44.994" lon="6.46523">
        <ele>1862</ele>
        <time>2022-01-14T08:38:31Z</time>
      </trkpt>
      <trkpt lat="44.99399" lon="6.46522">
        <ele>1862</ele>
        <time>2022-01-14T08:38:32Z</time>
      </trkpt>
      <trkpt lat="44.99399" lon="6.46522">
        <ele>1862</ele>
        <time>2022-01-14T08:38:33Z</time>
      </trkpt>
      <trkpt lat="44.99399" lon="6.46522">
        <ele>1862</ele>
        <time>2022-01-14T08:38:34Z</time>
      </trkpt>
      <trkpt lat="44.99398" lon="6.46522">
        <ele>1862</ele>
        <time>2022-01-14T08:38:35Z</time>
      </trkpt>
      <trkpt lat="44.99397" lon="6.46522">
        <ele>1862</ele>
        <time>2022-01-14T08:38:36Z</time>
      </trkpt>
      <trkpt lat="44.99396" lon="6.46522">
        <ele>1862</ele>
        <time>2022-01-14T08:38:37Z</time>
      </trkpt>
      <trkpt lat="44.99395" lon="6.46523">
        <ele>1862</ele>
        <time>2022-01-14T08:38:38Z</time>
      </trkpt>
      <trkpt lat="44.99395" lon="6.46523">
        <ele>1862</ele>
        <time>2022-01-14T08:38:39Z</time>
      </trkpt>
      <trkpt lat="44.99394" lon="6.46524">
        <ele>1862</ele>
        <time>2022-01-14T08:38:40Z</time>
      </trkpt>
      <trkpt lat="44.99394" lon="6.46524">
        <ele>1865.7</ele>
        <time>2022-01-14T08:38:41Z</time>
      </trkpt>
      <trkpt lat="44.99393" lon="6.46524">
        <ele>1865.7</ele>
        <time>2022-01-14T08:38:42Z</time>
      </trkpt>
      <trkpt lat="44.99393" lon="6.46523">
        <ele>1865.7</ele>
        <time>2022-01-14T08:38:43Z</time>
      </trkpt>
      <trkpt lat="44.99392" lon="6.46523">
        <ele>1865.7</ele>
        <time>2022-01-14T08:38:44Z</time>
      </trkpt>
      <trkpt lat="44.99392" lon="6.46523">
        <ele>1865.7</ele>
        <time>2022-01-14T08:38:45Z</time>
      </trkpt>
      <trkpt lat="44.99391" lon="6.46523">
        <ele>1865.7</ele>
        <time>2022-01-14T08:38:46Z</time>
      </trkpt>
      <trkpt lat="44.99389" lon="6.46524">
        <ele>1865.7</ele>
        <time>2022-01-14T08:38:47Z</time>
      </trkpt>
      <trkpt lat="44.99388" lon="6.46524">
        <ele>1865.7</ele>
        <time>2022-01-14T08:38:48Z</time>
      </trkpt>
      <trkpt lat="44.99387" lon="6.46524">
        <ele>1865.7</ele>
        <time>2022-01-14T08:38:49Z</time>
      </trkpt>
      <trkpt lat="44.99387" lon="6.46524">
        <ele>1865.7</ele>
        <time>2022-01-14T08:38:50Z</time>
      </trkpt>
      <trkpt lat="44.99387" lon="6.46524">
        <ele>1865.7</ele>
        <time>2022-01-14T08:38:51Z</time>
      </trkpt>
      <trkpt lat="44.99387" lon="6.46524">
        <ele>1865.7</ele>
        <time>2022-01-14T08:38:52Z</time>
      </trkpt>
      <trkpt lat="44.99387" lon="6.46524">
        <ele>1865.7</ele>
        <time>2022-01-14T08:38:53Z</time>
      </trkpt>
      <trkpt lat="44.99387" lon="6.46525">
        <ele>1865.7</ele>
        <time>2022-01-14T08:38:54Z</time>
      </trkpt>
      <trkpt lat="44.99387" lon="6.46525">
        <ele>1865.7</ele>
        <time>2022-01-14T08:38:55Z</time>
      </trkpt>
      <trkpt lat="44.99386" lon="6.46526">
        <ele>1865.7</ele>
        <time>2022-01-14T08:38:56Z</time>
      </trkpt>
      <trkpt lat="44.99385" lon="6.46527">
        <ele>1865.7</ele>
        <time>2022-01-14T08:38:57Z</time>
      </trkpt>
      <trkpt lat="44.99385" lon="6.46527">
        <ele>1865.7</ele>
        <time>2022-01-14T08:38:58Z</time>
      </trkpt>
      <trkpt lat="44.99385" lon="6.46528">
        <ele>1865.7</ele>
        <time>2022-01-14T08:38:59Z</time>
      </trkpt>
      <trkpt lat="44.99385" lon="6.46528">
        <ele>1858.4</ele>
        <time>2022-01-14T08:39:00Z</time>
      </trkpt>
      <trkpt lat="44.99385" lon="6.4653">
        <ele>1858.4</ele>
        <time>2022-01-14T08:39:01Z</time>
      </trkpt>
      <trkpt lat="44.99385" lon="6.4653">
        <ele>1858.4</ele>
        <time>2022-01-14T08:39:02Z</time>
      </trkpt>
      <trkpt lat="44.99385" lon="6.4653">
        <ele>1858.4</ele>
        <time>2022-01-14T08:39:03Z</time>
      </trkpt>
      <trkpt lat="44.99384" lon="6.46531">
        <ele>1858.4</ele>
        <time>2022-01-14T08:39:04Z</time>
      </trkpt>
      <trkpt lat="44.99384" lon="6.46531">
        <ele>1858.4</ele>
        <time>2022-01-14T08:39:05Z</time>
      </trkpt>
      <trkpt lat="44.99384" lon="6.46531">
        <ele>1858.4</ele>
        <time>2022-01-14T08:39:06Z</time>
      </trkpt>
      <trkpt lat="44.99383" lon="6.46532">
        <ele>1858.4</ele>
        <time>2022-01-14T08:39:07Z</time>
      </trkpt>
      <trkpt lat="44.99382" lon="6.46532">
        <ele>1858.4</ele>
        <time>2022-01-14T08:39:08Z</time>
      </trkpt>
      <trkpt lat="44.99381" lon="6.46532">
        <ele>1861.6</ele>
        <time>2022-01-14T08:39:09Z</time>
      </trkpt>
      <trkpt lat="44.9938" lon="6.46532">
        <ele>1861.6</ele>
        <time>2022-01-14T08:39:10Z</time>
      </trkpt>
      <trkpt lat="44.9938" lon="6.46532">
        <ele>1861.6</ele>
        <time>2022-01-14T08:39:11Z</time>
      </trkpt>
      <trkpt lat="44.99379" lon="6.46532">
        <ele>1861.6</ele>
        <time>2022-01-14T08:39:12Z</time>
      </trkpt>
      <trkpt lat="44.99379" lon="6.46533">
        <ele>1861.6</ele>
        <time>2022-01-14T08:39:13Z</time>
      </trkpt>
      <trkpt lat="44.99378" lon="6.46533">
        <ele>1861.6</ele>
        <time>2022-01-14T08:39:14Z</time>
      </trkpt>
      <trkpt lat="44.99377" lon="6.46533">
        <ele>1861.6</ele>
        <time>2022-01-14T08:39:15Z</time>
      </trkpt>
      <trkpt lat="44.99377" lon="6.46532">
        <ele>1861.6</ele>
        <time>2022-01-14T08:39:16Z</time>
      </trkpt>
      <trkpt lat="44.99376" lon="6.46532">
        <ele>1861.6</ele>
        <time>2022-01-14T08:39:17Z</time>
      </trkpt>
      <trkpt lat="44.99376" lon="6.46532">
        <ele>1861.6</ele>
        <time>2022-01-14T08:39:18Z</time>
      </trkpt>
      <trkpt lat="44.99375" lon="6.46532">
        <ele>1861.6</ele>
        <time>2022-01-14T08:39:19Z</time>
      </trkpt>
      <trkpt lat="44.99375" lon="6.46532">
        <ele>1861.6</ele>
        <time>2022-01-14T08:39:20Z</time>
      </trkpt>
      <trkpt lat="44.99374" lon="6.46532">
        <ele>1861.6</ele>
        <time>2022-01-14T08:39:21Z</time>
      </trkpt>
      <trkpt lat="44.99374" lon="6.46532">
        <ele>1861.6</ele>
        <time>2022-01-14T08:39:22Z</time>
      </trkpt>
      <trkpt lat="44.99373" lon="6.46533">
        <ele>1861.6</ele>
        <time>2022-01-14T08:39:23Z</time>
      </trkpt>
      <trkpt lat="44.99372" lon="6.46533">
        <ele>1861.6</ele>
        <time>2022-01-14T08:39:24Z</time>
      </trkpt>
      <trkpt lat="44.99371" lon="6.46533">
        <ele>1861.6</ele>
        <time>2022-01-14T08:39:25Z</time>
      </trkpt>
      <trkpt lat="44.99371" lon="6.46533">
        <ele>1861.6</ele>
        <time>2022-01-14T08:39:26Z</time>
      </trkpt>
      <trkpt lat="44.99371" lon="6.46533">
        <ele>1861.6</ele>
        <time>2022-01-14T08:39:27Z</time>
      </trkpt>
      <trkpt lat="44.9937" lon="6.46533">
        <ele>1861.6</ele>
        <time>2022-01-14T08:39:28Z</time>
      </trkpt>
      <trkpt lat="44.9937" lon="6.46533">
        <ele>1864.1</ele>
        <time>2022-01-14T08:39:29Z</time>
      </trkpt>
      <trkpt lat="44.9937" lon="6.46534">
        <ele>1861.6</ele>
        <time>2022-01-14T08:39:30Z</time>
      </trkpt>
      <trkpt lat="44.9937" lon="6.46534">
        <ele>1861.6</ele>
        <time>2022-01-14T08:39:31Z</time>
      </trkpt>
      <trkpt lat="44.99369" lon="6.46534">
        <ele>1864.1</ele>
        <time>2022-01-14T08:39:32Z</time>
      </trkpt>
      <trkpt lat="44.99369" lon="6.46534">
        <ele>1864.1</ele>
        <time>2022-01-14T08:39:33Z</time>
      </trkpt>
      <trkpt lat="44.99369" lon="6.46534">
        <ele>1864.1</ele>
        <time>2022-01-14T08:39:34Z</time>
      </trkpt>
      <trkpt lat="44.99368" lon="6.46534">
        <ele>1864.1</ele>
        <time>2022-01-14T08:39:35Z</time>
      </trkpt>
      <trkpt lat="44.99368" lon="6.46534">
        <ele>1864.1</ele>
        <time>2022-01-14T08:39:36Z</time>
      </trkpt>
      <trkpt lat="44.99368" lon="6.46534">
        <ele>1864.1</ele>
        <time>2022-01-14T08:39:37Z</time>
      </trkpt>
      <trkpt lat="44.99368" lon="6.46534">
        <ele>1864.1</ele>
        <time>2022-01-14T08:39:38Z</time>
      </trkpt>
      <trkpt lat="44.99368" lon="6.46534">
        <ele>1864.1</ele>
        <time>2022-01-14T08:39:39Z</time>
      </trkpt>
      <trkpt lat="44.99368" lon="6.46533">
        <ele>1864.1</ele>
        <time>2022-01-14T08:39:40Z</time>
      </trkpt>
      <trkpt lat="44.99368" lon="6.46533">
        <ele>1864.1</ele>
        <time>2022-01-14T08:39:41Z</time>
      </trkpt>
      <trkpt lat="44.99367" lon="6.46533">
        <ele>1864.1</ele>
        <time>2022-01-14T08:39:42Z</time>
      </trkpt>
      <trkpt lat="44.99366" lon="6.46533">
        <ele>1864.1</ele>
        <time>2022-01-14T08:39:43Z</time>
      </trkpt>
      <trkpt lat="44.99365" lon="6.46533">
        <ele>1864.1</ele>
        <time>2022-01-14T08:39:44Z</time>
      </trkpt>
      <trkpt lat="44.99365" lon="6.46533">
        <ele>1864.1</ele>
        <time>2022-01-14T08:39:45Z</time>
      </trkpt>
      <trkpt lat="44.99365" lon="6.46533">
        <ele>1864.1</ele>
        <time>2022-01-14T08:39:46Z</time>
      </trkpt>
      <trkpt lat="44.99364" lon="6.46533">
        <ele>1864.1</ele>
        <time>2022-01-14T08:39:47Z</time>
      </trkpt>
      <trkpt lat="44.99364" lon="6.46534">
        <ele>1864.1</ele>
        <time>2022-01-14T08:39:48Z</time>
      </trkpt>
      <trkpt lat="44.99364" lon="6.46534">
        <ele>1864.1</ele>
        <time>2022-01-14T08:39:49Z</time>
      </trkpt>
      <trkpt lat="44.99363" lon="6.46533">
        <ele>1864.1</ele>
        <time>2022-01-14T08:39:50Z</time>
      </trkpt>
      <trkpt lat="44.99363" lon="6.46534">
        <ele>1864.1</ele>
        <time>2022-01-14T08:39:51Z</time>
      </trkpt>
      <trkpt lat="44.99362" lon="6.46534">
        <ele>1864.1</ele>
        <time>2022-01-14T08:39:52Z</time>
      </trkpt>
      <trkpt lat="44.99361" lon="6.46534">
        <ele>1864.1</ele>
        <time>2022-01-14T08:39:53Z</time>
      </trkpt>
      <trkpt lat="44.99361" lon="6.46534">
        <ele>1864.1</ele>
        <time>2022-01-14T08:39:54Z</time>
      </trkpt>
      <trkpt lat="44.99361" lon="6.46533">
        <ele>1864.1</ele>
        <time>2022-01-14T08:39:55Z</time>
      </trkpt>
      <trkpt lat="44.9936" lon="6.46533">
        <ele>1864.1</ele>
        <time>2022-01-14T08:39:56Z</time>
      </trkpt>
      <trkpt lat="44.9936" lon="6.46534">
        <ele>1864.1</ele>
        <time>2022-01-14T08:39:57Z</time>
      </trkpt>
      <trkpt lat="44.9936" lon="6.46534">
        <ele>1864.1</ele>
        <time>2022-01-14T08:39:58Z</time>
      </trkpt>
      <trkpt lat="44.99361" lon="6.46536">
        <ele>1864.1</ele>
        <time>2022-01-14T08:39:59Z</time>
      </trkpt>
      <trkpt lat="44.99361" lon="6.46536">
        <ele>1864.1</ele>
        <time>2022-01-14T08:40:00Z</time>
      </trkpt>
      <trkpt lat="44.9936" lon="6.46536">
        <ele>1864.1</ele>
        <time>2022-01-14T08:40:01Z</time>
      </trkpt>
      <trkpt lat="44.99361" lon="6.46535">
        <ele>1864.1</ele>
        <time>2022-01-14T08:40:02Z</time>
      </trkpt>
      <trkpt lat="44.99361" lon="6.46535">
        <ele>1864.1</ele>
        <time>2022-01-14T08:40:03Z</time>
      </trkpt>
      <trkpt lat="44.99361" lon="6.46535">
        <ele>1864.1</ele>
        <time>2022-01-14T08:40:04Z</time>
      </trkpt>
      <trkpt lat="44.99361" lon="6.46535">
        <ele>1864.1</ele>
        <time>2022-01-14T08:40:05Z</time>
      </trkpt>
      <trkpt lat="44.99361" lon="6.46534">
        <ele>1864.1</ele>
        <time>2022-01-14T08:40:06Z</time>
      </trkpt>
      <trkpt lat="44.9936" lon="6.46534">
        <ele>1864.1</ele>
        <time>2022-01-14T08:40:07Z</time>
      </trkpt>
      <trkpt lat="44.99361" lon="6.46535">
        <ele>1864.1</ele>
        <time>2022-01-14T08:40:08Z</time>
      </trkpt>
      <trkpt lat="44.9936" lon="6.46535">
        <ele>1864.1</ele>
        <time>2022-01-14T08:40:09Z</time>
      </trkpt>
      <trkpt lat="44.9936" lon="6.46535">
        <ele>1864.1</ele>
        <time>2022-01-14T08:40:10Z</time>
      </trkpt>
      <trkpt lat="44.99359" lon="6.46534">
        <ele>1864.1</ele>
        <time>2022-01-14T08:40:11Z</time>
      </trkpt>
      <trkpt lat="44.99359" lon="6.46533">
        <ele>1864.1</ele>
        <time>2022-01-14T08:40:12Z</time>
      </trkpt>
      <trkpt lat="44.99358" lon="6.46532">
        <ele>1864.1</ele>
        <time>2022-01-14T08:40:13Z</time>
      </trkpt>
      <trkpt lat="44.99358" lon="6.46532">
        <ele>1864.1</ele>
        <time>2022-01-14T08:40:14Z</time>
      </trkpt>
      <trkpt lat="44.99357" lon="6.46532">
        <ele>1866.2</ele>
        <time>2022-01-14T08:40:15Z</time>
      </trkpt>
      <trkpt lat="44.99356" lon="6.46532">
        <ele>1866.2</ele>
        <time>2022-01-14T08:40:16Z</time>
      </trkpt>
      <trkpt lat="44.99356" lon="6.46531">
        <ele>1866.2</ele>
        <time>2022-01-14T08:40:17Z</time>
      </trkpt>
      <trkpt lat="44.99355" lon="6.46531">
        <ele>1866.2</ele>
        <time>2022-01-14T08:40:18Z</time>
      </trkpt>
      <trkpt lat="44.99354" lon="6.46532">
        <ele>1866.2</ele>
        <time>2022-01-14T08:40:19Z</time>
      </trkpt>
      <trkpt lat="44.99353" lon="6.46532">
        <ele>1866.2</ele>
        <time>2022-01-14T08:40:20Z</time>
      </trkpt>
      <trkpt lat="44.99352" lon="6.46532">
        <ele>1866.2</ele>
        <time>2022-01-14T08:40:21Z</time>
      </trkpt>
      <trkpt lat="44.99352" lon="6.46533">
        <ele>1866.2</ele>
        <time>2022-01-14T08:40:22Z</time>
      </trkpt>
      <trkpt lat="44.99351" lon="6.46534">
        <ele>1866.2</ele>
        <time>2022-01-14T08:40:23Z</time>
      </trkpt>
      <trkpt lat="44.9935" lon="6.46533">
        <ele>1866.2</ele>
        <time>2022-01-14T08:40:24Z</time>
      </trkpt>
      <trkpt lat="44.99349" lon="6.46534">
        <ele>1866.2</ele>
        <time>2022-01-14T08:40:25Z</time>
      </trkpt>
      <trkpt lat="44.99348" lon="6.46534">
        <ele>1866.2</ele>
        <time>2022-01-14T08:40:26Z</time>
      </trkpt>
      <trkpt lat="44.99348" lon="6.46535">
        <ele>1866.2</ele>
        <time>2022-01-14T08:40:27Z</time>
      </trkpt>
      <trkpt lat="44.99348" lon="6.46536">
        <ele>1866.2</ele>
        <time>2022-01-14T08:40:28Z</time>
      </trkpt>
      <trkpt lat="44.99348" lon="6.46536">
        <ele>1866.2</ele>
        <time>2022-01-14T08:40:29Z</time>
      </trkpt>
      <trkpt lat="44.99347" lon="6.46535">
        <ele>1866.2</ele>
        <time>2022-01-14T08:40:30Z</time>
      </trkpt>
      <trkpt lat="44.99347" lon="6.46534">
        <ele>1866.2</ele>
        <time>2022-01-14T08:40:31Z</time>
      </trkpt>
      <trkpt lat="44.99346" lon="6.46533">
        <ele>1866.2</ele>
        <time>2022-01-14T08:40:32Z</time>
      </trkpt>
      <trkpt lat="44.99346" lon="6.46534">
        <ele>1866.2</ele>
        <time>2022-01-14T08:40:33Z</time>
      </trkpt>
      <trkpt lat="44.99345" lon="6.46534">
        <ele>1867.6</ele>
        <time>2022-01-14T08:40:34Z</time>
      </trkpt>
      <trkpt lat="44.99345" lon="6.46535">
        <ele>1867.6</ele>
        <time>2022-01-14T08:40:35Z</time>
      </trkpt>
      <trkpt lat="44.99345" lon="6.46536">
        <ele>1867.6</ele>
        <time>2022-01-14T08:40:36Z</time>
      </trkpt>
      <trkpt lat="44.99345" lon="6.46537">
        <ele>1867.6</ele>
        <time>2022-01-14T08:40:37Z</time>
      </trkpt>
      <trkpt lat="44.99345" lon="6.46536">
        <ele>1867.6</ele>
        <time>2022-01-14T08:40:38Z</time>
      </trkpt>
      <trkpt lat="44.99345" lon="6.46536">
        <ele>1867.6</ele>
        <time>2022-01-14T08:40:39Z</time>
      </trkpt>
      <trkpt lat="44.99345" lon="6.46536">
        <ele>1867.6</ele>
        <time>2022-01-14T08:40:40Z</time>
      </trkpt>
      <trkpt lat="44.99345" lon="6.46536">
        <ele>1867.6</ele>
        <time>2022-01-14T08:40:41Z</time>
      </trkpt>
      <trkpt lat="44.99345" lon="6.46536">
        <ele>1867.6</ele>
        <time>2022-01-14T08:40:42Z</time>
      </trkpt>
      <trkpt lat="44.99345" lon="6.46536">
        <ele>1867.6</ele>
        <time>2022-01-14T08:40:43Z</time>
      </trkpt>
      <trkpt lat="44.99345" lon="6.46535">
        <ele>1867.6</ele>
        <time>2022-01-14T08:40:44Z</time>
      </trkpt>
      <trkpt lat="44.99345" lon="6.46536">
        <ele>1867.6</ele>
        <time>2022-01-14T08:40:45Z</time>
      </trkpt>
      <trkpt lat="44.99344" lon="6.46536">
        <ele>1867.6</ele>
        <time>2022-01-14T08:40:46Z</time>
      </trkpt>
      <trkpt lat="44.99344" lon="6.46535">
        <ele>1867.6</ele>
        <time>2022-01-14T08:40:47Z</time>
      </trkpt>
      <trkpt lat="44.99343" lon="6.46534">
        <ele>1867.6</ele>
        <time>2022-01-14T08:40:48Z</time>
      </trkpt>
      <trkpt lat="44.99342" lon="6.46534">
        <ele>1867.6</ele>
        <time>2022-01-14T08:40:49Z</time>
      </trkpt>
      <trkpt lat="44.99342" lon="6.46534">
        <ele>1867.6</ele>
        <time>2022-01-14T08:40:50Z</time>
      </trkpt>
      <trkpt lat="44.99343" lon="6.46534">
        <ele>1867.6</ele>
        <time>2022-01-14T08:40:51Z</time>
      </trkpt>
      <trkpt lat="44.99343" lon="6.46534">
        <ele>1867.6</ele>
        <time>2022-01-14T08:40:52Z</time>
      </trkpt>
      <trkpt lat="44.99343" lon="6.46534">
        <ele>1867.6</ele>
        <time>2022-01-14T08:40:53Z</time>
      </trkpt>
      <trkpt lat="44.99344" lon="6.46533">
        <ele>1867.6</ele>
        <time>2022-01-14T08:40:54Z</time>
      </trkpt>
      <trkpt lat="44.99344" lon="6.46533">
        <ele>1867.6</ele>
        <time>2022-01-14T08:40:55Z</time>
      </trkpt>
      <trkpt lat="44.99344" lon="6.46533">
        <ele>1867.6</ele>
        <time>2022-01-14T08:40:56Z</time>
      </trkpt>
      <trkpt lat="44.99344" lon="6.46533">
        <ele>1867.6</ele>
        <time>2022-01-14T08:40:57Z</time>
      </trkpt>
      <trkpt lat="44.99345" lon="6.46532">
        <ele>1867.6</ele>
        <time>2022-01-14T08:40:58Z</time>
      </trkpt>
      <trkpt lat="44.99345" lon="6.46532">
        <ele>1867.6</ele>
        <time>2022-01-14T08:40:59Z</time>
      </trkpt>
      <trkpt lat="44.99345" lon="6.46532">
        <ele>1867.6</ele>
        <time>2022-01-14T08:41:00Z</time>
      </trkpt>
      <trkpt lat="44.99346" lon="6.46532">
        <ele>1866.2</ele>
        <time>2022-01-14T08:41:01Z</time>
      </trkpt>
      <trkpt lat="44.99346" lon="6.46531">
        <ele>1866.2</ele>
        <time>2022-01-14T08:41:02Z</time>
      </trkpt>
      <trkpt lat="44.99347" lon="6.4653">
        <ele>1866.2</ele>
        <time>2022-01-14T08:41:03Z</time>
      </trkpt>
      <trkpt lat="44.99349" lon="6.46531">
        <ele>1866.2</ele>
        <time>2022-01-14T08:41:04Z</time>
      </trkpt>
      <trkpt lat="44.99349" lon="6.46531">
        <ele>1866.2</ele>
        <time>2022-01-14T08:41:05Z</time>
      </trkpt>
      <trkpt lat="44.9935" lon="6.46531">
        <ele>1866.2</ele>
        <time>2022-01-14T08:41:06Z</time>
      </trkpt>
      <trkpt lat="44.99351" lon="6.4653">
        <ele>1866.2</ele>
        <time>2022-01-14T08:41:07Z</time>
      </trkpt>
      <trkpt lat="44.99351" lon="6.4653">
        <ele>1866.2</ele>
        <time>2022-01-14T08:41:08Z</time>
      </trkpt>
      <trkpt lat="44.99351" lon="6.4653">
        <ele>1866.2</ele>
        <time>2022-01-14T08:41:09Z</time>
      </trkpt>
      <trkpt lat="44.99351" lon="6.4653">
        <ele>1866.2</ele>
        <time>2022-01-14T08:41:10Z</time>
      </trkpt>
      <trkpt lat="44.9935" lon="6.46529">
        <ele>1866.2</ele>
        <time>2022-01-14T08:41:11Z</time>
      </trkpt>
      <trkpt lat="44.9935" lon="6.4653">
        <ele>1866.2</ele>
        <time>2022-01-14T08:41:12Z</time>
      </trkpt>
      <trkpt lat="44.99351" lon="6.46531">
        <ele>1866.2</ele>
        <time>2022-01-14T08:41:13Z</time>
      </trkpt>
      <trkpt lat="44.99351" lon="6.4653">
        <ele>1866.2</ele>
        <time>2022-01-14T08:41:14Z</time>
      </trkpt>
      <trkpt lat="44.9935" lon="6.46529">
        <ele>1866.2</ele>
        <time>2022-01-14T08:41:15Z</time>
      </trkpt>
      <trkpt lat="44.99351" lon="6.46528">
        <ele>1873.3</ele>
        <time>2022-01-14T08:41:16Z</time>
      </trkpt>
      <trkpt lat="44.99351" lon="6.46527">
        <ele>1873.3</ele>
        <time>2022-01-14T08:41:17Z</time>
      </trkpt>
      <trkpt lat="44.99351" lon="6.46528">
        <ele>1873.3</ele>
        <time>2022-01-14T08:41:18Z</time>
      </trkpt>
      <trkpt lat="44.99352" lon="6.46528">
        <ele>1873.3</ele>
        <time>2022-01-14T08:41:19Z</time>
      </trkpt>
      <trkpt lat="44.99352" lon="6.46527">
        <ele>1873.3</ele>
        <time>2022-01-14T08:41:20Z</time>
      </trkpt>
      <trkpt lat="44.99352" lon="6.46526">
        <ele>1873.3</ele>
        <time>2022-01-14T08:41:21Z</time>
      </trkpt>
      <trkpt lat="44.99353" lon="6.46526">
        <ele>1873.3</ele>
        <time>2022-01-14T08:41:22Z</time>
      </trkpt>
      <trkpt lat="44.99354" lon="6.46524">
        <ele>1873.3</ele>
        <time>2022-01-14T08:41:23Z</time>
      </trkpt>
      <trkpt lat="44.99354" lon="6.46524">
        <ele>1873.3</ele>
        <time>2022-01-14T08:41:24Z</time>
      </trkpt>
      <trkpt lat="44.99354" lon="6.46523">
        <ele>1873.3</ele>
        <time>2022-01-14T08:41:25Z</time>
      </trkpt>
      <trkpt lat="44.99355" lon="6.46523">
        <ele>1873.3</ele>
        <time>2022-01-14T08:41:26Z</time>
      </trkpt>
      <trkpt lat="44.99355" lon="6.46522">
        <ele>1873.3</ele>
        <time>2022-01-14T08:41:27Z</time>
      </trkpt>
      <trkpt lat="44.99354" lon="6.46522">
        <ele>1873.3</ele>
        <time>2022-01-14T08:41:28Z</time>
      </trkpt>
      <trkpt lat="44.99354" lon="6.46522">
        <ele>1873.3</ele>
        <time>2022-01-14T08:41:29Z</time>
      </trkpt>
      <trkpt lat="44.99354" lon="6.46521">
        <ele>1873.3</ele>
        <time>2022-01-14T08:41:30Z</time>
      </trkpt>
      <trkpt lat="44.99355" lon="6.4652">
        <ele>1873.3</ele>
        <time>2022-01-14T08:41:31Z</time>
      </trkpt>
      <trkpt lat="44.99356" lon="6.4652">
        <ele>1873.3</ele>
        <time>2022-01-14T08:41:32Z</time>
      </trkpt>
      <trkpt lat="44.99357" lon="6.4652">
        <ele>1873.3</ele>
        <time>2022-01-14T08:41:33Z</time>
      </trkpt>
      <trkpt lat="44.99357" lon="6.46519">
        <ele>1873.3</ele>
        <time>2022-01-14T08:41:34Z</time>
      </trkpt>
      <trkpt lat="44.99358" lon="6.46518">
        <ele>1871.4</ele>
        <time>2022-01-14T08:41:35Z</time>
      </trkpt>
      <trkpt lat="44.99358" lon="6.46517">
        <ele>1871.4</ele>
        <time>2022-01-14T08:41:36Z</time>
      </trkpt>
      <trkpt lat="44.99358" lon="6.46516">
        <ele>1871.4</ele>
        <time>2022-01-14T08:41:37Z</time>
      </trkpt>
      <trkpt lat="44.99359" lon="6.46515">
        <ele>1871.4</ele>
        <time>2022-01-14T08:41:38Z</time>
      </trkpt>
      <trkpt lat="44.99357" lon="6.46516">
        <ele>1873.3</ele>
        <time>2022-01-14T08:41:39Z</time>
      </trkpt>
      <trkpt lat="44.99357" lon="6.46515">
        <ele>1873.3</ele>
        <time>2022-01-14T08:41:40Z</time>
      </trkpt>
      <trkpt lat="44.99357" lon="6.46515">
        <ele>1873.3</ele>
        <time>2022-01-14T08:41:41Z</time>
      </trkpt>
      <trkpt lat="44.99358" lon="6.46514">
        <ele>1873.3</ele>
        <time>2022-01-14T08:41:42Z</time>
      </trkpt>
      <trkpt lat="44.99358" lon="6.46514">
        <ele>1873.3</ele>
        <time>2022-01-14T08:41:43Z</time>
      </trkpt>
      <trkpt lat="44.99357" lon="6.46512">
        <ele>1873.3</ele>
        <time>2022-01-14T08:41:44Z</time>
      </trkpt>
      <trkpt lat="44.99356" lon="6.46512">
        <ele>1873.3</ele>
        <time>2022-01-14T08:41:45Z</time>
      </trkpt>
      <trkpt lat="44.99356" lon="6.46511">
        <ele>1873.3</ele>
        <time>2022-01-14T08:41:46Z</time>
      </trkpt>
      <trkpt lat="44.99356" lon="6.46511">
        <ele>1879.9</ele>
        <time>2022-01-14T08:41:47Z</time>
      </trkpt>
      <trkpt lat="44.99356" lon="6.4651">
        <ele>1879.9</ele>
        <time>2022-01-14T08:41:48Z</time>
      </trkpt>
      <trkpt lat="44.99356" lon="6.4651">
        <ele>1879.9</ele>
        <time>2022-01-14T08:41:49Z</time>
      </trkpt>
      <trkpt lat="44.99357" lon="6.4651">
        <ele>1879.9</ele>
        <time>2022-01-14T08:41:50Z</time>
      </trkpt>
      <trkpt lat="44.99359" lon="6.4651">
        <ele>1877.8</ele>
        <time>2022-01-14T08:41:51Z</time>
      </trkpt>
      <trkpt lat="44.99359" lon="6.4651">
        <ele>1877.8</ele>
        <time>2022-01-14T08:41:52Z</time>
      </trkpt>
      <trkpt lat="44.99359" lon="6.4651">
        <ele>1877.8</ele>
        <time>2022-01-14T08:41:53Z</time>
      </trkpt>
      <trkpt lat="44.99359" lon="6.46509">
        <ele>1877.8</ele>
        <time>2022-01-14T08:41:54Z</time>
      </trkpt>
      <trkpt lat="44.99359" lon="6.46509">
        <ele>1877.8</ele>
        <time>2022-01-14T08:41:55Z</time>
      </trkpt>
      <trkpt lat="44.99359" lon="6.46509">
        <ele>1877.8</ele>
        <time>2022-01-14T08:41:56Z</time>
      </trkpt>
      <trkpt lat="44.99359" lon="6.46509">
        <ele>1877.8</ele>
        <time>2022-01-14T08:41:57Z</time>
      </trkpt>
      <trkpt lat="44.99359" lon="6.46509">
        <ele>1877.8</ele>
        <time>2022-01-14T08:41:58Z</time>
      </trkpt>
      <trkpt lat="44.99359" lon="6.46508">
        <ele>1877.8</ele>
        <time>2022-01-14T08:41:59Z</time>
      </trkpt>
      <trkpt lat="44.99358" lon="6.46507">
        <ele>1877.8</ele>
        <time>2022-01-14T08:42:00Z</time>
      </trkpt>
      <trkpt lat="44.99358" lon="6.46507">
        <ele>1877.8</ele>
        <time>2022-01-14T08:42:01Z</time>
      </trkpt>
      <trkpt lat="44.99359" lon="6.46507">
        <ele>1877.8</ele>
        <time>2022-01-14T08:42:02Z</time>
      </trkpt>
      <trkpt lat="44.99359" lon="6.46506">
        <ele>1877.8</ele>
        <time>2022-01-14T08:42:03Z</time>
      </trkpt>
      <trkpt lat="44.9936" lon="6.46505">
        <ele>1877.8</ele>
        <time>2022-01-14T08:42:04Z</time>
      </trkpt>
      <trkpt lat="44.9936" lon="6.46504">
        <ele>1877.8</ele>
        <time>2022-01-14T08:42:05Z</time>
      </trkpt>
      <trkpt lat="44.99361" lon="6.46504">
        <ele>1877.8</ele>
        <time>2022-01-14T08:42:06Z</time>
      </trkpt>
      <trkpt lat="44.99361" lon="6.46503">
        <ele>1877.8</ele>
        <time>2022-01-14T08:42:07Z</time>
      </trkpt>
      <trkpt lat="44.99362" lon="6.46501">
        <ele>1877.8</ele>
        <time>2022-01-14T08:42:08Z</time>
      </trkpt>
      <trkpt lat="44.99362" lon="6.46501">
        <ele>1877.8</ele>
        <time>2022-01-14T08:42:09Z</time>
      </trkpt>
      <trkpt lat="44.99362" lon="6.465">
        <ele>1877.8</ele>
        <time>2022-01-14T08:42:10Z</time>
      </trkpt>
      <trkpt lat="44.99362" lon="6.465">
        <ele>1877.8</ele>
        <time>2022-01-14T08:42:11Z</time>
      </trkpt>
      <trkpt lat="44.99361" lon="6.46499">
        <ele>1877.8</ele>
        <time>2022-01-14T08:42:12Z</time>
      </trkpt>
      <trkpt lat="44.9936" lon="6.46499">
        <ele>1877.8</ele>
        <time>2022-01-14T08:42:13Z</time>
      </trkpt>
      <trkpt lat="44.9936" lon="6.46499">
        <ele>1877.8</ele>
        <time>2022-01-14T08:42:14Z</time>
      </trkpt>
      <trkpt lat="44.9936" lon="6.46498">
        <ele>1877.8</ele>
        <time>2022-01-14T08:42:15Z</time>
      </trkpt>
      <trkpt lat="44.9936" lon="6.46497">
        <ele>1877.8</ele>
        <time>2022-01-14T08:42:16Z</time>
      </trkpt>
      <trkpt lat="44.9936" lon="6.46497">
        <ele>1877.8</ele>
        <time>2022-01-14T08:42:17Z</time>
      </trkpt>
      <trkpt lat="44.9936" lon="6.46496">
        <ele>1877.8</ele>
        <time>2022-01-14T08:42:18Z</time>
      </trkpt>
      <trkpt lat="44.9936" lon="6.46496">
        <ele>1877.8</ele>
        <time>2022-01-14T08:42:19Z</time>
      </trkpt>
      <trkpt lat="44.9936" lon="6.46494">
        <ele>1884.3</ele>
        <time>2022-01-14T08:42:20Z</time>
      </trkpt>
      <trkpt lat="44.9936" lon="6.46494">
        <ele>1884.3</ele>
        <time>2022-01-14T08:42:21Z</time>
      </trkpt>
      <trkpt lat="44.99361" lon="6.46493">
        <ele>1884.3</ele>
        <time>2022-01-14T08:42:22Z</time>
      </trkpt>
      <trkpt lat="44.99361" lon="6.46492">
        <ele>1884.3</ele>
        <time>2022-01-14T08:42:23Z</time>
      </trkpt>
      <trkpt lat="44.99361" lon="6.46492">
        <ele>1884.3</ele>
        <time>2022-01-14T08:42:24Z</time>
      </trkpt>
      <trkpt lat="44.99361" lon="6.46491">
        <ele>1884.3</ele>
        <time>2022-01-14T08:42:25Z</time>
      </trkpt>
      <trkpt lat="44.99361" lon="6.46491">
        <ele>1884.3</ele>
        <time>2022-01-14T08:42:26Z</time>
      </trkpt>
      <trkpt lat="44.99361" lon="6.46491">
        <ele>1884.3</ele>
        <time>2022-01-14T08:42:27Z</time>
      </trkpt>
      <trkpt lat="44.99362" lon="6.46491">
        <ele>1884.3</ele>
        <time>2022-01-14T08:42:28Z</time>
      </trkpt>
      <trkpt lat="44.99362" lon="6.4649">
        <ele>1884.3</ele>
        <time>2022-01-14T08:42:29Z</time>
      </trkpt>
      <trkpt lat="44.99362" lon="6.46489">
        <ele>1884.3</ele>
        <time>2022-01-14T08:42:30Z</time>
      </trkpt>
      <trkpt lat="44.99362" lon="6.46488">
        <ele>1884.3</ele>
        <time>2022-01-14T08:42:31Z</time>
      </trkpt>
      <trkpt lat="44.99361" lon="6.46487">
        <ele>1884.3</ele>
        <time>2022-01-14T08:42:32Z</time>
      </trkpt>
      <trkpt lat="44.99361" lon="6.46486">
        <ele>1884.3</ele>
        <time>2022-01-14T08:42:33Z</time>
      </trkpt>
      <trkpt lat="44.99361" lon="6.46487">
        <ele>1884.3</ele>
        <time>2022-01-14T08:42:34Z</time>
      </trkpt>
      <trkpt lat="44.99361" lon="6.46487">
        <ele>1884.3</ele>
        <time>2022-01-14T08:42:35Z</time>
      </trkpt>
      <trkpt lat="44.99361" lon="6.46487">
        <ele>1884.3</ele>
        <time>2022-01-14T08:42:36Z</time>
      </trkpt>
      <trkpt lat="44.99361" lon="6.46487">
        <ele>1884.3</ele>
        <time>2022-01-14T08:42:37Z</time>
      </trkpt>
      <trkpt lat="44.99361" lon="6.46487">
        <ele>1884.3</ele>
        <time>2022-01-14T08:42:38Z</time>
      </trkpt>
      <trkpt lat="44.99361" lon="6.46487">
        <ele>1884.3</ele>
        <time>2022-01-14T08:42:39Z</time>
      </trkpt>
      <trkpt lat="44.99361" lon="6.46487">
        <ele>1884.3</ele>
        <time>2022-01-14T08:42:40Z</time>
      </trkpt>
      <trkpt lat="44.99361" lon="6.46486">
        <ele>1884.3</ele>
        <time>2022-01-14T08:42:41Z</time>
      </trkpt>
      <trkpt lat="44.99361" lon="6.46486">
        <ele>1884.3</ele>
        <time>2022-01-14T08:42:42Z</time>
      </trkpt>
      <trkpt lat="44.99361" lon="6.46487">
        <ele>1884.3</ele>
        <time>2022-01-14T08:42:43Z</time>
      </trkpt>
      <trkpt lat="44.99361" lon="6.46487">
        <ele>1884.3</ele>
        <time>2022-01-14T08:42:44Z</time>
      </trkpt>
      <trkpt lat="44.99361" lon="6.46487">
        <ele>1884.3</ele>
        <time>2022-01-14T08:42:45Z</time>
      </trkpt>
      <trkpt lat="44.99361" lon="6.46486">
        <ele>1884.3</ele>
        <time>2022-01-14T08:42:46Z</time>
      </trkpt>
      <trkpt lat="44.99362" lon="6.46485">
        <ele>1884.3</ele>
        <time>2022-01-14T08:42:47Z</time>
      </trkpt>
      <trkpt lat="44.99362" lon="6.46483">
        <ele>1884.3</ele>
        <time>2022-01-14T08:42:48Z</time>
      </trkpt>
      <trkpt lat="44.99363" lon="6.46482">
        <ele>1884.3</ele>
        <time>2022-01-14T08:42:49Z</time>
      </trkpt>
      <trkpt lat="44.99364" lon="6.46481">
        <ele>1884.3</ele>
        <time>2022-01-14T08:42:50Z</time>
      </trkpt>
      <trkpt lat="44.99364" lon="6.46481">
        <ele>1884.3</ele>
        <time>2022-01-14T08:42:51Z</time>
      </trkpt>
      <trkpt lat="44.99365" lon="6.4648">
        <ele>1884.3</ele>
        <time>2022-01-14T08:42:52Z</time>
      </trkpt>
      <trkpt lat="44.99366" lon="6.4648">
        <ele>1884.3</ele>
        <time>2022-01-14T08:42:53Z</time>
      </trkpt>
      <trkpt lat="44.99366" lon="6.46479">
        <ele>1884.3</ele>
        <time>2022-01-14T08:42:54Z</time>
      </trkpt>
      <trkpt lat="44.99367" lon="6.46479">
        <ele>1884.3</ele>
        <time>2022-01-14T08:42:55Z</time>
      </trkpt>
      <trkpt lat="44.99367" lon="6.46479">
        <ele>1884.3</ele>
        <time>2022-01-14T08:42:56Z</time>
      </trkpt>
      <trkpt lat="44.99367" lon="6.46479">
        <ele>1884.3</ele>
        <time>2022-01-14T08:42:57Z</time>
      </trkpt>
      <trkpt lat="44.99367" lon="6.46479">
        <ele>1884.3</ele>
        <time>2022-01-14T08:42:58Z</time>
      </trkpt>
      <trkpt lat="44.99368" lon="6.46478">
        <ele>1884.3</ele>
        <time>2022-01-14T08:42:59Z</time>
      </trkpt>
      <trkpt lat="44.99368" lon="6.46476">
        <ele>1890.8</ele>
        <time>2022-01-14T08:43:00Z</time>
      </trkpt>
      <trkpt lat="44.99368" lon="6.46477">
        <ele>1890.8</ele>
        <time>2022-01-14T08:43:01Z</time>
      </trkpt>
      <trkpt lat="44.99369" lon="6.46477">
        <ele>1884.3</ele>
        <time>2022-01-14T08:43:02Z</time>
      </trkpt>
      <trkpt lat="44.9937" lon="6.46477">
        <ele>1890.8</ele>
        <time>2022-01-14T08:43:03Z</time>
      </trkpt>
      <trkpt lat="44.9937" lon="6.46475">
        <ele>1888.2</ele>
        <time>2022-01-14T08:43:04Z</time>
      </trkpt>
      <trkpt lat="44.9937" lon="6.46474">
        <ele>1888.2</ele>
        <time>2022-01-14T08:43:05Z</time>
      </trkpt>
      <trkpt lat="44.99371" lon="6.46473">
        <ele>1888.2</ele>
        <time>2022-01-14T08:43:06Z</time>
      </trkpt>
      <trkpt lat="44.99371" lon="6.46472">
        <ele>1888.2</ele>
        <time>2022-01-14T08:43:07Z</time>
      </trkpt>
      <trkpt lat="44.99372" lon="6.46471">
        <ele>1888.2</ele>
        <time>2022-01-14T08:43:08Z</time>
      </trkpt>
      <trkpt lat="44.99372" lon="6.46471">
        <ele>1888.2</ele>
        <time>2022-01-14T08:43:09Z</time>
      </trkpt>
      <trkpt lat="44.99372" lon="6.46471">
        <ele>1888.2</ele>
        <time>2022-01-14T08:43:10Z</time>
      </trkpt>
      <trkpt lat="44.99372" lon="6.4647">
        <ele>1888.2</ele>
        <time>2022-01-14T08:43:11Z</time>
      </trkpt>
      <trkpt lat="44.99373" lon="6.46469">
        <ele>1888.2</ele>
        <time>2022-01-14T08:43:12Z</time>
      </trkpt>
      <trkpt lat="44.99373" lon="6.46468">
        <ele>1888.2</ele>
        <time>2022-01-14T08:43:13Z</time>
      </trkpt>
      <trkpt lat="44.99374" lon="6.46468">
        <ele>1888.2</ele>
        <time>2022-01-14T08:43:14Z</time>
      </trkpt>
      <trkpt lat="44.99375" lon="6.46468">
        <ele>1888.2</ele>
        <time>2022-01-14T08:43:15Z</time>
      </trkpt>
      <trkpt lat="44.99376" lon="6.46468">
        <ele>1888.2</ele>
        <time>2022-01-14T08:43:16Z</time>
      </trkpt>
      <trkpt lat="44.99376" lon="6.46467">
        <ele>1888.2</ele>
        <time>2022-01-14T08:43:17Z</time>
      </trkpt>
      <trkpt lat="44.99376" lon="6.46467">
        <ele>1888.2</ele>
        <time>2022-01-14T08:43:18Z</time>
      </trkpt>
      <trkpt lat="44.99376" lon="6.46467">
        <ele>1888.2</ele>
        <time>2022-01-14T08:43:19Z</time>
      </trkpt>
      <trkpt lat="44.99376" lon="6.46467">
        <ele>1888.2</ele>
        <time>2022-01-14T08:43:20Z</time>
      </trkpt>
      <trkpt lat="44.99377" lon="6.46467">
        <ele>1888.2</ele>
        <time>2022-01-14T08:43:21Z</time>
      </trkpt>
      <trkpt lat="44.99377" lon="6.46466">
        <ele>1888.2</ele>
        <time>2022-01-14T08:43:22Z</time>
      </trkpt>
      <trkpt lat="44.99378" lon="6.46464">
        <ele>1888.2</ele>
        <time>2022-01-14T08:43:23Z</time>
      </trkpt>
      <trkpt lat="44.9938" lon="6.46463">
        <ele>1888.2</ele>
        <time>2022-01-14T08:43:24Z</time>
      </trkpt>
      <trkpt lat="44.99381" lon="6.46462">
        <ele>1888.2</ele>
        <time>2022-01-14T08:43:25Z</time>
      </trkpt>
      <trkpt lat="44.99381" lon="6.46462">
        <ele>1888.2</ele>
        <time>2022-01-14T08:43:26Z</time>
      </trkpt>
      <trkpt lat="44.99383" lon="6.46462">
        <ele>1885.3</ele>
        <time>2022-01-14T08:43:27Z</time>
      </trkpt>
      <trkpt lat="44.99383" lon="6.46462">
        <ele>1885.3</ele>
        <time>2022-01-14T08:43:28Z</time>
      </trkpt>
      <trkpt lat="44.99384" lon="6.46462">
        <ele>1885.3</ele>
        <time>2022-01-14T08:43:29Z</time>
      </trkpt>
      <trkpt lat="44.99385" lon="6.46462">
        <ele>1885.3</ele>
        <time>2022-01-14T08:43:30Z</time>
      </trkpt>
      <trkpt lat="44.99385" lon="6.46462">
        <ele>1885.3</ele>
        <time>2022-01-14T08:43:31Z</time>
      </trkpt>
      <trkpt lat="44.99385" lon="6.46461">
        <ele>1885.3</ele>
        <time>2022-01-14T08:43:32Z</time>
      </trkpt>
      <trkpt lat="44.99386" lon="6.4646">
        <ele>1885.3</ele>
        <time>2022-01-14T08:43:33Z</time>
      </trkpt>
      <trkpt lat="44.99386" lon="6.4646">
        <ele>1885.3</ele>
        <time>2022-01-14T08:43:34Z</time>
      </trkpt>
      <trkpt lat="44.99386" lon="6.4646">
        <ele>1885.3</ele>
        <time>2022-01-14T08:43:35Z</time>
      </trkpt>
      <trkpt lat="44.99386" lon="6.4646">
        <ele>1885.3</ele>
        <time>2022-01-14T08:43:36Z</time>
      </trkpt>
      <trkpt lat="44.99386" lon="6.4646">
        <ele>1885.3</ele>
        <time>2022-01-14T08:43:37Z</time>
      </trkpt>
      <trkpt lat="44.99386" lon="6.4646">
        <ele>1885.3</ele>
        <time>2022-01-14T08:43:38Z</time>
      </trkpt>
      <trkpt lat="44.99386" lon="6.4646">
        <ele>1885.3</ele>
        <time>2022-01-14T08:43:39Z</time>
      </trkpt>
      <trkpt lat="44.99385" lon="6.4646">
        <ele>1885.3</ele>
        <time>2022-01-14T08:43:40Z</time>
      </trkpt>
      <trkpt lat="44.99386" lon="6.4646">
        <ele>1885.3</ele>
        <time>2022-01-14T08:43:41Z</time>
      </trkpt>
      <trkpt lat="44.99386" lon="6.4646">
        <ele>1885.3</ele>
        <time>2022-01-14T08:43:42Z</time>
      </trkpt>
      <trkpt lat="44.99386" lon="6.4646">
        <ele>1885.3</ele>
        <time>2022-01-14T08:43:43Z</time>
      </trkpt>
      <trkpt lat="44.99387" lon="6.46459">
        <ele>1891.5</ele>
        <time>2022-01-14T08:43:44Z</time>
      </trkpt>
      <trkpt lat="44.99387" lon="6.46459">
        <ele>1891.5</ele>
        <time>2022-01-14T08:43:45Z</time>
      </trkpt>
      <trkpt lat="44.99386" lon="6.4646">
        <ele>1885.3</ele>
        <time>2022-01-14T08:43:46Z</time>
      </trkpt>
      <trkpt lat="44.99386" lon="6.46461">
        <ele>1885.3</ele>
        <time>2022-01-14T08:43:47Z</time>
      </trkpt>
      <trkpt lat="44.99385" lon="6.4646">
        <ele>1885.3</ele>
        <time>2022-01-14T08:43:48Z</time>
      </trkpt>
      <trkpt lat="44.99384" lon="6.46459">
        <ele>1891.5</ele>
        <time>2022-01-14T08:43:49Z</time>
      </trkpt>
      <trkpt lat="44.99384" lon="6.46459">
        <ele>1891.5</ele>
        <time>2022-01-14T08:43:50Z</time>
      </trkpt>
      <trkpt lat="44.99384" lon="6.4646">
        <ele>1891.5</ele>
        <time>2022-01-14T08:43:51Z</time>
      </trkpt>
      <trkpt lat="44.99384" lon="6.46459">
        <ele>1891.5</ele>
        <time>2022-01-14T08:43:52Z</time>
      </trkpt>
      <trkpt lat="44.99383" lon="6.46459">
        <ele>1891.5</ele>
        <time>2022-01-14T08:43:53Z</time>
      </trkpt>
      <trkpt lat="44.99382" lon="6.4646">
        <ele>1885.3</ele>
        <time>2022-01-14T08:43:54Z</time>
      </trkpt>
      <trkpt lat="44.99383" lon="6.46459">
        <ele>1891.5</ele>
        <time>2022-01-14T08:43:55Z</time>
      </trkpt>
      <trkpt lat="44.99383" lon="6.46459">
        <ele>1891.5</ele>
        <time>2022-01-14T08:43:56Z</time>
      </trkpt>
      <trkpt lat="44.99383" lon="6.46458">
        <ele>1891.5</ele>
        <time>2022-01-14T08:43:57Z</time>
      </trkpt>
      <trkpt lat="44.99382" lon="6.46458">
        <ele>1891.5</ele>
        <time>2022-01-14T08:43:58Z</time>
      </trkpt>
      <trkpt lat="44.99382" lon="6.46457">
        <ele>1891.5</ele>
        <time>2022-01-14T08:43:59Z</time>
      </trkpt>
      <trkpt lat="44.99381" lon="6.46456">
        <ele>1894.2</ele>
        <time>2022-01-14T08:44:00Z</time>
      </trkpt>
      <trkpt lat="44.99381" lon="6.46457">
        <ele>1894.2</ele>
        <time>2022-01-14T08:44:01Z</time>
      </trkpt>
      <trkpt lat="44.99381" lon="6.46456">
        <ele>1894.2</ele>
        <time>2022-01-14T08:44:02Z</time>
      </trkpt>
      <trkpt lat="44.99379" lon="6.46456">
        <ele>1894.2</ele>
        <time>2022-01-14T08:44:03Z</time>
      </trkpt>
      <trkpt lat="44.99379" lon="6.46456">
        <ele>1894.2</ele>
        <time>2022-01-14T08:44:04Z</time>
      </trkpt>
      <trkpt lat="44.99378" lon="6.46455">
        <ele>1894.2</ele>
        <time>2022-01-14T08:44:05Z</time>
      </trkpt>
      <trkpt lat="44.99378" lon="6.46455">
        <ele>1894.2</ele>
        <time>2022-01-14T08:44:06Z</time>
      </trkpt>
      <trkpt lat="44.99377" lon="6.46456">
        <ele>1894.2</ele>
        <time>2022-01-14T08:44:07Z</time>
      </trkpt>
      <trkpt lat="44.99377" lon="6.46457">
        <ele>1894.2</ele>
        <time>2022-01-14T08:44:08Z</time>
      </trkpt>
      <trkpt lat="44.99377" lon="6.46457">
        <ele>1894.2</ele>
        <time>2022-01-14T08:44:09Z</time>
      </trkpt>
      <trkpt lat="44.99377" lon="6.46457">
        <ele>1894.2</ele>
        <time>2022-01-14T08:44:10Z</time>
      </trkpt>
      <trkpt lat="44.99377" lon="6.46458">
        <ele>1894.2</ele>
        <time>2022-01-14T08:44:11Z</time>
      </trkpt>
      <trkpt lat="44.99377" lon="6.46457">
        <ele>1894.2</ele>
        <time>2022-01-14T08:44:12Z</time>
      </trkpt>
      <trkpt lat="44.99377" lon="6.46458">
        <ele>1894.2</ele>
        <time>2022-01-14T08:44:13Z</time>
      </trkpt>
      <trkpt lat="44.99377" lon="6.46459">
        <ele>1894.2</ele>
        <time>2022-01-14T08:44:14Z</time>
      </trkpt>
      <trkpt lat="44.99377" lon="6.46459">
        <ele>1894.2</ele>
        <time>2022-01-14T08:44:15Z</time>
      </trkpt>
      <trkpt lat="44.99377" lon="6.46458">
        <ele>1894.2</ele>
        <time>2022-01-14T08:44:16Z</time>
      </trkpt>
      <trkpt lat="44.99377" lon="6.46458">
        <ele>1894.2</ele>
        <time>2022-01-14T08:44:17Z</time>
      </trkpt>
      <trkpt lat="44.99377" lon="6.46458">
        <ele>1894.2</ele>
        <time>2022-01-14T08:44:18Z</time>
      </trkpt>
      <trkpt lat="44.99377" lon="6.46458">
        <ele>1894.2</ele>
        <time>2022-01-14T08:44:19Z</time>
      </trkpt>
      <trkpt lat="44.99377" lon="6.46458">
        <ele>1894.2</ele>
        <time>2022-01-14T08:44:20Z</time>
      </trkpt>
      <trkpt lat="44.99376" lon="6.46459">
        <ele>1894.2</ele>
        <time>2022-01-14T08:44:21Z</time>
      </trkpt>
      <trkpt lat="44.99376" lon="6.46458">
        <ele>1894.2</ele>
        <time>2022-01-14T08:44:22Z</time>
      </trkpt>
      <trkpt lat="44.99376" lon="6.46458">
        <ele>1894.2</ele>
        <time>2022-01-14T08:44:23Z</time>
      </trkpt>
      <trkpt lat="44.99375" lon="6.46458">
        <ele>1894.2</ele>
        <time>2022-01-14T08:44:24Z</time>
      </trkpt>
      <trkpt lat="44.99374" lon="6.46458">
        <ele>1894.2</ele>
        <time>2022-01-14T08:44:25Z</time>
      </trkpt>
      <trkpt lat="44.99374" lon="6.46458">
        <ele>1894.2</ele>
        <time>2022-01-14T08:44:26Z</time>
      </trkpt>
      <trkpt lat="44.99373" lon="6.46458">
        <ele>1894.2</ele>
        <time>2022-01-14T08:44:27Z</time>
      </trkpt>
      <trkpt lat="44.99373" lon="6.46458">
        <ele>1894.2</ele>
        <time>2022-01-14T08:44:28Z</time>
      </trkpt>
      <trkpt lat="44.99372" lon="6.46458">
        <ele>1894.2</ele>
        <time>2022-01-14T08:44:29Z</time>
      </trkpt>
      <trkpt lat="44.99372" lon="6.46458">
        <ele>1894.2</ele>
        <time>2022-01-14T08:44:30Z</time>
      </trkpt>
      <trkpt lat="44.99372" lon="6.46458">
        <ele>1894.2</ele>
        <time>2022-01-14T08:44:31Z</time>
      </trkpt>
      <trkpt lat="44.99371" lon="6.46459">
        <ele>1894.2</ele>
        <time>2022-01-14T08:44:32Z</time>
      </trkpt>
      <trkpt lat="44.99371" lon="6.46459">
        <ele>1894.2</ele>
        <time>2022-01-14T08:44:33Z</time>
      </trkpt>
      <trkpt lat="44.9937" lon="6.46458">
        <ele>1894.2</ele>
        <time>2022-01-14T08:44:34Z</time>
      </trkpt>
      <trkpt lat="44.9937" lon="6.46457">
        <ele>1896.6</ele>
        <time>2022-01-14T08:44:35Z</time>
      </trkpt>
      <trkpt lat="44.9937" lon="6.46456">
        <ele>1896.6</ele>
        <time>2022-01-14T08:44:36Z</time>
      </trkpt>
      <trkpt lat="44.99369" lon="6.46455">
        <ele>1896.6</ele>
        <time>2022-01-14T08:44:37Z</time>
      </trkpt>
      <trkpt lat="44.99369" lon="6.46455">
        <ele>1896.6</ele>
        <time>2022-01-14T08:44:38Z</time>
      </trkpt>
      <trkpt lat="44.99369" lon="6.46454">
        <ele>1896.6</ele>
        <time>2022-01-14T08:44:39Z</time>
      </trkpt>
      <trkpt lat="44.99369" lon="6.46454">
        <ele>1896.6</ele>
        <time>2022-01-14T08:44:40Z</time>
      </trkpt>
      <trkpt lat="44.99368" lon="6.46454">
        <ele>1896.6</ele>
        <time>2022-01-14T08:44:41Z</time>
      </trkpt>
      <trkpt lat="44.99368" lon="6.46454">
        <ele>1896.6</ele>
        <time>2022-01-14T08:44:42Z</time>
      </trkpt>
      <trkpt lat="44.99366" lon="6.46453">
        <ele>1896.6</ele>
        <time>2022-01-14T08:44:43Z</time>
      </trkpt>
      <trkpt lat="44.99364" lon="6.46453">
        <ele>1896.6</ele>
        <time>2022-01-14T08:44:44Z</time>
      </trkpt>
      <trkpt lat="44.99363" lon="6.46453">
        <ele>1896.6</ele>
        <time>2022-01-14T08:44:45Z</time>
      </trkpt>
      <trkpt lat="44.99363" lon="6.46453">
        <ele>1896.6</ele>
        <time>2022-01-14T08:44:46Z</time>
      </trkpt>
      <trkpt lat="44.99362" lon="6.46452">
        <ele>1896.6</ele>
        <time>2022-01-14T08:44:47Z</time>
      </trkpt>
      <trkpt lat="44.99361" lon="6.46452">
        <ele>1896.6</ele>
        <time>2022-01-14T08:44:48Z</time>
      </trkpt>
      <trkpt lat="44.99361" lon="6.46452">
        <ele>1896.6</ele>
        <time>2022-01-14T08:44:49Z</time>
      </trkpt>
      <trkpt lat="44.99361" lon="6.46452">
        <ele>1896.6</ele>
        <time>2022-01-14T08:44:50Z</time>
      </trkpt>
      <trkpt lat="44.99361" lon="6.46452">
        <ele>1896.6</ele>
        <time>2022-01-14T08:44:51Z</time>
      </trkpt>
      <trkpt lat="44.9936" lon="6.46451">
        <ele>1896.6</ele>
        <time>2022-01-14T08:44:52Z</time>
      </trkpt>
      <trkpt lat="44.99359" lon="6.4645">
        <ele>1896.6</ele>
        <time>2022-01-14T08:44:53Z</time>
      </trkpt>
      <trkpt lat="44.99359" lon="6.4645">
        <ele>1896.6</ele>
        <time>2022-01-14T08:44:54Z</time>
      </trkpt>
      <trkpt lat="44.99359" lon="6.4645">
        <ele>1896.6</ele>
        <time>2022-01-14T08:44:55Z</time>
      </trkpt>
      <trkpt lat="44.99359" lon="6.4645">
        <ele>1896.6</ele>
        <time>2022-01-14T08:44:56Z</time>
      </trkpt>
      <trkpt lat="44.99359" lon="6.4645">
        <ele>1896.6</ele>
        <time>2022-01-14T08:44:57Z</time>
      </trkpt>
      <trkpt lat="44.99359" lon="6.4645">
        <ele>1896.6</ele>
        <time>2022-01-14T08:44:58Z</time>
      </trkpt>
      <trkpt lat="44.99359" lon="6.4645">
        <ele>1896.6</ele>
        <time>2022-01-14T08:44:59Z</time>
      </trkpt>
      <trkpt lat="44.99358" lon="6.4645">
        <ele>1896.6</ele>
        <time>2022-01-14T08:45:00Z</time>
      </trkpt>
      <trkpt lat="44.99358" lon="6.4645">
        <ele>1896.6</ele>
        <time>2022-01-14T08:45:01Z</time>
      </trkpt>
      <trkpt lat="44.99358" lon="6.4645">
        <ele>1896.6</ele>
        <time>2022-01-14T08:45:02Z</time>
      </trkpt>
      <trkpt lat="44.99357" lon="6.4645">
        <ele>1898.5</ele>
        <time>2022-01-14T08:45:03Z</time>
      </trkpt>
      <trkpt lat="44.99357" lon="6.46449">
        <ele>1898.5</ele>
        <time>2022-01-14T08:45:04Z</time>
      </trkpt>
      <trkpt lat="44.99355" lon="6.46449">
        <ele>1898.5</ele>
        <time>2022-01-14T08:45:05Z</time>
      </trkpt>
      <trkpt lat="44.99354" lon="6.4645">
        <ele>1898.5</ele>
        <time>2022-01-14T08:45:06Z</time>
      </trkpt>
      <trkpt lat="44.99353" lon="6.4645">
        <ele>1898.5</ele>
        <time>2022-01-14T08:45:07Z</time>
      </trkpt>
      <trkpt lat="44.99352" lon="6.46449">
        <ele>1898.5</ele>
        <time>2022-01-14T08:45:08Z</time>
      </trkpt>
      <trkpt lat="44.99352" lon="6.46449">
        <ele>1898.5</ele>
        <time>2022-01-14T08:45:09Z</time>
      </trkpt>
      <trkpt lat="44.99351" lon="6.46449">
        <ele>1898.5</ele>
        <time>2022-01-14T08:45:10Z</time>
      </trkpt>
      <trkpt lat="44.9935" lon="6.46449">
        <ele>1898.5</ele>
        <time>2022-01-14T08:45:11Z</time>
      </trkpt>
      <trkpt lat="44.9935" lon="6.4645">
        <ele>1898.5</ele>
        <time>2022-01-14T08:45:12Z</time>
      </trkpt>
      <trkpt lat="44.9935" lon="6.4645">
        <ele>1898.5</ele>
        <time>2022-01-14T08:45:13Z</time>
      </trkpt>
      <trkpt lat="44.9935" lon="6.46449">
        <ele>1898.5</ele>
        <time>2022-01-14T08:45:14Z</time>
      </trkpt>
      <trkpt lat="44.9935" lon="6.4645">
        <ele>1898.5</ele>
        <time>2022-01-14T08:45:15Z</time>
      </trkpt>
      <trkpt lat="44.99348" lon="6.46451">
        <ele>1898.5</ele>
        <time>2022-01-14T08:45:16Z</time>
      </trkpt>
      <trkpt lat="44.99348" lon="6.4645">
        <ele>1898.5</ele>
        <time>2022-01-14T08:45:17Z</time>
      </trkpt>
      <trkpt lat="44.99348" lon="6.46449">
        <ele>1898.5</ele>
        <time>2022-01-14T08:45:18Z</time>
      </trkpt>
      <trkpt lat="44.99347" lon="6.46449">
        <ele>1898.5</ele>
        <time>2022-01-14T08:45:19Z</time>
      </trkpt>
      <trkpt lat="44.99347" lon="6.46449">
        <ele>1898.5</ele>
        <time>2022-01-14T08:45:20Z</time>
      </trkpt>
      <trkpt lat="44.99347" lon="6.46449">
        <ele>1898.5</ele>
        <time>2022-01-14T08:45:21Z</time>
      </trkpt>
      <trkpt lat="44.99347" lon="6.46449">
        <ele>1898.5</ele>
        <time>2022-01-14T08:45:22Z</time>
      </trkpt>
      <trkpt lat="44.99347" lon="6.46449">
        <ele>1898.5</ele>
        <time>2022-01-14T08:45:23Z</time>
      </trkpt>
      <trkpt lat="44.99347" lon="6.46449">
        <ele>1898.5</ele>
        <time>2022-01-14T08:45:24Z</time>
      </trkpt>
      <trkpt lat="44.99347" lon="6.46449">
        <ele>1898.5</ele>
        <time>2022-01-14T08:45:25Z</time>
      </trkpt>
      <trkpt lat="44.99347" lon="6.46449">
        <ele>1898.5</ele>
        <time>2022-01-14T08:45:26Z</time>
      </trkpt>
      <trkpt lat="44.99347" lon="6.46449">
        <ele>1898.5</ele>
        <time>2022-01-14T08:45:27Z</time>
      </trkpt>
      <trkpt lat="44.99347" lon="6.46449">
        <ele>1898.5</ele>
        <time>2022-01-14T08:45:28Z</time>
      </trkpt>
      <trkpt lat="44.99346" lon="6.46449">
        <ele>1898.5</ele>
        <time>2022-01-14T08:45:29Z</time>
      </trkpt>
      <trkpt lat="44.99346" lon="6.46448">
        <ele>1898.5</ele>
        <time>2022-01-14T08:45:30Z</time>
      </trkpt>
      <trkpt lat="44.99345" lon="6.46447">
        <ele>1899.4</ele>
        <time>2022-01-14T08:45:31Z</time>
      </trkpt>
      <trkpt lat="44.99345" lon="6.46446">
        <ele>1899.4</ele>
        <time>2022-01-14T08:45:32Z</time>
      </trkpt>
      <trkpt lat="44.99344" lon="6.46446">
        <ele>1899.4</ele>
        <time>2022-01-14T08:45:33Z</time>
      </trkpt>
      <trkpt lat="44.99344" lon="6.46445">
        <ele>1899.4</ele>
        <time>2022-01-14T08:45:34Z</time>
      </trkpt>
      <trkpt lat="44.99343" lon="6.46443">
        <ele>1899.4</ele>
        <time>2022-01-14T08:45:35Z</time>
      </trkpt>
      <trkpt lat="44.99343" lon="6.46442">
        <ele>1905.3</ele>
        <time>2022-01-14T08:45:36Z</time>
      </trkpt>
      <trkpt lat="44.99342" lon="6.46441">
        <ele>1905.3</ele>
        <time>2022-01-14T08:45:37Z</time>
      </trkpt>
      <trkpt lat="44.99342" lon="6.46441">
        <ele>1905.3</ele>
        <time>2022-01-14T08:45:38Z</time>
      </trkpt>
      <trkpt lat="44.99342" lon="6.46441">
        <ele>1905.3</ele>
        <time>2022-01-14T08:45:39Z</time>
      </trkpt>
      <trkpt lat="44.99342" lon="6.46441">
        <ele>1905.3</ele>
        <time>2022-01-14T08:45:40Z</time>
      </trkpt>
      <trkpt lat="44.99341" lon="6.46442">
        <ele>1905.3</ele>
        <time>2022-01-14T08:45:41Z</time>
      </trkpt>
      <trkpt lat="44.9934" lon="6.46442">
        <ele>1905.3</ele>
        <time>2022-01-14T08:45:42Z</time>
      </trkpt>
      <trkpt lat="44.9934" lon="6.46443">
        <ele>1899.4</ele>
        <time>2022-01-14T08:45:43Z</time>
      </trkpt>
      <trkpt lat="44.99339" lon="6.46443">
        <ele>1899.4</ele>
        <time>2022-01-14T08:45:44Z</time>
      </trkpt>
      <trkpt lat="44.99339" lon="6.46444">
        <ele>1899.4</ele>
        <time>2022-01-14T08:45:45Z</time>
      </trkpt>
      <trkpt lat="44.99339" lon="6.46445">
        <ele>1899.4</ele>
        <time>2022-01-14T08:45:46Z</time>
      </trkpt>
      <trkpt lat="44.99339" lon="6.46446">
        <ele>1899.4</ele>
        <time>2022-01-14T08:45:47Z</time>
      </trkpt>
      <trkpt lat="44.99339" lon="6.46447">
        <ele>1899.4</ele>
        <time>2022-01-14T08:45:48Z</time>
      </trkpt>
      <trkpt lat="44.99338" lon="6.46448">
        <ele>1899.4</ele>
        <time>2022-01-14T08:45:49Z</time>
      </trkpt>
      <trkpt lat="44.99339" lon="6.46448">
        <ele>1899.4</ele>
        <time>2022-01-14T08:45:50Z</time>
      </trkpt>
      <trkpt lat="44.9934" lon="6.46448">
        <ele>1899.4</ele>
        <time>2022-01-14T08:45:51Z</time>
      </trkpt>
      <trkpt lat="44.99341" lon="6.46447">
        <ele>1899.4</ele>
        <time>2022-01-14T08:45:52Z</time>
      </trkpt>
      <trkpt lat="44.99341" lon="6.46447">
        <ele>1899.4</ele>
        <time>2022-01-14T08:45:53Z</time>
      </trkpt>
      <trkpt lat="44.99342" lon="6.46447">
        <ele>1899.4</ele>
        <time>2022-01-14T08:45:54Z</time>
      </trkpt>
      <trkpt lat="44.99342" lon="6.46447">
        <ele>1899.4</ele>
        <time>2022-01-14T08:45:55Z</time>
      </trkpt>
      <trkpt lat="44.99343" lon="6.46446">
        <ele>1899.4</ele>
        <time>2022-01-14T08:45:56Z</time>
      </trkpt>
      <trkpt lat="44.99343" lon="6.46445">
        <ele>1899.4</ele>
        <time>2022-01-14T08:45:57Z</time>
      </trkpt>
      <trkpt lat="44.99343" lon="6.46444">
        <ele>1899.4</ele>
        <time>2022-01-14T08:45:58Z</time>
      </trkpt>
      <trkpt lat="44.99343" lon="6.46443">
        <ele>1899.4</ele>
        <time>2022-01-14T08:45:59Z</time>
      </trkpt>
      <trkpt lat="44.99343" lon="6.46442">
        <ele>1905.3</ele>
        <time>2022-01-14T08:46:00Z</time>
      </trkpt>
      <trkpt lat="44.99343" lon="6.46443">
        <ele>1899.4</ele>
        <time>2022-01-14T08:46:01Z</time>
      </trkpt>
      <trkpt lat="44.99343" lon="6.46442">
        <ele>1905.3</ele>
        <time>2022-01-14T08:46:02Z</time>
      </trkpt>
      <trkpt lat="44.99344" lon="6.46442">
        <ele>1905.3</ele>
        <time>2022-01-14T08:46:03Z</time>
      </trkpt>
      <trkpt lat="44.99344" lon="6.46441">
        <ele>1905.3</ele>
        <time>2022-01-14T08:46:04Z</time>
      </trkpt>
      <trkpt lat="44.99344" lon="6.46441">
        <ele>1905.3</ele>
        <time>2022-01-14T08:46:05Z</time>
      </trkpt>
      <trkpt lat="44.99344" lon="6.4644">
        <ele>1905.3</ele>
        <time>2022-01-14T08:46:06Z</time>
      </trkpt>
      <trkpt lat="44.99344" lon="6.46441">
        <ele>1905.3</ele>
        <time>2022-01-14T08:46:07Z</time>
      </trkpt>
      <trkpt lat="44.99344" lon="6.46441">
        <ele>1905.3</ele>
        <time>2022-01-14T08:46:08Z</time>
      </trkpt>
      <trkpt lat="44.99344" lon="6.46441">
        <ele>1905.3</ele>
        <time>2022-01-14T08:46:09Z</time>
      </trkpt>
      <trkpt lat="44.99344" lon="6.4644">
        <ele>1905.3</ele>
        <time>2022-01-14T08:46:10Z</time>
      </trkpt>
      <trkpt lat="44.99344" lon="6.4644">
        <ele>1905.3</ele>
        <time>2022-01-14T08:46:11Z</time>
      </trkpt>
      <trkpt lat="44.99344" lon="6.4644">
        <ele>1905.3</ele>
        <time>2022-01-14T08:46:12Z</time>
      </trkpt>
      <trkpt lat="44.99344" lon="6.4644">
        <ele>1905.3</ele>
        <time>2022-01-14T08:46:13Z</time>
      </trkpt>
      <trkpt lat="44.99344" lon="6.46439">
        <ele>1905.3</ele>
        <time>2022-01-14T08:46:14Z</time>
      </trkpt>
      <trkpt lat="44.99344" lon="6.46438">
        <ele>1905.3</ele>
        <time>2022-01-14T08:46:15Z</time>
      </trkpt>
      <trkpt lat="44.99345" lon="6.46438">
        <ele>1905.3</ele>
        <time>2022-01-14T08:46:16Z</time>
      </trkpt>
      <trkpt lat="44.99345" lon="6.46438">
        <ele>1905.3</ele>
        <time>2022-01-14T08:46:17Z</time>
      </trkpt>
      <trkpt lat="44.99345" lon="6.46438">
        <ele>1905.3</ele>
        <time>2022-01-14T08:46:18Z</time>
      </trkpt>
      <trkpt lat="44.99345" lon="6.46438">
        <ele>1905.3</ele>
        <time>2022-01-14T08:46:19Z</time>
      </trkpt>
      <trkpt lat="44.99345" lon="6.46438">
        <ele>1905.3</ele>
        <time>2022-01-14T08:46:20Z</time>
      </trkpt>
      <trkpt lat="44.99346" lon="6.46439">
        <ele>1904.6</ele>
        <time>2022-01-14T08:46:21Z</time>
      </trkpt>
      <trkpt lat="44.99346" lon="6.4644">
        <ele>1904.6</ele>
        <time>2022-01-14T08:46:22Z</time>
      </trkpt>
      <trkpt lat="44.99346" lon="6.4644">
        <ele>1904.6</ele>
        <time>2022-01-14T08:46:23Z</time>
      </trkpt>
      <trkpt lat="44.99347" lon="6.4644">
        <ele>1904.6</ele>
        <time>2022-01-14T08:46:24Z</time>
      </trkpt>
      <trkpt lat="44.99348" lon="6.46439">
        <ele>1904.6</ele>
        <time>2022-01-14T08:46:25Z</time>
      </trkpt>
      <trkpt lat="44.99349" lon="6.46437">
        <ele>1904.6</ele>
        <time>2022-01-14T08:46:26Z</time>
      </trkpt>
      <trkpt lat="44.99349" lon="6.46436">
        <ele>1904.6</ele>
        <time>2022-01-14T08:46:27Z</time>
      </trkpt>
      <trkpt lat="44.9935" lon="6.46434">
        <ele>1904.6</ele>
        <time>2022-01-14T08:46:28Z</time>
      </trkpt>
      <trkpt lat="44.9935" lon="6.46434">
        <ele>1904.6</ele>
        <time>2022-01-14T08:46:29Z</time>
      </trkpt>
      <trkpt lat="44.9935" lon="6.46434">
        <ele>1904.6</ele>
        <time>2022-01-14T08:46:30Z</time>
      </trkpt>
      <trkpt lat="44.9935" lon="6.46434">
        <ele>1904.6</ele>
        <time>2022-01-14T08:46:31Z</time>
      </trkpt>
      <trkpt lat="44.9935" lon="6.46433">
        <ele>1904.6</ele>
        <time>2022-01-14T08:46:32Z</time>
      </trkpt>
      <trkpt lat="44.9935" lon="6.46432">
        <ele>1904.6</ele>
        <time>2022-01-14T08:46:33Z</time>
      </trkpt>
      <trkpt lat="44.99351" lon="6.46432">
        <ele>1904.6</ele>
        <time>2022-01-14T08:46:34Z</time>
      </trkpt>
      <trkpt lat="44.99352" lon="6.46432">
        <ele>1904.6</ele>
        <time>2022-01-14T08:46:35Z</time>
      </trkpt>
      <trkpt lat="44.99352" lon="6.46432">
        <ele>1904.6</ele>
        <time>2022-01-14T08:46:36Z</time>
      </trkpt>
      <trkpt lat="44.99353" lon="6.46432">
        <ele>1904.6</ele>
        <time>2022-01-14T08:46:37Z</time>
      </trkpt>
      <trkpt lat="44.99353" lon="6.46432">
        <ele>1904.6</ele>
        <time>2022-01-14T08:46:38Z</time>
      </trkpt>
      <trkpt lat="44.99354" lon="6.46431">
        <ele>1904.6</ele>
        <time>2022-01-14T08:46:39Z</time>
      </trkpt>
      <trkpt lat="44.99355" lon="6.46431">
        <ele>1904.6</ele>
        <time>2022-01-14T08:46:40Z</time>
      </trkpt>
      <trkpt lat="44.99356" lon="6.46429">
        <ele>1904.6</ele>
        <time>2022-01-14T08:46:41Z</time>
      </trkpt>
      <trkpt lat="44.99357" lon="6.4643">
        <ele>1904.6</ele>
        <time>2022-01-14T08:46:42Z</time>
      </trkpt>
      <trkpt lat="44.99357" lon="6.46429">
        <ele>1904.6</ele>
        <time>2022-01-14T08:46:43Z</time>
      </trkpt>
      <trkpt lat="44.99359" lon="6.46428">
        <ele>1902.8</ele>
        <time>2022-01-14T08:46:44Z</time>
      </trkpt>
      <trkpt lat="44.99361" lon="6.46428">
        <ele>1902.8</ele>
        <time>2022-01-14T08:46:45Z</time>
      </trkpt>
      <trkpt lat="44.99362" lon="6.46428">
        <ele>1902.8</ele>
        <time>2022-01-14T08:46:46Z</time>
      </trkpt>
      <trkpt lat="44.99363" lon="6.46428">
        <ele>1902.8</ele>
        <time>2022-01-14T08:46:47Z</time>
      </trkpt>
      <trkpt lat="44.99364" lon="6.46427">
        <ele>1902.8</ele>
        <time>2022-01-14T08:46:48Z</time>
      </trkpt>
      <trkpt lat="44.99366" lon="6.46427">
        <ele>1902.8</ele>
        <time>2022-01-14T08:46:49Z</time>
      </trkpt>
      <trkpt lat="44.99367" lon="6.46427">
        <ele>1902.8</ele>
        <time>2022-01-14T08:46:50Z</time>
      </trkpt>
      <trkpt lat="44.99367" lon="6.46427">
        <ele>1902.8</ele>
        <time>2022-01-14T08:46:51Z</time>
      </trkpt>
      <trkpt lat="44.99369" lon="6.46427">
        <ele>1902.8</ele>
        <time>2022-01-14T08:46:52Z</time>
      </trkpt>
      <trkpt lat="44.9937" lon="6.46427">
        <ele>1902.8</ele>
        <time>2022-01-14T08:46:53Z</time>
      </trkpt>
      <trkpt lat="44.99372" lon="6.46428">
        <ele>1900.6</ele>
        <time>2022-01-14T08:46:54Z</time>
      </trkpt>
      <trkpt lat="44.99372" lon="6.46428">
        <ele>1900.6</ele>
        <time>2022-01-14T08:46:55Z</time>
      </trkpt>
      <trkpt lat="44.99373" lon="6.46428">
        <ele>1900.6</ele>
        <time>2022-01-14T08:46:56Z</time>
      </trkpt>
      <trkpt lat="44.99373" lon="6.46428">
        <ele>1900.6</ele>
        <time>2022-01-14T08:46:57Z</time>
      </trkpt>
      <trkpt lat="44.99374" lon="6.46427">
        <ele>1900.6</ele>
        <time>2022-01-14T08:46:58Z</time>
      </trkpt>
      <trkpt lat="44.99374" lon="6.46427">
        <ele>1900.6</ele>
        <time>2022-01-14T08:46:59Z</time>
      </trkpt>
      <trkpt lat="44.99375" lon="6.46426">
        <ele>1900.6</ele>
        <time>2022-01-14T08:47:00Z</time>
      </trkpt>
      <trkpt lat="44.99376" lon="6.46425">
        <ele>1906.2</ele>
        <time>2022-01-14T08:47:01Z</time>
      </trkpt>
      <trkpt lat="44.99376" lon="6.46424">
        <ele>1906.2</ele>
        <time>2022-01-14T08:47:02Z</time>
      </trkpt>
      <trkpt lat="44.99377" lon="6.46423">
        <ele>1906.2</ele>
        <time>2022-01-14T08:47:03Z</time>
      </trkpt>
      <trkpt lat="44.99378" lon="6.46423">
        <ele>1906.2</ele>
        <time>2022-01-14T08:47:04Z</time>
      </trkpt>
      <trkpt lat="44.99379" lon="6.46423">
        <ele>1906.2</ele>
        <time>2022-01-14T08:47:05Z</time>
      </trkpt>
      <trkpt lat="44.9938" lon="6.46423">
        <ele>1906.2</ele>
        <time>2022-01-14T08:47:06Z</time>
      </trkpt>
      <trkpt lat="44.9938" lon="6.46423">
        <ele>1906.2</ele>
        <time>2022-01-14T08:47:07Z</time>
      </trkpt>
      <trkpt lat="44.99381" lon="6.46421">
        <ele>1906.2</ele>
        <time>2022-01-14T08:47:08Z</time>
      </trkpt>
      <trkpt lat="44.99381" lon="6.4642">
        <ele>1906.2</ele>
        <time>2022-01-14T08:47:09Z</time>
      </trkpt>
      <trkpt lat="44.99381" lon="6.4642">
        <ele>1906.2</ele>
        <time>2022-01-14T08:47:10Z</time>
      </trkpt>
      <trkpt lat="44.99381" lon="6.46419">
        <ele>1906.2</ele>
        <time>2022-01-14T08:47:11Z</time>
      </trkpt>
      <trkpt lat="44.99381" lon="6.46419">
        <ele>1906.2</ele>
        <time>2022-01-14T08:47:12Z</time>
      </trkpt>
      <trkpt lat="44.99381" lon="6.46418">
        <ele>1906.2</ele>
        <time>2022-01-14T08:47:13Z</time>
      </trkpt>
      <trkpt lat="44.99382" lon="6.46418">
        <ele>1904</ele>
        <time>2022-01-14T08:47:14Z</time>
      </trkpt>
      <trkpt lat="44.99383" lon="6.46418">
        <ele>1904</ele>
        <time>2022-01-14T08:47:15Z</time>
      </trkpt>
      <trkpt lat="44.99383" lon="6.46417">
        <ele>1904</ele>
        <time>2022-01-14T08:47:16Z</time>
      </trkpt>
      <trkpt lat="44.99384" lon="6.46416">
        <ele>1904</ele>
        <time>2022-01-14T08:47:17Z</time>
      </trkpt>
      <trkpt lat="44.99385" lon="6.46416">
        <ele>1904</ele>
        <time>2022-01-14T08:47:18Z</time>
      </trkpt>
      <trkpt lat="44.99385" lon="6.46414">
        <ele>1904</ele>
        <time>2022-01-14T08:47:19Z</time>
      </trkpt>
      <trkpt lat="44.99386" lon="6.46413">
        <ele>1904</ele>
        <time>2022-01-14T08:47:20Z</time>
      </trkpt>
      <trkpt lat="44.99387" lon="6.46411">
        <ele>1904</ele>
        <time>2022-01-14T08:47:21Z</time>
      </trkpt>
      <trkpt lat="44.99386" lon="6.46411">
        <ele>1904</ele>
        <time>2022-01-14T08:47:22Z</time>
      </trkpt>
      <trkpt lat="44.99386" lon="6.46411">
        <ele>1904</ele>
        <time>2022-01-14T08:47:23Z</time>
      </trkpt>
      <trkpt lat="44.99385" lon="6.46411">
        <ele>1904</ele>
        <time>2022-01-14T08:47:24Z</time>
      </trkpt>
      <trkpt lat="44.99385" lon="6.4641">
        <ele>1904</ele>
        <time>2022-01-14T08:47:25Z</time>
      </trkpt>
      <trkpt lat="44.99385" lon="6.46409">
        <ele>1904</ele>
        <time>2022-01-14T08:47:26Z</time>
      </trkpt>
      <trkpt lat="44.99384" lon="6.46409">
        <ele>1904</ele>
        <time>2022-01-14T08:47:27Z</time>
      </trkpt>
      <trkpt lat="44.99383" lon="6.46406">
        <ele>1909.1</ele>
        <time>2022-01-14T08:47:28Z</time>
      </trkpt>
      <trkpt lat="44.99383" lon="6.46405">
        <ele>1909.1</ele>
        <time>2022-01-14T08:47:29Z</time>
      </trkpt>
      <trkpt lat="44.99382" lon="6.46405">
        <ele>1909.1</ele>
        <time>2022-01-14T08:47:30Z</time>
      </trkpt>
      <trkpt lat="44.99382" lon="6.46404">
        <ele>1911.2</ele>
        <time>2022-01-14T08:47:31Z</time>
      </trkpt>
      <trkpt lat="44.99381" lon="6.46404">
        <ele>1911.2</ele>
        <time>2022-01-14T08:47:32Z</time>
      </trkpt>
      <trkpt lat="44.9938" lon="6.46403">
        <ele>1911.2</ele>
        <time>2022-01-14T08:47:33Z</time>
      </trkpt>
      <trkpt lat="44.9938" lon="6.46403">
        <ele>1911.2</ele>
        <time>2022-01-14T08:47:34Z</time>
      </trkpt>
      <trkpt lat="44.9938" lon="6.46403">
        <ele>1911.2</ele>
        <time>2022-01-14T08:47:35Z</time>
      </trkpt>
      <trkpt lat="44.9938" lon="6.46403">
        <ele>1911.2</ele>
        <time>2022-01-14T08:47:36Z</time>
      </trkpt>
      <trkpt lat="44.9938" lon="6.46402">
        <ele>1911.2</ele>
        <time>2022-01-14T08:47:37Z</time>
      </trkpt>
      <trkpt lat="44.9938" lon="6.46401">
        <ele>1911.2</ele>
        <time>2022-01-14T08:47:38Z</time>
      </trkpt>
      <trkpt lat="44.9938" lon="6.46399">
        <ele>1911.2</ele>
        <time>2022-01-14T08:47:39Z</time>
      </trkpt>
      <trkpt lat="44.9938" lon="6.46398">
        <ele>1911.2</ele>
        <time>2022-01-14T08:47:40Z</time>
      </trkpt>
      <trkpt lat="44.9938" lon="6.46397">
        <ele>1911.2</ele>
        <time>2022-01-14T08:47:41Z</time>
      </trkpt>
      <trkpt lat="44.9938" lon="6.46397">
        <ele>1911.2</ele>
        <time>2022-01-14T08:47:42Z</time>
      </trkpt>
      <trkpt lat="44.9938" lon="6.46398">
        <ele>1911.2</ele>
        <time>2022-01-14T08:47:43Z</time>
      </trkpt>
      <trkpt lat="44.99381" lon="6.46398">
        <ele>1911.2</ele>
        <time>2022-01-14T08:47:44Z</time>
      </trkpt>
      <trkpt lat="44.99381" lon="6.46397">
        <ele>1911.2</ele>
        <time>2022-01-14T08:47:45Z</time>
      </trkpt>
      <trkpt lat="44.99381" lon="6.46396">
        <ele>1911.2</ele>
        <time>2022-01-14T08:47:46Z</time>
      </trkpt>
      <trkpt lat="44.99381" lon="6.46396">
        <ele>1911.2</ele>
        <time>2022-01-14T08:47:47Z</time>
      </trkpt>
      <trkpt lat="44.99381" lon="6.46396">
        <ele>1911.2</ele>
        <time>2022-01-14T08:47:48Z</time>
      </trkpt>
      <trkpt lat="44.99381" lon="6.46396">
        <ele>1911.2</ele>
        <time>2022-01-14T08:47:49Z</time>
      </trkpt>
      <trkpt lat="44.99381" lon="6.46396">
        <ele>1911.2</ele>
        <time>2022-01-14T08:47:50Z</time>
      </trkpt>
      <trkpt lat="44.99382" lon="6.46395">
        <ele>1911.2</ele>
        <time>2022-01-14T08:47:51Z</time>
      </trkpt>
      <trkpt lat="44.99381" lon="6.46395">
        <ele>1911.2</ele>
        <time>2022-01-14T08:47:52Z</time>
      </trkpt>
      <trkpt lat="44.99381" lon="6.46394">
        <ele>1911.2</ele>
        <time>2022-01-14T08:47:53Z</time>
      </trkpt>
      <trkpt lat="44.99381" lon="6.46394">
        <ele>1911.2</ele>
        <time>2022-01-14T08:47:54Z</time>
      </trkpt>
      <trkpt lat="44.99381" lon="6.46393">
        <ele>1911.2</ele>
        <time>2022-01-14T08:47:55Z</time>
      </trkpt>
      <trkpt lat="44.9938" lon="6.46393">
        <ele>1911.2</ele>
        <time>2022-01-14T08:47:56Z</time>
      </trkpt>
      <trkpt lat="44.99379" lon="6.46393">
        <ele>1911.2</ele>
        <time>2022-01-14T08:47:57Z</time>
      </trkpt>
      <trkpt lat="44.99379" lon="6.46392">
        <ele>1911.2</ele>
        <time>2022-01-14T08:47:58Z</time>
      </trkpt>
      <trkpt lat="44.99377" lon="6.46393">
        <ele>1911.2</ele>
        <time>2022-01-14T08:47:59Z</time>
      </trkpt>
      <trkpt lat="44.99376" lon="6.46394">
        <ele>1911.2</ele>
        <time>2022-01-14T08:48:00Z</time>
      </trkpt>
      <trkpt lat="44.99375" lon="6.46394">
        <ele>1911.2</ele>
        <time>2022-01-14T08:48:01Z</time>
      </trkpt>
      <trkpt lat="44.99374" lon="6.46393">
        <ele>1911.2</ele>
        <time>2022-01-14T08:48:02Z</time>
      </trkpt>
      <trkpt lat="44.99374" lon="6.46393">
        <ele>1911.2</ele>
        <time>2022-01-14T08:48:03Z</time>
      </trkpt>
      <trkpt lat="44.99373" lon="6.46391">
        <ele>1916.5</ele>
        <time>2022-01-14T08:48:04Z</time>
      </trkpt>
      <trkpt lat="44.99373" lon="6.46391">
        <ele>1916.5</ele>
        <time>2022-01-14T08:48:05Z</time>
      </trkpt>
      <trkpt lat="44.99372" lon="6.46391">
        <ele>1916.5</ele>
        <time>2022-01-14T08:48:06Z</time>
      </trkpt>
      <trkpt lat="44.99371" lon="6.46391">
        <ele>1911.2</ele>
        <time>2022-01-14T08:48:07Z</time>
      </trkpt>
      <trkpt lat="44.99371" lon="6.46391">
        <ele>1911.2</ele>
        <time>2022-01-14T08:48:08Z</time>
      </trkpt>
      <trkpt lat="44.9937" lon="6.46391">
        <ele>1911.2</ele>
        <time>2022-01-14T08:48:09Z</time>
      </trkpt>
      <trkpt lat="44.99369" lon="6.46391">
        <ele>1913.5</ele>
        <time>2022-01-14T08:48:10Z</time>
      </trkpt>
      <trkpt lat="44.99369" lon="6.46391">
        <ele>1919</ele>
        <time>2022-01-14T08:48:11Z</time>
      </trkpt>
      <trkpt lat="44.99368" lon="6.46391">
        <ele>1913.5</ele>
        <time>2022-01-14T08:48:12Z</time>
      </trkpt>
      <trkpt lat="44.99368" lon="6.46391">
        <ele>1919</ele>
        <time>2022-01-14T08:48:13Z</time>
      </trkpt>
      <trkpt lat="44.99367" lon="6.46391">
        <ele>1919</ele>
        <time>2022-01-14T08:48:14Z</time>
      </trkpt>
      <trkpt lat="44.99367" lon="6.4639">
        <ele>1919</ele>
        <time>2022-01-14T08:48:15Z</time>
      </trkpt>
      <trkpt lat="44.99366" lon="6.46389">
        <ele>1919</ele>
        <time>2022-01-14T08:48:16Z</time>
      </trkpt>
      <trkpt lat="44.99366" lon="6.46389">
        <ele>1919</ele>
        <time>2022-01-14T08:48:17Z</time>
      </trkpt>
      <trkpt lat="44.99365" lon="6.46389">
        <ele>1919</ele>
        <time>2022-01-14T08:48:18Z</time>
      </trkpt>
      <trkpt lat="44.99366" lon="6.46389">
        <ele>1919</ele>
        <time>2022-01-14T08:48:19Z</time>
      </trkpt>
      <trkpt lat="44.99366" lon="6.46389">
        <ele>1919</ele>
        <time>2022-01-14T08:48:20Z</time>
      </trkpt>
      <trkpt lat="44.99366" lon="6.46389">
        <ele>1919</ele>
        <time>2022-01-14T08:48:21Z</time>
      </trkpt>
      <trkpt lat="44.99366" lon="6.46389">
        <ele>1919</ele>
        <time>2022-01-14T08:48:22Z</time>
      </trkpt>
      <trkpt lat="44.99365" lon="6.46389">
        <ele>1919</ele>
        <time>2022-01-14T08:48:23Z</time>
      </trkpt>
      <trkpt lat="44.99365" lon="6.46388">
        <ele>1919</ele>
        <time>2022-01-14T08:48:24Z</time>
      </trkpt>
      <trkpt lat="44.99364" lon="6.46387">
        <ele>1919</ele>
        <time>2022-01-14T08:48:25Z</time>
      </trkpt>
      <trkpt lat="44.99364" lon="6.46387">
        <ele>1919</ele>
        <time>2022-01-14T08:48:26Z</time>
      </trkpt>
      <trkpt lat="44.99364" lon="6.46388">
        <ele>1919</ele>
        <time>2022-01-14T08:48:27Z</time>
      </trkpt>
      <trkpt lat="44.99364" lon="6.46389">
        <ele>1919</ele>
        <time>2022-01-14T08:48:28Z</time>
      </trkpt>
      <trkpt lat="44.99363" lon="6.46389">
        <ele>1919</ele>
        <time>2022-01-14T08:48:29Z</time>
      </trkpt>
      <trkpt lat="44.99362" lon="6.46389">
        <ele>1919</ele>
        <time>2022-01-14T08:48:30Z</time>
      </trkpt>
      <trkpt lat="44.99362" lon="6.46389">
        <ele>1919</ele>
        <time>2022-01-14T08:48:31Z</time>
      </trkpt>
      <trkpt lat="44.99362" lon="6.46389">
        <ele>1919</ele>
        <time>2022-01-14T08:48:32Z</time>
      </trkpt>
      <trkpt lat="44.99361" lon="6.46389">
        <ele>1919</ele>
        <time>2022-01-14T08:48:33Z</time>
      </trkpt>
      <trkpt lat="44.99361" lon="6.46389">
        <ele>1919</ele>
        <time>2022-01-14T08:48:34Z</time>
      </trkpt>
      <trkpt lat="44.99361" lon="6.46389">
        <ele>1919</ele>
        <time>2022-01-14T08:48:35Z</time>
      </trkpt>
      <trkpt lat="44.9936" lon="6.46388">
        <ele>1919</ele>
        <time>2022-01-14T08:48:36Z</time>
      </trkpt>
      <trkpt lat="44.9936" lon="6.46389">
        <ele>1919</ele>
        <time>2022-01-14T08:48:37Z</time>
      </trkpt>
      <trkpt lat="44.9936" lon="6.46389">
        <ele>1919</ele>
        <time>2022-01-14T08:48:38Z</time>
      </trkpt>
      <trkpt lat="44.99361" lon="6.46388">
        <ele>1919</ele>
        <time>2022-01-14T08:48:39Z</time>
      </trkpt>
      <trkpt lat="44.99361" lon="6.46388">
        <ele>1919</ele>
        <time>2022-01-14T08:48:40Z</time>
      </trkpt>
      <trkpt lat="44.99361" lon="6.46389">
        <ele>1919</ele>
        <time>2022-01-14T08:48:41Z</time>
      </trkpt>
      <trkpt lat="44.99361" lon="6.46389">
        <ele>1919</ele>
        <time>2022-01-14T08:48:42Z</time>
      </trkpt>
      <trkpt lat="44.99361" lon="6.46388">
        <ele>1919</ele>
        <time>2022-01-14T08:48:43Z</time>
      </trkpt>
      <trkpt lat="44.99361" lon="6.46388">
        <ele>1919</ele>
        <time>2022-01-14T08:48:44Z</time>
      </trkpt>
      <trkpt lat="44.99361" lon="6.46389">
        <ele>1919</ele>
        <time>2022-01-14T08:48:45Z</time>
      </trkpt>
      <trkpt lat="44.9936" lon="6.46388">
        <ele>1919</ele>
        <time>2022-01-14T08:48:46Z</time>
      </trkpt>
      <trkpt lat="44.9936" lon="6.46388">
        <ele>1919</ele>
        <time>2022-01-14T08:48:47Z</time>
      </trkpt>
      <trkpt lat="44.9936" lon="6.46388">
        <ele>1919</ele>
        <time>2022-01-14T08:48:48Z</time>
      </trkpt>
      <trkpt lat="44.9936" lon="6.46388">
        <ele>1919</ele>
        <time>2022-01-14T08:48:49Z</time>
      </trkpt>
      <trkpt lat="44.99359" lon="6.46387">
        <ele>1919</ele>
        <time>2022-01-14T08:48:50Z</time>
      </trkpt>
      <trkpt lat="44.99359" lon="6.46388">
        <ele>1919</ele>
        <time>2022-01-14T08:48:51Z</time>
      </trkpt>
      <trkpt lat="44.99359" lon="6.46389">
        <ele>1919</ele>
        <time>2022-01-14T08:48:52Z</time>
      </trkpt>
      <trkpt lat="44.99358" lon="6.46389">
        <ele>1919</ele>
        <time>2022-01-14T08:48:53Z</time>
      </trkpt>
      <trkpt lat="44.99358" lon="6.46389">
        <ele>1919</ele>
        <time>2022-01-14T08:48:54Z</time>
      </trkpt>
      <trkpt lat="44.99358" lon="6.4639">
        <ele>1919</ele>
        <time>2022-01-14T08:48:55Z</time>
      </trkpt>
      <trkpt lat="44.99358" lon="6.46388">
        <ele>1919</ele>
        <time>2022-01-14T08:48:56Z</time>
      </trkpt>
      <trkpt lat="44.99358" lon="6.46388">
        <ele>1919</ele>
        <time>2022-01-14T08:48:57Z</time>
      </trkpt>
      <trkpt lat="44.99358" lon="6.46387">
        <ele>1921.3</ele>
        <time>2022-01-14T08:48:58Z</time>
      </trkpt>
      <trkpt lat="44.99357" lon="6.46386">
        <ele>1921.3</ele>
        <time>2022-01-14T08:48:59Z</time>
      </trkpt>
      <trkpt lat="44.99357" lon="6.46386">
        <ele>1921.3</ele>
        <time>2022-01-14T08:49:00Z</time>
      </trkpt>
      <trkpt lat="44.99357" lon="6.46384">
        <ele>1921.3</ele>
        <time>2022-01-14T08:49:01Z</time>
      </trkpt>
      <trkpt lat="44.99357" lon="6.46384">
        <ele>1921.3</ele>
        <time>2022-01-14T08:49:02Z</time>
      </trkpt>
      <trkpt lat="44.99357" lon="6.46385">
        <ele>1921.3</ele>
        <time>2022-01-14T08:49:03Z</time>
      </trkpt>
      <trkpt lat="44.99357" lon="6.46384">
        <ele>1921.3</ele>
        <time>2022-01-14T08:49:04Z</time>
      </trkpt>
      <trkpt lat="44.99356" lon="6.46385">
        <ele>1921.3</ele>
        <time>2022-01-14T08:49:05Z</time>
      </trkpt>
      <trkpt lat="44.99357" lon="6.46385">
        <ele>1921.3</ele>
        <time>2022-01-14T08:49:06Z</time>
      </trkpt>
      <trkpt lat="44.99357" lon="6.46384">
        <ele>1921.3</ele>
        <time>2022-01-14T08:49:07Z</time>
      </trkpt>
      <trkpt lat="44.99357" lon="6.46384">
        <ele>1921.3</ele>
        <time>2022-01-14T08:49:08Z</time>
      </trkpt>
      <trkpt lat="44.99357" lon="6.46384">
        <ele>1921.3</ele>
        <time>2022-01-14T08:49:09Z</time>
      </trkpt>
      <trkpt lat="44.99356" lon="6.46383">
        <ele>1921.3</ele>
        <time>2022-01-14T08:49:10Z</time>
      </trkpt>
      <trkpt lat="44.99356" lon="6.46382">
        <ele>1921.3</ele>
        <time>2022-01-14T08:49:11Z</time>
      </trkpt>
      <trkpt lat="44.99357" lon="6.46382">
        <ele>1921.3</ele>
        <time>2022-01-14T08:49:12Z</time>
      </trkpt>
      <trkpt lat="44.99357" lon="6.46382">
        <ele>1921.3</ele>
        <time>2022-01-14T08:49:13Z</time>
      </trkpt>
      <trkpt lat="44.99357" lon="6.46382">
        <ele>1921.3</ele>
        <time>2022-01-14T08:49:14Z</time>
      </trkpt>
      <trkpt lat="44.99357" lon="6.46382">
        <ele>1921.3</ele>
        <time>2022-01-14T08:49:15Z</time>
      </trkpt>
      <trkpt lat="44.99356" lon="6.46381">
        <ele>1921.3</ele>
        <time>2022-01-14T08:49:16Z</time>
      </trkpt>
      <trkpt lat="44.99356" lon="6.46381">
        <ele>1921.3</ele>
        <time>2022-01-14T08:49:17Z</time>
      </trkpt>
      <trkpt lat="44.99356" lon="6.46379">
        <ele>1921.3</ele>
        <time>2022-01-14T08:49:18Z</time>
      </trkpt>
      <trkpt lat="44.99355" lon="6.46379">
        <ele>1921.3</ele>
        <time>2022-01-14T08:49:19Z</time>
      </trkpt>
      <trkpt lat="44.99354" lon="6.46378">
        <ele>1921.3</ele>
        <time>2022-01-14T08:49:20Z</time>
      </trkpt>
      <trkpt lat="44.99354" lon="6.46376">
        <ele>1921.3</ele>
        <time>2022-01-14T08:49:21Z</time>
      </trkpt>
      <trkpt lat="44.99353" lon="6.46376">
        <ele>1921.3</ele>
        <time>2022-01-14T08:49:22Z</time>
      </trkpt>
      <trkpt lat="44.99353" lon="6.46375">
        <ele>1921.3</ele>
        <time>2022-01-14T08:49:23Z</time>
      </trkpt>
      <trkpt lat="44.99353" lon="6.46375">
        <ele>1921.3</ele>
        <time>2022-01-14T08:49:24Z</time>
      </trkpt>
      <trkpt lat="44.99353" lon="6.46374">
        <ele>1921.3</ele>
        <time>2022-01-14T08:49:25Z</time>
      </trkpt>
      <trkpt lat="44.99353" lon="6.46374">
        <ele>1926.5</ele>
        <time>2022-01-14T08:49:26Z</time>
      </trkpt>
      <trkpt lat="44.99353" lon="6.46374">
        <ele>1926.5</ele>
        <time>2022-01-14T08:49:27Z</time>
      </trkpt>
      <trkpt lat="44.99353" lon="6.46374">
        <ele>1921.3</ele>
        <time>2022-01-14T08:49:28Z</time>
      </trkpt>
      <trkpt lat="44.99354" lon="6.46374">
        <ele>1921.3</ele>
        <time>2022-01-14T08:49:29Z</time>
      </trkpt>
      <trkpt lat="44.99354" lon="6.46374">
        <ele>1926.5</ele>
        <time>2022-01-14T08:49:30Z</time>
      </trkpt>
      <trkpt lat="44.99354" lon="6.46374">
        <ele>1926.5</ele>
        <time>2022-01-14T08:49:31Z</time>
      </trkpt>
      <trkpt lat="44.99354" lon="6.46374">
        <ele>1921.3</ele>
        <time>2022-01-14T08:49:32Z</time>
      </trkpt>
      <trkpt lat="44.99354" lon="6.46374">
        <ele>1926.5</ele>
        <time>2022-01-14T08:49:33Z</time>
      </trkpt>
      <trkpt lat="44.99354" lon="6.46374">
        <ele>1926.5</ele>
        <time>2022-01-14T08:49:34Z</time>
      </trkpt>
      <trkpt lat="44.99355" lon="6.46375">
        <ele>1921.3</ele>
        <time>2022-01-14T08:49:35Z</time>
      </trkpt>
      <trkpt lat="44.99355" lon="6.46375">
        <ele>1921.3</ele>
        <time>2022-01-14T08:49:36Z</time>
      </trkpt>
      <trkpt lat="44.99355" lon="6.46376">
        <ele>1921.3</ele>
        <time>2022-01-14T08:49:37Z</time>
      </trkpt>
      <trkpt lat="44.99355" lon="6.46376">
        <ele>1921.3</ele>
        <time>2022-01-14T08:49:38Z</time>
      </trkpt>
      <trkpt lat="44.99354" lon="6.46375">
        <ele>1921.3</ele>
        <time>2022-01-14T08:49:39Z</time>
      </trkpt>
      <trkpt lat="44.99354" lon="6.46376">
        <ele>1921.3</ele>
        <time>2022-01-14T08:49:40Z</time>
      </trkpt>
      <trkpt lat="44.99354" lon="6.46375">
        <ele>1921.3</ele>
        <time>2022-01-14T08:49:41Z</time>
      </trkpt>
      <trkpt lat="44.99354" lon="6.46376">
        <ele>1921.3</ele>
        <time>2022-01-14T08:49:42Z</time>
      </trkpt>
      <trkpt lat="44.99354" lon="6.46377">
        <ele>1921.3</ele>
        <time>2022-01-14T08:49:43Z</time>
      </trkpt>
      <trkpt lat="44.99354" lon="6.46378">
        <ele>1921.3</ele>
        <time>2022-01-14T08:49:44Z</time>
      </trkpt>
      <trkpt lat="44.99355" lon="6.46378">
        <ele>1921.3</ele>
        <time>2022-01-14T08:49:45Z</time>
      </trkpt>
      <trkpt lat="44.99354" lon="6.46379">
        <ele>1921.3</ele>
        <time>2022-01-14T08:49:46Z</time>
      </trkpt>
      <trkpt lat="44.99354" lon="6.4638">
        <ele>1921.3</ele>
        <time>2022-01-14T08:49:47Z</time>
      </trkpt>
      <trkpt lat="44.99354" lon="6.46379">
        <ele>1921.3</ele>
        <time>2022-01-14T08:49:48Z</time>
      </trkpt>
      <trkpt lat="44.99354" lon="6.46378">
        <ele>1921.3</ele>
        <time>2022-01-14T08:49:49Z</time>
      </trkpt>
      <trkpt lat="44.99353" lon="6.46378">
        <ele>1921.3</ele>
        <time>2022-01-14T08:49:50Z</time>
      </trkpt>
      <trkpt lat="44.99352" lon="6.46378">
        <ele>1921.3</ele>
        <time>2022-01-14T08:49:51Z</time>
      </trkpt>
      <trkpt lat="44.99351" lon="6.46377">
        <ele>1921.3</ele>
        <time>2022-01-14T08:49:52Z</time>
      </trkpt>
      <trkpt lat="44.99351" lon="6.46377">
        <ele>1921.3</ele>
        <time>2022-01-14T08:49:53Z</time>
      </trkpt>
      <trkpt lat="44.99351" lon="6.46376">
        <ele>1921.3</ele>
        <time>2022-01-14T08:49:54Z</time>
      </trkpt>
      <trkpt lat="44.9935" lon="6.46376">
        <ele>1921.3</ele>
        <time>2022-01-14T08:49:55Z</time>
      </trkpt>
      <trkpt lat="44.9935" lon="6.46375">
        <ele>1921.3</ele>
        <time>2022-01-14T08:49:56Z</time>
      </trkpt>
      <trkpt lat="44.9935" lon="6.46375">
        <ele>1921.3</ele>
        <time>2022-01-14T08:49:57Z</time>
      </trkpt>
      <trkpt lat="44.9935" lon="6.46374">
        <ele>1921.3</ele>
        <time>2022-01-14T08:49:58Z</time>
      </trkpt>
      <trkpt lat="44.9935" lon="6.46374">
        <ele>1921.3</ele>
        <time>2022-01-14T08:49:59Z</time>
      </trkpt>
      <trkpt lat="44.9935" lon="6.46373">
        <ele>1926.5</ele>
        <time>2022-01-14T08:50:00Z</time>
      </trkpt>
      <trkpt lat="44.9935" lon="6.46373">
        <ele>1926.5</ele>
        <time>2022-01-14T08:50:01Z</time>
      </trkpt>
      <trkpt lat="44.99349" lon="6.46371">
        <ele>1926.5</ele>
        <time>2022-01-14T08:50:02Z</time>
      </trkpt>
      <trkpt lat="44.9935" lon="6.4637">
        <ele>1926.5</ele>
        <time>2022-01-14T08:50:03Z</time>
      </trkpt>
      <trkpt lat="44.9935" lon="6.4637">
        <ele>1926.5</ele>
        <time>2022-01-14T08:50:04Z</time>
      </trkpt>
      <trkpt lat="44.99349" lon="6.4637">
        <ele>1926.5</ele>
        <time>2022-01-14T08:50:05Z</time>
      </trkpt>
      <trkpt lat="44.99349" lon="6.46369">
        <ele>1926.5</ele>
        <time>2022-01-14T08:50:06Z</time>
      </trkpt>
      <trkpt lat="44.99349" lon="6.4637">
        <ele>1926.5</ele>
        <time>2022-01-14T08:50:07Z</time>
      </trkpt>
      <trkpt lat="44.99349" lon="6.4637">
        <ele>1926.5</ele>
        <time>2022-01-14T08:50:08Z</time>
      </trkpt>
      <trkpt lat="44.9935" lon="6.4637">
        <ele>1926.5</ele>
        <time>2022-01-14T08:50:09Z</time>
      </trkpt>
      <trkpt lat="44.9935" lon="6.4637">
        <ele>1926.5</ele>
        <time>2022-01-14T08:50:10Z</time>
      </trkpt>
      <trkpt lat="44.9935" lon="6.4637">
        <ele>1926.5</ele>
        <time>2022-01-14T08:50:11Z</time>
      </trkpt>
      <trkpt lat="44.9935" lon="6.4637">
        <ele>1926.5</ele>
        <time>2022-01-14T08:50:12Z</time>
      </trkpt>
      <trkpt lat="44.9935" lon="6.4637">
        <ele>1926.5</ele>
        <time>2022-01-14T08:50:13Z</time>
      </trkpt>
      <trkpt lat="44.9935" lon="6.46369">
        <ele>1926.5</ele>
        <time>2022-01-14T08:50:14Z</time>
      </trkpt>
      <trkpt lat="44.9935" lon="6.46369">
        <ele>1926.5</ele>
        <time>2022-01-14T08:50:15Z</time>
      </trkpt>
      <trkpt lat="44.9935" lon="6.46368">
        <ele>1926.5</ele>
        <time>2022-01-14T08:50:16Z</time>
      </trkpt>
      <trkpt lat="44.99351" lon="6.46367">
        <ele>1926.5</ele>
        <time>2022-01-14T08:50:17Z</time>
      </trkpt>
      <trkpt lat="44.99351" lon="6.46366">
        <ele>1926.5</ele>
        <time>2022-01-14T08:50:18Z</time>
      </trkpt>
      <trkpt lat="44.99351" lon="6.46365">
        <ele>1926.5</ele>
        <time>2022-01-14T08:50:19Z</time>
      </trkpt>
      <trkpt lat="44.99352" lon="6.46364">
        <ele>1926.5</ele>
        <time>2022-01-14T08:50:20Z</time>
      </trkpt>
      <trkpt lat="44.99352" lon="6.46363">
        <ele>1926.5</ele>
        <time>2022-01-14T08:50:21Z</time>
      </trkpt>
      <trkpt lat="44.99353" lon="6.46362">
        <ele>1926.5</ele>
        <time>2022-01-14T08:50:22Z</time>
      </trkpt>
      <trkpt lat="44.99353" lon="6.4636">
        <ele>1926.5</ele>
        <time>2022-01-14T08:50:23Z</time>
      </trkpt>
      <trkpt lat="44.99353" lon="6.46357">
        <ele>1932.6</ele>
        <time>2022-01-14T08:50:24Z</time>
      </trkpt>
      <trkpt lat="44.99353" lon="6.46356">
        <ele>1932.6</ele>
        <time>2022-01-14T08:50:25Z</time>
      </trkpt>
      <trkpt lat="44.99353" lon="6.46355">
        <ele>1932.6</ele>
        <time>2022-01-14T08:50:26Z</time>
      </trkpt>
      <trkpt lat="44.99352" lon="6.46354">
        <ele>1932.6</ele>
        <time>2022-01-14T08:50:27Z</time>
      </trkpt>
      <trkpt lat="44.99352" lon="6.46353">
        <ele>1932.6</ele>
        <time>2022-01-14T08:50:28Z</time>
      </trkpt>
      <trkpt lat="44.99352" lon="6.46353">
        <ele>1932.6</ele>
        <time>2022-01-14T08:50:29Z</time>
      </trkpt>
      <trkpt lat="44.99352" lon="6.46352">
        <ele>1932.6</ele>
        <time>2022-01-14T08:50:30Z</time>
      </trkpt>
      <trkpt lat="44.99352" lon="6.46351">
        <ele>1932.6</ele>
        <time>2022-01-14T08:50:31Z</time>
      </trkpt>
      <trkpt lat="44.99352" lon="6.46351">
        <ele>1932.6</ele>
        <time>2022-01-14T08:50:32Z</time>
      </trkpt>
      <trkpt lat="44.99352" lon="6.46351">
        <ele>1932.6</ele>
        <time>2022-01-14T08:50:33Z</time>
      </trkpt>
      <trkpt lat="44.99352" lon="6.46351">
        <ele>1932.6</ele>
        <time>2022-01-14T08:50:34Z</time>
      </trkpt>
      <trkpt lat="44.99352" lon="6.46351">
        <ele>1932.6</ele>
        <time>2022-01-14T08:50:35Z</time>
      </trkpt>
      <trkpt lat="44.99352" lon="6.46351">
        <ele>1932.6</ele>
        <time>2022-01-14T08:50:36Z</time>
      </trkpt>
      <trkpt lat="44.99352" lon="6.46352">
        <ele>1932.6</ele>
        <time>2022-01-14T08:50:37Z</time>
      </trkpt>
      <trkpt lat="44.99353" lon="6.46351">
        <ele>1932.6</ele>
        <time>2022-01-14T08:50:38Z</time>
      </trkpt>
      <trkpt lat="44.99352" lon="6.46351">
        <ele>1932.6</ele>
        <time>2022-01-14T08:50:39Z</time>
      </trkpt>
      <trkpt lat="44.99352" lon="6.46351">
        <ele>1932.6</ele>
        <time>2022-01-14T08:50:40Z</time>
      </trkpt>
      <trkpt lat="44.99352" lon="6.46352">
        <ele>1932.6</ele>
        <time>2022-01-14T08:50:41Z</time>
      </trkpt>
      <trkpt lat="44.99351" lon="6.46351">
        <ele>1932.6</ele>
        <time>2022-01-14T08:50:42Z</time>
      </trkpt>
      <trkpt lat="44.99351" lon="6.46351">
        <ele>1932.6</ele>
        <time>2022-01-14T08:50:43Z</time>
      </trkpt>
      <trkpt lat="44.99351" lon="6.46351">
        <ele>1932.6</ele>
        <time>2022-01-14T08:50:44Z</time>
      </trkpt>
      <trkpt lat="44.9935" lon="6.4635">
        <ele>1932.6</ele>
        <time>2022-01-14T08:50:45Z</time>
      </trkpt>
      <trkpt lat="44.9935" lon="6.46349">
        <ele>1932.6</ele>
        <time>2022-01-14T08:50:46Z</time>
      </trkpt>
      <trkpt lat="44.99349" lon="6.46349">
        <ele>1932.6</ele>
        <time>2022-01-14T08:50:47Z</time>
      </trkpt>
      <trkpt lat="44.99347" lon="6.46348">
        <ele>1932.6</ele>
        <time>2022-01-14T08:50:48Z</time>
      </trkpt>
      <trkpt lat="44.99347" lon="6.46347">
        <ele>1932.6</ele>
        <time>2022-01-14T08:50:49Z</time>
      </trkpt>
      <trkpt lat="44.99347" lon="6.46347">
        <ele>1932.6</ele>
        <time>2022-01-14T08:50:50Z</time>
      </trkpt>
      <trkpt lat="44.99346" lon="6.46346">
        <ele>1932.6</ele>
        <time>2022-01-14T08:50:51Z</time>
      </trkpt>
      <trkpt lat="44.99346" lon="6.46345">
        <ele>1932.6</ele>
        <time>2022-01-14T08:50:52Z</time>
      </trkpt>
      <trkpt lat="44.99345" lon="6.46345">
        <ele>1934.4</ele>
        <time>2022-01-14T08:50:53Z</time>
      </trkpt>
      <trkpt lat="44.99345" lon="6.46344">
        <ele>1934.4</ele>
        <time>2022-01-14T08:50:54Z</time>
      </trkpt>
      <trkpt lat="44.99345" lon="6.46344">
        <ele>1934.4</ele>
        <time>2022-01-14T08:50:55Z</time>
      </trkpt>
      <trkpt lat="44.99345" lon="6.46344">
        <ele>1934.4</ele>
        <time>2022-01-14T08:50:56Z</time>
      </trkpt>
      <trkpt lat="44.99345" lon="6.46343">
        <ele>1934.4</ele>
        <time>2022-01-14T08:50:57Z</time>
      </trkpt>
      <trkpt lat="44.99345" lon="6.46343">
        <ele>1934.4</ele>
        <time>2022-01-14T08:50:58Z</time>
      </trkpt>
      <trkpt lat="44.99345" lon="6.46343">
        <ele>1934.4</ele>
        <time>2022-01-14T08:50:59Z</time>
      </trkpt>
      <trkpt lat="44.99345" lon="6.46343">
        <ele>1934.4</ele>
        <time>2022-01-14T08:51:00Z</time>
      </trkpt>
      <trkpt lat="44.99346" lon="6.46343">
        <ele>1932.6</ele>
        <time>2022-01-14T08:51:01Z</time>
      </trkpt>
      <trkpt lat="44.99346" lon="6.46343">
        <ele>1932.6</ele>
        <time>2022-01-14T08:51:02Z</time>
      </trkpt>
      <trkpt lat="44.99345" lon="6.46343">
        <ele>1934.4</ele>
        <time>2022-01-14T08:51:03Z</time>
      </trkpt>
      <trkpt lat="44.99345" lon="6.46343">
        <ele>1934.4</ele>
        <time>2022-01-14T08:51:04Z</time>
      </trkpt>
      <trkpt lat="44.99345" lon="6.46343">
        <ele>1934.4</ele>
        <time>2022-01-14T08:51:05Z</time>
      </trkpt>
      <trkpt lat="44.99344" lon="6.46343">
        <ele>1934.4</ele>
        <time>2022-01-14T08:51:06Z</time>
      </trkpt>
      <trkpt lat="44.99344" lon="6.46342">
        <ele>1934.4</ele>
        <time>2022-01-14T08:51:07Z</time>
      </trkpt>
      <trkpt lat="44.99344" lon="6.46342">
        <ele>1934.4</ele>
        <time>2022-01-14T08:51:08Z</time>
      </trkpt>
      <trkpt lat="44.99343" lon="6.46341">
        <ele>1934.4</ele>
        <time>2022-01-14T08:51:09Z</time>
      </trkpt>
      <trkpt lat="44.99343" lon="6.46341">
        <ele>1934.4</ele>
        <time>2022-01-14T08:51:10Z</time>
      </trkpt>
      <trkpt lat="44.99343" lon="6.46341">
        <ele>1934.4</ele>
        <time>2022-01-14T08:51:11Z</time>
      </trkpt>
      <trkpt lat="44.99342" lon="6.46341">
        <ele>1934.4</ele>
        <time>2022-01-14T08:51:12Z</time>
      </trkpt>
      <trkpt lat="44.99342" lon="6.46342">
        <ele>1934.4</ele>
        <time>2022-01-14T08:51:13Z</time>
      </trkpt>
      <trkpt lat="44.99342" lon="6.46342">
        <ele>1934.4</ele>
        <time>2022-01-14T08:51:14Z</time>
      </trkpt>
      <trkpt lat="44.99342" lon="6.46342">
        <ele>1934.4</ele>
        <time>2022-01-14T08:51:15Z</time>
      </trkpt>
      <trkpt lat="44.99341" lon="6.46341">
        <ele>1934.4</ele>
        <time>2022-01-14T08:51:16Z</time>
      </trkpt>
      <trkpt lat="44.99341" lon="6.46339">
        <ele>1941.2</ele>
        <time>2022-01-14T08:51:17Z</time>
      </trkpt>
      <trkpt lat="44.99341" lon="6.46338">
        <ele>1941.2</ele>
        <time>2022-01-14T08:51:18Z</time>
      </trkpt>
      <trkpt lat="44.99341" lon="6.46338">
        <ele>1941.2</ele>
        <time>2022-01-14T08:51:19Z</time>
      </trkpt>
      <trkpt lat="44.9934" lon="6.46337">
        <ele>1941.2</ele>
        <time>2022-01-14T08:51:20Z</time>
      </trkpt>
      <trkpt lat="44.99341" lon="6.46336">
        <ele>1941.2</ele>
        <time>2022-01-14T08:51:21Z</time>
      </trkpt>
      <trkpt lat="44.99341" lon="6.46337">
        <ele>1941.2</ele>
        <time>2022-01-14T08:51:22Z</time>
      </trkpt>
      <trkpt lat="44.99341" lon="6.46337">
        <ele>1941.2</ele>
        <time>2022-01-14T08:51:23Z</time>
      </trkpt>
      <trkpt lat="44.99341" lon="6.46339">
        <ele>1941.2</ele>
        <time>2022-01-14T08:51:24Z</time>
      </trkpt>
      <trkpt lat="44.9934" lon="6.46339">
        <ele>1941.2</ele>
        <time>2022-01-14T08:51:25Z</time>
      </trkpt>
      <trkpt lat="44.9934" lon="6.46338">
        <ele>1941.2</ele>
        <time>2022-01-14T08:51:26Z</time>
      </trkpt>
      <trkpt lat="44.9934" lon="6.46338">
        <ele>1941.2</ele>
        <time>2022-01-14T08:51:27Z</time>
      </trkpt>
      <trkpt lat="44.99339" lon="6.46338">
        <ele>1941.2</ele>
        <time>2022-01-14T08:51:28Z</time>
      </trkpt>
      <trkpt lat="44.9934" lon="6.46338">
        <ele>1941.2</ele>
        <time>2022-01-14T08:51:29Z</time>
      </trkpt>
      <trkpt lat="44.9934" lon="6.46338">
        <ele>1941.2</ele>
        <time>2022-01-14T08:51:30Z</time>
      </trkpt>
      <trkpt lat="44.9934" lon="6.46339">
        <ele>1941.2</ele>
        <time>2022-01-14T08:51:31Z</time>
      </trkpt>
      <trkpt lat="44.9934" lon="6.4634">
        <ele>1934.4</ele>
        <time>2022-01-14T08:51:32Z</time>
      </trkpt>
      <trkpt lat="44.99341" lon="6.4634">
        <ele>1934.4</ele>
        <time>2022-01-14T08:51:33Z</time>
      </trkpt>
      <trkpt lat="44.99341" lon="6.46341">
        <ele>1934.4</ele>
        <time>2022-01-14T08:51:34Z</time>
      </trkpt>
      <trkpt lat="44.99341" lon="6.46342">
        <ele>1934.4</ele>
        <time>2022-01-14T08:51:35Z</time>
      </trkpt>
      <trkpt lat="44.99342" lon="6.46341">
        <ele>1934.4</ele>
        <time>2022-01-14T08:51:36Z</time>
      </trkpt>
      <trkpt lat="44.99342" lon="6.4634">
        <ele>1934.4</ele>
        <time>2022-01-14T08:51:37Z</time>
      </trkpt>
      <trkpt lat="44.99343" lon="6.4634">
        <ele>1934.4</ele>
        <time>2022-01-14T08:51:38Z</time>
      </trkpt>
      <trkpt lat="44.99344" lon="6.4634">
        <ele>1934.4</ele>
        <time>2022-01-14T08:51:39Z</time>
      </trkpt>
      <trkpt lat="44.99345" lon="6.4634">
        <ele>1934.4</ele>
        <time>2022-01-14T08:51:40Z</time>
      </trkpt>
      <trkpt lat="44.99346" lon="6.4634">
        <ele>1932.6</ele>
        <time>2022-01-14T08:51:41Z</time>
      </trkpt>
      <trkpt lat="44.99347" lon="6.4634">
        <ele>1932.6</ele>
        <time>2022-01-14T08:51:42Z</time>
      </trkpt>
      <trkpt lat="44.99348" lon="6.46341">
        <ele>1932.6</ele>
        <time>2022-01-14T08:51:43Z</time>
      </trkpt>
      <trkpt lat="44.99349" lon="6.46342">
        <ele>1932.6</ele>
        <time>2022-01-14T08:51:44Z</time>
      </trkpt>
      <trkpt lat="44.99349" lon="6.46343">
        <ele>1932.6</ele>
        <time>2022-01-14T08:51:45Z</time>
      </trkpt>
      <trkpt lat="44.99349" lon="6.46343">
        <ele>1932.6</ele>
        <time>2022-01-14T08:51:46Z</time>
      </trkpt>
      <trkpt lat="44.9935" lon="6.46343">
        <ele>1932.6</ele>
        <time>2022-01-14T08:51:47Z</time>
      </trkpt>
      <trkpt lat="44.9935" lon="6.46343">
        <ele>1932.6</ele>
        <time>2022-01-14T08:51:48Z</time>
      </trkpt>
      <trkpt lat="44.99351" lon="6.46343">
        <ele>1932.6</ele>
        <time>2022-01-14T08:51:49Z</time>
      </trkpt>
      <trkpt lat="44.99351" lon="6.46343">
        <ele>1932.6</ele>
        <time>2022-01-14T08:51:50Z</time>
      </trkpt>
      <trkpt lat="44.99351" lon="6.46342">
        <ele>1932.6</ele>
        <time>2022-01-14T08:51:51Z</time>
      </trkpt>
      <trkpt lat="44.99352" lon="6.46342">
        <ele>1932.6</ele>
        <time>2022-01-14T08:51:52Z</time>
      </trkpt>
      <trkpt lat="44.99352" lon="6.46342">
        <ele>1932.6</ele>
        <time>2022-01-14T08:51:53Z</time>
      </trkpt>
      <trkpt lat="44.99351" lon="6.46341">
        <ele>1932.6</ele>
        <time>2022-01-14T08:51:54Z</time>
      </trkpt>
      <trkpt lat="44.99351" lon="6.46341">
        <ele>1932.6</ele>
        <time>2022-01-14T08:51:55Z</time>
      </trkpt>
      <trkpt lat="44.99351" lon="6.46341">
        <ele>1932.6</ele>
        <time>2022-01-14T08:51:56Z</time>
      </trkpt>
      <trkpt lat="44.99352" lon="6.46341">
        <ele>1932.6</ele>
        <time>2022-01-14T08:51:57Z</time>
      </trkpt>
      <trkpt lat="44.99352" lon="6.46341">
        <ele>1932.6</ele>
        <time>2022-01-14T08:51:58Z</time>
      </trkpt>
      <trkpt lat="44.99353" lon="6.46339">
        <ele>1939.2</ele>
        <time>2022-01-14T08:51:59Z</time>
      </trkpt>
      <trkpt lat="44.99353" lon="6.46338">
        <ele>1939.2</ele>
        <time>2022-01-14T08:52:00Z</time>
      </trkpt>
      <trkpt lat="44.99354" lon="6.46338">
        <ele>1939.2</ele>
        <time>2022-01-14T08:52:01Z</time>
      </trkpt>
      <trkpt lat="44.99355" lon="6.46338">
        <ele>1939.2</ele>
        <time>2022-01-14T08:52:02Z</time>
      </trkpt>
      <trkpt lat="44.99356" lon="6.46338">
        <ele>1939.2</ele>
        <time>2022-01-14T08:52:03Z</time>
      </trkpt>
      <trkpt lat="44.99356" lon="6.46338">
        <ele>1939.2</ele>
        <time>2022-01-14T08:52:04Z</time>
      </trkpt>
      <trkpt lat="44.99357" lon="6.46337">
        <ele>1939.2</ele>
        <time>2022-01-14T08:52:05Z</time>
      </trkpt>
      <trkpt lat="44.99357" lon="6.46337">
        <ele>1939.2</ele>
        <time>2022-01-14T08:52:06Z</time>
      </trkpt>
      <trkpt lat="44.99357" lon="6.46338">
        <ele>1939.2</ele>
        <time>2022-01-14T08:52:07Z</time>
      </trkpt>
      <trkpt lat="44.99357" lon="6.46337">
        <ele>1939.2</ele>
        <time>2022-01-14T08:52:08Z</time>
      </trkpt>
      <trkpt lat="44.99357" lon="6.46336">
        <ele>1939.2</ele>
        <time>2022-01-14T08:52:09Z</time>
      </trkpt>
      <trkpt lat="44.99357" lon="6.46335">
        <ele>1939.2</ele>
        <time>2022-01-14T08:52:10Z</time>
      </trkpt>
      <trkpt lat="44.99357" lon="6.46335">
        <ele>1939.2</ele>
        <time>2022-01-14T08:52:11Z</time>
      </trkpt>
      <trkpt lat="44.99357" lon="6.46335">
        <ele>1939.2</ele>
        <time>2022-01-14T08:52:12Z</time>
      </trkpt>
      <trkpt lat="44.99358" lon="6.46334">
        <ele>1936.3</ele>
        <time>2022-01-14T08:52:13Z</time>
      </trkpt>
      <trkpt lat="44.99358" lon="6.46334">
        <ele>1936.3</ele>
        <time>2022-01-14T08:52:14Z</time>
      </trkpt>
      <trkpt lat="44.99358" lon="6.46334">
        <ele>1936.3</ele>
        <time>2022-01-14T08:52:15Z</time>
      </trkpt>
      <trkpt lat="44.99358" lon="6.46333">
        <ele>1939.2</ele>
        <time>2022-01-14T08:52:16Z</time>
      </trkpt>
      <trkpt lat="44.99358" lon="6.46332">
        <ele>1939.2</ele>
        <time>2022-01-14T08:52:17Z</time>
      </trkpt>
      <trkpt lat="44.99358" lon="6.46332">
        <ele>1936.3</ele>
        <time>2022-01-14T08:52:18Z</time>
      </trkpt>
      <trkpt lat="44.99359" lon="6.46332">
        <ele>1936.3</ele>
        <time>2022-01-14T08:52:19Z</time>
      </trkpt>
      <trkpt lat="44.9936" lon="6.46331">
        <ele>1936.3</ele>
        <time>2022-01-14T08:52:20Z</time>
      </trkpt>
      <trkpt lat="44.9936" lon="6.46331">
        <ele>1936.3</ele>
        <time>2022-01-14T08:52:21Z</time>
      </trkpt>
      <trkpt lat="44.9936" lon="6.46329">
        <ele>1936.3</ele>
        <time>2022-01-14T08:52:22Z</time>
      </trkpt>
      <trkpt lat="44.99361" lon="6.46329">
        <ele>1936.3</ele>
        <time>2022-01-14T08:52:23Z</time>
      </trkpt>
      <trkpt lat="44.99361" lon="6.46329">
        <ele>1936.3</ele>
        <time>2022-01-14T08:52:24Z</time>
      </trkpt>
      <trkpt lat="44.99362" lon="6.46328">
        <ele>1936.3</ele>
        <time>2022-01-14T08:52:25Z</time>
      </trkpt>
      <trkpt lat="44.99362" lon="6.46328">
        <ele>1936.3</ele>
        <time>2022-01-14T08:52:26Z</time>
      </trkpt>
      <trkpt lat="44.99362" lon="6.46328">
        <ele>1936.3</ele>
        <time>2022-01-14T08:52:27Z</time>
      </trkpt>
      <trkpt lat="44.99362" lon="6.46327">
        <ele>1936.3</ele>
        <time>2022-01-14T08:52:28Z</time>
      </trkpt>
      <trkpt lat="44.99361" lon="6.46327">
        <ele>1936.3</ele>
        <time>2022-01-14T08:52:29Z</time>
      </trkpt>
      <trkpt lat="44.9936" lon="6.46326">
        <ele>1936.3</ele>
        <time>2022-01-14T08:52:30Z</time>
      </trkpt>
      <trkpt lat="44.9936" lon="6.46324">
        <ele>1936.3</ele>
        <time>2022-01-14T08:52:31Z</time>
      </trkpt>
      <trkpt lat="44.99361" lon="6.46323">
        <ele>1936.3</ele>
        <time>2022-01-14T08:52:32Z</time>
      </trkpt>
      <trkpt lat="44.99361" lon="6.46322">
        <ele>1942.9</ele>
        <time>2022-01-14T08:52:33Z</time>
      </trkpt>
      <trkpt lat="44.99361" lon="6.46321">
        <ele>1942.9</ele>
        <time>2022-01-14T08:52:34Z</time>
      </trkpt>
      <trkpt lat="44.99362" lon="6.46319">
        <ele>1942.9</ele>
        <time>2022-01-14T08:52:35Z</time>
      </trkpt>
      <trkpt lat="44.99362" lon="6.46318">
        <ele>1942.9</ele>
        <time>2022-01-14T08:52:36Z</time>
      </trkpt>
      <trkpt lat="44.99362" lon="6.46317">
        <ele>1942.9</ele>
        <time>2022-01-14T08:52:37Z</time>
      </trkpt>
      <trkpt lat="44.99362" lon="6.46316">
        <ele>1942.9</ele>
        <time>2022-01-14T08:52:38Z</time>
      </trkpt>
      <trkpt lat="44.99362" lon="6.46316">
        <ele>1942.9</ele>
        <time>2022-01-14T08:52:39Z</time>
      </trkpt>
      <trkpt lat="44.99363" lon="6.46316">
        <ele>1942.9</ele>
        <time>2022-01-14T08:52:40Z</time>
      </trkpt>
      <trkpt lat="44.99362" lon="6.46315">
        <ele>1942.9</ele>
        <time>2022-01-14T08:52:41Z</time>
      </trkpt>
      <trkpt lat="44.99362" lon="6.46315">
        <ele>1942.9</ele>
        <time>2022-01-14T08:52:42Z</time>
      </trkpt>
      <trkpt lat="44.99361" lon="6.46314">
        <ele>1942.9</ele>
        <time>2022-01-14T08:52:43Z</time>
      </trkpt>
      <trkpt lat="44.9936" lon="6.46313">
        <ele>1942.9</ele>
        <time>2022-01-14T08:52:44Z</time>
      </trkpt>
      <trkpt lat="44.9936" lon="6.46313">
        <ele>1942.9</ele>
        <time>2022-01-14T08:52:45Z</time>
      </trkpt>
      <trkpt lat="44.99359" lon="6.46313">
        <ele>1942.9</ele>
        <time>2022-01-14T08:52:46Z</time>
      </trkpt>
      <trkpt lat="44.99359" lon="6.46313">
        <ele>1942.9</ele>
        <time>2022-01-14T08:52:47Z</time>
      </trkpt>
      <trkpt lat="44.99358" lon="6.46313">
        <ele>1942.9</ele>
        <time>2022-01-14T08:52:48Z</time>
      </trkpt>
      <trkpt lat="44.99358" lon="6.46312">
        <ele>1942.9</ele>
        <time>2022-01-14T08:52:49Z</time>
      </trkpt>
      <trkpt lat="44.99358" lon="6.46312">
        <ele>1945.9</ele>
        <time>2022-01-14T08:52:50Z</time>
      </trkpt>
      <trkpt lat="44.99357" lon="6.46312">
        <ele>1945.9</ele>
        <time>2022-01-14T08:52:51Z</time>
      </trkpt>
      <trkpt lat="44.99357" lon="6.46311">
        <ele>1945.9</ele>
        <time>2022-01-14T08:52:52Z</time>
      </trkpt>
      <trkpt lat="44.99357" lon="6.46311">
        <ele>1945.9</ele>
        <time>2022-01-14T08:52:53Z</time>
      </trkpt>
      <trkpt lat="44.99355" lon="6.46311">
        <ele>1945.9</ele>
        <time>2022-01-14T08:52:54Z</time>
      </trkpt>
      <trkpt lat="44.99355" lon="6.46311">
        <ele>1945.9</ele>
        <time>2022-01-14T08:52:55Z</time>
      </trkpt>
      <trkpt lat="44.99354" lon="6.46311">
        <ele>1945.9</ele>
        <time>2022-01-14T08:52:56Z</time>
      </trkpt>
      <trkpt lat="44.99354" lon="6.46311">
        <ele>1945.9</ele>
        <time>2022-01-14T08:52:57Z</time>
      </trkpt>
      <trkpt lat="44.99353" lon="6.46311">
        <ele>1945.9</ele>
        <time>2022-01-14T08:52:58Z</time>
      </trkpt>
      <trkpt lat="44.99353" lon="6.46311">
        <ele>1945.9</ele>
        <time>2022-01-14T08:52:59Z</time>
      </trkpt>
      <trkpt lat="44.99352" lon="6.46311">
        <ele>1945.9</ele>
        <time>2022-01-14T08:53:00Z</time>
      </trkpt>
      <trkpt lat="44.99352" lon="6.46311">
        <ele>1945.9</ele>
        <time>2022-01-14T08:53:01Z</time>
      </trkpt>
      <trkpt lat="44.99352" lon="6.46311">
        <ele>1945.9</ele>
        <time>2022-01-14T08:53:02Z</time>
      </trkpt>
      <trkpt lat="44.99352" lon="6.4631">
        <ele>1945.9</ele>
        <time>2022-01-14T08:53:03Z</time>
      </trkpt>
      <trkpt lat="44.99351" lon="6.46311">
        <ele>1945.9</ele>
        <time>2022-01-14T08:53:04Z</time>
      </trkpt>
      <trkpt lat="44.99351" lon="6.46312">
        <ele>1945.9</ele>
        <time>2022-01-14T08:53:05Z</time>
      </trkpt>
      <trkpt lat="44.99351" lon="6.46312">
        <ele>1945.9</ele>
        <time>2022-01-14T08:53:06Z</time>
      </trkpt>
      <trkpt lat="44.9935" lon="6.46311">
        <ele>1945.9</ele>
        <time>2022-01-14T08:53:07Z</time>
      </trkpt>
      <trkpt lat="44.99349" lon="6.46311">
        <ele>1945.9</ele>
        <time>2022-01-14T08:53:08Z</time>
      </trkpt>
      <trkpt lat="44.99348" lon="6.4631">
        <ele>1945.9</ele>
        <time>2022-01-14T08:53:09Z</time>
      </trkpt>
      <trkpt lat="44.99347" lon="6.46309">
        <ele>1945.9</ele>
        <time>2022-01-14T08:53:10Z</time>
      </trkpt>
      <trkpt lat="44.99346" lon="6.46309">
        <ele>1945.9</ele>
        <time>2022-01-14T08:53:11Z</time>
      </trkpt>
      <trkpt lat="44.99345" lon="6.46308">
        <ele>1948.2</ele>
        <time>2022-01-14T08:53:12Z</time>
      </trkpt>
      <trkpt lat="44.99345" lon="6.46308">
        <ele>1948.2</ele>
        <time>2022-01-14T08:53:13Z</time>
      </trkpt>
      <trkpt lat="44.99344" lon="6.46309">
        <ele>1948.2</ele>
        <time>2022-01-14T08:53:14Z</time>
      </trkpt>
      <trkpt lat="44.99344" lon="6.46309">
        <ele>1948.2</ele>
        <time>2022-01-14T08:53:15Z</time>
      </trkpt>
      <trkpt lat="44.99344" lon="6.46309">
        <ele>1948.2</ele>
        <time>2022-01-14T08:53:16Z</time>
      </trkpt>
      <trkpt lat="44.99345" lon="6.46309">
        <ele>1948.2</ele>
        <time>2022-01-14T08:53:17Z</time>
      </trkpt>
      <trkpt lat="44.99345" lon="6.46309">
        <ele>1948.2</ele>
        <time>2022-01-14T08:53:18Z</time>
      </trkpt>
      <trkpt lat="44.99345" lon="6.46309">
        <ele>1948.2</ele>
        <time>2022-01-14T08:53:19Z</time>
      </trkpt>
      <trkpt lat="44.99344" lon="6.46309">
        <ele>1948.2</ele>
        <time>2022-01-14T08:53:20Z</time>
      </trkpt>
      <trkpt lat="44.99344" lon="6.46309">
        <ele>1948.2</ele>
        <time>2022-01-14T08:53:21Z</time>
      </trkpt>
      <trkpt lat="44.99344" lon="6.46309">
        <ele>1948.2</ele>
        <time>2022-01-14T08:53:22Z</time>
      </trkpt>
      <trkpt lat="44.99343" lon="6.46309">
        <ele>1948.2</ele>
        <time>2022-01-14T08:53:23Z</time>
      </trkpt>
      <trkpt lat="44.99344" lon="6.46308">
        <ele>1948.2</ele>
        <time>2022-01-14T08:53:24Z</time>
      </trkpt>
      <trkpt lat="44.99344" lon="6.46307">
        <ele>1948.2</ele>
        <time>2022-01-14T08:53:25Z</time>
      </trkpt>
      <trkpt lat="44.99344" lon="6.46306">
        <ele>1948.2</ele>
        <time>2022-01-14T08:53:26Z</time>
      </trkpt>
      <trkpt lat="44.99344" lon="6.46306">
        <ele>1948.2</ele>
        <time>2022-01-14T08:53:27Z</time>
      </trkpt>
      <trkpt lat="44.99344" lon="6.46307">
        <ele>1948.2</ele>
        <time>2022-01-14T08:53:28Z</time>
      </trkpt>
      <trkpt lat="44.99344" lon="6.46307">
        <ele>1948.2</ele>
        <time>2022-01-14T08:53:29Z</time>
      </trkpt>
      <trkpt lat="44.99343" lon="6.46308">
        <ele>1948.2</ele>
        <time>2022-01-14T08:53:30Z</time>
      </trkpt>
      <trkpt lat="44.99343" lon="6.46308">
        <ele>1948.2</ele>
        <time>2022-01-14T08:53:31Z</time>
      </trkpt>
      <trkpt lat="44.99343" lon="6.46307">
        <ele>1948.2</ele>
        <time>2022-01-14T08:53:32Z</time>
      </trkpt>
      <trkpt lat="44.99342" lon="6.46306">
        <ele>1948.2</ele>
        <time>2022-01-14T08:53:33Z</time>
      </trkpt>
      <trkpt lat="44.99342" lon="6.46306">
        <ele>1948.2</ele>
        <time>2022-01-14T08:53:34Z</time>
      </trkpt>
      <trkpt lat="44.99342" lon="6.46305">
        <ele>1956.3</ele>
        <time>2022-01-14T08:53:35Z</time>
      </trkpt>
      <trkpt lat="44.99341" lon="6.46304">
        <ele>1956.3</ele>
        <time>2022-01-14T08:53:36Z</time>
      </trkpt>
      <trkpt lat="44.99341" lon="6.46303">
        <ele>1956.3</ele>
        <time>2022-01-14T08:53:37Z</time>
      </trkpt>
      <trkpt lat="44.9934" lon="6.46303">
        <ele>1956.3</ele>
        <time>2022-01-14T08:53:38Z</time>
      </trkpt>
      <trkpt lat="44.9934" lon="6.46303">
        <ele>1956.3</ele>
        <time>2022-01-14T08:53:39Z</time>
      </trkpt>
      <trkpt lat="44.99339" lon="6.46302">
        <ele>1956.3</ele>
        <time>2022-01-14T08:53:40Z</time>
      </trkpt>
      <trkpt lat="44.99338" lon="6.46302">
        <ele>1956.3</ele>
        <time>2022-01-14T08:53:41Z</time>
      </trkpt>
      <trkpt lat="44.99338" lon="6.46302">
        <ele>1956.3</ele>
        <time>2022-01-14T08:53:42Z</time>
      </trkpt>
      <trkpt lat="44.99337" lon="6.46302">
        <ele>1956.3</ele>
        <time>2022-01-14T08:53:43Z</time>
      </trkpt>
      <trkpt lat="44.99337" lon="6.46302">
        <ele>1956.3</ele>
        <time>2022-01-14T08:53:44Z</time>
      </trkpt>
      <trkpt lat="44.99336" lon="6.46302">
        <ele>1956.3</ele>
        <time>2022-01-14T08:53:45Z</time>
      </trkpt>
      <trkpt lat="44.99335" lon="6.46303">
        <ele>1956.3</ele>
        <time>2022-01-14T08:53:46Z</time>
      </trkpt>
      <trkpt lat="44.99334" lon="6.46304">
        <ele>1956.3</ele>
        <time>2022-01-14T08:53:47Z</time>
      </trkpt>
      <trkpt lat="44.99333" lon="6.46304">
        <ele>1958.9</ele>
        <time>2022-01-14T08:53:48Z</time>
      </trkpt>
      <trkpt lat="44.99332" lon="6.46303">
        <ele>1958.9</ele>
        <time>2022-01-14T08:53:49Z</time>
      </trkpt>
      <trkpt lat="44.99332" lon="6.46303">
        <ele>1958.9</ele>
        <time>2022-01-14T08:53:50Z</time>
      </trkpt>
      <trkpt lat="44.99332" lon="6.46302">
        <ele>1958.9</ele>
        <time>2022-01-14T08:53:51Z</time>
      </trkpt>
      <trkpt lat="44.99331" lon="6.46302">
        <ele>1958.9</ele>
        <time>2022-01-14T08:53:52Z</time>
      </trkpt>
      <trkpt lat="44.99331" lon="6.46302">
        <ele>1958.9</ele>
        <time>2022-01-14T08:53:53Z</time>
      </trkpt>
      <trkpt lat="44.99331" lon="6.46302">
        <ele>1958.9</ele>
        <time>2022-01-14T08:53:54Z</time>
      </trkpt>
      <trkpt lat="44.99332" lon="6.46301">
        <ele>1958.9</ele>
        <time>2022-01-14T08:53:55Z</time>
      </trkpt>
      <trkpt lat="44.99332" lon="6.46301">
        <ele>1958.9</ele>
        <time>2022-01-14T08:53:56Z</time>
      </trkpt>
      <trkpt lat="44.99333" lon="6.463">
        <ele>1958.9</ele>
        <time>2022-01-14T08:53:57Z</time>
      </trkpt>
      <trkpt lat="44.99334" lon="6.463">
        <ele>1956.3</ele>
        <time>2022-01-14T08:53:58Z</time>
      </trkpt>
      <trkpt lat="44.99334" lon="6.463">
        <ele>1956.3</ele>
        <time>2022-01-14T08:53:59Z</time>
      </trkpt>
      <trkpt lat="44.99335" lon="6.463">
        <ele>1956.3</ele>
        <time>2022-01-14T08:54:00Z</time>
      </trkpt>
      <trkpt lat="44.99335" lon="6.46299">
        <ele>1956.3</ele>
        <time>2022-01-14T08:54:01Z</time>
      </trkpt>
      <trkpt lat="44.99335" lon="6.46298">
        <ele>1956.3</ele>
        <time>2022-01-14T08:54:02Z</time>
      </trkpt>
      <trkpt lat="44.99335" lon="6.46297">
        <ele>1956.3</ele>
        <time>2022-01-14T08:54:03Z</time>
      </trkpt>
      <trkpt lat="44.99335" lon="6.46296">
        <ele>1956.3</ele>
        <time>2022-01-14T08:54:04Z</time>
      </trkpt>
      <trkpt lat="44.99335" lon="6.46296">
        <ele>1956.3</ele>
        <time>2022-01-14T08:54:05Z</time>
      </trkpt>
      <trkpt lat="44.99336" lon="6.46295">
        <ele>1956.3</ele>
        <time>2022-01-14T08:54:06Z</time>
      </trkpt>
      <trkpt lat="44.99337" lon="6.46295">
        <ele>1956.3</ele>
        <time>2022-01-14T08:54:07Z</time>
      </trkpt>
      <trkpt lat="44.99337" lon="6.46296">
        <ele>1956.3</ele>
        <time>2022-01-14T08:54:08Z</time>
      </trkpt>
      <trkpt lat="44.99338" lon="6.46296">
        <ele>1956.3</ele>
        <time>2022-01-14T08:54:09Z</time>
      </trkpt>
      <trkpt lat="44.99338" lon="6.46296">
        <ele>1956.3</ele>
        <time>2022-01-14T08:54:10Z</time>
      </trkpt>
      <trkpt lat="44.99338" lon="6.46296">
        <ele>1956.3</ele>
        <time>2022-01-14T08:54:11Z</time>
      </trkpt>
      <trkpt lat="44.99338" lon="6.46296">
        <ele>1956.3</ele>
        <time>2022-01-14T08:54:12Z</time>
      </trkpt>
      <trkpt lat="44.99339" lon="6.46296">
        <ele>1956.3</ele>
        <time>2022-01-14T08:54:13Z</time>
      </trkpt>
      <trkpt lat="44.99339" lon="6.46296">
        <ele>1956.3</ele>
        <time>2022-01-14T08:54:14Z</time>
      </trkpt>
      <trkpt lat="44.9934" lon="6.46295">
        <ele>1956.3</ele>
        <time>2022-01-14T08:54:15Z</time>
      </trkpt>
      <trkpt lat="44.9934" lon="6.46294">
        <ele>1956.3</ele>
        <time>2022-01-14T08:54:16Z</time>
      </trkpt>
      <trkpt lat="44.99341" lon="6.46294">
        <ele>1956.3</ele>
        <time>2022-01-14T08:54:17Z</time>
      </trkpt>
      <trkpt lat="44.99341" lon="6.46294">
        <ele>1956.3</ele>
        <time>2022-01-14T08:54:18Z</time>
      </trkpt>
      <trkpt lat="44.99342" lon="6.46293">
        <ele>1956.3</ele>
        <time>2022-01-14T08:54:19Z</time>
      </trkpt>
      <trkpt lat="44.99343" lon="6.46293">
        <ele>1956.3</ele>
        <time>2022-01-14T08:54:20Z</time>
      </trkpt>
      <trkpt lat="44.99343" lon="6.46293">
        <ele>1956.3</ele>
        <time>2022-01-14T08:54:21Z</time>
      </trkpt>
      <trkpt lat="44.99344" lon="6.46294">
        <ele>1956.3</ele>
        <time>2022-01-14T08:54:22Z</time>
      </trkpt>
      <trkpt lat="44.99344" lon="6.46293">
        <ele>1956.3</ele>
        <time>2022-01-14T08:54:23Z</time>
      </trkpt>
      <trkpt lat="44.99345" lon="6.46292">
        <ele>1956.3</ele>
        <time>2022-01-14T08:54:24Z</time>
      </trkpt>
      <trkpt lat="44.99345" lon="6.46293">
        <ele>1956.3</ele>
        <time>2022-01-14T08:54:25Z</time>
      </trkpt>
      <trkpt lat="44.99346" lon="6.46292">
        <ele>1953.8</ele>
        <time>2022-01-14T08:54:26Z</time>
      </trkpt>
      <trkpt lat="44.99346" lon="6.46292">
        <ele>1953.8</ele>
        <time>2022-01-14T08:54:27Z</time>
      </trkpt>
      <trkpt lat="44.99347" lon="6.46291">
        <ele>1953.8</ele>
        <time>2022-01-14T08:54:28Z</time>
      </trkpt>
      <trkpt lat="44.99348" lon="6.46291">
        <ele>1953.8</ele>
        <time>2022-01-14T08:54:29Z</time>
      </trkpt>
      <trkpt lat="44.99348" lon="6.46291">
        <ele>1953.8</ele>
        <time>2022-01-14T08:54:30Z</time>
      </trkpt>
      <trkpt lat="44.99348" lon="6.4629">
        <ele>1953.8</ele>
        <time>2022-01-14T08:54:31Z</time>
      </trkpt>
      <trkpt lat="44.99349" lon="6.4629">
        <ele>1953.8</ele>
        <time>2022-01-14T08:54:32Z</time>
      </trkpt>
      <trkpt lat="44.99349" lon="6.46289">
        <ele>1953.8</ele>
        <time>2022-01-14T08:54:33Z</time>
      </trkpt>
      <trkpt lat="44.9935" lon="6.46289">
        <ele>1953.8</ele>
        <time>2022-01-14T08:54:34Z</time>
      </trkpt>
      <trkpt lat="44.9935" lon="6.46288">
        <ele>1953.8</ele>
        <time>2022-01-14T08:54:35Z</time>
      </trkpt>
      <trkpt lat="44.9935" lon="6.46288">
        <ele>1953.8</ele>
        <time>2022-01-14T08:54:36Z</time>
      </trkpt>
      <trkpt lat="44.99351" lon="6.46286">
        <ele>1961.2</ele>
        <time>2022-01-14T08:54:37Z</time>
      </trkpt>
      <trkpt lat="44.99351" lon="6.46285">
        <ele>1961.2</ele>
        <time>2022-01-14T08:54:38Z</time>
      </trkpt>
      <trkpt lat="44.99351" lon="6.46284">
        <ele>1961.2</ele>
        <time>2022-01-14T08:54:39Z</time>
      </trkpt>
      <trkpt lat="44.99352" lon="6.46283">
        <ele>1961.2</ele>
        <time>2022-01-14T08:54:40Z</time>
      </trkpt>
      <trkpt lat="44.99352" lon="6.46282">
        <ele>1961.2</ele>
        <time>2022-01-14T08:54:41Z</time>
      </trkpt>
      <trkpt lat="44.99352" lon="6.46281">
        <ele>1961.2</ele>
        <time>2022-01-14T08:54:42Z</time>
      </trkpt>
      <trkpt lat="44.99352" lon="6.46281">
        <ele>1961.2</ele>
        <time>2022-01-14T08:54:43Z</time>
      </trkpt>
      <trkpt lat="44.99352" lon="6.46281">
        <ele>1961.2</ele>
        <time>2022-01-14T08:54:44Z</time>
      </trkpt>
      <trkpt lat="44.99352" lon="6.4628">
        <ele>1961.2</ele>
        <time>2022-01-14T08:54:45Z</time>
      </trkpt>
      <trkpt lat="44.99352" lon="6.46279">
        <ele>1961.2</ele>
        <time>2022-01-14T08:54:46Z</time>
      </trkpt>
      <trkpt lat="44.99352" lon="6.46279">
        <ele>1961.2</ele>
        <time>2022-01-14T08:54:47Z</time>
      </trkpt>
      <trkpt lat="44.99352" lon="6.46279">
        <ele>1961.2</ele>
        <time>2022-01-14T08:54:48Z</time>
      </trkpt>
      <trkpt lat="44.99352" lon="6.46279">
        <ele>1961.2</ele>
        <time>2022-01-14T08:54:49Z</time>
      </trkpt>
      <trkpt lat="44.99352" lon="6.46278">
        <ele>1961.2</ele>
        <time>2022-01-14T08:54:50Z</time>
      </trkpt>
      <trkpt lat="44.99352" lon="6.46279">
        <ele>1961.2</ele>
        <time>2022-01-14T08:54:51Z</time>
      </trkpt>
      <trkpt lat="44.99352" lon="6.46279">
        <ele>1961.2</ele>
        <time>2022-01-14T08:54:52Z</time>
      </trkpt>
      <trkpt lat="44.99352" lon="6.46279">
        <ele>1961.2</ele>
        <time>2022-01-14T08:54:53Z</time>
      </trkpt>
      <trkpt lat="44.99352" lon="6.46279">
        <ele>1961.2</ele>
        <time>2022-01-14T08:54:54Z</time>
      </trkpt>
      <trkpt lat="44.99353" lon="6.46279">
        <ele>1961.2</ele>
        <time>2022-01-14T08:54:55Z</time>
      </trkpt>
      <trkpt lat="44.99353" lon="6.46279">
        <ele>1961.2</ele>
        <time>2022-01-14T08:54:56Z</time>
      </trkpt>
      <trkpt lat="44.99353" lon="6.46279">
        <ele>1961.2</ele>
        <time>2022-01-14T08:54:57Z</time>
      </trkpt>
      <trkpt lat="44.99354" lon="6.46279">
        <ele>1961.2</ele>
        <time>2022-01-14T08:54:58Z</time>
      </trkpt>
      <trkpt lat="44.99354" lon="6.46279">
        <ele>1961.2</ele>
        <time>2022-01-14T08:54:59Z</time>
      </trkpt>
      <trkpt lat="44.99354" lon="6.46279">
        <ele>1961.2</ele>
        <time>2022-01-14T08:55:00Z</time>
      </trkpt>
      <trkpt lat="44.99354" lon="6.46279">
        <ele>1961.2</ele>
        <time>2022-01-14T08:55:01Z</time>
      </trkpt>
      <trkpt lat="44.99355" lon="6.46279">
        <ele>1961.2</ele>
        <time>2022-01-14T08:55:02Z</time>
      </trkpt>
      <trkpt lat="44.99355" lon="6.46279">
        <ele>1961.2</ele>
        <time>2022-01-14T08:55:03Z</time>
      </trkpt>
      <trkpt lat="44.99355" lon="6.46279">
        <ele>1961.2</ele>
        <time>2022-01-14T08:55:04Z</time>
      </trkpt>
      <trkpt lat="44.99355" lon="6.4628">
        <ele>1961.2</ele>
        <time>2022-01-14T08:55:05Z</time>
      </trkpt>
      <trkpt lat="44.99356" lon="6.46279">
        <ele>1961.2</ele>
        <time>2022-01-14T08:55:06Z</time>
      </trkpt>
      <trkpt lat="44.99357" lon="6.46279">
        <ele>1961.2</ele>
        <time>2022-01-14T08:55:07Z</time>
      </trkpt>
      <trkpt lat="44.99357" lon="6.46279">
        <ele>1961.2</ele>
        <time>2022-01-14T08:55:08Z</time>
      </trkpt>
      <trkpt lat="44.99358" lon="6.46278">
        <ele>1957.9</ele>
        <time>2022-01-14T08:55:09Z</time>
      </trkpt>
      <trkpt lat="44.99359" lon="6.46278">
        <ele>1957.9</ele>
        <time>2022-01-14T08:55:10Z</time>
      </trkpt>
      <trkpt lat="44.99359" lon="6.46278">
        <ele>1957.9</ele>
        <time>2022-01-14T08:55:11Z</time>
      </trkpt>
      <trkpt lat="44.99359" lon="6.46278">
        <ele>1957.9</ele>
        <time>2022-01-14T08:55:12Z</time>
      </trkpt>
      <trkpt lat="44.99359" lon="6.46278">
        <ele>1957.9</ele>
        <time>2022-01-14T08:55:13Z</time>
      </trkpt>
      <trkpt lat="44.9936" lon="6.46278">
        <ele>1957.9</ele>
        <time>2022-01-14T08:55:14Z</time>
      </trkpt>
      <trkpt lat="44.9936" lon="6.46278">
        <ele>1957.9</ele>
        <time>2022-01-14T08:55:15Z</time>
      </trkpt>
      <trkpt lat="44.9936" lon="6.46278">
        <ele>1957.9</ele>
        <time>2022-01-14T08:55:16Z</time>
      </trkpt>
      <trkpt lat="44.99361" lon="6.46277">
        <ele>1957.9</ele>
        <time>2022-01-14T08:55:17Z</time>
      </trkpt>
      <trkpt lat="44.99361" lon="6.46278">
        <ele>1957.9</ele>
        <time>2022-01-14T08:55:18Z</time>
      </trkpt>
      <trkpt lat="44.99362" lon="6.46278">
        <ele>1957.9</ele>
        <time>2022-01-14T08:55:19Z</time>
      </trkpt>
      <trkpt lat="44.99362" lon="6.46277">
        <ele>1957.9</ele>
        <time>2022-01-14T08:55:20Z</time>
      </trkpt>
      <trkpt lat="44.99362" lon="6.46276">
        <ele>1957.9</ele>
        <time>2022-01-14T08:55:21Z</time>
      </trkpt>
      <trkpt lat="44.99363" lon="6.46276">
        <ele>1957.9</ele>
        <time>2022-01-14T08:55:23Z</time>
      </trkpt>
      <trkpt lat="44.99364" lon="6.46275">
        <ele>1957.9</ele>
        <time>2022-01-14T08:55:24Z</time>
      </trkpt>
      <trkpt lat="44.99364" lon="6.46274">
        <ele>1957.9</ele>
        <time>2022-01-14T08:55:25Z</time>
      </trkpt>
      <trkpt lat="44.99365" lon="6.46273">
        <ele>1957.9</ele>
        <time>2022-01-14T08:55:26Z</time>
      </trkpt>
      <trkpt lat="44.99365" lon="6.46273">
        <ele>1957.9</ele>
        <time>2022-01-14T08:55:27Z</time>
      </trkpt>
      <trkpt lat="44.99365" lon="6.46273">
        <ele>1957.9</ele>
        <time>2022-01-14T08:55:28Z</time>
      </trkpt>
      <trkpt lat="44.99365" lon="6.46273">
        <ele>1957.9</ele>
        <time>2022-01-14T08:55:29Z</time>
      </trkpt>
      <trkpt lat="44.99366" lon="6.46272">
        <ele>1957.9</ele>
        <time>2022-01-14T08:55:30Z</time>
      </trkpt>
      <trkpt lat="44.99366" lon="6.46273">
        <ele>1957.9</ele>
        <time>2022-01-14T08:55:31Z</time>
      </trkpt>
      <trkpt lat="44.99367" lon="6.46273">
        <ele>1957.9</ele>
        <time>2022-01-14T08:55:32Z</time>
      </trkpt>
      <trkpt lat="44.99368" lon="6.46273">
        <ele>1957.9</ele>
        <time>2022-01-14T08:55:33Z</time>
      </trkpt>
      <trkpt lat="44.99368" lon="6.46273">
        <ele>1957.9</ele>
        <time>2022-01-14T08:55:34Z</time>
      </trkpt>
      <trkpt lat="44.99368" lon="6.46271">
        <ele>1957.9</ele>
        <time>2022-01-14T08:55:35Z</time>
      </trkpt>
      <trkpt lat="44.99369" lon="6.4627">
        <ele>1965.7</ele>
        <time>2022-01-14T08:55:36Z</time>
      </trkpt>
      <trkpt lat="44.9937" lon="6.46269">
        <ele>1965.7</ele>
        <time>2022-01-14T08:55:37Z</time>
      </trkpt>
      <trkpt lat="44.9937" lon="6.46269">
        <ele>1965.7</ele>
        <time>2022-01-14T08:55:38Z</time>
      </trkpt>
      <trkpt lat="44.9937" lon="6.46268">
        <ele>1962.7</ele>
        <time>2022-01-14T08:55:39Z</time>
      </trkpt>
      <trkpt lat="44.99371" lon="6.46267">
        <ele>1962.7</ele>
        <time>2022-01-14T08:55:40Z</time>
      </trkpt>
      <trkpt lat="44.99371" lon="6.46266">
        <ele>1962.7</ele>
        <time>2022-01-14T08:55:41Z</time>
      </trkpt>
      <trkpt lat="44.99372" lon="6.46266">
        <ele>1962.7</ele>
        <time>2022-01-14T08:55:42Z</time>
      </trkpt>
      <trkpt lat="44.99372" lon="6.46265">
        <ele>1962.7</ele>
        <time>2022-01-14T08:55:43Z</time>
      </trkpt>
      <trkpt lat="44.99372" lon="6.46264">
        <ele>1962.7</ele>
        <time>2022-01-14T08:55:44Z</time>
      </trkpt>
      <trkpt lat="44.99372" lon="6.46264">
        <ele>1962.7</ele>
        <time>2022-01-14T08:55:45Z</time>
      </trkpt>
      <trkpt lat="44.99373" lon="6.46264">
        <ele>1962.7</ele>
        <time>2022-01-14T08:55:46Z</time>
      </trkpt>
      <trkpt lat="44.99373" lon="6.46264">
        <ele>1962.7</ele>
        <time>2022-01-14T08:55:47Z</time>
      </trkpt>
      <trkpt lat="44.99374" lon="6.46264">
        <ele>1962.7</ele>
        <time>2022-01-14T08:55:48Z</time>
      </trkpt>
      <trkpt lat="44.99374" lon="6.46264">
        <ele>1962.7</ele>
        <time>2022-01-14T08:55:49Z</time>
      </trkpt>
      <trkpt lat="44.99374" lon="6.46263">
        <ele>1962.7</ele>
        <time>2022-01-14T08:55:50Z</time>
      </trkpt>
      <trkpt lat="44.99374" lon="6.46263">
        <ele>1962.7</ele>
        <time>2022-01-14T08:55:51Z</time>
      </trkpt>
      <trkpt lat="44.99374" lon="6.46263">
        <ele>1962.7</ele>
        <time>2022-01-14T08:55:52Z</time>
      </trkpt>
      <trkpt lat="44.99373" lon="6.46262">
        <ele>1962.7</ele>
        <time>2022-01-14T08:55:53Z</time>
      </trkpt>
      <trkpt lat="44.99373" lon="6.46262">
        <ele>1962.7</ele>
        <time>2022-01-14T08:55:54Z</time>
      </trkpt>
      <trkpt lat="44.99373" lon="6.46261">
        <ele>1962.7</ele>
        <time>2022-01-14T08:55:55Z</time>
      </trkpt>
      <trkpt lat="44.99372" lon="6.46261">
        <ele>1962.7</ele>
        <time>2022-01-14T08:55:56Z</time>
      </trkpt>
      <trkpt lat="44.99372" lon="6.46261">
        <ele>1962.7</ele>
        <time>2022-01-14T08:55:57Z</time>
      </trkpt>
      <trkpt lat="44.99372" lon="6.46261">
        <ele>1962.7</ele>
        <time>2022-01-14T08:55:58Z</time>
      </trkpt>
      <trkpt lat="44.99372" lon="6.4626">
        <ele>1962.7</ele>
        <time>2022-01-14T08:55:59Z</time>
      </trkpt>
      <trkpt lat="44.99371" lon="6.4626">
        <ele>1962.7</ele>
        <time>2022-01-14T08:56:00Z</time>
      </trkpt>
      <trkpt lat="44.9937" lon="6.4626">
        <ele>1962.7</ele>
        <time>2022-01-14T08:56:01Z</time>
      </trkpt>
      <trkpt lat="44.9937" lon="6.46261">
        <ele>1962.7</ele>
        <time>2022-01-14T08:56:02Z</time>
      </trkpt>
      <trkpt lat="44.9937" lon="6.46261">
        <ele>1962.7</ele>
        <time>2022-01-14T08:56:03Z</time>
      </trkpt>
      <trkpt lat="44.9937" lon="6.46261">
        <ele>1965.7</ele>
        <time>2022-01-14T08:56:04Z</time>
      </trkpt>
      <trkpt lat="44.99369" lon="6.4626">
        <ele>1965.7</ele>
        <time>2022-01-14T08:56:05Z</time>
      </trkpt>
      <trkpt lat="44.99369" lon="6.4626">
        <ele>1965.7</ele>
        <time>2022-01-14T08:56:06Z</time>
      </trkpt>
      <trkpt lat="44.99369" lon="6.4626">
        <ele>1965.7</ele>
        <time>2022-01-14T08:56:07Z</time>
      </trkpt>
      <trkpt lat="44.99368" lon="6.46259">
        <ele>1965.7</ele>
        <time>2022-01-14T08:56:08Z</time>
      </trkpt>
      <trkpt lat="44.99368" lon="6.46258">
        <ele>1965.7</ele>
        <time>2022-01-14T08:56:09Z</time>
      </trkpt>
      <trkpt lat="44.99368" lon="6.46257">
        <ele>1965.7</ele>
        <time>2022-01-14T08:56:10Z</time>
      </trkpt>
      <trkpt lat="44.99367" lon="6.46257">
        <ele>1965.7</ele>
        <time>2022-01-14T08:56:11Z</time>
      </trkpt>
      <trkpt lat="44.99367" lon="6.46256">
        <ele>1965.7</ele>
        <time>2022-01-14T08:56:12Z</time>
      </trkpt>
      <trkpt lat="44.99367" lon="6.46256">
        <ele>1965.7</ele>
        <time>2022-01-14T08:56:13Z</time>
      </trkpt>
      <trkpt lat="44.99367" lon="6.46256">
        <ele>1965.7</ele>
        <time>2022-01-14T08:56:14Z</time>
      </trkpt>
      <trkpt lat="44.99366" lon="6.46255">
        <ele>1965.7</ele>
        <time>2022-01-14T08:56:15Z</time>
      </trkpt>
      <trkpt lat="44.99366" lon="6.46254">
        <ele>1965.7</ele>
        <time>2022-01-14T08:56:16Z</time>
      </trkpt>
      <trkpt lat="44.99366" lon="6.46254">
        <ele>1974.2</ele>
        <time>2022-01-14T08:56:17Z</time>
      </trkpt>
      <trkpt lat="44.99366" lon="6.46254">
        <ele>1974.2</ele>
        <time>2022-01-14T08:56:18Z</time>
      </trkpt>
      <trkpt lat="44.99366" lon="6.46253">
        <ele>1974.2</ele>
        <time>2022-01-14T08:56:19Z</time>
      </trkpt>
      <trkpt lat="44.99366" lon="6.46253">
        <ele>1974.2</ele>
        <time>2022-01-14T08:56:20Z</time>
      </trkpt>
      <trkpt lat="44.99366" lon="6.46253">
        <ele>1974.2</ele>
        <time>2022-01-14T08:56:21Z</time>
      </trkpt>
      <trkpt lat="44.99366" lon="6.46252">
        <ele>1974.2</ele>
        <time>2022-01-14T08:56:22Z</time>
      </trkpt>
      <trkpt lat="44.99366" lon="6.46251">
        <ele>1974.2</ele>
        <time>2022-01-14T08:56:23Z</time>
      </trkpt>
      <trkpt lat="44.99365" lon="6.4625">
        <ele>1974.2</ele>
        <time>2022-01-14T08:56:24Z</time>
      </trkpt>
      <trkpt lat="44.99365" lon="6.46249">
        <ele>1974.2</ele>
        <time>2022-01-14T08:56:25Z</time>
      </trkpt>
      <trkpt lat="44.99365" lon="6.46249">
        <ele>1974.2</ele>
        <time>2022-01-14T08:56:26Z</time>
      </trkpt>
      <trkpt lat="44.99364" lon="6.46248">
        <ele>1974.2</ele>
        <time>2022-01-14T08:56:27Z</time>
      </trkpt>
      <trkpt lat="44.99364" lon="6.46247">
        <ele>1974.2</ele>
        <time>2022-01-14T08:56:28Z</time>
      </trkpt>
      <trkpt lat="44.99364" lon="6.46247">
        <ele>1974.2</ele>
        <time>2022-01-14T08:56:29Z</time>
      </trkpt>
      <trkpt lat="44.99363" lon="6.46246">
        <ele>1974.2</ele>
        <time>2022-01-14T08:56:30Z</time>
      </trkpt>
      <trkpt lat="44.99362" lon="6.46246">
        <ele>1974.2</ele>
        <time>2022-01-14T08:56:31Z</time>
      </trkpt>
      <trkpt lat="44.9936" lon="6.46246">
        <ele>1974.2</ele>
        <time>2022-01-14T08:56:32Z</time>
      </trkpt>
      <trkpt lat="44.9936" lon="6.46246">
        <ele>1974.2</ele>
        <time>2022-01-14T08:56:33Z</time>
      </trkpt>
      <trkpt lat="44.99359" lon="6.46246">
        <ele>1974.2</ele>
        <time>2022-01-14T08:56:34Z</time>
      </trkpt>
      <trkpt lat="44.99358" lon="6.46246">
        <ele>1974.2</ele>
        <time>2022-01-14T08:56:35Z</time>
      </trkpt>
      <trkpt lat="44.99358" lon="6.46245">
        <ele>1977.4</ele>
        <time>2022-01-14T08:56:36Z</time>
      </trkpt>
      <trkpt lat="44.99357" lon="6.46245">
        <ele>1977.4</ele>
        <time>2022-01-14T08:56:37Z</time>
      </trkpt>
      <trkpt lat="44.99356" lon="6.46245">
        <ele>1977.4</ele>
        <time>2022-01-14T08:56:38Z</time>
      </trkpt>
      <trkpt lat="44.99353" lon="6.46245">
        <ele>1977.4</ele>
        <time>2022-01-14T08:56:39Z</time>
      </trkpt>
      <trkpt lat="44.99352" lon="6.46245">
        <ele>1977.4</ele>
        <time>2022-01-14T08:56:40Z</time>
      </trkpt>
      <trkpt lat="44.99351" lon="6.46245">
        <ele>1977.4</ele>
        <time>2022-01-14T08:56:41Z</time>
      </trkpt>
      <trkpt lat="44.9935" lon="6.46244">
        <ele>1977.4</ele>
        <time>2022-01-14T08:56:42Z</time>
      </trkpt>
      <trkpt lat="44.9935" lon="6.46244">
        <ele>1977.4</ele>
        <time>2022-01-14T08:56:43Z</time>
      </trkpt>
      <trkpt lat="44.9935" lon="6.46244">
        <ele>1977.4</ele>
        <time>2022-01-14T08:56:44Z</time>
      </trkpt>
      <trkpt lat="44.99349" lon="6.46244">
        <ele>1977.4</ele>
        <time>2022-01-14T08:56:45Z</time>
      </trkpt>
      <trkpt lat="44.99349" lon="6.46242">
        <ele>1977.4</ele>
        <time>2022-01-14T08:56:46Z</time>
      </trkpt>
      <trkpt lat="44.99349" lon="6.46241">
        <ele>1977.4</ele>
        <time>2022-01-14T08:56:47Z</time>
      </trkpt>
      <trkpt lat="44.9935" lon="6.4624">
        <ele>1977.4</ele>
        <time>2022-01-14T08:56:48Z</time>
      </trkpt>
      <trkpt lat="44.99349" lon="6.4624">
        <ele>1977.4</ele>
        <time>2022-01-14T08:56:49Z</time>
      </trkpt>
      <trkpt lat="44.99349" lon="6.4624">
        <ele>1977.4</ele>
        <time>2022-01-14T08:56:50Z</time>
      </trkpt>
      <trkpt lat="44.99348" lon="6.46239">
        <ele>1977.4</ele>
        <time>2022-01-14T08:56:51Z</time>
      </trkpt>
      <trkpt lat="44.99348" lon="6.46238">
        <ele>1977.4</ele>
        <time>2022-01-14T08:56:52Z</time>
      </trkpt>
      <trkpt lat="44.99347" lon="6.46237">
        <ele>1977.4</ele>
        <time>2022-01-14T08:56:53Z</time>
      </trkpt>
      <trkpt lat="44.99346" lon="6.46237">
        <ele>1977.4</ele>
        <time>2022-01-14T08:56:54Z</time>
      </trkpt>
      <trkpt lat="44.99345" lon="6.46236">
        <ele>1988.1</ele>
        <time>2022-01-14T08:56:55Z</time>
      </trkpt>
      <trkpt lat="44.99344" lon="6.46236">
        <ele>1988.1</ele>
        <time>2022-01-14T08:56:56Z</time>
      </trkpt>
      <trkpt lat="44.99343" lon="6.46236">
        <ele>1988.1</ele>
        <time>2022-01-14T08:56:57Z</time>
      </trkpt>
      <trkpt lat="44.99343" lon="6.46236">
        <ele>1988.1</ele>
        <time>2022-01-14T08:56:58Z</time>
      </trkpt>
      <trkpt lat="44.99343" lon="6.46237">
        <ele>1980.3</ele>
        <time>2022-01-14T08:56:59Z</time>
      </trkpt>
      <trkpt lat="44.99343" lon="6.46237">
        <ele>1980.3</ele>
        <time>2022-01-14T08:57:00Z</time>
      </trkpt>
      <trkpt lat="44.99343" lon="6.46237">
        <ele>1980.3</ele>
        <time>2022-01-14T08:57:01Z</time>
      </trkpt>
      <trkpt lat="44.99343" lon="6.46237">
        <ele>1980.3</ele>
        <time>2022-01-14T08:57:02Z</time>
      </trkpt>
      <trkpt lat="44.99343" lon="6.46237">
        <ele>1980.3</ele>
        <time>2022-01-14T08:57:03Z</time>
      </trkpt>
      <trkpt lat="44.99343" lon="6.46236">
        <ele>1988.1</ele>
        <time>2022-01-14T08:57:04Z</time>
      </trkpt>
      <trkpt lat="44.99344" lon="6.46236">
        <ele>1988.1</ele>
        <time>2022-01-14T08:57:05Z</time>
      </trkpt>
      <trkpt lat="44.99344" lon="6.46238">
        <ele>1980.3</ele>
        <time>2022-01-14T08:57:06Z</time>
      </trkpt>
      <trkpt lat="44.99344" lon="6.46237">
        <ele>1980.3</ele>
        <time>2022-01-14T08:57:07Z</time>
      </trkpt>
      <trkpt lat="44.99344" lon="6.46236">
        <ele>1988.1</ele>
        <time>2022-01-14T08:57:08Z</time>
      </trkpt>
      <trkpt lat="44.99344" lon="6.46236">
        <ele>1988.1</ele>
        <time>2022-01-14T08:57:09Z</time>
      </trkpt>
      <trkpt lat="44.99344" lon="6.46237">
        <ele>1980.3</ele>
        <time>2022-01-14T08:57:10Z</time>
      </trkpt>
      <trkpt lat="44.99344" lon="6.46237">
        <ele>1980.3</ele>
        <time>2022-01-14T08:57:11Z</time>
      </trkpt>
      <trkpt lat="44.99345" lon="6.46237">
        <ele>1980.3</ele>
        <time>2022-01-14T08:57:12Z</time>
      </trkpt>
      <trkpt lat="44.99344" lon="6.46237">
        <ele>1980.3</ele>
        <time>2022-01-14T08:57:13Z</time>
      </trkpt>
      <trkpt lat="44.99344" lon="6.46236">
        <ele>1988.1</ele>
        <time>2022-01-14T08:57:14Z</time>
      </trkpt>
      <trkpt lat="44.99343" lon="6.46236">
        <ele>1988.1</ele>
        <time>2022-01-14T08:57:15Z</time>
      </trkpt>
      <trkpt lat="44.99342" lon="6.46235">
        <ele>1988.1</ele>
        <time>2022-01-14T08:57:16Z</time>
      </trkpt>
      <trkpt lat="44.99341" lon="6.46236">
        <ele>1988.1</ele>
        <time>2022-01-14T08:57:17Z</time>
      </trkpt>
      <trkpt lat="44.9934" lon="6.46235">
        <ele>1988.1</ele>
        <time>2022-01-14T08:57:18Z</time>
      </trkpt>
      <trkpt lat="44.9934" lon="6.46235">
        <ele>1988.1</ele>
        <time>2022-01-14T08:57:19Z</time>
      </trkpt>
      <trkpt lat="44.99339" lon="6.46235">
        <ele>1988.1</ele>
        <time>2022-01-14T08:57:20Z</time>
      </trkpt>
      <trkpt lat="44.9934" lon="6.46234">
        <ele>1988.1</ele>
        <time>2022-01-14T08:57:21Z</time>
      </trkpt>
      <trkpt lat="44.9934" lon="6.46233">
        <ele>1988.1</ele>
        <time>2022-01-14T08:57:22Z</time>
      </trkpt>
      <trkpt lat="44.9934" lon="6.46233">
        <ele>1988.1</ele>
        <time>2022-01-14T08:57:23Z</time>
      </trkpt>
      <trkpt lat="44.9934" lon="6.46233">
        <ele>1988.1</ele>
        <time>2022-01-14T08:57:24Z</time>
      </trkpt>
      <trkpt lat="44.99339" lon="6.46232">
        <ele>1988.1</ele>
        <time>2022-01-14T08:57:25Z</time>
      </trkpt>
      <trkpt lat="44.99339" lon="6.46232">
        <ele>1988.1</ele>
        <time>2022-01-14T08:57:26Z</time>
      </trkpt>
      <trkpt lat="44.99339" lon="6.46232">
        <ele>1988.1</ele>
        <time>2022-01-14T08:57:27Z</time>
      </trkpt>
      <trkpt lat="44.99339" lon="6.46231">
        <ele>1988.1</ele>
        <time>2022-01-14T08:57:28Z</time>
      </trkpt>
      <trkpt lat="44.99339" lon="6.46229">
        <ele>1988.1</ele>
        <time>2022-01-14T08:57:29Z</time>
      </trkpt>
      <trkpt lat="44.99339" lon="6.46229">
        <ele>1988.1</ele>
        <time>2022-01-14T08:57:30Z</time>
      </trkpt>
      <trkpt lat="44.99339" lon="6.46229">
        <ele>1988.1</ele>
        <time>2022-01-14T08:57:31Z</time>
      </trkpt>
      <trkpt lat="44.99339" lon="6.46229">
        <ele>1988.1</ele>
        <time>2022-01-14T08:57:32Z</time>
      </trkpt>
      <trkpt lat="44.99338" lon="6.46228">
        <ele>1988.1</ele>
        <time>2022-01-14T08:57:33Z</time>
      </trkpt>
      <trkpt lat="44.99338" lon="6.46228">
        <ele>1988.1</ele>
        <time>2022-01-14T08:57:34Z</time>
      </trkpt>
      <trkpt lat="44.99338" lon="6.46229">
        <ele>1988.1</ele>
        <time>2022-01-14T08:57:35Z</time>
      </trkpt>
      <trkpt lat="44.99337" lon="6.46228">
        <ele>1988.1</ele>
        <time>2022-01-14T08:57:36Z</time>
      </trkpt>
      <trkpt lat="44.99337" lon="6.46227">
        <ele>1988.1</ele>
        <time>2022-01-14T08:57:37Z</time>
      </trkpt>
      <trkpt lat="44.99337" lon="6.46227">
        <ele>1988.1</ele>
        <time>2022-01-14T08:57:38Z</time>
      </trkpt>
      <trkpt lat="44.99337" lon="6.46226">
        <ele>1988.1</ele>
        <time>2022-01-14T08:57:39Z</time>
      </trkpt>
      <trkpt lat="44.99336" lon="6.46225">
        <ele>1988.1</ele>
        <time>2022-01-14T08:57:40Z</time>
      </trkpt>
      <trkpt lat="44.99336" lon="6.46225">
        <ele>1988.1</ele>
        <time>2022-01-14T08:57:41Z</time>
      </trkpt>
      <trkpt lat="44.99336" lon="6.46224">
        <ele>1988.1</ele>
        <time>2022-01-14T08:57:42Z</time>
      </trkpt>
      <trkpt lat="44.99335" lon="6.46224">
        <ele>1988.1</ele>
        <time>2022-01-14T08:57:43Z</time>
      </trkpt>
      <trkpt lat="44.99335" lon="6.46223">
        <ele>1988.1</ele>
        <time>2022-01-14T08:57:44Z</time>
      </trkpt>
      <trkpt lat="44.99335" lon="6.46223">
        <ele>1988.1</ele>
        <time>2022-01-14T08:57:45Z</time>
      </trkpt>
      <trkpt lat="44.99335" lon="6.46222">
        <ele>1988.1</ele>
        <time>2022-01-14T08:57:46Z</time>
      </trkpt>
      <trkpt lat="44.99335" lon="6.46222">
        <ele>1988.1</ele>
        <time>2022-01-14T08:57:47Z</time>
      </trkpt>
      <trkpt lat="44.99335" lon="6.46222">
        <ele>1988.1</ele>
        <time>2022-01-14T08:57:48Z</time>
      </trkpt>
      <trkpt lat="44.99335" lon="6.46222">
        <ele>1988.1</ele>
        <time>2022-01-14T08:57:49Z</time>
      </trkpt>
      <trkpt lat="44.99335" lon="6.46222">
        <ele>1988.1</ele>
        <time>2022-01-14T08:57:50Z</time>
      </trkpt>
      <trkpt lat="44.99335" lon="6.46222">
        <ele>1988.1</ele>
        <time>2022-01-14T08:57:51Z</time>
      </trkpt>
      <trkpt lat="44.99335" lon="6.46222">
        <ele>1988.1</ele>
        <time>2022-01-14T08:57:52Z</time>
      </trkpt>
      <trkpt lat="44.99336" lon="6.46223">
        <ele>1988.1</ele>
        <time>2022-01-14T08:57:53Z</time>
      </trkpt>
      <trkpt lat="44.99336" lon="6.46222">
        <ele>1988.1</ele>
        <time>2022-01-14T08:57:54Z</time>
      </trkpt>
      <trkpt lat="44.99337" lon="6.46222">
        <ele>1988.1</ele>
        <time>2022-01-14T08:57:55Z</time>
      </trkpt>
      <trkpt lat="44.99338" lon="6.46221">
        <ele>1988.1</ele>
        <time>2022-01-14T08:57:56Z</time>
      </trkpt>
      <trkpt lat="44.99338" lon="6.4622">
        <ele>1988.1</ele>
        <time>2022-01-14T08:57:57Z</time>
      </trkpt>
      <trkpt lat="44.99338" lon="6.4622">
        <ele>1988.1</ele>
        <time>2022-01-14T08:57:58Z</time>
      </trkpt>
      <trkpt lat="44.99337" lon="6.4622">
        <ele>1988.1</ele>
        <time>2022-01-14T08:57:59Z</time>
      </trkpt>
      <trkpt lat="44.99338" lon="6.4622">
        <ele>1988.1</ele>
        <time>2022-01-14T08:58:00Z</time>
      </trkpt>
      <trkpt lat="44.99338" lon="6.4622">
        <ele>1988.1</ele>
        <time>2022-01-14T08:58:01Z</time>
      </trkpt>
      <trkpt lat="44.99338" lon="6.46221">
        <ele>1988.1</ele>
        <time>2022-01-14T08:58:02Z</time>
      </trkpt>
      <trkpt lat="44.99338" lon="6.46221">
        <ele>1988.1</ele>
        <time>2022-01-14T08:58:03Z</time>
      </trkpt>
      <trkpt lat="44.99337" lon="6.46221">
        <ele>1988.1</ele>
        <time>2022-01-14T08:58:04Z</time>
      </trkpt>
      <trkpt lat="44.99336" lon="6.4622">
        <ele>1988.1</ele>
        <time>2022-01-14T08:58:05Z</time>
      </trkpt>
      <trkpt lat="44.99336" lon="6.46221">
        <ele>1988.1</ele>
        <time>2022-01-14T08:58:06Z</time>
      </trkpt>
      <trkpt lat="44.99336" lon="6.46221">
        <ele>1988.1</ele>
        <time>2022-01-14T08:58:07Z</time>
      </trkpt>
      <trkpt lat="44.99336" lon="6.46221">
        <ele>1988.1</ele>
        <time>2022-01-14T08:58:08Z</time>
      </trkpt>
      <trkpt lat="44.99336" lon="6.4622">
        <ele>1988.1</ele>
        <time>2022-01-14T08:58:09Z</time>
      </trkpt>
      <trkpt lat="44.99336" lon="6.4622">
        <ele>1988.1</ele>
        <time>2022-01-14T08:58:10Z</time>
      </trkpt>
      <trkpt lat="44.99337" lon="6.4622">
        <ele>1988.1</ele>
        <time>2022-01-14T08:58:11Z</time>
      </trkpt>
      <trkpt lat="44.99337" lon="6.4622">
        <ele>1988.1</ele>
        <time>2022-01-14T08:58:12Z</time>
      </trkpt>
      <trkpt lat="44.99337" lon="6.4622">
        <ele>1988.1</ele>
        <time>2022-01-14T08:58:13Z</time>
      </trkpt>
      <trkpt lat="44.99337" lon="6.4622">
        <ele>1988.1</ele>
        <time>2022-01-14T08:58:14Z</time>
      </trkpt>
      <trkpt lat="44.99338" lon="6.4622">
        <ele>1988.1</ele>
        <time>2022-01-14T08:58:15Z</time>
      </trkpt>
      <trkpt lat="44.99338" lon="6.4622">
        <ele>1988.1</ele>
        <time>2022-01-14T08:58:16Z</time>
      </trkpt>
      <trkpt lat="44.99338" lon="6.46218">
        <ele>1997</ele>
        <time>2022-01-14T08:58:17Z</time>
      </trkpt>
      <trkpt lat="44.99338" lon="6.46218">
        <ele>1997</ele>
        <time>2022-01-14T08:58:18Z</time>
      </trkpt>
      <trkpt lat="44.99338" lon="6.46218">
        <ele>1997</ele>
        <time>2022-01-14T08:58:19Z</time>
      </trkpt>
      <trkpt lat="44.99338" lon="6.46217">
        <ele>1997</ele>
        <time>2022-01-14T08:58:20Z</time>
      </trkpt>
      <trkpt lat="44.99338" lon="6.46217">
        <ele>1997</ele>
        <time>2022-01-14T08:58:21Z</time>
      </trkpt>
      <trkpt lat="44.99339" lon="6.46216">
        <ele>1997</ele>
        <time>2022-01-14T08:58:22Z</time>
      </trkpt>
      <trkpt lat="44.9934" lon="6.46215">
        <ele>1997</ele>
        <time>2022-01-14T08:58:23Z</time>
      </trkpt>
      <trkpt lat="44.9934" lon="6.46214">
        <ele>1997</ele>
        <time>2022-01-14T08:58:24Z</time>
      </trkpt>
      <trkpt lat="44.9934" lon="6.46213">
        <ele>1997</ele>
        <time>2022-01-14T08:58:25Z</time>
      </trkpt>
      <trkpt lat="44.99341" lon="6.46213">
        <ele>1997</ele>
        <time>2022-01-14T08:58:26Z</time>
      </trkpt>
      <trkpt lat="44.99341" lon="6.46213">
        <ele>1997</ele>
        <time>2022-01-14T08:58:27Z</time>
      </trkpt>
      <trkpt lat="44.99342" lon="6.46211">
        <ele>1997</ele>
        <time>2022-01-14T08:58:28Z</time>
      </trkpt>
      <trkpt lat="44.99343" lon="6.4621">
        <ele>1997</ele>
        <time>2022-01-14T08:58:29Z</time>
      </trkpt>
      <trkpt lat="44.99343" lon="6.46209">
        <ele>1997</ele>
        <time>2022-01-14T08:58:30Z</time>
      </trkpt>
      <trkpt lat="44.99344" lon="6.46209">
        <ele>1997</ele>
        <time>2022-01-14T08:58:31Z</time>
      </trkpt>
      <trkpt lat="44.99344" lon="6.46209">
        <ele>1997</ele>
        <time>2022-01-14T08:58:32Z</time>
      </trkpt>
      <trkpt lat="44.99345" lon="6.46209">
        <ele>1997</ele>
        <time>2022-01-14T08:58:33Z</time>
      </trkpt>
      <trkpt lat="44.99344" lon="6.46208">
        <ele>1997</ele>
        <time>2022-01-14T08:58:34Z</time>
      </trkpt>
      <trkpt lat="44.99344" lon="6.46208">
        <ele>1997</ele>
        <time>2022-01-14T08:58:35Z</time>
      </trkpt>
      <trkpt lat="44.99345" lon="6.46207">
        <ele>1997</ele>
        <time>2022-01-14T08:58:36Z</time>
      </trkpt>
      <trkpt lat="44.99345" lon="6.46206">
        <ele>1997</ele>
        <time>2022-01-14T08:58:37Z</time>
      </trkpt>
      <trkpt lat="44.99345" lon="6.46206">
        <ele>1997</ele>
        <time>2022-01-14T08:58:38Z</time>
      </trkpt>
      <trkpt lat="44.99346" lon="6.46204">
        <ele>1994</ele>
        <time>2022-01-14T08:58:39Z</time>
      </trkpt>
      <trkpt lat="44.99346" lon="6.46203">
        <ele>1994</ele>
        <time>2022-01-14T08:58:40Z</time>
      </trkpt>
      <trkpt lat="44.99347" lon="6.46201">
        <ele>2002.6</ele>
        <time>2022-01-14T08:58:41Z</time>
      </trkpt>
      <trkpt lat="44.99347" lon="6.46201">
        <ele>2002.6</ele>
        <time>2022-01-14T08:58:42Z</time>
      </trkpt>
      <trkpt lat="44.99347" lon="6.462">
        <ele>2002.6</ele>
        <time>2022-01-14T08:58:43Z</time>
      </trkpt>
      <trkpt lat="44.99347" lon="6.46199">
        <ele>2002.6</ele>
        <time>2022-01-14T08:58:44Z</time>
      </trkpt>
      <trkpt lat="44.99347" lon="6.46199">
        <ele>2002.6</ele>
        <time>2022-01-14T08:58:45Z</time>
      </trkpt>
      <trkpt lat="44.99347" lon="6.46198">
        <ele>2002.6</ele>
        <time>2022-01-14T08:58:46Z</time>
      </trkpt>
      <trkpt lat="44.99347" lon="6.46197">
        <ele>2002.6</ele>
        <time>2022-01-14T08:58:47Z</time>
      </trkpt>
      <trkpt lat="44.99347" lon="6.46197">
        <ele>2002.6</ele>
        <time>2022-01-14T08:58:48Z</time>
      </trkpt>
      <trkpt lat="44.99347" lon="6.46197">
        <ele>2002.6</ele>
        <time>2022-01-14T08:58:49Z</time>
      </trkpt>
      <trkpt lat="44.99347" lon="6.46196">
        <ele>2002.6</ele>
        <time>2022-01-14T08:58:50Z</time>
      </trkpt>
      <trkpt lat="44.99347" lon="6.46196">
        <ele>2002.6</ele>
        <time>2022-01-14T08:58:51Z</time>
      </trkpt>
      <trkpt lat="44.99347" lon="6.46195">
        <ele>2002.6</ele>
        <time>2022-01-14T08:58:52Z</time>
      </trkpt>
      <trkpt lat="44.99346" lon="6.46194">
        <ele>2002.6</ele>
        <time>2022-01-14T08:58:53Z</time>
      </trkpt>
      <trkpt lat="44.99346" lon="6.46192">
        <ele>2002.6</ele>
        <time>2022-01-14T08:58:54Z</time>
      </trkpt>
      <trkpt lat="44.99346" lon="6.46191">
        <ele>2002.6</ele>
        <time>2022-01-14T08:58:55Z</time>
      </trkpt>
      <trkpt lat="44.99346" lon="6.46189">
        <ele>2002.6</ele>
        <time>2022-01-14T08:58:56Z</time>
      </trkpt>
      <trkpt lat="44.99346" lon="6.46189">
        <ele>2002.6</ele>
        <time>2022-01-14T08:58:57Z</time>
      </trkpt>
      <trkpt lat="44.99346" lon="6.46189">
        <ele>2002.6</ele>
        <time>2022-01-14T08:58:58Z</time>
      </trkpt>
      <trkpt lat="44.99346" lon="6.46189">
        <ele>2002.6</ele>
        <time>2022-01-14T08:58:59Z</time>
      </trkpt>
      <trkpt lat="44.99346" lon="6.46189">
        <ele>2002.6</ele>
        <time>2022-01-14T08:59:00Z</time>
      </trkpt>
      <trkpt lat="44.99345" lon="6.4619">
        <ele>2005.9</ele>
        <time>2022-01-14T08:59:01Z</time>
      </trkpt>
      <trkpt lat="44.99345" lon="6.4619">
        <ele>2005.9</ele>
        <time>2022-01-14T08:59:02Z</time>
      </trkpt>
      <trkpt lat="44.99345" lon="6.46189">
        <ele>2005.9</ele>
        <time>2022-01-14T08:59:03Z</time>
      </trkpt>
      <trkpt lat="44.99344" lon="6.46188">
        <ele>2005.9</ele>
        <time>2022-01-14T08:59:04Z</time>
      </trkpt>
      <trkpt lat="44.99343" lon="6.46187">
        <ele>2005.9</ele>
        <time>2022-01-14T08:59:05Z</time>
      </trkpt>
      <trkpt lat="44.99343" lon="6.46187">
        <ele>2005.9</ele>
        <time>2022-01-14T08:59:06Z</time>
      </trkpt>
      <trkpt lat="44.99342" lon="6.46186">
        <ele>2005.9</ele>
        <time>2022-01-14T08:59:07Z</time>
      </trkpt>
      <trkpt lat="44.99342" lon="6.46186">
        <ele>2005.9</ele>
        <time>2022-01-14T08:59:08Z</time>
      </trkpt>
      <trkpt lat="44.99342" lon="6.46186">
        <ele>2005.9</ele>
        <time>2022-01-14T08:59:09Z</time>
      </trkpt>
      <trkpt lat="44.99342" lon="6.46185">
        <ele>2005.9</ele>
        <time>2022-01-14T08:59:10Z</time>
      </trkpt>
      <trkpt lat="44.99342" lon="6.46185">
        <ele>2014.9</ele>
        <time>2022-01-14T08:59:11Z</time>
      </trkpt>
      <trkpt lat="44.99342" lon="6.46185">
        <ele>2014.9</ele>
        <time>2022-01-14T08:59:12Z</time>
      </trkpt>
      <trkpt lat="44.99342" lon="6.46185">
        <ele>2005.9</ele>
        <time>2022-01-14T08:59:13Z</time>
      </trkpt>
      <trkpt lat="44.99342" lon="6.46185">
        <ele>2005.9</ele>
        <time>2022-01-14T08:59:14Z</time>
      </trkpt>
      <trkpt lat="44.99342" lon="6.46184">
        <ele>2014.9</ele>
        <time>2022-01-14T08:59:15Z</time>
      </trkpt>
      <trkpt lat="44.99342" lon="6.46181">
        <ele>2014.9</ele>
        <time>2022-01-14T08:59:16Z</time>
      </trkpt>
      <trkpt lat="44.99342" lon="6.4618">
        <ele>2014.9</ele>
        <time>2022-01-14T08:59:17Z</time>
      </trkpt>
      <trkpt lat="44.99343" lon="6.46179">
        <ele>2014.9</ele>
        <time>2022-01-14T08:59:18Z</time>
      </trkpt>
      <trkpt lat="44.99343" lon="6.4618">
        <ele>2014.9</ele>
        <time>2022-01-14T08:59:19Z</time>
      </trkpt>
      <trkpt lat="44.99342" lon="6.46179">
        <ele>2014.9</ele>
        <time>2022-01-14T08:59:20Z</time>
      </trkpt>
      <trkpt lat="44.99342" lon="6.46179">
        <ele>2014.9</ele>
        <time>2022-01-14T08:59:21Z</time>
      </trkpt>
      <trkpt lat="44.99342" lon="6.46178">
        <ele>2014.9</ele>
        <time>2022-01-14T08:59:22Z</time>
      </trkpt>
      <trkpt lat="44.99342" lon="6.46178">
        <ele>2014.9</ele>
        <time>2022-01-14T08:59:23Z</time>
      </trkpt>
      <trkpt lat="44.9934" lon="6.46178">
        <ele>2014.9</ele>
        <time>2022-01-14T08:59:24Z</time>
      </trkpt>
      <trkpt lat="44.99341" lon="6.46178">
        <ele>2014.9</ele>
        <time>2022-01-14T08:59:25Z</time>
      </trkpt>
      <trkpt lat="44.9934" lon="6.46178">
        <ele>2014.9</ele>
        <time>2022-01-14T08:59:26Z</time>
      </trkpt>
      <trkpt lat="44.9934" lon="6.46177">
        <ele>2014.9</ele>
        <time>2022-01-14T08:59:27Z</time>
      </trkpt>
      <trkpt lat="44.99341" lon="6.46178">
        <ele>2014.9</ele>
        <time>2022-01-14T08:59:28Z</time>
      </trkpt>
      <trkpt lat="44.99341" lon="6.46178">
        <ele>2014.9</ele>
        <time>2022-01-14T08:59:29Z</time>
      </trkpt>
      <trkpt lat="44.99341" lon="6.46178">
        <ele>2014.9</ele>
        <time>2022-01-14T08:59:30Z</time>
      </trkpt>
      <trkpt lat="44.9934" lon="6.46178">
        <ele>2014.9</ele>
        <time>2022-01-14T08:59:31Z</time>
      </trkpt>
      <trkpt lat="44.9934" lon="6.46178">
        <ele>2014.9</ele>
        <time>2022-01-14T08:59:32Z</time>
      </trkpt>
      <trkpt lat="44.9934" lon="6.46177">
        <ele>2014.9</ele>
        <time>2022-01-14T08:59:33Z</time>
      </trkpt>
      <trkpt lat="44.99339" lon="6.46178">
        <ele>2014.9</ele>
        <time>2022-01-14T08:59:34Z</time>
      </trkpt>
      <trkpt lat="44.99339" lon="6.46178">
        <ele>2014.9</ele>
        <time>2022-01-14T08:59:35Z</time>
      </trkpt>
      <trkpt lat="44.99338" lon="6.46177">
        <ele>2014.9</ele>
        <time>2022-01-14T08:59:36Z</time>
      </trkpt>
      <trkpt lat="44.99339" lon="6.46176">
        <ele>2014.9</ele>
        <time>2022-01-14T08:59:37Z</time>
      </trkpt>
      <trkpt lat="44.99339" lon="6.46175">
        <ele>2014.9</ele>
        <time>2022-01-14T08:59:38Z</time>
      </trkpt>
      <trkpt lat="44.99338" lon="6.46174">
        <ele>2014.9</ele>
        <time>2022-01-14T08:59:39Z</time>
      </trkpt>
      <trkpt lat="44.99338" lon="6.46174">
        <ele>2014.9</ele>
        <time>2022-01-14T08:59:40Z</time>
      </trkpt>
      <trkpt lat="44.99338" lon="6.46173">
        <ele>2014.9</ele>
        <time>2022-01-14T08:59:41Z</time>
      </trkpt>
      <trkpt lat="44.99338" lon="6.46171">
        <ele>2014.9</ele>
        <time>2022-01-14T08:59:42Z</time>
      </trkpt>
      <trkpt lat="44.99337" lon="6.46171">
        <ele>2014.9</ele>
        <time>2022-01-14T08:59:43Z</time>
      </trkpt>
      <trkpt lat="44.99337" lon="6.46171">
        <ele>2014.9</ele>
        <time>2022-01-14T08:59:44Z</time>
      </trkpt>
      <trkpt lat="44.99337" lon="6.46171">
        <ele>2014.9</ele>
        <time>2022-01-14T08:59:45Z</time>
      </trkpt>
      <trkpt lat="44.99337" lon="6.46171">
        <ele>2014.9</ele>
        <time>2022-01-14T08:59:46Z</time>
      </trkpt>
      <trkpt lat="44.99337" lon="6.46171">
        <ele>2014.9</ele>
        <time>2022-01-14T08:59:47Z</time>
      </trkpt>
      <trkpt lat="44.99337" lon="6.4617">
        <ele>2014.9</ele>
        <time>2022-01-14T08:59:48Z</time>
      </trkpt>
      <trkpt lat="44.99337" lon="6.4617">
        <ele>2014.9</ele>
        <time>2022-01-14T08:59:49Z</time>
      </trkpt>
      <trkpt lat="44.99337" lon="6.46169">
        <ele>2014.9</ele>
        <time>2022-01-14T08:59:50Z</time>
      </trkpt>
      <trkpt lat="44.99337" lon="6.46169">
        <ele>2014.9</ele>
        <time>2022-01-14T08:59:51Z</time>
      </trkpt>
      <trkpt lat="44.99336" lon="6.46168">
        <ele>2014.9</ele>
        <time>2022-01-14T08:59:52Z</time>
      </trkpt>
      <trkpt lat="44.99336" lon="6.46168">
        <ele>2024.6</ele>
        <time>2022-01-14T08:59:53Z</time>
      </trkpt>
      <trkpt lat="44.99336" lon="6.46167">
        <ele>2024.6</ele>
        <time>2022-01-14T08:59:54Z</time>
      </trkpt>
      <trkpt lat="44.99336" lon="6.46167">
        <ele>2024.6</ele>
        <time>2022-01-14T08:59:55Z</time>
      </trkpt>
      <trkpt lat="44.99336" lon="6.46166">
        <ele>2024.6</ele>
        <time>2022-01-14T08:59:56Z</time>
      </trkpt>
      <trkpt lat="44.99336" lon="6.46166">
        <ele>2024.6</ele>
        <time>2022-01-14T08:59:57Z</time>
      </trkpt>
      <trkpt lat="44.99336" lon="6.46166">
        <ele>2024.6</ele>
        <time>2022-01-14T08:59:58Z</time>
      </trkpt>
      <trkpt lat="44.99335" lon="6.46164">
        <ele>2024.6</ele>
        <time>2022-01-14T08:59:59Z</time>
      </trkpt>
      <trkpt lat="44.99334" lon="6.46164">
        <ele>2024.6</ele>
        <time>2022-01-14T09:00:00Z</time>
      </trkpt>
      <trkpt lat="44.99334" lon="6.46165">
        <ele>2024.6</ele>
        <time>2022-01-14T09:00:01Z</time>
      </trkpt>
      <trkpt lat="44.99334" lon="6.46164">
        <ele>2024.6</ele>
        <time>2022-01-14T09:00:02Z</time>
      </trkpt>
      <trkpt lat="44.99333" lon="6.46164">
        <ele>2028</ele>
        <time>2022-01-14T09:00:03Z</time>
      </trkpt>
      <trkpt lat="44.99333" lon="6.46164">
        <ele>2028</ele>
        <time>2022-01-14T09:00:04Z</time>
      </trkpt>
      <trkpt lat="44.99331" lon="6.46164">
        <ele>2028</ele>
        <time>2022-01-14T09:00:05Z</time>
      </trkpt>
      <trkpt lat="44.99332" lon="6.46164">
        <ele>2028</ele>
        <time>2022-01-14T09:00:06Z</time>
      </trkpt>
      <trkpt lat="44.99331" lon="6.46164">
        <ele>2028</ele>
        <time>2022-01-14T09:00:07Z</time>
      </trkpt>
      <trkpt lat="44.99331" lon="6.46164">
        <ele>2028</ele>
        <time>2022-01-14T09:00:08Z</time>
      </trkpt>
      <trkpt lat="44.9933" lon="6.46164">
        <ele>2028</ele>
        <time>2022-01-14T09:00:09Z</time>
      </trkpt>
      <trkpt lat="44.9933" lon="6.46164">
        <ele>2028</ele>
        <time>2022-01-14T09:00:10Z</time>
      </trkpt>
      <trkpt lat="44.9933" lon="6.46164">
        <ele>2028</ele>
        <time>2022-01-14T09:00:11Z</time>
      </trkpt>
      <trkpt lat="44.99329" lon="6.46165">
        <ele>2028</ele>
        <time>2022-01-14T09:00:12Z</time>
      </trkpt>
      <trkpt lat="44.99328" lon="6.46165">
        <ele>2028</ele>
        <time>2022-01-14T09:00:13Z</time>
      </trkpt>
      <trkpt lat="44.99328" lon="6.46164">
        <ele>2028</ele>
        <time>2022-01-14T09:00:14Z</time>
      </trkpt>
      <trkpt lat="44.99327" lon="6.46164">
        <ele>2028</ele>
        <time>2022-01-14T09:00:15Z</time>
      </trkpt>
      <trkpt lat="44.99327" lon="6.46163">
        <ele>2028</ele>
        <time>2022-01-14T09:00:16Z</time>
      </trkpt>
      <trkpt lat="44.99325" lon="6.46162">
        <ele>2028</ele>
        <time>2022-01-14T09:00:17Z</time>
      </trkpt>
      <trkpt lat="44.99325" lon="6.46162">
        <ele>2028</ele>
        <time>2022-01-14T09:00:18Z</time>
      </trkpt>
      <trkpt lat="44.99324" lon="6.46162">
        <ele>2028</ele>
        <time>2022-01-14T09:00:19Z</time>
      </trkpt>
      <trkpt lat="44.99323" lon="6.46162">
        <ele>2028</ele>
        <time>2022-01-14T09:00:20Z</time>
      </trkpt>
      <trkpt lat="44.99322" lon="6.46162">
        <ele>2028</ele>
        <time>2022-01-14T09:00:21Z</time>
      </trkpt>
      <trkpt lat="44.99322" lon="6.46163">
        <ele>2028</ele>
        <time>2022-01-14T09:00:22Z</time>
      </trkpt>
      <trkpt lat="44.99321" lon="6.46162">
        <ele>2030.4</ele>
        <time>2022-01-14T09:00:23Z</time>
      </trkpt>
      <trkpt lat="44.9932" lon="6.46162">
        <ele>2030.4</ele>
        <time>2022-01-14T09:00:24Z</time>
      </trkpt>
      <trkpt lat="44.9932" lon="6.46161">
        <ele>2030.4</ele>
        <time>2022-01-14T09:00:25Z</time>
      </trkpt>
      <trkpt lat="44.99319" lon="6.46161">
        <ele>2030.4</ele>
        <time>2022-01-14T09:00:26Z</time>
      </trkpt>
      <trkpt lat="44.99319" lon="6.46162">
        <ele>2030.4</ele>
        <time>2022-01-14T09:00:27Z</time>
      </trkpt>
      <trkpt lat="44.99318" lon="6.46162">
        <ele>2030.4</ele>
        <time>2022-01-14T09:00:28Z</time>
      </trkpt>
      <trkpt lat="44.99318" lon="6.46161">
        <ele>2030.4</ele>
        <time>2022-01-14T09:00:29Z</time>
      </trkpt>
      <trkpt lat="44.99317" lon="6.46161">
        <ele>2030.4</ele>
        <time>2022-01-14T09:00:30Z</time>
      </trkpt>
      <trkpt lat="44.99317" lon="6.4616">
        <ele>2030.4</ele>
        <time>2022-01-14T09:00:31Z</time>
      </trkpt>
      <trkpt lat="44.99316" lon="6.4616">
        <ele>2030.4</ele>
        <time>2022-01-14T09:00:32Z</time>
      </trkpt>
      <trkpt lat="44.99316" lon="6.46159">
        <ele>2030.4</ele>
        <time>2022-01-14T09:00:33Z</time>
      </trkpt>
      <trkpt lat="44.99316" lon="6.46159">
        <ele>2030.4</ele>
        <time>2022-01-14T09:00:34Z</time>
      </trkpt>
      <trkpt lat="44.99315" lon="6.46158">
        <ele>2030.4</ele>
        <time>2022-01-14T09:00:35Z</time>
      </trkpt>
      <trkpt lat="44.99314" lon="6.46157">
        <ele>2030.4</ele>
        <time>2022-01-14T09:00:36Z</time>
      </trkpt>
      <trkpt lat="44.99313" lon="6.46157">
        <ele>2030.4</ele>
        <time>2022-01-14T09:00:37Z</time>
      </trkpt>
      <trkpt lat="44.99311" lon="6.46156">
        <ele>2030.4</ele>
        <time>2022-01-14T09:00:38Z</time>
      </trkpt>
      <trkpt lat="44.9931" lon="6.46156">
        <ele>2030.4</ele>
        <time>2022-01-14T09:00:39Z</time>
      </trkpt>
      <trkpt lat="44.9931" lon="6.46155">
        <ele>2030.4</ele>
        <time>2022-01-14T09:00:40Z</time>
      </trkpt>
      <trkpt lat="44.99309" lon="6.46155">
        <ele>2032.4</ele>
        <time>2022-01-14T09:00:41Z</time>
      </trkpt>
      <trkpt lat="44.99308" lon="6.46156">
        <ele>2032.4</ele>
        <time>2022-01-14T09:00:42Z</time>
      </trkpt>
      <trkpt lat="44.99307" lon="6.46156">
        <ele>2032.4</ele>
        <time>2022-01-14T09:00:43Z</time>
      </trkpt>
      <trkpt lat="44.99308" lon="6.46156">
        <ele>2032.4</ele>
        <time>2022-01-14T09:00:44Z</time>
      </trkpt>
      <trkpt lat="44.99308" lon="6.46155">
        <ele>2032.4</ele>
        <time>2022-01-14T09:00:45Z</time>
      </trkpt>
      <trkpt lat="44.99308" lon="6.46152">
        <ele>2032.4</ele>
        <time>2022-01-14T09:00:46Z</time>
      </trkpt>
      <trkpt lat="44.99308" lon="6.4615">
        <ele>2040.1</ele>
        <time>2022-01-14T09:00:47Z</time>
      </trkpt>
      <trkpt lat="44.99308" lon="6.4615">
        <ele>2040.1</ele>
        <time>2022-01-14T09:00:48Z</time>
      </trkpt>
      <trkpt lat="44.99308" lon="6.4615">
        <ele>2040.1</ele>
        <time>2022-01-14T09:00:49Z</time>
      </trkpt>
      <trkpt lat="44.99308" lon="6.46149">
        <ele>2040.1</ele>
        <time>2022-01-14T09:00:50Z</time>
      </trkpt>
      <trkpt lat="44.99308" lon="6.46149">
        <ele>2040.1</ele>
        <time>2022-01-14T09:00:51Z</time>
      </trkpt>
      <trkpt lat="44.99308" lon="6.46148">
        <ele>2040.1</ele>
        <time>2022-01-14T09:00:52Z</time>
      </trkpt>
      <trkpt lat="44.99309" lon="6.46148">
        <ele>2040.1</ele>
        <time>2022-01-14T09:00:53Z</time>
      </trkpt>
      <trkpt lat="44.99308" lon="6.46148">
        <ele>2040.1</ele>
        <time>2022-01-14T09:00:54Z</time>
      </trkpt>
      <trkpt lat="44.99309" lon="6.46148">
        <ele>2040.1</ele>
        <time>2022-01-14T09:00:55Z</time>
      </trkpt>
      <trkpt lat="44.99309" lon="6.46147">
        <ele>2040.1</ele>
        <time>2022-01-14T09:00:56Z</time>
      </trkpt>
      <trkpt lat="44.99308" lon="6.46147">
        <ele>2040.1</ele>
        <time>2022-01-14T09:00:57Z</time>
      </trkpt>
      <trkpt lat="44.99308" lon="6.46147">
        <ele>2040.1</ele>
        <time>2022-01-14T09:00:58Z</time>
      </trkpt>
      <trkpt lat="44.99308" lon="6.46146">
        <ele>2040.1</ele>
        <time>2022-01-14T09:00:59Z</time>
      </trkpt>
      <trkpt lat="44.99308" lon="6.46146">
        <ele>2040.1</ele>
        <time>2022-01-14T09:01:00Z</time>
      </trkpt>
      <trkpt lat="44.99308" lon="6.46144">
        <ele>2040.1</ele>
        <time>2022-01-14T09:01:01Z</time>
      </trkpt>
      <trkpt lat="44.99307" lon="6.46144">
        <ele>2040.1</ele>
        <time>2022-01-14T09:01:02Z</time>
      </trkpt>
      <trkpt lat="44.99306" lon="6.46143">
        <ele>2040.1</ele>
        <time>2022-01-14T09:01:03Z</time>
      </trkpt>
      <trkpt lat="44.99306" lon="6.46143">
        <ele>2040.1</ele>
        <time>2022-01-14T09:01:04Z</time>
      </trkpt>
      <trkpt lat="44.99306" lon="6.46143">
        <ele>2040.1</ele>
        <time>2022-01-14T09:01:05Z</time>
      </trkpt>
      <trkpt lat="44.99306" lon="6.46143">
        <ele>2040.1</ele>
        <time>2022-01-14T09:01:06Z</time>
      </trkpt>
      <trkpt lat="44.99305" lon="6.46142">
        <ele>2040.1</ele>
        <time>2022-01-14T09:01:07Z</time>
      </trkpt>
      <trkpt lat="44.99305" lon="6.46142">
        <ele>2040.1</ele>
        <time>2022-01-14T09:01:08Z</time>
      </trkpt>
      <trkpt lat="44.99305" lon="6.46142">
        <ele>2040.1</ele>
        <time>2022-01-14T09:01:09Z</time>
      </trkpt>
      <trkpt lat="44.99305" lon="6.46142">
        <ele>2040.1</ele>
        <time>2022-01-14T09:01:10Z</time>
      </trkpt>
      <trkpt lat="44.99305" lon="6.46142">
        <ele>2040.1</ele>
        <time>2022-01-14T09:01:11Z</time>
      </trkpt>
      <trkpt lat="44.99305" lon="6.46142">
        <ele>2040.1</ele>
        <time>2022-01-14T09:01:12Z</time>
      </trkpt>
      <trkpt lat="44.99305" lon="6.46141">
        <ele>2040.1</ele>
        <time>2022-01-14T09:01:13Z</time>
      </trkpt>
      <trkpt lat="44.99305" lon="6.46141">
        <ele>2040.1</ele>
        <time>2022-01-14T09:01:14Z</time>
      </trkpt>
      <trkpt lat="44.99305" lon="6.46141">
        <ele>2040.1</ele>
        <time>2022-01-14T09:01:15Z</time>
      </trkpt>
      <trkpt lat="44.99305" lon="6.46141">
        <ele>2040.1</ele>
        <time>2022-01-14T09:01:16Z</time>
      </trkpt>
      <trkpt lat="44.99305" lon="6.46141">
        <ele>2040.1</ele>
        <time>2022-01-14T09:01:17Z</time>
      </trkpt>
      <trkpt lat="44.99305" lon="6.46141">
        <ele>2040.1</ele>
        <time>2022-01-14T09:01:18Z</time>
      </trkpt>
      <trkpt lat="44.99305" lon="6.46139">
        <ele>2040.1</ele>
        <time>2022-01-14T09:01:19Z</time>
      </trkpt>
      <trkpt lat="44.99305" lon="6.46138">
        <ele>2040.1</ele>
        <time>2022-01-14T09:01:20Z</time>
      </trkpt>
      <trkpt lat="44.99303" lon="6.46137">
        <ele>2040.1</ele>
        <time>2022-01-14T09:01:21Z</time>
      </trkpt>
      <trkpt lat="44.99302" lon="6.46136">
        <ele>2040.1</ele>
        <time>2022-01-14T09:01:22Z</time>
      </trkpt>
      <trkpt lat="44.99302" lon="6.46136">
        <ele>2040.1</ele>
        <time>2022-01-14T09:01:23Z</time>
      </trkpt>
      <trkpt lat="44.99301" lon="6.46135">
        <ele>2040.1</ele>
        <time>2022-01-14T09:01:24Z</time>
      </trkpt>
      <trkpt lat="44.99299" lon="6.46135">
        <ele>2040.1</ele>
        <time>2022-01-14T09:01:25Z</time>
      </trkpt>
      <trkpt lat="44.99298" lon="6.46135">
        <ele>2040.1</ele>
        <time>2022-01-14T09:01:26Z</time>
      </trkpt>
      <trkpt lat="44.99297" lon="6.46135">
        <ele>2040.9</ele>
        <time>2022-01-14T09:01:27Z</time>
      </trkpt>
      <trkpt lat="44.99297" lon="6.46135">
        <ele>2040.9</ele>
        <time>2022-01-14T09:01:28Z</time>
      </trkpt>
      <trkpt lat="44.99297" lon="6.46135">
        <ele>2040.9</ele>
        <time>2022-01-14T09:01:29Z</time>
      </trkpt>
      <trkpt lat="44.99297" lon="6.46135">
        <ele>2040.9</ele>
        <time>2022-01-14T09:01:30Z</time>
      </trkpt>
      <trkpt lat="44.99296" lon="6.46135">
        <ele>2040.9</ele>
        <time>2022-01-14T09:01:31Z</time>
      </trkpt>
      <trkpt lat="44.99295" lon="6.46134">
        <ele>2040.9</ele>
        <time>2022-01-14T09:01:32Z</time>
      </trkpt>
      <trkpt lat="44.99294" lon="6.46134">
        <ele>2040.9</ele>
        <time>2022-01-14T09:01:33Z</time>
      </trkpt>
      <trkpt lat="44.99293" lon="6.46133">
        <ele>2048.4</ele>
        <time>2022-01-14T09:01:34Z</time>
      </trkpt>
      <trkpt lat="44.99292" lon="6.46133">
        <ele>2048.4</ele>
        <time>2022-01-14T09:01:35Z</time>
      </trkpt>
      <trkpt lat="44.99291" lon="6.46132">
        <ele>2048.4</ele>
        <time>2022-01-14T09:01:36Z</time>
      </trkpt>
      <trkpt lat="44.99291" lon="6.46131">
        <ele>2048.4</ele>
        <time>2022-01-14T09:01:37Z</time>
      </trkpt>
      <trkpt lat="44.9929" lon="6.46131">
        <ele>2048.4</ele>
        <time>2022-01-14T09:01:38Z</time>
      </trkpt>
      <trkpt lat="44.99291" lon="6.4613">
        <ele>2048.4</ele>
        <time>2022-01-14T09:01:39Z</time>
      </trkpt>
      <trkpt lat="44.9929" lon="6.46129">
        <ele>2048.4</ele>
        <time>2022-01-14T09:01:40Z</time>
      </trkpt>
      <trkpt lat="44.9929" lon="6.46129">
        <ele>2048.4</ele>
        <time>2022-01-14T09:01:41Z</time>
      </trkpt>
      <trkpt lat="44.9929" lon="6.46128">
        <ele>2048.4</ele>
        <time>2022-01-14T09:01:42Z</time>
      </trkpt>
      <trkpt lat="44.99291" lon="6.46129">
        <ele>2048.4</ele>
        <time>2022-01-14T09:01:43Z</time>
      </trkpt>
      <trkpt lat="44.99292" lon="6.4613">
        <ele>2048.4</ele>
        <time>2022-01-14T09:01:44Z</time>
      </trkpt>
      <trkpt lat="44.99292" lon="6.46131">
        <ele>2048.4</ele>
        <time>2022-01-14T09:01:45Z</time>
      </trkpt>
      <trkpt lat="44.99292" lon="6.46132">
        <ele>2048.4</ele>
        <time>2022-01-14T09:01:46Z</time>
      </trkpt>
      <trkpt lat="44.99292" lon="6.46133">
        <ele>2048.4</ele>
        <time>2022-01-14T09:01:47Z</time>
      </trkpt>
      <trkpt lat="44.99293" lon="6.46134">
        <ele>2040.9</ele>
        <time>2022-01-14T09:01:48Z</time>
      </trkpt>
      <trkpt lat="44.99293" lon="6.46134">
        <ele>2040.9</ele>
        <time>2022-01-14T09:01:49Z</time>
      </trkpt>
      <trkpt lat="44.99293" lon="6.46134">
        <ele>2040.9</ele>
        <time>2022-01-14T09:01:50Z</time>
      </trkpt>
      <trkpt lat="44.99293" lon="6.46133">
        <ele>2048.4</ele>
        <time>2022-01-14T09:01:51Z</time>
      </trkpt>
      <trkpt lat="44.99293" lon="6.46133">
        <ele>2048.4</ele>
        <time>2022-01-14T09:01:52Z</time>
      </trkpt>
      <trkpt lat="44.99293" lon="6.46132">
        <ele>2048.4</ele>
        <time>2022-01-14T09:01:53Z</time>
      </trkpt>
      <trkpt lat="44.99294" lon="6.46132">
        <ele>2048.4</ele>
        <time>2022-01-14T09:01:54Z</time>
      </trkpt>
      <trkpt lat="44.99294" lon="6.46131">
        <ele>2048.4</ele>
        <time>2022-01-14T09:01:55Z</time>
      </trkpt>
      <trkpt lat="44.99295" lon="6.46131">
        <ele>2048.4</ele>
        <time>2022-01-14T09:01:56Z</time>
      </trkpt>
      <trkpt lat="44.99295" lon="6.46131">
        <ele>2048.4</ele>
        <time>2022-01-14T09:01:57Z</time>
      </trkpt>
      <trkpt lat="44.99295" lon="6.46131">
        <ele>2048.4</ele>
        <time>2022-01-14T09:01:58Z</time>
      </trkpt>
      <trkpt lat="44.99296" lon="6.46131">
        <ele>2048.4</ele>
        <time>2022-01-14T09:01:59Z</time>
      </trkpt>
      <trkpt lat="44.99295" lon="6.46132">
        <ele>2048.4</ele>
        <time>2022-01-14T09:02:00Z</time>
      </trkpt>
      <trkpt lat="44.99295" lon="6.46132">
        <ele>2048.4</ele>
        <time>2022-01-14T09:02:01Z</time>
      </trkpt>
      <trkpt lat="44.99295" lon="6.46131">
        <ele>2048.4</ele>
        <time>2022-01-14T09:02:02Z</time>
      </trkpt>
      <trkpt lat="44.99294" lon="6.46131">
        <ele>2048.4</ele>
        <time>2022-01-14T09:02:03Z</time>
      </trkpt>
      <trkpt lat="44.99294" lon="6.4613">
        <ele>2048.4</ele>
        <time>2022-01-14T09:02:04Z</time>
      </trkpt>
      <trkpt lat="44.99294" lon="6.4613">
        <ele>2048.4</ele>
        <time>2022-01-14T09:02:05Z</time>
      </trkpt>
      <trkpt lat="44.99294" lon="6.4613">
        <ele>2048.4</ele>
        <time>2022-01-14T09:02:06Z</time>
      </trkpt>
      <trkpt lat="44.99294" lon="6.4613">
        <ele>2048.4</ele>
        <time>2022-01-14T09:02:07Z</time>
      </trkpt>
      <trkpt lat="44.99294" lon="6.4613">
        <ele>2048.4</ele>
        <time>2022-01-14T09:02:08Z</time>
      </trkpt>
      <trkpt lat="44.99295" lon="6.4613">
        <ele>2048.4</ele>
        <time>2022-01-14T09:02:09Z</time>
      </trkpt>
      <trkpt lat="44.99294" lon="6.46131">
        <ele>2048.4</ele>
        <time>2022-01-14T09:02:10Z</time>
      </trkpt>
      <trkpt lat="44.99294" lon="6.46131">
        <ele>2048.4</ele>
        <time>2022-01-14T09:02:11Z</time>
      </trkpt>
      <trkpt lat="44.99294" lon="6.46131">
        <ele>2048.4</ele>
        <time>2022-01-14T09:02:12Z</time>
      </trkpt>
      <trkpt lat="44.99294" lon="6.46131">
        <ele>2048.4</ele>
        <time>2022-01-14T09:02:13Z</time>
      </trkpt>
      <trkpt lat="44.99295" lon="6.46131">
        <ele>2048.4</ele>
        <time>2022-01-14T09:02:14Z</time>
      </trkpt>
      <trkpt lat="44.99295" lon="6.46131">
        <ele>2048.4</ele>
        <time>2022-01-14T09:02:15Z</time>
      </trkpt>
      <trkpt lat="44.99295" lon="6.46131">
        <ele>2048.4</ele>
        <time>2022-01-14T09:02:16Z</time>
      </trkpt>
      <trkpt lat="44.99295" lon="6.46131">
        <ele>2048.4</ele>
        <time>2022-01-14T09:02:17Z</time>
      </trkpt>
      <trkpt lat="44.99295" lon="6.4613">
        <ele>2048.4</ele>
        <time>2022-01-14T09:02:18Z</time>
      </trkpt>
      <trkpt lat="44.99295" lon="6.4613">
        <ele>2048.4</ele>
        <time>2022-01-14T09:02:19Z</time>
      </trkpt>
      <trkpt lat="44.99294" lon="6.4613">
        <ele>2048.4</ele>
        <time>2022-01-14T09:02:20Z</time>
      </trkpt>
      <trkpt lat="44.99294" lon="6.46129">
        <ele>2048.4</ele>
        <time>2022-01-14T09:02:21Z</time>
      </trkpt>
      <trkpt lat="44.99294" lon="6.46129">
        <ele>2048.4</ele>
        <time>2022-01-14T09:02:22Z</time>
      </trkpt>
      <trkpt lat="44.99293" lon="6.46128">
        <ele>2048.4</ele>
        <time>2022-01-14T09:02:23Z</time>
      </trkpt>
      <trkpt lat="44.99293" lon="6.46128">
        <ele>2048.4</ele>
        <time>2022-01-14T09:02:24Z</time>
      </trkpt>
      <trkpt lat="44.99293" lon="6.46128">
        <ele>2048.4</ele>
        <time>2022-01-14T09:02:25Z</time>
      </trkpt>
      <trkpt lat="44.99293" lon="6.46127">
        <ele>2048.4</ele>
        <time>2022-01-14T09:02:26Z</time>
      </trkpt>
      <trkpt lat="44.99293" lon="6.46127">
        <ele>2048.4</ele>
        <time>2022-01-14T09:02:27Z</time>
      </trkpt>
      <trkpt lat="44.99294" lon="6.46127">
        <ele>2048.4</ele>
        <time>2022-01-14T09:02:28Z</time>
      </trkpt>
      <trkpt lat="44.99295" lon="6.46128">
        <ele>2048.4</ele>
        <time>2022-01-14T09:02:29Z</time>
      </trkpt>
      <trkpt lat="44.99295" lon="6.46128">
        <ele>2048.4</ele>
        <time>2022-01-14T09:02:30Z</time>
      </trkpt>
      <trkpt lat="44.99296" lon="6.46128">
        <ele>2048.4</ele>
        <time>2022-01-14T09:02:31Z</time>
      </trkpt>
      <trkpt lat="44.99296" lon="6.46128">
        <ele>2048.4</ele>
        <time>2022-01-14T09:02:32Z</time>
      </trkpt>
      <trkpt lat="44.99297" lon="6.46128">
        <ele>2048.4</ele>
        <time>2022-01-14T09:02:33Z</time>
      </trkpt>
      <trkpt lat="44.99298" lon="6.46128">
        <ele>2047.8</ele>
        <time>2022-01-14T09:02:34Z</time>
      </trkpt>
      <trkpt lat="44.99298" lon="6.46128">
        <ele>2047.8</ele>
        <time>2022-01-14T09:02:35Z</time>
      </trkpt>
      <trkpt lat="44.99298" lon="6.46127">
        <ele>2047.8</ele>
        <time>2022-01-14T09:02:36Z</time>
      </trkpt>
      <trkpt lat="44.99299" lon="6.46127">
        <ele>2047.8</ele>
        <time>2022-01-14T09:02:37Z</time>
      </trkpt>
      <trkpt lat="44.99299" lon="6.46127">
        <ele>2047.8</ele>
        <time>2022-01-14T09:02:38Z</time>
      </trkpt>
      <trkpt lat="44.99299" lon="6.46127">
        <ele>2047.8</ele>
        <time>2022-01-14T09:02:39Z</time>
      </trkpt>
      <trkpt lat="44.99298" lon="6.46128">
        <ele>2047.8</ele>
        <time>2022-01-14T09:02:40Z</time>
      </trkpt>
      <trkpt lat="44.99299" lon="6.46128">
        <ele>2047.8</ele>
        <time>2022-01-14T09:02:41Z</time>
      </trkpt>
      <trkpt lat="44.99299" lon="6.46128">
        <ele>2047.8</ele>
        <time>2022-01-14T09:02:42Z</time>
      </trkpt>
      <trkpt lat="44.99299" lon="6.46128">
        <ele>2047.8</ele>
        <time>2022-01-14T09:02:43Z</time>
      </trkpt>
      <trkpt lat="44.99299" lon="6.46128">
        <ele>2047.8</ele>
        <time>2022-01-14T09:02:44Z</time>
      </trkpt>
      <trkpt lat="44.993" lon="6.46129">
        <ele>2047.8</ele>
        <time>2022-01-14T09:02:45Z</time>
      </trkpt>
      <trkpt lat="44.993" lon="6.46129">
        <ele>2047.8</ele>
        <time>2022-01-14T09:02:46Z</time>
      </trkpt>
      <trkpt lat="44.99301" lon="6.46129">
        <ele>2047.8</ele>
        <time>2022-01-14T09:02:47Z</time>
      </trkpt>
      <trkpt lat="44.993" lon="6.46129">
        <ele>2047.8</ele>
        <time>2022-01-14T09:02:48Z</time>
      </trkpt>
      <trkpt lat="44.99301" lon="6.4613">
        <ele>2047.8</ele>
        <time>2022-01-14T09:02:49Z</time>
      </trkpt>
      <trkpt lat="44.993" lon="6.4613">
        <ele>2047.8</ele>
        <time>2022-01-14T09:02:50Z</time>
      </trkpt>
      <trkpt lat="44.993" lon="6.4613">
        <ele>2047.8</ele>
        <time>2022-01-14T09:02:51Z</time>
      </trkpt>
      <trkpt lat="44.993" lon="6.46129">
        <ele>2047.8</ele>
        <time>2022-01-14T09:02:52Z</time>
      </trkpt>
      <trkpt lat="44.993" lon="6.46129">
        <ele>2047.8</ele>
        <time>2022-01-14T09:02:53Z</time>
      </trkpt>
      <trkpt lat="44.993" lon="6.4613">
        <ele>2047.8</ele>
        <time>2022-01-14T09:02:54Z</time>
      </trkpt>
      <trkpt lat="44.993" lon="6.46129">
        <ele>2047.8</ele>
        <time>2022-01-14T09:02:55Z</time>
      </trkpt>
      <trkpt lat="44.99301" lon="6.46129">
        <ele>2047.8</ele>
        <time>2022-01-14T09:02:56Z</time>
      </trkpt>
      <trkpt lat="44.99302" lon="6.46129">
        <ele>2047.8</ele>
        <time>2022-01-14T09:02:57Z</time>
      </trkpt>
      <trkpt lat="44.99302" lon="6.46129">
        <ele>2047.8</ele>
        <time>2022-01-14T09:02:58Z</time>
      </trkpt>
      <trkpt lat="44.99302" lon="6.46129">
        <ele>2047.8</ele>
        <time>2022-01-14T09:02:59Z</time>
      </trkpt>
      <trkpt lat="44.99302" lon="6.46129">
        <ele>2047.8</ele>
        <time>2022-01-14T09:03:00Z</time>
      </trkpt>
      <trkpt lat="44.99303" lon="6.46129">
        <ele>2047.8</ele>
        <time>2022-01-14T09:03:01Z</time>
      </trkpt>
      <trkpt lat="44.99303" lon="6.46128">
        <ele>2047.8</ele>
        <time>2022-01-14T09:03:02Z</time>
      </trkpt>
      <trkpt lat="44.99303" lon="6.46127">
        <ele>2047.8</ele>
        <time>2022-01-14T09:03:03Z</time>
      </trkpt>
      <trkpt lat="44.99304" lon="6.46127">
        <ele>2047.8</ele>
        <time>2022-01-14T09:03:04Z</time>
      </trkpt>
      <trkpt lat="44.99305" lon="6.46128">
        <ele>2047.8</ele>
        <time>2022-01-14T09:03:05Z</time>
      </trkpt>
      <trkpt lat="44.99305" lon="6.46128">
        <ele>2047.8</ele>
        <time>2022-01-14T09:03:06Z</time>
      </trkpt>
      <trkpt lat="44.99306" lon="6.46127">
        <ele>2047.8</ele>
        <time>2022-01-14T09:03:07Z</time>
      </trkpt>
      <trkpt lat="44.99306" lon="6.46126">
        <ele>2047.8</ele>
        <time>2022-01-14T09:03:08Z</time>
      </trkpt>
      <trkpt lat="44.99307" lon="6.46126">
        <ele>2047.8</ele>
        <time>2022-01-14T09:03:09Z</time>
      </trkpt>
      <trkpt lat="44.99307" lon="6.46125">
        <ele>2047.8</ele>
        <time>2022-01-14T09:03:10Z</time>
      </trkpt>
      <trkpt lat="44.99308" lon="6.46126">
        <ele>2047.8</ele>
        <time>2022-01-14T09:03:11Z</time>
      </trkpt>
      <trkpt lat="44.99308" lon="6.46126">
        <ele>2047.8</ele>
        <time>2022-01-14T09:03:12Z</time>
      </trkpt>
      <trkpt lat="44.99308" lon="6.46126">
        <ele>2047.8</ele>
        <time>2022-01-14T09:03:13Z</time>
      </trkpt>
      <trkpt lat="44.99309" lon="6.46127">
        <ele>2046.5</ele>
        <time>2022-01-14T09:03:14Z</time>
      </trkpt>
      <trkpt lat="44.99311" lon="6.46128">
        <ele>2046.5</ele>
        <time>2022-01-14T09:03:15Z</time>
      </trkpt>
      <trkpt lat="44.99311" lon="6.46129">
        <ele>2046.5</ele>
        <time>2022-01-14T09:03:16Z</time>
      </trkpt>
      <trkpt lat="44.99311" lon="6.4613">
        <ele>2046.5</ele>
        <time>2022-01-14T09:03:17Z</time>
      </trkpt>
      <trkpt lat="44.99311" lon="6.46131">
        <ele>2046.5</ele>
        <time>2022-01-14T09:03:18Z</time>
      </trkpt>
      <trkpt lat="44.99312" lon="6.46131">
        <ele>2046.5</ele>
        <time>2022-01-14T09:03:19Z</time>
      </trkpt>
      <trkpt lat="44.99313" lon="6.46131">
        <ele>2046.5</ele>
        <time>2022-01-14T09:03:20Z</time>
      </trkpt>
      <trkpt lat="44.99313" lon="6.46131">
        <ele>2046.5</ele>
        <time>2022-01-14T09:03:21Z</time>
      </trkpt>
      <trkpt lat="44.99314" lon="6.46131">
        <ele>2046.5</ele>
        <time>2022-01-14T09:03:22Z</time>
      </trkpt>
      <trkpt lat="44.99315" lon="6.4613">
        <ele>2046.5</ele>
        <time>2022-01-14T09:03:23Z</time>
      </trkpt>
      <trkpt lat="44.99316" lon="6.4613">
        <ele>2046.5</ele>
        <time>2022-01-14T09:03:24Z</time>
      </trkpt>
      <trkpt lat="44.99316" lon="6.46129">
        <ele>2046.5</ele>
        <time>2022-01-14T09:03:25Z</time>
      </trkpt>
      <trkpt lat="44.99318" lon="6.46128">
        <ele>2046.5</ele>
        <time>2022-01-14T09:03:26Z</time>
      </trkpt>
      <trkpt lat="44.99319" lon="6.46127">
        <ele>2046.5</ele>
        <time>2022-01-14T09:03:27Z</time>
      </trkpt>
      <trkpt lat="44.99319" lon="6.46126">
        <ele>2046.5</ele>
        <time>2022-01-14T09:03:28Z</time>
      </trkpt>
      <trkpt lat="44.99319" lon="6.46125">
        <ele>2046.5</ele>
        <time>2022-01-14T09:03:29Z</time>
      </trkpt>
      <trkpt lat="44.99319" lon="6.46125">
        <ele>2046.5</ele>
        <time>2022-01-14T09:03:30Z</time>
      </trkpt>
      <trkpt lat="44.99319" lon="6.46124">
        <ele>2046.5</ele>
        <time>2022-01-14T09:03:31Z</time>
      </trkpt>
      <trkpt lat="44.9932" lon="6.46123">
        <ele>2046.5</ele>
        <time>2022-01-14T09:03:32Z</time>
      </trkpt>
      <trkpt lat="44.99321" lon="6.46122">
        <ele>2046.5</ele>
        <time>2022-01-14T09:03:33Z</time>
      </trkpt>
      <trkpt lat="44.99321" lon="6.46121">
        <ele>2044.5</ele>
        <time>2022-01-14T09:03:34Z</time>
      </trkpt>
      <trkpt lat="44.99322" lon="6.4612">
        <ele>2044.5</ele>
        <time>2022-01-14T09:03:35Z</time>
      </trkpt>
      <trkpt lat="44.99322" lon="6.4612">
        <ele>2044.5</ele>
        <time>2022-01-14T09:03:36Z</time>
      </trkpt>
      <trkpt lat="44.99321" lon="6.46119">
        <ele>2046.5</ele>
        <time>2022-01-14T09:03:37Z</time>
      </trkpt>
      <trkpt lat="44.99321" lon="6.46118">
        <ele>2044.5</ele>
        <time>2022-01-14T09:03:38Z</time>
      </trkpt>
      <trkpt lat="44.99322" lon="6.46117">
        <ele>2044.5</ele>
        <time>2022-01-14T09:03:39Z</time>
      </trkpt>
      <trkpt lat="44.99323" lon="6.46118">
        <ele>2044.5</ele>
        <time>2022-01-14T09:03:40Z</time>
      </trkpt>
      <trkpt lat="44.99324" lon="6.46118">
        <ele>2044.5</ele>
        <time>2022-01-14T09:03:41Z</time>
      </trkpt>
      <trkpt lat="44.99324" lon="6.46118">
        <ele>2044.5</ele>
        <time>2022-01-14T09:03:42Z</time>
      </trkpt>
      <trkpt lat="44.99325" lon="6.46119">
        <ele>2044.5</ele>
        <time>2022-01-14T09:03:43Z</time>
      </trkpt>
      <trkpt lat="44.99325" lon="6.4612">
        <ele>2044.5</ele>
        <time>2022-01-14T09:03:44Z</time>
      </trkpt>
      <trkpt lat="44.99325" lon="6.4612">
        <ele>2044.5</ele>
        <time>2022-01-14T09:03:45Z</time>
      </trkpt>
      <trkpt lat="44.99325" lon="6.46121">
        <ele>2044.5</ele>
        <time>2022-01-14T09:03:46Z</time>
      </trkpt>
      <trkpt lat="44.99325" lon="6.46121">
        <ele>2044.5</ele>
        <time>2022-01-14T09:03:47Z</time>
      </trkpt>
      <trkpt lat="44.99326" lon="6.46122">
        <ele>2044.5</ele>
        <time>2022-01-14T09:03:48Z</time>
      </trkpt>
      <trkpt lat="44.99326" lon="6.46122">
        <ele>2044.5</ele>
        <time>2022-01-14T09:03:49Z</time>
      </trkpt>
      <trkpt lat="44.99327" lon="6.46122">
        <ele>2044.5</ele>
        <time>2022-01-14T09:03:50Z</time>
      </trkpt>
      <trkpt lat="44.99328" lon="6.46121">
        <ele>2044.5</ele>
        <time>2022-01-14T09:03:51Z</time>
      </trkpt>
      <trkpt lat="44.99329" lon="6.46121">
        <ele>2044.5</ele>
        <time>2022-01-14T09:03:52Z</time>
      </trkpt>
      <trkpt lat="44.9933" lon="6.46121">
        <ele>2044.5</ele>
        <time>2022-01-14T09:03:53Z</time>
      </trkpt>
      <trkpt lat="44.9933" lon="6.4612">
        <ele>2044.5</ele>
        <time>2022-01-14T09:03:54Z</time>
      </trkpt>
      <trkpt lat="44.99331" lon="6.4612">
        <ele>2044.5</ele>
        <time>2022-01-14T09:03:55Z</time>
      </trkpt>
      <trkpt lat="44.99332" lon="6.46119">
        <ele>2044.5</ele>
        <time>2022-01-14T09:03:56Z</time>
      </trkpt>
      <trkpt lat="44.99333" lon="6.46119">
        <ele>2044.5</ele>
        <time>2022-01-14T09:03:57Z</time>
      </trkpt>
      <trkpt lat="44.99334" lon="6.46119">
        <ele>2041.2</ele>
        <time>2022-01-14T09:03:58Z</time>
      </trkpt>
      <trkpt lat="44.99335" lon="6.46119">
        <ele>2041.2</ele>
        <time>2022-01-14T09:03:59Z</time>
      </trkpt>
      <trkpt lat="44.99335" lon="6.46119">
        <ele>2041.2</ele>
        <time>2022-01-14T09:04:00Z</time>
      </trkpt>
      <trkpt lat="44.99336" lon="6.46119">
        <ele>2041.2</ele>
        <time>2022-01-14T09:04:01Z</time>
      </trkpt>
      <trkpt lat="44.99337" lon="6.46119">
        <ele>2041.2</ele>
        <time>2022-01-14T09:04:02Z</time>
      </trkpt>
      <trkpt lat="44.99337" lon="6.46119">
        <ele>2041.2</ele>
        <time>2022-01-14T09:04:03Z</time>
      </trkpt>
      <trkpt lat="44.99337" lon="6.46119">
        <ele>2041.2</ele>
        <time>2022-01-14T09:04:04Z</time>
      </trkpt>
      <trkpt lat="44.99337" lon="6.46118">
        <ele>2041.2</ele>
        <time>2022-01-14T09:04:05Z</time>
      </trkpt>
      <trkpt lat="44.99338" lon="6.46117">
        <ele>2041.2</ele>
        <time>2022-01-14T09:04:06Z</time>
      </trkpt>
      <trkpt lat="44.99337" lon="6.46116">
        <ele>2049</ele>
        <time>2022-01-14T09:04:07Z</time>
      </trkpt>
      <trkpt lat="44.99337" lon="6.46115">
        <ele>2049</ele>
        <time>2022-01-14T09:04:08Z</time>
      </trkpt>
      <trkpt lat="44.99337" lon="6.46115">
        <ele>2049</ele>
        <time>2022-01-14T09:04:09Z</time>
      </trkpt>
      <trkpt lat="44.99338" lon="6.46113">
        <ele>2049</ele>
        <time>2022-01-14T09:04:10Z</time>
      </trkpt>
      <trkpt lat="44.99338" lon="6.46113">
        <ele>2049</ele>
        <time>2022-01-14T09:04:11Z</time>
      </trkpt>
      <trkpt lat="44.99338" lon="6.46112">
        <ele>2049</ele>
        <time>2022-01-14T09:04:12Z</time>
      </trkpt>
      <trkpt lat="44.99338" lon="6.46112">
        <ele>2049</ele>
        <time>2022-01-14T09:04:13Z</time>
      </trkpt>
      <trkpt lat="44.99338" lon="6.46112">
        <ele>2049</ele>
        <time>2022-01-14T09:04:14Z</time>
      </trkpt>
      <trkpt lat="44.99338" lon="6.46112">
        <ele>2049</ele>
        <time>2022-01-14T09:04:15Z</time>
      </trkpt>
      <trkpt lat="44.99338" lon="6.46112">
        <ele>2049</ele>
        <time>2022-01-14T09:04:16Z</time>
      </trkpt>
      <trkpt lat="44.99339" lon="6.46112">
        <ele>2049</ele>
        <time>2022-01-14T09:04:17Z</time>
      </trkpt>
      <trkpt lat="44.99339" lon="6.46112">
        <ele>2049</ele>
        <time>2022-01-14T09:04:18Z</time>
      </trkpt>
      <trkpt lat="44.99339" lon="6.4611">
        <ele>2049</ele>
        <time>2022-01-14T09:04:19Z</time>
      </trkpt>
      <trkpt lat="44.99339" lon="6.46109">
        <ele>2049</ele>
        <time>2022-01-14T09:04:20Z</time>
      </trkpt>
      <trkpt lat="44.99339" lon="6.46108">
        <ele>2049</ele>
        <time>2022-01-14T09:04:21Z</time>
      </trkpt>
      <trkpt lat="44.99339" lon="6.46108">
        <ele>2049</ele>
        <time>2022-01-14T09:04:22Z</time>
      </trkpt>
      <trkpt lat="44.9934" lon="6.46108">
        <ele>2049</ele>
        <time>2022-01-14T09:04:23Z</time>
      </trkpt>
      <trkpt lat="44.9934" lon="6.46107">
        <ele>2049</ele>
        <time>2022-01-14T09:04:24Z</time>
      </trkpt>
      <trkpt lat="44.9934" lon="6.46107">
        <ele>2049</ele>
        <time>2022-01-14T09:04:25Z</time>
      </trkpt>
      <trkpt lat="44.99341" lon="6.46106">
        <ele>2049</ele>
        <time>2022-01-14T09:04:26Z</time>
      </trkpt>
      <trkpt lat="44.99341" lon="6.46105">
        <ele>2049</ele>
        <time>2022-01-14T09:04:27Z</time>
      </trkpt>
      <trkpt lat="44.99341" lon="6.46104">
        <ele>2049</ele>
        <time>2022-01-14T09:04:28Z</time>
      </trkpt>
      <trkpt lat="44.99341" lon="6.46103">
        <ele>2049</ele>
        <time>2022-01-14T09:04:29Z</time>
      </trkpt>
      <trkpt lat="44.99342" lon="6.46103">
        <ele>2049</ele>
        <time>2022-01-14T09:04:30Z</time>
      </trkpt>
      <trkpt lat="44.99342" lon="6.46102">
        <ele>2049</ele>
        <time>2022-01-14T09:04:31Z</time>
      </trkpt>
      <trkpt lat="44.99342" lon="6.46102">
        <ele>2049</ele>
        <time>2022-01-14T09:04:32Z</time>
      </trkpt>
      <trkpt lat="44.99342" lon="6.46102">
        <ele>2049</ele>
        <time>2022-01-14T09:04:33Z</time>
      </trkpt>
      <trkpt lat="44.99342" lon="6.46102">
        <ele>2049</ele>
        <time>2022-01-14T09:04:34Z</time>
      </trkpt>
      <trkpt lat="44.99342" lon="6.46101">
        <ele>2049</ele>
        <time>2022-01-14T09:04:35Z</time>
      </trkpt>
      <trkpt lat="44.99342" lon="6.46101">
        <ele>2049</ele>
        <time>2022-01-14T09:04:36Z</time>
      </trkpt>
      <trkpt lat="44.99342" lon="6.46101">
        <ele>2049</ele>
        <time>2022-01-14T09:04:37Z</time>
      </trkpt>
      <trkpt lat="44.99342" lon="6.46101">
        <ele>2049</ele>
        <time>2022-01-14T09:04:38Z</time>
      </trkpt>
      <trkpt lat="44.99342" lon="6.461">
        <ele>2049</ele>
        <time>2022-01-14T09:04:39Z</time>
      </trkpt>
      <trkpt lat="44.99342" lon="6.461">
        <ele>2049</ele>
        <time>2022-01-14T09:04:40Z</time>
      </trkpt>
      <trkpt lat="44.99343" lon="6.461">
        <ele>2049</ele>
        <time>2022-01-14T09:04:41Z</time>
      </trkpt>
      <trkpt lat="44.99343" lon="6.461">
        <ele>2049</ele>
        <time>2022-01-14T09:04:42Z</time>
      </trkpt>
      <trkpt lat="44.99344" lon="6.46099">
        <ele>2049</ele>
        <time>2022-01-14T09:04:43Z</time>
      </trkpt>
      <trkpt lat="44.99344" lon="6.46099">
        <ele>2055.8</ele>
        <time>2022-01-14T09:04:44Z</time>
      </trkpt>
      <trkpt lat="44.99344" lon="6.46099">
        <ele>2049</ele>
        <time>2022-01-14T09:04:45Z</time>
      </trkpt>
      <trkpt lat="44.99344" lon="6.46098">
        <ele>2055.8</ele>
        <time>2022-01-14T09:04:46Z</time>
      </trkpt>
      <trkpt lat="44.99346" lon="6.46099">
        <ele>2045.8</ele>
        <time>2022-01-14T09:04:47Z</time>
      </trkpt>
      <trkpt lat="44.99346" lon="6.46098">
        <ele>2053.1</ele>
        <time>2022-01-14T09:04:48Z</time>
      </trkpt>
      <trkpt lat="44.99347" lon="6.46098">
        <ele>2053.1</ele>
        <time>2022-01-14T09:04:49Z</time>
      </trkpt>
      <trkpt lat="44.99347" lon="6.46097">
        <ele>2053.1</ele>
        <time>2022-01-14T09:04:50Z</time>
      </trkpt>
      <trkpt lat="44.99347" lon="6.46097">
        <ele>2053.1</ele>
        <time>2022-01-14T09:04:51Z</time>
      </trkpt>
      <trkpt lat="44.99347" lon="6.46097">
        <ele>2053.1</ele>
        <time>2022-01-14T09:04:52Z</time>
      </trkpt>
      <trkpt lat="44.99347" lon="6.46096">
        <ele>2053.1</ele>
        <time>2022-01-14T09:04:53Z</time>
      </trkpt>
      <trkpt lat="44.99348" lon="6.46094">
        <ele>2053.1</ele>
        <time>2022-01-14T09:04:54Z</time>
      </trkpt>
      <trkpt lat="44.99348" lon="6.46092">
        <ele>2053.1</ele>
        <time>2022-01-14T09:04:55Z</time>
      </trkpt>
      <trkpt lat="44.99347" lon="6.46091">
        <ele>2053.1</ele>
        <time>2022-01-14T09:04:56Z</time>
      </trkpt>
      <trkpt lat="44.99347" lon="6.46091">
        <ele>2053.1</ele>
        <time>2022-01-14T09:04:57Z</time>
      </trkpt>
      <trkpt lat="44.99347" lon="6.46091">
        <ele>2053.1</ele>
        <time>2022-01-14T09:04:58Z</time>
      </trkpt>
      <trkpt lat="44.99347" lon="6.46091">
        <ele>2053.1</ele>
        <time>2022-01-14T09:04:59Z</time>
      </trkpt>
      <trkpt lat="44.99347" lon="6.46091">
        <ele>2053.1</ele>
        <time>2022-01-14T09:05:00Z</time>
      </trkpt>
      <trkpt lat="44.99347" lon="6.46091">
        <ele>2053.1</ele>
        <time>2022-01-14T09:05:01Z</time>
      </trkpt>
      <trkpt lat="44.99347" lon="6.4609">
        <ele>2053.1</ele>
        <time>2022-01-14T09:05:02Z</time>
      </trkpt>
      <trkpt lat="44.99347" lon="6.46089">
        <ele>2053.1</ele>
        <time>2022-01-14T09:05:03Z</time>
      </trkpt>
      <trkpt lat="44.99347" lon="6.46089">
        <ele>2053.1</ele>
        <time>2022-01-14T09:05:04Z</time>
      </trkpt>
      <trkpt lat="44.99346" lon="6.4609">
        <ele>2053.1</ele>
        <time>2022-01-14T09:05:05Z</time>
      </trkpt>
      <trkpt lat="44.99345" lon="6.4609">
        <ele>2055.8</ele>
        <time>2022-01-14T09:05:06Z</time>
      </trkpt>
      <trkpt lat="44.99345" lon="6.4609">
        <ele>2055.8</ele>
        <time>2022-01-14T09:05:07Z</time>
      </trkpt>
      <trkpt lat="44.99344" lon="6.4609">
        <ele>2055.8</ele>
        <time>2022-01-14T09:05:08Z</time>
      </trkpt>
      <trkpt lat="44.99344" lon="6.4609">
        <ele>2055.8</ele>
        <time>2022-01-14T09:05:09Z</time>
      </trkpt>
      <trkpt lat="44.99343" lon="6.46091">
        <ele>2055.8</ele>
        <time>2022-01-14T09:05:10Z</time>
      </trkpt>
      <trkpt lat="44.99342" lon="6.46091">
        <ele>2055.8</ele>
        <time>2022-01-14T09:05:11Z</time>
      </trkpt>
      <trkpt lat="44.99342" lon="6.46092">
        <ele>2055.8</ele>
        <time>2022-01-14T09:05:12Z</time>
      </trkpt>
      <trkpt lat="44.99342" lon="6.46093">
        <ele>2055.8</ele>
        <time>2022-01-14T09:05:13Z</time>
      </trkpt>
      <trkpt lat="44.99342" lon="6.46094">
        <ele>2055.8</ele>
        <time>2022-01-14T09:05:14Z</time>
      </trkpt>
      <trkpt lat="44.99342" lon="6.46095">
        <ele>2055.8</ele>
        <time>2022-01-14T09:05:15Z</time>
      </trkpt>
      <trkpt lat="44.99342" lon="6.46095">
        <ele>2055.8</ele>
        <time>2022-01-14T09:05:16Z</time>
      </trkpt>
      <trkpt lat="44.99341" lon="6.46095">
        <ele>2055.8</ele>
        <time>2022-01-14T09:05:17Z</time>
      </trkpt>
      <trkpt lat="44.99342" lon="6.46095">
        <ele>2055.8</ele>
        <time>2022-01-14T09:05:18Z</time>
      </trkpt>
      <trkpt lat="44.99342" lon="6.46095">
        <ele>2055.8</ele>
        <time>2022-01-14T09:05:19Z</time>
      </trkpt>
      <trkpt lat="44.99342" lon="6.46095">
        <ele>2055.8</ele>
        <time>2022-01-14T09:05:20Z</time>
      </trkpt>
      <trkpt lat="44.99342" lon="6.46095">
        <ele>2055.8</ele>
        <time>2022-01-14T09:05:21Z</time>
      </trkpt>
      <trkpt lat="44.99342" lon="6.46096">
        <ele>2055.8</ele>
        <time>2022-01-14T09:05:22Z</time>
      </trkpt>
      <trkpt lat="44.99342" lon="6.46096">
        <ele>2055.8</ele>
        <time>2022-01-14T09:05:23Z</time>
      </trkpt>
      <trkpt lat="44.99342" lon="6.46096">
        <ele>2055.8</ele>
        <time>2022-01-14T09:05:24Z</time>
      </trkpt>
      <trkpt lat="44.99342" lon="6.46096">
        <ele>2055.8</ele>
        <time>2022-01-14T09:05:25Z</time>
      </trkpt>
      <trkpt lat="44.99341" lon="6.46096">
        <ele>2055.8</ele>
        <time>2022-01-14T09:05:26Z</time>
      </trkpt>
      <trkpt lat="44.9934" lon="6.46095">
        <ele>2055.8</ele>
        <time>2022-01-14T09:05:27Z</time>
      </trkpt>
      <trkpt lat="44.9934" lon="6.46096">
        <ele>2055.8</ele>
        <time>2022-01-14T09:05:28Z</time>
      </trkpt>
      <trkpt lat="44.9934" lon="6.46096">
        <ele>2055.8</ele>
        <time>2022-01-14T09:05:29Z</time>
      </trkpt>
      <trkpt lat="44.9934" lon="6.46095">
        <ele>2055.8</ele>
        <time>2022-01-14T09:05:30Z</time>
      </trkpt>
      <trkpt lat="44.9934" lon="6.46095">
        <ele>2055.8</ele>
        <time>2022-01-14T09:05:31Z</time>
      </trkpt>
      <trkpt lat="44.9934" lon="6.46095">
        <ele>2055.8</ele>
        <time>2022-01-14T09:05:32Z</time>
      </trkpt>
      <trkpt lat="44.9934" lon="6.46095">
        <ele>2055.8</ele>
        <time>2022-01-14T09:05:33Z</time>
      </trkpt>
      <trkpt lat="44.9934" lon="6.46095">
        <ele>2055.8</ele>
        <time>2022-01-14T09:05:34Z</time>
      </trkpt>
      <trkpt lat="44.9934" lon="6.46095">
        <ele>2055.8</ele>
        <time>2022-01-14T09:05:35Z</time>
      </trkpt>
      <trkpt lat="44.9934" lon="6.46095">
        <ele>2055.8</ele>
        <time>2022-01-14T09:05:36Z</time>
      </trkpt>
      <trkpt lat="44.9934" lon="6.46095">
        <ele>2055.8</ele>
        <time>2022-01-14T09:05:37Z</time>
      </trkpt>
      <trkpt lat="44.9934" lon="6.46095">
        <ele>2055.8</ele>
        <time>2022-01-14T09:05:38Z</time>
      </trkpt>
      <trkpt lat="44.9934" lon="6.46095">
        <ele>2055.8</ele>
        <time>2022-01-14T09:05:39Z</time>
      </trkpt>
      <trkpt lat="44.9934" lon="6.46095">
        <ele>2055.8</ele>
        <time>2022-01-14T09:05:40Z</time>
      </trkpt>
      <trkpt lat="44.9934" lon="6.46095">
        <ele>2055.8</ele>
        <time>2022-01-14T09:05:41Z</time>
      </trkpt>
      <trkpt lat="44.9934" lon="6.46095">
        <ele>2055.8</ele>
        <time>2022-01-14T09:05:42Z</time>
      </trkpt>
      <trkpt lat="44.9934" lon="6.46094">
        <ele>2055.8</ele>
        <time>2022-01-14T09:05:43Z</time>
      </trkpt>
      <trkpt lat="44.9934" lon="6.46094">
        <ele>2055.8</ele>
        <time>2022-01-14T09:05:44Z</time>
      </trkpt>
      <trkpt lat="44.9934" lon="6.46094">
        <ele>2055.8</ele>
        <time>2022-01-14T09:05:45Z</time>
      </trkpt>
      <trkpt lat="44.9934" lon="6.46094">
        <ele>2055.8</ele>
        <time>2022-01-14T09:05:46Z</time>
      </trkpt>
      <trkpt lat="44.9934" lon="6.46094">
        <ele>2055.8</ele>
        <time>2022-01-14T09:05:47Z</time>
      </trkpt>
      <trkpt lat="44.9934" lon="6.46095">
        <ele>2055.8</ele>
        <time>2022-01-14T09:05:48Z</time>
      </trkpt>
      <trkpt lat="44.9934" lon="6.46095">
        <ele>2055.8</ele>
        <time>2022-01-14T09:05:49Z</time>
      </trkpt>
      <trkpt lat="44.9934" lon="6.46095">
        <ele>2055.8</ele>
        <time>2022-01-14T09:05:50Z</time>
      </trkpt>
      <trkpt lat="44.9934" lon="6.46095">
        <ele>2055.8</ele>
        <time>2022-01-14T09:05:51Z</time>
      </trkpt>
      <trkpt lat="44.99339" lon="6.46095">
        <ele>2055.8</ele>
        <time>2022-01-14T09:05:52Z</time>
      </trkpt>
      <trkpt lat="44.99339" lon="6.46095">
        <ele>2055.8</ele>
        <time>2022-01-14T09:05:53Z</time>
      </trkpt>
      <trkpt lat="44.99339" lon="6.46095">
        <ele>2055.8</ele>
        <time>2022-01-14T09:05:54Z</time>
      </trkpt>
      <trkpt lat="44.99339" lon="6.46095">
        <ele>2055.8</ele>
        <time>2022-01-14T09:05:55Z</time>
      </trkpt>
      <trkpt lat="44.99339" lon="6.46096">
        <ele>2055.8</ele>
        <time>2022-01-14T09:05:56Z</time>
      </trkpt>
      <trkpt lat="44.99339" lon="6.46096">
        <ele>2055.8</ele>
        <time>2022-01-14T09:05:57Z</time>
      </trkpt>
      <trkpt lat="44.99339" lon="6.46096">
        <ele>2055.8</ele>
        <time>2022-01-14T09:05:58Z</time>
      </trkpt>
      <trkpt lat="44.99339" lon="6.46096">
        <ele>2055.8</ele>
        <time>2022-01-14T09:05:59Z</time>
      </trkpt>
      <trkpt lat="44.99339" lon="6.46096">
        <ele>2055.8</ele>
        <time>2022-01-14T09:06:00Z</time>
      </trkpt>
      <trkpt lat="44.99339" lon="6.46097">
        <ele>2055.8</ele>
        <time>2022-01-14T09:06:01Z</time>
      </trkpt>
      <trkpt lat="44.99339" lon="6.46097">
        <ele>2055.8</ele>
        <time>2022-01-14T09:06:02Z</time>
      </trkpt>
      <trkpt lat="44.9934" lon="6.46097">
        <ele>2055.8</ele>
        <time>2022-01-14T09:06:03Z</time>
      </trkpt>
      <trkpt lat="44.9934" lon="6.46097">
        <ele>2055.8</ele>
        <time>2022-01-14T09:06:04Z</time>
      </trkpt>
      <trkpt lat="44.9934" lon="6.46097">
        <ele>2055.8</ele>
        <time>2022-01-14T09:06:05Z</time>
      </trkpt>
      <trkpt lat="44.9934" lon="6.46097">
        <ele>2055.8</ele>
        <time>2022-01-14T09:06:06Z</time>
      </trkpt>
      <trkpt lat="44.9934" lon="6.46097">
        <ele>2055.8</ele>
        <time>2022-01-14T09:06:07Z</time>
      </trkpt>
      <trkpt lat="44.9934" lon="6.46097">
        <ele>2055.8</ele>
        <time>2022-01-14T09:06:08Z</time>
      </trkpt>
      <trkpt lat="44.9934" lon="6.46097">
        <ele>2055.8</ele>
        <time>2022-01-14T09:06:09Z</time>
      </trkpt>
      <trkpt lat="44.9934" lon="6.46097">
        <ele>2055.8</ele>
        <time>2022-01-14T09:06:10Z</time>
      </trkpt>
      <trkpt lat="44.9934" lon="6.46097">
        <ele>2055.8</ele>
        <time>2022-01-14T09:06:11Z</time>
      </trkpt>
      <trkpt lat="44.9934" lon="6.46097">
        <ele>2055.8</ele>
        <time>2022-01-14T09:06:12Z</time>
      </trkpt>
      <trkpt lat="44.9934" lon="6.46097">
        <ele>2055.8</ele>
        <time>2022-01-14T09:06:13Z</time>
      </trkpt>
      <trkpt lat="44.9934" lon="6.46097">
        <ele>2055.8</ele>
        <time>2022-01-14T09:06:14Z</time>
      </trkpt>
      <trkpt lat="44.9934" lon="6.46097">
        <ele>2055.8</ele>
        <time>2022-01-14T09:06:15Z</time>
      </trkpt>
      <trkpt lat="44.9934" lon="6.46097">
        <ele>2055.8</ele>
        <time>2022-01-14T09:06:16Z</time>
      </trkpt>
      <trkpt lat="44.9934" lon="6.46097">
        <ele>2055.8</ele>
        <time>2022-01-14T09:06:17Z</time>
      </trkpt>
      <trkpt lat="44.9934" lon="6.46097">
        <ele>2055.8</ele>
        <time>2022-01-14T09:06:18Z</time>
      </trkpt>
      <trkpt lat="44.9934" lon="6.46097">
        <ele>2055.8</ele>
        <time>2022-01-14T09:06:19Z</time>
      </trkpt>
      <trkpt lat="44.9934" lon="6.46097">
        <ele>2055.8</ele>
        <time>2022-01-14T09:06:20Z</time>
      </trkpt>
      <trkpt lat="44.9934" lon="6.46097">
        <ele>2055.8</ele>
        <time>2022-01-14T09:06:21Z</time>
      </trkpt>
      <trkpt lat="44.9934" lon="6.46097">
        <ele>2055.8</ele>
        <time>2022-01-14T09:06:22Z</time>
      </trkpt>
      <trkpt lat="44.9934" lon="6.46098">
        <ele>2055.8</ele>
        <time>2022-01-14T09:06:23Z</time>
      </trkpt>
      <trkpt lat="44.9934" lon="6.46099">
        <ele>2055.8</ele>
        <time>2022-01-14T09:06:24Z</time>
      </trkpt>
      <trkpt lat="44.9934" lon="6.46099">
        <ele>2049</ele>
        <time>2022-01-14T09:06:25Z</time>
      </trkpt>
      <trkpt lat="44.9934" lon="6.461">
        <ele>2049</ele>
        <time>2022-01-14T09:06:26Z</time>
      </trkpt>
      <trkpt lat="44.9934" lon="6.46101">
        <ele>2049</ele>
        <time>2022-01-14T09:06:27Z</time>
      </trkpt>
      <trkpt lat="44.9934" lon="6.46103">
        <ele>2049</ele>
        <time>2022-01-14T09:06:28Z</time>
      </trkpt>
      <trkpt lat="44.9934" lon="6.46103">
        <ele>2049</ele>
        <time>2022-01-14T09:06:29Z</time>
      </trkpt>
      <trkpt lat="44.9934" lon="6.46103">
        <ele>2049</ele>
        <time>2022-01-14T09:06:30Z</time>
      </trkpt>
      <trkpt lat="44.9934" lon="6.46103">
        <ele>2049</ele>
        <time>2022-01-14T09:06:31Z</time>
      </trkpt>
      <trkpt lat="44.9934" lon="6.46103">
        <ele>2049</ele>
        <time>2022-01-14T09:06:32Z</time>
      </trkpt>
      <trkpt lat="44.9934" lon="6.46103">
        <ele>2049</ele>
        <time>2022-01-14T09:06:33Z</time>
      </trkpt>
      <trkpt lat="44.9934" lon="6.46103">
        <ele>2049</ele>
        <time>2022-01-14T09:06:34Z</time>
      </trkpt>
      <trkpt lat="44.9934" lon="6.46103">
        <ele>2049</ele>
        <time>2022-01-14T09:06:35Z</time>
      </trkpt>
      <trkpt lat="44.9934" lon="6.46103">
        <ele>2049</ele>
        <time>2022-01-14T09:06:36Z</time>
      </trkpt>
      <trkpt lat="44.9934" lon="6.46103">
        <ele>2049</ele>
        <time>2022-01-14T09:06:37Z</time>
      </trkpt>
      <trkpt lat="44.9934" lon="6.46103">
        <ele>2049</ele>
        <time>2022-01-14T09:06:38Z</time>
      </trkpt>
      <trkpt lat="44.99341" lon="6.46103">
        <ele>2049</ele>
        <time>2022-01-14T09:06:39Z</time>
      </trkpt>
      <trkpt lat="44.99341" lon="6.46103">
        <ele>2049</ele>
        <time>2022-01-14T09:06:40Z</time>
      </trkpt>
      <trkpt lat="44.99341" lon="6.46103">
        <ele>2049</ele>
        <time>2022-01-14T09:06:41Z</time>
      </trkpt>
      <trkpt lat="44.99341" lon="6.46102">
        <ele>2049</ele>
        <time>2022-01-14T09:06:42Z</time>
      </trkpt>
      <trkpt lat="44.99341" lon="6.46102">
        <ele>2049</ele>
        <time>2022-01-14T09:06:43Z</time>
      </trkpt>
      <trkpt lat="44.99341" lon="6.46102">
        <ele>2049</ele>
        <time>2022-01-14T09:06:44Z</time>
      </trkpt>
      <trkpt lat="44.99341" lon="6.46102">
        <ele>2049</ele>
        <time>2022-01-14T09:06:45Z</time>
      </trkpt>
      <trkpt lat="44.99341" lon="6.46102">
        <ele>2049</ele>
        <time>2022-01-14T09:06:46Z</time>
      </trkpt>
      <trkpt lat="44.99341" lon="6.46102">
        <ele>2049</ele>
        <time>2022-01-14T09:06:47Z</time>
      </trkpt>
      <trkpt lat="44.99341" lon="6.46102">
        <ele>2049</ele>
        <time>2022-01-14T09:06:48Z</time>
      </trkpt>
      <trkpt lat="44.99342" lon="6.46102">
        <ele>2049</ele>
        <time>2022-01-14T09:06:49Z</time>
      </trkpt>
      <trkpt lat="44.99342" lon="6.46102">
        <ele>2049</ele>
        <time>2022-01-14T09:06:50Z</time>
      </trkpt>
      <trkpt lat="44.99342" lon="6.46102">
        <ele>2049</ele>
        <time>2022-01-14T09:06:51Z</time>
      </trkpt>
      <trkpt lat="44.99342" lon="6.46102">
        <ele>2049</ele>
        <time>2022-01-14T09:06:52Z</time>
      </trkpt>
      <trkpt lat="44.99342" lon="6.46102">
        <ele>2049</ele>
        <time>2022-01-14T09:06:53Z</time>
      </trkpt>
      <trkpt lat="44.99342" lon="6.46102">
        <ele>2049</ele>
        <time>2022-01-14T09:06:54Z</time>
      </trkpt>
      <trkpt lat="44.99343" lon="6.46101">
        <ele>2049</ele>
        <time>2022-01-14T09:06:55Z</time>
      </trkpt>
      <trkpt lat="44.99343" lon="6.46101">
        <ele>2049</ele>
        <time>2022-01-14T09:06:56Z</time>
      </trkpt>
      <trkpt lat="44.99344" lon="6.46102">
        <ele>2049</ele>
        <time>2022-01-14T09:06:57Z</time>
      </trkpt>
      <trkpt lat="44.99344" lon="6.46104">
        <ele>2049</ele>
        <time>2022-01-14T09:06:58Z</time>
      </trkpt>
      <trkpt lat="44.99346" lon="6.46105">
        <ele>2045.8</ele>
        <time>2022-01-14T09:06:59Z</time>
      </trkpt>
      <trkpt lat="44.99346" lon="6.46104">
        <ele>2045.8</ele>
        <time>2022-01-14T09:07:00Z</time>
      </trkpt>
      <trkpt lat="44.99346" lon="6.46104">
        <ele>2045.8</ele>
        <time>2022-01-14T09:07:01Z</time>
      </trkpt>
      <trkpt lat="44.99346" lon="6.46103">
        <ele>2045.8</ele>
        <time>2022-01-14T09:07:02Z</time>
      </trkpt>
      <trkpt lat="44.99347" lon="6.46103">
        <ele>2045.8</ele>
        <time>2022-01-14T09:07:03Z</time>
      </trkpt>
      <trkpt lat="44.99347" lon="6.46101">
        <ele>2045.8</ele>
        <time>2022-01-14T09:07:04Z</time>
      </trkpt>
      <trkpt lat="44.99347" lon="6.46101">
        <ele>2045.8</ele>
        <time>2022-01-14T09:07:05Z</time>
      </trkpt>
      <trkpt lat="44.99347" lon="6.46101">
        <ele>2045.8</ele>
        <time>2022-01-14T09:07:06Z</time>
      </trkpt>
      <trkpt lat="44.99347" lon="6.46101">
        <ele>2045.8</ele>
        <time>2022-01-14T09:07:07Z</time>
      </trkpt>
      <trkpt lat="44.99347" lon="6.46101">
        <ele>2045.8</ele>
        <time>2022-01-14T09:07:08Z</time>
      </trkpt>
      <trkpt lat="44.99347" lon="6.46101">
        <ele>2045.8</ele>
        <time>2022-01-14T09:07:09Z</time>
      </trkpt>
      <trkpt lat="44.99347" lon="6.46101">
        <ele>2045.8</ele>
        <time>2022-01-14T09:07:10Z</time>
      </trkpt>
      <trkpt lat="44.99347" lon="6.46101">
        <ele>2045.8</ele>
        <time>2022-01-14T09:07:11Z</time>
      </trkpt>
      <trkpt lat="44.99347" lon="6.461">
        <ele>2045.8</ele>
        <time>2022-01-14T09:07:12Z</time>
      </trkpt>
      <trkpt lat="44.99347" lon="6.461">
        <ele>2045.8</ele>
        <time>2022-01-14T09:07:13Z</time>
      </trkpt>
      <trkpt lat="44.99347" lon="6.461">
        <ele>2045.8</ele>
        <time>2022-01-14T09:07:14Z</time>
      </trkpt>
      <trkpt lat="44.99347" lon="6.46099">
        <ele>2045.8</ele>
        <time>2022-01-14T09:07:15Z</time>
      </trkpt>
      <trkpt lat="44.99347" lon="6.46099">
        <ele>2045.8</ele>
        <time>2022-01-14T09:07:16Z</time>
      </trkpt>
      <trkpt lat="44.99347" lon="6.46099">
        <ele>2053.1</ele>
        <time>2022-01-14T09:07:17Z</time>
      </trkpt>
      <trkpt lat="44.99347" lon="6.46099">
        <ele>2053.1</ele>
        <time>2022-01-14T09:07:18Z</time>
      </trkpt>
      <trkpt lat="44.99347" lon="6.46099">
        <ele>2053.1</ele>
        <time>2022-01-14T09:07:19Z</time>
      </trkpt>
      <trkpt lat="44.99347" lon="6.46098">
        <ele>2053.1</ele>
        <time>2022-01-14T09:07:20Z</time>
      </trkpt>
      <trkpt lat="44.99347" lon="6.46098">
        <ele>2053.1</ele>
        <time>2022-01-14T09:07:21Z</time>
      </trkpt>
      <trkpt lat="44.99346" lon="6.46098">
        <ele>2053.1</ele>
        <time>2022-01-14T09:07:22Z</time>
      </trkpt>
      <trkpt lat="44.99346" lon="6.46098">
        <ele>2053.1</ele>
        <time>2022-01-14T09:07:23Z</time>
      </trkpt>
      <trkpt lat="44.99346" lon="6.46098">
        <ele>2053.1</ele>
        <time>2022-01-14T09:07:24Z</time>
      </trkpt>
      <trkpt lat="44.99346" lon="6.46097">
        <ele>2053.1</ele>
        <time>2022-01-14T09:07:25Z</time>
      </trkpt>
      <trkpt lat="44.99346" lon="6.46098">
        <ele>2053.1</ele>
        <time>2022-01-14T09:07:26Z</time>
      </trkpt>
      <trkpt lat="44.99346" lon="6.46097">
        <ele>2053.1</ele>
        <time>2022-01-14T09:07:27Z</time>
      </trkpt>
      <trkpt lat="44.99346" lon="6.46097">
        <ele>2053.1</ele>
        <time>2022-01-14T09:07:28Z</time>
      </trkpt>
      <trkpt lat="44.99346" lon="6.46097">
        <ele>2053.1</ele>
        <time>2022-01-14T09:07:29Z</time>
      </trkpt>
      <trkpt lat="44.99346" lon="6.46097">
        <ele>2053.1</ele>
        <time>2022-01-14T09:07:30Z</time>
      </trkpt>
      <trkpt lat="44.99346" lon="6.46097">
        <ele>2053.1</ele>
        <time>2022-01-14T09:07:31Z</time>
      </trkpt>
      <trkpt lat="44.99346" lon="6.46097">
        <ele>2053.1</ele>
        <time>2022-01-14T09:07:32Z</time>
      </trkpt>
      <trkpt lat="44.99346" lon="6.46097">
        <ele>2053.1</ele>
        <time>2022-01-14T09:07:33Z</time>
      </trkpt>
      <trkpt lat="44.99346" lon="6.46096">
        <ele>2053.1</ele>
        <time>2022-01-14T09:07:34Z</time>
      </trkpt>
      <trkpt lat="44.99346" lon="6.46095">
        <ele>2053.1</ele>
        <time>2022-01-14T09:07:35Z</time>
      </trkpt>
      <trkpt lat="44.99347" lon="6.46094">
        <ele>2053.1</ele>
        <time>2022-01-14T09:07:36Z</time>
      </trkpt>
      <trkpt lat="44.99347" lon="6.46094">
        <ele>2053.1</ele>
        <time>2022-01-14T09:07:37Z</time>
      </trkpt>
      <trkpt lat="44.99347" lon="6.46094">
        <ele>2053.1</ele>
        <time>2022-01-14T09:07:38Z</time>
      </trkpt>
      <trkpt lat="44.99347" lon="6.46094">
        <ele>2053.1</ele>
        <time>2022-01-14T09:07:39Z</time>
      </trkpt>
      <trkpt lat="44.99347" lon="6.46094">
        <ele>2053.1</ele>
        <time>2022-01-14T09:07:40Z</time>
      </trkpt>
      <trkpt lat="44.99347" lon="6.46094">
        <ele>2053.1</ele>
        <time>2022-01-14T09:07:41Z</time>
      </trkpt>
      <trkpt lat="44.99347" lon="6.46094">
        <ele>2053.1</ele>
        <time>2022-01-14T09:07:42Z</time>
      </trkpt>
      <trkpt lat="44.99347" lon="6.46094">
        <ele>2053.1</ele>
        <time>2022-01-14T09:07:43Z</time>
      </trkpt>
      <trkpt lat="44.99347" lon="6.46094">
        <ele>2053.1</ele>
        <time>2022-01-14T09:07:44Z</time>
      </trkpt>
      <trkpt lat="44.99347" lon="6.46093">
        <ele>2053.1</ele>
        <time>2022-01-14T09:07:45Z</time>
      </trkpt>
      <trkpt lat="44.99347" lon="6.46094">
        <ele>2053.1</ele>
        <time>2022-01-14T09:07:46Z</time>
      </trkpt>
      <trkpt lat="44.99347" lon="6.46094">
        <ele>2053.1</ele>
        <time>2022-01-14T09:07:47Z</time>
      </trkpt>
      <trkpt lat="44.99347" lon="6.46095">
        <ele>2053.1</ele>
        <time>2022-01-14T09:07:48Z</time>
      </trkpt>
      <trkpt lat="44.99347" lon="6.46095">
        <ele>2053.1</ele>
        <time>2022-01-14T09:07:49Z</time>
      </trkpt>
      <trkpt lat="44.99347" lon="6.46095">
        <ele>2053.1</ele>
        <time>2022-01-14T09:07:50Z</time>
      </trkpt>
      <trkpt lat="44.99347" lon="6.46096">
        <ele>2053.1</ele>
        <time>2022-01-14T09:07:51Z</time>
      </trkpt>
      <trkpt lat="44.99348" lon="6.46096">
        <ele>2053.1</ele>
        <time>2022-01-14T09:07:52Z</time>
      </trkpt>
      <trkpt lat="44.99348" lon="6.46096">
        <ele>2053.1</ele>
        <time>2022-01-14T09:07:53Z</time>
      </trkpt>
      <trkpt lat="44.99348" lon="6.46096">
        <ele>2053.1</ele>
        <time>2022-01-14T09:07:54Z</time>
      </trkpt>
      <trkpt lat="44.99348" lon="6.46097">
        <ele>2053.1</ele>
        <time>2022-01-14T09:07:55Z</time>
      </trkpt>
      <trkpt lat="44.99348" lon="6.46097">
        <ele>2053.1</ele>
        <time>2022-01-14T09:07:56Z</time>
      </trkpt>
      <trkpt lat="44.99348" lon="6.46097">
        <ele>2053.1</ele>
        <time>2022-01-14T09:07:57Z</time>
      </trkpt>
      <trkpt lat="44.99348" lon="6.46097">
        <ele>2053.1</ele>
        <time>2022-01-14T09:07:58Z</time>
      </trkpt>
      <trkpt lat="44.99347" lon="6.46098">
        <ele>2053.1</ele>
        <time>2022-01-14T09:07:59Z</time>
      </trkpt>
      <trkpt lat="44.99347" lon="6.46099">
        <ele>2053.1</ele>
        <time>2022-01-14T09:08:00Z</time>
      </trkpt>
      <trkpt lat="44.99345" lon="6.461">
        <ele>2049</ele>
        <time>2022-01-14T09:08:01Z</time>
      </trkpt>
      <trkpt lat="44.99345" lon="6.461">
        <ele>2049</ele>
        <time>2022-01-14T09:08:02Z</time>
      </trkpt>
      <trkpt lat="44.99345" lon="6.461">
        <ele>2049</ele>
        <time>2022-01-14T09:08:03Z</time>
      </trkpt>
      <trkpt lat="44.99345" lon="6.461">
        <ele>2049</ele>
        <time>2022-01-14T09:08:04Z</time>
      </trkpt>
      <trkpt lat="44.99346" lon="6.46102">
        <ele>2045.8</ele>
        <time>2022-01-14T09:08:05Z</time>
      </trkpt>
      <trkpt lat="44.99346" lon="6.46101">
        <ele>2045.8</ele>
        <time>2022-01-14T09:08:06Z</time>
      </trkpt>
      <trkpt lat="44.99346" lon="6.46103">
        <ele>2045.8</ele>
        <time>2022-01-14T09:08:07Z</time>
      </trkpt>
      <trkpt lat="44.99346" lon="6.46103">
        <ele>2045.8</ele>
        <time>2022-01-14T09:08:08Z</time>
      </trkpt>
      <trkpt lat="44.99346" lon="6.46103">
        <ele>2045.8</ele>
        <time>2022-01-14T09:08:09Z</time>
      </trkpt>
      <trkpt lat="44.99346" lon="6.46103">
        <ele>2045.8</ele>
        <time>2022-01-14T09:08:10Z</time>
      </trkpt>
      <trkpt lat="44.99346" lon="6.46103">
        <ele>2045.8</ele>
        <time>2022-01-14T09:08:11Z</time>
      </trkpt>
      <trkpt lat="44.99346" lon="6.46103">
        <ele>2045.8</ele>
        <time>2022-01-14T09:08:12Z</time>
      </trkpt>
      <trkpt lat="44.99346" lon="6.46103">
        <ele>2045.8</ele>
        <time>2022-01-14T09:08:13Z</time>
      </trkpt>
      <trkpt lat="44.99346" lon="6.46103">
        <ele>2045.8</ele>
        <time>2022-01-14T09:08:14Z</time>
      </trkpt>
      <trkpt lat="44.99346" lon="6.46103">
        <ele>2045.8</ele>
        <time>2022-01-14T09:08:15Z</time>
      </trkpt>
      <trkpt lat="44.99346" lon="6.46103">
        <ele>2045.8</ele>
        <time>2022-01-14T09:08:16Z</time>
      </trkpt>
      <trkpt lat="44.99346" lon="6.46103">
        <ele>2045.8</ele>
        <time>2022-01-14T09:08:17Z</time>
      </trkpt>
      <trkpt lat="44.99346" lon="6.46103">
        <ele>2045.8</ele>
        <time>2022-01-14T09:08:18Z</time>
      </trkpt>
      <trkpt lat="44.99345" lon="6.46104">
        <ele>2049</ele>
        <time>2022-01-14T09:08:19Z</time>
      </trkpt>
      <trkpt lat="44.99345" lon="6.46104">
        <ele>2049</ele>
        <time>2022-01-14T09:08:20Z</time>
      </trkpt>
      <trkpt lat="44.99344" lon="6.46104">
        <ele>2049</ele>
        <time>2022-01-14T09:08:21Z</time>
      </trkpt>
      <trkpt lat="44.99343" lon="6.46105">
        <ele>2049</ele>
        <time>2022-01-14T09:08:22Z</time>
      </trkpt>
      <trkpt lat="44.99343" lon="6.46106">
        <ele>2049</ele>
        <time>2022-01-14T09:08:23Z</time>
      </trkpt>
      <trkpt lat="44.99343" lon="6.46106">
        <ele>2049</ele>
        <time>2022-01-14T09:08:24Z</time>
      </trkpt>
      <trkpt lat="44.99342" lon="6.46106">
        <ele>2049</ele>
        <time>2022-01-14T09:08:25Z</time>
      </trkpt>
      <trkpt lat="44.99343" lon="6.46105">
        <ele>2049</ele>
        <time>2022-01-14T09:08:26Z</time>
      </trkpt>
      <trkpt lat="44.99343" lon="6.46101">
        <ele>2049</ele>
        <time>2022-01-14T09:08:27Z</time>
      </trkpt>
      <trkpt lat="44.99343" lon="6.461">
        <ele>2049</ele>
        <time>2022-01-14T09:08:28Z</time>
      </trkpt>
      <trkpt lat="44.99342" lon="6.46099">
        <ele>2049</ele>
        <time>2022-01-14T09:08:29Z</time>
      </trkpt>
      <trkpt lat="44.99342" lon="6.46099">
        <ele>2049</ele>
        <time>2022-01-14T09:08:30Z</time>
      </trkpt>
      <trkpt lat="44.99342" lon="6.461">
        <ele>2049</ele>
        <time>2022-01-14T09:08:31Z</time>
      </trkpt>
      <trkpt lat="44.99342" lon="6.461">
        <ele>2049</ele>
        <time>2022-01-14T09:08:32Z</time>
      </trkpt>
      <trkpt lat="44.99342" lon="6.461">
        <ele>2049</ele>
        <time>2022-01-14T09:08:33Z</time>
      </trkpt>
      <trkpt lat="44.99342" lon="6.46099">
        <ele>2055.8</ele>
        <time>2022-01-14T09:08:34Z</time>
      </trkpt>
      <trkpt lat="44.99342" lon="6.46099">
        <ele>2055.8</ele>
        <time>2022-01-14T09:08:35Z</time>
      </trkpt>
      <trkpt lat="44.99342" lon="6.46098">
        <ele>2055.8</ele>
        <time>2022-01-14T09:08:36Z</time>
      </trkpt>
      <trkpt lat="44.99342" lon="6.46101">
        <ele>2049</ele>
        <time>2022-01-14T09:08:37Z</time>
      </trkpt>
      <trkpt lat="44.99342" lon="6.46101">
        <ele>2049</ele>
        <time>2022-01-14T09:08:38Z</time>
      </trkpt>
      <trkpt lat="44.99342" lon="6.46101">
        <ele>2049</ele>
        <time>2022-01-14T09:08:39Z</time>
      </trkpt>
      <trkpt lat="44.99342" lon="6.46101">
        <ele>2049</ele>
        <time>2022-01-14T09:08:40Z</time>
      </trkpt>
      <trkpt lat="44.99342" lon="6.46102">
        <ele>2049</ele>
        <time>2022-01-14T09:08:41Z</time>
      </trkpt>
      <trkpt lat="44.99342" lon="6.46102">
        <ele>2049</ele>
        <time>2022-01-14T09:08:42Z</time>
      </trkpt>
      <trkpt lat="44.99342" lon="6.46102">
        <ele>2049</ele>
        <time>2022-01-14T09:08:43Z</time>
      </trkpt>
      <trkpt lat="44.99342" lon="6.46102">
        <ele>2049</ele>
        <time>2022-01-14T09:08:44Z</time>
      </trkpt>
      <trkpt lat="44.99342" lon="6.46102">
        <ele>2049</ele>
        <time>2022-01-14T09:08:45Z</time>
      </trkpt>
      <trkpt lat="44.99342" lon="6.46102">
        <ele>2049</ele>
        <time>2022-01-14T09:08:46Z</time>
      </trkpt>
      <trkpt lat="44.99342" lon="6.46102">
        <ele>2049</ele>
        <time>2022-01-14T09:08:47Z</time>
      </trkpt>
      <trkpt lat="44.99342" lon="6.46102">
        <ele>2049</ele>
        <time>2022-01-14T09:08:48Z</time>
      </trkpt>
      <trkpt lat="44.99342" lon="6.46102">
        <ele>2049</ele>
        <time>2022-01-14T09:08:49Z</time>
      </trkpt>
      <trkpt lat="44.99342" lon="6.46102">
        <ele>2049</ele>
        <time>2022-01-14T09:08:50Z</time>
      </trkpt>
      <trkpt lat="44.99342" lon="6.46102">
        <ele>2049</ele>
        <time>2022-01-14T09:08:51Z</time>
      </trkpt>
      <trkpt lat="44.99342" lon="6.46102">
        <ele>2049</ele>
        <time>2022-01-14T09:08:52Z</time>
      </trkpt>
      <trkpt lat="44.99342" lon="6.46102">
        <ele>2049</ele>
        <time>2022-01-14T09:08:53Z</time>
      </trkpt>
      <trkpt lat="44.99342" lon="6.46102">
        <ele>2049</ele>
        <time>2022-01-14T09:08:54Z</time>
      </trkpt>
      <trkpt lat="44.99342" lon="6.461">
        <ele>2049</ele>
        <time>2022-01-14T09:08:55Z</time>
      </trkpt>
      <trkpt lat="44.99342" lon="6.46099">
        <ele>2055.8</ele>
        <time>2022-01-14T09:08:56Z</time>
      </trkpt>
      <trkpt lat="44.99342" lon="6.46099">
        <ele>2055.8</ele>
        <time>2022-01-14T09:08:57Z</time>
      </trkpt>
      <trkpt lat="44.99341" lon="6.46099">
        <ele>2049</ele>
        <time>2022-01-14T09:08:58Z</time>
      </trkpt>
      <trkpt lat="44.99341" lon="6.46099">
        <ele>2055.8</ele>
        <time>2022-01-14T09:08:59Z</time>
      </trkpt>
      <trkpt lat="44.99341" lon="6.46099">
        <ele>2055.8</ele>
        <time>2022-01-14T09:09:00Z</time>
      </trkpt>
      <trkpt lat="44.99341" lon="6.46099">
        <ele>2055.8</ele>
        <time>2022-01-14T09:09:01Z</time>
      </trkpt>
      <trkpt lat="44.99341" lon="6.46099">
        <ele>2055.8</ele>
        <time>2022-01-14T09:09:02Z</time>
      </trkpt>
      <trkpt lat="44.99341" lon="6.46099">
        <ele>2055.8</ele>
        <time>2022-01-14T09:09:03Z</time>
      </trkpt>
      <trkpt lat="44.99341" lon="6.46099">
        <ele>2055.8</ele>
        <time>2022-01-14T09:09:04Z</time>
      </trkpt>
      <trkpt lat="44.99341" lon="6.46097">
        <ele>2055.8</ele>
        <time>2022-01-14T09:09:05Z</time>
      </trkpt>
      <trkpt lat="44.99341" lon="6.46096">
        <ele>2055.8</ele>
        <time>2022-01-14T09:09:06Z</time>
      </trkpt>
      <trkpt lat="44.99341" lon="6.46095">
        <ele>2055.8</ele>
        <time>2022-01-14T09:09:08Z</time>
      </trkpt>
      <trkpt lat="44.9934" lon="6.46094">
        <ele>2055.8</ele>
        <time>2022-01-14T09:09:09Z</time>
      </trkpt>
      <trkpt lat="44.9934" lon="6.46094">
        <ele>2055.8</ele>
        <time>2022-01-14T09:09:10Z</time>
      </trkpt>
      <trkpt lat="44.9934" lon="6.46094">
        <ele>2055.8</ele>
        <time>2022-01-14T09:09:11Z</time>
      </trkpt>
      <trkpt lat="44.99339" lon="6.46094">
        <ele>2055.8</ele>
        <time>2022-01-14T09:09:12Z</time>
      </trkpt>
      <trkpt lat="44.99339" lon="6.46094">
        <ele>2055.8</ele>
        <time>2022-01-14T09:09:13Z</time>
      </trkpt>
      <trkpt lat="44.99339" lon="6.46094">
        <ele>2055.8</ele>
        <time>2022-01-14T09:09:14Z</time>
      </trkpt>
      <trkpt lat="44.99339" lon="6.46094">
        <ele>2055.8</ele>
        <time>2022-01-14T09:09:16Z</time>
      </trkpt>
      <trkpt lat="44.99338" lon="6.46095">
        <ele>2055.8</ele>
        <time>2022-01-14T09:09:17Z</time>
      </trkpt>
      <trkpt lat="44.99336" lon="6.46095">
        <ele>2055.8</ele>
        <time>2022-01-14T09:09:18Z</time>
      </trkpt>
      <trkpt lat="44.99334" lon="6.46095">
        <ele>2055.8</ele>
        <time>2022-01-14T09:09:19Z</time>
      </trkpt>
      <trkpt lat="44.99333" lon="6.46096">
        <ele>2058.5</ele>
        <time>2022-01-14T09:09:20Z</time>
      </trkpt>
      <trkpt lat="44.9933" lon="6.46097">
        <ele>2058.5</ele>
        <time>2022-01-14T09:09:21Z</time>
      </trkpt>
      <trkpt lat="44.99329" lon="6.46097">
        <ele>2058.5</ele>
        <time>2022-01-14T09:09:22Z</time>
      </trkpt>
      <trkpt lat="44.99328" lon="6.46097">
        <ele>2058.5</ele>
        <time>2022-01-14T09:09:23Z</time>
      </trkpt>
      <trkpt lat="44.99326" lon="6.46097">
        <ele>2058.5</ele>
        <time>2022-01-14T09:09:24Z</time>
      </trkpt>
      <trkpt lat="44.99324" lon="6.46097">
        <ele>2058.5</ele>
        <time>2022-01-14T09:09:25Z</time>
      </trkpt>
      <trkpt lat="44.99323" lon="6.46097">
        <ele>2058.5</ele>
        <time>2022-01-14T09:09:26Z</time>
      </trkpt>
      <trkpt lat="44.99323" lon="6.46096">
        <ele>2058.5</ele>
        <time>2022-01-14T09:09:27Z</time>
      </trkpt>
      <trkpt lat="44.99323" lon="6.46097">
        <ele>2058.5</ele>
        <time>2022-01-14T09:09:28Z</time>
      </trkpt>
      <trkpt lat="44.99323" lon="6.46097">
        <ele>2058.5</ele>
        <time>2022-01-14T09:09:29Z</time>
      </trkpt>
      <trkpt lat="44.99323" lon="6.46097">
        <ele>2058.5</ele>
        <time>2022-01-14T09:09:30Z</time>
      </trkpt>
      <trkpt lat="44.99323" lon="6.46097">
        <ele>2058.5</ele>
        <time>2022-01-14T09:09:31Z</time>
      </trkpt>
      <trkpt lat="44.99323" lon="6.46097">
        <ele>2058.5</ele>
        <time>2022-01-14T09:09:32Z</time>
      </trkpt>
      <trkpt lat="44.99323" lon="6.46098">
        <ele>2058.5</ele>
        <time>2022-01-14T09:09:33Z</time>
      </trkpt>
      <trkpt lat="44.99324" lon="6.46098">
        <ele>2058.5</ele>
        <time>2022-01-14T09:09:34Z</time>
      </trkpt>
      <trkpt lat="44.99324" lon="6.46098">
        <ele>2058.5</ele>
        <time>2022-01-14T09:09:35Z</time>
      </trkpt>
      <trkpt lat="44.99324" lon="6.46098">
        <ele>2058.5</ele>
        <time>2022-01-14T09:09:36Z</time>
      </trkpt>
      <trkpt lat="44.99324" lon="6.46098">
        <ele>2058.5</ele>
        <time>2022-01-14T09:09:37Z</time>
      </trkpt>
      <trkpt lat="44.99324" lon="6.46098">
        <ele>2058.5</ele>
        <time>2022-01-14T09:09:38Z</time>
      </trkpt>
      <trkpt lat="44.99324" lon="6.46098">
        <ele>2058.5</ele>
        <time>2022-01-14T09:09:39Z</time>
      </trkpt>
      <trkpt lat="44.99324" lon="6.46098">
        <ele>2058.5</ele>
        <time>2022-01-14T09:09:40Z</time>
      </trkpt>
      <trkpt lat="44.99324" lon="6.46098">
        <ele>2058.5</ele>
        <time>2022-01-14T09:09:41Z</time>
      </trkpt>
      <trkpt lat="44.99324" lon="6.46098">
        <ele>2058.5</ele>
        <time>2022-01-14T09:09:42Z</time>
      </trkpt>
      <trkpt lat="44.99324" lon="6.46097">
        <ele>2058.5</ele>
        <time>2022-01-14T09:09:43Z</time>
      </trkpt>
      <trkpt lat="44.99324" lon="6.46097">
        <ele>2058.5</ele>
        <time>2022-01-14T09:09:44Z</time>
      </trkpt>
      <trkpt lat="44.99324" lon="6.46097">
        <ele>2058.5</ele>
        <time>2022-01-14T09:09:45Z</time>
      </trkpt>
      <trkpt lat="44.99324" lon="6.46097">
        <ele>2058.5</ele>
        <time>2022-01-14T09:09:46Z</time>
      </trkpt>
      <trkpt lat="44.99325" lon="6.46097">
        <ele>2058.5</ele>
        <time>2022-01-14T09:09:47Z</time>
      </trkpt>
      <trkpt lat="44.99325" lon="6.46097">
        <ele>2058.5</ele>
        <time>2022-01-14T09:09:48Z</time>
      </trkpt>
      <trkpt lat="44.99325" lon="6.46097">
        <ele>2058.5</ele>
        <time>2022-01-14T09:09:49Z</time>
      </trkpt>
      <trkpt lat="44.99325" lon="6.46097">
        <ele>2058.5</ele>
        <time>2022-01-14T09:09:50Z</time>
      </trkpt>
      <trkpt lat="44.99325" lon="6.46097">
        <ele>2058.5</ele>
        <time>2022-01-14T09:09:51Z</time>
      </trkpt>
      <trkpt lat="44.99326" lon="6.46097">
        <ele>2058.5</ele>
        <time>2022-01-14T09:09:52Z</time>
      </trkpt>
      <trkpt lat="44.99326" lon="6.46097">
        <ele>2058.5</ele>
        <time>2022-01-14T09:09:53Z</time>
      </trkpt>
      <trkpt lat="44.99326" lon="6.46097">
        <ele>2058.5</ele>
        <time>2022-01-14T09:09:54Z</time>
      </trkpt>
      <trkpt lat="44.99326" lon="6.46096">
        <ele>2058.5</ele>
        <time>2022-01-14T09:09:55Z</time>
      </trkpt>
      <trkpt lat="44.99326" lon="6.46096">
        <ele>2058.5</ele>
        <time>2022-01-14T09:09:56Z</time>
      </trkpt>
      <trkpt lat="44.99326" lon="6.46096">
        <ele>2058.5</ele>
        <time>2022-01-14T09:09:57Z</time>
      </trkpt>
      <trkpt lat="44.99326" lon="6.46096">
        <ele>2058.5</ele>
        <time>2022-01-14T09:09:58Z</time>
      </trkpt>
      <trkpt lat="44.99326" lon="6.46096">
        <ele>2058.5</ele>
        <time>2022-01-14T09:09:59Z</time>
      </trkpt>
      <trkpt lat="44.99326" lon="6.46096">
        <ele>2058.5</ele>
        <time>2022-01-14T09:10:00Z</time>
      </trkpt>
      <trkpt lat="44.99326" lon="6.46096">
        <ele>2058.5</ele>
        <time>2022-01-14T09:10:01Z</time>
      </trkpt>
      <trkpt lat="44.99326" lon="6.46096">
        <ele>2058.5</ele>
        <time>2022-01-14T09:10:02Z</time>
      </trkpt>
      <trkpt lat="44.99326" lon="6.46096">
        <ele>2058.5</ele>
        <time>2022-01-14T09:10:03Z</time>
      </trkpt>
      <trkpt lat="44.99327" lon="6.46096">
        <ele>2058.5</ele>
        <time>2022-01-14T09:10:04Z</time>
      </trkpt>
      <trkpt lat="44.99327" lon="6.46096">
        <ele>2058.5</ele>
        <time>2022-01-14T09:10:05Z</time>
      </trkpt>
      <trkpt lat="44.99327" lon="6.46096">
        <ele>2058.5</ele>
        <time>2022-01-14T09:10:06Z</time>
      </trkpt>
      <trkpt lat="44.99327" lon="6.46096">
        <ele>2058.5</ele>
        <time>2022-01-14T09:10:07Z</time>
      </trkpt>
      <trkpt lat="44.99327" lon="6.46095">
        <ele>2058.5</ele>
        <time>2022-01-14T09:10:08Z</time>
      </trkpt>
      <trkpt lat="44.99326" lon="6.46095">
        <ele>2058.5</ele>
        <time>2022-01-14T09:10:09Z</time>
      </trkpt>
      <trkpt lat="44.99326" lon="6.46094">
        <ele>2058.5</ele>
        <time>2022-01-14T09:10:10Z</time>
      </trkpt>
      <trkpt lat="44.99327" lon="6.46094">
        <ele>2058.5</ele>
        <time>2022-01-14T09:10:11Z</time>
      </trkpt>
      <trkpt lat="44.99327" lon="6.46094">
        <ele>2058.5</ele>
        <time>2022-01-14T09:10:12Z</time>
      </trkpt>
      <trkpt lat="44.99327" lon="6.46094">
        <ele>2058.5</ele>
        <time>2022-01-14T09:10:13Z</time>
      </trkpt>
      <trkpt lat="44.99328" lon="6.46094">
        <ele>2058.5</ele>
        <time>2022-01-14T09:10:14Z</time>
      </trkpt>
      <trkpt lat="44.99328" lon="6.46094">
        <ele>2058.5</ele>
        <time>2022-01-14T09:10:15Z</time>
      </trkpt>
      <trkpt lat="44.99328" lon="6.46094">
        <ele>2058.5</ele>
        <time>2022-01-14T09:10:16Z</time>
      </trkpt>
      <trkpt lat="44.99328" lon="6.46094">
        <ele>2058.5</ele>
        <time>2022-01-14T09:10:17Z</time>
      </trkpt>
      <trkpt lat="44.99328" lon="6.46093">
        <ele>2058.5</ele>
        <time>2022-01-14T09:10:18Z</time>
      </trkpt>
      <trkpt lat="44.99328" lon="6.46093">
        <ele>2058.5</ele>
        <time>2022-01-14T09:10:19Z</time>
      </trkpt>
      <trkpt lat="44.99328" lon="6.46093">
        <ele>2058.5</ele>
        <time>2022-01-14T09:10:20Z</time>
      </trkpt>
      <trkpt lat="44.99328" lon="6.46093">
        <ele>2058.5</ele>
        <time>2022-01-14T09:10:21Z</time>
      </trkpt>
      <trkpt lat="44.99328" lon="6.46094">
        <ele>2058.5</ele>
        <time>2022-01-14T09:10:22Z</time>
      </trkpt>
      <trkpt lat="44.99328" lon="6.46094">
        <ele>2058.5</ele>
        <time>2022-01-14T09:10:23Z</time>
      </trkpt>
      <trkpt lat="44.99328" lon="6.46094">
        <ele>2058.5</ele>
        <time>2022-01-14T09:10:24Z</time>
      </trkpt>
      <trkpt lat="44.99329" lon="6.46094">
        <ele>2058.5</ele>
        <time>2022-01-14T09:10:25Z</time>
      </trkpt>
      <trkpt lat="44.99329" lon="6.46094">
        <ele>2058.5</ele>
        <time>2022-01-14T09:10:26Z</time>
      </trkpt>
      <trkpt lat="44.99329" lon="6.46095">
        <ele>2058.5</ele>
        <time>2022-01-14T09:10:27Z</time>
      </trkpt>
      <trkpt lat="44.99329" lon="6.46095">
        <ele>2058.5</ele>
        <time>2022-01-14T09:10:28Z</time>
      </trkpt>
      <trkpt lat="44.99329" lon="6.46095">
        <ele>2058.5</ele>
        <time>2022-01-14T09:10:29Z</time>
      </trkpt>
      <trkpt lat="44.99329" lon="6.46095">
        <ele>2058.5</ele>
        <time>2022-01-14T09:10:30Z</time>
      </trkpt>
      <trkpt lat="44.99329" lon="6.46095">
        <ele>2058.5</ele>
        <time>2022-01-14T09:10:31Z</time>
      </trkpt>
      <trkpt lat="44.99329" lon="6.46095">
        <ele>2058.5</ele>
        <time>2022-01-14T09:10:32Z</time>
      </trkpt>
      <trkpt lat="44.99329" lon="6.46095">
        <ele>2058.5</ele>
        <time>2022-01-14T09:10:33Z</time>
      </trkpt>
      <trkpt lat="44.99329" lon="6.46095">
        <ele>2058.5</ele>
        <time>2022-01-14T09:10:34Z</time>
      </trkpt>
      <trkpt lat="44.99329" lon="6.46095">
        <ele>2058.5</ele>
        <time>2022-01-14T09:10:35Z</time>
      </trkpt>
      <trkpt lat="44.9933" lon="6.46094">
        <ele>2058.5</ele>
        <time>2022-01-14T09:10:36Z</time>
      </trkpt>
      <trkpt lat="44.9933" lon="6.46094">
        <ele>2058.5</ele>
        <time>2022-01-14T09:10:37Z</time>
      </trkpt>
      <trkpt lat="44.99331" lon="6.46093">
        <ele>2058.5</ele>
        <time>2022-01-14T09:10:38Z</time>
      </trkpt>
      <trkpt lat="44.99332" lon="6.46092">
        <ele>2058.5</ele>
        <time>2022-01-14T09:10:39Z</time>
      </trkpt>
      <trkpt lat="44.99332" lon="6.46091">
        <ele>2058.5</ele>
        <time>2022-01-14T09:10:40Z</time>
      </trkpt>
      <trkpt lat="44.99332" lon="6.46091">
        <ele>2058.5</ele>
        <time>2022-01-14T09:10:41Z</time>
      </trkpt>
      <trkpt lat="44.99332" lon="6.46091">
        <ele>2058.5</ele>
        <time>2022-01-14T09:10:42Z</time>
      </trkpt>
      <trkpt lat="44.99332" lon="6.46091">
        <ele>2058.5</ele>
        <time>2022-01-14T09:10:43Z</time>
      </trkpt>
      <trkpt lat="44.99332" lon="6.46091">
        <ele>2058.5</ele>
        <time>2022-01-14T09:10:44Z</time>
      </trkpt>
      <trkpt lat="44.99332" lon="6.46091">
        <ele>2058.5</ele>
        <time>2022-01-14T09:10:45Z</time>
      </trkpt>
      <trkpt lat="44.99332" lon="6.46091">
        <ele>2058.5</ele>
        <time>2022-01-14T09:10:46Z</time>
      </trkpt>
      <trkpt lat="44.99332" lon="6.46091">
        <ele>2058.5</ele>
        <time>2022-01-14T09:10:47Z</time>
      </trkpt>
      <trkpt lat="44.99332" lon="6.46091">
        <ele>2058.5</ele>
        <time>2022-01-14T09:10:48Z</time>
      </trkpt>
      <trkpt lat="44.99332" lon="6.46091">
        <ele>2058.5</ele>
        <time>2022-01-14T09:10:49Z</time>
      </trkpt>
      <trkpt lat="44.99333" lon="6.46091">
        <ele>2058.5</ele>
        <time>2022-01-14T09:10:50Z</time>
      </trkpt>
      <trkpt lat="44.99332" lon="6.46092">
        <ele>2058.5</ele>
        <time>2022-01-14T09:10:51Z</time>
      </trkpt>
      <trkpt lat="44.99333" lon="6.46092">
        <ele>2058.5</ele>
        <time>2022-01-14T09:10:52Z</time>
      </trkpt>
      <trkpt lat="44.99333" lon="6.46091">
        <ele>2055.8</ele>
        <time>2022-01-14T09:10:53Z</time>
      </trkpt>
      <trkpt lat="44.99333" lon="6.46092">
        <ele>2058.5</ele>
        <time>2022-01-14T09:10:54Z</time>
      </trkpt>
      <trkpt lat="44.99333" lon="6.46092">
        <ele>2058.5</ele>
        <time>2022-01-14T09:10:55Z</time>
      </trkpt>
      <trkpt lat="44.99332" lon="6.46092">
        <ele>2058.5</ele>
        <time>2022-01-14T09:10:56Z</time>
      </trkpt>
      <trkpt lat="44.99332" lon="6.46093">
        <ele>2058.5</ele>
        <time>2022-01-14T09:10:57Z</time>
      </trkpt>
      <trkpt lat="44.99332" lon="6.46093">
        <ele>2058.5</ele>
        <time>2022-01-14T09:10:58Z</time>
      </trkpt>
      <trkpt lat="44.99332" lon="6.46093">
        <ele>2058.5</ele>
        <time>2022-01-14T09:10:59Z</time>
      </trkpt>
      <trkpt lat="44.99332" lon="6.46093">
        <ele>2058.5</ele>
        <time>2022-01-14T09:11:00Z</time>
      </trkpt>
      <trkpt lat="44.99332" lon="6.46093">
        <ele>2058.5</ele>
        <time>2022-01-14T09:11:01Z</time>
      </trkpt>
      <trkpt lat="44.99332" lon="6.46093">
        <ele>2058.5</ele>
        <time>2022-01-14T09:11:02Z</time>
      </trkpt>
      <trkpt lat="44.99332" lon="6.46092">
        <ele>2058.5</ele>
        <time>2022-01-14T09:11:03Z</time>
      </trkpt>
      <trkpt lat="44.99331" lon="6.46091">
        <ele>2058.5</ele>
        <time>2022-01-14T09:11:04Z</time>
      </trkpt>
      <trkpt lat="44.99331" lon="6.46091">
        <ele>2058.5</ele>
        <time>2022-01-14T09:11:05Z</time>
      </trkpt>
      <trkpt lat="44.99331" lon="6.46091">
        <ele>2058.5</ele>
        <time>2022-01-14T09:11:06Z</time>
      </trkpt>
      <trkpt lat="44.99331" lon="6.46091">
        <ele>2058.5</ele>
        <time>2022-01-14T09:11:07Z</time>
      </trkpt>
      <trkpt lat="44.99331" lon="6.4609">
        <ele>2058.5</ele>
        <time>2022-01-14T09:11:08Z</time>
      </trkpt>
      <trkpt lat="44.99331" lon="6.4609">
        <ele>2058.5</ele>
        <time>2022-01-14T09:11:09Z</time>
      </trkpt>
      <trkpt lat="44.99332" lon="6.4609">
        <ele>2058.5</ele>
        <time>2022-01-14T09:11:10Z</time>
      </trkpt>
      <trkpt lat="44.99333" lon="6.46089">
        <ele>2058.5</ele>
        <time>2022-01-14T09:11:11Z</time>
      </trkpt>
      <trkpt lat="44.99333" lon="6.46089">
        <ele>2058.5</ele>
        <time>2022-01-14T09:11:12Z</time>
      </trkpt>
      <trkpt lat="44.99332" lon="6.46088">
        <ele>2058.5</ele>
        <time>2022-01-14T09:11:13Z</time>
      </trkpt>
      <trkpt lat="44.99332" lon="6.46087">
        <ele>2058.5</ele>
        <time>2022-01-14T09:11:14Z</time>
      </trkpt>
      <trkpt lat="44.99331" lon="6.46086">
        <ele>2058.5</ele>
        <time>2022-01-14T09:11:15Z</time>
      </trkpt>
      <trkpt lat="44.99332" lon="6.46086">
        <ele>2058.5</ele>
        <time>2022-01-14T09:11:16Z</time>
      </trkpt>
      <trkpt lat="44.99331" lon="6.46085">
        <ele>2058.5</ele>
        <time>2022-01-14T09:11:17Z</time>
      </trkpt>
      <trkpt lat="44.9933" lon="6.46085">
        <ele>2058.5</ele>
        <time>2022-01-14T09:11:18Z</time>
      </trkpt>
      <trkpt lat="44.9933" lon="6.46085">
        <ele>2058.5</ele>
        <time>2022-01-14T09:11:19Z</time>
      </trkpt>
      <trkpt lat="44.9933" lon="6.46084">
        <ele>2058.5</ele>
        <time>2022-01-14T09:11:20Z</time>
      </trkpt>
      <trkpt lat="44.9933" lon="6.46084">
        <ele>2058.5</ele>
        <time>2022-01-14T09:11:21Z</time>
      </trkpt>
      <trkpt lat="44.9933" lon="6.46084">
        <ele>2058.5</ele>
        <time>2022-01-14T09:11:22Z</time>
      </trkpt>
      <trkpt lat="44.99329" lon="6.46084">
        <ele>2058.5</ele>
        <time>2022-01-14T09:11:23Z</time>
      </trkpt>
      <trkpt lat="44.99329" lon="6.46084">
        <ele>2058.5</ele>
        <time>2022-01-14T09:11:24Z</time>
      </trkpt>
      <trkpt lat="44.99329" lon="6.46084">
        <ele>2058.5</ele>
        <time>2022-01-14T09:11:25Z</time>
      </trkpt>
      <trkpt lat="44.99329" lon="6.46084">
        <ele>2058.5</ele>
        <time>2022-01-14T09:11:26Z</time>
      </trkpt>
      <trkpt lat="44.99329" lon="6.46085">
        <ele>2058.5</ele>
        <time>2022-01-14T09:11:27Z</time>
      </trkpt>
      <trkpt lat="44.99329" lon="6.46084">
        <ele>2058.5</ele>
        <time>2022-01-14T09:11:28Z</time>
      </trkpt>
      <trkpt lat="44.99329" lon="6.46085">
        <ele>2058.5</ele>
        <time>2022-01-14T09:11:29Z</time>
      </trkpt>
      <trkpt lat="44.99329" lon="6.46085">
        <ele>2058.5</ele>
        <time>2022-01-14T09:11:30Z</time>
      </trkpt>
      <trkpt lat="44.99328" lon="6.46085">
        <ele>2058.5</ele>
        <time>2022-01-14T09:11:31Z</time>
      </trkpt>
      <trkpt lat="44.99328" lon="6.46085">
        <ele>2058.5</ele>
        <time>2022-01-14T09:11:32Z</time>
      </trkpt>
      <trkpt lat="44.99328" lon="6.46085">
        <ele>2058.5</ele>
        <time>2022-01-14T09:11:33Z</time>
      </trkpt>
      <trkpt lat="44.99328" lon="6.46085">
        <ele>2058.5</ele>
        <time>2022-01-14T09:11:34Z</time>
      </trkpt>
      <trkpt lat="44.99327" lon="6.46084">
        <ele>2058.5</ele>
        <time>2022-01-14T09:11:35Z</time>
      </trkpt>
      <trkpt lat="44.99327" lon="6.46085">
        <ele>2058.5</ele>
        <time>2022-01-14T09:11:36Z</time>
      </trkpt>
      <trkpt lat="44.99326" lon="6.46085">
        <ele>2058.5</ele>
        <time>2022-01-14T09:11:37Z</time>
      </trkpt>
      <trkpt lat="44.99326" lon="6.46085">
        <ele>2058.5</ele>
        <time>2022-01-14T09:11:38Z</time>
      </trkpt>
      <trkpt lat="44.99326" lon="6.46085">
        <ele>2058.5</ele>
        <time>2022-01-14T09:11:39Z</time>
      </trkpt>
      <trkpt lat="44.99326" lon="6.46085">
        <ele>2058.5</ele>
        <time>2022-01-14T09:11:40Z</time>
      </trkpt>
      <trkpt lat="44.99325" lon="6.46086">
        <ele>2058.5</ele>
        <time>2022-01-14T09:11:41Z</time>
      </trkpt>
      <trkpt lat="44.99325" lon="6.46086">
        <ele>2058.5</ele>
        <time>2022-01-14T09:11:42Z</time>
      </trkpt>
      <trkpt lat="44.99324" lon="6.46085">
        <ele>2058.5</ele>
        <time>2022-01-14T09:11:43Z</time>
      </trkpt>
      <trkpt lat="44.99323" lon="6.46085">
        <ele>2058.5</ele>
        <time>2022-01-14T09:11:44Z</time>
      </trkpt>
      <trkpt lat="44.99323" lon="6.46085">
        <ele>2058.5</ele>
        <time>2022-01-14T09:11:45Z</time>
      </trkpt>
      <trkpt lat="44.99323" lon="6.46085">
        <ele>2058.5</ele>
        <time>2022-01-14T09:11:46Z</time>
      </trkpt>
      <trkpt lat="44.99323" lon="6.46084">
        <ele>2058.5</ele>
        <time>2022-01-14T09:11:47Z</time>
      </trkpt>
      <trkpt lat="44.99323" lon="6.46084">
        <ele>2058.5</ele>
        <time>2022-01-14T09:11:48Z</time>
      </trkpt>
      <trkpt lat="44.99322" lon="6.46084">
        <ele>2058.5</ele>
        <time>2022-01-14T09:11:49Z</time>
      </trkpt>
      <trkpt lat="44.99322" lon="6.46084">
        <ele>2058.5</ele>
        <time>2022-01-14T09:11:50Z</time>
      </trkpt>
      <trkpt lat="44.99322" lon="6.46084">
        <ele>2058.5</ele>
        <time>2022-01-14T09:11:51Z</time>
      </trkpt>
      <trkpt lat="44.99322" lon="6.46084">
        <ele>2058.5</ele>
        <time>2022-01-14T09:11:52Z</time>
      </trkpt>
      <trkpt lat="44.99323" lon="6.46084">
        <ele>2058.5</ele>
        <time>2022-01-14T09:11:53Z</time>
      </trkpt>
      <trkpt lat="44.99322" lon="6.46083">
        <ele>2058.5</ele>
        <time>2022-01-14T09:11:54Z</time>
      </trkpt>
      <trkpt lat="44.99322" lon="6.46083">
        <ele>2058.5</ele>
        <time>2022-01-14T09:11:55Z</time>
      </trkpt>
      <trkpt lat="44.99321" lon="6.46082">
        <ele>2060.3</ele>
        <time>2022-01-14T09:11:56Z</time>
      </trkpt>
      <trkpt lat="44.99321" lon="6.46082">
        <ele>2067</ele>
        <time>2022-01-14T09:11:57Z</time>
      </trkpt>
      <trkpt lat="44.9932" lon="6.46082">
        <ele>2060.3</ele>
        <time>2022-01-14T09:11:58Z</time>
      </trkpt>
      <trkpt lat="44.99319" lon="6.46082">
        <ele>2060.3</ele>
        <time>2022-01-14T09:11:59Z</time>
      </trkpt>
      <trkpt lat="44.99318" lon="6.46082">
        <ele>2060.3</ele>
        <time>2022-01-14T09:12:00Z</time>
      </trkpt>
      <trkpt lat="44.99318" lon="6.46082">
        <ele>2060.3</ele>
        <time>2022-01-14T09:12:01Z</time>
      </trkpt>
      <trkpt lat="44.99318" lon="6.46083">
        <ele>2060.3</ele>
        <time>2022-01-14T09:12:02Z</time>
      </trkpt>
      <trkpt lat="44.99318" lon="6.46084">
        <ele>2060.3</ele>
        <time>2022-01-14T09:12:03Z</time>
      </trkpt>
      <trkpt lat="44.99318" lon="6.46084">
        <ele>2060.3</ele>
        <time>2022-01-14T09:12:04Z</time>
      </trkpt>
      <trkpt lat="44.99318" lon="6.46085">
        <ele>2060.3</ele>
        <time>2022-01-14T09:12:05Z</time>
      </trkpt>
      <trkpt lat="44.99318" lon="6.46086">
        <ele>2060.3</ele>
        <time>2022-01-14T09:12:06Z</time>
      </trkpt>
      <trkpt lat="44.99318" lon="6.46086">
        <ele>2060.3</ele>
        <time>2022-01-14T09:12:07Z</time>
      </trkpt>
      <trkpt lat="44.99317" lon="6.46087">
        <ele>2060.3</ele>
        <time>2022-01-14T09:12:08Z</time>
      </trkpt>
      <trkpt lat="44.99317" lon="6.46086">
        <ele>2060.3</ele>
        <time>2022-01-14T09:12:09Z</time>
      </trkpt>
      <trkpt lat="44.99317" lon="6.46087">
        <ele>2060.3</ele>
        <time>2022-01-14T09:12:10Z</time>
      </trkpt>
      <trkpt lat="44.99317" lon="6.46087">
        <ele>2060.3</ele>
        <time>2022-01-14T09:12:11Z</time>
      </trkpt>
      <trkpt lat="44.99318" lon="6.46088">
        <ele>2060.3</ele>
        <time>2022-01-14T09:12:12Z</time>
      </trkpt>
      <trkpt lat="44.99318" lon="6.46088">
        <ele>2060.3</ele>
        <time>2022-01-14T09:12:13Z</time>
      </trkpt>
      <trkpt lat="44.99319" lon="6.46088">
        <ele>2060.3</ele>
        <time>2022-01-14T09:12:14Z</time>
      </trkpt>
      <trkpt lat="44.99319" lon="6.46087">
        <ele>2060.3</ele>
        <time>2022-01-14T09:12:15Z</time>
      </trkpt>
      <trkpt lat="44.9932" lon="6.46086">
        <ele>2060.3</ele>
        <time>2022-01-14T09:12:16Z</time>
      </trkpt>
      <trkpt lat="44.9932" lon="6.46085">
        <ele>2060.3</ele>
        <time>2022-01-14T09:12:17Z</time>
      </trkpt>
      <trkpt lat="44.9932" lon="6.46085">
        <ele>2060.3</ele>
        <time>2022-01-14T09:12:18Z</time>
      </trkpt>
      <trkpt lat="44.99321" lon="6.46085">
        <ele>2060.3</ele>
        <time>2022-01-14T09:12:19Z</time>
      </trkpt>
      <trkpt lat="44.99322" lon="6.46083">
        <ele>2058.5</ele>
        <time>2022-01-14T09:12:20Z</time>
      </trkpt>
      <trkpt lat="44.99322" lon="6.46083">
        <ele>2058.5</ele>
        <time>2022-01-14T09:12:21Z</time>
      </trkpt>
      <trkpt lat="44.99322" lon="6.46083">
        <ele>2058.5</ele>
        <time>2022-01-14T09:12:22Z</time>
      </trkpt>
      <trkpt lat="44.99322" lon="6.46082">
        <ele>2058.5</ele>
        <time>2022-01-14T09:12:23Z</time>
      </trkpt>
      <trkpt lat="44.99322" lon="6.46082">
        <ele>2065.6</ele>
        <time>2022-01-14T09:12:24Z</time>
      </trkpt>
      <trkpt lat="44.99322" lon="6.46081">
        <ele>2065.6</ele>
        <time>2022-01-14T09:12:25Z</time>
      </trkpt>
      <trkpt lat="44.99322" lon="6.4608">
        <ele>2065.6</ele>
        <time>2022-01-14T09:12:26Z</time>
      </trkpt>
      <trkpt lat="44.99323" lon="6.4608">
        <ele>2065.6</ele>
        <time>2022-01-14T09:12:27Z</time>
      </trkpt>
      <trkpt lat="44.99324" lon="6.4608">
        <ele>2065.6</ele>
        <time>2022-01-14T09:12:28Z</time>
      </trkpt>
      <trkpt lat="44.99325" lon="6.46079">
        <ele>2065.6</ele>
        <time>2022-01-14T09:12:29Z</time>
      </trkpt>
      <trkpt lat="44.99325" lon="6.4608">
        <ele>2065.6</ele>
        <time>2022-01-14T09:12:30Z</time>
      </trkpt>
      <trkpt lat="44.99327" lon="6.46079">
        <ele>2065.6</ele>
        <time>2022-01-14T09:12:31Z</time>
      </trkpt>
      <trkpt lat="44.99328" lon="6.46078">
        <ele>2065.6</ele>
        <time>2022-01-14T09:12:32Z</time>
      </trkpt>
      <trkpt lat="44.99328" lon="6.46077">
        <ele>2065.6</ele>
        <time>2022-01-14T09:12:33Z</time>
      </trkpt>
      <trkpt lat="44.99328" lon="6.46077">
        <ele>2065.6</ele>
        <time>2022-01-14T09:12:34Z</time>
      </trkpt>
      <trkpt lat="44.99328" lon="6.46077">
        <ele>2065.6</ele>
        <time>2022-01-14T09:12:35Z</time>
      </trkpt>
      <trkpt lat="44.99328" lon="6.46077">
        <ele>2065.6</ele>
        <time>2022-01-14T09:12:36Z</time>
      </trkpt>
      <trkpt lat="44.99329" lon="6.46076">
        <ele>2065.6</ele>
        <time>2022-01-14T09:12:37Z</time>
      </trkpt>
      <trkpt lat="44.9933" lon="6.46076">
        <ele>2065.6</ele>
        <time>2022-01-14T09:12:38Z</time>
      </trkpt>
      <trkpt lat="44.9933" lon="6.46075">
        <ele>2065.6</ele>
        <time>2022-01-14T09:12:39Z</time>
      </trkpt>
      <trkpt lat="44.9933" lon="6.46075">
        <ele>2065.6</ele>
        <time>2022-01-14T09:12:40Z</time>
      </trkpt>
      <trkpt lat="44.99331" lon="6.46074">
        <ele>2065.6</ele>
        <time>2022-01-14T09:12:41Z</time>
      </trkpt>
      <trkpt lat="44.99332" lon="6.46073">
        <ele>2065.6</ele>
        <time>2022-01-14T09:12:42Z</time>
      </trkpt>
      <trkpt lat="44.99333" lon="6.46073">
        <ele>2065.6</ele>
        <time>2022-01-14T09:12:43Z</time>
      </trkpt>
      <trkpt lat="44.99334" lon="6.46071">
        <ele>2063.3</ele>
        <time>2022-01-14T09:12:44Z</time>
      </trkpt>
      <trkpt lat="44.99334" lon="6.4607">
        <ele>2063.3</ele>
        <time>2022-01-14T09:12:45Z</time>
      </trkpt>
      <trkpt lat="44.99335" lon="6.46069">
        <ele>2063.3</ele>
        <time>2022-01-14T09:12:46Z</time>
      </trkpt>
      <trkpt lat="44.99335" lon="6.46068">
        <ele>2063.3</ele>
        <time>2022-01-14T09:12:47Z</time>
      </trkpt>
      <trkpt lat="44.99336" lon="6.46067">
        <ele>2063.3</ele>
        <time>2022-01-14T09:12:48Z</time>
      </trkpt>
      <trkpt lat="44.99337" lon="6.46067">
        <ele>2063.3</ele>
        <time>2022-01-14T09:12:49Z</time>
      </trkpt>
      <trkpt lat="44.99338" lon="6.46066">
        <ele>2063.3</ele>
        <time>2022-01-14T09:12:50Z</time>
      </trkpt>
      <trkpt lat="44.99338" lon="6.46066">
        <ele>2063.3</ele>
        <time>2022-01-14T09:12:51Z</time>
      </trkpt>
      <trkpt lat="44.99338" lon="6.46066">
        <ele>2063.3</ele>
        <time>2022-01-14T09:12:52Z</time>
      </trkpt>
      <trkpt lat="44.99339" lon="6.46065">
        <ele>2070</ele>
        <time>2022-01-14T09:12:53Z</time>
      </trkpt>
      <trkpt lat="44.9934" lon="6.46065">
        <ele>2070</ele>
        <time>2022-01-14T09:12:54Z</time>
      </trkpt>
      <trkpt lat="44.9934" lon="6.46064">
        <ele>2070</ele>
        <time>2022-01-14T09:12:55Z</time>
      </trkpt>
      <trkpt lat="44.9934" lon="6.46064">
        <ele>2070</ele>
        <time>2022-01-14T09:12:56Z</time>
      </trkpt>
      <trkpt lat="44.9934" lon="6.46063">
        <ele>2070</ele>
        <time>2022-01-14T09:12:57Z</time>
      </trkpt>
      <trkpt lat="44.9934" lon="6.46063">
        <ele>2070</ele>
        <time>2022-01-14T09:12:58Z</time>
      </trkpt>
      <trkpt lat="44.9934" lon="6.46062">
        <ele>2070</ele>
        <time>2022-01-14T09:12:59Z</time>
      </trkpt>
      <trkpt lat="44.99341" lon="6.46061">
        <ele>2070</ele>
        <time>2022-01-14T09:13:00Z</time>
      </trkpt>
      <trkpt lat="44.99341" lon="6.46061">
        <ele>2070</ele>
        <time>2022-01-14T09:13:01Z</time>
      </trkpt>
      <trkpt lat="44.99341" lon="6.4606">
        <ele>2070</ele>
        <time>2022-01-14T09:13:02Z</time>
      </trkpt>
      <trkpt lat="44.99341" lon="6.4606">
        <ele>2070</ele>
        <time>2022-01-14T09:13:03Z</time>
      </trkpt>
      <trkpt lat="44.99341" lon="6.4606">
        <ele>2070</ele>
        <time>2022-01-14T09:13:04Z</time>
      </trkpt>
      <trkpt lat="44.99341" lon="6.46059">
        <ele>2070</ele>
        <time>2022-01-14T09:13:05Z</time>
      </trkpt>
      <trkpt lat="44.99341" lon="6.46059">
        <ele>2070</ele>
        <time>2022-01-14T09:13:06Z</time>
      </trkpt>
      <trkpt lat="44.99342" lon="6.46059">
        <ele>2070</ele>
        <time>2022-01-14T09:13:07Z</time>
      </trkpt>
      <trkpt lat="44.99342" lon="6.46058">
        <ele>2070</ele>
        <time>2022-01-14T09:13:08Z</time>
      </trkpt>
      <trkpt lat="44.99342" lon="6.46058">
        <ele>2070</ele>
        <time>2022-01-14T09:13:09Z</time>
      </trkpt>
      <trkpt lat="44.99342" lon="6.46058">
        <ele>2070</ele>
        <time>2022-01-14T09:13:10Z</time>
      </trkpt>
      <trkpt lat="44.99342" lon="6.46057">
        <ele>2070</ele>
        <time>2022-01-14T09:13:11Z</time>
      </trkpt>
      <trkpt lat="44.99342" lon="6.46057">
        <ele>2070</ele>
        <time>2022-01-14T09:13:12Z</time>
      </trkpt>
      <trkpt lat="44.99342" lon="6.46056">
        <ele>2070</ele>
        <time>2022-01-14T09:13:13Z</time>
      </trkpt>
      <trkpt lat="44.99342" lon="6.46056">
        <ele>2070</ele>
        <time>2022-01-14T09:13:14Z</time>
      </trkpt>
      <trkpt lat="44.99342" lon="6.46056">
        <ele>2070</ele>
        <time>2022-01-14T09:13:15Z</time>
      </trkpt>
      <trkpt lat="44.99342" lon="6.46055">
        <ele>2070</ele>
        <time>2022-01-14T09:13:16Z</time>
      </trkpt>
      <trkpt lat="44.99343" lon="6.46054">
        <ele>2070</ele>
        <time>2022-01-14T09:13:17Z</time>
      </trkpt>
      <trkpt lat="44.99344" lon="6.46054">
        <ele>2070</ele>
        <time>2022-01-14T09:13:18Z</time>
      </trkpt>
      <trkpt lat="44.99344" lon="6.46054">
        <ele>2070</ele>
        <time>2022-01-14T09:13:19Z</time>
      </trkpt>
      <trkpt lat="44.99345" lon="6.46052">
        <ele>2070</ele>
        <time>2022-01-14T09:13:20Z</time>
      </trkpt>
      <trkpt lat="44.99345" lon="6.4605">
        <ele>2070</ele>
        <time>2022-01-14T09:13:21Z</time>
      </trkpt>
      <trkpt lat="44.99345" lon="6.4605">
        <ele>2070</ele>
        <time>2022-01-14T09:13:22Z</time>
      </trkpt>
      <trkpt lat="44.99345" lon="6.4605">
        <ele>2070</ele>
        <time>2022-01-14T09:13:23Z</time>
      </trkpt>
      <trkpt lat="44.99345" lon="6.4605">
        <ele>2070</ele>
        <time>2022-01-14T09:13:24Z</time>
      </trkpt>
      <trkpt lat="44.99344" lon="6.46049">
        <ele>2070</ele>
        <time>2022-01-14T09:13:25Z</time>
      </trkpt>
      <trkpt lat="44.99344" lon="6.46048">
        <ele>2070</ele>
        <time>2022-01-14T09:13:26Z</time>
      </trkpt>
      <trkpt lat="44.99344" lon="6.46048">
        <ele>2076.8</ele>
        <time>2022-01-14T09:13:27Z</time>
      </trkpt>
      <trkpt lat="44.99344" lon="6.46047">
        <ele>2076.8</ele>
        <time>2022-01-14T09:13:28Z</time>
      </trkpt>
      <trkpt lat="44.99344" lon="6.46046">
        <ele>2076.8</ele>
        <time>2022-01-14T09:13:29Z</time>
      </trkpt>
      <trkpt lat="44.99345" lon="6.46046">
        <ele>2076.8</ele>
        <time>2022-01-14T09:13:30Z</time>
      </trkpt>
      <trkpt lat="44.99345" lon="6.46045">
        <ele>2076.8</ele>
        <time>2022-01-14T09:13:31Z</time>
      </trkpt>
      <trkpt lat="44.99345" lon="6.46045">
        <ele>2076.8</ele>
        <time>2022-01-14T09:13:32Z</time>
      </trkpt>
      <trkpt lat="44.99345" lon="6.46046">
        <ele>2076.8</ele>
        <time>2022-01-14T09:13:33Z</time>
      </trkpt>
      <trkpt lat="44.99346" lon="6.46046">
        <ele>2075.4</ele>
        <time>2022-01-14T09:13:34Z</time>
      </trkpt>
      <trkpt lat="44.99346" lon="6.46046">
        <ele>2075.4</ele>
        <time>2022-01-14T09:13:35Z</time>
      </trkpt>
      <trkpt lat="44.99346" lon="6.46046">
        <ele>2075.4</ele>
        <time>2022-01-14T09:13:36Z</time>
      </trkpt>
      <trkpt lat="44.99346" lon="6.46046">
        <ele>2075.4</ele>
        <time>2022-01-14T09:13:37Z</time>
      </trkpt>
      <trkpt lat="44.99346" lon="6.46046">
        <ele>2075.4</ele>
        <time>2022-01-14T09:13:38Z</time>
      </trkpt>
      <trkpt lat="44.99346" lon="6.46046">
        <ele>2075.4</ele>
        <time>2022-01-14T09:13:39Z</time>
      </trkpt>
      <trkpt lat="44.99346" lon="6.46046">
        <ele>2075.4</ele>
        <time>2022-01-14T09:13:40Z</time>
      </trkpt>
      <trkpt lat="44.99346" lon="6.46046">
        <ele>2075.4</ele>
        <time>2022-01-14T09:13:41Z</time>
      </trkpt>
      <trkpt lat="44.99347" lon="6.46045">
        <ele>2075.4</ele>
        <time>2022-01-14T09:13:42Z</time>
      </trkpt>
      <trkpt lat="44.99347" lon="6.46045">
        <ele>2075.4</ele>
        <time>2022-01-14T09:13:43Z</time>
      </trkpt>
      <trkpt lat="44.99347" lon="6.46046">
        <ele>2075.4</ele>
        <time>2022-01-14T09:13:44Z</time>
      </trkpt>
      <trkpt lat="44.99347" lon="6.46046">
        <ele>2075.4</ele>
        <time>2022-01-14T09:13:45Z</time>
      </trkpt>
      <trkpt lat="44.99347" lon="6.46046">
        <ele>2075.4</ele>
        <time>2022-01-14T09:13:46Z</time>
      </trkpt>
      <trkpt lat="44.99348" lon="6.46045">
        <ele>2075.4</ele>
        <time>2022-01-14T09:13:47Z</time>
      </trkpt>
      <trkpt lat="44.99348" lon="6.46044">
        <ele>2075.4</ele>
        <time>2022-01-14T09:13:48Z</time>
      </trkpt>
      <trkpt lat="44.99349" lon="6.46043">
        <ele>2075.4</ele>
        <time>2022-01-14T09:13:49Z</time>
      </trkpt>
      <trkpt lat="44.9935" lon="6.46043">
        <ele>2075.4</ele>
        <time>2022-01-14T09:13:50Z</time>
      </trkpt>
      <trkpt lat="44.9935" lon="6.46043">
        <ele>2075.4</ele>
        <time>2022-01-14T09:13:51Z</time>
      </trkpt>
      <trkpt lat="44.9935" lon="6.46043">
        <ele>2075.4</ele>
        <time>2022-01-14T09:13:52Z</time>
      </trkpt>
      <trkpt lat="44.9935" lon="6.46042">
        <ele>2075.4</ele>
        <time>2022-01-14T09:13:53Z</time>
      </trkpt>
      <trkpt lat="44.99351" lon="6.46043">
        <ele>2075.4</ele>
        <time>2022-01-14T09:13:54Z</time>
      </trkpt>
      <trkpt lat="44.99351" lon="6.46041">
        <ele>2075.4</ele>
        <time>2022-01-14T09:13:55Z</time>
      </trkpt>
      <trkpt lat="44.99352" lon="6.46041">
        <ele>2075.4</ele>
        <time>2022-01-14T09:13:56Z</time>
      </trkpt>
      <trkpt lat="44.99352" lon="6.46042">
        <ele>2075.4</ele>
        <time>2022-01-14T09:13:57Z</time>
      </trkpt>
      <trkpt lat="44.99352" lon="6.46042">
        <ele>2075.4</ele>
        <time>2022-01-14T09:13:58Z</time>
      </trkpt>
      <trkpt lat="44.99353" lon="6.46042">
        <ele>2075.4</ele>
        <time>2022-01-14T09:13:59Z</time>
      </trkpt>
      <trkpt lat="44.99353" lon="6.46042">
        <ele>2075.4</ele>
        <time>2022-01-14T09:14:00Z</time>
      </trkpt>
      <trkpt lat="44.99352" lon="6.46042">
        <ele>2075.4</ele>
        <time>2022-01-14T09:14:01Z</time>
      </trkpt>
      <trkpt lat="44.99352" lon="6.4604">
        <ele>2075.4</ele>
        <time>2022-01-14T09:14:02Z</time>
      </trkpt>
      <trkpt lat="44.99352" lon="6.46038">
        <ele>2075.4</ele>
        <time>2022-01-14T09:14:03Z</time>
      </trkpt>
      <trkpt lat="44.99352" lon="6.46036">
        <ele>2075.4</ele>
        <time>2022-01-14T09:14:04Z</time>
      </trkpt>
      <trkpt lat="44.99352" lon="6.46035">
        <ele>2075.4</ele>
        <time>2022-01-14T09:14:05Z</time>
      </trkpt>
      <trkpt lat="44.99352" lon="6.46034">
        <ele>2075.4</ele>
        <time>2022-01-14T09:14:06Z</time>
      </trkpt>
      <trkpt lat="44.99351" lon="6.46034">
        <ele>2075.4</ele>
        <time>2022-01-14T09:14:07Z</time>
      </trkpt>
      <trkpt lat="44.99351" lon="6.46034">
        <ele>2075.4</ele>
        <time>2022-01-14T09:14:08Z</time>
      </trkpt>
      <trkpt lat="44.9935" lon="6.46032">
        <ele>2075.4</ele>
        <time>2022-01-14T09:14:09Z</time>
      </trkpt>
      <trkpt lat="44.99351" lon="6.46032">
        <ele>2075.4</ele>
        <time>2022-01-14T09:14:10Z</time>
      </trkpt>
      <trkpt lat="44.9935" lon="6.46032">
        <ele>2075.4</ele>
        <time>2022-01-14T09:14:11Z</time>
      </trkpt>
      <trkpt lat="44.99349" lon="6.46033">
        <ele>2075.4</ele>
        <time>2022-01-14T09:14:12Z</time>
      </trkpt>
      <trkpt lat="44.9935" lon="6.46032">
        <ele>2075.4</ele>
        <time>2022-01-14T09:14:13Z</time>
      </trkpt>
      <trkpt lat="44.9935" lon="6.46032">
        <ele>2075.4</ele>
        <time>2022-01-14T09:14:14Z</time>
      </trkpt>
      <trkpt lat="44.9935" lon="6.46031">
        <ele>2075.4</ele>
        <time>2022-01-14T09:14:15Z</time>
      </trkpt>
      <trkpt lat="44.99349" lon="6.4603">
        <ele>2083.6</ele>
        <time>2022-01-14T09:14:16Z</time>
      </trkpt>
      <trkpt lat="44.99349" lon="6.4603">
        <ele>2083.6</ele>
        <time>2022-01-14T09:14:17Z</time>
      </trkpt>
      <trkpt lat="44.99349" lon="6.4603">
        <ele>2083.6</ele>
        <time>2022-01-14T09:14:18Z</time>
      </trkpt>
      <trkpt lat="44.99349" lon="6.4603">
        <ele>2083.6</ele>
        <time>2022-01-14T09:14:19Z</time>
      </trkpt>
      <trkpt lat="44.99349" lon="6.4603">
        <ele>2083.6</ele>
        <time>2022-01-14T09:14:20Z</time>
      </trkpt>
      <trkpt lat="44.99349" lon="6.46029">
        <ele>2083.6</ele>
        <time>2022-01-14T09:14:21Z</time>
      </trkpt>
      <trkpt lat="44.99349" lon="6.46029">
        <ele>2083.6</ele>
        <time>2022-01-14T09:14:22Z</time>
      </trkpt>
      <trkpt lat="44.99349" lon="6.46029">
        <ele>2083.6</ele>
        <time>2022-01-14T09:14:23Z</time>
      </trkpt>
      <trkpt lat="44.99349" lon="6.46029">
        <ele>2083.6</ele>
        <time>2022-01-14T09:14:24Z</time>
      </trkpt>
      <trkpt lat="44.99349" lon="6.46028">
        <ele>2083.6</ele>
        <time>2022-01-14T09:14:25Z</time>
      </trkpt>
      <trkpt lat="44.99349" lon="6.46028">
        <ele>2083.6</ele>
        <time>2022-01-14T09:14:26Z</time>
      </trkpt>
      <trkpt lat="44.99348" lon="6.46028">
        <ele>2083.6</ele>
        <time>2022-01-14T09:14:27Z</time>
      </trkpt>
      <trkpt lat="44.99348" lon="6.46028">
        <ele>2083.6</ele>
        <time>2022-01-14T09:14:28Z</time>
      </trkpt>
      <trkpt lat="44.99348" lon="6.46028">
        <ele>2083.6</ele>
        <time>2022-01-14T09:14:29Z</time>
      </trkpt>
      <trkpt lat="44.99347" lon="6.46028">
        <ele>2083.6</ele>
        <time>2022-01-14T09:14:30Z</time>
      </trkpt>
      <trkpt lat="44.99347" lon="6.46028">
        <ele>2083.6</ele>
        <time>2022-01-14T09:14:31Z</time>
      </trkpt>
      <trkpt lat="44.99348" lon="6.46029">
        <ele>2083.6</ele>
        <time>2022-01-14T09:14:32Z</time>
      </trkpt>
      <trkpt lat="44.99348" lon="6.46029">
        <ele>2083.6</ele>
        <time>2022-01-14T09:14:33Z</time>
      </trkpt>
      <trkpt lat="44.99348" lon="6.46028">
        <ele>2083.6</ele>
        <time>2022-01-14T09:14:34Z</time>
      </trkpt>
      <trkpt lat="44.99348" lon="6.46029">
        <ele>2083.6</ele>
        <time>2022-01-14T09:14:35Z</time>
      </trkpt>
      <trkpt lat="44.99349" lon="6.46028">
        <ele>2083.6</ele>
        <time>2022-01-14T09:14:36Z</time>
      </trkpt>
      <trkpt lat="44.99349" lon="6.46029">
        <ele>2083.6</ele>
        <time>2022-01-14T09:14:37Z</time>
      </trkpt>
      <trkpt lat="44.99349" lon="6.46028">
        <ele>2083.6</ele>
        <time>2022-01-14T09:14:38Z</time>
      </trkpt>
      <trkpt lat="44.9935" lon="6.46028">
        <ele>2083.6</ele>
        <time>2022-01-14T09:14:39Z</time>
      </trkpt>
      <trkpt lat="44.99351" lon="6.46028">
        <ele>2083.6</ele>
        <time>2022-01-14T09:14:40Z</time>
      </trkpt>
      <trkpt lat="44.99351" lon="6.46028">
        <ele>2083.6</ele>
        <time>2022-01-14T09:14:41Z</time>
      </trkpt>
      <trkpt lat="44.99351" lon="6.46028">
        <ele>2083.6</ele>
        <time>2022-01-14T09:14:42Z</time>
      </trkpt>
      <trkpt lat="44.99352" lon="6.46027">
        <ele>2083.6</ele>
        <time>2022-01-14T09:14:43Z</time>
      </trkpt>
      <trkpt lat="44.99352" lon="6.46027">
        <ele>2083.6</ele>
        <time>2022-01-14T09:14:44Z</time>
      </trkpt>
      <trkpt lat="44.99352" lon="6.46028">
        <ele>2083.6</ele>
        <time>2022-01-14T09:14:45Z</time>
      </trkpt>
      <trkpt lat="44.99352" lon="6.46028">
        <ele>2083.6</ele>
        <time>2022-01-14T09:14:46Z</time>
      </trkpt>
      <trkpt lat="44.99352" lon="6.46028">
        <ele>2083.6</ele>
        <time>2022-01-14T09:14:47Z</time>
      </trkpt>
      <trkpt lat="44.99352" lon="6.46028">
        <ele>2083.6</ele>
        <time>2022-01-14T09:14:48Z</time>
      </trkpt>
      <trkpt lat="44.99352" lon="6.46028">
        <ele>2083.6</ele>
        <time>2022-01-14T09:14:49Z</time>
      </trkpt>
      <trkpt lat="44.99352" lon="6.46028">
        <ele>2083.6</ele>
        <time>2022-01-14T09:14:50Z</time>
      </trkpt>
      <trkpt lat="44.99352" lon="6.46028">
        <ele>2083.6</ele>
        <time>2022-01-14T09:14:51Z</time>
      </trkpt>
      <trkpt lat="44.99352" lon="6.46028">
        <ele>2083.6</ele>
        <time>2022-01-14T09:14:52Z</time>
      </trkpt>
      <trkpt lat="44.99352" lon="6.46028">
        <ele>2083.6</ele>
        <time>2022-01-14T09:14:53Z</time>
      </trkpt>
      <trkpt lat="44.99352" lon="6.46028">
        <ele>2083.6</ele>
        <time>2022-01-14T09:14:54Z</time>
      </trkpt>
      <trkpt lat="44.99352" lon="6.46028">
        <ele>2083.6</ele>
        <time>2022-01-14T09:14:55Z</time>
      </trkpt>
      <trkpt lat="44.99352" lon="6.46028">
        <ele>2083.6</ele>
        <time>2022-01-14T09:14:56Z</time>
      </trkpt>
      <trkpt lat="44.99351" lon="6.46028">
        <ele>2083.6</ele>
        <time>2022-01-14T09:14:57Z</time>
      </trkpt>
      <trkpt lat="44.99351" lon="6.46028">
        <ele>2083.6</ele>
        <time>2022-01-14T09:14:58Z</time>
      </trkpt>
      <trkpt lat="44.99351" lon="6.46028">
        <ele>2083.6</ele>
        <time>2022-01-14T09:14:59Z</time>
      </trkpt>
      <trkpt lat="44.99351" lon="6.46028">
        <ele>2083.6</ele>
        <time>2022-01-14T09:15:00Z</time>
      </trkpt>
      <trkpt lat="44.99351" lon="6.46028">
        <ele>2083.6</ele>
        <time>2022-01-14T09:15:01Z</time>
      </trkpt>
      <trkpt lat="44.99351" lon="6.46028">
        <ele>2083.6</ele>
        <time>2022-01-14T09:15:02Z</time>
      </trkpt>
      <trkpt lat="44.99351" lon="6.46028">
        <ele>2083.6</ele>
        <time>2022-01-14T09:15:03Z</time>
      </trkpt>
      <trkpt lat="44.99351" lon="6.46028">
        <ele>2083.6</ele>
        <time>2022-01-14T09:15:04Z</time>
      </trkpt>
      <trkpt lat="44.99351" lon="6.46028">
        <ele>2083.6</ele>
        <time>2022-01-14T09:15:05Z</time>
      </trkpt>
      <trkpt lat="44.99351" lon="6.46028">
        <ele>2083.6</ele>
        <time>2022-01-14T09:15:06Z</time>
      </trkpt>
      <trkpt lat="44.99351" lon="6.46028">
        <ele>2083.6</ele>
        <time>2022-01-14T09:15:07Z</time>
      </trkpt>
      <trkpt lat="44.99351" lon="6.46028">
        <ele>2083.6</ele>
        <time>2022-01-14T09:15:08Z</time>
      </trkpt>
      <trkpt lat="44.99351" lon="6.46028">
        <ele>2083.6</ele>
        <time>2022-01-14T09:15:09Z</time>
      </trkpt>
      <trkpt lat="44.99351" lon="6.46028">
        <ele>2083.6</ele>
        <time>2022-01-14T09:15:10Z</time>
      </trkpt>
      <trkpt lat="44.99351" lon="6.46028">
        <ele>2083.6</ele>
        <time>2022-01-14T09:15:11Z</time>
      </trkpt>
      <trkpt lat="44.99351" lon="6.46028">
        <ele>2083.6</ele>
        <time>2022-01-14T09:15:12Z</time>
      </trkpt>
      <trkpt lat="44.99351" lon="6.46027">
        <ele>2083.6</ele>
        <time>2022-01-14T09:15:13Z</time>
      </trkpt>
      <trkpt lat="44.99351" lon="6.46026">
        <ele>2083.6</ele>
        <time>2022-01-14T09:15:14Z</time>
      </trkpt>
      <trkpt lat="44.99351" lon="6.46025">
        <ele>2083.6</ele>
        <time>2022-01-14T09:15:15Z</time>
      </trkpt>
      <trkpt lat="44.99351" lon="6.46025">
        <ele>2083.6</ele>
        <time>2022-01-14T09:15:16Z</time>
      </trkpt>
      <trkpt lat="44.99351" lon="6.46025">
        <ele>2083.6</ele>
        <time>2022-01-14T09:15:17Z</time>
      </trkpt>
      <trkpt lat="44.99351" lon="6.46025">
        <ele>2083.6</ele>
        <time>2022-01-14T09:15:18Z</time>
      </trkpt>
      <trkpt lat="44.99351" lon="6.46025">
        <ele>2083.6</ele>
        <time>2022-01-14T09:15:19Z</time>
      </trkpt>
      <trkpt lat="44.99351" lon="6.46025">
        <ele>2083.6</ele>
        <time>2022-01-14T09:15:20Z</time>
      </trkpt>
      <trkpt lat="44.99351" lon="6.46025">
        <ele>2083.6</ele>
        <time>2022-01-14T09:15:21Z</time>
      </trkpt>
      <trkpt lat="44.99351" lon="6.46025">
        <ele>2083.6</ele>
        <time>2022-01-14T09:15:22Z</time>
      </trkpt>
      <trkpt lat="44.99351" lon="6.46025">
        <ele>2083.6</ele>
        <time>2022-01-14T09:15:23Z</time>
      </trkpt>
      <trkpt lat="44.99351" lon="6.46024">
        <ele>2083.6</ele>
        <time>2022-01-14T09:15:24Z</time>
      </trkpt>
      <trkpt lat="44.99351" lon="6.46024">
        <ele>2083.6</ele>
        <time>2022-01-14T09:15:25Z</time>
      </trkpt>
      <trkpt lat="44.99351" lon="6.46024">
        <ele>2083.6</ele>
        <time>2022-01-14T09:15:26Z</time>
      </trkpt>
      <trkpt lat="44.99351" lon="6.46024">
        <ele>2083.6</ele>
        <time>2022-01-14T09:15:27Z</time>
      </trkpt>
      <trkpt lat="44.99351" lon="6.46026">
        <ele>2083.6</ele>
        <time>2022-01-14T09:15:28Z</time>
      </trkpt>
      <trkpt lat="44.99352" lon="6.46026">
        <ele>2083.6</ele>
        <time>2022-01-14T09:15:29Z</time>
      </trkpt>
      <trkpt lat="44.99352" lon="6.46026">
        <ele>2083.6</ele>
        <time>2022-01-14T09:15:30Z</time>
      </trkpt>
      <trkpt lat="44.99352" lon="6.46025">
        <ele>2083.6</ele>
        <time>2022-01-14T09:15:31Z</time>
      </trkpt>
      <trkpt lat="44.99353" lon="6.46025">
        <ele>2083.6</ele>
        <time>2022-01-14T09:15:32Z</time>
      </trkpt>
      <trkpt lat="44.99353" lon="6.46025">
        <ele>2083.6</ele>
        <time>2022-01-14T09:15:33Z</time>
      </trkpt>
      <trkpt lat="44.99353" lon="6.46025">
        <ele>2083.6</ele>
        <time>2022-01-14T09:15:34Z</time>
      </trkpt>
      <trkpt lat="44.99352" lon="6.46025">
        <ele>2083.6</ele>
        <time>2022-01-14T09:15:35Z</time>
      </trkpt>
      <trkpt lat="44.99353" lon="6.46026">
        <ele>2083.6</ele>
        <time>2022-01-14T09:15:36Z</time>
      </trkpt>
      <trkpt lat="44.99353" lon="6.46026">
        <ele>2083.6</ele>
        <time>2022-01-14T09:15:37Z</time>
      </trkpt>
      <trkpt lat="44.99354" lon="6.46026">
        <ele>2083.6</ele>
        <time>2022-01-14T09:15:38Z</time>
      </trkpt>
      <trkpt lat="44.99355" lon="6.46025">
        <ele>2083.6</ele>
        <time>2022-01-14T09:15:39Z</time>
      </trkpt>
      <trkpt lat="44.99356" lon="6.46024">
        <ele>2083.6</ele>
        <time>2022-01-14T09:15:40Z</time>
      </trkpt>
      <trkpt lat="44.99357" lon="6.46023">
        <ele>2083.6</ele>
        <time>2022-01-14T09:15:41Z</time>
      </trkpt>
      <trkpt lat="44.99357" lon="6.46023">
        <ele>2083.6</ele>
        <time>2022-01-14T09:15:42Z</time>
      </trkpt>
      <trkpt lat="44.99357" lon="6.46023">
        <ele>2083.6</ele>
        <time>2022-01-14T09:15:43Z</time>
      </trkpt>
      <trkpt lat="44.99357" lon="6.46022">
        <ele>2083.6</ele>
        <time>2022-01-14T09:15:44Z</time>
      </trkpt>
      <trkpt lat="44.99358" lon="6.46022">
        <ele>2083.6</ele>
        <time>2022-01-14T09:15:45Z</time>
      </trkpt>
      <trkpt lat="44.99358" lon="6.46022">
        <ele>2082.2</ele>
        <time>2022-01-14T09:15:46Z</time>
      </trkpt>
      <trkpt lat="44.99358" lon="6.46021">
        <ele>2082.2</ele>
        <time>2022-01-14T09:15:47Z</time>
      </trkpt>
      <trkpt lat="44.99358" lon="6.46021">
        <ele>2082.2</ele>
        <time>2022-01-14T09:15:48Z</time>
      </trkpt>
      <trkpt lat="44.99358" lon="6.4602">
        <ele>2082.2</ele>
        <time>2022-01-14T09:15:49Z</time>
      </trkpt>
      <trkpt lat="44.99358" lon="6.4602">
        <ele>2082.2</ele>
        <time>2022-01-14T09:15:50Z</time>
      </trkpt>
      <trkpt lat="44.99358" lon="6.4602">
        <ele>2082.2</ele>
        <time>2022-01-14T09:15:51Z</time>
      </trkpt>
      <trkpt lat="44.99358" lon="6.4602">
        <ele>2082.2</ele>
        <time>2022-01-14T09:15:52Z</time>
      </trkpt>
      <trkpt lat="44.99358" lon="6.4602">
        <ele>2082.2</ele>
        <time>2022-01-14T09:15:53Z</time>
      </trkpt>
      <trkpt lat="44.99359" lon="6.4602">
        <ele>2082.2</ele>
        <time>2022-01-14T09:15:54Z</time>
      </trkpt>
      <trkpt lat="44.99359" lon="6.4602">
        <ele>2082.2</ele>
        <time>2022-01-14T09:15:55Z</time>
      </trkpt>
      <trkpt lat="44.99359" lon="6.46022">
        <ele>2082.2</ele>
        <time>2022-01-14T09:15:56Z</time>
      </trkpt>
      <trkpt lat="44.99358" lon="6.46022">
        <ele>2082.2</ele>
        <time>2022-01-14T09:15:57Z</time>
      </trkpt>
      <trkpt lat="44.99359" lon="6.46023">
        <ele>2082.2</ele>
        <time>2022-01-14T09:15:58Z</time>
      </trkpt>
      <trkpt lat="44.99359" lon="6.46023">
        <ele>2082.2</ele>
        <time>2022-01-14T09:15:59Z</time>
      </trkpt>
      <trkpt lat="44.99359" lon="6.46023">
        <ele>2082.2</ele>
        <time>2022-01-14T09:16:00Z</time>
      </trkpt>
      <trkpt lat="44.9936" lon="6.46022">
        <ele>2082.2</ele>
        <time>2022-01-14T09:16:01Z</time>
      </trkpt>
      <trkpt lat="44.9936" lon="6.46022">
        <ele>2082.2</ele>
        <time>2022-01-14T09:16:02Z</time>
      </trkpt>
      <trkpt lat="44.9936" lon="6.46022">
        <ele>2082.2</ele>
        <time>2022-01-14T09:16:03Z</time>
      </trkpt>
      <trkpt lat="44.9936" lon="6.4602">
        <ele>2082.2</ele>
        <time>2022-01-14T09:16:04Z</time>
      </trkpt>
      <trkpt lat="44.99361" lon="6.4602">
        <ele>2082.2</ele>
        <time>2022-01-14T09:16:05Z</time>
      </trkpt>
      <trkpt lat="44.99361" lon="6.46019">
        <ele>2082.2</ele>
        <time>2022-01-14T09:16:06Z</time>
      </trkpt>
      <trkpt lat="44.99361" lon="6.46019">
        <ele>2082.2</ele>
        <time>2022-01-14T09:16:07Z</time>
      </trkpt>
      <trkpt lat="44.99362" lon="6.46019">
        <ele>2082.2</ele>
        <time>2022-01-14T09:16:08Z</time>
      </trkpt>
      <trkpt lat="44.99362" lon="6.46018">
        <ele>2082.2</ele>
        <time>2022-01-14T09:16:09Z</time>
      </trkpt>
      <trkpt lat="44.99363" lon="6.46018">
        <ele>2082.2</ele>
        <time>2022-01-14T09:16:10Z</time>
      </trkpt>
      <trkpt lat="44.99364" lon="6.46017">
        <ele>2082.2</ele>
        <time>2022-01-14T09:16:11Z</time>
      </trkpt>
      <trkpt lat="44.99364" lon="6.46018">
        <ele>2082.2</ele>
        <time>2022-01-14T09:16:12Z</time>
      </trkpt>
      <trkpt lat="44.99364" lon="6.46018">
        <ele>2082.2</ele>
        <time>2022-01-14T09:16:13Z</time>
      </trkpt>
      <trkpt lat="44.99364" lon="6.46018">
        <ele>2082.2</ele>
        <time>2022-01-14T09:16:14Z</time>
      </trkpt>
      <trkpt lat="44.99364" lon="6.46017">
        <ele>2082.2</ele>
        <time>2022-01-14T09:16:15Z</time>
      </trkpt>
      <trkpt lat="44.99364" lon="6.46018">
        <ele>2082.2</ele>
        <time>2022-01-14T09:16:16Z</time>
      </trkpt>
      <trkpt lat="44.99364" lon="6.46017">
        <ele>2082.2</ele>
        <time>2022-01-14T09:16:17Z</time>
      </trkpt>
      <trkpt lat="44.99364" lon="6.46017">
        <ele>2082.2</ele>
        <time>2022-01-14T09:16:18Z</time>
      </trkpt>
      <trkpt lat="44.99364" lon="6.46017">
        <ele>2082.2</ele>
        <time>2022-01-14T09:16:19Z</time>
      </trkpt>
      <trkpt lat="44.99364" lon="6.46018">
        <ele>2082.2</ele>
        <time>2022-01-14T09:16:20Z</time>
      </trkpt>
      <trkpt lat="44.99364" lon="6.46018">
        <ele>2082.2</ele>
        <time>2022-01-14T09:16:21Z</time>
      </trkpt>
      <trkpt lat="44.99366" lon="6.46018">
        <ele>2082.2</ele>
        <time>2022-01-14T09:16:22Z</time>
      </trkpt>
      <trkpt lat="44.99367" lon="6.46017">
        <ele>2082.2</ele>
        <time>2022-01-14T09:16:23Z</time>
      </trkpt>
      <trkpt lat="44.99367" lon="6.46016">
        <ele>2082.2</ele>
        <time>2022-01-14T09:16:24Z</time>
      </trkpt>
      <trkpt lat="44.99366" lon="6.46016">
        <ele>2082.2</ele>
        <time>2022-01-14T09:16:25Z</time>
      </trkpt>
      <trkpt lat="44.99367" lon="6.46016">
        <ele>2082.2</ele>
        <time>2022-01-14T09:16:26Z</time>
      </trkpt>
      <trkpt lat="44.99367" lon="6.46015">
        <ele>2082.2</ele>
        <time>2022-01-14T09:16:27Z</time>
      </trkpt>
      <trkpt lat="44.99367" lon="6.46015">
        <ele>2082.2</ele>
        <time>2022-01-14T09:16:28Z</time>
      </trkpt>
      <trkpt lat="44.99366" lon="6.46013">
        <ele>2090.4</ele>
        <time>2022-01-14T09:16:29Z</time>
      </trkpt>
      <trkpt lat="44.99365" lon="6.46014">
        <ele>2082.2</ele>
        <time>2022-01-14T09:16:30Z</time>
      </trkpt>
      <trkpt lat="44.99365" lon="6.46014">
        <ele>2082.2</ele>
        <time>2022-01-14T09:16:31Z</time>
      </trkpt>
      <trkpt lat="44.99365" lon="6.46014">
        <ele>2082.2</ele>
        <time>2022-01-14T09:16:32Z</time>
      </trkpt>
      <trkpt lat="44.99365" lon="6.46013">
        <ele>2082.2</ele>
        <time>2022-01-14T09:16:33Z</time>
      </trkpt>
      <trkpt lat="44.99365" lon="6.46013">
        <ele>2090.4</ele>
        <time>2022-01-14T09:16:34Z</time>
      </trkpt>
      <trkpt lat="44.99366" lon="6.46013">
        <ele>2090.4</ele>
        <time>2022-01-14T09:16:35Z</time>
      </trkpt>
      <trkpt lat="44.99366" lon="6.46013">
        <ele>2090.4</ele>
        <time>2022-01-14T09:16:36Z</time>
      </trkpt>
      <trkpt lat="44.99366" lon="6.46013">
        <ele>2090.4</ele>
        <time>2022-01-14T09:16:37Z</time>
      </trkpt>
      <trkpt lat="44.99366" lon="6.46013">
        <ele>2090.4</ele>
        <time>2022-01-14T09:16:38Z</time>
      </trkpt>
      <trkpt lat="44.99365" lon="6.46012">
        <ele>2090.4</ele>
        <time>2022-01-14T09:16:39Z</time>
      </trkpt>
      <trkpt lat="44.99366" lon="6.46011">
        <ele>2090.4</ele>
        <time>2022-01-14T09:16:41Z</time>
      </trkpt>
      <trkpt lat="44.99366" lon="6.46009">
        <ele>2090.4</ele>
        <time>2022-01-14T09:16:42Z</time>
      </trkpt>
      <trkpt lat="44.99365" lon="6.46008">
        <ele>2090.4</ele>
        <time>2022-01-14T09:16:43Z</time>
      </trkpt>
      <trkpt lat="44.99366" lon="6.46007">
        <ele>2090.4</ele>
        <time>2022-01-14T09:16:44Z</time>
      </trkpt>
      <trkpt lat="44.99366" lon="6.46007">
        <ele>2090.4</ele>
        <time>2022-01-14T09:16:45Z</time>
      </trkpt>
      <trkpt lat="44.99366" lon="6.46007">
        <ele>2090.4</ele>
        <time>2022-01-14T09:16:46Z</time>
      </trkpt>
      <trkpt lat="44.99366" lon="6.46007">
        <ele>2090.4</ele>
        <time>2022-01-14T09:16:47Z</time>
      </trkpt>
      <trkpt lat="44.99366" lon="6.46005">
        <ele>2090.4</ele>
        <time>2022-01-14T09:16:48Z</time>
      </trkpt>
      <trkpt lat="44.99365" lon="6.46005">
        <ele>2090.4</ele>
        <time>2022-01-14T09:16:49Z</time>
      </trkpt>
      <trkpt lat="44.99365" lon="6.46006">
        <ele>2090.4</ele>
        <time>2022-01-14T09:16:50Z</time>
      </trkpt>
      <trkpt lat="44.99366" lon="6.46005">
        <ele>2090.4</ele>
        <time>2022-01-14T09:16:51Z</time>
      </trkpt>
      <trkpt lat="44.99366" lon="6.46006">
        <ele>2090.4</ele>
        <time>2022-01-14T09:16:52Z</time>
      </trkpt>
      <trkpt lat="44.99366" lon="6.46006">
        <ele>2090.4</ele>
        <time>2022-01-14T09:16:53Z</time>
      </trkpt>
      <trkpt lat="44.99366" lon="6.46006">
        <ele>2090.4</ele>
        <time>2022-01-14T09:16:54Z</time>
      </trkpt>
      <trkpt lat="44.99365" lon="6.46005">
        <ele>2090.4</ele>
        <time>2022-01-14T09:16:55Z</time>
      </trkpt>
      <trkpt lat="44.99365" lon="6.46005">
        <ele>2090.4</ele>
        <time>2022-01-14T09:16:56Z</time>
      </trkpt>
      <trkpt lat="44.99365" lon="6.46005">
        <ele>2090.4</ele>
        <time>2022-01-14T09:16:57Z</time>
      </trkpt>
      <trkpt lat="44.99365" lon="6.46005">
        <ele>2090.4</ele>
        <time>2022-01-14T09:16:58Z</time>
      </trkpt>
      <trkpt lat="44.99365" lon="6.46004">
        <ele>2090.4</ele>
        <time>2022-01-14T09:16:59Z</time>
      </trkpt>
      <trkpt lat="44.99364" lon="6.46005">
        <ele>2090.4</ele>
        <time>2022-01-14T09:17:00Z</time>
      </trkpt>
      <trkpt lat="44.99364" lon="6.46004">
        <ele>2090.4</ele>
        <time>2022-01-14T09:17:01Z</time>
      </trkpt>
      <trkpt lat="44.99364" lon="6.46005">
        <ele>2090.4</ele>
        <time>2022-01-14T09:17:02Z</time>
      </trkpt>
      <trkpt lat="44.99365" lon="6.46004">
        <ele>2090.4</ele>
        <time>2022-01-14T09:17:03Z</time>
      </trkpt>
      <trkpt lat="44.99365" lon="6.46003">
        <ele>2090.4</ele>
        <time>2022-01-14T09:17:04Z</time>
      </trkpt>
      <trkpt lat="44.99365" lon="6.46004">
        <ele>2090.4</ele>
        <time>2022-01-14T09:17:05Z</time>
      </trkpt>
      <trkpt lat="44.99365" lon="6.46004">
        <ele>2090.4</ele>
        <time>2022-01-14T09:17:06Z</time>
      </trkpt>
      <trkpt lat="44.99365" lon="6.46003">
        <ele>2090.4</ele>
        <time>2022-01-14T09:17:07Z</time>
      </trkpt>
      <trkpt lat="44.99365" lon="6.46003">
        <ele>2090.4</ele>
        <time>2022-01-14T09:17:08Z</time>
      </trkpt>
      <trkpt lat="44.99364" lon="6.46003">
        <ele>2090.4</ele>
        <time>2022-01-14T09:17:09Z</time>
      </trkpt>
      <trkpt lat="44.99364" lon="6.46003">
        <ele>2090.4</ele>
        <time>2022-01-14T09:17:10Z</time>
      </trkpt>
      <trkpt lat="44.99363" lon="6.46001">
        <ele>2090.4</ele>
        <time>2022-01-14T09:17:11Z</time>
      </trkpt>
      <trkpt lat="44.99363" lon="6.46">
        <ele>2090.4</ele>
        <time>2022-01-14T09:17:12Z</time>
      </trkpt>
      <trkpt lat="44.99363" lon="6.46">
        <ele>2090.4</ele>
        <time>2022-01-14T09:17:13Z</time>
      </trkpt>
      <trkpt lat="44.99363" lon="6.46">
        <ele>2090.4</ele>
        <time>2022-01-14T09:17:14Z</time>
      </trkpt>
      <trkpt lat="44.99363" lon="6.45999">
        <ele>2090.4</ele>
        <time>2022-01-14T09:17:15Z</time>
      </trkpt>
      <trkpt lat="44.99363" lon="6.45999">
        <ele>2090.4</ele>
        <time>2022-01-14T09:17:16Z</time>
      </trkpt>
      <trkpt lat="44.99364" lon="6.45999">
        <ele>2090.4</ele>
        <time>2022-01-14T09:17:17Z</time>
      </trkpt>
      <trkpt lat="44.99364" lon="6.45998">
        <ele>2090.4</ele>
        <time>2022-01-14T09:17:18Z</time>
      </trkpt>
      <trkpt lat="44.99365" lon="6.45997">
        <ele>2090.4</ele>
        <time>2022-01-14T09:17:19Z</time>
      </trkpt>
      <trkpt lat="44.99365" lon="6.45997">
        <ele>2090.4</ele>
        <time>2022-01-14T09:17:20Z</time>
      </trkpt>
      <trkpt lat="44.99366" lon="6.45996">
        <ele>2090.4</ele>
        <time>2022-01-14T09:17:21Z</time>
      </trkpt>
      <trkpt lat="44.99366" lon="6.45996">
        <ele>2090.4</ele>
        <time>2022-01-14T09:17:22Z</time>
      </trkpt>
      <trkpt lat="44.99367" lon="6.45998">
        <ele>2090.4</ele>
        <time>2022-01-14T09:17:23Z</time>
      </trkpt>
      <trkpt lat="44.99366" lon="6.45997">
        <ele>2090.4</ele>
        <time>2022-01-14T09:17:24Z</time>
      </trkpt>
      <trkpt lat="44.99366" lon="6.45997">
        <ele>2090.4</ele>
        <time>2022-01-14T09:17:25Z</time>
      </trkpt>
      <trkpt lat="44.99367" lon="6.45998">
        <ele>2090.4</ele>
        <time>2022-01-14T09:17:26Z</time>
      </trkpt>
      <trkpt lat="44.99367" lon="6.45999">
        <ele>2090.4</ele>
        <time>2022-01-14T09:17:27Z</time>
      </trkpt>
      <trkpt lat="44.99367" lon="6.45999">
        <ele>2090.4</ele>
        <time>2022-01-14T09:17:28Z</time>
      </trkpt>
      <trkpt lat="44.99367" lon="6.45999">
        <ele>2090.4</ele>
        <time>2022-01-14T09:17:29Z</time>
      </trkpt>
      <trkpt lat="44.99367" lon="6.45999">
        <ele>2090.4</ele>
        <time>2022-01-14T09:17:30Z</time>
      </trkpt>
      <trkpt lat="44.99367" lon="6.45999">
        <ele>2090.4</ele>
        <time>2022-01-14T09:17:31Z</time>
      </trkpt>
      <trkpt lat="44.99367" lon="6.45998">
        <ele>2090.4</ele>
        <time>2022-01-14T09:17:32Z</time>
      </trkpt>
      <trkpt lat="44.99367" lon="6.45997">
        <ele>2090.4</ele>
        <time>2022-01-14T09:17:33Z</time>
      </trkpt>
      <trkpt lat="44.99367" lon="6.45996">
        <ele>2090.4</ele>
        <time>2022-01-14T09:17:34Z</time>
      </trkpt>
      <trkpt lat="44.99368" lon="6.45995">
        <ele>2099.8</ele>
        <time>2022-01-14T09:17:35Z</time>
      </trkpt>
      <trkpt lat="44.99367" lon="6.45994">
        <ele>2099.8</ele>
        <time>2022-01-14T09:17:36Z</time>
      </trkpt>
      <trkpt lat="44.99367" lon="6.45993">
        <ele>2099.8</ele>
        <time>2022-01-14T09:17:37Z</time>
      </trkpt>
      <trkpt lat="44.99367" lon="6.45992">
        <ele>2099.8</ele>
        <time>2022-01-14T09:17:38Z</time>
      </trkpt>
      <trkpt lat="44.99367" lon="6.45992">
        <ele>2099.8</ele>
        <time>2022-01-14T09:17:39Z</time>
      </trkpt>
      <trkpt lat="44.99366" lon="6.45991">
        <ele>2099.8</ele>
        <time>2022-01-14T09:17:40Z</time>
      </trkpt>
      <trkpt lat="44.99366" lon="6.45991">
        <ele>2099.8</ele>
        <time>2022-01-14T09:17:41Z</time>
      </trkpt>
      <trkpt lat="44.99367" lon="6.45991">
        <ele>2099.8</ele>
        <time>2022-01-14T09:17:42Z</time>
      </trkpt>
      <trkpt lat="44.99367" lon="6.45991">
        <ele>2099.8</ele>
        <time>2022-01-14T09:17:43Z</time>
      </trkpt>
      <trkpt lat="44.99366" lon="6.45991">
        <ele>2099.8</ele>
        <time>2022-01-14T09:17:44Z</time>
      </trkpt>
      <trkpt lat="44.99365" lon="6.45991">
        <ele>2099.8</ele>
        <time>2022-01-14T09:17:45Z</time>
      </trkpt>
      <trkpt lat="44.99365" lon="6.4599">
        <ele>2099.8</ele>
        <time>2022-01-14T09:17:46Z</time>
      </trkpt>
      <trkpt lat="44.99364" lon="6.45987">
        <ele>2099.8</ele>
        <time>2022-01-14T09:17:47Z</time>
      </trkpt>
      <trkpt lat="44.99364" lon="6.45986">
        <ele>2099.8</ele>
        <time>2022-01-14T09:17:48Z</time>
      </trkpt>
      <trkpt lat="44.99364" lon="6.45985">
        <ele>2099.8</ele>
        <time>2022-01-14T09:17:49Z</time>
      </trkpt>
      <trkpt lat="44.99363" lon="6.45985">
        <ele>2099.8</ele>
        <time>2022-01-14T09:17:50Z</time>
      </trkpt>
      <trkpt lat="44.99363" lon="6.45984">
        <ele>2099.8</ele>
        <time>2022-01-14T09:17:51Z</time>
      </trkpt>
      <trkpt lat="44.99362" lon="6.45984">
        <ele>2099.8</ele>
        <time>2022-01-14T09:17:52Z</time>
      </trkpt>
      <trkpt lat="44.99362" lon="6.45984">
        <ele>2099.8</ele>
        <time>2022-01-14T09:17:53Z</time>
      </trkpt>
      <trkpt lat="44.99361" lon="6.45983">
        <ele>2099.8</ele>
        <time>2022-01-14T09:17:54Z</time>
      </trkpt>
      <trkpt lat="44.99361" lon="6.45983">
        <ele>2099.8</ele>
        <time>2022-01-14T09:17:55Z</time>
      </trkpt>
      <trkpt lat="44.99361" lon="6.45983">
        <ele>2099.8</ele>
        <time>2022-01-14T09:17:56Z</time>
      </trkpt>
      <trkpt lat="44.99361" lon="6.45983">
        <ele>2099.8</ele>
        <time>2022-01-14T09:17:57Z</time>
      </trkpt>
      <trkpt lat="44.99361" lon="6.45983">
        <ele>2099.8</ele>
        <time>2022-01-14T09:17:58Z</time>
      </trkpt>
      <trkpt lat="44.9936" lon="6.45983">
        <ele>2099.8</ele>
        <time>2022-01-14T09:17:59Z</time>
      </trkpt>
      <trkpt lat="44.99361" lon="6.45983">
        <ele>2099.8</ele>
        <time>2022-01-14T09:18:00Z</time>
      </trkpt>
      <trkpt lat="44.9936" lon="6.45982">
        <ele>2099.8</ele>
        <time>2022-01-14T09:18:01Z</time>
      </trkpt>
      <trkpt lat="44.9936" lon="6.45982">
        <ele>2099.8</ele>
        <time>2022-01-14T09:18:02Z</time>
      </trkpt>
      <trkpt lat="44.9936" lon="6.45982">
        <ele>2099.8</ele>
        <time>2022-01-14T09:18:03Z</time>
      </trkpt>
      <trkpt lat="44.99359" lon="6.45982">
        <ele>2099.8</ele>
        <time>2022-01-14T09:18:04Z</time>
      </trkpt>
      <trkpt lat="44.99358" lon="6.45981">
        <ele>2099.8</ele>
        <time>2022-01-14T09:18:05Z</time>
      </trkpt>
      <trkpt lat="44.99357" lon="6.45981">
        <ele>2100.6</ele>
        <time>2022-01-14T09:18:06Z</time>
      </trkpt>
      <trkpt lat="44.99356" lon="6.4598">
        <ele>2100.6</ele>
        <time>2022-01-14T09:18:07Z</time>
      </trkpt>
      <trkpt lat="44.99356" lon="6.45981">
        <ele>2100.6</ele>
        <time>2022-01-14T09:18:08Z</time>
      </trkpt>
      <trkpt lat="44.99355" lon="6.45981">
        <ele>2100.6</ele>
        <time>2022-01-14T09:18:09Z</time>
      </trkpt>
      <trkpt lat="44.99355" lon="6.45982">
        <ele>2100.6</ele>
        <time>2022-01-14T09:18:10Z</time>
      </trkpt>
      <trkpt lat="44.99354" lon="6.45982">
        <ele>2100.6</ele>
        <time>2022-01-14T09:18:11Z</time>
      </trkpt>
      <trkpt lat="44.99354" lon="6.45983">
        <ele>2100.6</ele>
        <time>2022-01-14T09:18:12Z</time>
      </trkpt>
      <trkpt lat="44.99354" lon="6.45983">
        <ele>2100.6</ele>
        <time>2022-01-14T09:18:13Z</time>
      </trkpt>
      <trkpt lat="44.99354" lon="6.45984">
        <ele>2100.6</ele>
        <time>2022-01-14T09:18:14Z</time>
      </trkpt>
      <trkpt lat="44.99353" lon="6.45985">
        <ele>2100.6</ele>
        <time>2022-01-14T09:18:15Z</time>
      </trkpt>
      <trkpt lat="44.99353" lon="6.45986">
        <ele>2100.6</ele>
        <time>2022-01-14T09:18:16Z</time>
      </trkpt>
      <trkpt lat="44.99352" lon="6.45987">
        <ele>2100.6</ele>
        <time>2022-01-14T09:18:17Z</time>
      </trkpt>
      <trkpt lat="44.99353" lon="6.45987">
        <ele>2100.6</ele>
        <time>2022-01-14T09:18:18Z</time>
      </trkpt>
      <trkpt lat="44.99352" lon="6.45987">
        <ele>2100.6</ele>
        <time>2022-01-14T09:18:19Z</time>
      </trkpt>
      <trkpt lat="44.99353" lon="6.45985">
        <ele>2100.6</ele>
        <time>2022-01-14T09:18:20Z</time>
      </trkpt>
      <trkpt lat="44.99352" lon="6.45984">
        <ele>2100.6</ele>
        <time>2022-01-14T09:18:21Z</time>
      </trkpt>
      <trkpt lat="44.99352" lon="6.45983">
        <ele>2100.6</ele>
        <time>2022-01-14T09:18:22Z</time>
      </trkpt>
      <trkpt lat="44.99352" lon="6.45982">
        <ele>2100.6</ele>
        <time>2022-01-14T09:18:23Z</time>
      </trkpt>
      <trkpt lat="44.99352" lon="6.45981">
        <ele>2100.6</ele>
        <time>2022-01-14T09:18:24Z</time>
      </trkpt>
      <trkpt lat="44.99352" lon="6.4598">
        <ele>2100.6</ele>
        <time>2022-01-14T09:18:25Z</time>
      </trkpt>
      <trkpt lat="44.99352" lon="6.45978">
        <ele>2109.8</ele>
        <time>2022-01-14T09:18:26Z</time>
      </trkpt>
      <trkpt lat="44.99352" lon="6.45977">
        <ele>2109.8</ele>
        <time>2022-01-14T09:18:27Z</time>
      </trkpt>
      <trkpt lat="44.99352" lon="6.45976">
        <ele>2109.8</ele>
        <time>2022-01-14T09:18:28Z</time>
      </trkpt>
      <trkpt lat="44.99352" lon="6.45975">
        <ele>2109.8</ele>
        <time>2022-01-14T09:18:29Z</time>
      </trkpt>
      <trkpt lat="44.99351" lon="6.45973">
        <ele>2109.8</ele>
        <time>2022-01-14T09:18:30Z</time>
      </trkpt>
      <trkpt lat="44.99351" lon="6.45972">
        <ele>2109.8</ele>
        <time>2022-01-14T09:18:31Z</time>
      </trkpt>
      <trkpt lat="44.99351" lon="6.45971">
        <ele>2109.8</ele>
        <time>2022-01-14T09:18:32Z</time>
      </trkpt>
      <trkpt lat="44.99351" lon="6.45973">
        <ele>2109.8</ele>
        <time>2022-01-14T09:18:33Z</time>
      </trkpt>
      <trkpt lat="44.99351" lon="6.45973">
        <ele>2109.8</ele>
        <time>2022-01-14T09:18:34Z</time>
      </trkpt>
      <trkpt lat="44.99351" lon="6.45973">
        <ele>2109.8</ele>
        <time>2022-01-14T09:18:35Z</time>
      </trkpt>
      <trkpt lat="44.99351" lon="6.45973">
        <ele>2109.8</ele>
        <time>2022-01-14T09:18:36Z</time>
      </trkpt>
      <trkpt lat="44.99351" lon="6.45972">
        <ele>2109.8</ele>
        <time>2022-01-14T09:18:37Z</time>
      </trkpt>
      <trkpt lat="44.99351" lon="6.45971">
        <ele>2109.8</ele>
        <time>2022-01-14T09:18:38Z</time>
      </trkpt>
      <trkpt lat="44.99351" lon="6.45971">
        <ele>2109.8</ele>
        <time>2022-01-14T09:18:39Z</time>
      </trkpt>
      <trkpt lat="44.99351" lon="6.4597">
        <ele>2109.8</ele>
        <time>2022-01-14T09:18:40Z</time>
      </trkpt>
      <trkpt lat="44.99351" lon="6.4597">
        <ele>2109.8</ele>
        <time>2022-01-14T09:18:41Z</time>
      </trkpt>
      <trkpt lat="44.9935" lon="6.4597">
        <ele>2109.8</ele>
        <time>2022-01-14T09:18:42Z</time>
      </trkpt>
      <trkpt lat="44.99349" lon="6.4597">
        <ele>2109.8</ele>
        <time>2022-01-14T09:18:43Z</time>
      </trkpt>
      <trkpt lat="44.9935" lon="6.4597">
        <ele>2109.8</ele>
        <time>2022-01-14T09:18:44Z</time>
      </trkpt>
      <trkpt lat="44.9935" lon="6.4597">
        <ele>2109.8</ele>
        <time>2022-01-14T09:18:45Z</time>
      </trkpt>
      <trkpt lat="44.9935" lon="6.4597">
        <ele>2109.8</ele>
        <time>2022-01-14T09:18:46Z</time>
      </trkpt>
      <trkpt lat="44.9935" lon="6.4597">
        <ele>2109.8</ele>
        <time>2022-01-14T09:18:47Z</time>
      </trkpt>
      <trkpt lat="44.99349" lon="6.45971">
        <ele>2109.8</ele>
        <time>2022-01-14T09:18:48Z</time>
      </trkpt>
      <trkpt lat="44.99349" lon="6.45971">
        <ele>2109.8</ele>
        <time>2022-01-14T09:18:49Z</time>
      </trkpt>
      <trkpt lat="44.99349" lon="6.45971">
        <ele>2109.8</ele>
        <time>2022-01-14T09:18:50Z</time>
      </trkpt>
      <trkpt lat="44.99349" lon="6.45972">
        <ele>2109.8</ele>
        <time>2022-01-14T09:18:51Z</time>
      </trkpt>
      <trkpt lat="44.99348" lon="6.45974">
        <ele>2109.8</ele>
        <time>2022-01-14T09:18:52Z</time>
      </trkpt>
      <trkpt lat="44.99348" lon="6.45975">
        <ele>2109.8</ele>
        <time>2022-01-14T09:18:53Z</time>
      </trkpt>
      <trkpt lat="44.99348" lon="6.45976">
        <ele>2109.8</ele>
        <time>2022-01-14T09:18:54Z</time>
      </trkpt>
      <trkpt lat="44.99349" lon="6.45977">
        <ele>2109.8</ele>
        <time>2022-01-14T09:18:55Z</time>
      </trkpt>
      <trkpt lat="44.99348" lon="6.45978">
        <ele>2109.8</ele>
        <time>2022-01-14T09:18:56Z</time>
      </trkpt>
      <trkpt lat="44.99347" lon="6.45979">
        <ele>2109.8</ele>
        <time>2022-01-14T09:18:57Z</time>
      </trkpt>
      <trkpt lat="44.99347" lon="6.4598">
        <ele>2100.6</ele>
        <time>2022-01-14T09:18:58Z</time>
      </trkpt>
      <trkpt lat="44.99347" lon="6.4598">
        <ele>2100.6</ele>
        <time>2022-01-14T09:18:59Z</time>
      </trkpt>
      <trkpt lat="44.99347" lon="6.45981">
        <ele>2100.6</ele>
        <time>2022-01-14T09:19:00Z</time>
      </trkpt>
      <trkpt lat="44.99347" lon="6.45981">
        <ele>2100.6</ele>
        <time>2022-01-14T09:19:01Z</time>
      </trkpt>
      <trkpt lat="44.99347" lon="6.45981">
        <ele>2100.6</ele>
        <time>2022-01-14T09:19:02Z</time>
      </trkpt>
      <trkpt lat="44.99347" lon="6.45981">
        <ele>2100.6</ele>
        <time>2022-01-14T09:19:03Z</time>
      </trkpt>
      <trkpt lat="44.99348" lon="6.45981">
        <ele>2100.6</ele>
        <time>2022-01-14T09:19:04Z</time>
      </trkpt>
      <trkpt lat="44.99348" lon="6.45981">
        <ele>2100.6</ele>
        <time>2022-01-14T09:19:05Z</time>
      </trkpt>
      <trkpt lat="44.99348" lon="6.45981">
        <ele>2100.6</ele>
        <time>2022-01-14T09:19:06Z</time>
      </trkpt>
      <trkpt lat="44.99348" lon="6.45981">
        <ele>2100.6</ele>
        <time>2022-01-14T09:19:07Z</time>
      </trkpt>
      <trkpt lat="44.99349" lon="6.45981">
        <ele>2100.6</ele>
        <time>2022-01-14T09:19:08Z</time>
      </trkpt>
      <trkpt lat="44.99349" lon="6.45981">
        <ele>2100.6</ele>
        <time>2022-01-14T09:19:09Z</time>
      </trkpt>
      <trkpt lat="44.99349" lon="6.45981">
        <ele>2100.6</ele>
        <time>2022-01-14T09:19:10Z</time>
      </trkpt>
      <trkpt lat="44.99349" lon="6.45981">
        <ele>2100.6</ele>
        <time>2022-01-14T09:19:11Z</time>
      </trkpt>
      <trkpt lat="44.9935" lon="6.45981">
        <ele>2100.6</ele>
        <time>2022-01-14T09:19:12Z</time>
      </trkpt>
      <trkpt lat="44.9935" lon="6.45981">
        <ele>2100.6</ele>
        <time>2022-01-14T09:19:13Z</time>
      </trkpt>
      <trkpt lat="44.9935" lon="6.45981">
        <ele>2100.6</ele>
        <time>2022-01-14T09:19:14Z</time>
      </trkpt>
      <trkpt lat="44.9935" lon="6.45981">
        <ele>2100.6</ele>
        <time>2022-01-14T09:19:15Z</time>
      </trkpt>
      <trkpt lat="44.99351" lon="6.45981">
        <ele>2100.6</ele>
        <time>2022-01-14T09:19:16Z</time>
      </trkpt>
      <trkpt lat="44.99351" lon="6.45981">
        <ele>2100.6</ele>
        <time>2022-01-14T09:19:17Z</time>
      </trkpt>
      <trkpt lat="44.99351" lon="6.45981">
        <ele>2100.6</ele>
        <time>2022-01-14T09:19:18Z</time>
      </trkpt>
      <trkpt lat="44.99351" lon="6.45981">
        <ele>2100.6</ele>
        <time>2022-01-14T09:19:19Z</time>
      </trkpt>
      <trkpt lat="44.99352" lon="6.45981">
        <ele>2100.6</ele>
        <time>2022-01-14T09:19:20Z</time>
      </trkpt>
      <trkpt lat="44.99352" lon="6.4598">
        <ele>2100.6</ele>
        <time>2022-01-14T09:19:21Z</time>
      </trkpt>
      <trkpt lat="44.99352" lon="6.45979">
        <ele>2109.8</ele>
        <time>2022-01-14T09:19:22Z</time>
      </trkpt>
      <trkpt lat="44.99351" lon="6.45978">
        <ele>2109.8</ele>
        <time>2022-01-14T09:19:23Z</time>
      </trkpt>
      <trkpt lat="44.99351" lon="6.45977">
        <ele>2109.8</ele>
        <time>2022-01-14T09:19:24Z</time>
      </trkpt>
      <trkpt lat="44.99351" lon="6.45977">
        <ele>2109.8</ele>
        <time>2022-01-14T09:19:25Z</time>
      </trkpt>
      <trkpt lat="44.99351" lon="6.45977">
        <ele>2109.8</ele>
        <time>2022-01-14T09:19:26Z</time>
      </trkpt>
      <trkpt lat="44.99351" lon="6.45977">
        <ele>2109.8</ele>
        <time>2022-01-14T09:19:27Z</time>
      </trkpt>
      <trkpt lat="44.99352" lon="6.45977">
        <ele>2109.8</ele>
        <time>2022-01-14T09:19:28Z</time>
      </trkpt>
      <trkpt lat="44.99352" lon="6.45977">
        <ele>2109.8</ele>
        <time>2022-01-14T09:19:29Z</time>
      </trkpt>
      <trkpt lat="44.99353" lon="6.45977">
        <ele>2109.8</ele>
        <time>2022-01-14T09:19:30Z</time>
      </trkpt>
      <trkpt lat="44.99354" lon="6.45976">
        <ele>2109.8</ele>
        <time>2022-01-14T09:19:31Z</time>
      </trkpt>
      <trkpt lat="44.99355" lon="6.45976">
        <ele>2109.8</ele>
        <time>2022-01-14T09:19:32Z</time>
      </trkpt>
      <trkpt lat="44.99355" lon="6.45976">
        <ele>2109.8</ele>
        <time>2022-01-14T09:19:33Z</time>
      </trkpt>
      <trkpt lat="44.99355" lon="6.45976">
        <ele>2109.8</ele>
        <time>2022-01-14T09:19:34Z</time>
      </trkpt>
      <trkpt lat="44.99355" lon="6.45976">
        <ele>2109.8</ele>
        <time>2022-01-14T09:19:35Z</time>
      </trkpt>
      <trkpt lat="44.99356" lon="6.45976">
        <ele>2109.8</ele>
        <time>2022-01-14T09:19:36Z</time>
      </trkpt>
      <trkpt lat="44.99356" lon="6.45977">
        <ele>2109.8</ele>
        <time>2022-01-14T09:19:37Z</time>
      </trkpt>
      <trkpt lat="44.99357" lon="6.45977">
        <ele>2109.8</ele>
        <time>2022-01-14T09:19:38Z</time>
      </trkpt>
      <trkpt lat="44.99359" lon="6.45977">
        <ele>2109.2</ele>
        <time>2022-01-14T09:19:39Z</time>
      </trkpt>
      <trkpt lat="44.9936" lon="6.45977">
        <ele>2109.2</ele>
        <time>2022-01-14T09:19:40Z</time>
      </trkpt>
      <trkpt lat="44.9936" lon="6.45977">
        <ele>2109.2</ele>
        <time>2022-01-14T09:19:41Z</time>
      </trkpt>
      <trkpt lat="44.99362" lon="6.45976">
        <ele>2109.2</ele>
        <time>2022-01-14T09:19:42Z</time>
      </trkpt>
      <trkpt lat="44.99362" lon="6.45974">
        <ele>2109.2</ele>
        <time>2022-01-14T09:19:43Z</time>
      </trkpt>
      <trkpt lat="44.99363" lon="6.45972">
        <ele>2109.2</ele>
        <time>2022-01-14T09:19:44Z</time>
      </trkpt>
      <trkpt lat="44.99363" lon="6.4597">
        <ele>2109.2</ele>
        <time>2022-01-14T09:19:45Z</time>
      </trkpt>
      <trkpt lat="44.99364" lon="6.4597">
        <ele>2109.2</ele>
        <time>2022-01-14T09:19:46Z</time>
      </trkpt>
      <trkpt lat="44.99364" lon="6.45969">
        <ele>2109.2</ele>
        <time>2022-01-14T09:19:47Z</time>
      </trkpt>
      <trkpt lat="44.99364" lon="6.45968">
        <ele>2109.2</ele>
        <time>2022-01-14T09:19:48Z</time>
      </trkpt>
      <trkpt lat="44.99363" lon="6.45968">
        <ele>2109.2</ele>
        <time>2022-01-14T09:19:49Z</time>
      </trkpt>
      <trkpt lat="44.99364" lon="6.45967">
        <ele>2109.2</ele>
        <time>2022-01-14T09:19:50Z</time>
      </trkpt>
      <trkpt lat="44.99365" lon="6.45967">
        <ele>2109.2</ele>
        <time>2022-01-14T09:19:51Z</time>
      </trkpt>
      <trkpt lat="44.99364" lon="6.45967">
        <ele>2109.2</ele>
        <time>2022-01-14T09:19:52Z</time>
      </trkpt>
      <trkpt lat="44.99365" lon="6.45965">
        <ele>2109.2</ele>
        <time>2022-01-14T09:19:53Z</time>
      </trkpt>
      <trkpt lat="44.99365" lon="6.45965">
        <ele>2109.2</ele>
        <time>2022-01-14T09:19:54Z</time>
      </trkpt>
      <trkpt lat="44.99365" lon="6.45965">
        <ele>2109.2</ele>
        <time>2022-01-14T09:19:55Z</time>
      </trkpt>
      <trkpt lat="44.99364" lon="6.45964">
        <ele>2109.2</ele>
        <time>2022-01-14T09:19:56Z</time>
      </trkpt>
      <trkpt lat="44.99364" lon="6.45963">
        <ele>2109.2</ele>
        <time>2022-01-14T09:19:57Z</time>
      </trkpt>
      <trkpt lat="44.99364" lon="6.45963">
        <ele>2109.2</ele>
        <time>2022-01-14T09:19:58Z</time>
      </trkpt>
      <trkpt lat="44.99363" lon="6.45962">
        <ele>2109.2</ele>
        <time>2022-01-14T09:19:59Z</time>
      </trkpt>
      <trkpt lat="44.99363" lon="6.45961">
        <ele>2118.5</ele>
        <time>2022-01-14T09:20:00Z</time>
      </trkpt>
      <trkpt lat="44.99362" lon="6.45962">
        <ele>2118.5</ele>
        <time>2022-01-14T09:20:01Z</time>
      </trkpt>
      <trkpt lat="44.99361" lon="6.45961">
        <ele>2118.5</ele>
        <time>2022-01-14T09:20:02Z</time>
      </trkpt>
      <trkpt lat="44.99361" lon="6.4596">
        <ele>2118.5</ele>
        <time>2022-01-14T09:20:03Z</time>
      </trkpt>
      <trkpt lat="44.99361" lon="6.45959">
        <ele>2118.5</ele>
        <time>2022-01-14T09:20:04Z</time>
      </trkpt>
      <trkpt lat="44.9936" lon="6.45957">
        <ele>2118.5</ele>
        <time>2022-01-14T09:20:05Z</time>
      </trkpt>
      <trkpt lat="44.9936" lon="6.45957">
        <ele>2118.5</ele>
        <time>2022-01-14T09:20:06Z</time>
      </trkpt>
      <trkpt lat="44.99359" lon="6.45958">
        <ele>2118.5</ele>
        <time>2022-01-14T09:20:07Z</time>
      </trkpt>
      <trkpt lat="44.99359" lon="6.45958">
        <ele>2118.5</ele>
        <time>2022-01-14T09:20:08Z</time>
      </trkpt>
      <trkpt lat="44.99358" lon="6.45958">
        <ele>2118.5</ele>
        <time>2022-01-14T09:20:09Z</time>
      </trkpt>
      <trkpt lat="44.99357" lon="6.45958">
        <ele>2118.8</ele>
        <time>2022-01-14T09:20:10Z</time>
      </trkpt>
      <trkpt lat="44.99357" lon="6.45958">
        <ele>2118.8</ele>
        <time>2022-01-14T09:20:11Z</time>
      </trkpt>
      <trkpt lat="44.99357" lon="6.45958">
        <ele>2118.8</ele>
        <time>2022-01-14T09:20:12Z</time>
      </trkpt>
      <trkpt lat="44.99357" lon="6.45958">
        <ele>2118.8</ele>
        <time>2022-01-14T09:20:13Z</time>
      </trkpt>
      <trkpt lat="44.99356" lon="6.45959">
        <ele>2118.8</ele>
        <time>2022-01-14T09:20:14Z</time>
      </trkpt>
      <trkpt lat="44.99356" lon="6.45959">
        <ele>2118.8</ele>
        <time>2022-01-14T09:20:15Z</time>
      </trkpt>
      <trkpt lat="44.99356" lon="6.45959">
        <ele>2118.8</ele>
        <time>2022-01-14T09:20:16Z</time>
      </trkpt>
      <trkpt lat="44.99356" lon="6.45959">
        <ele>2118.8</ele>
        <time>2022-01-14T09:20:17Z</time>
      </trkpt>
      <trkpt lat="44.99356" lon="6.45959">
        <ele>2118.8</ele>
        <time>2022-01-14T09:20:18Z</time>
      </trkpt>
      <trkpt lat="44.99357" lon="6.45959">
        <ele>2118.8</ele>
        <time>2022-01-14T09:20:19Z</time>
      </trkpt>
      <trkpt lat="44.99356" lon="6.45959">
        <ele>2118.8</ele>
        <time>2022-01-14T09:20:20Z</time>
      </trkpt>
      <trkpt lat="44.99357" lon="6.45959">
        <ele>2118.8</ele>
        <time>2022-01-14T09:20:21Z</time>
      </trkpt>
      <trkpt lat="44.99357" lon="6.45958">
        <ele>2118.8</ele>
        <time>2022-01-14T09:20:22Z</time>
      </trkpt>
      <trkpt lat="44.99357" lon="6.45957">
        <ele>2118.8</ele>
        <time>2022-01-14T09:20:23Z</time>
      </trkpt>
      <trkpt lat="44.99356" lon="6.45956">
        <ele>2118.8</ele>
        <time>2022-01-14T09:20:24Z</time>
      </trkpt>
      <trkpt lat="44.99355" lon="6.45955">
        <ele>2118.8</ele>
        <time>2022-01-14T09:20:25Z</time>
      </trkpt>
      <trkpt lat="44.99354" lon="6.45954">
        <ele>2118.8</ele>
        <time>2022-01-14T09:20:26Z</time>
      </trkpt>
      <trkpt lat="44.99354" lon="6.45954">
        <ele>2118.8</ele>
        <time>2022-01-14T09:20:27Z</time>
      </trkpt>
      <trkpt lat="44.99353" lon="6.45954">
        <ele>2118.8</ele>
        <time>2022-01-14T09:20:28Z</time>
      </trkpt>
      <trkpt lat="44.99353" lon="6.45954">
        <ele>2118.8</ele>
        <time>2022-01-14T09:20:29Z</time>
      </trkpt>
      <trkpt lat="44.99353" lon="6.45952">
        <ele>2118.8</ele>
        <time>2022-01-14T09:20:30Z</time>
      </trkpt>
      <trkpt lat="44.99353" lon="6.45952">
        <ele>2118.8</ele>
        <time>2022-01-14T09:20:31Z</time>
      </trkpt>
      <trkpt lat="44.99353" lon="6.45951">
        <ele>2118.8</ele>
        <time>2022-01-14T09:20:32Z</time>
      </trkpt>
      <trkpt lat="44.99352" lon="6.45951">
        <ele>2118.8</ele>
        <time>2022-01-14T09:20:33Z</time>
      </trkpt>
      <trkpt lat="44.99352" lon="6.45951">
        <ele>2118.8</ele>
        <time>2022-01-14T09:20:34Z</time>
      </trkpt>
      <trkpt lat="44.99352" lon="6.45952">
        <ele>2118.8</ele>
        <time>2022-01-14T09:20:35Z</time>
      </trkpt>
      <trkpt lat="44.99351" lon="6.45952">
        <ele>2118.8</ele>
        <time>2022-01-14T09:20:36Z</time>
      </trkpt>
      <trkpt lat="44.99351" lon="6.45951">
        <ele>2118.8</ele>
        <time>2022-01-14T09:20:37Z</time>
      </trkpt>
      <trkpt lat="44.9935" lon="6.45951">
        <ele>2118.8</ele>
        <time>2022-01-14T09:20:38Z</time>
      </trkpt>
      <trkpt lat="44.9935" lon="6.4595">
        <ele>2118.8</ele>
        <time>2022-01-14T09:20:39Z</time>
      </trkpt>
      <trkpt lat="44.9935" lon="6.4595">
        <ele>2118.8</ele>
        <time>2022-01-14T09:20:40Z</time>
      </trkpt>
      <trkpt lat="44.9935" lon="6.45951">
        <ele>2118.8</ele>
        <time>2022-01-14T09:20:41Z</time>
      </trkpt>
      <trkpt lat="44.9935" lon="6.45951">
        <ele>2118.8</ele>
        <time>2022-01-14T09:20:42Z</time>
      </trkpt>
      <trkpt lat="44.99349" lon="6.45951">
        <ele>2118.8</ele>
        <time>2022-01-14T09:20:43Z</time>
      </trkpt>
      <trkpt lat="44.99348" lon="6.4595">
        <ele>2118.8</ele>
        <time>2022-01-14T09:20:44Z</time>
      </trkpt>
      <trkpt lat="44.99347" lon="6.45949">
        <ele>2118.8</ele>
        <time>2022-01-14T09:20:45Z</time>
      </trkpt>
      <trkpt lat="44.99347" lon="6.45949">
        <ele>2118.8</ele>
        <time>2022-01-14T09:20:46Z</time>
      </trkpt>
      <trkpt lat="44.99346" lon="6.4595">
        <ele>2118.8</ele>
        <time>2022-01-14T09:20:47Z</time>
      </trkpt>
      <trkpt lat="44.99346" lon="6.4595">
        <ele>2118.8</ele>
        <time>2022-01-14T09:20:48Z</time>
      </trkpt>
      <trkpt lat="44.99346" lon="6.4595">
        <ele>2118.8</ele>
        <time>2022-01-14T09:20:49Z</time>
      </trkpt>
      <trkpt lat="44.99345" lon="6.4595">
        <ele>2118.7</ele>
        <time>2022-01-14T09:20:50Z</time>
      </trkpt>
      <trkpt lat="44.99344" lon="6.45949">
        <ele>2118.7</ele>
        <time>2022-01-14T09:20:51Z</time>
      </trkpt>
      <trkpt lat="44.99345" lon="6.4595">
        <ele>2118.7</ele>
        <time>2022-01-14T09:20:52Z</time>
      </trkpt>
      <trkpt lat="44.99344" lon="6.4595">
        <ele>2118.7</ele>
        <time>2022-01-14T09:20:53Z</time>
      </trkpt>
      <trkpt lat="44.99344" lon="6.45951">
        <ele>2118.7</ele>
        <time>2022-01-14T09:20:54Z</time>
      </trkpt>
      <trkpt lat="44.99344" lon="6.45952">
        <ele>2118.7</ele>
        <time>2022-01-14T09:20:55Z</time>
      </trkpt>
      <trkpt lat="44.99344" lon="6.45953">
        <ele>2118.7</ele>
        <time>2022-01-14T09:20:56Z</time>
      </trkpt>
      <trkpt lat="44.99344" lon="6.45953">
        <ele>2118.7</ele>
        <time>2022-01-14T09:20:57Z</time>
      </trkpt>
      <trkpt lat="44.99344" lon="6.45954">
        <ele>2118.7</ele>
        <time>2022-01-14T09:20:58Z</time>
      </trkpt>
      <trkpt lat="44.99343" lon="6.45954">
        <ele>2118.7</ele>
        <time>2022-01-14T09:20:59Z</time>
      </trkpt>
      <trkpt lat="44.99342" lon="6.45954">
        <ele>2118.7</ele>
        <time>2022-01-14T09:21:00Z</time>
      </trkpt>
      <trkpt lat="44.99342" lon="6.45954">
        <ele>2118.7</ele>
        <time>2022-01-14T09:21:01Z</time>
      </trkpt>
      <trkpt lat="44.99342" lon="6.45954">
        <ele>2118.7</ele>
        <time>2022-01-14T09:21:02Z</time>
      </trkpt>
      <trkpt lat="44.99341" lon="6.45954">
        <ele>2118.7</ele>
        <time>2022-01-14T09:21:03Z</time>
      </trkpt>
      <trkpt lat="44.99342" lon="6.45954">
        <ele>2118.7</ele>
        <time>2022-01-14T09:21:04Z</time>
      </trkpt>
      <trkpt lat="44.99342" lon="6.45954">
        <ele>2118.7</ele>
        <time>2022-01-14T09:21:05Z</time>
      </trkpt>
      <trkpt lat="44.99343" lon="6.45954">
        <ele>2118.7</ele>
        <time>2022-01-14T09:21:06Z</time>
      </trkpt>
      <trkpt lat="44.99343" lon="6.45954">
        <ele>2118.7</ele>
        <time>2022-01-14T09:21:07Z</time>
      </trkpt>
      <trkpt lat="44.99344" lon="6.45954">
        <ele>2118.7</ele>
        <time>2022-01-14T09:21:08Z</time>
      </trkpt>
      <trkpt lat="44.99345" lon="6.45954">
        <ele>2118.7</ele>
        <time>2022-01-14T09:21:09Z</time>
      </trkpt>
      <trkpt lat="44.99345" lon="6.45954">
        <ele>2118.7</ele>
        <time>2022-01-14T09:21:10Z</time>
      </trkpt>
      <trkpt lat="44.99346" lon="6.45953">
        <ele>2118.8</ele>
        <time>2022-01-14T09:21:11Z</time>
      </trkpt>
      <trkpt lat="44.99346" lon="6.45953">
        <ele>2118.8</ele>
        <time>2022-01-14T09:21:12Z</time>
      </trkpt>
      <trkpt lat="44.99346" lon="6.45953">
        <ele>2118.8</ele>
        <time>2022-01-14T09:21:13Z</time>
      </trkpt>
      <trkpt lat="44.99345" lon="6.45953">
        <ele>2118.7</ele>
        <time>2022-01-14T09:21:14Z</time>
      </trkpt>
      <trkpt lat="44.99345" lon="6.45953">
        <ele>2118.7</ele>
        <time>2022-01-14T09:21:15Z</time>
      </trkpt>
      <trkpt lat="44.99346" lon="6.45953">
        <ele>2118.8</ele>
        <time>2022-01-14T09:21:16Z</time>
      </trkpt>
      <trkpt lat="44.99347" lon="6.45952">
        <ele>2118.8</ele>
        <time>2022-01-14T09:21:17Z</time>
      </trkpt>
      <trkpt lat="44.99347" lon="6.45952">
        <ele>2118.8</ele>
        <time>2022-01-14T09:21:18Z</time>
      </trkpt>
      <trkpt lat="44.99348" lon="6.45952">
        <ele>2118.8</ele>
        <time>2022-01-14T09:21:19Z</time>
      </trkpt>
      <trkpt lat="44.99348" lon="6.45952">
        <ele>2118.8</ele>
        <time>2022-01-14T09:21:20Z</time>
      </trkpt>
      <trkpt lat="44.99348" lon="6.45952">
        <ele>2118.8</ele>
        <time>2022-01-14T09:21:21Z</time>
      </trkpt>
      <trkpt lat="44.99348" lon="6.45951">
        <ele>2118.8</ele>
        <time>2022-01-14T09:21:22Z</time>
      </trkpt>
      <trkpt lat="44.99347" lon="6.4595">
        <ele>2118.8</ele>
        <time>2022-01-14T09:21:23Z</time>
      </trkpt>
      <trkpt lat="44.99348" lon="6.4595">
        <ele>2118.8</ele>
        <time>2022-01-14T09:21:24Z</time>
      </trkpt>
      <trkpt lat="44.99348" lon="6.4595">
        <ele>2118.8</ele>
        <time>2022-01-14T09:21:25Z</time>
      </trkpt>
      <trkpt lat="44.99349" lon="6.4595">
        <ele>2118.8</ele>
        <time>2022-01-14T09:21:26Z</time>
      </trkpt>
      <trkpt lat="44.99349" lon="6.4595">
        <ele>2118.8</ele>
        <time>2022-01-14T09:21:27Z</time>
      </trkpt>
      <trkpt lat="44.9935" lon="6.45951">
        <ele>2118.8</ele>
        <time>2022-01-14T09:21:28Z</time>
      </trkpt>
      <trkpt lat="44.99351" lon="6.45951">
        <ele>2118.8</ele>
        <time>2022-01-14T09:21:29Z</time>
      </trkpt>
      <trkpt lat="44.99351" lon="6.45951">
        <ele>2118.8</ele>
        <time>2022-01-14T09:21:30Z</time>
      </trkpt>
      <trkpt lat="44.99351" lon="6.45951">
        <ele>2118.8</ele>
        <time>2022-01-14T09:21:31Z</time>
      </trkpt>
      <trkpt lat="44.99351" lon="6.4595">
        <ele>2118.8</ele>
        <time>2022-01-14T09:21:32Z</time>
      </trkpt>
      <trkpt lat="44.99351" lon="6.4595">
        <ele>2118.8</ele>
        <time>2022-01-14T09:21:33Z</time>
      </trkpt>
      <trkpt lat="44.99351" lon="6.4595">
        <ele>2118.8</ele>
        <time>2022-01-14T09:21:34Z</time>
      </trkpt>
      <trkpt lat="44.99351" lon="6.4595">
        <ele>2118.8</ele>
        <time>2022-01-14T09:21:35Z</time>
      </trkpt>
      <trkpt lat="44.99351" lon="6.4595">
        <ele>2118.8</ele>
        <time>2022-01-14T09:21:36Z</time>
      </trkpt>
      <trkpt lat="44.99352" lon="6.4595">
        <ele>2118.8</ele>
        <time>2022-01-14T09:21:37Z</time>
      </trkpt>
      <trkpt lat="44.99352" lon="6.4595">
        <ele>2118.8</ele>
        <time>2022-01-14T09:21:38Z</time>
      </trkpt>
      <trkpt lat="44.99353" lon="6.4595">
        <ele>2118.8</ele>
        <time>2022-01-14T09:21:39Z</time>
      </trkpt>
      <trkpt lat="44.99353" lon="6.45949">
        <ele>2118.8</ele>
        <time>2022-01-14T09:21:40Z</time>
      </trkpt>
      <trkpt lat="44.99353" lon="6.45948">
        <ele>2118.8</ele>
        <time>2022-01-14T09:21:41Z</time>
      </trkpt>
      <trkpt lat="44.99354" lon="6.45948">
        <ele>2118.8</ele>
        <time>2022-01-14T09:21:42Z</time>
      </trkpt>
      <trkpt lat="44.99354" lon="6.45948">
        <ele>2118.8</ele>
        <time>2022-01-14T09:21:43Z</time>
      </trkpt>
      <trkpt lat="44.99354" lon="6.45947">
        <ele>2118.8</ele>
        <time>2022-01-14T09:21:44Z</time>
      </trkpt>
      <trkpt lat="44.99353" lon="6.45946">
        <ele>2118.8</ele>
        <time>2022-01-14T09:21:45Z</time>
      </trkpt>
      <trkpt lat="44.99353" lon="6.45946">
        <ele>2118.8</ele>
        <time>2022-01-14T09:21:46Z</time>
      </trkpt>
      <trkpt lat="44.99353" lon="6.45946">
        <ele>2118.8</ele>
        <time>2022-01-14T09:21:47Z</time>
      </trkpt>
      <trkpt lat="44.99353" lon="6.45945">
        <ele>2118.8</ele>
        <time>2022-01-14T09:21:48Z</time>
      </trkpt>
      <trkpt lat="44.99353" lon="6.45945">
        <ele>2118.8</ele>
        <time>2022-01-14T09:21:49Z</time>
      </trkpt>
      <trkpt lat="44.99353" lon="6.45945">
        <ele>2118.8</ele>
        <time>2022-01-14T09:21:50Z</time>
      </trkpt>
      <trkpt lat="44.99353" lon="6.45945">
        <ele>2118.8</ele>
        <time>2022-01-14T09:21:51Z</time>
      </trkpt>
      <trkpt lat="44.99353" lon="6.45945">
        <ele>2118.8</ele>
        <time>2022-01-14T09:21:52Z</time>
      </trkpt>
      <trkpt lat="44.99353" lon="6.45944">
        <ele>2129.2</ele>
        <time>2022-01-14T09:21:53Z</time>
      </trkpt>
      <trkpt lat="44.99353" lon="6.45944">
        <ele>2129.2</ele>
        <time>2022-01-14T09:21:54Z</time>
      </trkpt>
      <trkpt lat="44.99352" lon="6.45945">
        <ele>2118.8</ele>
        <time>2022-01-14T09:21:55Z</time>
      </trkpt>
      <trkpt lat="44.99352" lon="6.45944">
        <ele>2129.2</ele>
        <time>2022-01-14T09:21:56Z</time>
      </trkpt>
      <trkpt lat="44.99352" lon="6.45944">
        <ele>2129.2</ele>
        <time>2022-01-14T09:21:57Z</time>
      </trkpt>
      <trkpt lat="44.99351" lon="6.45943">
        <ele>2129.2</ele>
        <time>2022-01-14T09:21:58Z</time>
      </trkpt>
      <trkpt lat="44.9935" lon="6.45942">
        <ele>2129.2</ele>
        <time>2022-01-14T09:21:59Z</time>
      </trkpt>
      <trkpt lat="44.9935" lon="6.45941">
        <ele>2129.2</ele>
        <time>2022-01-14T09:22:00Z</time>
      </trkpt>
      <trkpt lat="44.9935" lon="6.45939">
        <ele>2129.2</ele>
        <time>2022-01-14T09:22:01Z</time>
      </trkpt>
      <trkpt lat="44.9935" lon="6.45938">
        <ele>2129.2</ele>
        <time>2022-01-14T09:22:02Z</time>
      </trkpt>
      <trkpt lat="44.99351" lon="6.45938">
        <ele>2129.2</ele>
        <time>2022-01-14T09:22:03Z</time>
      </trkpt>
      <trkpt lat="44.99351" lon="6.45937">
        <ele>2129.2</ele>
        <time>2022-01-14T09:22:04Z</time>
      </trkpt>
      <trkpt lat="44.99351" lon="6.45937">
        <ele>2129.2</ele>
        <time>2022-01-14T09:22:05Z</time>
      </trkpt>
      <trkpt lat="44.99351" lon="6.45937">
        <ele>2129.2</ele>
        <time>2022-01-14T09:22:06Z</time>
      </trkpt>
      <trkpt lat="44.99351" lon="6.45936">
        <ele>2129.2</ele>
        <time>2022-01-14T09:22:07Z</time>
      </trkpt>
      <trkpt lat="44.99351" lon="6.45935">
        <ele>2129.2</ele>
        <time>2022-01-14T09:22:08Z</time>
      </trkpt>
      <trkpt lat="44.99351" lon="6.45934">
        <ele>2129.2</ele>
        <time>2022-01-14T09:22:09Z</time>
      </trkpt>
      <trkpt lat="44.99351" lon="6.45935">
        <ele>2129.2</ele>
        <time>2022-01-14T09:22:10Z</time>
      </trkpt>
      <trkpt lat="44.9935" lon="6.45934">
        <ele>2129.2</ele>
        <time>2022-01-14T09:22:11Z</time>
      </trkpt>
      <trkpt lat="44.9935" lon="6.45935">
        <ele>2129.2</ele>
        <time>2022-01-14T09:22:12Z</time>
      </trkpt>
      <trkpt lat="44.9935" lon="6.45935">
        <ele>2129.2</ele>
        <time>2022-01-14T09:22:13Z</time>
      </trkpt>
      <trkpt lat="44.9935" lon="6.45935">
        <ele>2129.2</ele>
        <time>2022-01-14T09:22:14Z</time>
      </trkpt>
      <trkpt lat="44.9935" lon="6.45935">
        <ele>2129.2</ele>
        <time>2022-01-14T09:22:15Z</time>
      </trkpt>
      <trkpt lat="44.9935" lon="6.45935">
        <ele>2129.2</ele>
        <time>2022-01-14T09:22:16Z</time>
      </trkpt>
      <trkpt lat="44.99349" lon="6.45935">
        <ele>2129.2</ele>
        <time>2022-01-14T09:22:17Z</time>
      </trkpt>
      <trkpt lat="44.99349" lon="6.45934">
        <ele>2129.2</ele>
        <time>2022-01-14T09:22:18Z</time>
      </trkpt>
      <trkpt lat="44.99348" lon="6.45933">
        <ele>2129.2</ele>
        <time>2022-01-14T09:22:19Z</time>
      </trkpt>
      <trkpt lat="44.99347" lon="6.45933">
        <ele>2129.2</ele>
        <time>2022-01-14T09:22:20Z</time>
      </trkpt>
      <trkpt lat="44.99347" lon="6.45933">
        <ele>2129.2</ele>
        <time>2022-01-14T09:22:21Z</time>
      </trkpt>
      <trkpt lat="44.99346" lon="6.45933">
        <ele>2129.2</ele>
        <time>2022-01-14T09:22:22Z</time>
      </trkpt>
      <trkpt lat="44.99346" lon="6.45932">
        <ele>2129.2</ele>
        <time>2022-01-14T09:22:23Z</time>
      </trkpt>
      <trkpt lat="44.99346" lon="6.45931">
        <ele>2129.2</ele>
        <time>2022-01-14T09:22:24Z</time>
      </trkpt>
      <trkpt lat="44.99345" lon="6.4593">
        <ele>2128.8</ele>
        <time>2022-01-14T09:22:25Z</time>
      </trkpt>
      <trkpt lat="44.99344" lon="6.45929">
        <ele>2128.8</ele>
        <time>2022-01-14T09:22:26Z</time>
      </trkpt>
      <trkpt lat="44.99344" lon="6.45928">
        <ele>2128.8</ele>
        <time>2022-01-14T09:22:27Z</time>
      </trkpt>
      <trkpt lat="44.99344" lon="6.45928">
        <ele>2128.8</ele>
        <time>2022-01-14T09:22:28Z</time>
      </trkpt>
      <trkpt lat="44.99344" lon="6.45928">
        <ele>2128.8</ele>
        <time>2022-01-14T09:22:29Z</time>
      </trkpt>
      <trkpt lat="44.99344" lon="6.45928">
        <ele>2128.8</ele>
        <time>2022-01-14T09:22:30Z</time>
      </trkpt>
      <trkpt lat="44.99343" lon="6.45927">
        <ele>2138.2</ele>
        <time>2022-01-14T09:22:31Z</time>
      </trkpt>
      <trkpt lat="44.99343" lon="6.45928">
        <ele>2128.8</ele>
        <time>2022-01-14T09:22:32Z</time>
      </trkpt>
      <trkpt lat="44.99343" lon="6.45927">
        <ele>2138.2</ele>
        <time>2022-01-14T09:22:33Z</time>
      </trkpt>
      <trkpt lat="44.99342" lon="6.45926">
        <ele>2138.2</ele>
        <time>2022-01-14T09:22:34Z</time>
      </trkpt>
      <trkpt lat="44.99341" lon="6.45926">
        <ele>2138.2</ele>
        <time>2022-01-14T09:22:35Z</time>
      </trkpt>
      <trkpt lat="44.99342" lon="6.45927">
        <ele>2138.2</ele>
        <time>2022-01-14T09:22:36Z</time>
      </trkpt>
      <trkpt lat="44.99341" lon="6.45927">
        <ele>2138.2</ele>
        <time>2022-01-14T09:22:37Z</time>
      </trkpt>
      <trkpt lat="44.99341" lon="6.45927">
        <ele>2138.2</ele>
        <time>2022-01-14T09:22:38Z</time>
      </trkpt>
      <trkpt lat="44.99341" lon="6.45926">
        <ele>2138.2</ele>
        <time>2022-01-14T09:22:39Z</time>
      </trkpt>
      <trkpt lat="44.9934" lon="6.45926">
        <ele>2138.2</ele>
        <time>2022-01-14T09:22:40Z</time>
      </trkpt>
      <trkpt lat="44.9934" lon="6.45926">
        <ele>2138.2</ele>
        <time>2022-01-14T09:22:41Z</time>
      </trkpt>
      <trkpt lat="44.99339" lon="6.45926">
        <ele>2138.2</ele>
        <time>2022-01-14T09:22:42Z</time>
      </trkpt>
      <trkpt lat="44.99339" lon="6.45926">
        <ele>2138.2</ele>
        <time>2022-01-14T09:22:43Z</time>
      </trkpt>
      <trkpt lat="44.99338" lon="6.45926">
        <ele>2138.2</ele>
        <time>2022-01-14T09:22:44Z</time>
      </trkpt>
      <trkpt lat="44.99338" lon="6.45925">
        <ele>2138.2</ele>
        <time>2022-01-14T09:22:45Z</time>
      </trkpt>
      <trkpt lat="44.99338" lon="6.45925">
        <ele>2138.2</ele>
        <time>2022-01-14T09:22:46Z</time>
      </trkpt>
      <trkpt lat="44.99338" lon="6.45925">
        <ele>2138.2</ele>
        <time>2022-01-14T09:22:47Z</time>
      </trkpt>
      <trkpt lat="44.99338" lon="6.45924">
        <ele>2138.2</ele>
        <time>2022-01-14T09:22:48Z</time>
      </trkpt>
      <trkpt lat="44.99337" lon="6.45924">
        <ele>2138.2</ele>
        <time>2022-01-14T09:22:49Z</time>
      </trkpt>
      <trkpt lat="44.99338" lon="6.45924">
        <ele>2138.2</ele>
        <time>2022-01-14T09:22:50Z</time>
      </trkpt>
      <trkpt lat="44.99338" lon="6.45926">
        <ele>2138.2</ele>
        <time>2022-01-14T09:22:51Z</time>
      </trkpt>
      <trkpt lat="44.99338" lon="6.45927">
        <ele>2138.2</ele>
        <time>2022-01-14T09:22:52Z</time>
      </trkpt>
      <trkpt lat="44.99337" lon="6.45927">
        <ele>2138.2</ele>
        <time>2022-01-14T09:22:53Z</time>
      </trkpt>
      <trkpt lat="44.99336" lon="6.45927">
        <ele>2138.2</ele>
        <time>2022-01-14T09:22:54Z</time>
      </trkpt>
      <trkpt lat="44.99335" lon="6.45927">
        <ele>2138.2</ele>
        <time>2022-01-14T09:22:55Z</time>
      </trkpt>
      <trkpt lat="44.99334" lon="6.45927">
        <ele>2138.2</ele>
        <time>2022-01-14T09:22:56Z</time>
      </trkpt>
      <trkpt lat="44.99333" lon="6.45926">
        <ele>2137.2</ele>
        <time>2022-01-14T09:22:57Z</time>
      </trkpt>
      <trkpt lat="44.99333" lon="6.45927">
        <ele>2137.2</ele>
        <time>2022-01-14T09:22:58Z</time>
      </trkpt>
      <trkpt lat="44.99332" lon="6.45927">
        <ele>2137.2</ele>
        <time>2022-01-14T09:22:59Z</time>
      </trkpt>
      <trkpt lat="44.99331" lon="6.45925">
        <ele>2137.2</ele>
        <time>2022-01-14T09:23:00Z</time>
      </trkpt>
      <trkpt lat="44.99331" lon="6.45925">
        <ele>2137.2</ele>
        <time>2022-01-14T09:23:01Z</time>
      </trkpt>
      <trkpt lat="44.99331" lon="6.45924">
        <ele>2137.2</ele>
        <time>2022-01-14T09:23:02Z</time>
      </trkpt>
      <trkpt lat="44.9933" lon="6.45923">
        <ele>2137.2</ele>
        <time>2022-01-14T09:23:03Z</time>
      </trkpt>
      <trkpt lat="44.9933" lon="6.45923">
        <ele>2137.2</ele>
        <time>2022-01-14T09:23:04Z</time>
      </trkpt>
      <trkpt lat="44.9933" lon="6.45922">
        <ele>2137.2</ele>
        <time>2022-01-14T09:23:05Z</time>
      </trkpt>
      <trkpt lat="44.99329" lon="6.45921">
        <ele>2137.2</ele>
        <time>2022-01-14T09:23:06Z</time>
      </trkpt>
      <trkpt lat="44.99328" lon="6.45921">
        <ele>2137.2</ele>
        <time>2022-01-14T09:23:07Z</time>
      </trkpt>
      <trkpt lat="44.99327" lon="6.45921">
        <ele>2137.2</ele>
        <time>2022-01-14T09:23:08Z</time>
      </trkpt>
      <trkpt lat="44.99326" lon="6.45922">
        <ele>2137.2</ele>
        <time>2022-01-14T09:23:09Z</time>
      </trkpt>
      <trkpt lat="44.99326" lon="6.45922">
        <ele>2137.2</ele>
        <time>2022-01-14T09:23:10Z</time>
      </trkpt>
      <trkpt lat="44.99325" lon="6.45922">
        <ele>2137.2</ele>
        <time>2022-01-14T09:23:11Z</time>
      </trkpt>
      <trkpt lat="44.99325" lon="6.45921">
        <ele>2137.2</ele>
        <time>2022-01-14T09:23:12Z</time>
      </trkpt>
      <trkpt lat="44.99324" lon="6.45921">
        <ele>2137.2</ele>
        <time>2022-01-14T09:23:13Z</time>
      </trkpt>
      <trkpt lat="44.99324" lon="6.45921">
        <ele>2137.2</ele>
        <time>2022-01-14T09:23:14Z</time>
      </trkpt>
      <trkpt lat="44.99324" lon="6.45921">
        <ele>2137.2</ele>
        <time>2022-01-14T09:23:15Z</time>
      </trkpt>
      <trkpt lat="44.99323" lon="6.4592">
        <ele>2137.2</ele>
        <time>2022-01-14T09:23:16Z</time>
      </trkpt>
      <trkpt lat="44.99322" lon="6.4592">
        <ele>2137.2</ele>
        <time>2022-01-14T09:23:17Z</time>
      </trkpt>
      <trkpt lat="44.99322" lon="6.45919">
        <ele>2137.2</ele>
        <time>2022-01-14T09:23:18Z</time>
      </trkpt>
      <trkpt lat="44.99322" lon="6.45918">
        <ele>2137.2</ele>
        <time>2022-01-14T09:23:19Z</time>
      </trkpt>
      <trkpt lat="44.99322" lon="6.45917">
        <ele>2137.2</ele>
        <time>2022-01-14T09:23:20Z</time>
      </trkpt>
      <trkpt lat="44.99322" lon="6.45916">
        <ele>2137.2</ele>
        <time>2022-01-14T09:23:21Z</time>
      </trkpt>
      <trkpt lat="44.99321" lon="6.45916">
        <ele>2136.1</ele>
        <time>2022-01-14T09:23:22Z</time>
      </trkpt>
      <trkpt lat="44.9932" lon="6.45916">
        <ele>2136.1</ele>
        <time>2022-01-14T09:23:23Z</time>
      </trkpt>
      <trkpt lat="44.9932" lon="6.45915">
        <ele>2136.1</ele>
        <time>2022-01-14T09:23:24Z</time>
      </trkpt>
      <trkpt lat="44.9932" lon="6.45915">
        <ele>2136.1</ele>
        <time>2022-01-14T09:23:25Z</time>
      </trkpt>
      <trkpt lat="44.9932" lon="6.45914">
        <ele>2136.1</ele>
        <time>2022-01-14T09:23:26Z</time>
      </trkpt>
      <trkpt lat="44.99319" lon="6.45913">
        <ele>2136.1</ele>
        <time>2022-01-14T09:23:27Z</time>
      </trkpt>
      <trkpt lat="44.99318" lon="6.45914">
        <ele>2136.1</ele>
        <time>2022-01-14T09:23:28Z</time>
      </trkpt>
      <trkpt lat="44.99317" lon="6.45915">
        <ele>2136.1</ele>
        <time>2022-01-14T09:23:29Z</time>
      </trkpt>
      <trkpt lat="44.99317" lon="6.45914">
        <ele>2136.1</ele>
        <time>2022-01-14T09:23:30Z</time>
      </trkpt>
      <trkpt lat="44.99317" lon="6.45914">
        <ele>2136.1</ele>
        <time>2022-01-14T09:23:31Z</time>
      </trkpt>
      <trkpt lat="44.99316" lon="6.45914">
        <ele>2136.1</ele>
        <time>2022-01-14T09:23:32Z</time>
      </trkpt>
      <trkpt lat="44.99315" lon="6.45914">
        <ele>2136.1</ele>
        <time>2022-01-14T09:23:33Z</time>
      </trkpt>
      <trkpt lat="44.99314" lon="6.45913">
        <ele>2136.1</ele>
        <time>2022-01-14T09:23:34Z</time>
      </trkpt>
      <trkpt lat="44.99314" lon="6.45912">
        <ele>2136.1</ele>
        <time>2022-01-14T09:23:35Z</time>
      </trkpt>
      <trkpt lat="44.99314" lon="6.45912">
        <ele>2136.1</ele>
        <time>2022-01-14T09:23:36Z</time>
      </trkpt>
      <trkpt lat="44.99314" lon="6.45912">
        <ele>2136.1</ele>
        <time>2022-01-14T09:23:37Z</time>
      </trkpt>
      <trkpt lat="44.99314" lon="6.45912">
        <ele>2136.1</ele>
        <time>2022-01-14T09:23:38Z</time>
      </trkpt>
      <trkpt lat="44.99314" lon="6.45912">
        <ele>2136.1</ele>
        <time>2022-01-14T09:23:39Z</time>
      </trkpt>
      <trkpt lat="44.99314" lon="6.45912">
        <ele>2136.1</ele>
        <time>2022-01-14T09:23:40Z</time>
      </trkpt>
      <trkpt lat="44.99314" lon="6.45913">
        <ele>2136.1</ele>
        <time>2022-01-14T09:23:41Z</time>
      </trkpt>
      <trkpt lat="44.99313" lon="6.45912">
        <ele>2136.1</ele>
        <time>2022-01-14T09:23:42Z</time>
      </trkpt>
      <trkpt lat="44.99313" lon="6.45913">
        <ele>2136.1</ele>
        <time>2022-01-14T09:23:43Z</time>
      </trkpt>
      <trkpt lat="44.99312" lon="6.45914">
        <ele>2136.1</ele>
        <time>2022-01-14T09:23:44Z</time>
      </trkpt>
      <trkpt lat="44.99312" lon="6.45914">
        <ele>2136.1</ele>
        <time>2022-01-14T09:23:45Z</time>
      </trkpt>
      <trkpt lat="44.99312" lon="6.45915">
        <ele>2136.1</ele>
        <time>2022-01-14T09:23:47Z</time>
      </trkpt>
      <trkpt lat="44.99312" lon="6.45915">
        <ele>2136.1</ele>
        <time>2022-01-14T09:23:48Z</time>
      </trkpt>
      <trkpt lat="44.99312" lon="6.45916">
        <ele>2136.1</ele>
        <time>2022-01-14T09:23:49Z</time>
      </trkpt>
      <trkpt lat="44.99312" lon="6.45917">
        <ele>2136.1</ele>
        <time>2022-01-14T09:23:50Z</time>
      </trkpt>
      <trkpt lat="44.99312" lon="6.45918">
        <ele>2136.1</ele>
        <time>2022-01-14T09:23:51Z</time>
      </trkpt>
      <trkpt lat="44.99312" lon="6.45918">
        <ele>2136.1</ele>
        <time>2022-01-14T09:23:52Z</time>
      </trkpt>
      <trkpt lat="44.99311" lon="6.45917">
        <ele>2136.1</ele>
        <time>2022-01-14T09:23:53Z</time>
      </trkpt>
      <trkpt lat="44.99311" lon="6.45916">
        <ele>2136.1</ele>
        <time>2022-01-14T09:23:54Z</time>
      </trkpt>
      <trkpt lat="44.9931" lon="6.45916">
        <ele>2136.1</ele>
        <time>2022-01-14T09:23:55Z</time>
      </trkpt>
      <trkpt lat="44.9931" lon="6.45916">
        <ele>2136.1</ele>
        <time>2022-01-14T09:23:56Z</time>
      </trkpt>
      <trkpt lat="44.9931" lon="6.45916">
        <ele>2136.1</ele>
        <time>2022-01-14T09:23:57Z</time>
      </trkpt>
      <trkpt lat="44.99309" lon="6.45915">
        <ele>2134.9</ele>
        <time>2022-01-14T09:23:58Z</time>
      </trkpt>
      <trkpt lat="44.99308" lon="6.45916">
        <ele>2134.9</ele>
        <time>2022-01-14T09:23:59Z</time>
      </trkpt>
      <trkpt lat="44.99307" lon="6.45915">
        <ele>2134.9</ele>
        <time>2022-01-14T09:24:00Z</time>
      </trkpt>
      <trkpt lat="44.99307" lon="6.45915">
        <ele>2134.9</ele>
        <time>2022-01-14T09:24:01Z</time>
      </trkpt>
      <trkpt lat="44.99307" lon="6.45915">
        <ele>2134.9</ele>
        <time>2022-01-14T09:24:02Z</time>
      </trkpt>
      <trkpt lat="44.99306" lon="6.45914">
        <ele>2134.9</ele>
        <time>2022-01-14T09:24:03Z</time>
      </trkpt>
      <trkpt lat="44.99306" lon="6.45914">
        <ele>2134.9</ele>
        <time>2022-01-14T09:24:04Z</time>
      </trkpt>
      <trkpt lat="44.99305" lon="6.45914">
        <ele>2134.9</ele>
        <time>2022-01-14T09:24:05Z</time>
      </trkpt>
      <trkpt lat="44.99305" lon="6.45913">
        <ele>2134.9</ele>
        <time>2022-01-14T09:24:06Z</time>
      </trkpt>
      <trkpt lat="44.99305" lon="6.45913">
        <ele>2134.9</ele>
        <time>2022-01-14T09:24:07Z</time>
      </trkpt>
      <trkpt lat="44.99305" lon="6.45914">
        <ele>2134.9</ele>
        <time>2022-01-14T09:24:08Z</time>
      </trkpt>
      <trkpt lat="44.99305" lon="6.45913">
        <ele>2134.9</ele>
        <time>2022-01-14T09:24:09Z</time>
      </trkpt>
      <trkpt lat="44.99305" lon="6.45913">
        <ele>2134.9</ele>
        <time>2022-01-14T09:24:10Z</time>
      </trkpt>
      <trkpt lat="44.99305" lon="6.45913">
        <ele>2134.9</ele>
        <time>2022-01-14T09:24:11Z</time>
      </trkpt>
      <trkpt lat="44.99305" lon="6.45914">
        <ele>2134.9</ele>
        <time>2022-01-14T09:24:12Z</time>
      </trkpt>
      <trkpt lat="44.99305" lon="6.45913">
        <ele>2134.9</ele>
        <time>2022-01-14T09:24:13Z</time>
      </trkpt>
      <trkpt lat="44.99304" lon="6.45914">
        <ele>2134.9</ele>
        <time>2022-01-14T09:24:14Z</time>
      </trkpt>
      <trkpt lat="44.99303" lon="6.45914">
        <ele>2134.9</ele>
        <time>2022-01-14T09:24:15Z</time>
      </trkpt>
      <trkpt lat="44.99303" lon="6.45914">
        <ele>2134.9</ele>
        <time>2022-01-14T09:24:16Z</time>
      </trkpt>
      <trkpt lat="44.99302" lon="6.45914">
        <ele>2134.9</ele>
        <time>2022-01-14T09:24:17Z</time>
      </trkpt>
      <trkpt lat="44.99301" lon="6.45914">
        <ele>2134.9</ele>
        <time>2022-01-14T09:24:18Z</time>
      </trkpt>
      <trkpt lat="44.99301" lon="6.45914">
        <ele>2134.9</ele>
        <time>2022-01-14T09:24:19Z</time>
      </trkpt>
      <trkpt lat="44.993" lon="6.45914">
        <ele>2134.9</ele>
        <time>2022-01-14T09:24:20Z</time>
      </trkpt>
      <trkpt lat="44.993" lon="6.45914">
        <ele>2134.9</ele>
        <time>2022-01-14T09:24:21Z</time>
      </trkpt>
      <trkpt lat="44.993" lon="6.45913">
        <ele>2134.9</ele>
        <time>2022-01-14T09:24:22Z</time>
      </trkpt>
      <trkpt lat="44.993" lon="6.45912">
        <ele>2134.9</ele>
        <time>2022-01-14T09:24:23Z</time>
      </trkpt>
      <trkpt lat="44.99299" lon="6.45912">
        <ele>2134.9</ele>
        <time>2022-01-14T09:24:24Z</time>
      </trkpt>
      <trkpt lat="44.99299" lon="6.45912">
        <ele>2134.9</ele>
        <time>2022-01-14T09:24:25Z</time>
      </trkpt>
      <trkpt lat="44.99298" lon="6.45911">
        <ele>2134.9</ele>
        <time>2022-01-14T09:24:26Z</time>
      </trkpt>
      <trkpt lat="44.99298" lon="6.4591">
        <ele>2134.9</ele>
        <time>2022-01-14T09:24:27Z</time>
      </trkpt>
      <trkpt lat="44.99297" lon="6.4591">
        <ele>2134.9</ele>
        <time>2022-01-14T09:24:28Z</time>
      </trkpt>
      <trkpt lat="44.99297" lon="6.45911">
        <ele>2134.9</ele>
        <time>2022-01-14T09:24:29Z</time>
      </trkpt>
      <trkpt lat="44.99297" lon="6.45911">
        <ele>2134.9</ele>
        <time>2022-01-14T09:24:30Z</time>
      </trkpt>
      <trkpt lat="44.99297" lon="6.45911">
        <ele>2134.9</ele>
        <time>2022-01-14T09:24:31Z</time>
      </trkpt>
      <trkpt lat="44.99297" lon="6.45911">
        <ele>2134.9</ele>
        <time>2022-01-14T09:24:32Z</time>
      </trkpt>
      <trkpt lat="44.99298" lon="6.4591">
        <ele>2134.9</ele>
        <time>2022-01-14T09:24:33Z</time>
      </trkpt>
      <trkpt lat="44.99298" lon="6.45911">
        <ele>2134.9</ele>
        <time>2022-01-14T09:24:34Z</time>
      </trkpt>
      <trkpt lat="44.99298" lon="6.45911">
        <ele>2134.9</ele>
        <time>2022-01-14T09:24:35Z</time>
      </trkpt>
      <trkpt lat="44.99298" lon="6.4591">
        <ele>2145.1</ele>
        <time>2022-01-14T09:24:36Z</time>
      </trkpt>
      <trkpt lat="44.99297" lon="6.45909">
        <ele>2145.1</ele>
        <time>2022-01-14T09:24:37Z</time>
      </trkpt>
      <trkpt lat="44.99297" lon="6.45909">
        <ele>2145.1</ele>
        <time>2022-01-14T09:24:38Z</time>
      </trkpt>
      <trkpt lat="44.99297" lon="6.45908">
        <ele>2144.4</ele>
        <time>2022-01-14T09:24:39Z</time>
      </trkpt>
      <trkpt lat="44.99296" lon="6.45906">
        <ele>2144.4</ele>
        <time>2022-01-14T09:24:40Z</time>
      </trkpt>
      <trkpt lat="44.99296" lon="6.45905">
        <ele>2144.4</ele>
        <time>2022-01-14T09:24:41Z</time>
      </trkpt>
      <trkpt lat="44.99296" lon="6.45905">
        <ele>2144.4</ele>
        <time>2022-01-14T09:24:42Z</time>
      </trkpt>
      <trkpt lat="44.99295" lon="6.45904">
        <ele>2144.4</ele>
        <time>2022-01-14T09:24:43Z</time>
      </trkpt>
      <trkpt lat="44.99295" lon="6.45904">
        <ele>2144.4</ele>
        <time>2022-01-14T09:24:44Z</time>
      </trkpt>
      <trkpt lat="44.99294" lon="6.45904">
        <ele>2144.4</ele>
        <time>2022-01-14T09:24:45Z</time>
      </trkpt>
      <trkpt lat="44.99293" lon="6.45904">
        <ele>2144.4</ele>
        <time>2022-01-14T09:24:46Z</time>
      </trkpt>
      <trkpt lat="44.99292" lon="6.45905">
        <ele>2144.4</ele>
        <time>2022-01-14T09:24:47Z</time>
      </trkpt>
      <trkpt lat="44.99293" lon="6.45903">
        <ele>2144.4</ele>
        <time>2022-01-14T09:24:48Z</time>
      </trkpt>
      <trkpt lat="44.99292" lon="6.45902">
        <ele>2144.4</ele>
        <time>2022-01-14T09:24:49Z</time>
      </trkpt>
      <trkpt lat="44.99292" lon="6.45902">
        <ele>2144.4</ele>
        <time>2022-01-14T09:24:50Z</time>
      </trkpt>
      <trkpt lat="44.99291" lon="6.45901">
        <ele>2144.4</ele>
        <time>2022-01-14T09:24:51Z</time>
      </trkpt>
      <trkpt lat="44.9929" lon="6.45901">
        <ele>2144.4</ele>
        <time>2022-01-14T09:24:52Z</time>
      </trkpt>
      <trkpt lat="44.9929" lon="6.459">
        <ele>2144.4</ele>
        <time>2022-01-14T09:24:53Z</time>
      </trkpt>
      <trkpt lat="44.9929" lon="6.45901">
        <ele>2144.4</ele>
        <time>2022-01-14T09:24:54Z</time>
      </trkpt>
      <trkpt lat="44.9929" lon="6.45902">
        <ele>2144.4</ele>
        <time>2022-01-14T09:24:55Z</time>
      </trkpt>
      <trkpt lat="44.9929" lon="6.45902">
        <ele>2144.4</ele>
        <time>2022-01-14T09:24:56Z</time>
      </trkpt>
      <trkpt lat="44.9929" lon="6.45902">
        <ele>2144.4</ele>
        <time>2022-01-14T09:24:57Z</time>
      </trkpt>
      <trkpt lat="44.99289" lon="6.45902">
        <ele>2144.4</ele>
        <time>2022-01-14T09:24:58Z</time>
      </trkpt>
      <trkpt lat="44.99289" lon="6.45902">
        <ele>2144.4</ele>
        <time>2022-01-14T09:24:59Z</time>
      </trkpt>
      <trkpt lat="44.99289" lon="6.45903">
        <ele>2144.4</ele>
        <time>2022-01-14T09:25:00Z</time>
      </trkpt>
      <trkpt lat="44.99289" lon="6.45904">
        <ele>2144.4</ele>
        <time>2022-01-14T09:25:01Z</time>
      </trkpt>
      <trkpt lat="44.9929" lon="6.45904">
        <ele>2144.4</ele>
        <time>2022-01-14T09:25:02Z</time>
      </trkpt>
      <trkpt lat="44.9929" lon="6.45905">
        <ele>2144.4</ele>
        <time>2022-01-14T09:25:03Z</time>
      </trkpt>
      <trkpt lat="44.9929" lon="6.45905">
        <ele>2144.4</ele>
        <time>2022-01-14T09:25:04Z</time>
      </trkpt>
      <trkpt lat="44.9929" lon="6.45905">
        <ele>2144.4</ele>
        <time>2022-01-14T09:25:05Z</time>
      </trkpt>
      <trkpt lat="44.9929" lon="6.45905">
        <ele>2144.4</ele>
        <time>2022-01-14T09:25:06Z</time>
      </trkpt>
      <trkpt lat="44.9929" lon="6.45905">
        <ele>2144.4</ele>
        <time>2022-01-14T09:25:07Z</time>
      </trkpt>
      <trkpt lat="44.9929" lon="6.45905">
        <ele>2144.4</ele>
        <time>2022-01-14T09:25:08Z</time>
      </trkpt>
      <trkpt lat="44.99289" lon="6.45904">
        <ele>2144.4</ele>
        <time>2022-01-14T09:25:09Z</time>
      </trkpt>
      <trkpt lat="44.99289" lon="6.45903">
        <ele>2144.4</ele>
        <time>2022-01-14T09:25:11Z</time>
      </trkpt>
      <trkpt lat="44.99289" lon="6.45903">
        <ele>2144.4</ele>
        <time>2022-01-14T09:25:12Z</time>
      </trkpt>
      <trkpt lat="44.99289" lon="6.45902">
        <ele>2144.4</ele>
        <time>2022-01-14T09:25:13Z</time>
      </trkpt>
      <trkpt lat="44.99289" lon="6.45902">
        <ele>2144.4</ele>
        <time>2022-01-14T09:25:14Z</time>
      </trkpt>
      <trkpt lat="44.9929" lon="6.45902">
        <ele>2144.4</ele>
        <time>2022-01-14T09:25:15Z</time>
      </trkpt>
      <trkpt lat="44.9929" lon="6.45902">
        <ele>2144.4</ele>
        <time>2022-01-14T09:25:16Z</time>
      </trkpt>
      <trkpt lat="44.9929" lon="6.45901">
        <ele>2144.4</ele>
        <time>2022-01-14T09:25:17Z</time>
      </trkpt>
      <trkpt lat="44.9929" lon="6.45901">
        <ele>2144.4</ele>
        <time>2022-01-14T09:25:18Z</time>
      </trkpt>
      <trkpt lat="44.99291" lon="6.45901">
        <ele>2144.4</ele>
        <time>2022-01-14T09:25:19Z</time>
      </trkpt>
      <trkpt lat="44.9929" lon="6.45901">
        <ele>2144.4</ele>
        <time>2022-01-14T09:25:20Z</time>
      </trkpt>
      <trkpt lat="44.9929" lon="6.45901">
        <ele>2144.4</ele>
        <time>2022-01-14T09:25:21Z</time>
      </trkpt>
      <trkpt lat="44.9929" lon="6.45901">
        <ele>2144.4</ele>
        <time>2022-01-14T09:25:22Z</time>
      </trkpt>
      <trkpt lat="44.99291" lon="6.45901">
        <ele>2144.4</ele>
        <time>2022-01-14T09:25:23Z</time>
      </trkpt>
      <trkpt lat="44.99291" lon="6.459">
        <ele>2144.4</ele>
        <time>2022-01-14T09:25:24Z</time>
      </trkpt>
      <trkpt lat="44.99292" lon="6.45901">
        <ele>2144.4</ele>
        <time>2022-01-14T09:25:25Z</time>
      </trkpt>
      <trkpt lat="44.99292" lon="6.45901">
        <ele>2144.4</ele>
        <time>2022-01-14T09:25:26Z</time>
      </trkpt>
      <trkpt lat="44.99291" lon="6.45901">
        <ele>2144.4</ele>
        <time>2022-01-14T09:25:27Z</time>
      </trkpt>
      <trkpt lat="44.99292" lon="6.459">
        <ele>2144.4</ele>
        <time>2022-01-14T09:25:28Z</time>
      </trkpt>
      <trkpt lat="44.99291" lon="6.45901">
        <ele>2144.4</ele>
        <time>2022-01-14T09:25:29Z</time>
      </trkpt>
      <trkpt lat="44.99292" lon="6.459">
        <ele>2144.4</ele>
        <time>2022-01-14T09:25:30Z</time>
      </trkpt>
      <trkpt lat="44.99292" lon="6.459">
        <ele>2144.4</ele>
        <time>2022-01-14T09:25:31Z</time>
      </trkpt>
      <trkpt lat="44.99292" lon="6.459">
        <ele>2144.4</ele>
        <time>2022-01-14T09:25:32Z</time>
      </trkpt>
      <trkpt lat="44.99293" lon="6.45898">
        <ele>2144.4</ele>
        <time>2022-01-14T09:25:33Z</time>
      </trkpt>
      <trkpt lat="44.99294" lon="6.45897">
        <ele>2144.4</ele>
        <time>2022-01-14T09:25:34Z</time>
      </trkpt>
      <trkpt lat="44.99294" lon="6.45897">
        <ele>2144.4</ele>
        <time>2022-01-14T09:25:35Z</time>
      </trkpt>
      <trkpt lat="44.99294" lon="6.45897">
        <ele>2144.4</ele>
        <time>2022-01-14T09:25:36Z</time>
      </trkpt>
      <trkpt lat="44.99295" lon="6.45897">
        <ele>2144.4</ele>
        <time>2022-01-14T09:25:37Z</time>
      </trkpt>
      <trkpt lat="44.99295" lon="6.45897">
        <ele>2144.4</ele>
        <time>2022-01-14T09:25:38Z</time>
      </trkpt>
      <trkpt lat="44.99296" lon="6.45896">
        <ele>2144.4</ele>
        <time>2022-01-14T09:25:39Z</time>
      </trkpt>
      <trkpt lat="44.99295" lon="6.45896">
        <ele>2144.4</ele>
        <time>2022-01-14T09:25:40Z</time>
      </trkpt>
      <trkpt lat="44.99295" lon="6.45896">
        <ele>2144.4</ele>
        <time>2022-01-14T09:25:41Z</time>
      </trkpt>
      <trkpt lat="44.99296" lon="6.45896">
        <ele>2144.4</ele>
        <time>2022-01-14T09:25:42Z</time>
      </trkpt>
      <trkpt lat="44.99296" lon="6.45895">
        <ele>2144.4</ele>
        <time>2022-01-14T09:25:43Z</time>
      </trkpt>
      <trkpt lat="44.99297" lon="6.45894">
        <ele>2144.4</ele>
        <time>2022-01-14T09:25:44Z</time>
      </trkpt>
      <trkpt lat="44.99297" lon="6.45893">
        <ele>2144.4</ele>
        <time>2022-01-14T09:25:45Z</time>
      </trkpt>
      <trkpt lat="44.99297" lon="6.45893">
        <ele>2156.3</ele>
        <time>2022-01-14T09:25:46Z</time>
      </trkpt>
      <trkpt lat="44.99297" lon="6.45893">
        <ele>2156.3</ele>
        <time>2022-01-14T09:25:47Z</time>
      </trkpt>
      <trkpt lat="44.99297" lon="6.45893">
        <ele>2156.3</ele>
        <time>2022-01-14T09:25:48Z</time>
      </trkpt>
      <trkpt lat="44.99298" lon="6.45893">
        <ele>2156.3</ele>
        <time>2022-01-14T09:25:49Z</time>
      </trkpt>
      <trkpt lat="44.99298" lon="6.45893">
        <ele>2145.1</ele>
        <time>2022-01-14T09:25:50Z</time>
      </trkpt>
      <trkpt lat="44.99298" lon="6.45893">
        <ele>2145.1</ele>
        <time>2022-01-14T09:25:51Z</time>
      </trkpt>
      <trkpt lat="44.99298" lon="6.45893">
        <ele>2145.1</ele>
        <time>2022-01-14T09:25:52Z</time>
      </trkpt>
      <trkpt lat="44.99298" lon="6.45893">
        <ele>2156.3</ele>
        <time>2022-01-14T09:25:53Z</time>
      </trkpt>
      <trkpt lat="44.99299" lon="6.45893">
        <ele>2156.3</ele>
        <time>2022-01-14T09:25:54Z</time>
      </trkpt>
      <trkpt lat="44.99301" lon="6.45893">
        <ele>2156.3</ele>
        <time>2022-01-14T09:25:55Z</time>
      </trkpt>
      <trkpt lat="44.99302" lon="6.45893">
        <ele>2156.3</ele>
        <time>2022-01-14T09:25:56Z</time>
      </trkpt>
      <trkpt lat="44.99303" lon="6.45893">
        <ele>2145.1</ele>
        <time>2022-01-14T09:25:57Z</time>
      </trkpt>
      <trkpt lat="44.99304" lon="6.45894">
        <ele>2145.1</ele>
        <time>2022-01-14T09:25:58Z</time>
      </trkpt>
      <trkpt lat="44.99304" lon="6.45893">
        <ele>2145.1</ele>
        <time>2022-01-14T09:25:59Z</time>
      </trkpt>
      <trkpt lat="44.99304" lon="6.45893">
        <ele>2156.3</ele>
        <time>2022-01-14T09:26:00Z</time>
      </trkpt>
      <trkpt lat="44.99305" lon="6.45892">
        <ele>2156.3</ele>
        <time>2022-01-14T09:26:01Z</time>
      </trkpt>
      <trkpt lat="44.99305" lon="6.45891">
        <ele>2156.3</ele>
        <time>2022-01-14T09:26:02Z</time>
      </trkpt>
      <trkpt lat="44.99305" lon="6.45891">
        <ele>2156.3</ele>
        <time>2022-01-14T09:26:03Z</time>
      </trkpt>
      <trkpt lat="44.99305" lon="6.4589">
        <ele>2156.3</ele>
        <time>2022-01-14T09:26:04Z</time>
      </trkpt>
      <trkpt lat="44.99306" lon="6.4589">
        <ele>2156.3</ele>
        <time>2022-01-14T09:26:05Z</time>
      </trkpt>
      <trkpt lat="44.99306" lon="6.4589">
        <ele>2156.3</ele>
        <time>2022-01-14T09:26:06Z</time>
      </trkpt>
      <trkpt lat="44.99306" lon="6.4589">
        <ele>2156.3</ele>
        <time>2022-01-14T09:26:07Z</time>
      </trkpt>
      <trkpt lat="44.99306" lon="6.4589">
        <ele>2156.3</ele>
        <time>2022-01-14T09:26:08Z</time>
      </trkpt>
      <trkpt lat="44.99307" lon="6.4589">
        <ele>2156.3</ele>
        <time>2022-01-14T09:26:09Z</time>
      </trkpt>
      <trkpt lat="44.99307" lon="6.45889">
        <ele>2156.3</ele>
        <time>2022-01-14T09:26:10Z</time>
      </trkpt>
      <trkpt lat="44.99307" lon="6.45889">
        <ele>2156.3</ele>
        <time>2022-01-14T09:26:11Z</time>
      </trkpt>
      <trkpt lat="44.99308" lon="6.45889">
        <ele>2156.3</ele>
        <time>2022-01-14T09:26:12Z</time>
      </trkpt>
      <trkpt lat="44.99308" lon="6.45888">
        <ele>2156.3</ele>
        <time>2022-01-14T09:26:13Z</time>
      </trkpt>
      <trkpt lat="44.99309" lon="6.45888">
        <ele>2156.3</ele>
        <time>2022-01-14T09:26:14Z</time>
      </trkpt>
      <trkpt lat="44.99309" lon="6.45887">
        <ele>2157.4</ele>
        <time>2022-01-14T09:26:15Z</time>
      </trkpt>
      <trkpt lat="44.9931" lon="6.45886">
        <ele>2157.4</ele>
        <time>2022-01-14T09:26:16Z</time>
      </trkpt>
      <trkpt lat="44.99311" lon="6.45886">
        <ele>2157.4</ele>
        <time>2022-01-14T09:26:17Z</time>
      </trkpt>
      <trkpt lat="44.99311" lon="6.45886">
        <ele>2157.4</ele>
        <time>2022-01-14T09:26:18Z</time>
      </trkpt>
      <trkpt lat="44.99311" lon="6.45886">
        <ele>2157.4</ele>
        <time>2022-01-14T09:26:19Z</time>
      </trkpt>
      <trkpt lat="44.99311" lon="6.45886">
        <ele>2157.4</ele>
        <time>2022-01-14T09:26:20Z</time>
      </trkpt>
      <trkpt lat="44.99311" lon="6.45886">
        <ele>2157.4</ele>
        <time>2022-01-14T09:26:21Z</time>
      </trkpt>
      <trkpt lat="44.99311" lon="6.45886">
        <ele>2157.4</ele>
        <time>2022-01-14T09:26:22Z</time>
      </trkpt>
      <trkpt lat="44.99312" lon="6.45886">
        <ele>2157.4</ele>
        <time>2022-01-14T09:26:23Z</time>
      </trkpt>
      <trkpt lat="44.99312" lon="6.45886">
        <ele>2157.4</ele>
        <time>2022-01-14T09:26:24Z</time>
      </trkpt>
      <trkpt lat="44.99312" lon="6.45886">
        <ele>2157.4</ele>
        <time>2022-01-14T09:26:25Z</time>
      </trkpt>
      <trkpt lat="44.99313" lon="6.45885">
        <ele>2157.4</ele>
        <time>2022-01-14T09:26:26Z</time>
      </trkpt>
      <trkpt lat="44.99313" lon="6.45885">
        <ele>2157.4</ele>
        <time>2022-01-14T09:26:27Z</time>
      </trkpt>
      <trkpt lat="44.99313" lon="6.45885">
        <ele>2157.4</ele>
        <time>2022-01-14T09:26:28Z</time>
      </trkpt>
      <trkpt lat="44.99313" lon="6.45885">
        <ele>2157.4</ele>
        <time>2022-01-14T09:26:29Z</time>
      </trkpt>
      <trkpt lat="44.99313" lon="6.45885">
        <ele>2157.4</ele>
        <time>2022-01-14T09:26:30Z</time>
      </trkpt>
      <trkpt lat="44.99313" lon="6.45884">
        <ele>2157.4</ele>
        <time>2022-01-14T09:26:31Z</time>
      </trkpt>
      <trkpt lat="44.99314" lon="6.45883">
        <ele>2157.4</ele>
        <time>2022-01-14T09:26:32Z</time>
      </trkpt>
      <trkpt lat="44.99314" lon="6.45883">
        <ele>2157.4</ele>
        <time>2022-01-14T09:26:33Z</time>
      </trkpt>
      <trkpt lat="44.99315" lon="6.45882">
        <ele>2157.4</ele>
        <time>2022-01-14T09:26:34Z</time>
      </trkpt>
      <trkpt lat="44.99315" lon="6.45881">
        <ele>2157.4</ele>
        <time>2022-01-14T09:26:35Z</time>
      </trkpt>
      <trkpt lat="44.99316" lon="6.45881">
        <ele>2157.4</ele>
        <time>2022-01-14T09:26:36Z</time>
      </trkpt>
      <trkpt lat="44.99317" lon="6.4588">
        <ele>2157.4</ele>
        <time>2022-01-14T09:26:37Z</time>
      </trkpt>
      <trkpt lat="44.99317" lon="6.45879">
        <ele>2157.4</ele>
        <time>2022-01-14T09:26:38Z</time>
      </trkpt>
      <trkpt lat="44.99317" lon="6.45879">
        <ele>2157.4</ele>
        <time>2022-01-14T09:26:39Z</time>
      </trkpt>
      <trkpt lat="44.99317" lon="6.45878">
        <ele>2157.4</ele>
        <time>2022-01-14T09:26:40Z</time>
      </trkpt>
      <trkpt lat="44.99317" lon="6.45877">
        <ele>2157.4</ele>
        <time>2022-01-14T09:26:41Z</time>
      </trkpt>
      <trkpt lat="44.99317" lon="6.45877">
        <ele>2157.4</ele>
        <time>2022-01-14T09:26:42Z</time>
      </trkpt>
      <trkpt lat="44.99317" lon="6.45878">
        <ele>2157.4</ele>
        <time>2022-01-14T09:26:43Z</time>
      </trkpt>
      <trkpt lat="44.99316" lon="6.45878">
        <ele>2157.4</ele>
        <time>2022-01-14T09:26:44Z</time>
      </trkpt>
      <trkpt lat="44.99316" lon="6.45877">
        <ele>2157.4</ele>
        <time>2022-01-14T09:26:45Z</time>
      </trkpt>
      <trkpt lat="44.99316" lon="6.45877">
        <ele>2157.4</ele>
        <time>2022-01-14T09:26:46Z</time>
      </trkpt>
      <trkpt lat="44.99316" lon="6.45876">
        <ele>2168.4</ele>
        <time>2022-01-14T09:26:47Z</time>
      </trkpt>
      <trkpt lat="44.99315" lon="6.45876">
        <ele>2168.4</ele>
        <time>2022-01-14T09:26:48Z</time>
      </trkpt>
      <trkpt lat="44.99315" lon="6.45876">
        <ele>2157.4</ele>
        <time>2022-01-14T09:26:49Z</time>
      </trkpt>
      <trkpt lat="44.99315" lon="6.45876">
        <ele>2168.4</ele>
        <time>2022-01-14T09:26:50Z</time>
      </trkpt>
      <trkpt lat="44.99315" lon="6.45876">
        <ele>2157.4</ele>
        <time>2022-01-14T09:26:51Z</time>
      </trkpt>
      <trkpt lat="44.99315" lon="6.45876">
        <ele>2157.4</ele>
        <time>2022-01-14T09:26:52Z</time>
      </trkpt>
      <trkpt lat="44.99314" lon="6.45877">
        <ele>2157.4</ele>
        <time>2022-01-14T09:26:53Z</time>
      </trkpt>
      <trkpt lat="44.99314" lon="6.45877">
        <ele>2157.4</ele>
        <time>2022-01-14T09:26:54Z</time>
      </trkpt>
      <trkpt lat="44.99313" lon="6.45877">
        <ele>2157.4</ele>
        <time>2022-01-14T09:26:55Z</time>
      </trkpt>
      <trkpt lat="44.99314" lon="6.45877">
        <ele>2157.4</ele>
        <time>2022-01-14T09:26:56Z</time>
      </trkpt>
      <trkpt lat="44.99315" lon="6.45875">
        <ele>2168.4</ele>
        <time>2022-01-14T09:26:57Z</time>
      </trkpt>
      <trkpt lat="44.99315" lon="6.45876">
        <ele>2168.4</ele>
        <time>2022-01-14T09:26:58Z</time>
      </trkpt>
      <trkpt lat="44.99315" lon="6.45875">
        <ele>2168.4</ele>
        <time>2022-01-14T09:26:59Z</time>
      </trkpt>
      <trkpt lat="44.99315" lon="6.45875">
        <ele>2168.4</ele>
        <time>2022-01-14T09:27:00Z</time>
      </trkpt>
      <trkpt lat="44.99316" lon="6.45874">
        <ele>2168.4</ele>
        <time>2022-01-14T09:27:01Z</time>
      </trkpt>
      <trkpt lat="44.99316" lon="6.45872">
        <ele>2168.4</ele>
        <time>2022-01-14T09:27:02Z</time>
      </trkpt>
      <trkpt lat="44.99316" lon="6.45871">
        <ele>2168.4</ele>
        <time>2022-01-14T09:27:03Z</time>
      </trkpt>
      <trkpt lat="44.99315" lon="6.45869">
        <ele>2168.4</ele>
        <time>2022-01-14T09:27:04Z</time>
      </trkpt>
      <trkpt lat="44.99315" lon="6.45869">
        <ele>2168.4</ele>
        <time>2022-01-14T09:27:05Z</time>
      </trkpt>
      <trkpt lat="44.99314" lon="6.45869">
        <ele>2168.4</ele>
        <time>2022-01-14T09:27:06Z</time>
      </trkpt>
      <trkpt lat="44.99314" lon="6.45868">
        <ele>2168.4</ele>
        <time>2022-01-14T09:27:07Z</time>
      </trkpt>
      <trkpt lat="44.99313" lon="6.45866">
        <ele>2168.4</ele>
        <time>2022-01-14T09:27:08Z</time>
      </trkpt>
      <trkpt lat="44.99313" lon="6.45866">
        <ele>2168.4</ele>
        <time>2022-01-14T09:27:09Z</time>
      </trkpt>
      <trkpt lat="44.99314" lon="6.45866">
        <ele>2168.4</ele>
        <time>2022-01-14T09:27:10Z</time>
      </trkpt>
      <trkpt lat="44.99314" lon="6.45866">
        <ele>2168.4</ele>
        <time>2022-01-14T09:27:11Z</time>
      </trkpt>
      <trkpt lat="44.99314" lon="6.45866">
        <ele>2168.4</ele>
        <time>2022-01-14T09:27:12Z</time>
      </trkpt>
      <trkpt lat="44.99314" lon="6.45865">
        <ele>2168.4</ele>
        <time>2022-01-14T09:27:13Z</time>
      </trkpt>
      <trkpt lat="44.99313" lon="6.45865">
        <ele>2168.4</ele>
        <time>2022-01-14T09:27:14Z</time>
      </trkpt>
      <trkpt lat="44.99312" lon="6.45866">
        <ele>2168.4</ele>
        <time>2022-01-14T09:27:15Z</time>
      </trkpt>
      <trkpt lat="44.99312" lon="6.45866">
        <ele>2168.4</ele>
        <time>2022-01-14T09:27:16Z</time>
      </trkpt>
      <trkpt lat="44.9931" lon="6.45866">
        <ele>2168.4</ele>
        <time>2022-01-14T09:27:17Z</time>
      </trkpt>
      <trkpt lat="44.99309" lon="6.45865">
        <ele>2168.4</ele>
        <time>2022-01-14T09:27:18Z</time>
      </trkpt>
      <trkpt lat="44.99309" lon="6.45866">
        <ele>2167.4</ele>
        <time>2022-01-14T09:27:19Z</time>
      </trkpt>
      <trkpt lat="44.99309" lon="6.45865">
        <ele>2167.4</ele>
        <time>2022-01-14T09:27:20Z</time>
      </trkpt>
      <trkpt lat="44.99308" lon="6.45865">
        <ele>2167.4</ele>
        <time>2022-01-14T09:27:21Z</time>
      </trkpt>
      <trkpt lat="44.99308" lon="6.45865">
        <ele>2167.4</ele>
        <time>2022-01-14T09:27:22Z</time>
      </trkpt>
      <trkpt lat="44.99309" lon="6.45864">
        <ele>2167.4</ele>
        <time>2022-01-14T09:27:23Z</time>
      </trkpt>
      <trkpt lat="44.99308" lon="6.45864">
        <ele>2167.4</ele>
        <time>2022-01-14T09:27:24Z</time>
      </trkpt>
      <trkpt lat="44.99308" lon="6.45864">
        <ele>2167.4</ele>
        <time>2022-01-14T09:27:25Z</time>
      </trkpt>
      <trkpt lat="44.99308" lon="6.45864">
        <ele>2167.4</ele>
        <time>2022-01-14T09:27:26Z</time>
      </trkpt>
      <trkpt lat="44.99308" lon="6.45864">
        <ele>2167.4</ele>
        <time>2022-01-14T09:27:27Z</time>
      </trkpt>
      <trkpt lat="44.99307" lon="6.45864">
        <ele>2167.4</ele>
        <time>2022-01-14T09:27:28Z</time>
      </trkpt>
      <trkpt lat="44.99307" lon="6.45864">
        <ele>2167.4</ele>
        <time>2022-01-14T09:27:29Z</time>
      </trkpt>
      <trkpt lat="44.99306" lon="6.45864">
        <ele>2167.4</ele>
        <time>2022-01-14T09:27:30Z</time>
      </trkpt>
      <trkpt lat="44.99305" lon="6.45865">
        <ele>2167.4</ele>
        <time>2022-01-14T09:27:31Z</time>
      </trkpt>
      <trkpt lat="44.99303" lon="6.45865">
        <ele>2167.4</ele>
        <time>2022-01-14T09:27:32Z</time>
      </trkpt>
      <trkpt lat="44.99302" lon="6.45866">
        <ele>2167.4</ele>
        <time>2022-01-14T09:27:33Z</time>
      </trkpt>
      <trkpt lat="44.99302" lon="6.45866">
        <ele>2167.4</ele>
        <time>2022-01-14T09:27:34Z</time>
      </trkpt>
      <trkpt lat="44.99302" lon="6.45865">
        <ele>2167.4</ele>
        <time>2022-01-14T09:27:35Z</time>
      </trkpt>
      <trkpt lat="44.99302" lon="6.45865">
        <ele>2167.4</ele>
        <time>2022-01-14T09:27:36Z</time>
      </trkpt>
      <trkpt lat="44.99302" lon="6.45865">
        <ele>2167.4</ele>
        <time>2022-01-14T09:27:37Z</time>
      </trkpt>
      <trkpt lat="44.99302" lon="6.45865">
        <ele>2167.4</ele>
        <time>2022-01-14T09:27:38Z</time>
      </trkpt>
      <trkpt lat="44.99302" lon="6.45865">
        <ele>2167.4</ele>
        <time>2022-01-14T09:27:39Z</time>
      </trkpt>
      <trkpt lat="44.99302" lon="6.45865">
        <ele>2167.4</ele>
        <time>2022-01-14T09:27:40Z</time>
      </trkpt>
      <trkpt lat="44.99302" lon="6.45866">
        <ele>2167.4</ele>
        <time>2022-01-14T09:27:41Z</time>
      </trkpt>
      <trkpt lat="44.99302" lon="6.45865">
        <ele>2167.4</ele>
        <time>2022-01-14T09:27:42Z</time>
      </trkpt>
      <trkpt lat="44.99302" lon="6.45865">
        <ele>2167.4</ele>
        <time>2022-01-14T09:27:43Z</time>
      </trkpt>
      <trkpt lat="44.99301" lon="6.45864">
        <ele>2167.4</ele>
        <time>2022-01-14T09:27:44Z</time>
      </trkpt>
      <trkpt lat="44.99301" lon="6.45864">
        <ele>2167.4</ele>
        <time>2022-01-14T09:27:45Z</time>
      </trkpt>
      <trkpt lat="44.99301" lon="6.45864">
        <ele>2167.4</ele>
        <time>2022-01-14T09:27:46Z</time>
      </trkpt>
      <trkpt lat="44.99301" lon="6.45865">
        <ele>2167.4</ele>
        <time>2022-01-14T09:27:47Z</time>
      </trkpt>
      <trkpt lat="44.99301" lon="6.45865">
        <ele>2167.4</ele>
        <time>2022-01-14T09:27:48Z</time>
      </trkpt>
      <trkpt lat="44.99301" lon="6.45864">
        <ele>2167.4</ele>
        <time>2022-01-14T09:27:49Z</time>
      </trkpt>
      <trkpt lat="44.99302" lon="6.45863">
        <ele>2167.4</ele>
        <time>2022-01-14T09:27:50Z</time>
      </trkpt>
      <trkpt lat="44.99303" lon="6.45864">
        <ele>2167.4</ele>
        <time>2022-01-14T09:27:51Z</time>
      </trkpt>
      <trkpt lat="44.99304" lon="6.45864">
        <ele>2167.4</ele>
        <time>2022-01-14T09:27:52Z</time>
      </trkpt>
      <trkpt lat="44.99304" lon="6.45865">
        <ele>2167.4</ele>
        <time>2022-01-14T09:27:53Z</time>
      </trkpt>
      <trkpt lat="44.99304" lon="6.45864">
        <ele>2167.4</ele>
        <time>2022-01-14T09:27:54Z</time>
      </trkpt>
      <trkpt lat="44.99304" lon="6.45864">
        <ele>2167.4</ele>
        <time>2022-01-14T09:27:55Z</time>
      </trkpt>
      <trkpt lat="44.99304" lon="6.45863">
        <ele>2167.4</ele>
        <time>2022-01-14T09:27:56Z</time>
      </trkpt>
      <trkpt lat="44.99304" lon="6.45865">
        <ele>2167.4</ele>
        <time>2022-01-14T09:27:57Z</time>
      </trkpt>
      <trkpt lat="44.99305" lon="6.45864">
        <ele>2167.4</ele>
        <time>2022-01-14T09:27:58Z</time>
      </trkpt>
      <trkpt lat="44.99306" lon="6.45864">
        <ele>2167.4</ele>
        <time>2022-01-14T09:27:59Z</time>
      </trkpt>
      <trkpt lat="44.99306" lon="6.45863">
        <ele>2167.4</ele>
        <time>2022-01-14T09:28:00Z</time>
      </trkpt>
      <trkpt lat="44.99307" lon="6.45863">
        <ele>2167.4</ele>
        <time>2022-01-14T09:28:01Z</time>
      </trkpt>
      <trkpt lat="44.99308" lon="6.45863">
        <ele>2167.4</ele>
        <time>2022-01-14T09:28:02Z</time>
      </trkpt>
      <trkpt lat="44.99309" lon="6.45862">
        <ele>2168.4</ele>
        <time>2022-01-14T09:28:03Z</time>
      </trkpt>
      <trkpt lat="44.9931" lon="6.45862">
        <ele>2168.4</ele>
        <time>2022-01-14T09:28:04Z</time>
      </trkpt>
      <trkpt lat="44.9931" lon="6.45862">
        <ele>2168.4</ele>
        <time>2022-01-14T09:28:05Z</time>
      </trkpt>
      <trkpt lat="44.9931" lon="6.45861">
        <ele>2168.4</ele>
        <time>2022-01-14T09:28:06Z</time>
      </trkpt>
      <trkpt lat="44.99311" lon="6.45862">
        <ele>2168.4</ele>
        <time>2022-01-14T09:28:07Z</time>
      </trkpt>
      <trkpt lat="44.99311" lon="6.45863">
        <ele>2168.4</ele>
        <time>2022-01-14T09:28:08Z</time>
      </trkpt>
      <trkpt lat="44.99311" lon="6.45863">
        <ele>2168.4</ele>
        <time>2022-01-14T09:28:09Z</time>
      </trkpt>
      <trkpt lat="44.99311" lon="6.45863">
        <ele>2168.4</ele>
        <time>2022-01-14T09:28:10Z</time>
      </trkpt>
      <trkpt lat="44.99311" lon="6.45863">
        <ele>2168.4</ele>
        <time>2022-01-14T09:28:11Z</time>
      </trkpt>
      <trkpt lat="44.99311" lon="6.45863">
        <ele>2168.4</ele>
        <time>2022-01-14T09:28:12Z</time>
      </trkpt>
      <trkpt lat="44.99312" lon="6.45863">
        <ele>2168.4</ele>
        <time>2022-01-14T09:28:13Z</time>
      </trkpt>
      <trkpt lat="44.99312" lon="6.45865">
        <ele>2168.4</ele>
        <time>2022-01-14T09:28:14Z</time>
      </trkpt>
      <trkpt lat="44.99313" lon="6.45864">
        <ele>2168.4</ele>
        <time>2022-01-14T09:28:15Z</time>
      </trkpt>
      <trkpt lat="44.99313" lon="6.45863">
        <ele>2168.4</ele>
        <time>2022-01-14T09:28:16Z</time>
      </trkpt>
      <trkpt lat="44.99313" lon="6.45863">
        <ele>2168.4</ele>
        <time>2022-01-14T09:28:17Z</time>
      </trkpt>
      <trkpt lat="44.99313" lon="6.45863">
        <ele>2168.4</ele>
        <time>2022-01-14T09:28:18Z</time>
      </trkpt>
      <trkpt lat="44.99313" lon="6.45863">
        <ele>2168.4</ele>
        <time>2022-01-14T09:28:19Z</time>
      </trkpt>
      <trkpt lat="44.99313" lon="6.45863">
        <ele>2168.4</ele>
        <time>2022-01-14T09:28:20Z</time>
      </trkpt>
      <trkpt lat="44.99314" lon="6.45863">
        <ele>2168.4</ele>
        <time>2022-01-14T09:28:21Z</time>
      </trkpt>
      <trkpt lat="44.99314" lon="6.45864">
        <ele>2168.4</ele>
        <time>2022-01-14T09:28:22Z</time>
      </trkpt>
      <trkpt lat="44.99315" lon="6.45864">
        <ele>2168.4</ele>
        <time>2022-01-14T09:28:23Z</time>
      </trkpt>
      <trkpt lat="44.99315" lon="6.45864">
        <ele>2168.4</ele>
        <time>2022-01-14T09:28:24Z</time>
      </trkpt>
      <trkpt lat="44.99316" lon="6.45864">
        <ele>2168.4</ele>
        <time>2022-01-14T09:28:25Z</time>
      </trkpt>
      <trkpt lat="44.99316" lon="6.45864">
        <ele>2168.4</ele>
        <time>2022-01-14T09:28:26Z</time>
      </trkpt>
      <trkpt lat="44.99316" lon="6.45864">
        <ele>2168.4</ele>
        <time>2022-01-14T09:28:27Z</time>
      </trkpt>
      <trkpt lat="44.99317" lon="6.45863">
        <ele>2168.4</ele>
        <time>2022-01-14T09:28:28Z</time>
      </trkpt>
      <trkpt lat="44.99318" lon="6.45863">
        <ele>2168.4</ele>
        <time>2022-01-14T09:28:29Z</time>
      </trkpt>
      <trkpt lat="44.99319" lon="6.45863">
        <ele>2168.4</ele>
        <time>2022-01-14T09:28:30Z</time>
      </trkpt>
      <trkpt lat="44.9932" lon="6.45863">
        <ele>2168.4</ele>
        <time>2022-01-14T09:28:31Z</time>
      </trkpt>
      <trkpt lat="44.9932" lon="6.45863">
        <ele>2168.4</ele>
        <time>2022-01-14T09:28:32Z</time>
      </trkpt>
      <trkpt lat="44.99321" lon="6.45863">
        <ele>2169.4</ele>
        <time>2022-01-14T09:28:33Z</time>
      </trkpt>
      <trkpt lat="44.99322" lon="6.45862">
        <ele>2169.4</ele>
        <time>2022-01-14T09:28:34Z</time>
      </trkpt>
      <trkpt lat="44.99322" lon="6.45862">
        <ele>2169.4</ele>
        <time>2022-01-14T09:28:35Z</time>
      </trkpt>
      <trkpt lat="44.99324" lon="6.45862">
        <ele>2169.4</ele>
        <time>2022-01-14T09:28:36Z</time>
      </trkpt>
      <trkpt lat="44.99324" lon="6.45861">
        <ele>2169.4</ele>
        <time>2022-01-14T09:28:37Z</time>
      </trkpt>
      <trkpt lat="44.99324" lon="6.45861">
        <ele>2169.4</ele>
        <time>2022-01-14T09:28:38Z</time>
      </trkpt>
      <trkpt lat="44.99325" lon="6.45861">
        <ele>2169.4</ele>
        <time>2022-01-14T09:28:39Z</time>
      </trkpt>
      <trkpt lat="44.99325" lon="6.4586">
        <ele>2169.4</ele>
        <time>2022-01-14T09:28:40Z</time>
      </trkpt>
      <trkpt lat="44.99325" lon="6.4586">
        <ele>2169.4</ele>
        <time>2022-01-14T09:28:41Z</time>
      </trkpt>
      <trkpt lat="44.99325" lon="6.45859">
        <ele>2169.4</ele>
        <time>2022-01-14T09:28:42Z</time>
      </trkpt>
      <trkpt lat="44.99325" lon="6.45858">
        <ele>2181.4</ele>
        <time>2022-01-14T09:28:43Z</time>
      </trkpt>
      <trkpt lat="44.99325" lon="6.45858">
        <ele>2181.4</ele>
        <time>2022-01-14T09:28:44Z</time>
      </trkpt>
      <trkpt lat="44.99325" lon="6.45858">
        <ele>2181.4</ele>
        <time>2022-01-14T09:28:45Z</time>
      </trkpt>
      <trkpt lat="44.99324" lon="6.45858">
        <ele>2181.4</ele>
        <time>2022-01-14T09:28:46Z</time>
      </trkpt>
      <trkpt lat="44.99324" lon="6.45858">
        <ele>2181.4</ele>
        <time>2022-01-14T09:28:47Z</time>
      </trkpt>
      <trkpt lat="44.99323" lon="6.45857">
        <ele>2181.4</ele>
        <time>2022-01-14T09:28:48Z</time>
      </trkpt>
      <trkpt lat="44.99323" lon="6.45856">
        <ele>2181.4</ele>
        <time>2022-01-14T09:28:49Z</time>
      </trkpt>
      <trkpt lat="44.99323" lon="6.45856">
        <ele>2181.4</ele>
        <time>2022-01-14T09:28:50Z</time>
      </trkpt>
      <trkpt lat="44.99323" lon="6.45855">
        <ele>2181.4</ele>
        <time>2022-01-14T09:28:51Z</time>
      </trkpt>
      <trkpt lat="44.99323" lon="6.45854">
        <ele>2181.4</ele>
        <time>2022-01-14T09:28:52Z</time>
      </trkpt>
      <trkpt lat="44.99323" lon="6.45853">
        <ele>2181.4</ele>
        <time>2022-01-14T09:28:53Z</time>
      </trkpt>
      <trkpt lat="44.99322" lon="6.45852">
        <ele>2181.4</ele>
        <time>2022-01-14T09:28:54Z</time>
      </trkpt>
      <trkpt lat="44.99321" lon="6.45851">
        <ele>2180.6</ele>
        <time>2022-01-14T09:28:55Z</time>
      </trkpt>
      <trkpt lat="44.99321" lon="6.4585">
        <ele>2180.6</ele>
        <time>2022-01-14T09:28:56Z</time>
      </trkpt>
      <trkpt lat="44.99321" lon="6.45852">
        <ele>2180.6</ele>
        <time>2022-01-14T09:28:57Z</time>
      </trkpt>
      <trkpt lat="44.99321" lon="6.4585">
        <ele>2181.4</ele>
        <time>2022-01-14T09:28:58Z</time>
      </trkpt>
      <trkpt lat="44.99321" lon="6.4585">
        <ele>2180.6</ele>
        <time>2022-01-14T09:28:59Z</time>
      </trkpt>
      <trkpt lat="44.9932" lon="6.45849">
        <ele>2180.6</ele>
        <time>2022-01-14T09:29:00Z</time>
      </trkpt>
      <trkpt lat="44.9932" lon="6.45848">
        <ele>2180.6</ele>
        <time>2022-01-14T09:29:01Z</time>
      </trkpt>
      <trkpt lat="44.9932" lon="6.45848">
        <ele>2180.6</ele>
        <time>2022-01-14T09:29:02Z</time>
      </trkpt>
      <trkpt lat="44.9932" lon="6.45848">
        <ele>2180.6</ele>
        <time>2022-01-14T09:29:03Z</time>
      </trkpt>
      <trkpt lat="44.99321" lon="6.45849">
        <ele>2180.6</ele>
        <time>2022-01-14T09:29:04Z</time>
      </trkpt>
      <trkpt lat="44.9932" lon="6.45848">
        <ele>2180.6</ele>
        <time>2022-01-14T09:29:05Z</time>
      </trkpt>
      <trkpt lat="44.99321" lon="6.45848">
        <ele>2180.6</ele>
        <time>2022-01-14T09:29:06Z</time>
      </trkpt>
      <trkpt lat="44.99322" lon="6.45849">
        <ele>2181.4</ele>
        <time>2022-01-14T09:29:07Z</time>
      </trkpt>
      <trkpt lat="44.99322" lon="6.45849">
        <ele>2181.4</ele>
        <time>2022-01-14T09:29:08Z</time>
      </trkpt>
      <trkpt lat="44.99323" lon="6.45849">
        <ele>2181.4</ele>
        <time>2022-01-14T09:29:09Z</time>
      </trkpt>
      <trkpt lat="44.99323" lon="6.45849">
        <ele>2181.4</ele>
        <time>2022-01-14T09:29:10Z</time>
      </trkpt>
      <trkpt lat="44.99323" lon="6.45849">
        <ele>2181.4</ele>
        <time>2022-01-14T09:29:11Z</time>
      </trkpt>
      <trkpt lat="44.99323" lon="6.45849">
        <ele>2181.4</ele>
        <time>2022-01-14T09:29:12Z</time>
      </trkpt>
      <trkpt lat="44.99323" lon="6.45848">
        <ele>2181.4</ele>
        <time>2022-01-14T09:29:13Z</time>
      </trkpt>
      <trkpt lat="44.99323" lon="6.45848">
        <ele>2181.4</ele>
        <time>2022-01-14T09:29:14Z</time>
      </trkpt>
      <trkpt lat="44.99324" lon="6.45848">
        <ele>2181.4</ele>
        <time>2022-01-14T09:29:15Z</time>
      </trkpt>
      <trkpt lat="44.99324" lon="6.45848">
        <ele>2181.4</ele>
        <time>2022-01-14T09:29:16Z</time>
      </trkpt>
      <trkpt lat="44.99325" lon="6.45847">
        <ele>2181.4</ele>
        <time>2022-01-14T09:29:17Z</time>
      </trkpt>
      <trkpt lat="44.99325" lon="6.45847">
        <ele>2181.4</ele>
        <time>2022-01-14T09:29:18Z</time>
      </trkpt>
      <trkpt lat="44.99326" lon="6.45846">
        <ele>2181.4</ele>
        <time>2022-01-14T09:29:19Z</time>
      </trkpt>
      <trkpt lat="44.99326" lon="6.45846">
        <ele>2181.4</ele>
        <time>2022-01-14T09:29:20Z</time>
      </trkpt>
      <trkpt lat="44.99326" lon="6.45846">
        <ele>2181.4</ele>
        <time>2022-01-14T09:29:21Z</time>
      </trkpt>
      <trkpt lat="44.99327" lon="6.45846">
        <ele>2181.4</ele>
        <time>2022-01-14T09:29:22Z</time>
      </trkpt>
      <trkpt lat="44.99327" lon="6.45846">
        <ele>2181.4</ele>
        <time>2022-01-14T09:29:23Z</time>
      </trkpt>
      <trkpt lat="44.99327" lon="6.45847">
        <ele>2181.4</ele>
        <time>2022-01-14T09:29:24Z</time>
      </trkpt>
      <trkpt lat="44.99328" lon="6.45847">
        <ele>2181.4</ele>
        <time>2022-01-14T09:29:25Z</time>
      </trkpt>
      <trkpt lat="44.99328" lon="6.45847">
        <ele>2181.4</ele>
        <time>2022-01-14T09:29:26Z</time>
      </trkpt>
      <trkpt lat="44.99328" lon="6.45847">
        <ele>2181.4</ele>
        <time>2022-01-14T09:29:27Z</time>
      </trkpt>
      <trkpt lat="44.99329" lon="6.45846">
        <ele>2181.4</ele>
        <time>2022-01-14T09:29:28Z</time>
      </trkpt>
      <trkpt lat="44.99329" lon="6.45846">
        <ele>2181.4</ele>
        <time>2022-01-14T09:29:29Z</time>
      </trkpt>
      <trkpt lat="44.99329" lon="6.45846">
        <ele>2181.4</ele>
        <time>2022-01-14T09:29:30Z</time>
      </trkpt>
      <trkpt lat="44.99329" lon="6.45845">
        <ele>2181.4</ele>
        <time>2022-01-14T09:29:31Z</time>
      </trkpt>
      <trkpt lat="44.99329" lon="6.45845">
        <ele>2181.4</ele>
        <time>2022-01-14T09:29:32Z</time>
      </trkpt>
      <trkpt lat="44.99329" lon="6.45844">
        <ele>2181.4</ele>
        <time>2022-01-14T09:29:33Z</time>
      </trkpt>
      <trkpt lat="44.99328" lon="6.45843">
        <ele>2181.4</ele>
        <time>2022-01-14T09:29:34Z</time>
      </trkpt>
      <trkpt lat="44.99328" lon="6.45843">
        <ele>2181.4</ele>
        <time>2022-01-14T09:29:35Z</time>
      </trkpt>
      <trkpt lat="44.99328" lon="6.45843">
        <ele>2181.4</ele>
        <time>2022-01-14T09:29:36Z</time>
      </trkpt>
      <trkpt lat="44.99328" lon="6.45842">
        <ele>2181.4</ele>
        <time>2022-01-14T09:29:37Z</time>
      </trkpt>
      <trkpt lat="44.99327" lon="6.45842">
        <ele>2181.4</ele>
        <time>2022-01-14T09:29:38Z</time>
      </trkpt>
      <trkpt lat="44.99327" lon="6.4584">
        <ele>2192</ele>
        <time>2022-01-14T09:29:39Z</time>
      </trkpt>
      <trkpt lat="44.99327" lon="6.4584">
        <ele>2192</ele>
        <time>2022-01-14T09:29:40Z</time>
      </trkpt>
      <trkpt lat="44.99327" lon="6.4584">
        <ele>2192</ele>
        <time>2022-01-14T09:29:41Z</time>
      </trkpt>
      <trkpt lat="44.99326" lon="6.4584">
        <ele>2192</ele>
        <time>2022-01-14T09:29:42Z</time>
      </trkpt>
      <trkpt lat="44.99326" lon="6.45839">
        <ele>2192</ele>
        <time>2022-01-14T09:29:43Z</time>
      </trkpt>
      <trkpt lat="44.99326" lon="6.45839">
        <ele>2192</ele>
        <time>2022-01-14T09:29:44Z</time>
      </trkpt>
      <trkpt lat="44.99326" lon="6.45839">
        <ele>2192</ele>
        <time>2022-01-14T09:29:45Z</time>
      </trkpt>
      <trkpt lat="44.99326" lon="6.45838">
        <ele>2192</ele>
        <time>2022-01-14T09:29:46Z</time>
      </trkpt>
      <trkpt lat="44.99327" lon="6.45837">
        <ele>2192</ele>
        <time>2022-01-14T09:29:47Z</time>
      </trkpt>
      <trkpt lat="44.99327" lon="6.45837">
        <ele>2192</ele>
        <time>2022-01-14T09:29:48Z</time>
      </trkpt>
      <trkpt lat="44.99327" lon="6.45836">
        <ele>2192</ele>
        <time>2022-01-14T09:29:49Z</time>
      </trkpt>
      <trkpt lat="44.99327" lon="6.45835">
        <ele>2192</ele>
        <time>2022-01-14T09:29:50Z</time>
      </trkpt>
      <trkpt lat="44.99326" lon="6.45835">
        <ele>2192</ele>
        <time>2022-01-14T09:29:51Z</time>
      </trkpt>
      <trkpt lat="44.99326" lon="6.45835">
        <ele>2192</ele>
        <time>2022-01-14T09:29:52Z</time>
      </trkpt>
      <trkpt lat="44.99326" lon="6.45834">
        <ele>2192</ele>
        <time>2022-01-14T09:29:53Z</time>
      </trkpt>
      <trkpt lat="44.99325" lon="6.45834">
        <ele>2192</ele>
        <time>2022-01-14T09:29:54Z</time>
      </trkpt>
      <trkpt lat="44.99324" lon="6.45833">
        <ele>2192</ele>
        <time>2022-01-14T09:29:55Z</time>
      </trkpt>
      <trkpt lat="44.99324" lon="6.45833">
        <ele>2192</ele>
        <time>2022-01-14T09:29:56Z</time>
      </trkpt>
      <trkpt lat="44.99324" lon="6.45832">
        <ele>2192</ele>
        <time>2022-01-14T09:29:57Z</time>
      </trkpt>
      <trkpt lat="44.99323" lon="6.45832">
        <ele>2192</ele>
        <time>2022-01-14T09:29:58Z</time>
      </trkpt>
      <trkpt lat="44.99323" lon="6.45832">
        <ele>2192</ele>
        <time>2022-01-14T09:29:59Z</time>
      </trkpt>
      <trkpt lat="44.99323" lon="6.45831">
        <ele>2192</ele>
        <time>2022-01-14T09:30:00Z</time>
      </trkpt>
      <trkpt lat="44.99322" lon="6.45831">
        <ele>2192</ele>
        <time>2022-01-14T09:30:01Z</time>
      </trkpt>
      <trkpt lat="44.99322" lon="6.4583">
        <ele>2192</ele>
        <time>2022-01-14T09:30:02Z</time>
      </trkpt>
      <trkpt lat="44.99322" lon="6.45829">
        <ele>2192</ele>
        <time>2022-01-14T09:30:03Z</time>
      </trkpt>
      <trkpt lat="44.99321" lon="6.45829">
        <ele>2191.5</ele>
        <time>2022-01-14T09:30:04Z</time>
      </trkpt>
      <trkpt lat="44.99321" lon="6.45828">
        <ele>2191.5</ele>
        <time>2022-01-14T09:30:05Z</time>
      </trkpt>
      <trkpt lat="44.9932" lon="6.45827">
        <ele>2191.5</ele>
        <time>2022-01-14T09:30:06Z</time>
      </trkpt>
      <trkpt lat="44.9932" lon="6.45826">
        <ele>2191.5</ele>
        <time>2022-01-14T09:30:07Z</time>
      </trkpt>
      <trkpt lat="44.9932" lon="6.45826">
        <ele>2191.5</ele>
        <time>2022-01-14T09:30:08Z</time>
      </trkpt>
      <trkpt lat="44.99321" lon="6.45826">
        <ele>2191.5</ele>
        <time>2022-01-14T09:30:09Z</time>
      </trkpt>
      <trkpt lat="44.99322" lon="6.45827">
        <ele>2192</ele>
        <time>2022-01-14T09:30:10Z</time>
      </trkpt>
      <trkpt lat="44.99323" lon="6.45828">
        <ele>2192</ele>
        <time>2022-01-14T09:30:11Z</time>
      </trkpt>
      <trkpt lat="44.99324" lon="6.45828">
        <ele>2192</ele>
        <time>2022-01-14T09:30:12Z</time>
      </trkpt>
      <trkpt lat="44.99325" lon="6.45828">
        <ele>2192</ele>
        <time>2022-01-14T09:30:13Z</time>
      </trkpt>
      <trkpt lat="44.99325" lon="6.45829">
        <ele>2192</ele>
        <time>2022-01-14T09:30:14Z</time>
      </trkpt>
      <trkpt lat="44.99326" lon="6.45829">
        <ele>2192</ele>
        <time>2022-01-14T09:30:15Z</time>
      </trkpt>
      <trkpt lat="44.99326" lon="6.45829">
        <ele>2192</ele>
        <time>2022-01-14T09:30:16Z</time>
      </trkpt>
      <trkpt lat="44.99326" lon="6.45829">
        <ele>2192</ele>
        <time>2022-01-14T09:30:17Z</time>
      </trkpt>
      <trkpt lat="44.99326" lon="6.4583">
        <ele>2192</ele>
        <time>2022-01-14T09:30:18Z</time>
      </trkpt>
      <trkpt lat="44.99325" lon="6.4583">
        <ele>2192</ele>
        <time>2022-01-14T09:30:19Z</time>
      </trkpt>
      <trkpt lat="44.99325" lon="6.4583">
        <ele>2192</ele>
        <time>2022-01-14T09:30:20Z</time>
      </trkpt>
      <trkpt lat="44.99325" lon="6.4583">
        <ele>2192</ele>
        <time>2022-01-14T09:30:21Z</time>
      </trkpt>
      <trkpt lat="44.99325" lon="6.45831">
        <ele>2192</ele>
        <time>2022-01-14T09:30:22Z</time>
      </trkpt>
      <trkpt lat="44.99325" lon="6.45831">
        <ele>2192</ele>
        <time>2022-01-14T09:30:23Z</time>
      </trkpt>
      <trkpt lat="44.99326" lon="6.45832">
        <ele>2192</ele>
        <time>2022-01-14T09:30:24Z</time>
      </trkpt>
      <trkpt lat="44.99325" lon="6.45831">
        <ele>2192</ele>
        <time>2022-01-14T09:30:25Z</time>
      </trkpt>
      <trkpt lat="44.99326" lon="6.45831">
        <ele>2192</ele>
        <time>2022-01-14T09:30:26Z</time>
      </trkpt>
      <trkpt lat="44.99326" lon="6.45831">
        <ele>2192</ele>
        <time>2022-01-14T09:30:27Z</time>
      </trkpt>
      <trkpt lat="44.99327" lon="6.45832">
        <ele>2192</ele>
        <time>2022-01-14T09:30:28Z</time>
      </trkpt>
      <trkpt lat="44.99327" lon="6.45832">
        <ele>2192</ele>
        <time>2022-01-14T09:30:29Z</time>
      </trkpt>
      <trkpt lat="44.99327" lon="6.45832">
        <ele>2192</ele>
        <time>2022-01-14T09:30:30Z</time>
      </trkpt>
      <trkpt lat="44.99327" lon="6.45833">
        <ele>2192</ele>
        <time>2022-01-14T09:30:31Z</time>
      </trkpt>
      <trkpt lat="44.99327" lon="6.45833">
        <ele>2192</ele>
        <time>2022-01-14T09:30:32Z</time>
      </trkpt>
      <trkpt lat="44.99327" lon="6.45832">
        <ele>2192</ele>
        <time>2022-01-14T09:30:33Z</time>
      </trkpt>
      <trkpt lat="44.99328" lon="6.45832">
        <ele>2192</ele>
        <time>2022-01-14T09:30:34Z</time>
      </trkpt>
      <trkpt lat="44.99327" lon="6.45834">
        <ele>2192</ele>
        <time>2022-01-14T09:30:35Z</time>
      </trkpt>
      <trkpt lat="44.99327" lon="6.45835">
        <ele>2192</ele>
        <time>2022-01-14T09:30:36Z</time>
      </trkpt>
      <trkpt lat="44.99328" lon="6.45836">
        <ele>2192</ele>
        <time>2022-01-14T09:30:37Z</time>
      </trkpt>
      <trkpt lat="44.99328" lon="6.45835">
        <ele>2192</ele>
        <time>2022-01-14T09:30:38Z</time>
      </trkpt>
      <trkpt lat="44.99329" lon="6.45833">
        <ele>2192</ele>
        <time>2022-01-14T09:30:39Z</time>
      </trkpt>
      <trkpt lat="44.99329" lon="6.45833">
        <ele>2192</ele>
        <time>2022-01-14T09:30:40Z</time>
      </trkpt>
      <trkpt lat="44.99329" lon="6.45832">
        <ele>2192</ele>
        <time>2022-01-14T09:30:41Z</time>
      </trkpt>
      <trkpt lat="44.9933" lon="6.45832">
        <ele>2192</ele>
        <time>2022-01-14T09:30:42Z</time>
      </trkpt>
      <trkpt lat="44.99331" lon="6.45832">
        <ele>2192</ele>
        <time>2022-01-14T09:30:43Z</time>
      </trkpt>
      <trkpt lat="44.99332" lon="6.45833">
        <ele>2192</ele>
        <time>2022-01-14T09:30:44Z</time>
      </trkpt>
      <trkpt lat="44.99332" lon="6.45832">
        <ele>2192</ele>
        <time>2022-01-14T09:30:45Z</time>
      </trkpt>
      <trkpt lat="44.99332" lon="6.45832">
        <ele>2192</ele>
        <time>2022-01-14T09:30:46Z</time>
      </trkpt>
      <trkpt lat="44.99332" lon="6.45831">
        <ele>2192</ele>
        <time>2022-01-14T09:30:47Z</time>
      </trkpt>
      <trkpt lat="44.99332" lon="6.45832">
        <ele>2192</ele>
        <time>2022-01-14T09:30:48Z</time>
      </trkpt>
      <trkpt lat="44.99331" lon="6.45832">
        <ele>2192</ele>
        <time>2022-01-14T09:30:49Z</time>
      </trkpt>
      <trkpt lat="44.99331" lon="6.45831">
        <ele>2192</ele>
        <time>2022-01-14T09:30:50Z</time>
      </trkpt>
      <trkpt lat="44.9933" lon="6.4583">
        <ele>2192</ele>
        <time>2022-01-14T09:30:51Z</time>
      </trkpt>
      <trkpt lat="44.9933" lon="6.4583">
        <ele>2192</ele>
        <time>2022-01-14T09:30:52Z</time>
      </trkpt>
      <trkpt lat="44.9933" lon="6.4583">
        <ele>2192</ele>
        <time>2022-01-14T09:30:53Z</time>
      </trkpt>
      <trkpt lat="44.9933" lon="6.4583">
        <ele>2192</ele>
        <time>2022-01-14T09:30:54Z</time>
      </trkpt>
      <trkpt lat="44.99329" lon="6.45829">
        <ele>2192</ele>
        <time>2022-01-14T09:30:55Z</time>
      </trkpt>
      <trkpt lat="44.99329" lon="6.45828">
        <ele>2192</ele>
        <time>2022-01-14T09:30:56Z</time>
      </trkpt>
      <trkpt lat="44.9933" lon="6.45826">
        <ele>2192</ele>
        <time>2022-01-14T09:30:57Z</time>
      </trkpt>
      <trkpt lat="44.9933" lon="6.45825">
        <ele>2192</ele>
        <time>2022-01-14T09:30:58Z</time>
      </trkpt>
      <trkpt lat="44.9933" lon="6.45824">
        <ele>2200.8</ele>
        <time>2022-01-14T09:30:59Z</time>
      </trkpt>
      <trkpt lat="44.9933" lon="6.45823">
        <ele>2200.8</ele>
        <time>2022-01-14T09:31:00Z</time>
      </trkpt>
      <trkpt lat="44.9933" lon="6.45822">
        <ele>2200.8</ele>
        <time>2022-01-14T09:31:01Z</time>
      </trkpt>
      <trkpt lat="44.9933" lon="6.45822">
        <ele>2200.8</ele>
        <time>2022-01-14T09:31:02Z</time>
      </trkpt>
      <trkpt lat="44.9933" lon="6.45821">
        <ele>2200.8</ele>
        <time>2022-01-14T09:31:03Z</time>
      </trkpt>
      <trkpt lat="44.99329" lon="6.4582">
        <ele>2200.8</ele>
        <time>2022-01-14T09:31:04Z</time>
      </trkpt>
      <trkpt lat="44.99328" lon="6.4582">
        <ele>2200.8</ele>
        <time>2022-01-14T09:31:05Z</time>
      </trkpt>
      <trkpt lat="44.99327" lon="6.45819">
        <ele>2200.8</ele>
        <time>2022-01-14T09:31:06Z</time>
      </trkpt>
      <trkpt lat="44.99327" lon="6.4582">
        <ele>2200.8</ele>
        <time>2022-01-14T09:31:07Z</time>
      </trkpt>
      <trkpt lat="44.99327" lon="6.4582">
        <ele>2200.8</ele>
        <time>2022-01-14T09:31:08Z</time>
      </trkpt>
      <trkpt lat="44.99325" lon="6.4582">
        <ele>2200.8</ele>
        <time>2022-01-14T09:31:09Z</time>
      </trkpt>
      <trkpt lat="44.99325" lon="6.4582">
        <ele>2200.8</ele>
        <time>2022-01-14T09:31:10Z</time>
      </trkpt>
      <trkpt lat="44.99325" lon="6.4582">
        <ele>2200.8</ele>
        <time>2022-01-14T09:31:11Z</time>
      </trkpt>
      <trkpt lat="44.99324" lon="6.45821">
        <ele>2200.8</ele>
        <time>2022-01-14T09:31:12Z</time>
      </trkpt>
      <trkpt lat="44.99324" lon="6.45821">
        <ele>2200.8</ele>
        <time>2022-01-14T09:31:13Z</time>
      </trkpt>
      <trkpt lat="44.99323" lon="6.45822">
        <ele>2200.8</ele>
        <time>2022-01-14T09:31:14Z</time>
      </trkpt>
      <trkpt lat="44.99322" lon="6.45822">
        <ele>2200.8</ele>
        <time>2022-01-14T09:31:15Z</time>
      </trkpt>
      <trkpt lat="44.99322" lon="6.45822">
        <ele>2200.8</ele>
        <time>2022-01-14T09:31:16Z</time>
      </trkpt>
      <trkpt lat="44.99321" lon="6.45822">
        <ele>2200.8</ele>
        <time>2022-01-14T09:31:17Z</time>
      </trkpt>
      <trkpt lat="44.99321" lon="6.45821">
        <ele>2200.8</ele>
        <time>2022-01-14T09:31:18Z</time>
      </trkpt>
      <trkpt lat="44.9932" lon="6.4582">
        <ele>2200.8</ele>
        <time>2022-01-14T09:31:19Z</time>
      </trkpt>
      <trkpt lat="44.99319" lon="6.4582">
        <ele>2200.8</ele>
        <time>2022-01-14T09:31:20Z</time>
      </trkpt>
      <trkpt lat="44.99318" lon="6.45819">
        <ele>2200.8</ele>
        <time>2022-01-14T09:31:21Z</time>
      </trkpt>
      <trkpt lat="44.99318" lon="6.45819">
        <ele>2200.8</ele>
        <time>2022-01-14T09:31:22Z</time>
      </trkpt>
      <trkpt lat="44.99317" lon="6.45819">
        <ele>2200.8</ele>
        <time>2022-01-14T09:31:23Z</time>
      </trkpt>
      <trkpt lat="44.99317" lon="6.45819">
        <ele>2200.8</ele>
        <time>2022-01-14T09:31:24Z</time>
      </trkpt>
      <trkpt lat="44.99317" lon="6.45818">
        <ele>2200.8</ele>
        <time>2022-01-14T09:31:25Z</time>
      </trkpt>
      <trkpt lat="44.99317" lon="6.45819">
        <ele>2200.8</ele>
        <time>2022-01-14T09:31:26Z</time>
      </trkpt>
      <trkpt lat="44.99317" lon="6.45819">
        <ele>2200.8</ele>
        <time>2022-01-14T09:31:27Z</time>
      </trkpt>
      <trkpt lat="44.99317" lon="6.45818">
        <ele>2200.8</ele>
        <time>2022-01-14T09:31:28Z</time>
      </trkpt>
      <trkpt lat="44.99317" lon="6.45818">
        <ele>2200.8</ele>
        <time>2022-01-14T09:31:29Z</time>
      </trkpt>
      <trkpt lat="44.99318" lon="6.45818">
        <ele>2200.8</ele>
        <time>2022-01-14T09:31:30Z</time>
      </trkpt>
      <trkpt lat="44.99319" lon="6.45817">
        <ele>2200.8</ele>
        <time>2022-01-14T09:31:31Z</time>
      </trkpt>
      <trkpt lat="44.99318" lon="6.45817">
        <ele>2200.8</ele>
        <time>2022-01-14T09:31:32Z</time>
      </trkpt>
      <trkpt lat="44.99319" lon="6.45817">
        <ele>2200.8</ele>
        <time>2022-01-14T09:31:33Z</time>
      </trkpt>
      <trkpt lat="44.9932" lon="6.45818">
        <ele>2200.8</ele>
        <time>2022-01-14T09:31:34Z</time>
      </trkpt>
      <trkpt lat="44.9932" lon="6.45818">
        <ele>2200.8</ele>
        <time>2022-01-14T09:31:35Z</time>
      </trkpt>
      <trkpt lat="44.99321" lon="6.45818">
        <ele>2200.8</ele>
        <time>2022-01-14T09:31:36Z</time>
      </trkpt>
      <trkpt lat="44.99322" lon="6.45817">
        <ele>2200.8</ele>
        <time>2022-01-14T09:31:37Z</time>
      </trkpt>
      <trkpt lat="44.99323" lon="6.45817">
        <ele>2200.8</ele>
        <time>2022-01-14T09:31:38Z</time>
      </trkpt>
      <trkpt lat="44.99323" lon="6.45817">
        <ele>2200.8</ele>
        <time>2022-01-14T09:31:39Z</time>
      </trkpt>
      <trkpt lat="44.99323" lon="6.45817">
        <ele>2200.8</ele>
        <time>2022-01-14T09:31:40Z</time>
      </trkpt>
      <trkpt lat="44.99324" lon="6.45816">
        <ele>2200.8</ele>
        <time>2022-01-14T09:31:41Z</time>
      </trkpt>
      <trkpt lat="44.99323" lon="6.45816">
        <ele>2200.8</ele>
        <time>2022-01-14T09:31:42Z</time>
      </trkpt>
      <trkpt lat="44.99323" lon="6.45815">
        <ele>2200.8</ele>
        <time>2022-01-14T09:31:43Z</time>
      </trkpt>
      <trkpt lat="44.99323" lon="6.45815">
        <ele>2200.8</ele>
        <time>2022-01-14T09:31:44Z</time>
      </trkpt>
      <trkpt lat="44.99324" lon="6.45816">
        <ele>2200.8</ele>
        <time>2022-01-14T09:31:45Z</time>
      </trkpt>
      <trkpt lat="44.99324" lon="6.45816">
        <ele>2200.8</ele>
        <time>2022-01-14T09:31:46Z</time>
      </trkpt>
      <trkpt lat="44.99325" lon="6.45816">
        <ele>2200.8</ele>
        <time>2022-01-14T09:31:47Z</time>
      </trkpt>
      <trkpt lat="44.99325" lon="6.45815">
        <ele>2200.8</ele>
        <time>2022-01-14T09:31:48Z</time>
      </trkpt>
      <trkpt lat="44.99325" lon="6.45815">
        <ele>2200.8</ele>
        <time>2022-01-14T09:31:49Z</time>
      </trkpt>
      <trkpt lat="44.99325" lon="6.45815">
        <ele>2200.8</ele>
        <time>2022-01-14T09:31:50Z</time>
      </trkpt>
      <trkpt lat="44.99325" lon="6.45816">
        <ele>2200.8</ele>
        <time>2022-01-14T09:31:51Z</time>
      </trkpt>
      <trkpt lat="44.99325" lon="6.45817">
        <ele>2200.8</ele>
        <time>2022-01-14T09:31:52Z</time>
      </trkpt>
      <trkpt lat="44.99325" lon="6.45818">
        <ele>2200.8</ele>
        <time>2022-01-14T09:31:53Z</time>
      </trkpt>
      <trkpt lat="44.99326" lon="6.45818">
        <ele>2200.8</ele>
        <time>2022-01-14T09:31:54Z</time>
      </trkpt>
      <trkpt lat="44.99326" lon="6.45818">
        <ele>2200.8</ele>
        <time>2022-01-14T09:31:55Z</time>
      </trkpt>
      <trkpt lat="44.99326" lon="6.45819">
        <ele>2200.8</ele>
        <time>2022-01-14T09:31:56Z</time>
      </trkpt>
      <trkpt lat="44.99326" lon="6.45819">
        <ele>2200.8</ele>
        <time>2022-01-14T09:31:57Z</time>
      </trkpt>
      <trkpt lat="44.99326" lon="6.45819">
        <ele>2200.8</ele>
        <time>2022-01-14T09:31:58Z</time>
      </trkpt>
      <trkpt lat="44.99326" lon="6.45819">
        <ele>2200.8</ele>
        <time>2022-01-14T09:31:59Z</time>
      </trkpt>
      <trkpt lat="44.99327" lon="6.45819">
        <ele>2200.8</ele>
        <time>2022-01-14T09:32:00Z</time>
      </trkpt>
      <trkpt lat="44.99327" lon="6.45819">
        <ele>2200.8</ele>
        <time>2022-01-14T09:32:01Z</time>
      </trkpt>
      <trkpt lat="44.99328" lon="6.45819">
        <ele>2200.8</ele>
        <time>2022-01-14T09:32:02Z</time>
      </trkpt>
      <trkpt lat="44.99328" lon="6.45819">
        <ele>2200.8</ele>
        <time>2022-01-14T09:32:03Z</time>
      </trkpt>
      <trkpt lat="44.99328" lon="6.45819">
        <ele>2200.8</ele>
        <time>2022-01-14T09:32:04Z</time>
      </trkpt>
      <trkpt lat="44.99329" lon="6.45819">
        <ele>2200.8</ele>
        <time>2022-01-14T09:32:05Z</time>
      </trkpt>
      <trkpt lat="44.99331" lon="6.45819">
        <ele>2200.8</ele>
        <time>2022-01-14T09:32:06Z</time>
      </trkpt>
      <trkpt lat="44.99332" lon="6.4582">
        <ele>2200.8</ele>
        <time>2022-01-14T09:32:07Z</time>
      </trkpt>
      <trkpt lat="44.99332" lon="6.45821">
        <ele>2200.8</ele>
        <time>2022-01-14T09:32:08Z</time>
      </trkpt>
      <trkpt lat="44.99332" lon="6.45821">
        <ele>2200.8</ele>
        <time>2022-01-14T09:32:09Z</time>
      </trkpt>
      <trkpt lat="44.99332" lon="6.45822">
        <ele>2200.8</ele>
        <time>2022-01-14T09:32:10Z</time>
      </trkpt>
      <trkpt lat="44.99332" lon="6.45823">
        <ele>2200.8</ele>
        <time>2022-01-14T09:32:11Z</time>
      </trkpt>
      <trkpt lat="44.99332" lon="6.45823">
        <ele>2200.8</ele>
        <time>2022-01-14T09:32:12Z</time>
      </trkpt>
      <trkpt lat="44.99333" lon="6.45824">
        <ele>2200.8</ele>
        <time>2022-01-14T09:32:13Z</time>
      </trkpt>
      <trkpt lat="44.99333" lon="6.45823">
        <ele>2200.8</ele>
        <time>2022-01-14T09:32:14Z</time>
      </trkpt>
      <trkpt lat="44.99333" lon="6.45824">
        <ele>2200.8</ele>
        <time>2022-01-14T09:32:15Z</time>
      </trkpt>
      <trkpt lat="44.99333" lon="6.45823">
        <ele>2200.8</ele>
        <time>2022-01-14T09:32:16Z</time>
      </trkpt>
      <trkpt lat="44.99333" lon="6.45823">
        <ele>2200.8</ele>
        <time>2022-01-14T09:32:17Z</time>
      </trkpt>
      <trkpt lat="44.99334" lon="6.45823">
        <ele>2200.2</ele>
        <time>2022-01-14T09:32:18Z</time>
      </trkpt>
      <trkpt lat="44.99334" lon="6.45822">
        <ele>2200.2</ele>
        <time>2022-01-14T09:32:19Z</time>
      </trkpt>
      <trkpt lat="44.99334" lon="6.45821">
        <ele>2200.2</ele>
        <time>2022-01-14T09:32:20Z</time>
      </trkpt>
      <trkpt lat="44.99334" lon="6.45822">
        <ele>2200.2</ele>
        <time>2022-01-14T09:32:21Z</time>
      </trkpt>
      <trkpt lat="44.99335" lon="6.45822">
        <ele>2200.2</ele>
        <time>2022-01-14T09:32:22Z</time>
      </trkpt>
      <trkpt lat="44.99335" lon="6.45821">
        <ele>2200.2</ele>
        <time>2022-01-14T09:32:23Z</time>
      </trkpt>
      <trkpt lat="44.99336" lon="6.4582">
        <ele>2200.2</ele>
        <time>2022-01-14T09:32:24Z</time>
      </trkpt>
      <trkpt lat="44.99337" lon="6.45819">
        <ele>2200.2</ele>
        <time>2022-01-14T09:32:25Z</time>
      </trkpt>
      <trkpt lat="44.99337" lon="6.45818">
        <ele>2200.2</ele>
        <time>2022-01-14T09:32:26Z</time>
      </trkpt>
      <trkpt lat="44.99337" lon="6.45818">
        <ele>2200.2</ele>
        <time>2022-01-14T09:32:27Z</time>
      </trkpt>
      <trkpt lat="44.99337" lon="6.45819">
        <ele>2200.2</ele>
        <time>2022-01-14T09:32:28Z</time>
      </trkpt>
      <trkpt lat="44.99338" lon="6.4582">
        <ele>2200.2</ele>
        <time>2022-01-14T09:32:29Z</time>
      </trkpt>
      <trkpt lat="44.99338" lon="6.45821">
        <ele>2200.2</ele>
        <time>2022-01-14T09:32:30Z</time>
      </trkpt>
      <trkpt lat="44.99338" lon="6.45822">
        <ele>2200.2</ele>
        <time>2022-01-14T09:32:31Z</time>
      </trkpt>
      <trkpt lat="44.99338" lon="6.45822">
        <ele>2200.2</ele>
        <time>2022-01-14T09:32:32Z</time>
      </trkpt>
      <trkpt lat="44.99337" lon="6.45822">
        <ele>2200.2</ele>
        <time>2022-01-14T09:32:33Z</time>
      </trkpt>
      <trkpt lat="44.99337" lon="6.45822">
        <ele>2200.2</ele>
        <time>2022-01-14T09:32:34Z</time>
      </trkpt>
      <trkpt lat="44.99337" lon="6.45821">
        <ele>2200.2</ele>
        <time>2022-01-14T09:32:35Z</time>
      </trkpt>
      <trkpt lat="44.99336" lon="6.45821">
        <ele>2200.2</ele>
        <time>2022-01-14T09:32:36Z</time>
      </trkpt>
      <trkpt lat="44.99336" lon="6.4582">
        <ele>2200.2</ele>
        <time>2022-01-14T09:32:37Z</time>
      </trkpt>
      <trkpt lat="44.99336" lon="6.4582">
        <ele>2200.2</ele>
        <time>2022-01-14T09:32:38Z</time>
      </trkpt>
      <trkpt lat="44.99336" lon="6.4582">
        <ele>2200.2</ele>
        <time>2022-01-14T09:32:39Z</time>
      </trkpt>
      <trkpt lat="44.99336" lon="6.4582">
        <ele>2200.2</ele>
        <time>2022-01-14T09:32:40Z</time>
      </trkpt>
      <trkpt lat="44.99336" lon="6.4582">
        <ele>2200.2</ele>
        <time>2022-01-14T09:32:41Z</time>
      </trkpt>
      <trkpt lat="44.99336" lon="6.4582">
        <ele>2200.2</ele>
        <time>2022-01-14T09:32:42Z</time>
      </trkpt>
      <trkpt lat="44.99337" lon="6.45821">
        <ele>2200.2</ele>
        <time>2022-01-14T09:32:43Z</time>
      </trkpt>
      <trkpt lat="44.99337" lon="6.4582">
        <ele>2200.2</ele>
        <time>2022-01-14T09:32:44Z</time>
      </trkpt>
      <trkpt lat="44.99337" lon="6.4582">
        <ele>2200.2</ele>
        <time>2022-01-14T09:32:45Z</time>
      </trkpt>
      <trkpt lat="44.99337" lon="6.45821">
        <ele>2200.2</ele>
        <time>2022-01-14T09:32:46Z</time>
      </trkpt>
      <trkpt lat="44.99338" lon="6.45821">
        <ele>2200.2</ele>
        <time>2022-01-14T09:32:47Z</time>
      </trkpt>
      <trkpt lat="44.99338" lon="6.45821">
        <ele>2200.2</ele>
        <time>2022-01-14T09:32:48Z</time>
      </trkpt>
      <trkpt lat="44.99339" lon="6.45821">
        <ele>2200.2</ele>
        <time>2022-01-14T09:32:49Z</time>
      </trkpt>
      <trkpt lat="44.99339" lon="6.45821">
        <ele>2200.2</ele>
        <time>2022-01-14T09:32:50Z</time>
      </trkpt>
      <trkpt lat="44.99339" lon="6.4582">
        <ele>2200.2</ele>
        <time>2022-01-14T09:32:51Z</time>
      </trkpt>
      <trkpt lat="44.9934" lon="6.4582">
        <ele>2200.2</ele>
        <time>2022-01-14T09:32:52Z</time>
      </trkpt>
      <trkpt lat="44.99341" lon="6.4582">
        <ele>2200.2</ele>
        <time>2022-01-14T09:32:53Z</time>
      </trkpt>
      <trkpt lat="44.99341" lon="6.45821">
        <ele>2200.2</ele>
        <time>2022-01-14T09:32:54Z</time>
      </trkpt>
      <trkpt lat="44.99341" lon="6.45822">
        <ele>2200.2</ele>
        <time>2022-01-14T09:32:55Z</time>
      </trkpt>
      <trkpt lat="44.99342" lon="6.45822">
        <ele>2200.2</ele>
        <time>2022-01-14T09:32:56Z</time>
      </trkpt>
      <trkpt lat="44.99342" lon="6.45822">
        <ele>2200.2</ele>
        <time>2022-01-14T09:32:57Z</time>
      </trkpt>
      <trkpt lat="44.99343" lon="6.45822">
        <ele>2200.2</ele>
        <time>2022-01-14T09:32:58Z</time>
      </trkpt>
      <trkpt lat="44.99343" lon="6.45823">
        <ele>2200.2</ele>
        <time>2022-01-14T09:32:59Z</time>
      </trkpt>
      <trkpt lat="44.99344" lon="6.45824">
        <ele>2200.2</ele>
        <time>2022-01-14T09:33:00Z</time>
      </trkpt>
      <trkpt lat="44.99345" lon="6.45824">
        <ele>2200.2</ele>
        <time>2022-01-14T09:33:01Z</time>
      </trkpt>
      <trkpt lat="44.99347" lon="6.45825">
        <ele>2191.2</ele>
        <time>2022-01-14T09:33:02Z</time>
      </trkpt>
      <trkpt lat="44.99347" lon="6.45825">
        <ele>2191.2</ele>
        <time>2022-01-14T09:33:03Z</time>
      </trkpt>
      <trkpt lat="44.99348" lon="6.45825">
        <ele>2191.2</ele>
        <time>2022-01-14T09:33:04Z</time>
      </trkpt>
      <trkpt lat="44.99348" lon="6.45826">
        <ele>2191.2</ele>
        <time>2022-01-14T09:33:05Z</time>
      </trkpt>
      <trkpt lat="44.99349" lon="6.45826">
        <ele>2191.2</ele>
        <time>2022-01-14T09:33:06Z</time>
      </trkpt>
      <trkpt lat="44.9935" lon="6.45826">
        <ele>2191.2</ele>
        <time>2022-01-14T09:33:07Z</time>
      </trkpt>
      <trkpt lat="44.99351" lon="6.45827">
        <ele>2191.2</ele>
        <time>2022-01-14T09:33:08Z</time>
      </trkpt>
      <trkpt lat="44.99352" lon="6.45827">
        <ele>2191.2</ele>
        <time>2022-01-14T09:33:09Z</time>
      </trkpt>
      <trkpt lat="44.99353" lon="6.45826">
        <ele>2191.2</ele>
        <time>2022-01-14T09:33:10Z</time>
      </trkpt>
      <trkpt lat="44.99353" lon="6.45826">
        <ele>2191.2</ele>
        <time>2022-01-14T09:33:11Z</time>
      </trkpt>
      <trkpt lat="44.99354" lon="6.45825">
        <ele>2191.2</ele>
        <time>2022-01-14T09:33:12Z</time>
      </trkpt>
      <trkpt lat="44.99355" lon="6.45824">
        <ele>2199.3</ele>
        <time>2022-01-14T09:33:13Z</time>
      </trkpt>
      <trkpt lat="44.99355" lon="6.45823">
        <ele>2199.3</ele>
        <time>2022-01-14T09:33:14Z</time>
      </trkpt>
      <trkpt lat="44.99356" lon="6.45821">
        <ele>2199.3</ele>
        <time>2022-01-14T09:33:15Z</time>
      </trkpt>
      <trkpt lat="44.99356" lon="6.45821">
        <ele>2199.3</ele>
        <time>2022-01-14T09:33:16Z</time>
      </trkpt>
      <trkpt lat="44.99357" lon="6.45821">
        <ele>2199.3</ele>
        <time>2022-01-14T09:33:17Z</time>
      </trkpt>
      <trkpt lat="44.99358" lon="6.45821">
        <ele>2199.3</ele>
        <time>2022-01-14T09:33:18Z</time>
      </trkpt>
      <trkpt lat="44.99358" lon="6.45821">
        <ele>2197.7</ele>
        <time>2022-01-14T09:33:19Z</time>
      </trkpt>
      <trkpt lat="44.99359" lon="6.45821">
        <ele>2197.7</ele>
        <time>2022-01-14T09:33:20Z</time>
      </trkpt>
      <trkpt lat="44.99359" lon="6.45819">
        <ele>2197.7</ele>
        <time>2022-01-14T09:33:21Z</time>
      </trkpt>
      <trkpt lat="44.9936" lon="6.45818">
        <ele>2197.7</ele>
        <time>2022-01-14T09:33:22Z</time>
      </trkpt>
      <trkpt lat="44.9936" lon="6.45818">
        <ele>2197.7</ele>
        <time>2022-01-14T09:33:23Z</time>
      </trkpt>
      <trkpt lat="44.99361" lon="6.45818">
        <ele>2197.7</ele>
        <time>2022-01-14T09:33:24Z</time>
      </trkpt>
      <trkpt lat="44.99362" lon="6.45817">
        <ele>2197.7</ele>
        <time>2022-01-14T09:33:25Z</time>
      </trkpt>
      <trkpt lat="44.99362" lon="6.45817">
        <ele>2197.7</ele>
        <time>2022-01-14T09:33:26Z</time>
      </trkpt>
      <trkpt lat="44.99362" lon="6.45817">
        <ele>2197.7</ele>
        <time>2022-01-14T09:33:27Z</time>
      </trkpt>
      <trkpt lat="44.99362" lon="6.45817">
        <ele>2197.7</ele>
        <time>2022-01-14T09:33:28Z</time>
      </trkpt>
      <trkpt lat="44.99362" lon="6.45816">
        <ele>2197.7</ele>
        <time>2022-01-14T09:33:29Z</time>
      </trkpt>
      <trkpt lat="44.99362" lon="6.45816">
        <ele>2197.7</ele>
        <time>2022-01-14T09:33:30Z</time>
      </trkpt>
      <trkpt lat="44.99362" lon="6.45816">
        <ele>2197.7</ele>
        <time>2022-01-14T09:33:31Z</time>
      </trkpt>
      <trkpt lat="44.99362" lon="6.45816">
        <ele>2197.7</ele>
        <time>2022-01-14T09:33:32Z</time>
      </trkpt>
      <trkpt lat="44.99362" lon="6.45816">
        <ele>2197.7</ele>
        <time>2022-01-14T09:33:33Z</time>
      </trkpt>
      <trkpt lat="44.99363" lon="6.45816">
        <ele>2197.7</ele>
        <time>2022-01-14T09:33:34Z</time>
      </trkpt>
      <trkpt lat="44.99362" lon="6.45815">
        <ele>2197.7</ele>
        <time>2022-01-14T09:33:35Z</time>
      </trkpt>
      <trkpt lat="44.99363" lon="6.45815">
        <ele>2197.7</ele>
        <time>2022-01-14T09:33:36Z</time>
      </trkpt>
      <trkpt lat="44.99363" lon="6.45815">
        <ele>2197.7</ele>
        <time>2022-01-14T09:33:37Z</time>
      </trkpt>
      <trkpt lat="44.99363" lon="6.45815">
        <ele>2197.7</ele>
        <time>2022-01-14T09:33:38Z</time>
      </trkpt>
      <trkpt lat="44.99363" lon="6.45814">
        <ele>2197.7</ele>
        <time>2022-01-14T09:33:39Z</time>
      </trkpt>
      <trkpt lat="44.99363" lon="6.45813">
        <ele>2197.7</ele>
        <time>2022-01-14T09:33:40Z</time>
      </trkpt>
      <trkpt lat="44.99364" lon="6.45812">
        <ele>2197.7</ele>
        <time>2022-01-14T09:33:41Z</time>
      </trkpt>
      <trkpt lat="44.99364" lon="6.45812">
        <ele>2197.7</ele>
        <time>2022-01-14T09:33:42Z</time>
      </trkpt>
      <trkpt lat="44.99364" lon="6.45812">
        <ele>2197.7</ele>
        <time>2022-01-14T09:33:43Z</time>
      </trkpt>
      <trkpt lat="44.99364" lon="6.45812">
        <ele>2197.7</ele>
        <time>2022-01-14T09:33:44Z</time>
      </trkpt>
      <trkpt lat="44.99364" lon="6.45811">
        <ele>2197.7</ele>
        <time>2022-01-14T09:33:45Z</time>
      </trkpt>
      <trkpt lat="44.99364" lon="6.4581">
        <ele>2197.7</ele>
        <time>2022-01-14T09:33:46Z</time>
      </trkpt>
      <trkpt lat="44.99364" lon="6.4581">
        <ele>2197.7</ele>
        <time>2022-01-14T09:33:47Z</time>
      </trkpt>
      <trkpt lat="44.99364" lon="6.45809">
        <ele>2197.7</ele>
        <time>2022-01-14T09:33:48Z</time>
      </trkpt>
      <trkpt lat="44.99366" lon="6.45809">
        <ele>2197.7</ele>
        <time>2022-01-14T09:33:49Z</time>
      </trkpt>
      <trkpt lat="44.99366" lon="6.45808">
        <ele>2197.7</ele>
        <time>2022-01-14T09:33:50Z</time>
      </trkpt>
      <trkpt lat="44.99366" lon="6.45808">
        <ele>2197.7</ele>
        <time>2022-01-14T09:33:51Z</time>
      </trkpt>
      <trkpt lat="44.99367" lon="6.45806">
        <ele>2204.5</ele>
        <time>2022-01-14T09:33:52Z</time>
      </trkpt>
      <trkpt lat="44.99367" lon="6.45805">
        <ele>2204.5</ele>
        <time>2022-01-14T09:33:53Z</time>
      </trkpt>
      <trkpt lat="44.99367" lon="6.45804">
        <ele>2204.5</ele>
        <time>2022-01-14T09:33:54Z</time>
      </trkpt>
      <trkpt lat="44.99367" lon="6.45804">
        <ele>2204.5</ele>
        <time>2022-01-14T09:33:55Z</time>
      </trkpt>
      <trkpt lat="44.99367" lon="6.45804">
        <ele>2204.5</ele>
        <time>2022-01-14T09:33:56Z</time>
      </trkpt>
      <trkpt lat="44.99367" lon="6.45804">
        <ele>2204.5</ele>
        <time>2022-01-14T09:33:57Z</time>
      </trkpt>
      <trkpt lat="44.99367" lon="6.45803">
        <ele>2204.5</ele>
        <time>2022-01-14T09:33:58Z</time>
      </trkpt>
      <trkpt lat="44.99366" lon="6.45802">
        <ele>2204.5</ele>
        <time>2022-01-14T09:33:59Z</time>
      </trkpt>
      <trkpt lat="44.99367" lon="6.45801">
        <ele>2204.5</ele>
        <time>2022-01-14T09:34:00Z</time>
      </trkpt>
      <trkpt lat="44.99368" lon="6.458">
        <ele>2204.5</ele>
        <time>2022-01-14T09:34:01Z</time>
      </trkpt>
      <trkpt lat="44.99369" lon="6.458">
        <ele>2204.5</ele>
        <time>2022-01-14T09:34:02Z</time>
      </trkpt>
      <trkpt lat="44.9937" lon="6.45799">
        <ele>2202.3</ele>
        <time>2022-01-14T09:34:03Z</time>
      </trkpt>
      <trkpt lat="44.9937" lon="6.45799">
        <ele>2202.3</ele>
        <time>2022-01-14T09:34:04Z</time>
      </trkpt>
      <trkpt lat="44.9937" lon="6.45799">
        <ele>2202.3</ele>
        <time>2022-01-14T09:34:05Z</time>
      </trkpt>
      <trkpt lat="44.9937" lon="6.45799">
        <ele>2202.3</ele>
        <time>2022-01-14T09:34:06Z</time>
      </trkpt>
      <trkpt lat="44.9937" lon="6.45798">
        <ele>2202.3</ele>
        <time>2022-01-14T09:34:07Z</time>
      </trkpt>
      <trkpt lat="44.9937" lon="6.45798">
        <ele>2202.3</ele>
        <time>2022-01-14T09:34:08Z</time>
      </trkpt>
      <trkpt lat="44.9937" lon="6.45798">
        <ele>2202.3</ele>
        <time>2022-01-14T09:34:09Z</time>
      </trkpt>
      <trkpt lat="44.9937" lon="6.45797">
        <ele>2202.3</ele>
        <time>2022-01-14T09:34:10Z</time>
      </trkpt>
      <trkpt lat="44.99371" lon="6.45797">
        <ele>2202.3</ele>
        <time>2022-01-14T09:34:11Z</time>
      </trkpt>
      <trkpt lat="44.99371" lon="6.45797">
        <ele>2202.3</ele>
        <time>2022-01-14T09:34:12Z</time>
      </trkpt>
      <trkpt lat="44.99372" lon="6.45797">
        <ele>2202.3</ele>
        <time>2022-01-14T09:34:13Z</time>
      </trkpt>
      <trkpt lat="44.99372" lon="6.45796">
        <ele>2202.3</ele>
        <time>2022-01-14T09:34:14Z</time>
      </trkpt>
      <trkpt lat="44.99372" lon="6.45796">
        <ele>2202.3</ele>
        <time>2022-01-14T09:34:15Z</time>
      </trkpt>
      <trkpt lat="44.99373" lon="6.45795">
        <ele>2202.3</ele>
        <time>2022-01-14T09:34:16Z</time>
      </trkpt>
      <trkpt lat="44.99373" lon="6.45794">
        <ele>2202.3</ele>
        <time>2022-01-14T09:34:17Z</time>
      </trkpt>
      <trkpt lat="44.99373" lon="6.45793">
        <ele>2202.3</ele>
        <time>2022-01-14T09:34:18Z</time>
      </trkpt>
      <trkpt lat="44.99371" lon="6.45792">
        <ele>2202.3</ele>
        <time>2022-01-14T09:34:19Z</time>
      </trkpt>
      <trkpt lat="44.9937" lon="6.45791">
        <ele>2202.3</ele>
        <time>2022-01-14T09:34:20Z</time>
      </trkpt>
      <trkpt lat="44.99369" lon="6.4579">
        <ele>2209.1</ele>
        <time>2022-01-14T09:34:21Z</time>
      </trkpt>
      <trkpt lat="44.99369" lon="6.45789">
        <ele>2209.1</ele>
        <time>2022-01-14T09:34:22Z</time>
      </trkpt>
      <trkpt lat="44.99368" lon="6.45789">
        <ele>2209.1</ele>
        <time>2022-01-14T09:34:23Z</time>
      </trkpt>
      <trkpt lat="44.99368" lon="6.45788">
        <ele>2209.1</ele>
        <time>2022-01-14T09:34:24Z</time>
      </trkpt>
      <trkpt lat="44.99369" lon="6.45786">
        <ele>2209.1</ele>
        <time>2022-01-14T09:34:25Z</time>
      </trkpt>
      <trkpt lat="44.99369" lon="6.45784">
        <ele>2209.1</ele>
        <time>2022-01-14T09:34:26Z</time>
      </trkpt>
      <trkpt lat="44.99369" lon="6.45784">
        <ele>2209.1</ele>
        <time>2022-01-14T09:34:27Z</time>
      </trkpt>
      <trkpt lat="44.99368" lon="6.45783">
        <ele>2209.1</ele>
        <time>2022-01-14T09:34:28Z</time>
      </trkpt>
      <trkpt lat="44.99369" lon="6.45782">
        <ele>2209.1</ele>
        <time>2022-01-14T09:34:29Z</time>
      </trkpt>
      <trkpt lat="44.9937" lon="6.45781">
        <ele>2209.1</ele>
        <time>2022-01-14T09:34:30Z</time>
      </trkpt>
      <trkpt lat="44.99371" lon="6.45779">
        <ele>2206.7</ele>
        <time>2022-01-14T09:34:31Z</time>
      </trkpt>
      <trkpt lat="44.99371" lon="6.45777">
        <ele>2206.7</ele>
        <time>2022-01-14T09:34:32Z</time>
      </trkpt>
      <trkpt lat="44.99372" lon="6.45776">
        <ele>2206.7</ele>
        <time>2022-01-14T09:34:33Z</time>
      </trkpt>
      <trkpt lat="44.99373" lon="6.45774">
        <ele>2206.7</ele>
        <time>2022-01-14T09:34:34Z</time>
      </trkpt>
      <trkpt lat="44.99372" lon="6.45772">
        <ele>2210.9</ele>
        <time>2022-01-14T09:34:35Z</time>
      </trkpt>
      <trkpt lat="44.99373" lon="6.45772">
        <ele>2210.9</ele>
        <time>2022-01-14T09:34:36Z</time>
      </trkpt>
      <trkpt lat="44.99372" lon="6.45772">
        <ele>2210.9</ele>
        <time>2022-01-14T09:34:37Z</time>
      </trkpt>
      <trkpt lat="44.99372" lon="6.45772">
        <ele>2210.9</ele>
        <time>2022-01-14T09:34:38Z</time>
      </trkpt>
      <trkpt lat="44.99373" lon="6.45772">
        <ele>2210.9</ele>
        <time>2022-01-14T09:34:39Z</time>
      </trkpt>
      <trkpt lat="44.99373" lon="6.45771">
        <ele>2210.9</ele>
        <time>2022-01-14T09:34:40Z</time>
      </trkpt>
      <trkpt lat="44.99373" lon="6.45771">
        <ele>2210.9</ele>
        <time>2022-01-14T09:34:41Z</time>
      </trkpt>
      <trkpt lat="44.99372" lon="6.45771">
        <ele>2210.9</ele>
        <time>2022-01-14T09:34:42Z</time>
      </trkpt>
      <trkpt lat="44.99373" lon="6.4577">
        <ele>2210.9</ele>
        <time>2022-01-14T09:34:43Z</time>
      </trkpt>
      <trkpt lat="44.99373" lon="6.45769">
        <ele>2210.9</ele>
        <time>2022-01-14T09:34:44Z</time>
      </trkpt>
      <trkpt lat="44.99373" lon="6.4577">
        <ele>2210.9</ele>
        <time>2022-01-14T09:34:45Z</time>
      </trkpt>
      <trkpt lat="44.99373" lon="6.4577">
        <ele>2210.9</ele>
        <time>2022-01-14T09:34:46Z</time>
      </trkpt>
      <trkpt lat="44.99373" lon="6.4577">
        <ele>2210.9</ele>
        <time>2022-01-14T09:34:47Z</time>
      </trkpt>
      <trkpt lat="44.99373" lon="6.4577">
        <ele>2210.9</ele>
        <time>2022-01-14T09:34:48Z</time>
      </trkpt>
      <trkpt lat="44.99373" lon="6.45769">
        <ele>2210.9</ele>
        <time>2022-01-14T09:34:49Z</time>
      </trkpt>
      <trkpt lat="44.99373" lon="6.45769">
        <ele>2210.9</ele>
        <time>2022-01-14T09:34:50Z</time>
      </trkpt>
      <trkpt lat="44.99373" lon="6.45768">
        <ele>2210.9</ele>
        <time>2022-01-14T09:34:51Z</time>
      </trkpt>
      <trkpt lat="44.99373" lon="6.45767">
        <ele>2210.9</ele>
        <time>2022-01-14T09:34:52Z</time>
      </trkpt>
      <trkpt lat="44.99374" lon="6.45764">
        <ele>2210.9</ele>
        <time>2022-01-14T09:34:53Z</time>
      </trkpt>
      <trkpt lat="44.99373" lon="6.45764">
        <ele>2210.9</ele>
        <time>2022-01-14T09:34:54Z</time>
      </trkpt>
      <trkpt lat="44.99373" lon="6.45764">
        <ele>2210.9</ele>
        <time>2022-01-14T09:34:55Z</time>
      </trkpt>
      <trkpt lat="44.99373" lon="6.45763">
        <ele>2210.9</ele>
        <time>2022-01-14T09:34:56Z</time>
      </trkpt>
      <trkpt lat="44.99374" lon="6.45762">
        <ele>2210.9</ele>
        <time>2022-01-14T09:34:57Z</time>
      </trkpt>
      <trkpt lat="44.99373" lon="6.4576">
        <ele>2210.9</ele>
        <time>2022-01-14T09:34:58Z</time>
      </trkpt>
      <trkpt lat="44.99373" lon="6.45759">
        <ele>2210.9</ele>
        <time>2022-01-14T09:34:59Z</time>
      </trkpt>
      <trkpt lat="44.99374" lon="6.45758">
        <ele>2210.9</ele>
        <time>2022-01-14T09:35:00Z</time>
      </trkpt>
      <trkpt lat="44.99374" lon="6.45758">
        <ele>2210.9</ele>
        <time>2022-01-14T09:35:01Z</time>
      </trkpt>
      <trkpt lat="44.99374" lon="6.45757">
        <ele>2210.9</ele>
        <time>2022-01-14T09:35:02Z</time>
      </trkpt>
      <trkpt lat="44.99374" lon="6.45755">
        <ele>2214.9</ele>
        <time>2022-01-14T09:35:03Z</time>
      </trkpt>
      <trkpt lat="44.99374" lon="6.45754">
        <ele>2214.9</ele>
        <time>2022-01-14T09:35:04Z</time>
      </trkpt>
      <trkpt lat="44.99375" lon="6.45753">
        <ele>2214.9</ele>
        <time>2022-01-14T09:35:05Z</time>
      </trkpt>
      <trkpt lat="44.99375" lon="6.45752">
        <ele>2214.9</ele>
        <time>2022-01-14T09:35:06Z</time>
      </trkpt>
      <trkpt lat="44.99376" lon="6.45751">
        <ele>2214.9</ele>
        <time>2022-01-14T09:35:07Z</time>
      </trkpt>
      <trkpt lat="44.99376" lon="6.45749">
        <ele>2214.9</ele>
        <time>2022-01-14T09:35:08Z</time>
      </trkpt>
      <trkpt lat="44.99376" lon="6.45747">
        <ele>2214.9</ele>
        <time>2022-01-14T09:35:09Z</time>
      </trkpt>
      <trkpt lat="44.99376" lon="6.45746">
        <ele>2214.9</ele>
        <time>2022-01-14T09:35:10Z</time>
      </trkpt>
      <trkpt lat="44.99376" lon="6.45744">
        <ele>2214.9</ele>
        <time>2022-01-14T09:35:11Z</time>
      </trkpt>
      <trkpt lat="44.99377" lon="6.45743">
        <ele>2214.9</ele>
        <time>2022-01-14T09:35:12Z</time>
      </trkpt>
      <trkpt lat="44.99377" lon="6.45742">
        <ele>2214.9</ele>
        <time>2022-01-14T09:35:13Z</time>
      </trkpt>
      <trkpt lat="44.99377" lon="6.45741">
        <ele>2214.9</ele>
        <time>2022-01-14T09:35:14Z</time>
      </trkpt>
      <trkpt lat="44.99378" lon="6.4574">
        <ele>2214.9</ele>
        <time>2022-01-14T09:35:15Z</time>
      </trkpt>
      <trkpt lat="44.99378" lon="6.45738">
        <ele>2218.8</ele>
        <time>2022-01-14T09:35:16Z</time>
      </trkpt>
      <trkpt lat="44.99378" lon="6.45737">
        <ele>2218.8</ele>
        <time>2022-01-14T09:35:17Z</time>
      </trkpt>
      <trkpt lat="44.99378" lon="6.45736">
        <ele>2218.8</ele>
        <time>2022-01-14T09:35:18Z</time>
      </trkpt>
      <trkpt lat="44.99378" lon="6.45736">
        <ele>2218.8</ele>
        <time>2022-01-14T09:35:19Z</time>
      </trkpt>
      <trkpt lat="44.99378" lon="6.45735">
        <ele>2218.8</ele>
        <time>2022-01-14T09:35:20Z</time>
      </trkpt>
      <trkpt lat="44.99378" lon="6.45733">
        <ele>2218.8</ele>
        <time>2022-01-14T09:35:21Z</time>
      </trkpt>
      <trkpt lat="44.99378" lon="6.45734">
        <ele>2218.8</ele>
        <time>2022-01-14T09:35:22Z</time>
      </trkpt>
      <trkpt lat="44.99378" lon="6.45733">
        <ele>2218.8</ele>
        <time>2022-01-14T09:35:23Z</time>
      </trkpt>
      <trkpt lat="44.99378" lon="6.45732">
        <ele>2218.8</ele>
        <time>2022-01-14T09:35:24Z</time>
      </trkpt>
      <trkpt lat="44.99378" lon="6.45731">
        <ele>2218.8</ele>
        <time>2022-01-14T09:35:25Z</time>
      </trkpt>
      <trkpt lat="44.99378" lon="6.45731">
        <ele>2218.8</ele>
        <time>2022-01-14T09:35:26Z</time>
      </trkpt>
      <trkpt lat="44.99378" lon="6.45729">
        <ele>2218.8</ele>
        <time>2022-01-14T09:35:27Z</time>
      </trkpt>
      <trkpt lat="44.99378" lon="6.45729">
        <ele>2218.8</ele>
        <time>2022-01-14T09:35:28Z</time>
      </trkpt>
      <trkpt lat="44.99378" lon="6.45728">
        <ele>2218.8</ele>
        <time>2022-01-14T09:35:29Z</time>
      </trkpt>
      <trkpt lat="44.99378" lon="6.4573">
        <ele>2218.8</ele>
        <time>2022-01-14T09:35:30Z</time>
      </trkpt>
      <trkpt lat="44.99378" lon="6.4573">
        <ele>2218.8</ele>
        <time>2022-01-14T09:35:31Z</time>
      </trkpt>
      <trkpt lat="44.99378" lon="6.45729">
        <ele>2218.8</ele>
        <time>2022-01-14T09:35:32Z</time>
      </trkpt>
      <trkpt lat="44.99378" lon="6.45729">
        <ele>2218.8</ele>
        <time>2022-01-14T09:35:33Z</time>
      </trkpt>
      <trkpt lat="44.99378" lon="6.45729">
        <ele>2218.8</ele>
        <time>2022-01-14T09:35:34Z</time>
      </trkpt>
      <trkpt lat="44.99378" lon="6.45729">
        <ele>2218.8</ele>
        <time>2022-01-14T09:35:35Z</time>
      </trkpt>
      <trkpt lat="44.99378" lon="6.45729">
        <ele>2218.8</ele>
        <time>2022-01-14T09:35:36Z</time>
      </trkpt>
      <trkpt lat="44.99377" lon="6.45728">
        <ele>2218.8</ele>
        <time>2022-01-14T09:35:37Z</time>
      </trkpt>
      <trkpt lat="44.99377" lon="6.45728">
        <ele>2218.8</ele>
        <time>2022-01-14T09:35:38Z</time>
      </trkpt>
      <trkpt lat="44.99377" lon="6.45727">
        <ele>2218.8</ele>
        <time>2022-01-14T09:35:39Z</time>
      </trkpt>
      <trkpt lat="44.99377" lon="6.45726">
        <ele>2218.8</ele>
        <time>2022-01-14T09:35:40Z</time>
      </trkpt>
      <trkpt lat="44.99378" lon="6.45725">
        <ele>2218.8</ele>
        <time>2022-01-14T09:35:41Z</time>
      </trkpt>
      <trkpt lat="44.99378" lon="6.45724">
        <ele>2218.8</ele>
        <time>2022-01-14T09:35:42Z</time>
      </trkpt>
      <trkpt lat="44.99378" lon="6.45723">
        <ele>2218.8</ele>
        <time>2022-01-14T09:35:43Z</time>
      </trkpt>
      <trkpt lat="44.99377" lon="6.45724">
        <ele>2218.8</ele>
        <time>2022-01-14T09:35:44Z</time>
      </trkpt>
      <trkpt lat="44.99377" lon="6.45723">
        <ele>2218.8</ele>
        <time>2022-01-14T09:35:45Z</time>
      </trkpt>
      <trkpt lat="44.99377" lon="6.45723">
        <ele>2218.8</ele>
        <time>2022-01-14T09:35:46Z</time>
      </trkpt>
      <trkpt lat="44.99377" lon="6.45723">
        <ele>2218.8</ele>
        <time>2022-01-14T09:35:47Z</time>
      </trkpt>
      <trkpt lat="44.99378" lon="6.45722">
        <ele>2218.8</ele>
        <time>2022-01-14T09:35:48Z</time>
      </trkpt>
      <trkpt lat="44.99378" lon="6.45721">
        <ele>2223.7</ele>
        <time>2022-01-14T09:35:49Z</time>
      </trkpt>
      <trkpt lat="44.99379" lon="6.45721">
        <ele>2223.7</ele>
        <time>2022-01-14T09:35:50Z</time>
      </trkpt>
      <trkpt lat="44.99379" lon="6.45721">
        <ele>2223.7</ele>
        <time>2022-01-14T09:35:51Z</time>
      </trkpt>
      <trkpt lat="44.99379" lon="6.45721">
        <ele>2223.7</ele>
        <time>2022-01-14T09:35:52Z</time>
      </trkpt>
      <trkpt lat="44.99378" lon="6.45721">
        <ele>2223.7</ele>
        <time>2022-01-14T09:35:53Z</time>
      </trkpt>
      <trkpt lat="44.99377" lon="6.45722">
        <ele>2218.8</ele>
        <time>2022-01-14T09:35:54Z</time>
      </trkpt>
      <trkpt lat="44.99377" lon="6.45722">
        <ele>2218.8</ele>
        <time>2022-01-14T09:35:55Z</time>
      </trkpt>
      <trkpt lat="44.99377" lon="6.45722">
        <ele>2218.8</ele>
        <time>2022-01-14T09:35:56Z</time>
      </trkpt>
      <trkpt lat="44.99377" lon="6.45722">
        <ele>2218.8</ele>
        <time>2022-01-14T09:35:57Z</time>
      </trkpt>
      <trkpt lat="44.99377" lon="6.45722">
        <ele>2218.8</ele>
        <time>2022-01-14T09:35:58Z</time>
      </trkpt>
      <trkpt lat="44.99377" lon="6.45722">
        <ele>2218.8</ele>
        <time>2022-01-14T09:35:59Z</time>
      </trkpt>
      <trkpt lat="44.99377" lon="6.45721">
        <ele>2223.7</ele>
        <time>2022-01-14T09:36:00Z</time>
      </trkpt>
      <trkpt lat="44.99377" lon="6.45721">
        <ele>2223.7</ele>
        <time>2022-01-14T09:36:01Z</time>
      </trkpt>
      <trkpt lat="44.99378" lon="6.4572">
        <ele>2223.7</ele>
        <time>2022-01-14T09:36:02Z</time>
      </trkpt>
      <trkpt lat="44.99378" lon="6.45719">
        <ele>2223.7</ele>
        <time>2022-01-14T09:36:03Z</time>
      </trkpt>
      <trkpt lat="44.99379" lon="6.45718">
        <ele>2223.7</ele>
        <time>2022-01-14T09:36:04Z</time>
      </trkpt>
      <trkpt lat="44.9938" lon="6.45718">
        <ele>2223.7</ele>
        <time>2022-01-14T09:36:05Z</time>
      </trkpt>
      <trkpt lat="44.99381" lon="6.45718">
        <ele>2223.7</ele>
        <time>2022-01-14T09:36:06Z</time>
      </trkpt>
      <trkpt lat="44.99382" lon="6.45717">
        <ele>2223.7</ele>
        <time>2022-01-14T09:36:07Z</time>
      </trkpt>
      <trkpt lat="44.99382" lon="6.45717">
        <ele>2220.8</ele>
        <time>2022-01-14T09:36:08Z</time>
      </trkpt>
      <trkpt lat="44.99383" lon="6.45716">
        <ele>2220.8</ele>
        <time>2022-01-14T09:36:09Z</time>
      </trkpt>
      <trkpt lat="44.99384" lon="6.45714">
        <ele>2220.8</ele>
        <time>2022-01-14T09:36:10Z</time>
      </trkpt>
      <trkpt lat="44.99384" lon="6.45713">
        <ele>2220.8</ele>
        <time>2022-01-14T09:36:11Z</time>
      </trkpt>
      <trkpt lat="44.99385" lon="6.45712">
        <ele>2220.8</ele>
        <time>2022-01-14T09:36:12Z</time>
      </trkpt>
      <trkpt lat="44.99385" lon="6.45712">
        <ele>2220.8</ele>
        <time>2022-01-14T09:36:13Z</time>
      </trkpt>
      <trkpt lat="44.99385" lon="6.45711">
        <ele>2220.8</ele>
        <time>2022-01-14T09:36:14Z</time>
      </trkpt>
      <trkpt lat="44.99386" lon="6.4571">
        <ele>2220.8</ele>
        <time>2022-01-14T09:36:15Z</time>
      </trkpt>
      <trkpt lat="44.99387" lon="6.45708">
        <ele>2220.8</ele>
        <time>2022-01-14T09:36:16Z</time>
      </trkpt>
      <trkpt lat="44.99387" lon="6.45707">
        <ele>2220.8</ele>
        <time>2022-01-14T09:36:17Z</time>
      </trkpt>
      <trkpt lat="44.99388" lon="6.45707">
        <ele>2220.8</ele>
        <time>2022-01-14T09:36:18Z</time>
      </trkpt>
      <trkpt lat="44.99388" lon="6.45706">
        <ele>2220.8</ele>
        <time>2022-01-14T09:36:19Z</time>
      </trkpt>
      <trkpt lat="44.99389" lon="6.45706">
        <ele>2220.8</ele>
        <time>2022-01-14T09:36:20Z</time>
      </trkpt>
      <trkpt lat="44.99389" lon="6.45705">
        <ele>2220.8</ele>
        <time>2022-01-14T09:36:21Z</time>
      </trkpt>
      <trkpt lat="44.9939" lon="6.45704">
        <ele>2220.8</ele>
        <time>2022-01-14T09:36:22Z</time>
      </trkpt>
      <trkpt lat="44.9939" lon="6.45703">
        <ele>2225.4</ele>
        <time>2022-01-14T09:36:23Z</time>
      </trkpt>
      <trkpt lat="44.9939" lon="6.45703">
        <ele>2225.4</ele>
        <time>2022-01-14T09:36:24Z</time>
      </trkpt>
      <trkpt lat="44.99391" lon="6.45704">
        <ele>2225.4</ele>
        <time>2022-01-14T09:36:25Z</time>
      </trkpt>
      <trkpt lat="44.99391" lon="6.45703">
        <ele>2225.4</ele>
        <time>2022-01-14T09:36:26Z</time>
      </trkpt>
      <trkpt lat="44.99392" lon="6.45701">
        <ele>2225.4</ele>
        <time>2022-01-14T09:36:27Z</time>
      </trkpt>
      <trkpt lat="44.99393" lon="6.457">
        <ele>2225.4</ele>
        <time>2022-01-14T09:36:28Z</time>
      </trkpt>
      <trkpt lat="44.99394" lon="6.45698">
        <ele>2223.2</ele>
        <time>2022-01-14T09:36:29Z</time>
      </trkpt>
      <trkpt lat="44.99395" lon="6.45696">
        <ele>2223.2</ele>
        <time>2022-01-14T09:36:30Z</time>
      </trkpt>
      <trkpt lat="44.99395" lon="6.45695">
        <ele>2223.2</ele>
        <time>2022-01-14T09:36:31Z</time>
      </trkpt>
      <trkpt lat="44.99395" lon="6.45694">
        <ele>2223.2</ele>
        <time>2022-01-14T09:36:32Z</time>
      </trkpt>
      <trkpt lat="44.99396" lon="6.45693">
        <ele>2223.2</ele>
        <time>2022-01-14T09:36:33Z</time>
      </trkpt>
      <trkpt lat="44.99397" lon="6.45693">
        <ele>2223.2</ele>
        <time>2022-01-14T09:36:34Z</time>
      </trkpt>
      <trkpt lat="44.99397" lon="6.45693">
        <ele>2223.2</ele>
        <time>2022-01-14T09:36:35Z</time>
      </trkpt>
      <trkpt lat="44.99398" lon="6.45693">
        <ele>2223.2</ele>
        <time>2022-01-14T09:36:36Z</time>
      </trkpt>
      <trkpt lat="44.99398" lon="6.45694">
        <ele>2223.2</ele>
        <time>2022-01-14T09:36:37Z</time>
      </trkpt>
      <trkpt lat="44.99399" lon="6.45695">
        <ele>2223.2</ele>
        <time>2022-01-14T09:36:38Z</time>
      </trkpt>
      <trkpt lat="44.994" lon="6.45692">
        <ele>2223.2</ele>
        <time>2022-01-14T09:36:39Z</time>
      </trkpt>
      <trkpt lat="44.99401" lon="6.45692">
        <ele>2223.2</ele>
        <time>2022-01-14T09:36:40Z</time>
      </trkpt>
      <trkpt lat="44.99401" lon="6.45691">
        <ele>2223.2</ele>
        <time>2022-01-14T09:36:41Z</time>
      </trkpt>
      <trkpt lat="44.99401" lon="6.45691">
        <ele>2223.2</ele>
        <time>2022-01-14T09:36:42Z</time>
      </trkpt>
      <trkpt lat="44.99402" lon="6.4569">
        <ele>2223.2</ele>
        <time>2022-01-14T09:36:43Z</time>
      </trkpt>
      <trkpt lat="44.99403" lon="6.45689">
        <ele>2223.2</ele>
        <time>2022-01-14T09:36:44Z</time>
      </trkpt>
      <trkpt lat="44.99404" lon="6.45689">
        <ele>2223.2</ele>
        <time>2022-01-14T09:36:45Z</time>
      </trkpt>
      <trkpt lat="44.99404" lon="6.45688">
        <ele>2223.2</ele>
        <time>2022-01-14T09:36:46Z</time>
      </trkpt>
      <trkpt lat="44.99404" lon="6.45688">
        <ele>2223.2</ele>
        <time>2022-01-14T09:36:47Z</time>
      </trkpt>
      <trkpt lat="44.99404" lon="6.45688">
        <ele>2223.2</ele>
        <time>2022-01-14T09:36:48Z</time>
      </trkpt>
      <trkpt lat="44.99404" lon="6.45688">
        <ele>2223.2</ele>
        <time>2022-01-14T09:36:49Z</time>
      </trkpt>
      <trkpt lat="44.99404" lon="6.45688">
        <ele>2223.2</ele>
        <time>2022-01-14T09:36:50Z</time>
      </trkpt>
      <trkpt lat="44.99404" lon="6.45688">
        <ele>2223.2</ele>
        <time>2022-01-14T09:36:51Z</time>
      </trkpt>
      <trkpt lat="44.99404" lon="6.45688">
        <ele>2223.2</ele>
        <time>2022-01-14T09:36:52Z</time>
      </trkpt>
      <trkpt lat="44.99404" lon="6.45688">
        <ele>2223.2</ele>
        <time>2022-01-14T09:36:53Z</time>
      </trkpt>
      <trkpt lat="44.99406" lon="6.45686">
        <ele>2228</ele>
        <time>2022-01-14T09:36:54Z</time>
      </trkpt>
      <trkpt lat="44.99406" lon="6.45685">
        <ele>2228</ele>
        <time>2022-01-14T09:36:55Z</time>
      </trkpt>
      <trkpt lat="44.99407" lon="6.45685">
        <ele>2227.2</ele>
        <time>2022-01-14T09:36:56Z</time>
      </trkpt>
      <trkpt lat="44.99407" lon="6.45685">
        <ele>2227.2</ele>
        <time>2022-01-14T09:36:57Z</time>
      </trkpt>
      <trkpt lat="44.99407" lon="6.45685">
        <ele>2227.2</ele>
        <time>2022-01-14T09:36:58Z</time>
      </trkpt>
      <trkpt lat="44.99408" lon="6.45687">
        <ele>2227.2</ele>
        <time>2022-01-14T09:36:59Z</time>
      </trkpt>
      <trkpt lat="44.99409" lon="6.45686">
        <ele>2227.2</ele>
        <time>2022-01-14T09:37:00Z</time>
      </trkpt>
      <trkpt lat="44.9941" lon="6.45686">
        <ele>2227.2</ele>
        <time>2022-01-14T09:37:01Z</time>
      </trkpt>
      <trkpt lat="44.99411" lon="6.45686">
        <ele>2227.2</ele>
        <time>2022-01-14T09:37:02Z</time>
      </trkpt>
      <trkpt lat="44.99411" lon="6.45686">
        <ele>2227.2</ele>
        <time>2022-01-14T09:37:03Z</time>
      </trkpt>
      <trkpt lat="44.99411" lon="6.45685">
        <ele>2227.2</ele>
        <time>2022-01-14T09:37:04Z</time>
      </trkpt>
      <trkpt lat="44.99412" lon="6.45685">
        <ele>2227.2</ele>
        <time>2022-01-14T09:37:05Z</time>
      </trkpt>
      <trkpt lat="44.99412" lon="6.45685">
        <ele>2227.2</ele>
        <time>2022-01-14T09:37:06Z</time>
      </trkpt>
      <trkpt lat="44.99412" lon="6.45684">
        <ele>2227.2</ele>
        <time>2022-01-14T09:37:07Z</time>
      </trkpt>
      <trkpt lat="44.99413" lon="6.45683">
        <ele>2227.2</ele>
        <time>2022-01-14T09:37:08Z</time>
      </trkpt>
      <trkpt lat="44.99414" lon="6.45683">
        <ele>2227.2</ele>
        <time>2022-01-14T09:37:09Z</time>
      </trkpt>
      <trkpt lat="44.99414" lon="6.45681">
        <ele>2227.2</ele>
        <time>2022-01-14T09:37:10Z</time>
      </trkpt>
      <trkpt lat="44.99416" lon="6.4568">
        <ele>2227.2</ele>
        <time>2022-01-14T09:37:11Z</time>
      </trkpt>
      <trkpt lat="44.99416" lon="6.4568">
        <ele>2227.2</ele>
        <time>2022-01-14T09:37:12Z</time>
      </trkpt>
      <trkpt lat="44.99416" lon="6.45679">
        <ele>2227.2</ele>
        <time>2022-01-14T09:37:13Z</time>
      </trkpt>
      <trkpt lat="44.99417" lon="6.45679">
        <ele>2227.2</ele>
        <time>2022-01-14T09:37:14Z</time>
      </trkpt>
      <trkpt lat="44.99417" lon="6.45679">
        <ele>2227.2</ele>
        <time>2022-01-14T09:37:15Z</time>
      </trkpt>
      <trkpt lat="44.99418" lon="6.45679">
        <ele>2227.2</ele>
        <time>2022-01-14T09:37:16Z</time>
      </trkpt>
      <trkpt lat="44.99418" lon="6.45679">
        <ele>2227.2</ele>
        <time>2022-01-14T09:37:17Z</time>
      </trkpt>
      <trkpt lat="44.99418" lon="6.45679">
        <ele>2227.2</ele>
        <time>2022-01-14T09:37:18Z</time>
      </trkpt>
      <trkpt lat="44.99418" lon="6.45679">
        <ele>2226.6</ele>
        <time>2022-01-14T09:37:19Z</time>
      </trkpt>
      <trkpt lat="44.99419" lon="6.45679">
        <ele>2226.6</ele>
        <time>2022-01-14T09:37:20Z</time>
      </trkpt>
      <trkpt lat="44.9942" lon="6.4568">
        <ele>2226.6</ele>
        <time>2022-01-14T09:37:21Z</time>
      </trkpt>
      <trkpt lat="44.99421" lon="6.4568">
        <ele>2226.6</ele>
        <time>2022-01-14T09:37:22Z</time>
      </trkpt>
      <trkpt lat="44.99422" lon="6.4568">
        <ele>2226.6</ele>
        <time>2022-01-14T09:37:23Z</time>
      </trkpt>
      <trkpt lat="44.99423" lon="6.4568">
        <ele>2226.6</ele>
        <time>2022-01-14T09:37:24Z</time>
      </trkpt>
      <trkpt lat="44.99424" lon="6.45679">
        <ele>2226.6</ele>
        <time>2022-01-14T09:37:25Z</time>
      </trkpt>
      <trkpt lat="44.99425" lon="6.45679">
        <ele>2226.6</ele>
        <time>2022-01-14T09:37:26Z</time>
      </trkpt>
      <trkpt lat="44.99426" lon="6.45679">
        <ele>2226.6</ele>
        <time>2022-01-14T09:37:27Z</time>
      </trkpt>
      <trkpt lat="44.99426" lon="6.45679">
        <ele>2226.6</ele>
        <time>2022-01-14T09:37:28Z</time>
      </trkpt>
      <trkpt lat="44.99427" lon="6.45679">
        <ele>2226.6</ele>
        <time>2022-01-14T09:37:29Z</time>
      </trkpt>
      <trkpt lat="44.99428" lon="6.45679">
        <ele>2226.6</ele>
        <time>2022-01-14T09:37:30Z</time>
      </trkpt>
      <trkpt lat="44.9943" lon="6.45678">
        <ele>2226.6</ele>
        <time>2022-01-14T09:37:31Z</time>
      </trkpt>
      <trkpt lat="44.99431" lon="6.45678">
        <ele>2226</ele>
        <time>2022-01-14T09:37:32Z</time>
      </trkpt>
      <trkpt lat="44.99432" lon="6.45678">
        <ele>2226</ele>
        <time>2022-01-14T09:37:33Z</time>
      </trkpt>
      <trkpt lat="44.99432" lon="6.45678">
        <ele>2226</ele>
        <time>2022-01-14T09:37:34Z</time>
      </trkpt>
      <trkpt lat="44.99433" lon="6.45677">
        <ele>2226</ele>
        <time>2022-01-14T09:37:35Z</time>
      </trkpt>
      <trkpt lat="44.99434" lon="6.45677">
        <ele>2226</ele>
        <time>2022-01-14T09:37:36Z</time>
      </trkpt>
      <trkpt lat="44.99434" lon="6.45678">
        <ele>2226</ele>
        <time>2022-01-14T09:37:37Z</time>
      </trkpt>
      <trkpt lat="44.99435" lon="6.45678">
        <ele>2226</ele>
        <time>2022-01-14T09:37:38Z</time>
      </trkpt>
      <trkpt lat="44.99436" lon="6.45679">
        <ele>2226</ele>
        <time>2022-01-14T09:37:39Z</time>
      </trkpt>
      <trkpt lat="44.99436" lon="6.45679">
        <ele>2226</ele>
        <time>2022-01-14T09:37:40Z</time>
      </trkpt>
      <trkpt lat="44.99437" lon="6.45679">
        <ele>2226</ele>
        <time>2022-01-14T09:37:41Z</time>
      </trkpt>
      <trkpt lat="44.99437" lon="6.45679">
        <ele>2226</ele>
        <time>2022-01-14T09:37:42Z</time>
      </trkpt>
      <trkpt lat="44.99437" lon="6.4568">
        <ele>2226</ele>
        <time>2022-01-14T09:37:43Z</time>
      </trkpt>
      <trkpt lat="44.99437" lon="6.4568">
        <ele>2226</ele>
        <time>2022-01-14T09:37:44Z</time>
      </trkpt>
      <trkpt lat="44.99437" lon="6.45679">
        <ele>2226</ele>
        <time>2022-01-14T09:37:45Z</time>
      </trkpt>
      <trkpt lat="44.99437" lon="6.4568">
        <ele>2226</ele>
        <time>2022-01-14T09:37:46Z</time>
      </trkpt>
      <trkpt lat="44.99437" lon="6.4568">
        <ele>2226</ele>
        <time>2022-01-14T09:37:47Z</time>
      </trkpt>
      <trkpt lat="44.99438" lon="6.4568">
        <ele>2226</ele>
        <time>2022-01-14T09:37:48Z</time>
      </trkpt>
      <trkpt lat="44.99438" lon="6.4568">
        <ele>2226</ele>
        <time>2022-01-14T09:37:49Z</time>
      </trkpt>
      <trkpt lat="44.99439" lon="6.4568">
        <ele>2226</ele>
        <time>2022-01-14T09:37:50Z</time>
      </trkpt>
      <trkpt lat="44.99439" lon="6.4568">
        <ele>2226</ele>
        <time>2022-01-14T09:37:51Z</time>
      </trkpt>
      <trkpt lat="44.9944" lon="6.45679">
        <ele>2226</ele>
        <time>2022-01-14T09:37:52Z</time>
      </trkpt>
      <trkpt lat="44.99441" lon="6.45679">
        <ele>2226</ele>
        <time>2022-01-14T09:37:53Z</time>
      </trkpt>
      <trkpt lat="44.99441" lon="6.45679">
        <ele>2226</ele>
        <time>2022-01-14T09:37:54Z</time>
      </trkpt>
      <trkpt lat="44.99442" lon="6.45678">
        <ele>2226</ele>
        <time>2022-01-14T09:37:55Z</time>
      </trkpt>
      <trkpt lat="44.99443" lon="6.45678">
        <ele>2224.1</ele>
        <time>2022-01-14T09:37:56Z</time>
      </trkpt>
      <trkpt lat="44.99443" lon="6.45677">
        <ele>2224.1</ele>
        <time>2022-01-14T09:37:57Z</time>
      </trkpt>
      <trkpt lat="44.99444" lon="6.45677">
        <ele>2224.1</ele>
        <time>2022-01-14T09:37:59Z</time>
      </trkpt>
      <trkpt lat="44.99444" lon="6.45677">
        <ele>2224.1</ele>
        <time>2022-01-14T09:38:00Z</time>
      </trkpt>
      <trkpt lat="44.99445" lon="6.45676">
        <ele>2224.1</ele>
        <time>2022-01-14T09:38:01Z</time>
      </trkpt>
      <trkpt lat="44.99446" lon="6.45675">
        <ele>2224.1</ele>
        <time>2022-01-14T09:38:02Z</time>
      </trkpt>
      <trkpt lat="44.99446" lon="6.45675">
        <ele>2224.1</ele>
        <time>2022-01-14T09:38:03Z</time>
      </trkpt>
      <trkpt lat="44.99446" lon="6.45674">
        <ele>2224.1</ele>
        <time>2022-01-14T09:38:04Z</time>
      </trkpt>
      <trkpt lat="44.99446" lon="6.45674">
        <ele>2224.1</ele>
        <time>2022-01-14T09:38:05Z</time>
      </trkpt>
      <trkpt lat="44.99446" lon="6.45673">
        <ele>2224.1</ele>
        <time>2022-01-14T09:38:06Z</time>
      </trkpt>
      <trkpt lat="44.99447" lon="6.45673">
        <ele>2224.1</ele>
        <time>2022-01-14T09:38:07Z</time>
      </trkpt>
      <trkpt lat="44.99447" lon="6.45672">
        <ele>2224.1</ele>
        <time>2022-01-14T09:38:08Z</time>
      </trkpt>
      <trkpt lat="44.99447" lon="6.4567">
        <ele>2224.1</ele>
        <time>2022-01-14T09:38:09Z</time>
      </trkpt>
      <trkpt lat="44.99447" lon="6.45669">
        <ele>2229.4</ele>
        <time>2022-01-14T09:38:10Z</time>
      </trkpt>
      <trkpt lat="44.99446" lon="6.45668">
        <ele>2229.4</ele>
        <time>2022-01-14T09:38:11Z</time>
      </trkpt>
      <trkpt lat="44.99446" lon="6.45668">
        <ele>2229.4</ele>
        <time>2022-01-14T09:38:12Z</time>
      </trkpt>
      <trkpt lat="44.99445" lon="6.45668">
        <ele>2229.4</ele>
        <time>2022-01-14T09:38:13Z</time>
      </trkpt>
      <trkpt lat="44.99445" lon="6.45667">
        <ele>2229.4</ele>
        <time>2022-01-14T09:38:14Z</time>
      </trkpt>
      <trkpt lat="44.99444" lon="6.45666">
        <ele>2229.4</ele>
        <time>2022-01-14T09:38:15Z</time>
      </trkpt>
      <trkpt lat="44.99444" lon="6.45665">
        <ele>2229.4</ele>
        <time>2022-01-14T09:38:16Z</time>
      </trkpt>
      <trkpt lat="44.99443" lon="6.45665">
        <ele>2229.4</ele>
        <time>2022-01-14T09:38:17Z</time>
      </trkpt>
      <trkpt lat="44.99443" lon="6.45664">
        <ele>2229.4</ele>
        <time>2022-01-14T09:38:18Z</time>
      </trkpt>
      <trkpt lat="44.99443" lon="6.45664">
        <ele>2231.1</ele>
        <time>2022-01-14T09:38:19Z</time>
      </trkpt>
      <trkpt lat="44.99442" lon="6.45663">
        <ele>2231.1</ele>
        <time>2022-01-14T09:38:20Z</time>
      </trkpt>
      <trkpt lat="44.99442" lon="6.45663">
        <ele>2231.1</ele>
        <time>2022-01-14T09:38:21Z</time>
      </trkpt>
      <trkpt lat="44.99442" lon="6.45663">
        <ele>2231.1</ele>
        <time>2022-01-14T09:38:22Z</time>
      </trkpt>
      <trkpt lat="44.99442" lon="6.45664">
        <ele>2231.1</ele>
        <time>2022-01-14T09:38:23Z</time>
      </trkpt>
      <trkpt lat="44.99442" lon="6.45663">
        <ele>2231.1</ele>
        <time>2022-01-14T09:38:24Z</time>
      </trkpt>
      <trkpt lat="44.99442" lon="6.45663">
        <ele>2231.1</ele>
        <time>2022-01-14T09:38:25Z</time>
      </trkpt>
      <trkpt lat="44.99442" lon="6.45662">
        <ele>2231.1</ele>
        <time>2022-01-14T09:38:26Z</time>
      </trkpt>
      <trkpt lat="44.99441" lon="6.45662">
        <ele>2231.1</ele>
        <time>2022-01-14T09:38:27Z</time>
      </trkpt>
      <trkpt lat="44.99441" lon="6.45662">
        <ele>2231.1</ele>
        <time>2022-01-14T09:38:28Z</time>
      </trkpt>
      <trkpt lat="44.99441" lon="6.45662">
        <ele>2231.1</ele>
        <time>2022-01-14T09:38:29Z</time>
      </trkpt>
      <trkpt lat="44.9944" lon="6.45662">
        <ele>2231.1</ele>
        <time>2022-01-14T09:38:30Z</time>
      </trkpt>
      <trkpt lat="44.9944" lon="6.45662">
        <ele>2231.1</ele>
        <time>2022-01-14T09:38:31Z</time>
      </trkpt>
      <trkpt lat="44.99441" lon="6.45662">
        <ele>2231.1</ele>
        <time>2022-01-14T09:38:32Z</time>
      </trkpt>
      <trkpt lat="44.99441" lon="6.45662">
        <ele>2231.1</ele>
        <time>2022-01-14T09:38:33Z</time>
      </trkpt>
      <trkpt lat="44.99441" lon="6.45661">
        <ele>2231.1</ele>
        <time>2022-01-14T09:38:34Z</time>
      </trkpt>
      <trkpt lat="44.99441" lon="6.4566">
        <ele>2231.1</ele>
        <time>2022-01-14T09:38:35Z</time>
      </trkpt>
      <trkpt lat="44.9944" lon="6.45659">
        <ele>2231.1</ele>
        <time>2022-01-14T09:38:36Z</time>
      </trkpt>
      <trkpt lat="44.9944" lon="6.45657">
        <ele>2231.1</ele>
        <time>2022-01-14T09:38:37Z</time>
      </trkpt>
      <trkpt lat="44.9944" lon="6.45657">
        <ele>2231.1</ele>
        <time>2022-01-14T09:38:38Z</time>
      </trkpt>
      <trkpt lat="44.9944" lon="6.45656">
        <ele>2231.1</ele>
        <time>2022-01-14T09:38:39Z</time>
      </trkpt>
      <trkpt lat="44.9944" lon="6.45656">
        <ele>2231.1</ele>
        <time>2022-01-14T09:38:40Z</time>
      </trkpt>
      <trkpt lat="44.9944" lon="6.45655">
        <ele>2231.1</ele>
        <time>2022-01-14T09:38:41Z</time>
      </trkpt>
      <trkpt lat="44.99439" lon="6.45654">
        <ele>2231.1</ele>
        <time>2022-01-14T09:38:42Z</time>
      </trkpt>
      <trkpt lat="44.99439" lon="6.45654">
        <ele>2231.1</ele>
        <time>2022-01-14T09:38:43Z</time>
      </trkpt>
      <trkpt lat="44.99438" lon="6.45653">
        <ele>2235.1</ele>
        <time>2022-01-14T09:38:44Z</time>
      </trkpt>
      <trkpt lat="44.99438" lon="6.45652">
        <ele>2235.1</ele>
        <time>2022-01-14T09:38:45Z</time>
      </trkpt>
      <trkpt lat="44.99437" lon="6.45651">
        <ele>2235.1</ele>
        <time>2022-01-14T09:38:46Z</time>
      </trkpt>
      <trkpt lat="44.99437" lon="6.45651">
        <ele>2235.1</ele>
        <time>2022-01-14T09:38:47Z</time>
      </trkpt>
      <trkpt lat="44.99437" lon="6.4565">
        <ele>2235.1</ele>
        <time>2022-01-14T09:38:48Z</time>
      </trkpt>
      <trkpt lat="44.99437" lon="6.4565">
        <ele>2235.1</ele>
        <time>2022-01-14T09:38:49Z</time>
      </trkpt>
      <trkpt lat="44.99437" lon="6.4565">
        <ele>2235.1</ele>
        <time>2022-01-14T09:38:50Z</time>
      </trkpt>
      <trkpt lat="44.99438" lon="6.45648">
        <ele>2235.1</ele>
        <time>2022-01-14T09:38:51Z</time>
      </trkpt>
      <trkpt lat="44.99438" lon="6.45649">
        <ele>2235.1</ele>
        <time>2022-01-14T09:38:52Z</time>
      </trkpt>
      <trkpt lat="44.99437" lon="6.45648">
        <ele>2235.1</ele>
        <time>2022-01-14T09:38:53Z</time>
      </trkpt>
      <trkpt lat="44.99437" lon="6.45648">
        <ele>2235.1</ele>
        <time>2022-01-14T09:38:54Z</time>
      </trkpt>
      <trkpt lat="44.99437" lon="6.45648">
        <ele>2235.1</ele>
        <time>2022-01-14T09:38:55Z</time>
      </trkpt>
      <trkpt lat="44.99436" lon="6.45648">
        <ele>2235.1</ele>
        <time>2022-01-14T09:38:56Z</time>
      </trkpt>
      <trkpt lat="44.99436" lon="6.45647">
        <ele>2235.1</ele>
        <time>2022-01-14T09:38:57Z</time>
      </trkpt>
      <trkpt lat="44.99436" lon="6.45646">
        <ele>2235.1</ele>
        <time>2022-01-14T09:38:58Z</time>
      </trkpt>
      <trkpt lat="44.99436" lon="6.45645">
        <ele>2235.1</ele>
        <time>2022-01-14T09:38:59Z</time>
      </trkpt>
      <trkpt lat="44.99436" lon="6.45644">
        <ele>2235.1</ele>
        <time>2022-01-14T09:39:00Z</time>
      </trkpt>
      <trkpt lat="44.99436" lon="6.45643">
        <ele>2235.1</ele>
        <time>2022-01-14T09:39:01Z</time>
      </trkpt>
      <trkpt lat="44.99437" lon="6.45642">
        <ele>2235.1</ele>
        <time>2022-01-14T09:39:02Z</time>
      </trkpt>
      <trkpt lat="44.99437" lon="6.45641">
        <ele>2235.1</ele>
        <time>2022-01-14T09:39:03Z</time>
      </trkpt>
      <trkpt lat="44.99438" lon="6.4564">
        <ele>2235.1</ele>
        <time>2022-01-14T09:39:04Z</time>
      </trkpt>
      <trkpt lat="44.99438" lon="6.45639">
        <ele>2235.1</ele>
        <time>2022-01-14T09:39:05Z</time>
      </trkpt>
      <trkpt lat="44.99438" lon="6.45638">
        <ele>2235.1</ele>
        <time>2022-01-14T09:39:06Z</time>
      </trkpt>
      <trkpt lat="44.99439" lon="6.45637">
        <ele>2235.1</ele>
        <time>2022-01-14T09:39:07Z</time>
      </trkpt>
      <trkpt lat="44.99439" lon="6.45637">
        <ele>2235.1</ele>
        <time>2022-01-14T09:39:08Z</time>
      </trkpt>
      <trkpt lat="44.99439" lon="6.45637">
        <ele>2235.1</ele>
        <time>2022-01-14T09:39:09Z</time>
      </trkpt>
      <trkpt lat="44.99439" lon="6.45637">
        <ele>2235.1</ele>
        <time>2022-01-14T09:39:10Z</time>
      </trkpt>
      <trkpt lat="44.99439" lon="6.45637">
        <ele>2235.1</ele>
        <time>2022-01-14T09:39:11Z</time>
      </trkpt>
      <trkpt lat="44.99439" lon="6.45636">
        <ele>2235.1</ele>
        <time>2022-01-14T09:39:12Z</time>
      </trkpt>
      <trkpt lat="44.99438" lon="6.45636">
        <ele>2235.1</ele>
        <time>2022-01-14T09:39:13Z</time>
      </trkpt>
      <trkpt lat="44.99438" lon="6.45635">
        <ele>2239.4</ele>
        <time>2022-01-14T09:39:14Z</time>
      </trkpt>
      <trkpt lat="44.99438" lon="6.45634">
        <ele>2239.4</ele>
        <time>2022-01-14T09:39:15Z</time>
      </trkpt>
      <trkpt lat="44.99437" lon="6.45633">
        <ele>2239.4</ele>
        <time>2022-01-14T09:39:16Z</time>
      </trkpt>
      <trkpt lat="44.99437" lon="6.45633">
        <ele>2239.4</ele>
        <time>2022-01-14T09:39:17Z</time>
      </trkpt>
      <trkpt lat="44.99437" lon="6.45632">
        <ele>2239.4</ele>
        <time>2022-01-14T09:39:18Z</time>
      </trkpt>
      <trkpt lat="44.99437" lon="6.45631">
        <ele>2239.4</ele>
        <time>2022-01-14T09:39:19Z</time>
      </trkpt>
      <trkpt lat="44.99436" lon="6.45631">
        <ele>2239.4</ele>
        <time>2022-01-14T09:39:20Z</time>
      </trkpt>
      <trkpt lat="44.99436" lon="6.4563">
        <ele>2239.4</ele>
        <time>2022-01-14T09:39:21Z</time>
      </trkpt>
      <trkpt lat="44.99436" lon="6.45629">
        <ele>2239.4</ele>
        <time>2022-01-14T09:39:22Z</time>
      </trkpt>
      <trkpt lat="44.99436" lon="6.45628">
        <ele>2239.4</ele>
        <time>2022-01-14T09:39:23Z</time>
      </trkpt>
      <trkpt lat="44.99435" lon="6.45627">
        <ele>2239.4</ele>
        <time>2022-01-14T09:39:24Z</time>
      </trkpt>
      <trkpt lat="44.99435" lon="6.45626">
        <ele>2239.4</ele>
        <time>2022-01-14T09:39:25Z</time>
      </trkpt>
      <trkpt lat="44.99435" lon="6.45625">
        <ele>2239.4</ele>
        <time>2022-01-14T09:39:26Z</time>
      </trkpt>
      <trkpt lat="44.99436" lon="6.45625">
        <ele>2239.4</ele>
        <time>2022-01-14T09:39:27Z</time>
      </trkpt>
      <trkpt lat="44.99436" lon="6.45623">
        <ele>2239.4</ele>
        <time>2022-01-14T09:39:28Z</time>
      </trkpt>
      <trkpt lat="44.99435" lon="6.45622">
        <ele>2239.4</ele>
        <time>2022-01-14T09:39:29Z</time>
      </trkpt>
      <trkpt lat="44.99436" lon="6.45622">
        <ele>2239.4</ele>
        <time>2022-01-14T09:39:30Z</time>
      </trkpt>
      <trkpt lat="44.99436" lon="6.45622">
        <ele>2239.4</ele>
        <time>2022-01-14T09:39:31Z</time>
      </trkpt>
      <trkpt lat="44.99436" lon="6.45622">
        <ele>2239.4</ele>
        <time>2022-01-14T09:39:32Z</time>
      </trkpt>
      <trkpt lat="44.99436" lon="6.45623">
        <ele>2239.4</ele>
        <time>2022-01-14T09:39:33Z</time>
      </trkpt>
      <trkpt lat="44.99436" lon="6.45623">
        <ele>2239.4</ele>
        <time>2022-01-14T09:39:34Z</time>
      </trkpt>
      <trkpt lat="44.99436" lon="6.45622">
        <ele>2239.4</ele>
        <time>2022-01-14T09:39:35Z</time>
      </trkpt>
      <trkpt lat="44.99435" lon="6.4562">
        <ele>2239.4</ele>
        <time>2022-01-14T09:39:36Z</time>
      </trkpt>
      <trkpt lat="44.99435" lon="6.45619">
        <ele>2239.4</ele>
        <time>2022-01-14T09:39:37Z</time>
      </trkpt>
      <trkpt lat="44.99435" lon="6.45618">
        <ele>2243.3</ele>
        <time>2022-01-14T09:39:38Z</time>
      </trkpt>
      <trkpt lat="44.99434" lon="6.45617">
        <ele>2243.3</ele>
        <time>2022-01-14T09:39:39Z</time>
      </trkpt>
      <trkpt lat="44.99434" lon="6.45616">
        <ele>2243.3</ele>
        <time>2022-01-14T09:39:40Z</time>
      </trkpt>
      <trkpt lat="44.99433" lon="6.45616">
        <ele>2243.3</ele>
        <time>2022-01-14T09:39:41Z</time>
      </trkpt>
      <trkpt lat="44.99433" lon="6.45616">
        <ele>2243.3</ele>
        <time>2022-01-14T09:39:42Z</time>
      </trkpt>
      <trkpt lat="44.99433" lon="6.45616">
        <ele>2243.3</ele>
        <time>2022-01-14T09:39:43Z</time>
      </trkpt>
      <trkpt lat="44.99434" lon="6.45616">
        <ele>2243.3</ele>
        <time>2022-01-14T09:39:44Z</time>
      </trkpt>
      <trkpt lat="44.99435" lon="6.45616">
        <ele>2243.3</ele>
        <time>2022-01-14T09:39:45Z</time>
      </trkpt>
      <trkpt lat="44.99435" lon="6.45616">
        <ele>2243.3</ele>
        <time>2022-01-14T09:39:46Z</time>
      </trkpt>
      <trkpt lat="44.99436" lon="6.45616">
        <ele>2243.3</ele>
        <time>2022-01-14T09:39:47Z</time>
      </trkpt>
      <trkpt lat="44.99437" lon="6.45616">
        <ele>2243.3</ele>
        <time>2022-01-14T09:39:48Z</time>
      </trkpt>
      <trkpt lat="44.99438" lon="6.45616">
        <ele>2243.3</ele>
        <time>2022-01-14T09:39:49Z</time>
      </trkpt>
      <trkpt lat="44.99439" lon="6.45615">
        <ele>2243.3</ele>
        <time>2022-01-14T09:39:50Z</time>
      </trkpt>
      <trkpt lat="44.99439" lon="6.45614">
        <ele>2243.3</ele>
        <time>2022-01-14T09:39:51Z</time>
      </trkpt>
      <trkpt lat="44.99438" lon="6.45615">
        <ele>2243.3</ele>
        <time>2022-01-14T09:39:52Z</time>
      </trkpt>
      <trkpt lat="44.99437" lon="6.45615">
        <ele>2243.3</ele>
        <time>2022-01-14T09:39:53Z</time>
      </trkpt>
      <trkpt lat="44.99437" lon="6.45615">
        <ele>2243.3</ele>
        <time>2022-01-14T09:39:54Z</time>
      </trkpt>
      <trkpt lat="44.99436" lon="6.45615">
        <ele>2243.3</ele>
        <time>2022-01-14T09:39:55Z</time>
      </trkpt>
      <trkpt lat="44.99435" lon="6.45616">
        <ele>2243.3</ele>
        <time>2022-01-14T09:39:56Z</time>
      </trkpt>
      <trkpt lat="44.99435" lon="6.45615">
        <ele>2243.3</ele>
        <time>2022-01-14T09:39:57Z</time>
      </trkpt>
      <trkpt lat="44.99435" lon="6.45615">
        <ele>2243.3</ele>
        <time>2022-01-14T09:39:58Z</time>
      </trkpt>
      <trkpt lat="44.99434" lon="6.45615">
        <ele>2243.3</ele>
        <time>2022-01-14T09:39:59Z</time>
      </trkpt>
      <trkpt lat="44.99434" lon="6.45614">
        <ele>2243.3</ele>
        <time>2022-01-14T09:40:00Z</time>
      </trkpt>
      <trkpt lat="44.99434" lon="6.45614">
        <ele>2243.3</ele>
        <time>2022-01-14T09:40:01Z</time>
      </trkpt>
      <trkpt lat="44.99434" lon="6.45614">
        <ele>2243.3</ele>
        <time>2022-01-14T09:40:02Z</time>
      </trkpt>
      <trkpt lat="44.99434" lon="6.45613">
        <ele>2243.3</ele>
        <time>2022-01-14T09:40:03Z</time>
      </trkpt>
      <trkpt lat="44.99435" lon="6.45612">
        <ele>2243.3</ele>
        <time>2022-01-14T09:40:04Z</time>
      </trkpt>
      <trkpt lat="44.99435" lon="6.45611">
        <ele>2243.3</ele>
        <time>2022-01-14T09:40:05Z</time>
      </trkpt>
      <trkpt lat="44.99435" lon="6.45611">
        <ele>2243.3</ele>
        <time>2022-01-14T09:40:06Z</time>
      </trkpt>
      <trkpt lat="44.99435" lon="6.4561">
        <ele>2243.3</ele>
        <time>2022-01-14T09:40:07Z</time>
      </trkpt>
      <trkpt lat="44.99436" lon="6.4561">
        <ele>2243.3</ele>
        <time>2022-01-14T09:40:08Z</time>
      </trkpt>
      <trkpt lat="44.99436" lon="6.45609">
        <ele>2243.3</ele>
        <time>2022-01-14T09:40:09Z</time>
      </trkpt>
      <trkpt lat="44.99435" lon="6.45609">
        <ele>2243.3</ele>
        <time>2022-01-14T09:40:10Z</time>
      </trkpt>
      <trkpt lat="44.99435" lon="6.45609">
        <ele>2243.3</ele>
        <time>2022-01-14T09:40:11Z</time>
      </trkpt>
      <trkpt lat="44.99435" lon="6.45609">
        <ele>2243.3</ele>
        <time>2022-01-14T09:40:12Z</time>
      </trkpt>
      <trkpt lat="44.99436" lon="6.45609">
        <ele>2243.3</ele>
        <time>2022-01-14T09:40:13Z</time>
      </trkpt>
      <trkpt lat="44.99436" lon="6.45608">
        <ele>2243.3</ele>
        <time>2022-01-14T09:40:14Z</time>
      </trkpt>
      <trkpt lat="44.99436" lon="6.45609">
        <ele>2243.3</ele>
        <time>2022-01-14T09:40:15Z</time>
      </trkpt>
      <trkpt lat="44.99437" lon="6.45609">
        <ele>2243.3</ele>
        <time>2022-01-14T09:40:16Z</time>
      </trkpt>
      <trkpt lat="44.99438" lon="6.45609">
        <ele>2243.3</ele>
        <time>2022-01-14T09:40:17Z</time>
      </trkpt>
      <trkpt lat="44.99439" lon="6.4561">
        <ele>2243.3</ele>
        <time>2022-01-14T09:40:18Z</time>
      </trkpt>
      <trkpt lat="44.99439" lon="6.4561">
        <ele>2243.3</ele>
        <time>2022-01-14T09:40:19Z</time>
      </trkpt>
      <trkpt lat="44.99439" lon="6.4561">
        <ele>2243.3</ele>
        <time>2022-01-14T09:40:20Z</time>
      </trkpt>
      <trkpt lat="44.99439" lon="6.4561">
        <ele>2243.3</ele>
        <time>2022-01-14T09:40:21Z</time>
      </trkpt>
      <trkpt lat="44.9944" lon="6.4561">
        <ele>2243.3</ele>
        <time>2022-01-14T09:40:22Z</time>
      </trkpt>
      <trkpt lat="44.99441" lon="6.45609">
        <ele>2243.3</ele>
        <time>2022-01-14T09:40:23Z</time>
      </trkpt>
      <trkpt lat="44.99441" lon="6.45609">
        <ele>2243.3</ele>
        <time>2022-01-14T09:40:24Z</time>
      </trkpt>
      <trkpt lat="44.99441" lon="6.45609">
        <ele>2243.3</ele>
        <time>2022-01-14T09:40:25Z</time>
      </trkpt>
      <trkpt lat="44.99442" lon="6.45608">
        <ele>2243.3</ele>
        <time>2022-01-14T09:40:26Z</time>
      </trkpt>
      <trkpt lat="44.99443" lon="6.45607">
        <ele>2243.3</ele>
        <time>2022-01-14T09:40:27Z</time>
      </trkpt>
      <trkpt lat="44.99442" lon="6.45607">
        <ele>2243.3</ele>
        <time>2022-01-14T09:40:28Z</time>
      </trkpt>
      <trkpt lat="44.99443" lon="6.45607">
        <ele>2243.3</ele>
        <time>2022-01-14T09:40:29Z</time>
      </trkpt>
      <trkpt lat="44.99443" lon="6.45605">
        <ele>2240.4</ele>
        <time>2022-01-14T09:40:30Z</time>
      </trkpt>
      <trkpt lat="44.99444" lon="6.45604">
        <ele>2240.4</ele>
        <time>2022-01-14T09:40:31Z</time>
      </trkpt>
      <trkpt lat="44.99445" lon="6.45604">
        <ele>2240.4</ele>
        <time>2022-01-14T09:40:32Z</time>
      </trkpt>
      <trkpt lat="44.99446" lon="6.45604">
        <ele>2240.4</ele>
        <time>2022-01-14T09:40:33Z</time>
      </trkpt>
      <trkpt lat="44.99447" lon="6.45603">
        <ele>2240.4</ele>
        <time>2022-01-14T09:40:34Z</time>
      </trkpt>
      <trkpt lat="44.99447" lon="6.45604">
        <ele>2240.4</ele>
        <time>2022-01-14T09:40:35Z</time>
      </trkpt>
      <trkpt lat="44.99448" lon="6.45603">
        <ele>2240.4</ele>
        <time>2022-01-14T09:40:36Z</time>
      </trkpt>
      <trkpt lat="44.99449" lon="6.45603">
        <ele>2240.4</ele>
        <time>2022-01-14T09:40:37Z</time>
      </trkpt>
      <trkpt lat="44.99449" lon="6.45603">
        <ele>2240.4</ele>
        <time>2022-01-14T09:40:38Z</time>
      </trkpt>
      <trkpt lat="44.9945" lon="6.45603">
        <ele>2240.4</ele>
        <time>2022-01-14T09:40:39Z</time>
      </trkpt>
      <trkpt lat="44.9945" lon="6.45604">
        <ele>2240.4</ele>
        <time>2022-01-14T09:40:40Z</time>
      </trkpt>
      <trkpt lat="44.99451" lon="6.45604">
        <ele>2240.4</ele>
        <time>2022-01-14T09:40:41Z</time>
      </trkpt>
      <trkpt lat="44.99452" lon="6.45604">
        <ele>2240.4</ele>
        <time>2022-01-14T09:40:42Z</time>
      </trkpt>
      <trkpt lat="44.99452" lon="6.45604">
        <ele>2240.4</ele>
        <time>2022-01-14T09:40:43Z</time>
      </trkpt>
      <trkpt lat="44.99452" lon="6.45604">
        <ele>2240.4</ele>
        <time>2022-01-14T09:40:44Z</time>
      </trkpt>
      <trkpt lat="44.99453" lon="6.45605">
        <ele>2240.4</ele>
        <time>2022-01-14T09:40:45Z</time>
      </trkpt>
      <trkpt lat="44.99453" lon="6.45605">
        <ele>2240.4</ele>
        <time>2022-01-14T09:40:46Z</time>
      </trkpt>
      <trkpt lat="44.99453" lon="6.45604">
        <ele>2240.4</ele>
        <time>2022-01-14T09:40:47Z</time>
      </trkpt>
      <trkpt lat="44.99453" lon="6.45603">
        <ele>2240.4</ele>
        <time>2022-01-14T09:40:48Z</time>
      </trkpt>
      <trkpt lat="44.99455" lon="6.45603">
        <ele>2240.4</ele>
        <time>2022-01-14T09:40:49Z</time>
      </trkpt>
      <trkpt lat="44.99456" lon="6.45602">
        <ele>2237.3</ele>
        <time>2022-01-14T09:40:50Z</time>
      </trkpt>
      <trkpt lat="44.99456" lon="6.45603">
        <ele>2237.3</ele>
        <time>2022-01-14T09:40:51Z</time>
      </trkpt>
      <trkpt lat="44.99457" lon="6.45603">
        <ele>2237.3</ele>
        <time>2022-01-14T09:40:52Z</time>
      </trkpt>
      <trkpt lat="44.99458" lon="6.45601">
        <ele>2240.7</ele>
        <time>2022-01-14T09:40:53Z</time>
      </trkpt>
      <trkpt lat="44.99458" lon="6.45601">
        <ele>2240.7</ele>
        <time>2022-01-14T09:40:54Z</time>
      </trkpt>
      <trkpt lat="44.99458" lon="6.456">
        <ele>2240.7</ele>
        <time>2022-01-14T09:40:55Z</time>
      </trkpt>
      <trkpt lat="44.99459" lon="6.45599">
        <ele>2240.7</ele>
        <time>2022-01-14T09:40:56Z</time>
      </trkpt>
      <trkpt lat="44.99459" lon="6.45598">
        <ele>2240.7</ele>
        <time>2022-01-14T09:40:57Z</time>
      </trkpt>
      <trkpt lat="44.9946" lon="6.45598">
        <ele>2240.7</ele>
        <time>2022-01-14T09:40:58Z</time>
      </trkpt>
      <trkpt lat="44.9946" lon="6.45597">
        <ele>2240.7</ele>
        <time>2022-01-14T09:40:59Z</time>
      </trkpt>
      <trkpt lat="44.9946" lon="6.45598">
        <ele>2240.7</ele>
        <time>2022-01-14T09:41:00Z</time>
      </trkpt>
      <trkpt lat="44.99461" lon="6.45598">
        <ele>2240.7</ele>
        <time>2022-01-14T09:41:01Z</time>
      </trkpt>
      <trkpt lat="44.99461" lon="6.45598">
        <ele>2240.7</ele>
        <time>2022-01-14T09:41:02Z</time>
      </trkpt>
      <trkpt lat="44.99462" lon="6.45597">
        <ele>2240.7</ele>
        <time>2022-01-14T09:41:03Z</time>
      </trkpt>
      <trkpt lat="44.99462" lon="6.45597">
        <ele>2240.7</ele>
        <time>2022-01-14T09:41:04Z</time>
      </trkpt>
      <trkpt lat="44.99463" lon="6.45596">
        <ele>2240.7</ele>
        <time>2022-01-14T09:41:05Z</time>
      </trkpt>
      <trkpt lat="44.99464" lon="6.45595">
        <ele>2240.7</ele>
        <time>2022-01-14T09:41:06Z</time>
      </trkpt>
      <trkpt lat="44.99465" lon="6.45594">
        <ele>2240.7</ele>
        <time>2022-01-14T09:41:07Z</time>
      </trkpt>
      <trkpt lat="44.99465" lon="6.45594">
        <ele>2240.7</ele>
        <time>2022-01-14T09:41:08Z</time>
      </trkpt>
      <trkpt lat="44.99465" lon="6.45594">
        <ele>2240.7</ele>
        <time>2022-01-14T09:41:09Z</time>
      </trkpt>
      <trkpt lat="44.99465" lon="6.45593">
        <ele>2240.7</ele>
        <time>2022-01-14T09:41:10Z</time>
      </trkpt>
      <trkpt lat="44.99465" lon="6.45593">
        <ele>2240.7</ele>
        <time>2022-01-14T09:41:11Z</time>
      </trkpt>
      <trkpt lat="44.99465" lon="6.45593">
        <ele>2240.7</ele>
        <time>2022-01-14T09:41:12Z</time>
      </trkpt>
      <trkpt lat="44.99465" lon="6.45591">
        <ele>2240.7</ele>
        <time>2022-01-14T09:41:13Z</time>
      </trkpt>
      <trkpt lat="44.99465" lon="6.4559">
        <ele>2240.7</ele>
        <time>2022-01-14T09:41:14Z</time>
      </trkpt>
      <trkpt lat="44.99465" lon="6.45589">
        <ele>2240.7</ele>
        <time>2022-01-14T09:41:15Z</time>
      </trkpt>
      <trkpt lat="44.99466" lon="6.45587">
        <ele>2240.7</ele>
        <time>2022-01-14T09:41:16Z</time>
      </trkpt>
      <trkpt lat="44.99466" lon="6.45587">
        <ele>2240.7</ele>
        <time>2022-01-14T09:41:17Z</time>
      </trkpt>
      <trkpt lat="44.99466" lon="6.45586">
        <ele>2240.7</ele>
        <time>2022-01-14T09:41:18Z</time>
      </trkpt>
      <trkpt lat="44.99466" lon="6.45585">
        <ele>2240.7</ele>
        <time>2022-01-14T09:41:19Z</time>
      </trkpt>
      <trkpt lat="44.99466" lon="6.45585">
        <ele>2240.7</ele>
        <time>2022-01-14T09:41:20Z</time>
      </trkpt>
      <trkpt lat="44.99466" lon="6.45585">
        <ele>2240.7</ele>
        <time>2022-01-14T09:41:21Z</time>
      </trkpt>
      <trkpt lat="44.99466" lon="6.45583">
        <ele>2244.9</ele>
        <time>2022-01-14T09:41:22Z</time>
      </trkpt>
      <trkpt lat="44.99466" lon="6.45583">
        <ele>2244.9</ele>
        <time>2022-01-14T09:41:23Z</time>
      </trkpt>
      <trkpt lat="44.99466" lon="6.45583">
        <ele>2244.9</ele>
        <time>2022-01-14T09:41:24Z</time>
      </trkpt>
      <trkpt lat="44.99465" lon="6.45581">
        <ele>2244.9</ele>
        <time>2022-01-14T09:41:25Z</time>
      </trkpt>
      <trkpt lat="44.99465" lon="6.4558">
        <ele>2244.9</ele>
        <time>2022-01-14T09:41:26Z</time>
      </trkpt>
      <trkpt lat="44.99465" lon="6.4558">
        <ele>2244.9</ele>
        <time>2022-01-14T09:41:27Z</time>
      </trkpt>
      <trkpt lat="44.99465" lon="6.4558">
        <ele>2244.9</ele>
        <time>2022-01-14T09:41:28Z</time>
      </trkpt>
      <trkpt lat="44.99465" lon="6.4558">
        <ele>2244.9</ele>
        <time>2022-01-14T09:41:29Z</time>
      </trkpt>
      <trkpt lat="44.99465" lon="6.4558">
        <ele>2244.9</ele>
        <time>2022-01-14T09:41:30Z</time>
      </trkpt>
      <trkpt lat="44.99465" lon="6.45579">
        <ele>2244.9</ele>
        <time>2022-01-14T09:41:31Z</time>
      </trkpt>
      <trkpt lat="44.99465" lon="6.45579">
        <ele>2244.9</ele>
        <time>2022-01-14T09:41:32Z</time>
      </trkpt>
      <trkpt lat="44.99465" lon="6.45578">
        <ele>2244.9</ele>
        <time>2022-01-14T09:41:33Z</time>
      </trkpt>
      <trkpt lat="44.99466" lon="6.45578">
        <ele>2244.9</ele>
        <time>2022-01-14T09:41:34Z</time>
      </trkpt>
      <trkpt lat="44.99466" lon="6.45578">
        <ele>2244.9</ele>
        <time>2022-01-14T09:41:35Z</time>
      </trkpt>
      <trkpt lat="44.99466" lon="6.45578">
        <ele>2244.9</ele>
        <time>2022-01-14T09:41:36Z</time>
      </trkpt>
      <trkpt lat="44.99466" lon="6.45578">
        <ele>2244.9</ele>
        <time>2022-01-14T09:41:37Z</time>
      </trkpt>
      <trkpt lat="44.99466" lon="6.45577">
        <ele>2244.9</ele>
        <time>2022-01-14T09:41:38Z</time>
      </trkpt>
      <trkpt lat="44.99466" lon="6.45576">
        <ele>2244.9</ele>
        <time>2022-01-14T09:41:39Z</time>
      </trkpt>
      <trkpt lat="44.99466" lon="6.45575">
        <ele>2244.9</ele>
        <time>2022-01-14T09:41:40Z</time>
      </trkpt>
      <trkpt lat="44.99466" lon="6.45573">
        <ele>2244.9</ele>
        <time>2022-01-14T09:41:41Z</time>
      </trkpt>
      <trkpt lat="44.99466" lon="6.45573">
        <ele>2244.9</ele>
        <time>2022-01-14T09:41:42Z</time>
      </trkpt>
      <trkpt lat="44.99466" lon="6.45572">
        <ele>2244.9</ele>
        <time>2022-01-14T09:41:43Z</time>
      </trkpt>
      <trkpt lat="44.99467" lon="6.45571">
        <ele>2241.4</ele>
        <time>2022-01-14T09:41:44Z</time>
      </trkpt>
      <trkpt lat="44.99468" lon="6.45571">
        <ele>2241.4</ele>
        <time>2022-01-14T09:41:45Z</time>
      </trkpt>
      <trkpt lat="44.99468" lon="6.4557">
        <ele>2241.4</ele>
        <time>2022-01-14T09:41:46Z</time>
      </trkpt>
      <trkpt lat="44.99468" lon="6.45569">
        <ele>2241.4</ele>
        <time>2022-01-14T09:41:47Z</time>
      </trkpt>
      <trkpt lat="44.99467" lon="6.45568">
        <ele>2241.4</ele>
        <time>2022-01-14T09:41:48Z</time>
      </trkpt>
      <trkpt lat="44.99467" lon="6.45567">
        <ele>2241.4</ele>
        <time>2022-01-14T09:41:49Z</time>
      </trkpt>
      <trkpt lat="44.99467" lon="6.45567">
        <ele>2241.4</ele>
        <time>2022-01-14T09:41:50Z</time>
      </trkpt>
      <trkpt lat="44.99467" lon="6.45566">
        <ele>2245.1</ele>
        <time>2022-01-14T09:41:51Z</time>
      </trkpt>
      <trkpt lat="44.99467" lon="6.45565">
        <ele>2245.1</ele>
        <time>2022-01-14T09:41:52Z</time>
      </trkpt>
      <trkpt lat="44.99468" lon="6.45563">
        <ele>2245.1</ele>
        <time>2022-01-14T09:41:53Z</time>
      </trkpt>
      <trkpt lat="44.99468" lon="6.45559">
        <ele>2245.1</ele>
        <time>2022-01-14T09:41:54Z</time>
      </trkpt>
      <trkpt lat="44.99468" lon="6.45558">
        <ele>2245.1</ele>
        <time>2022-01-14T09:41:55Z</time>
      </trkpt>
      <trkpt lat="44.99468" lon="6.45557">
        <ele>2245.1</ele>
        <time>2022-01-14T09:41:56Z</time>
      </trkpt>
      <trkpt lat="44.99468" lon="6.45557">
        <ele>2245.1</ele>
        <time>2022-01-14T09:41:57Z</time>
      </trkpt>
      <trkpt lat="44.99467" lon="6.45556">
        <ele>2245.1</ele>
        <time>2022-01-14T09:41:58Z</time>
      </trkpt>
      <trkpt lat="44.99468" lon="6.45555">
        <ele>2245.1</ele>
        <time>2022-01-14T09:41:59Z</time>
      </trkpt>
      <trkpt lat="44.99467" lon="6.45555">
        <ele>2245.1</ele>
        <time>2022-01-14T09:42:00Z</time>
      </trkpt>
      <trkpt lat="44.99467" lon="6.45554">
        <ele>2245.1</ele>
        <time>2022-01-14T09:42:01Z</time>
      </trkpt>
      <trkpt lat="44.99467" lon="6.45552">
        <ele>2245.1</ele>
        <time>2022-01-14T09:42:02Z</time>
      </trkpt>
      <trkpt lat="44.99467" lon="6.45552">
        <ele>2245.1</ele>
        <time>2022-01-14T09:42:03Z</time>
      </trkpt>
      <trkpt lat="44.99468" lon="6.45552">
        <ele>2245.1</ele>
        <time>2022-01-14T09:42:04Z</time>
      </trkpt>
      <trkpt lat="44.99468" lon="6.45552">
        <ele>2245.1</ele>
        <time>2022-01-14T09:42:05Z</time>
      </trkpt>
      <trkpt lat="44.99469" lon="6.45551">
        <ele>2245.1</ele>
        <time>2022-01-14T09:42:06Z</time>
      </trkpt>
      <trkpt lat="44.99469" lon="6.4555">
        <ele>2245.1</ele>
        <time>2022-01-14T09:42:07Z</time>
      </trkpt>
      <trkpt lat="44.99469" lon="6.45548">
        <ele>2248.9</ele>
        <time>2022-01-14T09:42:08Z</time>
      </trkpt>
      <trkpt lat="44.99468" lon="6.45546">
        <ele>2248.9</ele>
        <time>2022-01-14T09:42:09Z</time>
      </trkpt>
      <trkpt lat="44.99468" lon="6.45545">
        <ele>2248.9</ele>
        <time>2022-01-14T09:42:10Z</time>
      </trkpt>
      <trkpt lat="44.99468" lon="6.45544">
        <ele>2248.9</ele>
        <time>2022-01-14T09:42:11Z</time>
      </trkpt>
      <trkpt lat="44.99469" lon="6.45544">
        <ele>2248.9</ele>
        <time>2022-01-14T09:42:12Z</time>
      </trkpt>
      <trkpt lat="44.99468" lon="6.45543">
        <ele>2248.9</ele>
        <time>2022-01-14T09:42:13Z</time>
      </trkpt>
      <trkpt lat="44.99469" lon="6.45542">
        <ele>2248.9</ele>
        <time>2022-01-14T09:42:14Z</time>
      </trkpt>
      <trkpt lat="44.99469" lon="6.45543">
        <ele>2248.9</ele>
        <time>2022-01-14T09:42:15Z</time>
      </trkpt>
      <trkpt lat="44.99469" lon="6.45542">
        <ele>2248.9</ele>
        <time>2022-01-14T09:42:16Z</time>
      </trkpt>
      <trkpt lat="44.99469" lon="6.45541">
        <ele>2248.9</ele>
        <time>2022-01-14T09:42:17Z</time>
      </trkpt>
      <trkpt lat="44.99469" lon="6.4554">
        <ele>2248.9</ele>
        <time>2022-01-14T09:42:18Z</time>
      </trkpt>
      <trkpt lat="44.9947" lon="6.45538">
        <ele>2248.9</ele>
        <time>2022-01-14T09:42:19Z</time>
      </trkpt>
      <trkpt lat="44.9947" lon="6.45538">
        <ele>2248.9</ele>
        <time>2022-01-14T09:42:20Z</time>
      </trkpt>
      <trkpt lat="44.9947" lon="6.45537">
        <ele>2248.9</ele>
        <time>2022-01-14T09:42:21Z</time>
      </trkpt>
      <trkpt lat="44.9947" lon="6.45537">
        <ele>2248.9</ele>
        <time>2022-01-14T09:42:22Z</time>
      </trkpt>
      <trkpt lat="44.9947" lon="6.45536">
        <ele>2248.9</ele>
        <time>2022-01-14T09:42:23Z</time>
      </trkpt>
      <trkpt lat="44.99471" lon="6.45535">
        <ele>2248.9</ele>
        <time>2022-01-14T09:42:24Z</time>
      </trkpt>
      <trkpt lat="44.9947" lon="6.45535">
        <ele>2248.9</ele>
        <time>2022-01-14T09:42:25Z</time>
      </trkpt>
      <trkpt lat="44.99471" lon="6.45534">
        <ele>2248.9</ele>
        <time>2022-01-14T09:42:26Z</time>
      </trkpt>
      <trkpt lat="44.99471" lon="6.45533">
        <ele>2248.9</ele>
        <time>2022-01-14T09:42:27Z</time>
      </trkpt>
      <trkpt lat="44.99471" lon="6.45533">
        <ele>2248.9</ele>
        <time>2022-01-14T09:42:28Z</time>
      </trkpt>
      <trkpt lat="44.99471" lon="6.45532">
        <ele>2253.3</ele>
        <time>2022-01-14T09:42:29Z</time>
      </trkpt>
      <trkpt lat="44.99471" lon="6.45532">
        <ele>2253.3</ele>
        <time>2022-01-14T09:42:30Z</time>
      </trkpt>
      <trkpt lat="44.99471" lon="6.45532">
        <ele>2253.3</ele>
        <time>2022-01-14T09:42:31Z</time>
      </trkpt>
      <trkpt lat="44.99471" lon="6.45531">
        <ele>2253.3</ele>
        <time>2022-01-14T09:42:32Z</time>
      </trkpt>
      <trkpt lat="44.9947" lon="6.45531">
        <ele>2253.3</ele>
        <time>2022-01-14T09:42:33Z</time>
      </trkpt>
      <trkpt lat="44.9947" lon="6.45531">
        <ele>2253.3</ele>
        <time>2022-01-14T09:42:34Z</time>
      </trkpt>
      <trkpt lat="44.99471" lon="6.45531">
        <ele>2253.3</ele>
        <time>2022-01-14T09:42:35Z</time>
      </trkpt>
      <trkpt lat="44.99471" lon="6.4553">
        <ele>2253.3</ele>
        <time>2022-01-14T09:42:36Z</time>
      </trkpt>
      <trkpt lat="44.99471" lon="6.4553">
        <ele>2253.3</ele>
        <time>2022-01-14T09:42:37Z</time>
      </trkpt>
      <trkpt lat="44.99471" lon="6.4553">
        <ele>2253.3</ele>
        <time>2022-01-14T09:42:38Z</time>
      </trkpt>
      <trkpt lat="44.99471" lon="6.4553">
        <ele>2253.3</ele>
        <time>2022-01-14T09:42:39Z</time>
      </trkpt>
      <trkpt lat="44.99471" lon="6.4553">
        <ele>2253.3</ele>
        <time>2022-01-14T09:42:40Z</time>
      </trkpt>
      <trkpt lat="44.99471" lon="6.4553">
        <ele>2253.3</ele>
        <time>2022-01-14T09:42:41Z</time>
      </trkpt>
      <trkpt lat="44.99471" lon="6.4553">
        <ele>2253.3</ele>
        <time>2022-01-14T09:42:42Z</time>
      </trkpt>
      <trkpt lat="44.99471" lon="6.4553">
        <ele>2253.3</ele>
        <time>2022-01-14T09:42:43Z</time>
      </trkpt>
      <trkpt lat="44.99471" lon="6.4553">
        <ele>2253.3</ele>
        <time>2022-01-14T09:42:44Z</time>
      </trkpt>
      <trkpt lat="44.99471" lon="6.45529">
        <ele>2253.3</ele>
        <time>2022-01-14T09:42:45Z</time>
      </trkpt>
      <trkpt lat="44.99472" lon="6.45527">
        <ele>2253.3</ele>
        <time>2022-01-14T09:42:46Z</time>
      </trkpt>
      <trkpt lat="44.99472" lon="6.45526">
        <ele>2253.3</ele>
        <time>2022-01-14T09:42:47Z</time>
      </trkpt>
      <trkpt lat="44.99473" lon="6.45526">
        <ele>2253.3</ele>
        <time>2022-01-14T09:42:48Z</time>
      </trkpt>
      <trkpt lat="44.99472" lon="6.45525">
        <ele>2253.3</ele>
        <time>2022-01-14T09:42:49Z</time>
      </trkpt>
      <trkpt lat="44.99472" lon="6.45525">
        <ele>2253.3</ele>
        <time>2022-01-14T09:42:50Z</time>
      </trkpt>
      <trkpt lat="44.99472" lon="6.45525">
        <ele>2253.3</ele>
        <time>2022-01-14T09:42:51Z</time>
      </trkpt>
      <trkpt lat="44.99472" lon="6.45524">
        <ele>2253.3</ele>
        <time>2022-01-14T09:42:52Z</time>
      </trkpt>
      <trkpt lat="44.99473" lon="6.45523">
        <ele>2253.3</ele>
        <time>2022-01-14T09:42:53Z</time>
      </trkpt>
      <trkpt lat="44.99473" lon="6.45522">
        <ele>2253.3</ele>
        <time>2022-01-14T09:42:54Z</time>
      </trkpt>
      <trkpt lat="44.99473" lon="6.45521">
        <ele>2253.3</ele>
        <time>2022-01-14T09:42:55Z</time>
      </trkpt>
      <trkpt lat="44.99473" lon="6.4552">
        <ele>2253.3</ele>
        <time>2022-01-14T09:42:56Z</time>
      </trkpt>
      <trkpt lat="44.99473" lon="6.4552">
        <ele>2253.3</ele>
        <time>2022-01-14T09:42:57Z</time>
      </trkpt>
      <trkpt lat="44.99473" lon="6.4552">
        <ele>2253.3</ele>
        <time>2022-01-14T09:42:58Z</time>
      </trkpt>
      <trkpt lat="44.99474" lon="6.45519">
        <ele>2253.3</ele>
        <time>2022-01-14T09:42:59Z</time>
      </trkpt>
      <trkpt lat="44.99475" lon="6.45518">
        <ele>2253.3</ele>
        <time>2022-01-14T09:43:00Z</time>
      </trkpt>
      <trkpt lat="44.99476" lon="6.45518">
        <ele>2253.3</ele>
        <time>2022-01-14T09:43:01Z</time>
      </trkpt>
      <trkpt lat="44.99476" lon="6.45518">
        <ele>2253.3</ele>
        <time>2022-01-14T09:43:02Z</time>
      </trkpt>
      <trkpt lat="44.99476" lon="6.45518">
        <ele>2253.3</ele>
        <time>2022-01-14T09:43:03Z</time>
      </trkpt>
      <trkpt lat="44.99476" lon="6.45517">
        <ele>2253.3</ele>
        <time>2022-01-14T09:43:04Z</time>
      </trkpt>
      <trkpt lat="44.99476" lon="6.45518">
        <ele>2253.3</ele>
        <time>2022-01-14T09:43:05Z</time>
      </trkpt>
      <trkpt lat="44.99477" lon="6.45517">
        <ele>2253.3</ele>
        <time>2022-01-14T09:43:06Z</time>
      </trkpt>
      <trkpt lat="44.99478" lon="6.45517">
        <ele>2253.3</ele>
        <time>2022-01-14T09:43:07Z</time>
      </trkpt>
      <trkpt lat="44.99478" lon="6.45516">
        <ele>2253.3</ele>
        <time>2022-01-14T09:43:08Z</time>
      </trkpt>
      <trkpt lat="44.99479" lon="6.45516">
        <ele>2253.3</ele>
        <time>2022-01-14T09:43:09Z</time>
      </trkpt>
      <trkpt lat="44.9948" lon="6.45517">
        <ele>2250.2</ele>
        <time>2022-01-14T09:43:10Z</time>
      </trkpt>
      <trkpt lat="44.9948" lon="6.45515">
        <ele>2254.7</ele>
        <time>2022-01-14T09:43:11Z</time>
      </trkpt>
      <trkpt lat="44.9948" lon="6.45515">
        <ele>2254.7</ele>
        <time>2022-01-14T09:43:12Z</time>
      </trkpt>
      <trkpt lat="44.99482" lon="6.45515">
        <ele>2254.7</ele>
        <time>2022-01-14T09:43:13Z</time>
      </trkpt>
      <trkpt lat="44.99483" lon="6.45516">
        <ele>2250.2</ele>
        <time>2022-01-14T09:43:14Z</time>
      </trkpt>
      <trkpt lat="44.99484" lon="6.45516">
        <ele>2250.2</ele>
        <time>2022-01-14T09:43:15Z</time>
      </trkpt>
      <trkpt lat="44.99484" lon="6.45516">
        <ele>2250.2</ele>
        <time>2022-01-14T09:43:16Z</time>
      </trkpt>
      <trkpt lat="44.99485" lon="6.45516">
        <ele>2250.2</ele>
        <time>2022-01-14T09:43:17Z</time>
      </trkpt>
      <trkpt lat="44.99485" lon="6.45516">
        <ele>2250.2</ele>
        <time>2022-01-14T09:43:18Z</time>
      </trkpt>
      <trkpt lat="44.99485" lon="6.45516">
        <ele>2250.2</ele>
        <time>2022-01-14T09:43:19Z</time>
      </trkpt>
      <trkpt lat="44.99486" lon="6.45516">
        <ele>2250.2</ele>
        <time>2022-01-14T09:43:20Z</time>
      </trkpt>
      <trkpt lat="44.99486" lon="6.45515">
        <ele>2254.7</ele>
        <time>2022-01-14T09:43:21Z</time>
      </trkpt>
      <trkpt lat="44.99487" lon="6.45515">
        <ele>2254.7</ele>
        <time>2022-01-14T09:43:22Z</time>
      </trkpt>
      <trkpt lat="44.99488" lon="6.45515">
        <ele>2254.7</ele>
        <time>2022-01-14T09:43:23Z</time>
      </trkpt>
      <trkpt lat="44.99488" lon="6.45514">
        <ele>2254.7</ele>
        <time>2022-01-14T09:43:24Z</time>
      </trkpt>
      <trkpt lat="44.99488" lon="6.45515">
        <ele>2254.7</ele>
        <time>2022-01-14T09:43:25Z</time>
      </trkpt>
      <trkpt lat="44.99489" lon="6.45515">
        <ele>2254.7</ele>
        <time>2022-01-14T09:43:26Z</time>
      </trkpt>
      <trkpt lat="44.99489" lon="6.45515">
        <ele>2254.7</ele>
        <time>2022-01-14T09:43:27Z</time>
      </trkpt>
      <trkpt lat="44.9949" lon="6.45515">
        <ele>2254.7</ele>
        <time>2022-01-14T09:43:28Z</time>
      </trkpt>
      <trkpt lat="44.9949" lon="6.45516">
        <ele>2250.2</ele>
        <time>2022-01-14T09:43:29Z</time>
      </trkpt>
      <trkpt lat="44.9949" lon="6.45515">
        <ele>2254.7</ele>
        <time>2022-01-14T09:43:30Z</time>
      </trkpt>
      <trkpt lat="44.9949" lon="6.45515">
        <ele>2254.7</ele>
        <time>2022-01-14T09:43:31Z</time>
      </trkpt>
      <trkpt lat="44.9949" lon="6.45514">
        <ele>2254.7</ele>
        <time>2022-01-14T09:43:32Z</time>
      </trkpt>
      <trkpt lat="44.9949" lon="6.45516">
        <ele>2250.2</ele>
        <time>2022-01-14T09:43:33Z</time>
      </trkpt>
      <trkpt lat="44.9949" lon="6.45516">
        <ele>2250.2</ele>
        <time>2022-01-14T09:43:34Z</time>
      </trkpt>
      <trkpt lat="44.99491" lon="6.45516">
        <ele>2250.2</ele>
        <time>2022-01-14T09:43:35Z</time>
      </trkpt>
      <trkpt lat="44.99491" lon="6.45515">
        <ele>2253.2</ele>
        <time>2022-01-14T09:43:36Z</time>
      </trkpt>
      <trkpt lat="44.99492" lon="6.45513">
        <ele>2253.2</ele>
        <time>2022-01-14T09:43:37Z</time>
      </trkpt>
      <trkpt lat="44.99492" lon="6.45512">
        <ele>2253.2</ele>
        <time>2022-01-14T09:43:38Z</time>
      </trkpt>
      <trkpt lat="44.99493" lon="6.45511">
        <ele>2253.2</ele>
        <time>2022-01-14T09:43:39Z</time>
      </trkpt>
      <trkpt lat="44.99493" lon="6.4551">
        <ele>2253.2</ele>
        <time>2022-01-14T09:43:40Z</time>
      </trkpt>
      <trkpt lat="44.99494" lon="6.4551">
        <ele>2253.2</ele>
        <time>2022-01-14T09:43:41Z</time>
      </trkpt>
      <trkpt lat="44.99495" lon="6.45509">
        <ele>2253.2</ele>
        <time>2022-01-14T09:43:42Z</time>
      </trkpt>
      <trkpt lat="44.99494" lon="6.4551">
        <ele>2253.2</ele>
        <time>2022-01-14T09:43:43Z</time>
      </trkpt>
      <trkpt lat="44.99494" lon="6.45511">
        <ele>2253.2</ele>
        <time>2022-01-14T09:43:44Z</time>
      </trkpt>
      <trkpt lat="44.99494" lon="6.4551">
        <ele>2253.2</ele>
        <time>2022-01-14T09:43:45Z</time>
      </trkpt>
      <trkpt lat="44.99494" lon="6.4551">
        <ele>2253.2</ele>
        <time>2022-01-14T09:43:46Z</time>
      </trkpt>
      <trkpt lat="44.99494" lon="6.4551">
        <ele>2253.2</ele>
        <time>2022-01-14T09:43:47Z</time>
      </trkpt>
      <trkpt lat="44.99494" lon="6.45509">
        <ele>2253.2</ele>
        <time>2022-01-14T09:43:48Z</time>
      </trkpt>
      <trkpt lat="44.99494" lon="6.45509">
        <ele>2253.2</ele>
        <time>2022-01-14T09:43:49Z</time>
      </trkpt>
      <trkpt lat="44.99495" lon="6.45508">
        <ele>2253.2</ele>
        <time>2022-01-14T09:43:50Z</time>
      </trkpt>
      <trkpt lat="44.99495" lon="6.45507">
        <ele>2253.2</ele>
        <time>2022-01-14T09:43:51Z</time>
      </trkpt>
      <trkpt lat="44.99495" lon="6.45506">
        <ele>2253.2</ele>
        <time>2022-01-14T09:43:52Z</time>
      </trkpt>
      <trkpt lat="44.99495" lon="6.45504">
        <ele>2253.2</ele>
        <time>2022-01-14T09:43:53Z</time>
      </trkpt>
      <trkpt lat="44.99495" lon="6.45502">
        <ele>2253.2</ele>
        <time>2022-01-14T09:43:54Z</time>
      </trkpt>
      <trkpt lat="44.99495" lon="6.45502">
        <ele>2253.2</ele>
        <time>2022-01-14T09:43:55Z</time>
      </trkpt>
      <trkpt lat="44.99495" lon="6.45502">
        <ele>2253.2</ele>
        <time>2022-01-14T09:43:56Z</time>
      </trkpt>
      <trkpt lat="44.99495" lon="6.455">
        <ele>2253.2</ele>
        <time>2022-01-14T09:43:57Z</time>
      </trkpt>
      <trkpt lat="44.99496" lon="6.45499">
        <ele>2253.2</ele>
        <time>2022-01-14T09:43:58Z</time>
      </trkpt>
      <trkpt lat="44.99496" lon="6.45498">
        <ele>2253.2</ele>
        <time>2022-01-14T09:43:59Z</time>
      </trkpt>
      <trkpt lat="44.99496" lon="6.45499">
        <ele>2253.2</ele>
        <time>2022-01-14T09:44:00Z</time>
      </trkpt>
      <trkpt lat="44.99496" lon="6.45498">
        <ele>2258.9</ele>
        <time>2022-01-14T09:44:01Z</time>
      </trkpt>
      <trkpt lat="44.99496" lon="6.45497">
        <ele>2258.9</ele>
        <time>2022-01-14T09:44:02Z</time>
      </trkpt>
      <trkpt lat="44.99497" lon="6.45497">
        <ele>2258.9</ele>
        <time>2022-01-14T09:44:03Z</time>
      </trkpt>
      <trkpt lat="44.99497" lon="6.45497">
        <ele>2258.9</ele>
        <time>2022-01-14T09:44:04Z</time>
      </trkpt>
      <trkpt lat="44.99497" lon="6.45497">
        <ele>2258.9</ele>
        <time>2022-01-14T09:44:05Z</time>
      </trkpt>
      <trkpt lat="44.99497" lon="6.45498">
        <ele>2258.9</ele>
        <time>2022-01-14T09:44:06Z</time>
      </trkpt>
      <trkpt lat="44.99497" lon="6.45497">
        <ele>2258.9</ele>
        <time>2022-01-14T09:44:07Z</time>
      </trkpt>
      <trkpt lat="44.99497" lon="6.45496">
        <ele>2258.9</ele>
        <time>2022-01-14T09:44:08Z</time>
      </trkpt>
      <trkpt lat="44.99496" lon="6.45496">
        <ele>2258.9</ele>
        <time>2022-01-14T09:44:09Z</time>
      </trkpt>
      <trkpt lat="44.99496" lon="6.45495">
        <ele>2258.9</ele>
        <time>2022-01-14T09:44:10Z</time>
      </trkpt>
      <trkpt lat="44.99497" lon="6.45494">
        <ele>2258.9</ele>
        <time>2022-01-14T09:44:11Z</time>
      </trkpt>
      <trkpt lat="44.99497" lon="6.45494">
        <ele>2258.9</ele>
        <time>2022-01-14T09:44:12Z</time>
      </trkpt>
      <trkpt lat="44.99496" lon="6.45493">
        <ele>2258.9</ele>
        <time>2022-01-14T09:44:13Z</time>
      </trkpt>
      <trkpt lat="44.99496" lon="6.45491">
        <ele>2258.9</ele>
        <time>2022-01-14T09:44:14Z</time>
      </trkpt>
      <trkpt lat="44.99497" lon="6.45491">
        <ele>2258.9</ele>
        <time>2022-01-14T09:44:15Z</time>
      </trkpt>
      <trkpt lat="44.99498" lon="6.45489">
        <ele>2258.9</ele>
        <time>2022-01-14T09:44:16Z</time>
      </trkpt>
      <trkpt lat="44.99498" lon="6.45488">
        <ele>2258.9</ele>
        <time>2022-01-14T09:44:17Z</time>
      </trkpt>
      <trkpt lat="44.99498" lon="6.45487">
        <ele>2258.9</ele>
        <time>2022-01-14T09:44:18Z</time>
      </trkpt>
      <trkpt lat="44.99498" lon="6.45487">
        <ele>2258.9</ele>
        <time>2022-01-14T09:44:19Z</time>
      </trkpt>
      <trkpt lat="44.99498" lon="6.45486">
        <ele>2258.9</ele>
        <time>2022-01-14T09:44:20Z</time>
      </trkpt>
      <trkpt lat="44.99498" lon="6.45485">
        <ele>2258.9</ele>
        <time>2022-01-14T09:44:21Z</time>
      </trkpt>
      <trkpt lat="44.99498" lon="6.45484">
        <ele>2258.9</ele>
        <time>2022-01-14T09:44:22Z</time>
      </trkpt>
      <trkpt lat="44.99498" lon="6.45484">
        <ele>2258.9</ele>
        <time>2022-01-14T09:44:23Z</time>
      </trkpt>
      <trkpt lat="44.99498" lon="6.45483">
        <ele>2258.9</ele>
        <time>2022-01-14T09:44:24Z</time>
      </trkpt>
      <trkpt lat="44.99498" lon="6.45483">
        <ele>2258.9</ele>
        <time>2022-01-14T09:44:25Z</time>
      </trkpt>
      <trkpt lat="44.99498" lon="6.45483">
        <ele>2258.9</ele>
        <time>2022-01-14T09:44:26Z</time>
      </trkpt>
      <trkpt lat="44.99497" lon="6.45482">
        <ele>2258.9</ele>
        <time>2022-01-14T09:44:27Z</time>
      </trkpt>
      <trkpt lat="44.99497" lon="6.45483">
        <ele>2258.9</ele>
        <time>2022-01-14T09:44:28Z</time>
      </trkpt>
      <trkpt lat="44.99497" lon="6.45483">
        <ele>2258.9</ele>
        <time>2022-01-14T09:44:29Z</time>
      </trkpt>
      <trkpt lat="44.99498" lon="6.45484">
        <ele>2258.9</ele>
        <time>2022-01-14T09:44:30Z</time>
      </trkpt>
      <trkpt lat="44.99498" lon="6.45486">
        <ele>2258.9</ele>
        <time>2022-01-14T09:44:31Z</time>
      </trkpt>
      <trkpt lat="44.99498" lon="6.45485">
        <ele>2258.9</ele>
        <time>2022-01-14T09:44:32Z</time>
      </trkpt>
      <trkpt lat="44.99498" lon="6.45485">
        <ele>2258.9</ele>
        <time>2022-01-14T09:44:33Z</time>
      </trkpt>
      <trkpt lat="44.99498" lon="6.45484">
        <ele>2258.9</ele>
        <time>2022-01-14T09:44:34Z</time>
      </trkpt>
      <trkpt lat="44.99498" lon="6.45484">
        <ele>2258.9</ele>
        <time>2022-01-14T09:44:35Z</time>
      </trkpt>
      <trkpt lat="44.99498" lon="6.45483">
        <ele>2258.9</ele>
        <time>2022-01-14T09:44:36Z</time>
      </trkpt>
      <trkpt lat="44.99497" lon="6.45481">
        <ele>2258.9</ele>
        <time>2022-01-14T09:44:37Z</time>
      </trkpt>
      <trkpt lat="44.99497" lon="6.45481">
        <ele>2264.3</ele>
        <time>2022-01-14T09:44:38Z</time>
      </trkpt>
      <trkpt lat="44.99497" lon="6.4548">
        <ele>2264.3</ele>
        <time>2022-01-14T09:44:39Z</time>
      </trkpt>
      <trkpt lat="44.99496" lon="6.45479">
        <ele>2264.3</ele>
        <time>2022-01-14T09:44:40Z</time>
      </trkpt>
      <trkpt lat="44.99496" lon="6.45479">
        <ele>2264.3</ele>
        <time>2022-01-14T09:44:41Z</time>
      </trkpt>
      <trkpt lat="44.99496" lon="6.45478">
        <ele>2264.3</ele>
        <time>2022-01-14T09:44:42Z</time>
      </trkpt>
      <trkpt lat="44.99496" lon="6.45478">
        <ele>2264.3</ele>
        <time>2022-01-14T09:44:43Z</time>
      </trkpt>
      <trkpt lat="44.99495" lon="6.45478">
        <ele>2264.3</ele>
        <time>2022-01-14T09:44:44Z</time>
      </trkpt>
      <trkpt lat="44.99495" lon="6.45479">
        <ele>2264.3</ele>
        <time>2022-01-14T09:44:45Z</time>
      </trkpt>
      <trkpt lat="44.99495" lon="6.45478">
        <ele>2264.3</ele>
        <time>2022-01-14T09:44:46Z</time>
      </trkpt>
      <trkpt lat="44.99494" lon="6.45477">
        <ele>2264.3</ele>
        <time>2022-01-14T09:44:47Z</time>
      </trkpt>
      <trkpt lat="44.99493" lon="6.45477">
        <ele>2264.3</ele>
        <time>2022-01-14T09:44:48Z</time>
      </trkpt>
      <trkpt lat="44.99493" lon="6.45476">
        <ele>2264.3</ele>
        <time>2022-01-14T09:44:49Z</time>
      </trkpt>
      <trkpt lat="44.99493" lon="6.45474">
        <ele>2264.3</ele>
        <time>2022-01-14T09:44:50Z</time>
      </trkpt>
      <trkpt lat="44.99492" lon="6.45472">
        <ele>2264.3</ele>
        <time>2022-01-14T09:44:51Z</time>
      </trkpt>
      <trkpt lat="44.99492" lon="6.45472">
        <ele>2264.3</ele>
        <time>2022-01-14T09:44:52Z</time>
      </trkpt>
      <trkpt lat="44.99492" lon="6.45471">
        <ele>2264.3</ele>
        <time>2022-01-14T09:44:53Z</time>
      </trkpt>
      <trkpt lat="44.99492" lon="6.45469">
        <ele>2264.3</ele>
        <time>2022-01-14T09:44:54Z</time>
      </trkpt>
      <trkpt lat="44.99494" lon="6.45468">
        <ele>2264.3</ele>
        <time>2022-01-14T09:44:55Z</time>
      </trkpt>
      <trkpt lat="44.99495" lon="6.45467">
        <ele>2264.3</ele>
        <time>2022-01-14T09:44:56Z</time>
      </trkpt>
      <trkpt lat="44.99496" lon="6.45466">
        <ele>2264.3</ele>
        <time>2022-01-14T09:44:57Z</time>
      </trkpt>
      <trkpt lat="44.99497" lon="6.45465">
        <ele>2264.3</ele>
        <time>2022-01-14T09:44:58Z</time>
      </trkpt>
      <trkpt lat="44.99497" lon="6.45463">
        <ele>2269.8</ele>
        <time>2022-01-14T09:44:59Z</time>
      </trkpt>
      <trkpt lat="44.99497" lon="6.45462">
        <ele>2269.8</ele>
        <time>2022-01-14T09:45:00Z</time>
      </trkpt>
      <trkpt lat="44.99497" lon="6.45462">
        <ele>2269.8</ele>
        <time>2022-01-14T09:45:01Z</time>
      </trkpt>
      <trkpt lat="44.99497" lon="6.45461">
        <ele>2269.8</ele>
        <time>2022-01-14T09:45:02Z</time>
      </trkpt>
      <trkpt lat="44.99498" lon="6.45461">
        <ele>2269.8</ele>
        <time>2022-01-14T09:45:03Z</time>
      </trkpt>
      <trkpt lat="44.99498" lon="6.4546">
        <ele>2269.8</ele>
        <time>2022-01-14T09:45:04Z</time>
      </trkpt>
      <trkpt lat="44.99498" lon="6.4546">
        <ele>2269.8</ele>
        <time>2022-01-14T09:45:05Z</time>
      </trkpt>
      <trkpt lat="44.99499" lon="6.4546">
        <ele>2269.8</ele>
        <time>2022-01-14T09:45:06Z</time>
      </trkpt>
      <trkpt lat="44.99499" lon="6.4546">
        <ele>2269.8</ele>
        <time>2022-01-14T09:45:07Z</time>
      </trkpt>
      <trkpt lat="44.995" lon="6.45459">
        <ele>2269.8</ele>
        <time>2022-01-14T09:45:08Z</time>
      </trkpt>
      <trkpt lat="44.99501" lon="6.45457">
        <ele>2269.8</ele>
        <time>2022-01-14T09:45:09Z</time>
      </trkpt>
      <trkpt lat="44.99502" lon="6.45456">
        <ele>2269.8</ele>
        <time>2022-01-14T09:45:10Z</time>
      </trkpt>
      <trkpt lat="44.99503" lon="6.45456">
        <ele>2269.8</ele>
        <time>2022-01-14T09:45:11Z</time>
      </trkpt>
      <trkpt lat="44.99504" lon="6.45455">
        <ele>2270.3</ele>
        <time>2022-01-14T09:45:12Z</time>
      </trkpt>
      <trkpt lat="44.99505" lon="6.45455">
        <ele>2270.3</ele>
        <time>2022-01-14T09:45:13Z</time>
      </trkpt>
      <trkpt lat="44.99505" lon="6.45455">
        <ele>2270.3</ele>
        <time>2022-01-14T09:45:14Z</time>
      </trkpt>
      <trkpt lat="44.99505" lon="6.45454">
        <ele>2270.3</ele>
        <time>2022-01-14T09:45:15Z</time>
      </trkpt>
      <trkpt lat="44.99506" lon="6.45454">
        <ele>2270.3</ele>
        <time>2022-01-14T09:45:16Z</time>
      </trkpt>
      <trkpt lat="44.99506" lon="6.45453">
        <ele>2270.3</ele>
        <time>2022-01-14T09:45:17Z</time>
      </trkpt>
      <trkpt lat="44.99507" lon="6.45453">
        <ele>2270.3</ele>
        <time>2022-01-14T09:45:18Z</time>
      </trkpt>
      <trkpt lat="44.99508" lon="6.45452">
        <ele>2270.3</ele>
        <time>2022-01-14T09:45:19Z</time>
      </trkpt>
      <trkpt lat="44.99508" lon="6.45452">
        <ele>2270.3</ele>
        <time>2022-01-14T09:45:20Z</time>
      </trkpt>
      <trkpt lat="44.99508" lon="6.45452">
        <ele>2270.3</ele>
        <time>2022-01-14T09:45:21Z</time>
      </trkpt>
      <trkpt lat="44.99509" lon="6.45452">
        <ele>2270.3</ele>
        <time>2022-01-14T09:45:22Z</time>
      </trkpt>
      <trkpt lat="44.99509" lon="6.45451">
        <ele>2270.3</ele>
        <time>2022-01-14T09:45:23Z</time>
      </trkpt>
      <trkpt lat="44.9951" lon="6.45451">
        <ele>2270.3</ele>
        <time>2022-01-14T09:45:24Z</time>
      </trkpt>
      <trkpt lat="44.9951" lon="6.45451">
        <ele>2270.3</ele>
        <time>2022-01-14T09:45:25Z</time>
      </trkpt>
      <trkpt lat="44.9951" lon="6.45451">
        <ele>2270.3</ele>
        <time>2022-01-14T09:45:26Z</time>
      </trkpt>
      <trkpt lat="44.99511" lon="6.45449">
        <ele>2270.3</ele>
        <time>2022-01-14T09:45:27Z</time>
      </trkpt>
      <trkpt lat="44.99512" lon="6.45449">
        <ele>2270.3</ele>
        <time>2022-01-14T09:45:28Z</time>
      </trkpt>
      <trkpt lat="44.99511" lon="6.45449">
        <ele>2270.3</ele>
        <time>2022-01-14T09:45:29Z</time>
      </trkpt>
      <trkpt lat="44.99511" lon="6.45449">
        <ele>2270.3</ele>
        <time>2022-01-14T09:45:30Z</time>
      </trkpt>
      <trkpt lat="44.99512" lon="6.4545">
        <ele>2270.3</ele>
        <time>2022-01-14T09:45:31Z</time>
      </trkpt>
      <trkpt lat="44.99512" lon="6.4545">
        <ele>2270.3</ele>
        <time>2022-01-14T09:45:32Z</time>
      </trkpt>
      <trkpt lat="44.99513" lon="6.4545">
        <ele>2270.3</ele>
        <time>2022-01-14T09:45:33Z</time>
      </trkpt>
      <trkpt lat="44.99513" lon="6.4545">
        <ele>2270.3</ele>
        <time>2022-01-14T09:45:34Z</time>
      </trkpt>
      <trkpt lat="44.99513" lon="6.4545">
        <ele>2270.3</ele>
        <time>2022-01-14T09:45:35Z</time>
      </trkpt>
      <trkpt lat="44.99514" lon="6.45449">
        <ele>2270.3</ele>
        <time>2022-01-14T09:45:36Z</time>
      </trkpt>
      <trkpt lat="44.99514" lon="6.45448">
        <ele>2270.3</ele>
        <time>2022-01-14T09:45:37Z</time>
      </trkpt>
      <trkpt lat="44.99514" lon="6.45447">
        <ele>2270.3</ele>
        <time>2022-01-14T09:45:38Z</time>
      </trkpt>
      <trkpt lat="44.99514" lon="6.45447">
        <ele>2276</ele>
        <time>2022-01-14T09:45:39Z</time>
      </trkpt>
      <trkpt lat="44.99514" lon="6.45447">
        <ele>2276</ele>
        <time>2022-01-14T09:45:40Z</time>
      </trkpt>
      <trkpt lat="44.99514" lon="6.45447">
        <ele>2276</ele>
        <time>2022-01-14T09:45:41Z</time>
      </trkpt>
      <trkpt lat="44.99514" lon="6.45447">
        <ele>2276</ele>
        <time>2022-01-14T09:45:42Z</time>
      </trkpt>
      <trkpt lat="44.99515" lon="6.45446">
        <ele>2276</ele>
        <time>2022-01-14T09:45:43Z</time>
      </trkpt>
      <trkpt lat="44.99515" lon="6.45446">
        <ele>2276</ele>
        <time>2022-01-14T09:45:44Z</time>
      </trkpt>
      <trkpt lat="44.99515" lon="6.45446">
        <ele>2276</ele>
        <time>2022-01-14T09:45:45Z</time>
      </trkpt>
      <trkpt lat="44.99516" lon="6.45446">
        <ele>2277.4</ele>
        <time>2022-01-14T09:45:46Z</time>
      </trkpt>
      <trkpt lat="44.99516" lon="6.45447">
        <ele>2277.4</ele>
        <time>2022-01-14T09:45:47Z</time>
      </trkpt>
      <trkpt lat="44.99516" lon="6.45448">
        <ele>2271.5</ele>
        <time>2022-01-14T09:45:48Z</time>
      </trkpt>
      <trkpt lat="44.99517" lon="6.45448">
        <ele>2271.5</ele>
        <time>2022-01-14T09:45:49Z</time>
      </trkpt>
      <trkpt lat="44.99517" lon="6.45448">
        <ele>2271.5</ele>
        <time>2022-01-14T09:45:50Z</time>
      </trkpt>
      <trkpt lat="44.99516" lon="6.45449">
        <ele>2271.5</ele>
        <time>2022-01-14T09:45:51Z</time>
      </trkpt>
      <trkpt lat="44.99516" lon="6.4545">
        <ele>2271.5</ele>
        <time>2022-01-14T09:45:52Z</time>
      </trkpt>
      <trkpt lat="44.99517" lon="6.4545">
        <ele>2271.5</ele>
        <time>2022-01-14T09:45:53Z</time>
      </trkpt>
      <trkpt lat="44.99517" lon="6.4545">
        <ele>2271.5</ele>
        <time>2022-01-14T09:45:54Z</time>
      </trkpt>
      <trkpt lat="44.99516" lon="6.4545">
        <ele>2271.5</ele>
        <time>2022-01-14T09:45:55Z</time>
      </trkpt>
      <trkpt lat="44.99516" lon="6.45449">
        <ele>2271.5</ele>
        <time>2022-01-14T09:45:56Z</time>
      </trkpt>
      <trkpt lat="44.99516" lon="6.45449">
        <ele>2271.5</ele>
        <time>2022-01-14T09:45:57Z</time>
      </trkpt>
      <trkpt lat="44.99516" lon="6.45448">
        <ele>2271.5</ele>
        <time>2022-01-14T09:45:58Z</time>
      </trkpt>
      <trkpt lat="44.99516" lon="6.45448">
        <ele>2271.5</ele>
        <time>2022-01-14T09:45:59Z</time>
      </trkpt>
      <trkpt lat="44.99516" lon="6.45447">
        <ele>2271.5</ele>
        <time>2022-01-14T09:46:00Z</time>
      </trkpt>
      <trkpt lat="44.99517" lon="6.45445">
        <ele>2277.4</ele>
        <time>2022-01-14T09:46:01Z</time>
      </trkpt>
      <trkpt lat="44.99517" lon="6.45444">
        <ele>2277.4</ele>
        <time>2022-01-14T09:46:02Z</time>
      </trkpt>
      <trkpt lat="44.99517" lon="6.45443">
        <ele>2277.4</ele>
        <time>2022-01-14T09:46:03Z</time>
      </trkpt>
      <trkpt lat="44.99518" lon="6.45443">
        <ele>2277.4</ele>
        <time>2022-01-14T09:46:04Z</time>
      </trkpt>
      <trkpt lat="44.99518" lon="6.45443">
        <ele>2277.4</ele>
        <time>2022-01-14T09:46:05Z</time>
      </trkpt>
      <trkpt lat="44.99518" lon="6.45442">
        <ele>2277.4</ele>
        <time>2022-01-14T09:46:06Z</time>
      </trkpt>
      <trkpt lat="44.99518" lon="6.45441">
        <ele>2277.4</ele>
        <time>2022-01-14T09:46:07Z</time>
      </trkpt>
      <trkpt lat="44.99518" lon="6.4544">
        <ele>2277.4</ele>
        <time>2022-01-14T09:46:08Z</time>
      </trkpt>
      <trkpt lat="44.99518" lon="6.45439">
        <ele>2277.4</ele>
        <time>2022-01-14T09:46:09Z</time>
      </trkpt>
      <trkpt lat="44.99518" lon="6.45439">
        <ele>2277.4</ele>
        <time>2022-01-14T09:46:10Z</time>
      </trkpt>
      <trkpt lat="44.99518" lon="6.45439">
        <ele>2277.4</ele>
        <time>2022-01-14T09:46:11Z</time>
      </trkpt>
      <trkpt lat="44.99518" lon="6.45439">
        <ele>2277.4</ele>
        <time>2022-01-14T09:46:12Z</time>
      </trkpt>
      <trkpt lat="44.99518" lon="6.45438">
        <ele>2277.4</ele>
        <time>2022-01-14T09:46:13Z</time>
      </trkpt>
      <trkpt lat="44.99518" lon="6.45437">
        <ele>2277.4</ele>
        <time>2022-01-14T09:46:14Z</time>
      </trkpt>
      <trkpt lat="44.99518" lon="6.45437">
        <ele>2277.4</ele>
        <time>2022-01-14T09:46:15Z</time>
      </trkpt>
      <trkpt lat="44.99518" lon="6.45436">
        <ele>2277.4</ele>
        <time>2022-01-14T09:46:16Z</time>
      </trkpt>
      <trkpt lat="44.99519" lon="6.45435">
        <ele>2277.4</ele>
        <time>2022-01-14T09:46:17Z</time>
      </trkpt>
      <trkpt lat="44.99518" lon="6.45435">
        <ele>2277.4</ele>
        <time>2022-01-14T09:46:18Z</time>
      </trkpt>
      <trkpt lat="44.99518" lon="6.45434">
        <ele>2277.4</ele>
        <time>2022-01-14T09:46:19Z</time>
      </trkpt>
      <trkpt lat="44.99518" lon="6.45434">
        <ele>2277.4</ele>
        <time>2022-01-14T09:46:20Z</time>
      </trkpt>
      <trkpt lat="44.99518" lon="6.45433">
        <ele>2277.4</ele>
        <time>2022-01-14T09:46:21Z</time>
      </trkpt>
      <trkpt lat="44.99518" lon="6.45434">
        <ele>2277.4</ele>
        <time>2022-01-14T09:46:22Z</time>
      </trkpt>
      <trkpt lat="44.99518" lon="6.45433">
        <ele>2277.4</ele>
        <time>2022-01-14T09:46:23Z</time>
      </trkpt>
      <trkpt lat="44.99518" lon="6.45433">
        <ele>2277.4</ele>
        <time>2022-01-14T09:46:24Z</time>
      </trkpt>
      <trkpt lat="44.99518" lon="6.45433">
        <ele>2277.4</ele>
        <time>2022-01-14T09:46:25Z</time>
      </trkpt>
      <trkpt lat="44.99518" lon="6.45433">
        <ele>2277.4</ele>
        <time>2022-01-14T09:46:26Z</time>
      </trkpt>
      <trkpt lat="44.99518" lon="6.45432">
        <ele>2277.4</ele>
        <time>2022-01-14T09:46:27Z</time>
      </trkpt>
      <trkpt lat="44.99518" lon="6.4543">
        <ele>2277.4</ele>
        <time>2022-01-14T09:46:28Z</time>
      </trkpt>
      <trkpt lat="44.99517" lon="6.45428">
        <ele>2282.2</ele>
        <time>2022-01-14T09:46:29Z</time>
      </trkpt>
      <trkpt lat="44.99517" lon="6.45428">
        <ele>2282.2</ele>
        <time>2022-01-14T09:46:30Z</time>
      </trkpt>
      <trkpt lat="44.99516" lon="6.45427">
        <ele>2282.2</ele>
        <time>2022-01-14T09:46:31Z</time>
      </trkpt>
      <trkpt lat="44.99516" lon="6.45426">
        <ele>2282.2</ele>
        <time>2022-01-14T09:46:32Z</time>
      </trkpt>
      <trkpt lat="44.99516" lon="6.45425">
        <ele>2282.2</ele>
        <time>2022-01-14T09:46:33Z</time>
      </trkpt>
      <trkpt lat="44.99516" lon="6.45424">
        <ele>2282.2</ele>
        <time>2022-01-14T09:46:34Z</time>
      </trkpt>
      <trkpt lat="44.99517" lon="6.45424">
        <ele>2282.2</ele>
        <time>2022-01-14T09:46:35Z</time>
      </trkpt>
      <trkpt lat="44.99517" lon="6.45424">
        <ele>2282.2</ele>
        <time>2022-01-14T09:46:36Z</time>
      </trkpt>
      <trkpt lat="44.99517" lon="6.45424">
        <ele>2282.2</ele>
        <time>2022-01-14T09:46:37Z</time>
      </trkpt>
      <trkpt lat="44.99517" lon="6.45423">
        <ele>2282.2</ele>
        <time>2022-01-14T09:46:38Z</time>
      </trkpt>
      <trkpt lat="44.99518" lon="6.45423">
        <ele>2282.2</ele>
        <time>2022-01-14T09:46:39Z</time>
      </trkpt>
      <trkpt lat="44.99519" lon="6.45423">
        <ele>2282.2</ele>
        <time>2022-01-14T09:46:40Z</time>
      </trkpt>
      <trkpt lat="44.99519" lon="6.45423">
        <ele>2282.2</ele>
        <time>2022-01-14T09:46:41Z</time>
      </trkpt>
      <trkpt lat="44.99521" lon="6.45423">
        <ele>2282.2</ele>
        <time>2022-01-14T09:46:42Z</time>
      </trkpt>
      <trkpt lat="44.99521" lon="6.45424">
        <ele>2282.2</ele>
        <time>2022-01-14T09:46:43Z</time>
      </trkpt>
      <trkpt lat="44.99522" lon="6.45425">
        <ele>2282.2</ele>
        <time>2022-01-14T09:46:44Z</time>
      </trkpt>
      <trkpt lat="44.99523" lon="6.45425">
        <ele>2282.2</ele>
        <time>2022-01-14T09:46:45Z</time>
      </trkpt>
      <trkpt lat="44.99523" lon="6.45426">
        <ele>2282.2</ele>
        <time>2022-01-14T09:46:46Z</time>
      </trkpt>
      <trkpt lat="44.99524" lon="6.45426">
        <ele>2282.2</ele>
        <time>2022-01-14T09:46:47Z</time>
      </trkpt>
      <trkpt lat="44.99524" lon="6.45426">
        <ele>2282.2</ele>
        <time>2022-01-14T09:46:48Z</time>
      </trkpt>
      <trkpt lat="44.99525" lon="6.45426">
        <ele>2282.2</ele>
        <time>2022-01-14T09:46:49Z</time>
      </trkpt>
      <trkpt lat="44.99525" lon="6.45426">
        <ele>2282.2</ele>
        <time>2022-01-14T09:46:50Z</time>
      </trkpt>
      <trkpt lat="44.99526" lon="6.45426">
        <ele>2282.2</ele>
        <time>2022-01-14T09:46:51Z</time>
      </trkpt>
      <trkpt lat="44.99525" lon="6.45426">
        <ele>2282.2</ele>
        <time>2022-01-14T09:46:52Z</time>
      </trkpt>
      <trkpt lat="44.99525" lon="6.45426">
        <ele>2282.2</ele>
        <time>2022-01-14T09:46:53Z</time>
      </trkpt>
      <trkpt lat="44.99525" lon="6.45426">
        <ele>2282.2</ele>
        <time>2022-01-14T09:46:54Z</time>
      </trkpt>
      <trkpt lat="44.99525" lon="6.45425">
        <ele>2282.2</ele>
        <time>2022-01-14T09:46:55Z</time>
      </trkpt>
      <trkpt lat="44.99526" lon="6.45425">
        <ele>2282.2</ele>
        <time>2022-01-14T09:46:56Z</time>
      </trkpt>
      <trkpt lat="44.99525" lon="6.45425">
        <ele>2282.2</ele>
        <time>2022-01-14T09:46:57Z</time>
      </trkpt>
      <trkpt lat="44.99525" lon="6.45426">
        <ele>2282.2</ele>
        <time>2022-01-14T09:46:58Z</time>
      </trkpt>
      <trkpt lat="44.99524" lon="6.45426">
        <ele>2282.2</ele>
        <time>2022-01-14T09:46:59Z</time>
      </trkpt>
      <trkpt lat="44.99524" lon="6.45427">
        <ele>2282.2</ele>
        <time>2022-01-14T09:47:00Z</time>
      </trkpt>
      <trkpt lat="44.99524" lon="6.45427">
        <ele>2282.2</ele>
        <time>2022-01-14T09:47:01Z</time>
      </trkpt>
      <trkpt lat="44.99525" lon="6.45426">
        <ele>2282.2</ele>
        <time>2022-01-14T09:47:02Z</time>
      </trkpt>
      <trkpt lat="44.99525" lon="6.45426">
        <ele>2282.2</ele>
        <time>2022-01-14T09:47:03Z</time>
      </trkpt>
      <trkpt lat="44.99525" lon="6.45426">
        <ele>2282.2</ele>
        <time>2022-01-14T09:47:04Z</time>
      </trkpt>
      <trkpt lat="44.99526" lon="6.45427">
        <ele>2282.2</ele>
        <time>2022-01-14T09:47:05Z</time>
      </trkpt>
      <trkpt lat="44.99527" lon="6.45428">
        <ele>2282.2</ele>
        <time>2022-01-14T09:47:06Z</time>
      </trkpt>
      <trkpt lat="44.99528" lon="6.45429">
        <ele>2282.2</ele>
        <time>2022-01-14T09:47:07Z</time>
      </trkpt>
      <trkpt lat="44.99528" lon="6.45431">
        <ele>2279.9</ele>
        <time>2022-01-14T09:47:08Z</time>
      </trkpt>
      <trkpt lat="44.99529" lon="6.45432">
        <ele>2279.9</ele>
        <time>2022-01-14T09:47:09Z</time>
      </trkpt>
      <trkpt lat="44.99529" lon="6.45432">
        <ele>2279.9</ele>
        <time>2022-01-14T09:47:10Z</time>
      </trkpt>
      <trkpt lat="44.9953" lon="6.45432">
        <ele>2279.9</ele>
        <time>2022-01-14T09:47:11Z</time>
      </trkpt>
      <trkpt lat="44.9953" lon="6.45432">
        <ele>2279.9</ele>
        <time>2022-01-14T09:47:12Z</time>
      </trkpt>
      <trkpt lat="44.9953" lon="6.45432">
        <ele>2279.9</ele>
        <time>2022-01-14T09:47:13Z</time>
      </trkpt>
      <trkpt lat="44.9953" lon="6.45432">
        <ele>2279.9</ele>
        <time>2022-01-14T09:47:14Z</time>
      </trkpt>
      <trkpt lat="44.99531" lon="6.45432">
        <ele>2279.9</ele>
        <time>2022-01-14T09:47:15Z</time>
      </trkpt>
      <trkpt lat="44.99532" lon="6.45432">
        <ele>2279.9</ele>
        <time>2022-01-14T09:47:16Z</time>
      </trkpt>
      <trkpt lat="44.99532" lon="6.45433">
        <ele>2279.9</ele>
        <time>2022-01-14T09:47:17Z</time>
      </trkpt>
      <trkpt lat="44.99532" lon="6.45433">
        <ele>2279.9</ele>
        <time>2022-01-14T09:47:18Z</time>
      </trkpt>
      <trkpt lat="44.99532" lon="6.45432">
        <ele>2279.9</ele>
        <time>2022-01-14T09:47:19Z</time>
      </trkpt>
      <trkpt lat="44.99531" lon="6.45431">
        <ele>2279.9</ele>
        <time>2022-01-14T09:47:20Z</time>
      </trkpt>
      <trkpt lat="44.99531" lon="6.4543">
        <ele>2279.9</ele>
        <time>2022-01-14T09:47:21Z</time>
      </trkpt>
      <trkpt lat="44.99531" lon="6.45429">
        <ele>2284.8</ele>
        <time>2022-01-14T09:47:22Z</time>
      </trkpt>
      <trkpt lat="44.99531" lon="6.45429">
        <ele>2284.8</ele>
        <time>2022-01-14T09:47:23Z</time>
      </trkpt>
      <trkpt lat="44.99531" lon="6.45429">
        <ele>2284.8</ele>
        <time>2022-01-14T09:47:24Z</time>
      </trkpt>
      <trkpt lat="44.99531" lon="6.45428">
        <ele>2284.8</ele>
        <time>2022-01-14T09:47:25Z</time>
      </trkpt>
      <trkpt lat="44.99531" lon="6.45427">
        <ele>2284.8</ele>
        <time>2022-01-14T09:47:26Z</time>
      </trkpt>
      <trkpt lat="44.99531" lon="6.45427">
        <ele>2284.8</ele>
        <time>2022-01-14T09:47:27Z</time>
      </trkpt>
      <trkpt lat="44.9953" lon="6.45426">
        <ele>2284.8</ele>
        <time>2022-01-14T09:47:28Z</time>
      </trkpt>
      <trkpt lat="44.9953" lon="6.45426">
        <ele>2284.8</ele>
        <time>2022-01-14T09:47:29Z</time>
      </trkpt>
      <trkpt lat="44.99529" lon="6.45425">
        <ele>2284.8</ele>
        <time>2022-01-14T09:47:30Z</time>
      </trkpt>
      <trkpt lat="44.99529" lon="6.45425">
        <ele>2284.8</ele>
        <time>2022-01-14T09:47:31Z</time>
      </trkpt>
      <trkpt lat="44.99529" lon="6.45425">
        <ele>2284.8</ele>
        <time>2022-01-14T09:47:32Z</time>
      </trkpt>
      <trkpt lat="44.99529" lon="6.45424">
        <ele>2284.8</ele>
        <time>2022-01-14T09:47:33Z</time>
      </trkpt>
      <trkpt lat="44.99529" lon="6.45424">
        <ele>2284.8</ele>
        <time>2022-01-14T09:47:34Z</time>
      </trkpt>
      <trkpt lat="44.99529" lon="6.45423">
        <ele>2284.8</ele>
        <time>2022-01-14T09:47:35Z</time>
      </trkpt>
      <trkpt lat="44.99529" lon="6.45421">
        <ele>2284.8</ele>
        <time>2022-01-14T09:47:36Z</time>
      </trkpt>
      <trkpt lat="44.99529" lon="6.4542">
        <ele>2284.8</ele>
        <time>2022-01-14T09:47:37Z</time>
      </trkpt>
      <trkpt lat="44.99528" lon="6.45419">
        <ele>2284.8</ele>
        <time>2022-01-14T09:47:38Z</time>
      </trkpt>
      <trkpt lat="44.99529" lon="6.45419">
        <ele>2284.8</ele>
        <time>2022-01-14T09:47:39Z</time>
      </trkpt>
      <trkpt lat="44.99529" lon="6.45418">
        <ele>2284.8</ele>
        <time>2022-01-14T09:47:40Z</time>
      </trkpt>
      <trkpt lat="44.99529" lon="6.45417">
        <ele>2284.8</ele>
        <time>2022-01-14T09:47:41Z</time>
      </trkpt>
      <trkpt lat="44.99529" lon="6.45417">
        <ele>2284.8</ele>
        <time>2022-01-14T09:47:42Z</time>
      </trkpt>
      <trkpt lat="44.99529" lon="6.45416">
        <ele>2284.8</ele>
        <time>2022-01-14T09:47:43Z</time>
      </trkpt>
      <trkpt lat="44.99529" lon="6.45416">
        <ele>2284.8</ele>
        <time>2022-01-14T09:47:44Z</time>
      </trkpt>
      <trkpt lat="44.99529" lon="6.45415">
        <ele>2284.8</ele>
        <time>2022-01-14T09:47:45Z</time>
      </trkpt>
      <trkpt lat="44.9953" lon="6.45415">
        <ele>2284.8</ele>
        <time>2022-01-14T09:47:46Z</time>
      </trkpt>
      <trkpt lat="44.9953" lon="6.45414">
        <ele>2284.8</ele>
        <time>2022-01-14T09:47:47Z</time>
      </trkpt>
      <trkpt lat="44.9953" lon="6.45413">
        <ele>2284.8</ele>
        <time>2022-01-14T09:47:48Z</time>
      </trkpt>
      <trkpt lat="44.9953" lon="6.45412">
        <ele>2289.4</ele>
        <time>2022-01-14T09:47:49Z</time>
      </trkpt>
      <trkpt lat="44.9953" lon="6.45411">
        <ele>2289.4</ele>
        <time>2022-01-14T09:47:50Z</time>
      </trkpt>
      <trkpt lat="44.9953" lon="6.45411">
        <ele>2289.4</ele>
        <time>2022-01-14T09:47:51Z</time>
      </trkpt>
      <trkpt lat="44.9953" lon="6.4541">
        <ele>2289.4</ele>
        <time>2022-01-14T09:47:52Z</time>
      </trkpt>
      <trkpt lat="44.9953" lon="6.4541">
        <ele>2289.4</ele>
        <time>2022-01-14T09:47:53Z</time>
      </trkpt>
      <trkpt lat="44.9953" lon="6.4541">
        <ele>2289.4</ele>
        <time>2022-01-14T09:47:54Z</time>
      </trkpt>
      <trkpt lat="44.9953" lon="6.45409">
        <ele>2289.4</ele>
        <time>2022-01-14T09:47:55Z</time>
      </trkpt>
      <trkpt lat="44.99529" lon="6.45408">
        <ele>2289.4</ele>
        <time>2022-01-14T09:47:56Z</time>
      </trkpt>
      <trkpt lat="44.99529" lon="6.45408">
        <ele>2289.4</ele>
        <time>2022-01-14T09:47:57Z</time>
      </trkpt>
      <trkpt lat="44.99529" lon="6.45407">
        <ele>2289.4</ele>
        <time>2022-01-14T09:47:58Z</time>
      </trkpt>
      <trkpt lat="44.99529" lon="6.45406">
        <ele>2289.4</ele>
        <time>2022-01-14T09:47:59Z</time>
      </trkpt>
      <trkpt lat="44.99529" lon="6.45405">
        <ele>2289.4</ele>
        <time>2022-01-14T09:48:00Z</time>
      </trkpt>
      <trkpt lat="44.99529" lon="6.45405">
        <ele>2289.4</ele>
        <time>2022-01-14T09:48:01Z</time>
      </trkpt>
      <trkpt lat="44.9953" lon="6.45404">
        <ele>2289.4</ele>
        <time>2022-01-14T09:48:02Z</time>
      </trkpt>
      <trkpt lat="44.9953" lon="6.45403">
        <ele>2289.4</ele>
        <time>2022-01-14T09:48:03Z</time>
      </trkpt>
      <trkpt lat="44.99529" lon="6.45403">
        <ele>2289.4</ele>
        <time>2022-01-14T09:48:04Z</time>
      </trkpt>
      <trkpt lat="44.99529" lon="6.45403">
        <ele>2289.4</ele>
        <time>2022-01-14T09:48:05Z</time>
      </trkpt>
      <trkpt lat="44.99529" lon="6.45402">
        <ele>2289.4</ele>
        <time>2022-01-14T09:48:06Z</time>
      </trkpt>
      <trkpt lat="44.99529" lon="6.45402">
        <ele>2289.4</ele>
        <time>2022-01-14T09:48:07Z</time>
      </trkpt>
      <trkpt lat="44.99529" lon="6.45402">
        <ele>2289.4</ele>
        <time>2022-01-14T09:48:08Z</time>
      </trkpt>
      <trkpt lat="44.99529" lon="6.45401">
        <ele>2289.4</ele>
        <time>2022-01-14T09:48:09Z</time>
      </trkpt>
      <trkpt lat="44.99529" lon="6.45401">
        <ele>2289.4</ele>
        <time>2022-01-14T09:48:10Z</time>
      </trkpt>
      <trkpt lat="44.99529" lon="6.454">
        <ele>2289.4</ele>
        <time>2022-01-14T09:48:11Z</time>
      </trkpt>
      <trkpt lat="44.99529" lon="6.454">
        <ele>2289.4</ele>
        <time>2022-01-14T09:48:12Z</time>
      </trkpt>
      <trkpt lat="44.99529" lon="6.454">
        <ele>2289.4</ele>
        <time>2022-01-14T09:48:13Z</time>
      </trkpt>
      <trkpt lat="44.99529" lon="6.45399">
        <ele>2289.4</ele>
        <time>2022-01-14T09:48:14Z</time>
      </trkpt>
      <trkpt lat="44.99529" lon="6.45399">
        <ele>2289.4</ele>
        <time>2022-01-14T09:48:15Z</time>
      </trkpt>
      <trkpt lat="44.99529" lon="6.45398">
        <ele>2289.4</ele>
        <time>2022-01-14T09:48:16Z</time>
      </trkpt>
      <trkpt lat="44.9953" lon="6.45398">
        <ele>2289.4</ele>
        <time>2022-01-14T09:48:17Z</time>
      </trkpt>
      <trkpt lat="44.9953" lon="6.45397">
        <ele>2289.4</ele>
        <time>2022-01-14T09:48:18Z</time>
      </trkpt>
      <trkpt lat="44.9953" lon="6.45397">
        <ele>2289.4</ele>
        <time>2022-01-14T09:48:19Z</time>
      </trkpt>
      <trkpt lat="44.9953" lon="6.45396">
        <ele>2289.4</ele>
        <time>2022-01-14T09:48:20Z</time>
      </trkpt>
      <trkpt lat="44.9953" lon="6.45396">
        <ele>2289.4</ele>
        <time>2022-01-14T09:48:21Z</time>
      </trkpt>
      <trkpt lat="44.9953" lon="6.45395">
        <ele>2289.4</ele>
        <time>2022-01-14T09:48:22Z</time>
      </trkpt>
      <trkpt lat="44.9953" lon="6.45395">
        <ele>2293.3</ele>
        <time>2022-01-14T09:48:23Z</time>
      </trkpt>
      <trkpt lat="44.99529" lon="6.45395">
        <ele>2293.3</ele>
        <time>2022-01-14T09:48:24Z</time>
      </trkpt>
      <trkpt lat="44.99529" lon="6.45395">
        <ele>2293.3</ele>
        <time>2022-01-14T09:48:25Z</time>
      </trkpt>
      <trkpt lat="44.99529" lon="6.45395">
        <ele>2293.3</ele>
        <time>2022-01-14T09:48:26Z</time>
      </trkpt>
      <trkpt lat="44.99529" lon="6.45395">
        <ele>2293.3</ele>
        <time>2022-01-14T09:48:27Z</time>
      </trkpt>
      <trkpt lat="44.99529" lon="6.45395">
        <ele>2293.3</ele>
        <time>2022-01-14T09:48:28Z</time>
      </trkpt>
      <trkpt lat="44.99529" lon="6.45395">
        <ele>2293.3</ele>
        <time>2022-01-14T09:48:29Z</time>
      </trkpt>
      <trkpt lat="44.99529" lon="6.45395">
        <ele>2293.3</ele>
        <time>2022-01-14T09:48:30Z</time>
      </trkpt>
      <trkpt lat="44.9953" lon="6.45395">
        <ele>2293.3</ele>
        <time>2022-01-14T09:48:31Z</time>
      </trkpt>
      <trkpt lat="44.9953" lon="6.45393">
        <ele>2293.3</ele>
        <time>2022-01-14T09:48:32Z</time>
      </trkpt>
      <trkpt lat="44.9953" lon="6.45392">
        <ele>2293.3</ele>
        <time>2022-01-14T09:48:33Z</time>
      </trkpt>
      <trkpt lat="44.99531" lon="6.45391">
        <ele>2293.3</ele>
        <time>2022-01-14T09:48:34Z</time>
      </trkpt>
      <trkpt lat="44.99531" lon="6.45391">
        <ele>2293.3</ele>
        <time>2022-01-14T09:48:35Z</time>
      </trkpt>
      <trkpt lat="44.9953" lon="6.4539">
        <ele>2293.3</ele>
        <time>2022-01-14T09:48:36Z</time>
      </trkpt>
      <trkpt lat="44.9953" lon="6.45388">
        <ele>2293.3</ele>
        <time>2022-01-14T09:48:37Z</time>
      </trkpt>
      <trkpt lat="44.9953" lon="6.45387">
        <ele>2293.3</ele>
        <time>2022-01-14T09:48:38Z</time>
      </trkpt>
      <trkpt lat="44.9953" lon="6.45387">
        <ele>2293.3</ele>
        <time>2022-01-14T09:48:39Z</time>
      </trkpt>
      <trkpt lat="44.9953" lon="6.45387">
        <ele>2293.3</ele>
        <time>2022-01-14T09:48:40Z</time>
      </trkpt>
      <trkpt lat="44.9953" lon="6.45387">
        <ele>2293.3</ele>
        <time>2022-01-14T09:48:41Z</time>
      </trkpt>
      <trkpt lat="44.9953" lon="6.45387">
        <ele>2293.3</ele>
        <time>2022-01-14T09:48:42Z</time>
      </trkpt>
      <trkpt lat="44.9953" lon="6.45387">
        <ele>2293.3</ele>
        <time>2022-01-14T09:48:43Z</time>
      </trkpt>
      <trkpt lat="44.9953" lon="6.45386">
        <ele>2293.3</ele>
        <time>2022-01-14T09:48:44Z</time>
      </trkpt>
      <trkpt lat="44.9953" lon="6.45386">
        <ele>2293.3</ele>
        <time>2022-01-14T09:48:45Z</time>
      </trkpt>
      <trkpt lat="44.9953" lon="6.45386">
        <ele>2293.3</ele>
        <time>2022-01-14T09:48:46Z</time>
      </trkpt>
      <trkpt lat="44.9953" lon="6.45386">
        <ele>2293.3</ele>
        <time>2022-01-14T09:48:47Z</time>
      </trkpt>
      <trkpt lat="44.99529" lon="6.45385">
        <ele>2293.4</ele>
        <time>2022-01-14T09:48:48Z</time>
      </trkpt>
      <trkpt lat="44.99529" lon="6.45385">
        <ele>2293.4</ele>
        <time>2022-01-14T09:48:49Z</time>
      </trkpt>
      <trkpt lat="44.99529" lon="6.45385">
        <ele>2293.4</ele>
        <time>2022-01-14T09:48:50Z</time>
      </trkpt>
      <trkpt lat="44.99529" lon="6.45385">
        <ele>2293.4</ele>
        <time>2022-01-14T09:48:51Z</time>
      </trkpt>
      <trkpt lat="44.99529" lon="6.45384">
        <ele>2293.5</ele>
        <time>2022-01-14T09:48:52Z</time>
      </trkpt>
      <trkpt lat="44.99529" lon="6.45384">
        <ele>2293.5</ele>
        <time>2022-01-14T09:48:53Z</time>
      </trkpt>
      <trkpt lat="44.99529" lon="6.45384">
        <ele>2293.5</ele>
        <time>2022-01-14T09:48:54Z</time>
      </trkpt>
      <trkpt lat="44.99529" lon="6.45384">
        <ele>2293.6</ele>
        <time>2022-01-14T09:48:55Z</time>
      </trkpt>
      <trkpt lat="44.9953" lon="6.45383">
        <ele>2293.6</ele>
        <time>2022-01-14T09:48:56Z</time>
      </trkpt>
      <trkpt lat="44.9953" lon="6.45383">
        <ele>2293.7</ele>
        <time>2022-01-14T09:48:57Z</time>
      </trkpt>
      <trkpt lat="44.9953" lon="6.45382">
        <ele>2293.7</ele>
        <time>2022-01-14T09:48:58Z</time>
      </trkpt>
      <trkpt lat="44.9953" lon="6.45382">
        <ele>2293.8</ele>
        <time>2022-01-14T09:48:59Z</time>
      </trkpt>
      <trkpt lat="44.9953" lon="6.45382">
        <ele>2293.8</ele>
        <time>2022-01-14T09:49:00Z</time>
      </trkpt>
      <trkpt lat="44.9953" lon="6.45382">
        <ele>2293.9</ele>
        <time>2022-01-14T09:49:01Z</time>
      </trkpt>
      <trkpt lat="44.99531" lon="6.45382">
        <ele>2294</ele>
        <time>2022-01-14T09:49:02Z</time>
      </trkpt>
      <trkpt lat="44.99531" lon="6.45382">
        <ele>2294</ele>
        <time>2022-01-14T09:49:03Z</time>
      </trkpt>
      <trkpt lat="44.99531" lon="6.45382">
        <ele>2294.1</ele>
        <time>2022-01-14T09:49:04Z</time>
      </trkpt>
      <trkpt lat="44.99531" lon="6.45382">
        <ele>2294.1</ele>
        <time>2022-01-14T09:49:05Z</time>
      </trkpt>
      <trkpt lat="44.99531" lon="6.45382">
        <ele>2294.1</ele>
        <time>2022-01-14T09:49:06Z</time>
      </trkpt>
      <trkpt lat="44.99531" lon="6.45382">
        <ele>2294.2</ele>
        <time>2022-01-14T09:49:07Z</time>
      </trkpt>
      <trkpt lat="44.99532" lon="6.45382">
        <ele>2294.2</ele>
        <time>2022-01-14T09:49:08Z</time>
      </trkpt>
      <trkpt lat="44.99533" lon="6.45383">
        <ele>2294.3</ele>
        <time>2022-01-14T09:49:09Z</time>
      </trkpt>
      <trkpt lat="44.99533" lon="6.45383">
        <ele>2294.4</ele>
        <time>2022-01-14T09:49:10Z</time>
      </trkpt>
      <trkpt lat="44.99534" lon="6.45384">
        <ele>2294.5</ele>
        <time>2022-01-14T09:49:11Z</time>
      </trkpt>
      <trkpt lat="44.99535" lon="6.45385">
        <ele>2294.5</ele>
        <time>2022-01-14T09:49:12Z</time>
      </trkpt>
      <trkpt lat="44.99535" lon="6.45385">
        <ele>2294.5</ele>
        <time>2022-01-14T09:49:13Z</time>
      </trkpt>
      <trkpt lat="44.99536" lon="6.45385">
        <ele>2294.6</ele>
        <time>2022-01-14T09:49:14Z</time>
      </trkpt>
      <trkpt lat="44.99537" lon="6.45385">
        <ele>2294.7</ele>
        <time>2022-01-14T09:49:15Z</time>
      </trkpt>
      <trkpt lat="44.99537" lon="6.45385">
        <ele>2294.8</ele>
        <time>2022-01-14T09:49:16Z</time>
      </trkpt>
      <trkpt lat="44.99538" lon="6.45386">
        <ele>2295</ele>
        <time>2022-01-14T09:49:17Z</time>
      </trkpt>
      <trkpt lat="44.99538" lon="6.45385">
        <ele>2295</ele>
        <time>2022-01-14T09:49:18Z</time>
      </trkpt>
      <trkpt lat="44.99539" lon="6.45386">
        <ele>2295.1</ele>
        <time>2022-01-14T09:49:19Z</time>
      </trkpt>
      <trkpt lat="44.99539" lon="6.45387">
        <ele>2295.2</ele>
        <time>2022-01-14T09:49:20Z</time>
      </trkpt>
      <trkpt lat="44.99539" lon="6.45387">
        <ele>2295.2</ele>
        <time>2022-01-14T09:49:21Z</time>
      </trkpt>
      <trkpt lat="44.9954" lon="6.45386">
        <ele>2295.3</ele>
        <time>2022-01-14T09:49:22Z</time>
      </trkpt>
      <trkpt lat="44.9954" lon="6.45387">
        <ele>2297.5</ele>
        <time>2022-01-14T09:49:23Z</time>
      </trkpt>
      <trkpt lat="44.99541" lon="6.45387">
        <ele>2297.5</ele>
        <time>2022-01-14T09:49:24Z</time>
      </trkpt>
      <trkpt lat="44.99541" lon="6.45388">
        <ele>2297.5</ele>
        <time>2022-01-14T09:49:25Z</time>
      </trkpt>
      <trkpt lat="44.99542" lon="6.4539">
        <ele>2297.6</ele>
        <time>2022-01-14T09:49:26Z</time>
      </trkpt>
      <trkpt lat="44.99542" lon="6.4539">
        <ele>2297.5</ele>
        <time>2022-01-14T09:49:27Z</time>
      </trkpt>
      <trkpt lat="44.99543" lon="6.4539">
        <ele>2297.5</ele>
        <time>2022-01-14T09:49:28Z</time>
      </trkpt>
      <trkpt lat="44.99543" lon="6.4539">
        <ele>2297.6</ele>
        <time>2022-01-14T09:49:29Z</time>
      </trkpt>
      <trkpt lat="44.99543" lon="6.4539">
        <ele>2297.7</ele>
        <time>2022-01-14T09:49:30Z</time>
      </trkpt>
      <trkpt lat="44.99544" lon="6.4539">
        <ele>2297.8</ele>
        <time>2022-01-14T09:49:31Z</time>
      </trkpt>
      <trkpt lat="44.99544" lon="6.45391">
        <ele>2297.9</ele>
        <time>2022-01-14T09:49:32Z</time>
      </trkpt>
      <trkpt lat="44.99544" lon="6.45391">
        <ele>2297.9</ele>
        <time>2022-01-14T09:49:33Z</time>
      </trkpt>
      <trkpt lat="44.99544" lon="6.45391">
        <ele>2297.9</ele>
        <time>2022-01-14T09:49:34Z</time>
      </trkpt>
      <trkpt lat="44.99545" lon="6.45391">
        <ele>2298</ele>
        <time>2022-01-14T09:49:35Z</time>
      </trkpt>
      <trkpt lat="44.99545" lon="6.45391">
        <ele>2298.2</ele>
        <time>2022-01-14T09:49:36Z</time>
      </trkpt>
      <trkpt lat="44.99545" lon="6.45391">
        <ele>2298.1</ele>
        <time>2022-01-14T09:49:37Z</time>
      </trkpt>
      <trkpt lat="44.99545" lon="6.45392">
        <ele>2298.3</ele>
        <time>2022-01-14T09:49:38Z</time>
      </trkpt>
      <trkpt lat="44.99546" lon="6.45393">
        <ele>2298.3</ele>
        <time>2022-01-14T09:49:39Z</time>
      </trkpt>
      <trkpt lat="44.99547" lon="6.45393">
        <ele>2298.4</ele>
        <time>2022-01-14T09:49:40Z</time>
      </trkpt>
      <trkpt lat="44.99548" lon="6.45393">
        <ele>2298.7</ele>
        <time>2022-01-14T09:49:41Z</time>
      </trkpt>
      <trkpt lat="44.99548" lon="6.45393">
        <ele>2298.7</ele>
        <time>2022-01-14T09:49:42Z</time>
      </trkpt>
      <trkpt lat="44.99549" lon="6.45393">
        <ele>2298.9</ele>
        <time>2022-01-14T09:49:43Z</time>
      </trkpt>
      <trkpt lat="44.99549" lon="6.45392">
        <ele>2299.2</ele>
        <time>2022-01-14T09:49:44Z</time>
      </trkpt>
      <trkpt lat="44.99549" lon="6.45392">
        <ele>2299.2</ele>
        <time>2022-01-14T09:49:45Z</time>
      </trkpt>
      <trkpt lat="44.9955" lon="6.45392">
        <ele>2299.4</ele>
        <time>2022-01-14T09:49:46Z</time>
      </trkpt>
      <trkpt lat="44.99551" lon="6.45392">
        <ele>2299.6</ele>
        <time>2022-01-14T09:49:47Z</time>
      </trkpt>
      <trkpt lat="44.99551" lon="6.45393">
        <ele>2299.8</ele>
        <time>2022-01-14T09:49:48Z</time>
      </trkpt>
      <trkpt lat="44.99552" lon="6.45392">
        <ele>2300</ele>
        <time>2022-01-14T09:49:49Z</time>
      </trkpt>
      <trkpt lat="44.99552" lon="6.45392">
        <ele>2301.8</ele>
        <time>2022-01-14T09:49:50Z</time>
      </trkpt>
      <trkpt lat="44.99552" lon="6.45391">
        <ele>2302</ele>
        <time>2022-01-14T09:49:51Z</time>
      </trkpt>
      <trkpt lat="44.99552" lon="6.45391">
        <ele>2302.1</ele>
        <time>2022-01-14T09:49:52Z</time>
      </trkpt>
      <trkpt lat="44.99553" lon="6.4539">
        <ele>2302.1</ele>
        <time>2022-01-14T09:49:53Z</time>
      </trkpt>
      <trkpt lat="44.99553" lon="6.45389">
        <ele>2302.2</ele>
        <time>2022-01-14T09:49:54Z</time>
      </trkpt>
      <trkpt lat="44.99553" lon="6.4539">
        <ele>2302.4</ele>
        <time>2022-01-14T09:49:55Z</time>
      </trkpt>
      <trkpt lat="44.99553" lon="6.4539">
        <ele>2302.3</ele>
        <time>2022-01-14T09:49:56Z</time>
      </trkpt>
      <trkpt lat="44.99553" lon="6.4539">
        <ele>2302.4</ele>
        <time>2022-01-14T09:49:57Z</time>
      </trkpt>
      <trkpt lat="44.99553" lon="6.4539">
        <ele>2303.6</ele>
        <time>2022-01-14T09:49:58Z</time>
      </trkpt>
      <trkpt lat="44.99553" lon="6.4539">
        <ele>2304.6</ele>
        <time>2022-01-14T09:49:59Z</time>
      </trkpt>
      <trkpt lat="44.99554" lon="6.4539">
        <ele>2305.4</ele>
        <time>2022-01-14T09:50:00Z</time>
      </trkpt>
      <trkpt lat="44.99554" lon="6.45389">
        <ele>2306.2</ele>
        <time>2022-01-14T09:50:01Z</time>
      </trkpt>
      <trkpt lat="44.99554" lon="6.45389">
        <ele>2306.7</ele>
        <time>2022-01-14T09:50:02Z</time>
      </trkpt>
      <trkpt lat="44.99554" lon="6.45391">
        <ele>2307.1</ele>
        <time>2022-01-14T09:50:03Z</time>
      </trkpt>
      <trkpt lat="44.99554" lon="6.45391">
        <ele>2303.3</ele>
        <time>2022-01-14T09:50:04Z</time>
      </trkpt>
      <trkpt lat="44.99554" lon="6.45392">
        <ele>2302.8</ele>
        <time>2022-01-14T09:50:05Z</time>
      </trkpt>
      <trkpt lat="44.99554" lon="6.45391">
        <ele>2302.9</ele>
        <time>2022-01-14T09:50:06Z</time>
      </trkpt>
      <trkpt lat="44.99554" lon="6.4539">
        <ele>2302.9</ele>
        <time>2022-01-14T09:50:07Z</time>
      </trkpt>
      <trkpt lat="44.99554" lon="6.45389">
        <ele>2302.9</ele>
        <time>2022-01-14T09:50:08Z</time>
      </trkpt>
      <trkpt lat="44.99553" lon="6.45389">
        <ele>2302.7</ele>
        <time>2022-01-14T09:50:09Z</time>
      </trkpt>
      <trkpt lat="44.99553" lon="6.45389">
        <ele>2302.8</ele>
        <time>2022-01-14T09:50:10Z</time>
      </trkpt>
      <trkpt lat="44.99553" lon="6.45389">
        <ele>2302.6</ele>
        <time>2022-01-14T09:50:11Z</time>
      </trkpt>
      <trkpt lat="44.99553" lon="6.45389">
        <ele>2302.6</ele>
        <time>2022-01-14T09:50:12Z</time>
      </trkpt>
      <trkpt lat="44.99553" lon="6.45389">
        <ele>2302.6</ele>
        <time>2022-01-14T09:50:13Z</time>
      </trkpt>
      <trkpt lat="44.99553" lon="6.45389">
        <ele>2302.6</ele>
        <time>2022-01-14T09:50:14Z</time>
      </trkpt>
      <trkpt lat="44.99553" lon="6.45389">
        <ele>2302.7</ele>
        <time>2022-01-14T09:50:15Z</time>
      </trkpt>
      <trkpt lat="44.99553" lon="6.45389">
        <ele>2302.7</ele>
        <time>2022-01-14T09:50:16Z</time>
      </trkpt>
      <trkpt lat="44.99553" lon="6.45388">
        <ele>2302.7</ele>
        <time>2022-01-14T09:50:17Z</time>
      </trkpt>
      <trkpt lat="44.99553" lon="6.45388">
        <ele>2302.9</ele>
        <time>2022-01-14T09:50:18Z</time>
      </trkpt>
      <trkpt lat="44.99553" lon="6.45387">
        <ele>2302.9</ele>
        <time>2022-01-14T09:50:19Z</time>
      </trkpt>
      <trkpt lat="44.99553" lon="6.45386">
        <ele>2303.3</ele>
        <time>2022-01-14T09:50:20Z</time>
      </trkpt>
      <trkpt lat="44.99554" lon="6.45385">
        <ele>2303.9</ele>
        <time>2022-01-14T09:50:21Z</time>
      </trkpt>
      <trkpt lat="44.99553" lon="6.45385">
        <ele>2304.1</ele>
        <time>2022-01-14T09:50:22Z</time>
      </trkpt>
      <trkpt lat="44.99553" lon="6.45385">
        <ele>2304.3</ele>
        <time>2022-01-14T09:50:23Z</time>
      </trkpt>
      <trkpt lat="44.99554" lon="6.45384">
        <ele>2305.7</ele>
        <time>2022-01-14T09:50:24Z</time>
      </trkpt>
      <trkpt lat="44.99554" lon="6.45383">
        <ele>2306.9</ele>
        <time>2022-01-14T09:50:25Z</time>
      </trkpt>
      <trkpt lat="44.99554" lon="6.45383">
        <ele>2305.2</ele>
        <time>2022-01-14T09:50:26Z</time>
      </trkpt>
      <trkpt lat="44.99554" lon="6.45382">
        <ele>2306.6</ele>
        <time>2022-01-14T09:50:27Z</time>
      </trkpt>
      <trkpt lat="44.99554" lon="6.45381">
        <ele>2305.6</ele>
        <time>2022-01-14T09:50:28Z</time>
      </trkpt>
      <trkpt lat="44.99554" lon="6.45381">
        <ele>2305.8</ele>
        <time>2022-01-14T09:50:29Z</time>
      </trkpt>
      <trkpt lat="44.99554" lon="6.45381">
        <ele>2306</ele>
        <time>2022-01-14T09:50:30Z</time>
      </trkpt>
      <trkpt lat="44.99555" lon="6.4538">
        <ele>2306.2</ele>
        <time>2022-01-14T09:50:31Z</time>
      </trkpt>
      <trkpt lat="44.99555" lon="6.45379">
        <ele>2306.4</ele>
        <time>2022-01-14T09:50:32Z</time>
      </trkpt>
      <trkpt lat="44.99555" lon="6.45379">
        <ele>2306.8</ele>
        <time>2022-01-14T09:50:33Z</time>
      </trkpt>
      <trkpt lat="44.99555" lon="6.45378">
        <ele>2306.8</ele>
        <time>2022-01-14T09:50:34Z</time>
      </trkpt>
      <trkpt lat="44.99555" lon="6.45378">
        <ele>2307</ele>
        <time>2022-01-14T09:50:35Z</time>
      </trkpt>
      <trkpt lat="44.99554" lon="6.45377">
        <ele>2307</ele>
        <time>2022-01-14T09:50:36Z</time>
      </trkpt>
      <trkpt lat="44.99553" lon="6.45376">
        <ele>2307.2</ele>
        <time>2022-01-14T09:50:37Z</time>
      </trkpt>
      <trkpt lat="44.99553" lon="6.45376">
        <ele>2307.2</ele>
        <time>2022-01-14T09:50:38Z</time>
      </trkpt>
      <trkpt lat="44.99553" lon="6.45375">
        <ele>2307.4</ele>
        <time>2022-01-14T09:50:39Z</time>
      </trkpt>
      <trkpt lat="44.99553" lon="6.45375">
        <ele>2307.6</ele>
        <time>2022-01-14T09:50:40Z</time>
      </trkpt>
      <trkpt lat="44.99552" lon="6.45374">
        <ele>2307.6</ele>
        <time>2022-01-14T09:50:41Z</time>
      </trkpt>
      <trkpt lat="44.99552" lon="6.45374">
        <ele>2307.8</ele>
        <time>2022-01-14T09:50:42Z</time>
      </trkpt>
      <trkpt lat="44.99552" lon="6.45373">
        <ele>2307.8</ele>
        <time>2022-01-14T09:50:43Z</time>
      </trkpt>
      <trkpt lat="44.99553" lon="6.45374">
        <ele>2307.8</ele>
        <time>2022-01-14T09:50:44Z</time>
      </trkpt>
      <trkpt lat="44.99553" lon="6.45373">
        <ele>2308</ele>
        <time>2022-01-14T09:50:45Z</time>
      </trkpt>
      <trkpt lat="44.99552" lon="6.45373">
        <ele>2308</ele>
        <time>2022-01-14T09:50:46Z</time>
      </trkpt>
      <trkpt lat="44.99552" lon="6.45373">
        <ele>2308</ele>
        <time>2022-01-14T09:50:47Z</time>
      </trkpt>
      <trkpt lat="44.99552" lon="6.45373">
        <ele>2308</ele>
        <time>2022-01-14T09:50:48Z</time>
      </trkpt>
      <trkpt lat="44.99553" lon="6.45373">
        <ele>2308</ele>
        <time>2022-01-14T09:50:49Z</time>
      </trkpt>
      <trkpt lat="44.99553" lon="6.45373">
        <ele>2308</ele>
        <time>2022-01-14T09:50:50Z</time>
      </trkpt>
      <trkpt lat="44.99552" lon="6.45372">
        <ele>2308.2</ele>
        <time>2022-01-14T09:50:51Z</time>
      </trkpt>
      <trkpt lat="44.99553" lon="6.45372">
        <ele>2308.4</ele>
        <time>2022-01-14T09:50:52Z</time>
      </trkpt>
      <trkpt lat="44.99552" lon="6.45372">
        <ele>2308.4</ele>
        <time>2022-01-14T09:50:53Z</time>
      </trkpt>
      <trkpt lat="44.99552" lon="6.45371">
        <ele>2308.6</ele>
        <time>2022-01-14T09:50:54Z</time>
      </trkpt>
      <trkpt lat="44.99552" lon="6.4537">
        <ele>2308.8</ele>
        <time>2022-01-14T09:50:55Z</time>
      </trkpt>
      <trkpt lat="44.99553" lon="6.4537">
        <ele>2309.2</ele>
        <time>2022-01-14T09:50:56Z</time>
      </trkpt>
      <trkpt lat="44.99553" lon="6.4537">
        <ele>2309.4</ele>
        <time>2022-01-14T09:50:57Z</time>
      </trkpt>
      <trkpt lat="44.99554" lon="6.45369">
        <ele>2309.6</ele>
        <time>2022-01-14T09:50:58Z</time>
      </trkpt>
      <trkpt lat="44.99555" lon="6.4537">
        <ele>2310.8</ele>
        <time>2022-01-14T09:50:59Z</time>
      </trkpt>
      <trkpt lat="44.99555" lon="6.45371">
        <ele>2311.8</ele>
        <time>2022-01-14T09:51:00Z</time>
      </trkpt>
      <trkpt lat="44.99556" lon="6.45371">
        <ele>2312.4</ele>
        <time>2022-01-14T09:51:01Z</time>
      </trkpt>
      <trkpt lat="44.99556" lon="6.45372">
        <ele>2310.2</ele>
        <time>2022-01-14T09:51:02Z</time>
      </trkpt>
      <trkpt lat="44.99556" lon="6.45372">
        <ele>2310</ele>
        <time>2022-01-14T09:51:03Z</time>
      </trkpt>
      <trkpt lat="44.99556" lon="6.45372">
        <ele>2310</ele>
        <time>2022-01-14T09:51:04Z</time>
      </trkpt>
      <trkpt lat="44.99557" lon="6.45372">
        <ele>2310</ele>
        <time>2022-01-14T09:51:05Z</time>
      </trkpt>
      <trkpt lat="44.99557" lon="6.45372">
        <ele>2310</ele>
        <time>2022-01-14T09:51:06Z</time>
      </trkpt>
      <trkpt lat="44.99557" lon="6.45372">
        <ele>2310.2</ele>
        <time>2022-01-14T09:51:07Z</time>
      </trkpt>
      <trkpt lat="44.99558" lon="6.45372">
        <ele>2310.4</ele>
        <time>2022-01-14T09:51:08Z</time>
      </trkpt>
      <trkpt lat="44.99558" lon="6.45372">
        <ele>2310.6</ele>
        <time>2022-01-14T09:51:09Z</time>
      </trkpt>
      <trkpt lat="44.99558" lon="6.45372">
        <ele>2310.8</ele>
        <time>2022-01-14T09:51:10Z</time>
      </trkpt>
      <trkpt lat="44.99558" lon="6.45373">
        <ele>2310.4</ele>
        <time>2022-01-14T09:51:11Z</time>
      </trkpt>
      <trkpt lat="44.99558" lon="6.45374">
        <ele>2310.2</ele>
        <time>2022-01-14T09:51:12Z</time>
      </trkpt>
      <trkpt lat="44.99558" lon="6.45374">
        <ele>2310</ele>
        <time>2022-01-14T09:51:13Z</time>
      </trkpt>
      <trkpt lat="44.99558" lon="6.45374">
        <ele>2310</ele>
        <time>2022-01-14T09:51:14Z</time>
      </trkpt>
      <trkpt lat="44.99558" lon="6.45375">
        <ele>2310</ele>
        <time>2022-01-14T09:51:15Z</time>
      </trkpt>
      <trkpt lat="44.99558" lon="6.45376">
        <ele>2309.8</ele>
        <time>2022-01-14T09:51:16Z</time>
      </trkpt>
      <trkpt lat="44.99559" lon="6.45377">
        <ele>2309.8</ele>
        <time>2022-01-14T09:51:17Z</time>
      </trkpt>
      <trkpt lat="44.99561" lon="6.45377">
        <ele>2310</ele>
        <time>2022-01-14T09:51:18Z</time>
      </trkpt>
      <trkpt lat="44.99561" lon="6.45378">
        <ele>2310.4</ele>
        <time>2022-01-14T09:51:19Z</time>
      </trkpt>
      <trkpt lat="44.99561" lon="6.45378">
        <ele>2310.2</ele>
        <time>2022-01-14T09:51:20Z</time>
      </trkpt>
      <trkpt lat="44.99562" lon="6.45379">
        <ele>2310.4</ele>
        <time>2022-01-14T09:51:21Z</time>
      </trkpt>
      <trkpt lat="44.99562" lon="6.4538">
        <ele>2310.4</ele>
        <time>2022-01-14T09:51:22Z</time>
      </trkpt>
      <trkpt lat="44.99562" lon="6.45381">
        <ele>2310.6</ele>
        <time>2022-01-14T09:51:23Z</time>
      </trkpt>
      <trkpt lat="44.99563" lon="6.45381">
        <ele>2310.6</ele>
        <time>2022-01-14T09:51:24Z</time>
      </trkpt>
      <trkpt lat="44.99562" lon="6.45382">
        <ele>2310.6</ele>
        <time>2022-01-14T09:51:25Z</time>
      </trkpt>
      <trkpt lat="44.99562" lon="6.45382">
        <ele>2310</ele>
        <time>2022-01-14T09:51:26Z</time>
      </trkpt>
      <trkpt lat="44.99562" lon="6.45383">
        <ele>2309.8</ele>
        <time>2022-01-14T09:51:27Z</time>
      </trkpt>
      <trkpt lat="44.99561" lon="6.45383">
        <ele>2309.4</ele>
        <time>2022-01-14T09:51:28Z</time>
      </trkpt>
      <trkpt lat="44.99562" lon="6.45384">
        <ele>2309.2</ele>
        <time>2022-01-14T09:51:29Z</time>
      </trkpt>
      <trkpt lat="44.99562" lon="6.45384">
        <ele>2309.4</ele>
        <time>2022-01-14T09:51:30Z</time>
      </trkpt>
      <trkpt lat="44.99562" lon="6.45384">
        <ele>2309.6</ele>
        <time>2022-01-14T09:51:31Z</time>
      </trkpt>
      <trkpt lat="44.99562" lon="6.45384">
        <ele>2309.6</ele>
        <time>2022-01-14T09:51:32Z</time>
      </trkpt>
      <trkpt lat="44.99562" lon="6.45384">
        <ele>2309.4</ele>
        <time>2022-01-14T09:51:33Z</time>
      </trkpt>
      <trkpt lat="44.99561" lon="6.45385">
        <ele>2309.4</ele>
        <time>2022-01-14T09:51:34Z</time>
      </trkpt>
      <trkpt lat="44.99561" lon="6.45385">
        <ele>2308.8</ele>
        <time>2022-01-14T09:51:35Z</time>
      </trkpt>
      <trkpt lat="44.99561" lon="6.45385">
        <ele>2308.4</ele>
        <time>2022-01-14T09:51:36Z</time>
      </trkpt>
      <trkpt lat="44.9956" lon="6.45386">
        <ele>2308.2</ele>
        <time>2022-01-14T09:51:37Z</time>
      </trkpt>
      <trkpt lat="44.9956" lon="6.45386">
        <ele>2307.8</ele>
        <time>2022-01-14T09:51:38Z</time>
      </trkpt>
      <trkpt lat="44.99561" lon="6.45386">
        <ele>2308</ele>
        <time>2022-01-14T09:51:39Z</time>
      </trkpt>
      <trkpt lat="44.99561" lon="6.45386">
        <ele>2308</ele>
        <time>2022-01-14T09:51:40Z</time>
      </trkpt>
      <trkpt lat="44.99561" lon="6.45386">
        <ele>2308.2</ele>
        <time>2022-01-14T09:51:41Z</time>
      </trkpt>
      <trkpt lat="44.99562" lon="6.45387">
        <ele>2308.2</ele>
        <time>2022-01-14T09:51:42Z</time>
      </trkpt>
      <trkpt lat="44.99562" lon="6.45387">
        <ele>2308.4</ele>
        <time>2022-01-14T09:51:43Z</time>
      </trkpt>
      <trkpt lat="44.99562" lon="6.45387">
        <ele>2308.6</ele>
        <time>2022-01-14T09:51:44Z</time>
      </trkpt>
      <trkpt lat="44.99562" lon="6.45387">
        <ele>2308.8</ele>
        <time>2022-01-14T09:51:45Z</time>
      </trkpt>
      <trkpt lat="44.99562" lon="6.45387">
        <ele>2308.8</ele>
        <time>2022-01-14T09:51:46Z</time>
      </trkpt>
      <trkpt lat="44.99563" lon="6.45387">
        <ele>2308.8</ele>
        <time>2022-01-14T09:51:47Z</time>
      </trkpt>
      <trkpt lat="44.99563" lon="6.45387">
        <ele>2309.4</ele>
        <time>2022-01-14T09:51:48Z</time>
      </trkpt>
      <trkpt lat="44.99563" lon="6.45387">
        <ele>2309.4</ele>
        <time>2022-01-14T09:51:49Z</time>
      </trkpt>
      <trkpt lat="44.99564" lon="6.45387">
        <ele>2309.6</ele>
        <time>2022-01-14T09:51:50Z</time>
      </trkpt>
      <trkpt lat="44.99564" lon="6.45387">
        <ele>2309.8</ele>
        <time>2022-01-14T09:51:51Z</time>
      </trkpt>
      <trkpt lat="44.99564" lon="6.45387">
        <ele>2310</ele>
        <time>2022-01-14T09:51:52Z</time>
      </trkpt>
      <trkpt lat="44.99565" lon="6.45386">
        <ele>2310.4</ele>
        <time>2022-01-14T09:51:53Z</time>
      </trkpt>
      <trkpt lat="44.99566" lon="6.45386">
        <ele>2310.6</ele>
        <time>2022-01-14T09:51:54Z</time>
      </trkpt>
      <trkpt lat="44.99566" lon="6.45386">
        <ele>2311.2</ele>
        <time>2022-01-14T09:51:55Z</time>
      </trkpt>
      <trkpt lat="44.99568" lon="6.45386">
        <ele>2311.8</ele>
        <time>2022-01-14T09:51:56Z</time>
      </trkpt>
      <trkpt lat="44.99569" lon="6.45385">
        <ele>2312</ele>
        <time>2022-01-14T09:51:57Z</time>
      </trkpt>
      <trkpt lat="44.9957" lon="6.45385">
        <ele>2313.2</ele>
        <time>2022-01-14T09:51:58Z</time>
      </trkpt>
      <trkpt lat="44.99571" lon="6.45384">
        <ele>2314.2</ele>
        <time>2022-01-14T09:51:59Z</time>
      </trkpt>
      <trkpt lat="44.99571" lon="6.45384">
        <ele>2315.4</ele>
        <time>2022-01-14T09:52:00Z</time>
      </trkpt>
      <trkpt lat="44.99572" lon="6.45384">
        <ele>2315.2</ele>
        <time>2022-01-14T09:52:01Z</time>
      </trkpt>
      <trkpt lat="44.99572" lon="6.45384">
        <ele>2315.4</ele>
        <time>2022-01-14T09:52:02Z</time>
      </trkpt>
      <trkpt lat="44.99572" lon="6.45385">
        <ele>2316.2</ele>
        <time>2022-01-14T09:52:03Z</time>
      </trkpt>
      <trkpt lat="44.99572" lon="6.45385">
        <ele>2317</ele>
        <time>2022-01-14T09:52:04Z</time>
      </trkpt>
      <trkpt lat="44.99572" lon="6.45385">
        <ele>2317.4</ele>
        <time>2022-01-14T09:52:05Z</time>
      </trkpt>
      <trkpt lat="44.99572" lon="6.45385">
        <ele>2317.8</ele>
        <time>2022-01-14T09:52:06Z</time>
      </trkpt>
      <trkpt lat="44.99573" lon="6.45384">
        <ele>2318</ele>
        <time>2022-01-14T09:52:07Z</time>
      </trkpt>
      <trkpt lat="44.99573" lon="6.45385">
        <ele>2318.4</ele>
        <time>2022-01-14T09:52:08Z</time>
      </trkpt>
      <trkpt lat="44.99573" lon="6.45385">
        <ele>2318.6</ele>
        <time>2022-01-14T09:52:09Z</time>
      </trkpt>
      <trkpt lat="44.99573" lon="6.45384">
        <ele>2319</ele>
        <time>2022-01-14T09:52:10Z</time>
      </trkpt>
      <trkpt lat="44.99574" lon="6.45383">
        <ele>2319.2</ele>
        <time>2022-01-14T09:52:11Z</time>
      </trkpt>
      <trkpt lat="44.99574" lon="6.45383">
        <ele>2317.2</ele>
        <time>2022-01-14T09:52:12Z</time>
      </trkpt>
      <trkpt lat="44.99574" lon="6.45383">
        <ele>2317</ele>
        <time>2022-01-14T09:52:13Z</time>
      </trkpt>
      <trkpt lat="44.99574" lon="6.45382">
        <ele>2317</ele>
        <time>2022-01-14T09:52:14Z</time>
      </trkpt>
      <trkpt lat="44.99574" lon="6.45382">
        <ele>2317.2</ele>
        <time>2022-01-14T09:52:15Z</time>
      </trkpt>
      <trkpt lat="44.99574" lon="6.45382">
        <ele>2317.2</ele>
        <time>2022-01-14T09:52:16Z</time>
      </trkpt>
      <trkpt lat="44.99574" lon="6.45382">
        <ele>2317.2</ele>
        <time>2022-01-14T09:52:17Z</time>
      </trkpt>
      <trkpt lat="44.99574" lon="6.45382">
        <ele>2317.2</ele>
        <time>2022-01-14T09:52:18Z</time>
      </trkpt>
      <trkpt lat="44.99574" lon="6.45382">
        <ele>2317.2</ele>
        <time>2022-01-14T09:52:19Z</time>
      </trkpt>
      <trkpt lat="44.99574" lon="6.45381">
        <ele>2317.2</ele>
        <time>2022-01-14T09:52:20Z</time>
      </trkpt>
      <trkpt lat="44.99574" lon="6.45379">
        <ele>2317.6</ele>
        <time>2022-01-14T09:52:21Z</time>
      </trkpt>
      <trkpt lat="44.99575" lon="6.45377">
        <ele>2317.8</ele>
        <time>2022-01-14T09:52:22Z</time>
      </trkpt>
      <trkpt lat="44.99575" lon="6.45376">
        <ele>2318.2</ele>
        <time>2022-01-14T09:52:23Z</time>
      </trkpt>
      <trkpt lat="44.99575" lon="6.45376">
        <ele>2318.6</ele>
        <time>2022-01-14T09:52:24Z</time>
      </trkpt>
      <trkpt lat="44.99575" lon="6.45374">
        <ele>2318.6</ele>
        <time>2022-01-14T09:52:25Z</time>
      </trkpt>
      <trkpt lat="44.99575" lon="6.45373">
        <ele>2318.8</ele>
        <time>2022-01-14T09:52:26Z</time>
      </trkpt>
      <trkpt lat="44.99575" lon="6.45372">
        <ele>2318.8</ele>
        <time>2022-01-14T09:52:27Z</time>
      </trkpt>
      <trkpt lat="44.99575" lon="6.45372">
        <ele>2318.6</ele>
        <time>2022-01-14T09:52:28Z</time>
      </trkpt>
      <trkpt lat="44.99575" lon="6.45371">
        <ele>2318.8</ele>
        <time>2022-01-14T09:52:29Z</time>
      </trkpt>
      <trkpt lat="44.99575" lon="6.45371">
        <ele>2319</ele>
        <time>2022-01-14T09:52:30Z</time>
      </trkpt>
      <trkpt lat="44.99575" lon="6.4537">
        <ele>2319.2</ele>
        <time>2022-01-14T09:52:31Z</time>
      </trkpt>
      <trkpt lat="44.99575" lon="6.4537">
        <ele>2319.2</ele>
        <time>2022-01-14T09:52:32Z</time>
      </trkpt>
      <trkpt lat="44.99575" lon="6.4537">
        <ele>2319.2</ele>
        <time>2022-01-14T09:52:33Z</time>
      </trkpt>
      <trkpt lat="44.99575" lon="6.4537">
        <ele>2319.2</ele>
        <time>2022-01-14T09:52:34Z</time>
      </trkpt>
      <trkpt lat="44.99575" lon="6.4537">
        <ele>2319.2</ele>
        <time>2022-01-14T09:52:35Z</time>
      </trkpt>
      <trkpt lat="44.99575" lon="6.45369">
        <ele>2319.2</ele>
        <time>2022-01-14T09:52:36Z</time>
      </trkpt>
      <trkpt lat="44.99574" lon="6.45369">
        <ele>2319</ele>
        <time>2022-01-14T09:52:37Z</time>
      </trkpt>
      <trkpt lat="44.99574" lon="6.45368">
        <ele>2318.8</ele>
        <time>2022-01-14T09:52:38Z</time>
      </trkpt>
      <trkpt lat="44.99574" lon="6.45367">
        <ele>2318.8</ele>
        <time>2022-01-14T09:52:39Z</time>
      </trkpt>
      <trkpt lat="44.99574" lon="6.45366">
        <ele>2318.8</ele>
        <time>2022-01-14T09:52:40Z</time>
      </trkpt>
      <trkpt lat="44.99574" lon="6.45365">
        <ele>2318.8</ele>
        <time>2022-01-14T09:52:41Z</time>
      </trkpt>
      <trkpt lat="44.99573" lon="6.45364">
        <ele>2319</ele>
        <time>2022-01-14T09:52:42Z</time>
      </trkpt>
      <trkpt lat="44.99573" lon="6.45364">
        <ele>2319</ele>
        <time>2022-01-14T09:52:43Z</time>
      </trkpt>
      <trkpt lat="44.99572" lon="6.45363">
        <ele>2319</ele>
        <time>2022-01-14T09:52:44Z</time>
      </trkpt>
      <trkpt lat="44.99572" lon="6.45362">
        <ele>2318.8</ele>
        <time>2022-01-14T09:52:45Z</time>
      </trkpt>
      <trkpt lat="44.99572" lon="6.45362">
        <ele>2318.8</ele>
        <time>2022-01-14T09:52:46Z</time>
      </trkpt>
      <trkpt lat="44.99572" lon="6.45361">
        <ele>2319</ele>
        <time>2022-01-14T09:52:47Z</time>
      </trkpt>
      <trkpt lat="44.99572" lon="6.4536">
        <ele>2319</ele>
        <time>2022-01-14T09:52:48Z</time>
      </trkpt>
      <trkpt lat="44.99572" lon="6.45358">
        <ele>2319.4</ele>
        <time>2022-01-14T09:52:49Z</time>
      </trkpt>
      <trkpt lat="44.99572" lon="6.45358">
        <ele>2320</ele>
        <time>2022-01-14T09:52:50Z</time>
      </trkpt>
      <trkpt lat="44.99572" lon="6.45357">
        <ele>2320</ele>
        <time>2022-01-14T09:52:51Z</time>
      </trkpt>
      <trkpt lat="44.99571" lon="6.45357">
        <ele>2320</ele>
        <time>2022-01-14T09:52:52Z</time>
      </trkpt>
      <trkpt lat="44.99572" lon="6.45357">
        <ele>2320.2</ele>
        <time>2022-01-14T09:52:53Z</time>
      </trkpt>
      <trkpt lat="44.99571" lon="6.45357">
        <ele>2320.2</ele>
        <time>2022-01-14T09:52:54Z</time>
      </trkpt>
      <trkpt lat="44.99571" lon="6.45357">
        <ele>2320.4</ele>
        <time>2022-01-14T09:52:55Z</time>
      </trkpt>
      <trkpt lat="44.99571" lon="6.45357">
        <ele>2321.6</ele>
        <time>2022-01-14T09:52:56Z</time>
      </trkpt>
      <trkpt lat="44.99571" lon="6.45355">
        <ele>2322.4</ele>
        <time>2022-01-14T09:52:57Z</time>
      </trkpt>
      <trkpt lat="44.99571" lon="6.45354">
        <ele>2323.2</ele>
        <time>2022-01-14T09:52:58Z</time>
      </trkpt>
      <trkpt lat="44.99571" lon="6.45353">
        <ele>2323.8</ele>
        <time>2022-01-14T09:52:59Z</time>
      </trkpt>
      <trkpt lat="44.99571" lon="6.45352">
        <ele>2324</ele>
        <time>2022-01-14T09:53:00Z</time>
      </trkpt>
      <trkpt lat="44.99571" lon="6.45351">
        <ele>2324.2</ele>
        <time>2022-01-14T09:53:01Z</time>
      </trkpt>
      <trkpt lat="44.99571" lon="6.4535">
        <ele>2324.2</ele>
        <time>2022-01-14T09:53:02Z</time>
      </trkpt>
      <trkpt lat="44.99572" lon="6.45349">
        <ele>2324.4</ele>
        <time>2022-01-14T09:53:03Z</time>
      </trkpt>
      <trkpt lat="44.99571" lon="6.45349">
        <ele>2324.6</ele>
        <time>2022-01-14T09:53:04Z</time>
      </trkpt>
      <trkpt lat="44.99572" lon="6.45349">
        <ele>2324.8</ele>
        <time>2022-01-14T09:53:05Z</time>
      </trkpt>
      <trkpt lat="44.99572" lon="6.4535">
        <ele>2324.8</ele>
        <time>2022-01-14T09:53:06Z</time>
      </trkpt>
      <trkpt lat="44.99572" lon="6.4535">
        <ele>2324.8</ele>
        <time>2022-01-14T09:53:07Z</time>
      </trkpt>
      <trkpt lat="44.99572" lon="6.4535">
        <ele>2324.8</ele>
        <time>2022-01-14T09:53:08Z</time>
      </trkpt>
      <trkpt lat="44.99573" lon="6.4535">
        <ele>2322.8</ele>
        <time>2022-01-14T09:53:09Z</time>
      </trkpt>
      <trkpt lat="44.99573" lon="6.45351">
        <ele>2323.2</ele>
        <time>2022-01-14T09:53:10Z</time>
      </trkpt>
      <trkpt lat="44.99573" lon="6.45351">
        <ele>2323.2</ele>
        <time>2022-01-14T09:53:11Z</time>
      </trkpt>
      <trkpt lat="44.99574" lon="6.45351">
        <ele>2323</ele>
        <time>2022-01-14T09:53:12Z</time>
      </trkpt>
      <trkpt lat="44.99574" lon="6.45351">
        <ele>2323.2</ele>
        <time>2022-01-14T09:53:13Z</time>
      </trkpt>
      <trkpt lat="44.99574" lon="6.45352">
        <ele>2323.2</ele>
        <time>2022-01-14T09:53:14Z</time>
      </trkpt>
      <trkpt lat="44.99574" lon="6.45352">
        <ele>2323</ele>
        <time>2022-01-14T09:53:15Z</time>
      </trkpt>
      <trkpt lat="44.99575" lon="6.45353">
        <ele>2323</ele>
        <time>2022-01-14T09:53:16Z</time>
      </trkpt>
      <trkpt lat="44.99576" lon="6.45353">
        <ele>2323</ele>
        <time>2022-01-14T09:53:17Z</time>
      </trkpt>
      <trkpt lat="44.99577" lon="6.45353">
        <ele>2323.2</ele>
        <time>2022-01-14T09:53:18Z</time>
      </trkpt>
      <trkpt lat="44.99577" lon="6.45353">
        <ele>2323.8</ele>
        <time>2022-01-14T09:53:19Z</time>
      </trkpt>
      <trkpt lat="44.99578" lon="6.45355">
        <ele>2323.6</ele>
        <time>2022-01-14T09:53:20Z</time>
      </trkpt>
      <trkpt lat="44.99578" lon="6.45356">
        <ele>2323.6</ele>
        <time>2022-01-14T09:53:21Z</time>
      </trkpt>
      <trkpt lat="44.99577" lon="6.45357">
        <ele>2323.2</ele>
        <time>2022-01-14T09:53:22Z</time>
      </trkpt>
      <trkpt lat="44.99577" lon="6.45358">
        <ele>2322.6</ele>
        <time>2022-01-14T09:53:23Z</time>
      </trkpt>
      <trkpt lat="44.99577" lon="6.45359">
        <ele>2322</ele>
        <time>2022-01-14T09:53:24Z</time>
      </trkpt>
      <trkpt lat="44.99578" lon="6.4536">
        <ele>2321.6</ele>
        <time>2022-01-14T09:53:25Z</time>
      </trkpt>
      <trkpt lat="44.99578" lon="6.4536">
        <ele>2321.4</ele>
        <time>2022-01-14T09:53:26Z</time>
      </trkpt>
      <trkpt lat="44.99579" lon="6.45361">
        <ele>2321.4</ele>
        <time>2022-01-14T09:53:27Z</time>
      </trkpt>
      <trkpt lat="44.99579" lon="6.45361">
        <ele>2321.4</ele>
        <time>2022-01-14T09:53:28Z</time>
      </trkpt>
      <trkpt lat="44.99579" lon="6.45361">
        <ele>2321.6</ele>
        <time>2022-01-14T09:53:29Z</time>
      </trkpt>
      <trkpt lat="44.9958" lon="6.45362">
        <ele>2321.4</ele>
        <time>2022-01-14T09:53:30Z</time>
      </trkpt>
      <trkpt lat="44.9958" lon="6.45362">
        <ele>2321.6</ele>
        <time>2022-01-14T09:53:31Z</time>
      </trkpt>
      <trkpt lat="44.9958" lon="6.45362">
        <ele>2321.8</ele>
        <time>2022-01-14T09:53:32Z</time>
      </trkpt>
      <trkpt lat="44.9958" lon="6.45363">
        <ele>2321.8</ele>
        <time>2022-01-14T09:53:33Z</time>
      </trkpt>
      <trkpt lat="44.99581" lon="6.45364">
        <ele>2321.8</ele>
        <time>2022-01-14T09:53:34Z</time>
      </trkpt>
      <trkpt lat="44.99581" lon="6.45365">
        <ele>2321.8</ele>
        <time>2022-01-14T09:53:35Z</time>
      </trkpt>
      <trkpt lat="44.99581" lon="6.45365">
        <ele>2322</ele>
        <time>2022-01-14T09:53:36Z</time>
      </trkpt>
      <trkpt lat="44.99582" lon="6.45365">
        <ele>2322</ele>
        <time>2022-01-14T09:53:37Z</time>
      </trkpt>
      <trkpt lat="44.99583" lon="6.45366">
        <ele>2322.4</ele>
        <time>2022-01-14T09:53:38Z</time>
      </trkpt>
      <trkpt lat="44.99584" lon="6.45366">
        <ele>2322.8</ele>
        <time>2022-01-14T09:53:39Z</time>
      </trkpt>
      <trkpt lat="44.99584" lon="6.45367">
        <ele>2323</ele>
        <time>2022-01-14T09:53:40Z</time>
      </trkpt>
      <trkpt lat="44.99584" lon="6.45367">
        <ele>2323.2</ele>
        <time>2022-01-14T09:53:41Z</time>
      </trkpt>
      <trkpt lat="44.99585" lon="6.45367">
        <ele>2323.2</ele>
        <time>2022-01-14T09:53:42Z</time>
      </trkpt>
      <trkpt lat="44.99585" lon="6.45367">
        <ele>2323.4</ele>
        <time>2022-01-14T09:53:43Z</time>
      </trkpt>
      <trkpt lat="44.99585" lon="6.45367">
        <ele>2323.6</ele>
        <time>2022-01-14T09:53:44Z</time>
      </trkpt>
      <trkpt lat="44.99585" lon="6.45367">
        <ele>2323.4</ele>
        <time>2022-01-14T09:53:45Z</time>
      </trkpt>
      <trkpt lat="44.99586" lon="6.45366">
        <ele>2323.6</ele>
        <time>2022-01-14T09:53:46Z</time>
      </trkpt>
      <trkpt lat="44.99586" lon="6.45366">
        <ele>2323.6</ele>
        <time>2022-01-14T09:53:47Z</time>
      </trkpt>
      <trkpt lat="44.99587" lon="6.45366">
        <ele>2323.8</ele>
        <time>2022-01-14T09:53:48Z</time>
      </trkpt>
      <trkpt lat="44.99586" lon="6.45366">
        <ele>2324</ele>
        <time>2022-01-14T09:53:49Z</time>
      </trkpt>
      <trkpt lat="44.99587" lon="6.45367">
        <ele>2324</ele>
        <time>2022-01-14T09:53:50Z</time>
      </trkpt>
      <trkpt lat="44.99587" lon="6.45367">
        <ele>2324</ele>
        <time>2022-01-14T09:53:51Z</time>
      </trkpt>
      <trkpt lat="44.99588" lon="6.45366">
        <ele>2324.2</ele>
        <time>2022-01-14T09:53:52Z</time>
      </trkpt>
      <trkpt lat="44.99588" lon="6.45365">
        <ele>2324.4</ele>
        <time>2022-01-14T09:53:53Z</time>
      </trkpt>
      <trkpt lat="44.99589" lon="6.45365">
        <ele>2324.6</ele>
        <time>2022-01-14T09:53:54Z</time>
      </trkpt>
      <trkpt lat="44.99589" lon="6.45365">
        <ele>2324.6</ele>
        <time>2022-01-14T09:53:55Z</time>
      </trkpt>
      <trkpt lat="44.99589" lon="6.45365">
        <ele>2324.6</ele>
        <time>2022-01-14T09:53:56Z</time>
      </trkpt>
      <trkpt lat="44.99589" lon="6.45365">
        <ele>2324.6</ele>
        <time>2022-01-14T09:53:57Z</time>
      </trkpt>
      <trkpt lat="44.99589" lon="6.45365">
        <ele>2324.6</ele>
        <time>2022-01-14T09:53:58Z</time>
      </trkpt>
      <trkpt lat="44.99589" lon="6.45366">
        <ele>2323.8</ele>
        <time>2022-01-14T09:53:59Z</time>
      </trkpt>
      <trkpt lat="44.99589" lon="6.45366">
        <ele>2323.8</ele>
        <time>2022-01-14T09:54:00Z</time>
      </trkpt>
      <trkpt lat="44.99589" lon="6.45365">
        <ele>2324.6</ele>
        <time>2022-01-14T09:54:01Z</time>
      </trkpt>
      <trkpt lat="44.99589" lon="6.45363">
        <ele>2324.6</ele>
        <time>2022-01-14T09:54:02Z</time>
      </trkpt>
      <trkpt lat="44.9959" lon="6.45363">
        <ele>2324.6</ele>
        <time>2022-01-14T09:54:03Z</time>
      </trkpt>
      <trkpt lat="44.9959" lon="6.45362">
        <ele>2324.6</ele>
        <time>2022-01-14T09:54:04Z</time>
      </trkpt>
      <trkpt lat="44.99591" lon="6.4536">
        <ele>2325.3</ele>
        <time>2022-01-14T09:54:05Z</time>
      </trkpt>
      <trkpt lat="44.99591" lon="6.45361">
        <ele>2325.3</ele>
        <time>2022-01-14T09:54:06Z</time>
      </trkpt>
      <trkpt lat="44.99591" lon="6.45361">
        <ele>2324.6</ele>
        <time>2022-01-14T09:54:07Z</time>
      </trkpt>
      <trkpt lat="44.99591" lon="6.45361">
        <ele>2324.6</ele>
        <time>2022-01-14T09:54:08Z</time>
      </trkpt>
      <trkpt lat="44.99591" lon="6.45361">
        <ele>2326.6</ele>
        <time>2022-01-14T09:54:09Z</time>
      </trkpt>
      <trkpt lat="44.99591" lon="6.45361">
        <ele>2325.8</ele>
        <time>2022-01-14T09:54:10Z</time>
      </trkpt>
      <trkpt lat="44.99591" lon="6.45361">
        <ele>2326.6</ele>
        <time>2022-01-14T09:54:11Z</time>
      </trkpt>
      <trkpt lat="44.99592" lon="6.4536">
        <ele>2326.6</ele>
        <time>2022-01-14T09:54:12Z</time>
      </trkpt>
      <trkpt lat="44.99592" lon="6.4536">
        <ele>2326.6</ele>
        <time>2022-01-14T09:54:13Z</time>
      </trkpt>
      <trkpt lat="44.99592" lon="6.45359">
        <ele>2326.6</ele>
        <time>2022-01-14T09:54:14Z</time>
      </trkpt>
      <trkpt lat="44.99592" lon="6.45358">
        <ele>2326.6</ele>
        <time>2022-01-14T09:54:15Z</time>
      </trkpt>
      <trkpt lat="44.99592" lon="6.45358">
        <ele>2326.6</ele>
        <time>2022-01-14T09:54:16Z</time>
      </trkpt>
      <trkpt lat="44.99592" lon="6.45357">
        <ele>2326.6</ele>
        <time>2022-01-14T09:54:17Z</time>
      </trkpt>
      <trkpt lat="44.99592" lon="6.45357">
        <ele>2327.3</ele>
        <time>2022-01-14T09:54:18Z</time>
      </trkpt>
      <trkpt lat="44.99592" lon="6.45356">
        <ele>2327.3</ele>
        <time>2022-01-14T09:54:19Z</time>
      </trkpt>
      <trkpt lat="44.99592" lon="6.45355">
        <ele>2327.3</ele>
        <time>2022-01-14T09:54:20Z</time>
      </trkpt>
      <trkpt lat="44.99593" lon="6.45351">
        <ele>2328.1</ele>
        <time>2022-01-14T09:54:21Z</time>
      </trkpt>
      <trkpt lat="44.99593" lon="6.4535">
        <ele>2328.1</ele>
        <time>2022-01-14T09:54:22Z</time>
      </trkpt>
      <trkpt lat="44.99593" lon="6.4535">
        <ele>2328.1</ele>
        <time>2022-01-14T09:54:23Z</time>
      </trkpt>
      <trkpt lat="44.99593" lon="6.45349">
        <ele>2328.1</ele>
        <time>2022-01-14T09:54:24Z</time>
      </trkpt>
      <trkpt lat="44.99593" lon="6.45348">
        <ele>2328.1</ele>
        <time>2022-01-14T09:54:25Z</time>
      </trkpt>
      <trkpt lat="44.99594" lon="6.45346">
        <ele>2328.8</ele>
        <time>2022-01-14T09:54:26Z</time>
      </trkpt>
      <trkpt lat="44.99593" lon="6.45345">
        <ele>2328.8</ele>
        <time>2022-01-14T09:54:27Z</time>
      </trkpt>
      <trkpt lat="44.99593" lon="6.45343">
        <ele>2329.6</ele>
        <time>2022-01-14T09:54:28Z</time>
      </trkpt>
      <trkpt lat="44.99594" lon="6.45343">
        <ele>2329.6</ele>
        <time>2022-01-14T09:54:29Z</time>
      </trkpt>
      <trkpt lat="44.99593" lon="6.45343">
        <ele>2329.6</ele>
        <time>2022-01-14T09:54:30Z</time>
      </trkpt>
      <trkpt lat="44.99593" lon="6.45342">
        <ele>2329.6</ele>
        <time>2022-01-14T09:54:31Z</time>
      </trkpt>
      <trkpt lat="44.99593" lon="6.45342">
        <ele>2329.6</ele>
        <time>2022-01-14T09:54:32Z</time>
      </trkpt>
      <trkpt lat="44.99594" lon="6.45341">
        <ele>2329.6</ele>
        <time>2022-01-14T09:54:33Z</time>
      </trkpt>
      <trkpt lat="44.99594" lon="6.45341">
        <ele>2329.6</ele>
        <time>2022-01-14T09:54:34Z</time>
      </trkpt>
      <trkpt lat="44.99595" lon="6.4534">
        <ele>2331</ele>
        <time>2022-01-14T09:54:35Z</time>
      </trkpt>
      <trkpt lat="44.99595" lon="6.45339">
        <ele>2331.8</ele>
        <time>2022-01-14T09:54:36Z</time>
      </trkpt>
      <trkpt lat="44.99596" lon="6.45338">
        <ele>2331.8</ele>
        <time>2022-01-14T09:54:37Z</time>
      </trkpt>
      <trkpt lat="44.99596" lon="6.45338">
        <ele>2331.8</ele>
        <time>2022-01-14T09:54:38Z</time>
      </trkpt>
      <trkpt lat="44.99596" lon="6.45338">
        <ele>2331.8</ele>
        <time>2022-01-14T09:54:39Z</time>
      </trkpt>
      <trkpt lat="44.99597" lon="6.45338">
        <ele>2331.8</ele>
        <time>2022-01-14T09:54:40Z</time>
      </trkpt>
      <trkpt lat="44.99597" lon="6.45338">
        <ele>2331.8</ele>
        <time>2022-01-14T09:54:41Z</time>
      </trkpt>
      <trkpt lat="44.99597" lon="6.45338">
        <ele>2331.8</ele>
        <time>2022-01-14T09:54:42Z</time>
      </trkpt>
      <trkpt lat="44.99597" lon="6.45338">
        <ele>2331.8</ele>
        <time>2022-01-14T09:54:43Z</time>
      </trkpt>
      <trkpt lat="44.99597" lon="6.45338">
        <ele>2331.8</ele>
        <time>2022-01-14T09:54:44Z</time>
      </trkpt>
      <trkpt lat="44.99597" lon="6.45337">
        <ele>2333.3</ele>
        <time>2022-01-14T09:54:45Z</time>
      </trkpt>
      <trkpt lat="44.99598" lon="6.45337">
        <ele>2333.3</ele>
        <time>2022-01-14T09:54:46Z</time>
      </trkpt>
      <trkpt lat="44.99598" lon="6.45337">
        <ele>2333.3</ele>
        <time>2022-01-14T09:54:47Z</time>
      </trkpt>
      <trkpt lat="44.99598" lon="6.45336">
        <ele>2333.3</ele>
        <time>2022-01-14T09:54:48Z</time>
      </trkpt>
      <trkpt lat="44.99599" lon="6.45334">
        <ele>2334</ele>
        <time>2022-01-14T09:54:49Z</time>
      </trkpt>
      <trkpt lat="44.99599" lon="6.45335">
        <ele>2334</ele>
        <time>2022-01-14T09:54:50Z</time>
      </trkpt>
      <trkpt lat="44.99599" lon="6.45334">
        <ele>2334</ele>
        <time>2022-01-14T09:54:51Z</time>
      </trkpt>
      <trkpt lat="44.99599" lon="6.45335">
        <ele>2334</ele>
        <time>2022-01-14T09:54:52Z</time>
      </trkpt>
      <trkpt lat="44.99599" lon="6.45334">
        <ele>2334</ele>
        <time>2022-01-14T09:54:53Z</time>
      </trkpt>
      <trkpt lat="44.996" lon="6.45333">
        <ele>2334</ele>
        <time>2022-01-14T09:54:54Z</time>
      </trkpt>
      <trkpt lat="44.996" lon="6.45332">
        <ele>2334</ele>
        <time>2022-01-14T09:54:55Z</time>
      </trkpt>
      <trkpt lat="44.99599" lon="6.45332">
        <ele>2334</ele>
        <time>2022-01-14T09:54:56Z</time>
      </trkpt>
      <trkpt lat="44.996" lon="6.45331">
        <ele>2334</ele>
        <time>2022-01-14T09:54:57Z</time>
      </trkpt>
      <trkpt lat="44.996" lon="6.45331">
        <ele>2334</ele>
        <time>2022-01-14T09:54:58Z</time>
      </trkpt>
      <trkpt lat="44.99601" lon="6.4533">
        <ele>2336</ele>
        <time>2022-01-14T09:55:00Z</time>
      </trkpt>
      <trkpt lat="44.99601" lon="6.45329">
        <ele>2336</ele>
        <time>2022-01-14T09:55:01Z</time>
      </trkpt>
      <trkpt lat="44.99602" lon="6.45329">
        <ele>2336</ele>
        <time>2022-01-14T09:55:02Z</time>
      </trkpt>
      <trkpt lat="44.99602" lon="6.45329">
        <ele>2336</ele>
        <time>2022-01-14T09:55:03Z</time>
      </trkpt>
      <trkpt lat="44.99602" lon="6.45328">
        <ele>2336</ele>
        <time>2022-01-14T09:55:04Z</time>
      </trkpt>
      <trkpt lat="44.99602" lon="6.45328">
        <ele>2336</ele>
        <time>2022-01-14T09:55:05Z</time>
      </trkpt>
      <trkpt lat="44.99603" lon="6.45327">
        <ele>2336</ele>
        <time>2022-01-14T09:55:06Z</time>
      </trkpt>
      <trkpt lat="44.99602" lon="6.45327">
        <ele>2336</ele>
        <time>2022-01-14T09:55:07Z</time>
      </trkpt>
      <trkpt lat="44.99602" lon="6.45326">
        <ele>2336.6</ele>
        <time>2022-01-14T09:55:08Z</time>
      </trkpt>
      <trkpt lat="44.99602" lon="6.45325">
        <ele>2336.6</ele>
        <time>2022-01-14T09:55:09Z</time>
      </trkpt>
      <trkpt lat="44.99603" lon="6.45323">
        <ele>2336.6</ele>
        <time>2022-01-14T09:55:10Z</time>
      </trkpt>
      <trkpt lat="44.99603" lon="6.45322">
        <ele>2337.2</ele>
        <time>2022-01-14T09:55:11Z</time>
      </trkpt>
      <trkpt lat="44.99603" lon="6.45322">
        <ele>2337.2</ele>
        <time>2022-01-14T09:55:12Z</time>
      </trkpt>
      <trkpt lat="44.99603" lon="6.45321">
        <ele>2337.2</ele>
        <time>2022-01-14T09:55:13Z</time>
      </trkpt>
      <trkpt lat="44.99604" lon="6.45321">
        <ele>2338.4</ele>
        <time>2022-01-14T09:55:14Z</time>
      </trkpt>
      <trkpt lat="44.99604" lon="6.4532">
        <ele>2338.4</ele>
        <time>2022-01-14T09:55:15Z</time>
      </trkpt>
      <trkpt lat="44.99604" lon="6.45319">
        <ele>2338.4</ele>
        <time>2022-01-14T09:55:16Z</time>
      </trkpt>
      <trkpt lat="44.99604" lon="6.4532">
        <ele>2338.4</ele>
        <time>2022-01-14T09:55:17Z</time>
      </trkpt>
      <trkpt lat="44.99604" lon="6.45319">
        <ele>2338.4</ele>
        <time>2022-01-14T09:55:18Z</time>
      </trkpt>
      <trkpt lat="44.99604" lon="6.45318">
        <ele>2338.4</ele>
        <time>2022-01-14T09:55:19Z</time>
      </trkpt>
      <trkpt lat="44.99604" lon="6.45316">
        <ele>2339.1</ele>
        <time>2022-01-14T09:55:20Z</time>
      </trkpt>
      <trkpt lat="44.99603" lon="6.45315">
        <ele>2337.8</ele>
        <time>2022-01-14T09:55:21Z</time>
      </trkpt>
      <trkpt lat="44.99604" lon="6.45316">
        <ele>2339.1</ele>
        <time>2022-01-14T09:55:22Z</time>
      </trkpt>
      <trkpt lat="44.99603" lon="6.45316">
        <ele>2337.8</ele>
        <time>2022-01-14T09:55:23Z</time>
      </trkpt>
      <trkpt lat="44.99603" lon="6.45316">
        <ele>2337.8</ele>
        <time>2022-01-14T09:55:24Z</time>
      </trkpt>
      <trkpt lat="44.99603" lon="6.45316">
        <ele>2337.8</ele>
        <time>2022-01-14T09:55:26Z</time>
      </trkpt>
      <trkpt lat="44.99603" lon="6.45315">
        <ele>2337.8</ele>
        <time>2022-01-14T09:55:27Z</time>
      </trkpt>
      <trkpt lat="44.99603" lon="6.45315">
        <ele>2337.8</ele>
        <time>2022-01-14T09:55:28Z</time>
      </trkpt>
      <trkpt lat="44.99603" lon="6.45315">
        <ele>2337.8</ele>
        <time>2022-01-14T09:55:29Z</time>
      </trkpt>
      <trkpt lat="44.99603" lon="6.45314">
        <ele>2337.8</ele>
        <time>2022-01-14T09:55:30Z</time>
      </trkpt>
      <trkpt lat="44.99603" lon="6.45313">
        <ele>2338.6</ele>
        <time>2022-01-14T09:55:31Z</time>
      </trkpt>
      <trkpt lat="44.99604" lon="6.45312">
        <ele>2339.8</ele>
        <time>2022-01-14T09:55:32Z</time>
      </trkpt>
      <trkpt lat="44.99603" lon="6.45311">
        <ele>2338.6</ele>
        <time>2022-01-14T09:55:33Z</time>
      </trkpt>
      <trkpt lat="44.99603" lon="6.4531">
        <ele>2338.6</ele>
        <time>2022-01-14T09:55:34Z</time>
      </trkpt>
      <trkpt lat="44.99603" lon="6.45311">
        <ele>2338.6</ele>
        <time>2022-01-14T09:55:35Z</time>
      </trkpt>
      <trkpt lat="44.99602" lon="6.4531">
        <ele>2338.6</ele>
        <time>2022-01-14T09:55:36Z</time>
      </trkpt>
      <trkpt lat="44.99602" lon="6.4531">
        <ele>2338.6</ele>
        <time>2022-01-14T09:55:37Z</time>
      </trkpt>
      <trkpt lat="44.99602" lon="6.4531">
        <ele>2338.6</ele>
        <time>2022-01-14T09:55:38Z</time>
      </trkpt>
      <trkpt lat="44.99602" lon="6.45309">
        <ele>2339.3</ele>
        <time>2022-01-14T09:55:39Z</time>
      </trkpt>
      <trkpt lat="44.99602" lon="6.45308">
        <ele>2339.3</ele>
        <time>2022-01-14T09:55:40Z</time>
      </trkpt>
      <trkpt lat="44.99601" lon="6.45307">
        <ele>2339.3</ele>
        <time>2022-01-14T09:55:41Z</time>
      </trkpt>
      <trkpt lat="44.99602" lon="6.45306">
        <ele>2339.3</ele>
        <time>2022-01-14T09:55:42Z</time>
      </trkpt>
      <trkpt lat="44.99602" lon="6.45306">
        <ele>2339.3</ele>
        <time>2022-01-14T09:55:43Z</time>
      </trkpt>
      <trkpt lat="44.99602" lon="6.45306">
        <ele>2339.3</ele>
        <time>2022-01-14T09:55:44Z</time>
      </trkpt>
      <trkpt lat="44.99601" lon="6.45305">
        <ele>2339.3</ele>
        <time>2022-01-14T09:55:45Z</time>
      </trkpt>
      <trkpt lat="44.99601" lon="6.45305">
        <ele>2340.1</ele>
        <time>2022-01-14T09:55:46Z</time>
      </trkpt>
      <trkpt lat="44.99601" lon="6.45305">
        <ele>2340.1</ele>
        <time>2022-01-14T09:55:47Z</time>
      </trkpt>
      <trkpt lat="44.99602" lon="6.45305">
        <ele>2340.1</ele>
        <time>2022-01-14T09:55:48Z</time>
      </trkpt>
      <trkpt lat="44.99602" lon="6.45304">
        <ele>2340.1</ele>
        <time>2022-01-14T09:55:49Z</time>
      </trkpt>
      <trkpt lat="44.99602" lon="6.45304">
        <ele>2340.1</ele>
        <time>2022-01-14T09:55:50Z</time>
      </trkpt>
      <trkpt lat="44.99602" lon="6.45303">
        <ele>2340.1</ele>
        <time>2022-01-14T09:55:51Z</time>
      </trkpt>
      <trkpt lat="44.99602" lon="6.45303">
        <ele>2340.1</ele>
        <time>2022-01-14T09:55:52Z</time>
      </trkpt>
      <trkpt lat="44.99602" lon="6.45303">
        <ele>2340.1</ele>
        <time>2022-01-14T09:55:53Z</time>
      </trkpt>
      <trkpt lat="44.99602" lon="6.45302">
        <ele>2340.1</ele>
        <time>2022-01-14T09:55:54Z</time>
      </trkpt>
      <trkpt lat="44.99602" lon="6.45301">
        <ele>2340.8</ele>
        <time>2022-01-14T09:55:55Z</time>
      </trkpt>
      <trkpt lat="44.99602" lon="6.453">
        <ele>2340.8</ele>
        <time>2022-01-14T09:55:56Z</time>
      </trkpt>
      <trkpt lat="44.99603" lon="6.453">
        <ele>2340.8</ele>
        <time>2022-01-14T09:55:57Z</time>
      </trkpt>
      <trkpt lat="44.99603" lon="6.453">
        <ele>2340.8</ele>
        <time>2022-01-14T09:55:58Z</time>
      </trkpt>
      <trkpt lat="44.99603" lon="6.45299">
        <ele>2340.8</ele>
        <time>2022-01-14T09:55:59Z</time>
      </trkpt>
      <trkpt lat="44.99603" lon="6.45298">
        <ele>2340.8</ele>
        <time>2022-01-14T09:56:00Z</time>
      </trkpt>
      <trkpt lat="44.99603" lon="6.45297">
        <ele>2340.8</ele>
        <time>2022-01-14T09:56:01Z</time>
      </trkpt>
      <trkpt lat="44.99603" lon="6.45297">
        <ele>2340.8</ele>
        <time>2022-01-14T09:56:02Z</time>
      </trkpt>
      <trkpt lat="44.99603" lon="6.45297">
        <ele>2340.8</ele>
        <time>2022-01-14T09:56:03Z</time>
      </trkpt>
      <trkpt lat="44.99603" lon="6.45297">
        <ele>2340.8</ele>
        <time>2022-01-14T09:56:04Z</time>
      </trkpt>
      <trkpt lat="44.99604" lon="6.45297">
        <ele>2342.8</ele>
        <time>2022-01-14T09:56:05Z</time>
      </trkpt>
      <trkpt lat="44.99604" lon="6.45297">
        <ele>2342.8</ele>
        <time>2022-01-14T09:56:06Z</time>
      </trkpt>
      <trkpt lat="44.99604" lon="6.45296">
        <ele>2342.8</ele>
        <time>2022-01-14T09:56:07Z</time>
      </trkpt>
      <trkpt lat="44.99603" lon="6.45295">
        <ele>2341.6</ele>
        <time>2022-01-14T09:56:08Z</time>
      </trkpt>
      <trkpt lat="44.99604" lon="6.45294">
        <ele>2342.8</ele>
        <time>2022-01-14T09:56:09Z</time>
      </trkpt>
      <trkpt lat="44.99604" lon="6.45293">
        <ele>2342.8</ele>
        <time>2022-01-14T09:56:10Z</time>
      </trkpt>
      <trkpt lat="44.99604" lon="6.45292">
        <ele>2343.5</ele>
        <time>2022-01-14T09:56:11Z</time>
      </trkpt>
      <trkpt lat="44.99603" lon="6.45291">
        <ele>2342.3</ele>
        <time>2022-01-14T09:56:12Z</time>
      </trkpt>
      <trkpt lat="44.99603" lon="6.45291">
        <ele>2342.3</ele>
        <time>2022-01-14T09:56:13Z</time>
      </trkpt>
      <trkpt lat="44.99603" lon="6.45291">
        <ele>2342.3</ele>
        <time>2022-01-14T09:56:14Z</time>
      </trkpt>
      <trkpt lat="44.99603" lon="6.45291">
        <ele>2342.3</ele>
        <time>2022-01-14T09:56:15Z</time>
      </trkpt>
      <trkpt lat="44.99603" lon="6.4529">
        <ele>2342.3</ele>
        <time>2022-01-14T09:56:16Z</time>
      </trkpt>
      <trkpt lat="44.99603" lon="6.4529">
        <ele>2342.3</ele>
        <time>2022-01-14T09:56:17Z</time>
      </trkpt>
      <trkpt lat="44.99603" lon="6.4529">
        <ele>2342.3</ele>
        <time>2022-01-14T09:56:18Z</time>
      </trkpt>
      <trkpt lat="44.99603" lon="6.4529">
        <ele>2342.3</ele>
        <time>2022-01-14T09:56:19Z</time>
      </trkpt>
      <trkpt lat="44.99604" lon="6.45288">
        <ele>2343.5</ele>
        <time>2022-01-14T09:56:20Z</time>
      </trkpt>
      <trkpt lat="44.99604" lon="6.45287">
        <ele>2344.3</ele>
        <time>2022-01-14T09:56:21Z</time>
      </trkpt>
      <trkpt lat="44.99604" lon="6.45287">
        <ele>2344.3</ele>
        <time>2022-01-14T09:56:22Z</time>
      </trkpt>
      <trkpt lat="44.99604" lon="6.45286">
        <ele>2344.3</ele>
        <time>2022-01-14T09:56:23Z</time>
      </trkpt>
      <trkpt lat="44.99604" lon="6.45286">
        <ele>2344.3</ele>
        <time>2022-01-14T09:56:24Z</time>
      </trkpt>
      <trkpt lat="44.99604" lon="6.45285">
        <ele>2344.3</ele>
        <time>2022-01-14T09:56:25Z</time>
      </trkpt>
      <trkpt lat="44.99605" lon="6.45284">
        <ele>2344.3</ele>
        <time>2022-01-14T09:56:26Z</time>
      </trkpt>
      <trkpt lat="44.99605" lon="6.45284">
        <ele>2344.3</ele>
        <time>2022-01-14T09:56:27Z</time>
      </trkpt>
      <trkpt lat="44.99605" lon="6.45284">
        <ele>2344.3</ele>
        <time>2022-01-14T09:56:28Z</time>
      </trkpt>
      <trkpt lat="44.99605" lon="6.45284">
        <ele>2344.9</ele>
        <time>2022-01-14T09:56:29Z</time>
      </trkpt>
      <trkpt lat="44.99605" lon="6.45283">
        <ele>2344.9</ele>
        <time>2022-01-14T09:56:30Z</time>
      </trkpt>
      <trkpt lat="44.99605" lon="6.45283">
        <ele>2344.9</ele>
        <time>2022-01-14T09:56:31Z</time>
      </trkpt>
      <trkpt lat="44.99605" lon="6.45282">
        <ele>2344.9</ele>
        <time>2022-01-14T09:56:32Z</time>
      </trkpt>
      <trkpt lat="44.99605" lon="6.45281">
        <ele>2344.9</ele>
        <time>2022-01-14T09:56:33Z</time>
      </trkpt>
      <trkpt lat="44.99605" lon="6.4528">
        <ele>2344.9</ele>
        <time>2022-01-14T09:56:34Z</time>
      </trkpt>
      <trkpt lat="44.99605" lon="6.4528">
        <ele>2344.9</ele>
        <time>2022-01-14T09:56:35Z</time>
      </trkpt>
      <trkpt lat="44.99605" lon="6.4528">
        <ele>2344.9</ele>
        <time>2022-01-14T09:56:36Z</time>
      </trkpt>
      <trkpt lat="44.99605" lon="6.4528">
        <ele>2344.9</ele>
        <time>2022-01-14T09:56:37Z</time>
      </trkpt>
      <trkpt lat="44.99605" lon="6.45279">
        <ele>2345.4</ele>
        <time>2022-01-14T09:56:38Z</time>
      </trkpt>
      <trkpt lat="44.99605" lon="6.45278">
        <ele>2345.4</ele>
        <time>2022-01-14T09:56:39Z</time>
      </trkpt>
      <trkpt lat="44.99605" lon="6.45278">
        <ele>2345.4</ele>
        <time>2022-01-14T09:56:40Z</time>
      </trkpt>
      <trkpt lat="44.99606" lon="6.45278">
        <ele>2345.4</ele>
        <time>2022-01-14T09:56:41Z</time>
      </trkpt>
      <trkpt lat="44.99606" lon="6.45278">
        <ele>2345.4</ele>
        <time>2022-01-14T09:56:42Z</time>
      </trkpt>
      <trkpt lat="44.99607" lon="6.45278">
        <ele>2346.4</ele>
        <time>2022-01-14T09:56:43Z</time>
      </trkpt>
      <trkpt lat="44.99607" lon="6.45277">
        <ele>2346.4</ele>
        <time>2022-01-14T09:56:44Z</time>
      </trkpt>
      <trkpt lat="44.99607" lon="6.45277">
        <ele>2346.4</ele>
        <time>2022-01-14T09:56:45Z</time>
      </trkpt>
      <trkpt lat="44.99607" lon="6.45276">
        <ele>2346.4</ele>
        <time>2022-01-14T09:56:46Z</time>
      </trkpt>
      <trkpt lat="44.99606" lon="6.45275">
        <ele>2345.4</ele>
        <time>2022-01-14T09:56:47Z</time>
      </trkpt>
      <trkpt lat="44.99606" lon="6.45274">
        <ele>2345.9</ele>
        <time>2022-01-14T09:56:48Z</time>
      </trkpt>
      <trkpt lat="44.99607" lon="6.45274">
        <ele>2346.9</ele>
        <time>2022-01-14T09:56:49Z</time>
      </trkpt>
      <trkpt lat="44.99607" lon="6.45272">
        <ele>2346.9</ele>
        <time>2022-01-14T09:56:50Z</time>
      </trkpt>
      <trkpt lat="44.99606" lon="6.45271">
        <ele>2346.4</ele>
        <time>2022-01-14T09:56:51Z</time>
      </trkpt>
      <trkpt lat="44.99606" lon="6.4527">
        <ele>2346.4</ele>
        <time>2022-01-14T09:56:52Z</time>
      </trkpt>
      <trkpt lat="44.99605" lon="6.45269">
        <ele>2346.4</ele>
        <time>2022-01-14T09:56:53Z</time>
      </trkpt>
      <trkpt lat="44.99605" lon="6.45269">
        <ele>2346.4</ele>
        <time>2022-01-14T09:56:54Z</time>
      </trkpt>
      <trkpt lat="44.99605" lon="6.45269">
        <ele>2346.4</ele>
        <time>2022-01-14T09:56:55Z</time>
      </trkpt>
      <trkpt lat="44.99605" lon="6.45269">
        <ele>2346.4</ele>
        <time>2022-01-14T09:56:56Z</time>
      </trkpt>
      <trkpt lat="44.99605" lon="6.45268">
        <ele>2346.4</ele>
        <time>2022-01-14T09:56:57Z</time>
      </trkpt>
      <trkpt lat="44.99605" lon="6.45268">
        <ele>2346.4</ele>
        <time>2022-01-14T09:56:58Z</time>
      </trkpt>
      <trkpt lat="44.99605" lon="6.45268">
        <ele>2346.4</ele>
        <time>2022-01-14T09:56:59Z</time>
      </trkpt>
      <trkpt lat="44.99605" lon="6.45268">
        <ele>2346.4</ele>
        <time>2022-01-14T09:57:00Z</time>
      </trkpt>
      <trkpt lat="44.99605" lon="6.45268">
        <ele>2346.4</ele>
        <time>2022-01-14T09:57:01Z</time>
      </trkpt>
      <trkpt lat="44.99605" lon="6.45269">
        <ele>2346.4</ele>
        <time>2022-01-14T09:57:02Z</time>
      </trkpt>
      <trkpt lat="44.99605" lon="6.45269">
        <ele>2346.4</ele>
        <time>2022-01-14T09:57:03Z</time>
      </trkpt>
      <trkpt lat="44.99605" lon="6.45269">
        <ele>2346.4</ele>
        <time>2022-01-14T09:57:04Z</time>
      </trkpt>
      <trkpt lat="44.99604" lon="6.4527">
        <ele>2346.4</ele>
        <time>2022-01-14T09:57:05Z</time>
      </trkpt>
      <trkpt lat="44.99603" lon="6.4527">
        <ele>2345.2</ele>
        <time>2022-01-14T09:57:06Z</time>
      </trkpt>
      <trkpt lat="44.99603" lon="6.45269">
        <ele>2345.2</ele>
        <time>2022-01-14T09:57:07Z</time>
      </trkpt>
      <trkpt lat="44.99603" lon="6.45269">
        <ele>2345.2</ele>
        <time>2022-01-14T09:57:08Z</time>
      </trkpt>
      <trkpt lat="44.99603" lon="6.45269">
        <ele>2345.2</ele>
        <time>2022-01-14T09:57:09Z</time>
      </trkpt>
      <trkpt lat="44.99603" lon="6.45269">
        <ele>2345.2</ele>
        <time>2022-01-14T09:57:10Z</time>
      </trkpt>
      <trkpt lat="44.99603" lon="6.45269">
        <ele>2345.2</ele>
        <time>2022-01-14T09:57:11Z</time>
      </trkpt>
      <trkpt lat="44.99603" lon="6.45269">
        <ele>2345.2</ele>
        <time>2022-01-14T09:57:12Z</time>
      </trkpt>
      <trkpt lat="44.99603" lon="6.45269">
        <ele>2345.2</ele>
        <time>2022-01-14T09:57:13Z</time>
      </trkpt>
      <trkpt lat="44.99602" lon="6.45269">
        <ele>2345.2</ele>
        <time>2022-01-14T09:57:14Z</time>
      </trkpt>
      <trkpt lat="44.99602" lon="6.45269">
        <ele>2345.2</ele>
        <time>2022-01-14T09:57:15Z</time>
      </trkpt>
      <trkpt lat="44.99602" lon="6.45269">
        <ele>2345.2</ele>
        <time>2022-01-14T09:57:16Z</time>
      </trkpt>
      <trkpt lat="44.99602" lon="6.45268">
        <ele>2345.2</ele>
        <time>2022-01-14T09:57:17Z</time>
      </trkpt>
      <trkpt lat="44.99602" lon="6.45268">
        <ele>2345.2</ele>
        <time>2022-01-14T09:57:18Z</time>
      </trkpt>
      <trkpt lat="44.99602" lon="6.45266">
        <ele>2345.6</ele>
        <time>2022-01-14T09:57:19Z</time>
      </trkpt>
      <trkpt lat="44.99602" lon="6.45267">
        <ele>2345.2</ele>
        <time>2022-01-14T09:57:20Z</time>
      </trkpt>
      <trkpt lat="44.99602" lon="6.45267">
        <ele>2345.2</ele>
        <time>2022-01-14T09:57:21Z</time>
      </trkpt>
      <trkpt lat="44.99601" lon="6.45268">
        <ele>2345.2</ele>
        <time>2022-01-14T09:57:22Z</time>
      </trkpt>
      <trkpt lat="44.99601" lon="6.45268">
        <ele>2345.2</ele>
        <time>2022-01-14T09:57:23Z</time>
      </trkpt>
      <trkpt lat="44.99601" lon="6.45268">
        <ele>2345.2</ele>
        <time>2022-01-14T09:57:24Z</time>
      </trkpt>
      <trkpt lat="44.99601" lon="6.45268">
        <ele>2345.2</ele>
        <time>2022-01-14T09:57:25Z</time>
      </trkpt>
      <trkpt lat="44.99601" lon="6.45268">
        <ele>2345.2</ele>
        <time>2022-01-14T09:57:26Z</time>
      </trkpt>
      <trkpt lat="44.99601" lon="6.45268">
        <ele>2345.2</ele>
        <time>2022-01-14T09:57:27Z</time>
      </trkpt>
      <trkpt lat="44.99601" lon="6.45268">
        <ele>2345.2</ele>
        <time>2022-01-14T09:57:28Z</time>
      </trkpt>
      <trkpt lat="44.99601" lon="6.45268">
        <ele>2345.2</ele>
        <time>2022-01-14T09:57:29Z</time>
      </trkpt>
      <trkpt lat="44.99601" lon="6.45268">
        <ele>2345.2</ele>
        <time>2022-01-14T09:57:30Z</time>
      </trkpt>
      <trkpt lat="44.99601" lon="6.45268">
        <ele>2345.2</ele>
        <time>2022-01-14T09:57:31Z</time>
      </trkpt>
      <trkpt lat="44.99601" lon="6.45268">
        <ele>2345.2</ele>
        <time>2022-01-14T09:57:32Z</time>
      </trkpt>
      <trkpt lat="44.99601" lon="6.45268">
        <ele>2345.2</ele>
        <time>2022-01-14T09:57:33Z</time>
      </trkpt>
      <trkpt lat="44.99601" lon="6.45268">
        <ele>2345.2</ele>
        <time>2022-01-14T09:57:34Z</time>
      </trkpt>
      <trkpt lat="44.99601" lon="6.45268">
        <ele>2345.2</ele>
        <time>2022-01-14T09:57:35Z</time>
      </trkpt>
      <trkpt lat="44.99601" lon="6.45268">
        <ele>2345.2</ele>
        <time>2022-01-14T09:57:36Z</time>
      </trkpt>
      <trkpt lat="44.99601" lon="6.45268">
        <ele>2345.2</ele>
        <time>2022-01-14T09:57:37Z</time>
      </trkpt>
      <trkpt lat="44.99601" lon="6.45268">
        <ele>2345.2</ele>
        <time>2022-01-14T09:57:38Z</time>
      </trkpt>
      <trkpt lat="44.99601" lon="6.45268">
        <ele>2345.2</ele>
        <time>2022-01-14T09:57:39Z</time>
      </trkpt>
      <trkpt lat="44.99601" lon="6.45268">
        <ele>2345.2</ele>
        <time>2022-01-14T09:57:40Z</time>
      </trkpt>
      <trkpt lat="44.99601" lon="6.45268">
        <ele>2345.2</ele>
        <time>2022-01-14T09:57:41Z</time>
      </trkpt>
      <trkpt lat="44.99601" lon="6.45268">
        <ele>2345.2</ele>
        <time>2022-01-14T09:57:42Z</time>
      </trkpt>
      <trkpt lat="44.99601" lon="6.45268">
        <ele>2345.2</ele>
        <time>2022-01-14T09:57:43Z</time>
      </trkpt>
      <trkpt lat="44.99601" lon="6.45269">
        <ele>2345.2</ele>
        <time>2022-01-14T09:57:44Z</time>
      </trkpt>
      <trkpt lat="44.99602" lon="6.45269">
        <ele>2345.2</ele>
        <time>2022-01-14T09:57:45Z</time>
      </trkpt>
      <trkpt lat="44.99602" lon="6.45268">
        <ele>2345.2</ele>
        <time>2022-01-14T09:57:46Z</time>
      </trkpt>
      <trkpt lat="44.99601" lon="6.45268">
        <ele>2345.2</ele>
        <time>2022-01-14T09:57:47Z</time>
      </trkpt>
      <trkpt lat="44.99601" lon="6.45268">
        <ele>2345.2</ele>
        <time>2022-01-14T09:57:48Z</time>
      </trkpt>
      <trkpt lat="44.99601" lon="6.45269">
        <ele>2345.2</ele>
        <time>2022-01-14T09:57:49Z</time>
      </trkpt>
      <trkpt lat="44.99601" lon="6.45268">
        <ele>2345.2</ele>
        <time>2022-01-14T09:57:50Z</time>
      </trkpt>
      <trkpt lat="44.99601" lon="6.45268">
        <ele>2345.2</ele>
        <time>2022-01-14T09:57:51Z</time>
      </trkpt>
      <trkpt lat="44.99601" lon="6.45268">
        <ele>2345.2</ele>
        <time>2022-01-14T09:57:52Z</time>
      </trkpt>
      <trkpt lat="44.99601" lon="6.45269">
        <ele>2345.2</ele>
        <time>2022-01-14T09:57:53Z</time>
      </trkpt>
      <trkpt lat="44.99601" lon="6.45269">
        <ele>2345.2</ele>
        <time>2022-01-14T09:57:54Z</time>
      </trkpt>
      <trkpt lat="44.99601" lon="6.45269">
        <ele>2345.2</ele>
        <time>2022-01-14T09:57:55Z</time>
      </trkpt>
      <trkpt lat="44.99601" lon="6.45269">
        <ele>2345.2</ele>
        <time>2022-01-14T09:57:56Z</time>
      </trkpt>
      <trkpt lat="44.99601" lon="6.45269">
        <ele>2345.2</ele>
        <time>2022-01-14T09:57:57Z</time>
      </trkpt>
      <trkpt lat="44.99601" lon="6.45269">
        <ele>2345.2</ele>
        <time>2022-01-14T09:57:58Z</time>
      </trkpt>
      <trkpt lat="44.99601" lon="6.45269">
        <ele>2345.2</ele>
        <time>2022-01-14T09:57:59Z</time>
      </trkpt>
      <trkpt lat="44.99601" lon="6.45269">
        <ele>2345.2</ele>
        <time>2022-01-14T09:58:00Z</time>
      </trkpt>
      <trkpt lat="44.99602" lon="6.45269">
        <ele>2345.2</ele>
        <time>2022-01-14T09:58:01Z</time>
      </trkpt>
      <trkpt lat="44.99603" lon="6.45269">
        <ele>2345.2</ele>
        <time>2022-01-14T09:58:02Z</time>
      </trkpt>
      <trkpt lat="44.99604" lon="6.45269">
        <ele>2346.4</ele>
        <time>2022-01-14T09:58:03Z</time>
      </trkpt>
      <trkpt lat="44.99604" lon="6.4527">
        <ele>2346.4</ele>
        <time>2022-01-14T09:58:04Z</time>
      </trkpt>
      <trkpt lat="44.99605" lon="6.45271">
        <ele>2345.9</ele>
        <time>2022-01-14T09:58:05Z</time>
      </trkpt>
      <trkpt lat="44.99606" lon="6.45271">
        <ele>2345.9</ele>
        <time>2022-01-14T09:58:06Z</time>
      </trkpt>
      <trkpt lat="44.99606" lon="6.45273">
        <ele>2345.9</ele>
        <time>2022-01-14T09:58:07Z</time>
      </trkpt>
      <trkpt lat="44.99607" lon="6.45274">
        <ele>2346.9</ele>
        <time>2022-01-14T09:58:08Z</time>
      </trkpt>
      <trkpt lat="44.99608" lon="6.45274">
        <ele>2346.9</ele>
        <time>2022-01-14T09:58:09Z</time>
      </trkpt>
      <trkpt lat="44.99607" lon="6.45274">
        <ele>2346.9</ele>
        <time>2022-01-14T09:58:10Z</time>
      </trkpt>
      <trkpt lat="44.99607" lon="6.45274">
        <ele>2346.9</ele>
        <time>2022-01-14T09:58:11Z</time>
      </trkpt>
      <trkpt lat="44.99607" lon="6.45275">
        <ele>2346.9</ele>
        <time>2022-01-14T09:58:12Z</time>
      </trkpt>
      <trkpt lat="44.99607" lon="6.45275">
        <ele>2346.4</ele>
        <time>2022-01-14T09:58:13Z</time>
      </trkpt>
      <trkpt lat="44.99608" lon="6.45273">
        <ele>2346.9</ele>
        <time>2022-01-14T09:58:14Z</time>
      </trkpt>
      <trkpt lat="44.99608" lon="6.45273">
        <ele>2346.9</ele>
        <time>2022-01-14T09:58:15Z</time>
      </trkpt>
      <trkpt lat="44.99608" lon="6.45273">
        <ele>2346.9</ele>
        <time>2022-01-14T09:58:16Z</time>
      </trkpt>
      <trkpt lat="44.99608" lon="6.45273">
        <ele>2346.9</ele>
        <time>2022-01-14T09:58:17Z</time>
      </trkpt>
      <trkpt lat="44.99608" lon="6.45273">
        <ele>2346.9</ele>
        <time>2022-01-14T09:58:18Z</time>
      </trkpt>
      <trkpt lat="44.99608" lon="6.45273">
        <ele>2346.9</ele>
        <time>2022-01-14T09:58:19Z</time>
      </trkpt>
      <trkpt lat="44.99608" lon="6.45273">
        <ele>2346.9</ele>
        <time>2022-01-14T09:58:20Z</time>
      </trkpt>
      <trkpt lat="44.99608" lon="6.45273">
        <ele>2346.9</ele>
        <time>2022-01-14T09:58:21Z</time>
      </trkpt>
      <trkpt lat="44.99608" lon="6.45273">
        <ele>2346.9</ele>
        <time>2022-01-14T09:58:22Z</time>
      </trkpt>
      <trkpt lat="44.99608" lon="6.45273">
        <ele>2346.9</ele>
        <time>2022-01-14T09:58:23Z</time>
      </trkpt>
      <trkpt lat="44.99608" lon="6.45273">
        <ele>2346.9</ele>
        <time>2022-01-14T09:58:24Z</time>
      </trkpt>
      <trkpt lat="44.99608" lon="6.45273">
        <ele>2346.9</ele>
        <time>2022-01-14T09:58:25Z</time>
      </trkpt>
      <trkpt lat="44.99609" lon="6.45273">
        <ele>2346.9</ele>
        <time>2022-01-14T09:58:26Z</time>
      </trkpt>
      <trkpt lat="44.99608" lon="6.45273">
        <ele>2346.9</ele>
        <time>2022-01-14T09:58:27Z</time>
      </trkpt>
      <trkpt lat="44.99608" lon="6.45273">
        <ele>2346.9</ele>
        <time>2022-01-14T09:58:28Z</time>
      </trkpt>
      <trkpt lat="44.99608" lon="6.45273">
        <ele>2346.9</ele>
        <time>2022-01-14T09:58:29Z</time>
      </trkpt>
      <trkpt lat="44.99608" lon="6.45273">
        <ele>2346.9</ele>
        <time>2022-01-14T09:58:30Z</time>
      </trkpt>
      <trkpt lat="44.99608" lon="6.45273">
        <ele>2346.9</ele>
        <time>2022-01-14T09:58:31Z</time>
      </trkpt>
      <trkpt lat="44.99608" lon="6.45273">
        <ele>2346.9</ele>
        <time>2022-01-14T09:58:32Z</time>
      </trkpt>
      <trkpt lat="44.99608" lon="6.45273">
        <ele>2346.9</ele>
        <time>2022-01-14T09:58:33Z</time>
      </trkpt>
      <trkpt lat="44.99608" lon="6.45273">
        <ele>2346.9</ele>
        <time>2022-01-14T09:58:34Z</time>
      </trkpt>
      <trkpt lat="44.99608" lon="6.45273">
        <ele>2346.9</ele>
        <time>2022-01-14T09:58:35Z</time>
      </trkpt>
      <trkpt lat="44.99608" lon="6.45273">
        <ele>2346.9</ele>
        <time>2022-01-14T09:58:36Z</time>
      </trkpt>
      <trkpt lat="44.99608" lon="6.45273">
        <ele>2346.9</ele>
        <time>2022-01-14T09:58:37Z</time>
      </trkpt>
      <trkpt lat="44.99608" lon="6.45273">
        <ele>2346.9</ele>
        <time>2022-01-14T09:58:38Z</time>
      </trkpt>
      <trkpt lat="44.99608" lon="6.45274">
        <ele>2346.9</ele>
        <time>2022-01-14T09:58:39Z</time>
      </trkpt>
      <trkpt lat="44.99608" lon="6.45274">
        <ele>2346.9</ele>
        <time>2022-01-14T09:58:40Z</time>
      </trkpt>
      <trkpt lat="44.99608" lon="6.45274">
        <ele>2346.9</ele>
        <time>2022-01-14T09:58:41Z</time>
      </trkpt>
      <trkpt lat="44.99609" lon="6.45275">
        <ele>2346.9</ele>
        <time>2022-01-14T09:58:42Z</time>
      </trkpt>
      <trkpt lat="44.99608" lon="6.45274">
        <ele>2346.9</ele>
        <time>2022-01-14T09:58:43Z</time>
      </trkpt>
      <trkpt lat="44.99608" lon="6.45275">
        <ele>2346.9</ele>
        <time>2022-01-14T09:58:44Z</time>
      </trkpt>
      <trkpt lat="44.99609" lon="6.45275">
        <ele>2346.9</ele>
        <time>2022-01-14T09:58:45Z</time>
      </trkpt>
      <trkpt lat="44.99609" lon="6.45274">
        <ele>2346.9</ele>
        <time>2022-01-14T09:58:46Z</time>
      </trkpt>
      <trkpt lat="44.9961" lon="6.45274">
        <ele>2346.9</ele>
        <time>2022-01-14T09:58:47Z</time>
      </trkpt>
      <trkpt lat="44.9961" lon="6.45274">
        <ele>2347.7</ele>
        <time>2022-01-14T09:58:48Z</time>
      </trkpt>
      <trkpt lat="44.9961" lon="6.45274">
        <ele>2347.7</ele>
        <time>2022-01-14T09:58:49Z</time>
      </trkpt>
      <trkpt lat="44.9961" lon="6.45274">
        <ele>2347.7</ele>
        <time>2022-01-14T09:58:50Z</time>
      </trkpt>
      <trkpt lat="44.99609" lon="6.45274">
        <ele>2346.9</ele>
        <time>2022-01-14T09:58:51Z</time>
      </trkpt>
      <trkpt lat="44.99609" lon="6.45274">
        <ele>2346.9</ele>
        <time>2022-01-14T09:58:52Z</time>
      </trkpt>
      <trkpt lat="44.99609" lon="6.45274">
        <ele>2346.9</ele>
        <time>2022-01-14T09:58:53Z</time>
      </trkpt>
      <trkpt lat="44.9961" lon="6.45273">
        <ele>2347.7</ele>
        <time>2022-01-14T09:58:54Z</time>
      </trkpt>
      <trkpt lat="44.9961" lon="6.45272">
        <ele>2347.7</ele>
        <time>2022-01-14T09:58:55Z</time>
      </trkpt>
      <trkpt lat="44.99609" lon="6.45273">
        <ele>2346.9</ele>
        <time>2022-01-14T09:58:56Z</time>
      </trkpt>
      <trkpt lat="44.99609" lon="6.45273">
        <ele>2346.9</ele>
        <time>2022-01-14T09:58:57Z</time>
      </trkpt>
      <trkpt lat="44.99609" lon="6.45273">
        <ele>2346.9</ele>
        <time>2022-01-14T09:58:58Z</time>
      </trkpt>
      <trkpt lat="44.99609" lon="6.45273">
        <ele>2346.9</ele>
        <time>2022-01-14T09:58:59Z</time>
      </trkpt>
      <trkpt lat="44.99609" lon="6.45273">
        <ele>2346.9</ele>
        <time>2022-01-14T09:59:00Z</time>
      </trkpt>
      <trkpt lat="44.99609" lon="6.45273">
        <ele>2346.9</ele>
        <time>2022-01-14T09:59:01Z</time>
      </trkpt>
      <trkpt lat="44.99609" lon="6.45273">
        <ele>2346.9</ele>
        <time>2022-01-14T09:59:02Z</time>
      </trkpt>
      <trkpt lat="44.99609" lon="6.45273">
        <ele>2346.9</ele>
        <time>2022-01-14T09:59:03Z</time>
      </trkpt>
      <trkpt lat="44.99609" lon="6.45273">
        <ele>2346.9</ele>
        <time>2022-01-14T09:59:04Z</time>
      </trkpt>
      <trkpt lat="44.99608" lon="6.45273">
        <ele>2346.9</ele>
        <time>2022-01-14T09:59:05Z</time>
      </trkpt>
      <trkpt lat="44.99607" lon="6.45272">
        <ele>2346.9</ele>
        <time>2022-01-14T09:59:06Z</time>
      </trkpt>
      <trkpt lat="44.99607" lon="6.45272">
        <ele>2346.9</ele>
        <time>2022-01-14T09:59:07Z</time>
      </trkpt>
      <trkpt lat="44.99607" lon="6.45273">
        <ele>2346.9</ele>
        <time>2022-01-14T09:59:08Z</time>
      </trkpt>
      <trkpt lat="44.99607" lon="6.45273">
        <ele>2346.9</ele>
        <time>2022-01-14T09:59:09Z</time>
      </trkpt>
      <trkpt lat="44.99607" lon="6.45273">
        <ele>2346.9</ele>
        <time>2022-01-14T09:59:10Z</time>
      </trkpt>
      <trkpt lat="44.99607" lon="6.45273">
        <ele>2346.9</ele>
        <time>2022-01-14T09:59:11Z</time>
      </trkpt>
      <trkpt lat="44.99607" lon="6.45273">
        <ele>2346.9</ele>
        <time>2022-01-14T09:59:12Z</time>
      </trkpt>
      <trkpt lat="44.99607" lon="6.45273">
        <ele>2346.9</ele>
        <time>2022-01-14T09:59:13Z</time>
      </trkpt>
      <trkpt lat="44.99607" lon="6.45273">
        <ele>2346.9</ele>
        <time>2022-01-14T09:59:14Z</time>
      </trkpt>
      <trkpt lat="44.99606" lon="6.45273">
        <ele>2345.9</ele>
        <time>2022-01-14T09:59:15Z</time>
      </trkpt>
      <trkpt lat="44.99606" lon="6.45273">
        <ele>2345.9</ele>
        <time>2022-01-14T09:59:16Z</time>
      </trkpt>
      <trkpt lat="44.99606" lon="6.45273">
        <ele>2345.9</ele>
        <time>2022-01-14T09:59:17Z</time>
      </trkpt>
      <trkpt lat="44.99606" lon="6.45273">
        <ele>2345.9</ele>
        <time>2022-01-14T09:59:18Z</time>
      </trkpt>
      <trkpt lat="44.99606" lon="6.45273">
        <ele>2345.9</ele>
        <time>2022-01-14T09:59:19Z</time>
      </trkpt>
      <trkpt lat="44.99606" lon="6.45273">
        <ele>2345.9</ele>
        <time>2022-01-14T09:59:20Z</time>
      </trkpt>
      <trkpt lat="44.99606" lon="6.45273">
        <ele>2345.9</ele>
        <time>2022-01-14T09:59:21Z</time>
      </trkpt>
      <trkpt lat="44.99606" lon="6.45273">
        <ele>2345.9</ele>
        <time>2022-01-14T09:59:22Z</time>
      </trkpt>
      <trkpt lat="44.99606" lon="6.45273">
        <ele>2345.9</ele>
        <time>2022-01-14T09:59:23Z</time>
      </trkpt>
      <trkpt lat="44.99606" lon="6.45273">
        <ele>2345.9</ele>
        <time>2022-01-14T09:59:24Z</time>
      </trkpt>
      <trkpt lat="44.99606" lon="6.45273">
        <ele>2345.9</ele>
        <time>2022-01-14T09:59:25Z</time>
      </trkpt>
      <trkpt lat="44.99606" lon="6.45274">
        <ele>2345.9</ele>
        <time>2022-01-14T09:59:26Z</time>
      </trkpt>
      <trkpt lat="44.99606" lon="6.45274">
        <ele>2345.9</ele>
        <time>2022-01-14T09:59:27Z</time>
      </trkpt>
      <trkpt lat="44.99606" lon="6.45274">
        <ele>2345.9</ele>
        <time>2022-01-14T09:59:28Z</time>
      </trkpt>
      <trkpt lat="44.99606" lon="6.45274">
        <ele>2345.9</ele>
        <time>2022-01-14T09:59:29Z</time>
      </trkpt>
      <trkpt lat="44.99606" lon="6.45274">
        <ele>2345.9</ele>
        <time>2022-01-14T09:59:30Z</time>
      </trkpt>
      <trkpt lat="44.99606" lon="6.45274">
        <ele>2345.9</ele>
        <time>2022-01-14T09:59:31Z</time>
      </trkpt>
      <trkpt lat="44.99606" lon="6.45274">
        <ele>2345.9</ele>
        <time>2022-01-14T09:59:32Z</time>
      </trkpt>
      <trkpt lat="44.99606" lon="6.45274">
        <ele>2345.9</ele>
        <time>2022-01-14T09:59:33Z</time>
      </trkpt>
      <trkpt lat="44.99606" lon="6.45274">
        <ele>2345.9</ele>
        <time>2022-01-14T09:59:34Z</time>
      </trkpt>
      <trkpt lat="44.99606" lon="6.45274">
        <ele>2345.9</ele>
        <time>2022-01-14T09:59:35Z</time>
      </trkpt>
      <trkpt lat="44.99606" lon="6.45274">
        <ele>2345.9</ele>
        <time>2022-01-14T09:59:36Z</time>
      </trkpt>
      <trkpt lat="44.99606" lon="6.45274">
        <ele>2345.9</ele>
        <time>2022-01-14T09:59:37Z</time>
      </trkpt>
      <trkpt lat="44.99607" lon="6.45274">
        <ele>2346.9</ele>
        <time>2022-01-14T09:59:38Z</time>
      </trkpt>
      <trkpt lat="44.99607" lon="6.45274">
        <ele>2346.9</ele>
        <time>2022-01-14T09:59:39Z</time>
      </trkpt>
      <trkpt lat="44.99607" lon="6.45274">
        <ele>2346.9</ele>
        <time>2022-01-14T09:59:40Z</time>
      </trkpt>
      <trkpt lat="44.99607" lon="6.45274">
        <ele>2346.9</ele>
        <time>2022-01-14T09:59:41Z</time>
      </trkpt>
      <trkpt lat="44.99607" lon="6.45274">
        <ele>2346.9</ele>
        <time>2022-01-14T09:59:42Z</time>
      </trkpt>
      <trkpt lat="44.99607" lon="6.45274">
        <ele>2346.9</ele>
        <time>2022-01-14T09:59:43Z</time>
      </trkpt>
      <trkpt lat="44.99607" lon="6.45274">
        <ele>2346.9</ele>
        <time>2022-01-14T09:59:44Z</time>
      </trkpt>
      <trkpt lat="44.99607" lon="6.45274">
        <ele>2346.9</ele>
        <time>2022-01-14T09:59:45Z</time>
      </trkpt>
      <trkpt lat="44.99607" lon="6.45274">
        <ele>2346.9</ele>
        <time>2022-01-14T09:59:46Z</time>
      </trkpt>
      <trkpt lat="44.99607" lon="6.45274">
        <ele>2346.9</ele>
        <time>2022-01-14T09:59:47Z</time>
      </trkpt>
      <trkpt lat="44.99607" lon="6.45274">
        <ele>2346.9</ele>
        <time>2022-01-14T09:59:48Z</time>
      </trkpt>
      <trkpt lat="44.99607" lon="6.45274">
        <ele>2346.9</ele>
        <time>2022-01-14T09:59:49Z</time>
      </trkpt>
      <trkpt lat="44.99607" lon="6.45274">
        <ele>2346.9</ele>
        <time>2022-01-14T09:59:50Z</time>
      </trkpt>
      <trkpt lat="44.99607" lon="6.45274">
        <ele>2346.9</ele>
        <time>2022-01-14T09:59:51Z</time>
      </trkpt>
      <trkpt lat="44.99607" lon="6.45274">
        <ele>2346.9</ele>
        <time>2022-01-14T09:59:52Z</time>
      </trkpt>
      <trkpt lat="44.99607" lon="6.45274">
        <ele>2346.9</ele>
        <time>2022-01-14T09:59:53Z</time>
      </trkpt>
      <trkpt lat="44.99607" lon="6.45274">
        <ele>2346.9</ele>
        <time>2022-01-14T09:59:54Z</time>
      </trkpt>
      <trkpt lat="44.99607" lon="6.45274">
        <ele>2346.9</ele>
        <time>2022-01-14T09:59:55Z</time>
      </trkpt>
      <trkpt lat="44.99607" lon="6.45274">
        <ele>2346.9</ele>
        <time>2022-01-14T09:59:56Z</time>
      </trkpt>
      <trkpt lat="44.99607" lon="6.45274">
        <ele>2346.9</ele>
        <time>2022-01-14T09:59:57Z</time>
      </trkpt>
      <trkpt lat="44.99607" lon="6.45274">
        <ele>2346.9</ele>
        <time>2022-01-14T09:59:58Z</time>
      </trkpt>
      <trkpt lat="44.99607" lon="6.45274">
        <ele>2346.9</ele>
        <time>2022-01-14T09:59:59Z</time>
      </trkpt>
      <trkpt lat="44.99607" lon="6.45274">
        <ele>2346.9</ele>
        <time>2022-01-14T10:00:00Z</time>
      </trkpt>
      <trkpt lat="44.99607" lon="6.45274">
        <ele>2346.9</ele>
        <time>2022-01-14T10:00:01Z</time>
      </trkpt>
      <trkpt lat="44.99607" lon="6.45274">
        <ele>2346.9</ele>
        <time>2022-01-14T10:00:02Z</time>
      </trkpt>
      <trkpt lat="44.99607" lon="6.45274">
        <ele>2346.9</ele>
        <time>2022-01-14T10:00:03Z</time>
      </trkpt>
      <trkpt lat="44.99607" lon="6.45274">
        <ele>2346.9</ele>
        <time>2022-01-14T10:00:04Z</time>
      </trkpt>
      <trkpt lat="44.99607" lon="6.45274">
        <ele>2346.9</ele>
        <time>2022-01-14T10:00:05Z</time>
      </trkpt>
      <trkpt lat="44.99607" lon="6.45274">
        <ele>2346.9</ele>
        <time>2022-01-14T10:00:06Z</time>
      </trkpt>
      <trkpt lat="44.99607" lon="6.45274">
        <ele>2346.9</ele>
        <time>2022-01-14T10:00:07Z</time>
      </trkpt>
      <trkpt lat="44.99607" lon="6.45274">
        <ele>2346.9</ele>
        <time>2022-01-14T10:00:08Z</time>
      </trkpt>
      <trkpt lat="44.99607" lon="6.45274">
        <ele>2346.9</ele>
        <time>2022-01-14T10:00:09Z</time>
      </trkpt>
      <trkpt lat="44.99607" lon="6.45274">
        <ele>2346.9</ele>
        <time>2022-01-14T10:00:10Z</time>
      </trkpt>
      <trkpt lat="44.99607" lon="6.45274">
        <ele>2346.9</ele>
        <time>2022-01-14T10:00:11Z</time>
      </trkpt>
      <trkpt lat="44.99607" lon="6.45274">
        <ele>2346.9</ele>
        <time>2022-01-14T10:00:12Z</time>
      </trkpt>
      <trkpt lat="44.99607" lon="6.45274">
        <ele>2346.9</ele>
        <time>2022-01-14T10:00:13Z</time>
      </trkpt>
      <trkpt lat="44.99607" lon="6.45274">
        <ele>2346.9</ele>
        <time>2022-01-14T10:00:14Z</time>
      </trkpt>
      <trkpt lat="44.99607" lon="6.45274">
        <ele>2346.9</ele>
        <time>2022-01-14T10:00:15Z</time>
      </trkpt>
      <trkpt lat="44.99607" lon="6.45274">
        <ele>2346.9</ele>
        <time>2022-01-14T10:00:16Z</time>
      </trkpt>
      <trkpt lat="44.99607" lon="6.45274">
        <ele>2346.9</ele>
        <time>2022-01-14T10:00:17Z</time>
      </trkpt>
      <trkpt lat="44.99607" lon="6.45274">
        <ele>2346.9</ele>
        <time>2022-01-14T10:00:18Z</time>
      </trkpt>
      <trkpt lat="44.99607" lon="6.45274">
        <ele>2346.9</ele>
        <time>2022-01-14T10:00:19Z</time>
      </trkpt>
      <trkpt lat="44.99607" lon="6.45274">
        <ele>2346.9</ele>
        <time>2022-01-14T10:00:20Z</time>
      </trkpt>
      <trkpt lat="44.99607" lon="6.45274">
        <ele>2346.9</ele>
        <time>2022-01-14T10:00:21Z</time>
      </trkpt>
      <trkpt lat="44.99607" lon="6.45275">
        <ele>2346.9</ele>
        <time>2022-01-14T10:00:22Z</time>
      </trkpt>
      <trkpt lat="44.99607" lon="6.45274">
        <ele>2346.9</ele>
        <time>2022-01-14T10:00:23Z</time>
      </trkpt>
      <trkpt lat="44.99607" lon="6.45274">
        <ele>2346.9</ele>
        <time>2022-01-14T10:00:24Z</time>
      </trkpt>
      <trkpt lat="44.99607" lon="6.45275">
        <ele>2346.9</ele>
        <time>2022-01-14T10:00:25Z</time>
      </trkpt>
      <trkpt lat="44.99607" lon="6.45275">
        <ele>2346.9</ele>
        <time>2022-01-14T10:00:26Z</time>
      </trkpt>
      <trkpt lat="44.99607" lon="6.45275">
        <ele>2346.9</ele>
        <time>2022-01-14T10:00:27Z</time>
      </trkpt>
      <trkpt lat="44.99607" lon="6.45275">
        <ele>2346.9</ele>
        <time>2022-01-14T10:00:28Z</time>
      </trkpt>
      <trkpt lat="44.99607" lon="6.45275">
        <ele>2346.9</ele>
        <time>2022-01-14T10:00:29Z</time>
      </trkpt>
      <trkpt lat="44.99607" lon="6.45275">
        <ele>2346.9</ele>
        <time>2022-01-14T10:00:30Z</time>
      </trkpt>
      <trkpt lat="44.99607" lon="6.45275">
        <ele>2346.9</ele>
        <time>2022-01-14T10:00:31Z</time>
      </trkpt>
      <trkpt lat="44.99607" lon="6.45275">
        <ele>2346.9</ele>
        <time>2022-01-14T10:00:32Z</time>
      </trkpt>
      <trkpt lat="44.99607" lon="6.45275">
        <ele>2346.9</ele>
        <time>2022-01-14T10:00:33Z</time>
      </trkpt>
      <trkpt lat="44.99607" lon="6.45274">
        <ele>2346.9</ele>
        <time>2022-01-14T10:00:34Z</time>
      </trkpt>
      <trkpt lat="44.99607" lon="6.45274">
        <ele>2346.9</ele>
        <time>2022-01-14T10:00:35Z</time>
      </trkpt>
      <trkpt lat="44.99607" lon="6.45274">
        <ele>2346.9</ele>
        <time>2022-01-14T10:00:36Z</time>
      </trkpt>
      <trkpt lat="44.99607" lon="6.45274">
        <ele>2346.9</ele>
        <time>2022-01-14T10:00:37Z</time>
      </trkpt>
      <trkpt lat="44.99607" lon="6.45274">
        <ele>2346.9</ele>
        <time>2022-01-14T10:00:38Z</time>
      </trkpt>
      <trkpt lat="44.99607" lon="6.45274">
        <ele>2346.9</ele>
        <time>2022-01-14T10:00:39Z</time>
      </trkpt>
      <trkpt lat="44.99607" lon="6.45274">
        <ele>2346.9</ele>
        <time>2022-01-14T10:00:40Z</time>
      </trkpt>
      <trkpt lat="44.99607" lon="6.45274">
        <ele>2346.9</ele>
        <time>2022-01-14T10:00:41Z</time>
      </trkpt>
      <trkpt lat="44.99607" lon="6.45273">
        <ele>2346.9</ele>
        <time>2022-01-14T10:00:42Z</time>
      </trkpt>
      <trkpt lat="44.99607" lon="6.45273">
        <ele>2346.9</ele>
        <time>2022-01-14T10:00:43Z</time>
      </trkpt>
      <trkpt lat="44.99607" lon="6.45273">
        <ele>2346.9</ele>
        <time>2022-01-14T10:00:44Z</time>
      </trkpt>
      <trkpt lat="44.99607" lon="6.45273">
        <ele>2346.9</ele>
        <time>2022-01-14T10:00:45Z</time>
      </trkpt>
      <trkpt lat="44.99607" lon="6.45273">
        <ele>2346.9</ele>
        <time>2022-01-14T10:00:46Z</time>
      </trkpt>
      <trkpt lat="44.99607" lon="6.45273">
        <ele>2346.9</ele>
        <time>2022-01-14T10:00:47Z</time>
      </trkpt>
      <trkpt lat="44.99607" lon="6.45274">
        <ele>2346.9</ele>
        <time>2022-01-14T10:00:48Z</time>
      </trkpt>
      <trkpt lat="44.99607" lon="6.45274">
        <ele>2346.9</ele>
        <time>2022-01-14T10:00:49Z</time>
      </trkpt>
      <trkpt lat="44.99606" lon="6.45273">
        <ele>2345.9</ele>
        <time>2022-01-14T10:00:50Z</time>
      </trkpt>
      <trkpt lat="44.99606" lon="6.45273">
        <ele>2345.9</ele>
        <time>2022-01-14T10:00:51Z</time>
      </trkpt>
      <trkpt lat="44.99606" lon="6.45273">
        <ele>2345.9</ele>
        <time>2022-01-14T10:00:52Z</time>
      </trkpt>
      <trkpt lat="44.99606" lon="6.45273">
        <ele>2345.9</ele>
        <time>2022-01-14T10:00:53Z</time>
      </trkpt>
      <trkpt lat="44.99607" lon="6.45273">
        <ele>2346.9</ele>
        <time>2022-01-14T10:00:54Z</time>
      </trkpt>
      <trkpt lat="44.99607" lon="6.45273">
        <ele>2346.9</ele>
        <time>2022-01-14T10:00:55Z</time>
      </trkpt>
      <trkpt lat="44.99607" lon="6.45273">
        <ele>2346.9</ele>
        <time>2022-01-14T10:00:56Z</time>
      </trkpt>
      <trkpt lat="44.99606" lon="6.45272">
        <ele>2345.9</ele>
        <time>2022-01-14T10:00:57Z</time>
      </trkpt>
      <trkpt lat="44.99605" lon="6.45271">
        <ele>2345.9</ele>
        <time>2022-01-14T10:00:58Z</time>
      </trkpt>
      <trkpt lat="44.99604" lon="6.45271">
        <ele>2345.9</ele>
        <time>2022-01-14T10:00:59Z</time>
      </trkpt>
      <trkpt lat="44.99604" lon="6.45271">
        <ele>2345.9</ele>
        <time>2022-01-14T10:01:00Z</time>
      </trkpt>
      <trkpt lat="44.99604" lon="6.45271">
        <ele>2345.9</ele>
        <time>2022-01-14T10:01:01Z</time>
      </trkpt>
      <trkpt lat="44.99604" lon="6.45271">
        <ele>2345.9</ele>
        <time>2022-01-14T10:01:02Z</time>
      </trkpt>
      <trkpt lat="44.99604" lon="6.45271">
        <ele>2345.9</ele>
        <time>2022-01-14T10:01:03Z</time>
      </trkpt>
      <trkpt lat="44.99604" lon="6.45271">
        <ele>2345.9</ele>
        <time>2022-01-14T10:01:04Z</time>
      </trkpt>
      <trkpt lat="44.99604" lon="6.45271">
        <ele>2345.9</ele>
        <time>2022-01-14T10:01:05Z</time>
      </trkpt>
      <trkpt lat="44.99604" lon="6.45271">
        <ele>2345.9</ele>
        <time>2022-01-14T10:01:06Z</time>
      </trkpt>
      <trkpt lat="44.99604" lon="6.45271">
        <ele>2345.9</ele>
        <time>2022-01-14T10:01:07Z</time>
      </trkpt>
      <trkpt lat="44.99604" lon="6.45271">
        <ele>2345.9</ele>
        <time>2022-01-14T10:01:08Z</time>
      </trkpt>
      <trkpt lat="44.99603" lon="6.45271">
        <ele>2344.7</ele>
        <time>2022-01-14T10:01:09Z</time>
      </trkpt>
      <trkpt lat="44.99603" lon="6.45271">
        <ele>2344.7</ele>
        <time>2022-01-14T10:01:10Z</time>
      </trkpt>
      <trkpt lat="44.99603" lon="6.45271">
        <ele>2344.7</ele>
        <time>2022-01-14T10:01:11Z</time>
      </trkpt>
      <trkpt lat="44.99603" lon="6.45272">
        <ele>2344.7</ele>
        <time>2022-01-14T10:01:12Z</time>
      </trkpt>
      <trkpt lat="44.99603" lon="6.45272">
        <ele>2344.7</ele>
        <time>2022-01-14T10:01:13Z</time>
      </trkpt>
      <trkpt lat="44.99603" lon="6.45272">
        <ele>2344.7</ele>
        <time>2022-01-14T10:01:14Z</time>
      </trkpt>
      <trkpt lat="44.99603" lon="6.45272">
        <ele>2344.7</ele>
        <time>2022-01-14T10:01:15Z</time>
      </trkpt>
      <trkpt lat="44.99603" lon="6.45272">
        <ele>2344.7</ele>
        <time>2022-01-14T10:01:16Z</time>
      </trkpt>
      <trkpt lat="44.99603" lon="6.45272">
        <ele>2344.7</ele>
        <time>2022-01-14T10:01:17Z</time>
      </trkpt>
      <trkpt lat="44.99603" lon="6.45272">
        <ele>2344.7</ele>
        <time>2022-01-14T10:01:18Z</time>
      </trkpt>
      <trkpt lat="44.99603" lon="6.45272">
        <ele>2344.7</ele>
        <time>2022-01-14T10:01:19Z</time>
      </trkpt>
      <trkpt lat="44.99603" lon="6.45272">
        <ele>2344.7</ele>
        <time>2022-01-14T10:01:20Z</time>
      </trkpt>
      <trkpt lat="44.99602" lon="6.45272">
        <ele>2344.7</ele>
        <time>2022-01-14T10:01:21Z</time>
      </trkpt>
      <trkpt lat="44.99602" lon="6.45272">
        <ele>2344.7</ele>
        <time>2022-01-14T10:01:22Z</time>
      </trkpt>
      <trkpt lat="44.99602" lon="6.45272">
        <ele>2344.7</ele>
        <time>2022-01-14T10:01:23Z</time>
      </trkpt>
      <trkpt lat="44.99602" lon="6.45272">
        <ele>2344.7</ele>
        <time>2022-01-14T10:01:24Z</time>
      </trkpt>
      <trkpt lat="44.99602" lon="6.45272">
        <ele>2344.7</ele>
        <time>2022-01-14T10:01:25Z</time>
      </trkpt>
      <trkpt lat="44.99602" lon="6.45272">
        <ele>2344.7</ele>
        <time>2022-01-14T10:01:26Z</time>
      </trkpt>
      <trkpt lat="44.99602" lon="6.45272">
        <ele>2344.7</ele>
        <time>2022-01-14T10:01:27Z</time>
      </trkpt>
      <trkpt lat="44.99602" lon="6.45272">
        <ele>2344.7</ele>
        <time>2022-01-14T10:01:28Z</time>
      </trkpt>
      <trkpt lat="44.99602" lon="6.45272">
        <ele>2344.7</ele>
        <time>2022-01-14T10:01:29Z</time>
      </trkpt>
      <trkpt lat="44.99602" lon="6.45272">
        <ele>2344.7</ele>
        <time>2022-01-14T10:01:30Z</time>
      </trkpt>
      <trkpt lat="44.99602" lon="6.45272">
        <ele>2344.7</ele>
        <time>2022-01-14T10:01:31Z</time>
      </trkpt>
      <trkpt lat="44.99602" lon="6.45272">
        <ele>2344.7</ele>
        <time>2022-01-14T10:01:32Z</time>
      </trkpt>
      <trkpt lat="44.99601" lon="6.45272">
        <ele>2344.7</ele>
        <time>2022-01-14T10:01:33Z</time>
      </trkpt>
      <trkpt lat="44.99601" lon="6.45272">
        <ele>2344.7</ele>
        <time>2022-01-14T10:01:34Z</time>
      </trkpt>
      <trkpt lat="44.99601" lon="6.45272">
        <ele>2344.7</ele>
        <time>2022-01-14T10:01:35Z</time>
      </trkpt>
      <trkpt lat="44.99601" lon="6.45272">
        <ele>2344.7</ele>
        <time>2022-01-14T10:01:36Z</time>
      </trkpt>
      <trkpt lat="44.99601" lon="6.45273">
        <ele>2344.7</ele>
        <time>2022-01-14T10:01:37Z</time>
      </trkpt>
      <trkpt lat="44.99601" lon="6.45273">
        <ele>2344.7</ele>
        <time>2022-01-14T10:01:38Z</time>
      </trkpt>
      <trkpt lat="44.99601" lon="6.45273">
        <ele>2344.7</ele>
        <time>2022-01-14T10:01:39Z</time>
      </trkpt>
      <trkpt lat="44.99601" lon="6.45273">
        <ele>2344.7</ele>
        <time>2022-01-14T10:01:40Z</time>
      </trkpt>
      <trkpt lat="44.99601" lon="6.45273">
        <ele>2344.7</ele>
        <time>2022-01-14T10:01:41Z</time>
      </trkpt>
      <trkpt lat="44.99601" lon="6.45273">
        <ele>2344.7</ele>
        <time>2022-01-14T10:01:42Z</time>
      </trkpt>
      <trkpt lat="44.99601" lon="6.45273">
        <ele>2344.7</ele>
        <time>2022-01-14T10:01:43Z</time>
      </trkpt>
      <trkpt lat="44.99601" lon="6.45273">
        <ele>2344.7</ele>
        <time>2022-01-14T10:01:44Z</time>
      </trkpt>
      <trkpt lat="44.99601" lon="6.45273">
        <ele>2344.7</ele>
        <time>2022-01-14T10:01:45Z</time>
      </trkpt>
      <trkpt lat="44.99601" lon="6.45273">
        <ele>2344.7</ele>
        <time>2022-01-14T10:01:46Z</time>
      </trkpt>
      <trkpt lat="44.99601" lon="6.45273">
        <ele>2344.7</ele>
        <time>2022-01-14T10:01:47Z</time>
      </trkpt>
      <trkpt lat="44.99601" lon="6.45273">
        <ele>2344.7</ele>
        <time>2022-01-14T10:01:48Z</time>
      </trkpt>
      <trkpt lat="44.99601" lon="6.45274">
        <ele>2344.7</ele>
        <time>2022-01-14T10:01:49Z</time>
      </trkpt>
      <trkpt lat="44.99601" lon="6.45274">
        <ele>2344.7</ele>
        <time>2022-01-14T10:01:50Z</time>
      </trkpt>
      <trkpt lat="44.99601" lon="6.45274">
        <ele>2344.7</ele>
        <time>2022-01-14T10:01:51Z</time>
      </trkpt>
      <trkpt lat="44.99601" lon="6.45274">
        <ele>2344.7</ele>
        <time>2022-01-14T10:01:52Z</time>
      </trkpt>
      <trkpt lat="44.99601" lon="6.45274">
        <ele>2344.7</ele>
        <time>2022-01-14T10:01:53Z</time>
      </trkpt>
      <trkpt lat="44.996" lon="6.45274">
        <ele>2343.4</ele>
        <time>2022-01-14T10:01:54Z</time>
      </trkpt>
      <trkpt lat="44.996" lon="6.45274">
        <ele>2343.4</ele>
        <time>2022-01-14T10:01:55Z</time>
      </trkpt>
      <trkpt lat="44.996" lon="6.45274">
        <ele>2343.4</ele>
        <time>2022-01-14T10:01:56Z</time>
      </trkpt>
      <trkpt lat="44.996" lon="6.45274">
        <ele>2343.4</ele>
        <time>2022-01-14T10:01:57Z</time>
      </trkpt>
      <trkpt lat="44.996" lon="6.45274">
        <ele>2343.4</ele>
        <time>2022-01-14T10:01:58Z</time>
      </trkpt>
      <trkpt lat="44.996" lon="6.45274">
        <ele>2343.4</ele>
        <time>2022-01-14T10:01:59Z</time>
      </trkpt>
      <trkpt lat="44.996" lon="6.45274">
        <ele>2343.4</ele>
        <time>2022-01-14T10:02:00Z</time>
      </trkpt>
      <trkpt lat="44.996" lon="6.45273">
        <ele>2343.4</ele>
        <time>2022-01-14T10:02:01Z</time>
      </trkpt>
      <trkpt lat="44.99601" lon="6.45273">
        <ele>2344.7</ele>
        <time>2022-01-14T10:02:02Z</time>
      </trkpt>
      <trkpt lat="44.99601" lon="6.45272">
        <ele>2344.7</ele>
        <time>2022-01-14T10:02:03Z</time>
      </trkpt>
      <trkpt lat="44.99601" lon="6.45272">
        <ele>2344.7</ele>
        <time>2022-01-14T10:02:04Z</time>
      </trkpt>
      <trkpt lat="44.99601" lon="6.45272">
        <ele>2344.7</ele>
        <time>2022-01-14T10:02:05Z</time>
      </trkpt>
      <trkpt lat="44.99601" lon="6.45272">
        <ele>2344.7</ele>
        <time>2022-01-14T10:02:06Z</time>
      </trkpt>
      <trkpt lat="44.99601" lon="6.45272">
        <ele>2344.7</ele>
        <time>2022-01-14T10:02:07Z</time>
      </trkpt>
      <trkpt lat="44.99601" lon="6.45272">
        <ele>2344.7</ele>
        <time>2022-01-14T10:02:08Z</time>
      </trkpt>
      <trkpt lat="44.99601" lon="6.45272">
        <ele>2344.7</ele>
        <time>2022-01-14T10:02:09Z</time>
      </trkpt>
      <trkpt lat="44.99601" lon="6.45272">
        <ele>2344.7</ele>
        <time>2022-01-14T10:02:10Z</time>
      </trkpt>
      <trkpt lat="44.99601" lon="6.45272">
        <ele>2344.7</ele>
        <time>2022-01-14T10:02:11Z</time>
      </trkpt>
      <trkpt lat="44.99601" lon="6.45272">
        <ele>2344.7</ele>
        <time>2022-01-14T10:02:12Z</time>
      </trkpt>
      <trkpt lat="44.99601" lon="6.45272">
        <ele>2344.7</ele>
        <time>2022-01-14T10:02:13Z</time>
      </trkpt>
      <trkpt lat="44.99601" lon="6.45272">
        <ele>2344.7</ele>
        <time>2022-01-14T10:02:14Z</time>
      </trkpt>
      <trkpt lat="44.99601" lon="6.45273">
        <ele>2344.7</ele>
        <time>2022-01-14T10:02:15Z</time>
      </trkpt>
      <trkpt lat="44.99601" lon="6.45273">
        <ele>2344.7</ele>
        <time>2022-01-14T10:02:16Z</time>
      </trkpt>
      <trkpt lat="44.99601" lon="6.45274">
        <ele>2344.7</ele>
        <time>2022-01-14T10:02:17Z</time>
      </trkpt>
      <trkpt lat="44.99601" lon="6.45274">
        <ele>2344.7</ele>
        <time>2022-01-14T10:02:18Z</time>
      </trkpt>
      <trkpt lat="44.99601" lon="6.45274">
        <ele>2344.7</ele>
        <time>2022-01-14T10:02:19Z</time>
      </trkpt>
      <trkpt lat="44.99601" lon="6.45274">
        <ele>2344.7</ele>
        <time>2022-01-14T10:02:20Z</time>
      </trkpt>
      <trkpt lat="44.99601" lon="6.45274">
        <ele>2344.7</ele>
        <time>2022-01-14T10:02:21Z</time>
      </trkpt>
      <trkpt lat="44.99601" lon="6.45274">
        <ele>2344.7</ele>
        <time>2022-01-14T10:02:22Z</time>
      </trkpt>
      <trkpt lat="44.99601" lon="6.45274">
        <ele>2344.7</ele>
        <time>2022-01-14T10:02:23Z</time>
      </trkpt>
      <trkpt lat="44.99601" lon="6.45274">
        <ele>2344.7</ele>
        <time>2022-01-14T10:02:24Z</time>
      </trkpt>
      <trkpt lat="44.99601" lon="6.45274">
        <ele>2344.7</ele>
        <time>2022-01-14T10:02:25Z</time>
      </trkpt>
      <trkpt lat="44.99601" lon="6.45274">
        <ele>2344.7</ele>
        <time>2022-01-14T10:02:26Z</time>
      </trkpt>
      <trkpt lat="44.99601" lon="6.45274">
        <ele>2344.7</ele>
        <time>2022-01-14T10:02:27Z</time>
      </trkpt>
      <trkpt lat="44.99601" lon="6.45275">
        <ele>2344.7</ele>
        <time>2022-01-14T10:02:28Z</time>
      </trkpt>
      <trkpt lat="44.99601" lon="6.45275">
        <ele>2344.7</ele>
        <time>2022-01-14T10:02:29Z</time>
      </trkpt>
      <trkpt lat="44.99601" lon="6.45275">
        <ele>2344.7</ele>
        <time>2022-01-14T10:02:30Z</time>
      </trkpt>
      <trkpt lat="44.99601" lon="6.45275">
        <ele>2344.7</ele>
        <time>2022-01-14T10:02:31Z</time>
      </trkpt>
      <trkpt lat="44.99601" lon="6.45275">
        <ele>2344.7</ele>
        <time>2022-01-14T10:02:33Z</time>
      </trkpt>
      <trkpt lat="44.99601" lon="6.45275">
        <ele>2344.7</ele>
        <time>2022-01-14T10:02:34Z</time>
      </trkpt>
      <trkpt lat="44.99601" lon="6.45275">
        <ele>2344.7</ele>
        <time>2022-01-14T10:02:35Z</time>
      </trkpt>
      <trkpt lat="44.99601" lon="6.45275">
        <ele>2344.7</ele>
        <time>2022-01-14T10:02:36Z</time>
      </trkpt>
      <trkpt lat="44.99601" lon="6.45275">
        <ele>2344.7</ele>
        <time>2022-01-14T10:02:37Z</time>
      </trkpt>
      <trkpt lat="44.99601" lon="6.45275">
        <ele>2344.7</ele>
        <time>2022-01-14T10:02:38Z</time>
      </trkpt>
      <trkpt lat="44.99601" lon="6.45275">
        <ele>2344.7</ele>
        <time>2022-01-14T10:02:39Z</time>
      </trkpt>
      <trkpt lat="44.99602" lon="6.45274">
        <ele>2344.7</ele>
        <time>2022-01-14T10:02:40Z</time>
      </trkpt>
      <trkpt lat="44.99602" lon="6.45273">
        <ele>2344.7</ele>
        <time>2022-01-14T10:02:41Z</time>
      </trkpt>
      <trkpt lat="44.99602" lon="6.45272">
        <ele>2344.7</ele>
        <time>2022-01-14T10:02:42Z</time>
      </trkpt>
      <trkpt lat="44.99602" lon="6.45272">
        <ele>2344.7</ele>
        <time>2022-01-14T10:02:43Z</time>
      </trkpt>
      <trkpt lat="44.99602" lon="6.45271">
        <ele>2344.7</ele>
        <time>2022-01-14T10:02:44Z</time>
      </trkpt>
      <trkpt lat="44.99602" lon="6.4527">
        <ele>2345.2</ele>
        <time>2022-01-14T10:02:45Z</time>
      </trkpt>
      <trkpt lat="44.99602" lon="6.45269">
        <ele>2345.2</ele>
        <time>2022-01-14T10:02:46Z</time>
      </trkpt>
      <trkpt lat="44.99603" lon="6.45268">
        <ele>2345.2</ele>
        <time>2022-01-14T10:02:47Z</time>
      </trkpt>
      <trkpt lat="44.99603" lon="6.45268">
        <ele>2345.2</ele>
        <time>2022-01-14T10:02:48Z</time>
      </trkpt>
      <trkpt lat="44.99603" lon="6.45267">
        <ele>2345.2</ele>
        <time>2022-01-14T10:02:49Z</time>
      </trkpt>
      <trkpt lat="44.99603" lon="6.45267">
        <ele>2345.2</ele>
        <time>2022-01-14T10:02:50Z</time>
      </trkpt>
      <trkpt lat="44.99603" lon="6.45266">
        <ele>2345.6</ele>
        <time>2022-01-14T10:02:51Z</time>
      </trkpt>
      <trkpt lat="44.99603" lon="6.45267">
        <ele>2345.2</ele>
        <time>2022-01-14T10:02:52Z</time>
      </trkpt>
      <trkpt lat="44.99604" lon="6.45266">
        <ele>2346.8</ele>
        <time>2022-01-14T10:02:53Z</time>
      </trkpt>
      <trkpt lat="44.99604" lon="6.45265">
        <ele>2346.8</ele>
        <time>2022-01-14T10:02:54Z</time>
      </trkpt>
      <trkpt lat="44.99604" lon="6.45265">
        <ele>2346.8</ele>
        <time>2022-01-14T10:02:55Z</time>
      </trkpt>
      <trkpt lat="44.99604" lon="6.45265">
        <ele>2346.8</ele>
        <time>2022-01-14T10:02:56Z</time>
      </trkpt>
      <trkpt lat="44.99605" lon="6.45264">
        <ele>2346.8</ele>
        <time>2022-01-14T10:02:57Z</time>
      </trkpt>
      <trkpt lat="44.99605" lon="6.45264">
        <ele>2346.8</ele>
        <time>2022-01-14T10:02:58Z</time>
      </trkpt>
      <trkpt lat="44.99606" lon="6.45263">
        <ele>2346.8</ele>
        <time>2022-01-14T10:02:59Z</time>
      </trkpt>
      <trkpt lat="44.99606" lon="6.45263">
        <ele>2346.8</ele>
        <time>2022-01-14T10:03:00Z</time>
      </trkpt>
      <trkpt lat="44.99607" lon="6.45262">
        <ele>2348</ele>
        <time>2022-01-14T10:03:01Z</time>
      </trkpt>
      <trkpt lat="44.99607" lon="6.45261">
        <ele>2348</ele>
        <time>2022-01-14T10:03:02Z</time>
      </trkpt>
      <trkpt lat="44.99606" lon="6.45259">
        <ele>2347.1</ele>
        <time>2022-01-14T10:03:03Z</time>
      </trkpt>
      <trkpt lat="44.99606" lon="6.45258">
        <ele>2347.1</ele>
        <time>2022-01-14T10:03:04Z</time>
      </trkpt>
      <trkpt lat="44.99607" lon="6.45257">
        <ele>2348.3</ele>
        <time>2022-01-14T10:03:05Z</time>
      </trkpt>
      <trkpt lat="44.99607" lon="6.45257">
        <ele>2348.3</ele>
        <time>2022-01-14T10:03:06Z</time>
      </trkpt>
      <trkpt lat="44.99607" lon="6.45256">
        <ele>2348.3</ele>
        <time>2022-01-14T10:03:07Z</time>
      </trkpt>
      <trkpt lat="44.99607" lon="6.45256">
        <ele>2348.3</ele>
        <time>2022-01-14T10:03:08Z</time>
      </trkpt>
      <trkpt lat="44.99606" lon="6.45255">
        <ele>2347.4</ele>
        <time>2022-01-14T10:03:09Z</time>
      </trkpt>
      <trkpt lat="44.99606" lon="6.45254">
        <ele>2347.4</ele>
        <time>2022-01-14T10:03:10Z</time>
      </trkpt>
      <trkpt lat="44.99606" lon="6.45254">
        <ele>2347.4</ele>
        <time>2022-01-14T10:03:11Z</time>
      </trkpt>
      <trkpt lat="44.99606" lon="6.45253">
        <ele>2347.7</ele>
        <time>2022-01-14T10:03:12Z</time>
      </trkpt>
      <trkpt lat="44.99606" lon="6.45253">
        <ele>2347.7</ele>
        <time>2022-01-14T10:03:13Z</time>
      </trkpt>
      <trkpt lat="44.99606" lon="6.45252">
        <ele>2347.7</ele>
        <time>2022-01-14T10:03:14Z</time>
      </trkpt>
      <trkpt lat="44.99607" lon="6.45251">
        <ele>2348.6</ele>
        <time>2022-01-14T10:03:15Z</time>
      </trkpt>
      <trkpt lat="44.99607" lon="6.45251">
        <ele>2348.6</ele>
        <time>2022-01-14T10:03:16Z</time>
      </trkpt>
      <trkpt lat="44.99607" lon="6.45251">
        <ele>2348.6</ele>
        <time>2022-01-14T10:03:17Z</time>
      </trkpt>
      <trkpt lat="44.99607" lon="6.45251">
        <ele>2348.6</ele>
        <time>2022-01-14T10:03:18Z</time>
      </trkpt>
      <trkpt lat="44.99607" lon="6.4525">
        <ele>2348.6</ele>
        <time>2022-01-14T10:03:19Z</time>
      </trkpt>
      <trkpt lat="44.99607" lon="6.4525">
        <ele>2348.6</ele>
        <time>2022-01-14T10:03:20Z</time>
      </trkpt>
      <trkpt lat="44.99607" lon="6.45249">
        <ele>2348.9</ele>
        <time>2022-01-14T10:03:21Z</time>
      </trkpt>
      <trkpt lat="44.99607" lon="6.45249">
        <ele>2348.9</ele>
        <time>2022-01-14T10:03:22Z</time>
      </trkpt>
      <trkpt lat="44.99607" lon="6.45249">
        <ele>2348.9</ele>
        <time>2022-01-14T10:03:23Z</time>
      </trkpt>
      <trkpt lat="44.99608" lon="6.45249">
        <ele>2348.9</ele>
        <time>2022-01-14T10:03:24Z</time>
      </trkpt>
      <trkpt lat="44.99607" lon="6.45248">
        <ele>2348.9</ele>
        <time>2022-01-14T10:03:25Z</time>
      </trkpt>
      <trkpt lat="44.99607" lon="6.45247">
        <ele>2348.9</ele>
        <time>2022-01-14T10:03:26Z</time>
      </trkpt>
      <trkpt lat="44.99607" lon="6.45247">
        <ele>2348.9</ele>
        <time>2022-01-14T10:03:27Z</time>
      </trkpt>
      <trkpt lat="44.99607" lon="6.45247">
        <ele>2348.9</ele>
        <time>2022-01-14T10:03:28Z</time>
      </trkpt>
      <trkpt lat="44.99608" lon="6.45247">
        <ele>2348.9</ele>
        <time>2022-01-14T10:03:29Z</time>
      </trkpt>
      <trkpt lat="44.99608" lon="6.45247">
        <ele>2348.9</ele>
        <time>2022-01-14T10:03:30Z</time>
      </trkpt>
      <trkpt lat="44.99608" lon="6.45247">
        <ele>2348.9</ele>
        <time>2022-01-14T10:03:31Z</time>
      </trkpt>
      <trkpt lat="44.99608" lon="6.45247">
        <ele>2348.9</ele>
        <time>2022-01-14T10:03:32Z</time>
      </trkpt>
      <trkpt lat="44.99609" lon="6.45247">
        <ele>2348.9</ele>
        <time>2022-01-14T10:03:33Z</time>
      </trkpt>
      <trkpt lat="44.99609" lon="6.45246">
        <ele>2348.9</ele>
        <time>2022-01-14T10:03:34Z</time>
      </trkpt>
      <trkpt lat="44.99609" lon="6.45246">
        <ele>2348.9</ele>
        <time>2022-01-14T10:03:35Z</time>
      </trkpt>
      <trkpt lat="44.99609" lon="6.45246">
        <ele>2348.9</ele>
        <time>2022-01-14T10:03:36Z</time>
      </trkpt>
      <trkpt lat="44.99609" lon="6.45245">
        <ele>2349.3</ele>
        <time>2022-01-14T10:03:37Z</time>
      </trkpt>
      <trkpt lat="44.99609" lon="6.45245">
        <ele>2349.3</ele>
        <time>2022-01-14T10:03:38Z</time>
      </trkpt>
      <trkpt lat="44.99609" lon="6.45244">
        <ele>2349.3</ele>
        <time>2022-01-14T10:03:39Z</time>
      </trkpt>
      <trkpt lat="44.99609" lon="6.45244">
        <ele>2349.3</ele>
        <time>2022-01-14T10:03:40Z</time>
      </trkpt>
      <trkpt lat="44.99609" lon="6.45243">
        <ele>2349.3</ele>
        <time>2022-01-14T10:03:41Z</time>
      </trkpt>
      <trkpt lat="44.99609" lon="6.45243">
        <ele>2349.3</ele>
        <time>2022-01-14T10:03:42Z</time>
      </trkpt>
      <trkpt lat="44.99609" lon="6.45242">
        <ele>2349.3</ele>
        <time>2022-01-14T10:03:43Z</time>
      </trkpt>
      <trkpt lat="44.99609" lon="6.45242">
        <ele>2349.3</ele>
        <time>2022-01-14T10:03:44Z</time>
      </trkpt>
      <trkpt lat="44.99609" lon="6.45241">
        <ele>2349.3</ele>
        <time>2022-01-14T10:03:45Z</time>
      </trkpt>
      <trkpt lat="44.99609" lon="6.45241">
        <ele>2349.6</ele>
        <time>2022-01-14T10:03:46Z</time>
      </trkpt>
      <trkpt lat="44.99609" lon="6.4524">
        <ele>2349.6</ele>
        <time>2022-01-14T10:03:47Z</time>
      </trkpt>
      <trkpt lat="44.99609" lon="6.4524">
        <ele>2349.6</ele>
        <time>2022-01-14T10:03:48Z</time>
      </trkpt>
      <trkpt lat="44.99609" lon="6.45239">
        <ele>2349.6</ele>
        <time>2022-01-14T10:03:49Z</time>
      </trkpt>
      <trkpt lat="44.99608" lon="6.45238">
        <ele>2349.6</ele>
        <time>2022-01-14T10:03:50Z</time>
      </trkpt>
      <trkpt lat="44.99608" lon="6.45237">
        <ele>2349.6</ele>
        <time>2022-01-14T10:03:51Z</time>
      </trkpt>
      <trkpt lat="44.99608" lon="6.45237">
        <ele>2349.6</ele>
        <time>2022-01-14T10:03:52Z</time>
      </trkpt>
      <trkpt lat="44.99608" lon="6.45236">
        <ele>2350</ele>
        <time>2022-01-14T10:03:53Z</time>
      </trkpt>
      <trkpt lat="44.99608" lon="6.45236">
        <ele>2350</ele>
        <time>2022-01-14T10:03:54Z</time>
      </trkpt>
      <trkpt lat="44.99608" lon="6.45236">
        <ele>2350</ele>
        <time>2022-01-14T10:03:55Z</time>
      </trkpt>
      <trkpt lat="44.99608" lon="6.45236">
        <ele>2350</ele>
        <time>2022-01-14T10:03:56Z</time>
      </trkpt>
      <trkpt lat="44.99608" lon="6.45235">
        <ele>2350</ele>
        <time>2022-01-14T10:03:57Z</time>
      </trkpt>
      <trkpt lat="44.99608" lon="6.45234">
        <ele>2350</ele>
        <time>2022-01-14T10:03:58Z</time>
      </trkpt>
      <trkpt lat="44.99607" lon="6.45234">
        <ele>2350</ele>
        <time>2022-01-14T10:03:59Z</time>
      </trkpt>
      <trkpt lat="44.99607" lon="6.45234">
        <ele>2350</ele>
        <time>2022-01-14T10:04:00Z</time>
      </trkpt>
      <trkpt lat="44.99607" lon="6.45233">
        <ele>2350</ele>
        <time>2022-01-14T10:04:01Z</time>
      </trkpt>
      <trkpt lat="44.99607" lon="6.45232">
        <ele>2350</ele>
        <time>2022-01-14T10:04:02Z</time>
      </trkpt>
      <trkpt lat="44.99607" lon="6.45232">
        <ele>2350.6</ele>
        <time>2022-01-14T10:04:03Z</time>
      </trkpt>
      <trkpt lat="44.99606" lon="6.45231">
        <ele>2349.3</ele>
        <time>2022-01-14T10:04:04Z</time>
      </trkpt>
      <trkpt lat="44.99606" lon="6.45231">
        <ele>2349.3</ele>
        <time>2022-01-14T10:04:05Z</time>
      </trkpt>
      <trkpt lat="44.99606" lon="6.4523">
        <ele>2349.3</ele>
        <time>2022-01-14T10:04:06Z</time>
      </trkpt>
      <trkpt lat="44.99606" lon="6.4523">
        <ele>2349.3</ele>
        <time>2022-01-14T10:04:07Z</time>
      </trkpt>
      <trkpt lat="44.99606" lon="6.4523">
        <ele>2349.3</ele>
        <time>2022-01-14T10:04:08Z</time>
      </trkpt>
      <trkpt lat="44.99606" lon="6.4523">
        <ele>2349.3</ele>
        <time>2022-01-14T10:04:09Z</time>
      </trkpt>
      <trkpt lat="44.99605" lon="6.45229">
        <ele>2349.3</ele>
        <time>2022-01-14T10:04:10Z</time>
      </trkpt>
      <trkpt lat="44.99605" lon="6.4523">
        <ele>2349.3</ele>
        <time>2022-01-14T10:04:11Z</time>
      </trkpt>
      <trkpt lat="44.99605" lon="6.45229">
        <ele>2349.3</ele>
        <time>2022-01-14T10:04:12Z</time>
      </trkpt>
      <trkpt lat="44.99605" lon="6.45228">
        <ele>2350.3</ele>
        <time>2022-01-14T10:04:13Z</time>
      </trkpt>
      <trkpt lat="44.99605" lon="6.45227">
        <ele>2350.3</ele>
        <time>2022-01-14T10:04:14Z</time>
      </trkpt>
      <trkpt lat="44.99605" lon="6.45227">
        <ele>2350.3</ele>
        <time>2022-01-14T10:04:15Z</time>
      </trkpt>
      <trkpt lat="44.99603" lon="6.45227">
        <ele>2349.7</ele>
        <time>2022-01-14T10:04:16Z</time>
      </trkpt>
      <trkpt lat="44.99603" lon="6.45227">
        <ele>2349.7</ele>
        <time>2022-01-14T10:04:17Z</time>
      </trkpt>
      <trkpt lat="44.99603" lon="6.45227">
        <ele>2349.7</ele>
        <time>2022-01-14T10:04:18Z</time>
      </trkpt>
      <trkpt lat="44.99603" lon="6.45227">
        <ele>2349.7</ele>
        <time>2022-01-14T10:04:19Z</time>
      </trkpt>
      <trkpt lat="44.99603" lon="6.45227">
        <ele>2349.7</ele>
        <time>2022-01-14T10:04:20Z</time>
      </trkpt>
      <trkpt lat="44.99603" lon="6.45227">
        <ele>2349.7</ele>
        <time>2022-01-14T10:04:21Z</time>
      </trkpt>
      <trkpt lat="44.99603" lon="6.45225">
        <ele>2349.7</ele>
        <time>2022-01-14T10:04:22Z</time>
      </trkpt>
      <trkpt lat="44.99603" lon="6.45224">
        <ele>2349.7</ele>
        <time>2022-01-14T10:04:23Z</time>
      </trkpt>
      <trkpt lat="44.99603" lon="6.45224">
        <ele>2350.6</ele>
        <time>2022-01-14T10:04:24Z</time>
      </trkpt>
      <trkpt lat="44.99603" lon="6.45223">
        <ele>2350.6</ele>
        <time>2022-01-14T10:04:25Z</time>
      </trkpt>
      <trkpt lat="44.99603" lon="6.45223">
        <ele>2350.6</ele>
        <time>2022-01-14T10:04:26Z</time>
      </trkpt>
      <trkpt lat="44.99604" lon="6.45223">
        <ele>2351.2</ele>
        <time>2022-01-14T10:04:27Z</time>
      </trkpt>
      <trkpt lat="44.99604" lon="6.45222">
        <ele>2351.2</ele>
        <time>2022-01-14T10:04:28Z</time>
      </trkpt>
      <trkpt lat="44.99604" lon="6.45222">
        <ele>2351.2</ele>
        <time>2022-01-14T10:04:29Z</time>
      </trkpt>
      <trkpt lat="44.99605" lon="6.45222">
        <ele>2351.2</ele>
        <time>2022-01-14T10:04:30Z</time>
      </trkpt>
      <trkpt lat="44.99605" lon="6.45221">
        <ele>2351.2</ele>
        <time>2022-01-14T10:04:31Z</time>
      </trkpt>
      <trkpt lat="44.99606" lon="6.4522">
        <ele>2351.2</ele>
        <time>2022-01-14T10:04:32Z</time>
      </trkpt>
      <trkpt lat="44.99606" lon="6.4522">
        <ele>2351.2</ele>
        <time>2022-01-14T10:04:33Z</time>
      </trkpt>
      <trkpt lat="44.99607" lon="6.4522">
        <ele>2352.7</ele>
        <time>2022-01-14T10:04:34Z</time>
      </trkpt>
      <trkpt lat="44.99608" lon="6.45221">
        <ele>2352.7</ele>
        <time>2022-01-14T10:04:35Z</time>
      </trkpt>
      <trkpt lat="44.99608" lon="6.4522">
        <ele>2352.7</ele>
        <time>2022-01-14T10:04:36Z</time>
      </trkpt>
      <trkpt lat="44.99609" lon="6.45219">
        <ele>2353.7</ele>
        <time>2022-01-14T10:04:37Z</time>
      </trkpt>
      <trkpt lat="44.99609" lon="6.45219">
        <ele>2353.7</ele>
        <time>2022-01-14T10:04:38Z</time>
      </trkpt>
      <trkpt lat="44.99609" lon="6.45219">
        <ele>2353.7</ele>
        <time>2022-01-14T10:04:39Z</time>
      </trkpt>
      <trkpt lat="44.99608" lon="6.45219">
        <ele>2353.7</ele>
        <time>2022-01-14T10:04:40Z</time>
      </trkpt>
      <trkpt lat="44.99608" lon="6.45219">
        <ele>2353.7</ele>
        <time>2022-01-14T10:04:41Z</time>
      </trkpt>
      <trkpt lat="44.99609" lon="6.45219">
        <ele>2353.7</ele>
        <time>2022-01-14T10:04:42Z</time>
      </trkpt>
      <trkpt lat="44.99609" lon="6.45218">
        <ele>2353.7</ele>
        <time>2022-01-14T10:04:43Z</time>
      </trkpt>
      <trkpt lat="44.9961" lon="6.45218">
        <ele>2355.4</ele>
        <time>2022-01-14T10:04:44Z</time>
      </trkpt>
      <trkpt lat="44.9961" lon="6.45218">
        <ele>2355.4</ele>
        <time>2022-01-14T10:04:45Z</time>
      </trkpt>
      <trkpt lat="44.9961" lon="6.45217">
        <ele>2355.4</ele>
        <time>2022-01-14T10:04:46Z</time>
      </trkpt>
      <trkpt lat="44.9961" lon="6.45217">
        <ele>2353.7</ele>
        <time>2022-01-14T10:04:47Z</time>
      </trkpt>
      <trkpt lat="44.9961" lon="6.45216">
        <ele>2355.4</ele>
        <time>2022-01-14T10:04:48Z</time>
      </trkpt>
      <trkpt lat="44.9961" lon="6.45215">
        <ele>2355.4</ele>
        <time>2022-01-14T10:04:49Z</time>
      </trkpt>
      <trkpt lat="44.9961" lon="6.45213">
        <ele>2356.8</ele>
        <time>2022-01-14T10:04:50Z</time>
      </trkpt>
      <trkpt lat="44.9961" lon="6.45213">
        <ele>2355</ele>
        <time>2022-01-14T10:04:51Z</time>
      </trkpt>
      <trkpt lat="44.99609" lon="6.45214">
        <ele>2355</ele>
        <time>2022-01-14T10:04:52Z</time>
      </trkpt>
      <trkpt lat="44.99609" lon="6.45214">
        <ele>2355</ele>
        <time>2022-01-14T10:04:53Z</time>
      </trkpt>
      <trkpt lat="44.99609" lon="6.45214">
        <ele>2355</ele>
        <time>2022-01-14T10:04:54Z</time>
      </trkpt>
      <trkpt lat="44.99609" lon="6.45213">
        <ele>2355</ele>
        <time>2022-01-14T10:04:55Z</time>
      </trkpt>
      <trkpt lat="44.99609" lon="6.45214">
        <ele>2355</ele>
        <time>2022-01-14T10:04:56Z</time>
      </trkpt>
      <trkpt lat="44.99609" lon="6.45214">
        <ele>2355</ele>
        <time>2022-01-14T10:04:57Z</time>
      </trkpt>
      <trkpt lat="44.99609" lon="6.45213">
        <ele>2355</ele>
        <time>2022-01-14T10:04:58Z</time>
      </trkpt>
      <trkpt lat="44.99608" lon="6.45213">
        <ele>2355</ele>
        <time>2022-01-14T10:04:59Z</time>
      </trkpt>
      <trkpt lat="44.99608" lon="6.45213">
        <ele>2355</ele>
        <time>2022-01-14T10:05:00Z</time>
      </trkpt>
      <trkpt lat="44.99608" lon="6.45212">
        <ele>2355</ele>
        <time>2022-01-14T10:05:01Z</time>
      </trkpt>
      <trkpt lat="44.99608" lon="6.45212">
        <ele>2355</ele>
        <time>2022-01-14T10:05:02Z</time>
      </trkpt>
      <trkpt lat="44.99608" lon="6.45211">
        <ele>2355</ele>
        <time>2022-01-14T10:05:03Z</time>
      </trkpt>
      <trkpt lat="44.99608" lon="6.4521">
        <ele>2356.8</ele>
        <time>2022-01-14T10:05:04Z</time>
      </trkpt>
      <trkpt lat="44.99608" lon="6.45209">
        <ele>2356.8</ele>
        <time>2022-01-14T10:05:05Z</time>
      </trkpt>
      <trkpt lat="44.99609" lon="6.45209">
        <ele>2356.8</ele>
        <time>2022-01-14T10:05:06Z</time>
      </trkpt>
      <trkpt lat="44.99608" lon="6.45208">
        <ele>2356.8</ele>
        <time>2022-01-14T10:05:07Z</time>
      </trkpt>
      <trkpt lat="44.99609" lon="6.45207">
        <ele>2356.8</ele>
        <time>2022-01-14T10:05:08Z</time>
      </trkpt>
      <trkpt lat="44.99609" lon="6.45207">
        <ele>2356.8</ele>
        <time>2022-01-14T10:05:09Z</time>
      </trkpt>
      <trkpt lat="44.9961" lon="6.45205">
        <ele>2360.3</ele>
        <time>2022-01-14T10:05:10Z</time>
      </trkpt>
      <trkpt lat="44.9961" lon="6.45205">
        <ele>2360.3</ele>
        <time>2022-01-14T10:05:11Z</time>
      </trkpt>
      <trkpt lat="44.9961" lon="6.45205">
        <ele>2360.3</ele>
        <time>2022-01-14T10:05:12Z</time>
      </trkpt>
      <trkpt lat="44.9961" lon="6.45204">
        <ele>2360.3</ele>
        <time>2022-01-14T10:05:13Z</time>
      </trkpt>
      <trkpt lat="44.99609" lon="6.45204">
        <ele>2358.5</ele>
        <time>2022-01-14T10:05:14Z</time>
      </trkpt>
      <trkpt lat="44.9961" lon="6.45204">
        <ele>2358.5</ele>
        <time>2022-01-14T10:05:15Z</time>
      </trkpt>
      <trkpt lat="44.9961" lon="6.45203">
        <ele>2360.3</ele>
        <time>2022-01-14T10:05:16Z</time>
      </trkpt>
      <trkpt lat="44.9961" lon="6.45202">
        <ele>2362</ele>
        <time>2022-01-14T10:05:17Z</time>
      </trkpt>
      <trkpt lat="44.99611" lon="6.45201">
        <ele>2362</ele>
        <time>2022-01-14T10:05:18Z</time>
      </trkpt>
      <trkpt lat="44.99611" lon="6.452">
        <ele>2362</ele>
        <time>2022-01-14T10:05:19Z</time>
      </trkpt>
      <trkpt lat="44.99612" lon="6.452">
        <ele>2362</ele>
        <time>2022-01-14T10:05:20Z</time>
      </trkpt>
      <trkpt lat="44.99612" lon="6.45199">
        <ele>2362</ele>
        <time>2022-01-14T10:05:21Z</time>
      </trkpt>
      <trkpt lat="44.99612" lon="6.45198">
        <ele>2362</ele>
        <time>2022-01-14T10:05:22Z</time>
      </trkpt>
      <trkpt lat="44.99613" lon="6.45198">
        <ele>2363.8</ele>
        <time>2022-01-14T10:05:23Z</time>
      </trkpt>
      <trkpt lat="44.99613" lon="6.45198">
        <ele>2363.8</ele>
        <time>2022-01-14T10:05:24Z</time>
      </trkpt>
      <trkpt lat="44.99613" lon="6.45198">
        <ele>2363.8</ele>
        <time>2022-01-14T10:05:25Z</time>
      </trkpt>
      <trkpt lat="44.99613" lon="6.45198">
        <ele>2363.8</ele>
        <time>2022-01-14T10:05:26Z</time>
      </trkpt>
      <trkpt lat="44.99613" lon="6.45198">
        <ele>2363.4</ele>
        <time>2022-01-14T10:05:27Z</time>
      </trkpt>
      <trkpt lat="44.99613" lon="6.45197">
        <ele>2365.2</ele>
        <time>2022-01-14T10:05:28Z</time>
      </trkpt>
      <trkpt lat="44.99613" lon="6.45196">
        <ele>2365.2</ele>
        <time>2022-01-14T10:05:29Z</time>
      </trkpt>
      <trkpt lat="44.99612" lon="6.45196">
        <ele>2363.4</ele>
        <time>2022-01-14T10:05:30Z</time>
      </trkpt>
      <trkpt lat="44.99612" lon="6.45196">
        <ele>2363.4</ele>
        <time>2022-01-14T10:05:31Z</time>
      </trkpt>
      <trkpt lat="44.99612" lon="6.45196">
        <ele>2363.4</ele>
        <time>2022-01-14T10:05:32Z</time>
      </trkpt>
      <trkpt lat="44.99613" lon="6.45196">
        <ele>2363.4</ele>
        <time>2022-01-14T10:05:33Z</time>
      </trkpt>
      <trkpt lat="44.99613" lon="6.45196">
        <ele>2363.4</ele>
        <time>2022-01-14T10:05:34Z</time>
      </trkpt>
      <trkpt lat="44.99612" lon="6.45195">
        <ele>2363.4</ele>
        <time>2022-01-14T10:05:35Z</time>
      </trkpt>
      <trkpt lat="44.99612" lon="6.45194">
        <ele>2363.4</ele>
        <time>2022-01-14T10:05:36Z</time>
      </trkpt>
      <trkpt lat="44.99612" lon="6.45194">
        <ele>2363.4</ele>
        <time>2022-01-14T10:05:37Z</time>
      </trkpt>
      <trkpt lat="44.99612" lon="6.45194">
        <ele>2363.4</ele>
        <time>2022-01-14T10:05:38Z</time>
      </trkpt>
      <trkpt lat="44.99612" lon="6.45194">
        <ele>2364.3</ele>
        <time>2022-01-14T10:05:39Z</time>
      </trkpt>
      <trkpt lat="44.99612" lon="6.45193">
        <ele>2364.3</ele>
        <time>2022-01-14T10:05:40Z</time>
      </trkpt>
      <trkpt lat="44.99612" lon="6.45193">
        <ele>2364.3</ele>
        <time>2022-01-14T10:05:41Z</time>
      </trkpt>
      <trkpt lat="44.99612" lon="6.45193">
        <ele>2364.3</ele>
        <time>2022-01-14T10:05:42Z</time>
      </trkpt>
      <trkpt lat="44.99612" lon="6.45193">
        <ele>2364.3</ele>
        <time>2022-01-14T10:05:43Z</time>
      </trkpt>
      <trkpt lat="44.99611" lon="6.45192">
        <ele>2364.3</ele>
        <time>2022-01-14T10:05:44Z</time>
      </trkpt>
      <trkpt lat="44.99611" lon="6.45191">
        <ele>2364.3</ele>
        <time>2022-01-14T10:05:45Z</time>
      </trkpt>
      <trkpt lat="44.9961" lon="6.4519">
        <ele>2364.3</ele>
        <time>2022-01-14T10:05:46Z</time>
      </trkpt>
      <trkpt lat="44.9961" lon="6.4519">
        <ele>2364.3</ele>
        <time>2022-01-14T10:05:47Z</time>
      </trkpt>
      <trkpt lat="44.9961" lon="6.45189">
        <ele>2364.3</ele>
        <time>2022-01-14T10:05:48Z</time>
      </trkpt>
      <trkpt lat="44.9961" lon="6.45189">
        <ele>2365.2</ele>
        <time>2022-01-14T10:05:49Z</time>
      </trkpt>
      <trkpt lat="44.9961" lon="6.45188">
        <ele>2365.2</ele>
        <time>2022-01-14T10:05:50Z</time>
      </trkpt>
      <trkpt lat="44.9961" lon="6.45187">
        <ele>2365.2</ele>
        <time>2022-01-14T10:05:51Z</time>
      </trkpt>
      <trkpt lat="44.9961" lon="6.45186">
        <ele>2363.6</ele>
        <time>2022-01-14T10:05:52Z</time>
      </trkpt>
      <trkpt lat="44.99609" lon="6.45185">
        <ele>2364.6</ele>
        <time>2022-01-14T10:05:53Z</time>
      </trkpt>
      <trkpt lat="44.99609" lon="6.45184">
        <ele>2364.6</ele>
        <time>2022-01-14T10:05:54Z</time>
      </trkpt>
      <trkpt lat="44.99609" lon="6.45183">
        <ele>2364.6</ele>
        <time>2022-01-14T10:05:55Z</time>
      </trkpt>
      <trkpt lat="44.99609" lon="6.45183">
        <ele>2364.6</ele>
        <time>2022-01-14T10:05:56Z</time>
      </trkpt>
      <trkpt lat="44.9961" lon="6.45183">
        <ele>2364.6</ele>
        <time>2022-01-14T10:05:57Z</time>
      </trkpt>
      <trkpt lat="44.99609" lon="6.45182">
        <ele>2364.6</ele>
        <time>2022-01-14T10:05:58Z</time>
      </trkpt>
      <trkpt lat="44.99609" lon="6.45182">
        <ele>2364.6</ele>
        <time>2022-01-14T10:05:59Z</time>
      </trkpt>
      <trkpt lat="44.9961" lon="6.45181">
        <ele>2366.1</ele>
        <time>2022-01-14T10:06:00Z</time>
      </trkpt>
      <trkpt lat="44.9961" lon="6.45181">
        <ele>2366.1</ele>
        <time>2022-01-14T10:06:01Z</time>
      </trkpt>
      <trkpt lat="44.99609" lon="6.4518">
        <ele>2365.5</ele>
        <time>2022-01-14T10:06:02Z</time>
      </trkpt>
      <trkpt lat="44.99609" lon="6.4518">
        <ele>2365.5</ele>
        <time>2022-01-14T10:06:03Z</time>
      </trkpt>
      <trkpt lat="44.9961" lon="6.4518">
        <ele>2367</ele>
        <time>2022-01-14T10:06:04Z</time>
      </trkpt>
      <trkpt lat="44.9961" lon="6.45178">
        <ele>2367</ele>
        <time>2022-01-14T10:06:05Z</time>
      </trkpt>
      <trkpt lat="44.9961" lon="6.45177">
        <ele>2367</ele>
        <time>2022-01-14T10:06:06Z</time>
      </trkpt>
      <trkpt lat="44.9961" lon="6.45175">
        <ele>2368</ele>
        <time>2022-01-14T10:06:07Z</time>
      </trkpt>
      <trkpt lat="44.9961" lon="6.45174">
        <ele>2368</ele>
        <time>2022-01-14T10:06:08Z</time>
      </trkpt>
      <trkpt lat="44.99609" lon="6.45173">
        <ele>2366.5</ele>
        <time>2022-01-14T10:06:09Z</time>
      </trkpt>
      <trkpt lat="44.9961" lon="6.45171">
        <ele>2369</ele>
        <time>2022-01-14T10:06:10Z</time>
      </trkpt>
      <trkpt lat="44.9961" lon="6.4517">
        <ele>2369</ele>
        <time>2022-01-14T10:06:11Z</time>
      </trkpt>
      <trkpt lat="44.99609" lon="6.45169">
        <ele>2367.5</ele>
        <time>2022-01-14T10:06:12Z</time>
      </trkpt>
      <trkpt lat="44.99609" lon="6.45168">
        <ele>2368.5</ele>
        <time>2022-01-14T10:06:13Z</time>
      </trkpt>
      <trkpt lat="44.99609" lon="6.45166">
        <ele>2368.5</ele>
        <time>2022-01-14T10:06:14Z</time>
      </trkpt>
      <trkpt lat="44.99609" lon="6.45166">
        <ele>2368.5</ele>
        <time>2022-01-14T10:06:15Z</time>
      </trkpt>
      <trkpt lat="44.99609" lon="6.45166">
        <ele>2368.5</ele>
        <time>2022-01-14T10:06:16Z</time>
      </trkpt>
      <trkpt lat="44.99609" lon="6.45165">
        <ele>2368.5</ele>
        <time>2022-01-14T10:06:17Z</time>
      </trkpt>
      <trkpt lat="44.99609" lon="6.45165">
        <ele>2368.5</ele>
        <time>2022-01-14T10:06:18Z</time>
      </trkpt>
      <trkpt lat="44.99609" lon="6.45165">
        <ele>2368.5</ele>
        <time>2022-01-14T10:06:19Z</time>
      </trkpt>
      <trkpt lat="44.99609" lon="6.45164">
        <ele>2368.5</ele>
        <time>2022-01-14T10:06:20Z</time>
      </trkpt>
      <trkpt lat="44.99609" lon="6.45164">
        <ele>2368.5</ele>
        <time>2022-01-14T10:06:21Z</time>
      </trkpt>
      <trkpt lat="44.99608" lon="6.45164">
        <ele>2368.5</ele>
        <time>2022-01-14T10:06:22Z</time>
      </trkpt>
      <trkpt lat="44.99608" lon="6.45163">
        <ele>2369.6</ele>
        <time>2022-01-14T10:06:23Z</time>
      </trkpt>
      <trkpt lat="44.99608" lon="6.45164">
        <ele>2368.5</ele>
        <time>2022-01-14T10:06:24Z</time>
      </trkpt>
      <trkpt lat="44.99608" lon="6.45164">
        <ele>2368.5</ele>
        <time>2022-01-14T10:06:25Z</time>
      </trkpt>
      <trkpt lat="44.99608" lon="6.45164">
        <ele>2368.5</ele>
        <time>2022-01-14T10:06:26Z</time>
      </trkpt>
      <trkpt lat="44.99607" lon="6.45163">
        <ele>2369.6</ele>
        <time>2022-01-14T10:06:27Z</time>
      </trkpt>
      <trkpt lat="44.99607" lon="6.45163">
        <ele>2369.6</ele>
        <time>2022-01-14T10:06:28Z</time>
      </trkpt>
      <trkpt lat="44.99606" lon="6.45163">
        <ele>2368.2</ele>
        <time>2022-01-14T10:06:29Z</time>
      </trkpt>
      <trkpt lat="44.99605" lon="6.45162">
        <ele>2368.2</ele>
        <time>2022-01-14T10:06:30Z</time>
      </trkpt>
      <trkpt lat="44.99605" lon="6.45162">
        <ele>2368.2</ele>
        <time>2022-01-14T10:06:31Z</time>
      </trkpt>
      <trkpt lat="44.99604" lon="6.45161">
        <ele>2368.2</ele>
        <time>2022-01-14T10:06:32Z</time>
      </trkpt>
      <trkpt lat="44.99604" lon="6.4516">
        <ele>2368.2</ele>
        <time>2022-01-14T10:06:33Z</time>
      </trkpt>
      <trkpt lat="44.99603" lon="6.4516">
        <ele>2366.9</ele>
        <time>2022-01-14T10:06:34Z</time>
      </trkpt>
      <trkpt lat="44.99602" lon="6.45158">
        <ele>2368.2</ele>
        <time>2022-01-14T10:06:35Z</time>
      </trkpt>
      <trkpt lat="44.99602" lon="6.45158">
        <ele>2368.2</ele>
        <time>2022-01-14T10:06:36Z</time>
      </trkpt>
      <trkpt lat="44.99603" lon="6.45157">
        <ele>2368.2</ele>
        <time>2022-01-14T10:06:37Z</time>
      </trkpt>
      <trkpt lat="44.99602" lon="6.45157">
        <ele>2368.2</ele>
        <time>2022-01-14T10:06:38Z</time>
      </trkpt>
      <trkpt lat="44.99602" lon="6.45156">
        <ele>2368.2</ele>
        <time>2022-01-14T10:06:39Z</time>
      </trkpt>
      <trkpt lat="44.99602" lon="6.45156">
        <ele>2368.2</ele>
        <time>2022-01-14T10:06:40Z</time>
      </trkpt>
      <trkpt lat="44.99602" lon="6.45155">
        <ele>2368.2</ele>
        <time>2022-01-14T10:06:41Z</time>
      </trkpt>
      <trkpt lat="44.99603" lon="6.45154">
        <ele>2369.4</ele>
        <time>2022-01-14T10:06:42Z</time>
      </trkpt>
      <trkpt lat="44.99603" lon="6.45154">
        <ele>2369.4</ele>
        <time>2022-01-14T10:06:43Z</time>
      </trkpt>
      <trkpt lat="44.99603" lon="6.45154">
        <ele>2369.4</ele>
        <time>2022-01-14T10:06:44Z</time>
      </trkpt>
      <trkpt lat="44.99603" lon="6.45153">
        <ele>2369.4</ele>
        <time>2022-01-14T10:06:45Z</time>
      </trkpt>
      <trkpt lat="44.99603" lon="6.45153">
        <ele>2369.4</ele>
        <time>2022-01-14T10:06:46Z</time>
      </trkpt>
      <trkpt lat="44.99603" lon="6.45153">
        <ele>2369.4</ele>
        <time>2022-01-14T10:06:47Z</time>
      </trkpt>
      <trkpt lat="44.99603" lon="6.45153">
        <ele>2369.4</ele>
        <time>2022-01-14T10:06:48Z</time>
      </trkpt>
      <trkpt lat="44.99603" lon="6.45151">
        <ele>2369.4</ele>
        <time>2022-01-14T10:06:49Z</time>
      </trkpt>
      <trkpt lat="44.99603" lon="6.4515">
        <ele>2370.7</ele>
        <time>2022-01-14T10:06:50Z</time>
      </trkpt>
      <trkpt lat="44.99602" lon="6.4515">
        <ele>2370.7</ele>
        <time>2022-01-14T10:06:51Z</time>
      </trkpt>
      <trkpt lat="44.99603" lon="6.45149">
        <ele>2370.7</ele>
        <time>2022-01-14T10:06:52Z</time>
      </trkpt>
      <trkpt lat="44.99603" lon="6.45149">
        <ele>2370.7</ele>
        <time>2022-01-14T10:06:53Z</time>
      </trkpt>
      <trkpt lat="44.99603" lon="6.45148">
        <ele>2370.7</ele>
        <time>2022-01-14T10:06:54Z</time>
      </trkpt>
      <trkpt lat="44.99602" lon="6.45148">
        <ele>2370.7</ele>
        <time>2022-01-14T10:06:55Z</time>
      </trkpt>
      <trkpt lat="44.99602" lon="6.45148">
        <ele>2370.7</ele>
        <time>2022-01-14T10:06:56Z</time>
      </trkpt>
      <trkpt lat="44.99602" lon="6.45148">
        <ele>2370.7</ele>
        <time>2022-01-14T10:06:57Z</time>
      </trkpt>
      <trkpt lat="44.99601" lon="6.45148">
        <ele>2370.7</ele>
        <time>2022-01-14T10:06:58Z</time>
      </trkpt>
      <trkpt lat="44.99601" lon="6.45148">
        <ele>2370.7</ele>
        <time>2022-01-14T10:06:59Z</time>
      </trkpt>
      <trkpt lat="44.99601" lon="6.45148">
        <ele>2370.7</ele>
        <time>2022-01-14T10:07:00Z</time>
      </trkpt>
      <trkpt lat="44.99601" lon="6.45148">
        <ele>2370.7</ele>
        <time>2022-01-14T10:07:01Z</time>
      </trkpt>
      <trkpt lat="44.99601" lon="6.45148">
        <ele>2370.7</ele>
        <time>2022-01-14T10:07:02Z</time>
      </trkpt>
      <trkpt lat="44.99601" lon="6.45148">
        <ele>2370.7</ele>
        <time>2022-01-14T10:07:03Z</time>
      </trkpt>
      <trkpt lat="44.99601" lon="6.45147">
        <ele>2370.7</ele>
        <time>2022-01-14T10:07:04Z</time>
      </trkpt>
      <trkpt lat="44.99601" lon="6.45147">
        <ele>2370.7</ele>
        <time>2022-01-14T10:07:05Z</time>
      </trkpt>
      <trkpt lat="44.996" lon="6.45147">
        <ele>2369.4</ele>
        <time>2022-01-14T10:07:06Z</time>
      </trkpt>
      <trkpt lat="44.996" lon="6.45147">
        <ele>2369.4</ele>
        <time>2022-01-14T10:07:07Z</time>
      </trkpt>
      <trkpt lat="44.99601" lon="6.45147">
        <ele>2370.7</ele>
        <time>2022-01-14T10:07:08Z</time>
      </trkpt>
      <trkpt lat="44.996" lon="6.45147">
        <ele>2369.4</ele>
        <time>2022-01-14T10:07:09Z</time>
      </trkpt>
      <trkpt lat="44.99599" lon="6.45146">
        <ele>2370.6</ele>
        <time>2022-01-14T10:07:10Z</time>
      </trkpt>
      <trkpt lat="44.99599" lon="6.45146">
        <ele>2370.6</ele>
        <time>2022-01-14T10:07:11Z</time>
      </trkpt>
      <trkpt lat="44.99598" lon="6.45145">
        <ele>2370.6</ele>
        <time>2022-01-14T10:07:12Z</time>
      </trkpt>
      <trkpt lat="44.99597" lon="6.45143">
        <ele>2369.3</ele>
        <time>2022-01-14T10:07:13Z</time>
      </trkpt>
      <trkpt lat="44.99597" lon="6.45142">
        <ele>2371.6</ele>
        <time>2022-01-14T10:07:14Z</time>
      </trkpt>
      <trkpt lat="44.99597" lon="6.45141">
        <ele>2371.6</ele>
        <time>2022-01-14T10:07:15Z</time>
      </trkpt>
      <trkpt lat="44.99597" lon="6.4514">
        <ele>2370.3</ele>
        <time>2022-01-14T10:07:16Z</time>
      </trkpt>
      <trkpt lat="44.99597" lon="6.4514">
        <ele>2370.3</ele>
        <time>2022-01-14T10:07:17Z</time>
      </trkpt>
      <trkpt lat="44.99597" lon="6.45139">
        <ele>2370.3</ele>
        <time>2022-01-14T10:07:18Z</time>
      </trkpt>
      <trkpt lat="44.99597" lon="6.45139">
        <ele>2370.3</ele>
        <time>2022-01-14T10:07:19Z</time>
      </trkpt>
      <trkpt lat="44.99597" lon="6.45138">
        <ele>2370.3</ele>
        <time>2022-01-14T10:07:20Z</time>
      </trkpt>
      <trkpt lat="44.99596" lon="6.45138">
        <ele>2370.3</ele>
        <time>2022-01-14T10:07:21Z</time>
      </trkpt>
      <trkpt lat="44.99597" lon="6.45137">
        <ele>2371.3</ele>
        <time>2022-01-14T10:07:22Z</time>
      </trkpt>
      <trkpt lat="44.99596" lon="6.45136">
        <ele>2371.3</ele>
        <time>2022-01-14T10:07:23Z</time>
      </trkpt>
      <trkpt lat="44.99596" lon="6.45135">
        <ele>2371.3</ele>
        <time>2022-01-14T10:07:24Z</time>
      </trkpt>
      <trkpt lat="44.99595" lon="6.45135">
        <ele>2371.3</ele>
        <time>2022-01-14T10:07:25Z</time>
      </trkpt>
      <trkpt lat="44.99595" lon="6.45135">
        <ele>2371.3</ele>
        <time>2022-01-14T10:07:26Z</time>
      </trkpt>
      <trkpt lat="44.99595" lon="6.45133">
        <ele>2372.3</ele>
        <time>2022-01-14T10:07:27Z</time>
      </trkpt>
      <trkpt lat="44.99596" lon="6.45131">
        <ele>2372.3</ele>
        <time>2022-01-14T10:07:28Z</time>
      </trkpt>
      <trkpt lat="44.99596" lon="6.4513">
        <ele>2372.3</ele>
        <time>2022-01-14T10:07:29Z</time>
      </trkpt>
      <trkpt lat="44.99596" lon="6.45129">
        <ele>2372.3</ele>
        <time>2022-01-14T10:07:30Z</time>
      </trkpt>
      <trkpt lat="44.99596" lon="6.45129">
        <ele>2373.5</ele>
        <time>2022-01-14T10:07:31Z</time>
      </trkpt>
      <trkpt lat="44.99596" lon="6.45129">
        <ele>2373.5</ele>
        <time>2022-01-14T10:07:32Z</time>
      </trkpt>
      <trkpt lat="44.99596" lon="6.45129">
        <ele>2373.5</ele>
        <time>2022-01-14T10:07:33Z</time>
      </trkpt>
      <trkpt lat="44.99596" lon="6.45129">
        <ele>2373.5</ele>
        <time>2022-01-14T10:07:34Z</time>
      </trkpt>
      <trkpt lat="44.99595" lon="6.45129">
        <ele>2373.5</ele>
        <time>2022-01-14T10:07:35Z</time>
      </trkpt>
      <trkpt lat="44.99595" lon="6.45128">
        <ele>2373.5</ele>
        <time>2022-01-14T10:07:36Z</time>
      </trkpt>
      <trkpt lat="44.99595" lon="6.45128">
        <ele>2373.5</ele>
        <time>2022-01-14T10:07:37Z</time>
      </trkpt>
      <trkpt lat="44.99594" lon="6.45128">
        <ele>2373.5</ele>
        <time>2022-01-14T10:07:38Z</time>
      </trkpt>
      <trkpt lat="44.99594" lon="6.45128">
        <ele>2372.4</ele>
        <time>2022-01-14T10:07:39Z</time>
      </trkpt>
      <trkpt lat="44.99594" lon="6.45127">
        <ele>2372.4</ele>
        <time>2022-01-14T10:07:40Z</time>
      </trkpt>
      <trkpt lat="44.99594" lon="6.45126">
        <ele>2372.4</ele>
        <time>2022-01-14T10:07:41Z</time>
      </trkpt>
      <trkpt lat="44.99594" lon="6.45125">
        <ele>2372.4</ele>
        <time>2022-01-14T10:07:42Z</time>
      </trkpt>
      <trkpt lat="44.99593" lon="6.45124">
        <ele>2373.9</ele>
        <time>2022-01-14T10:07:43Z</time>
      </trkpt>
      <trkpt lat="44.99593" lon="6.45124">
        <ele>2373.9</ele>
        <time>2022-01-14T10:07:44Z</time>
      </trkpt>
      <trkpt lat="44.99592" lon="6.45122">
        <ele>2373.9</ele>
        <time>2022-01-14T10:07:45Z</time>
      </trkpt>
      <trkpt lat="44.99592" lon="6.45121">
        <ele>2373.9</ele>
        <time>2022-01-14T10:07:46Z</time>
      </trkpt>
      <trkpt lat="44.99591" lon="6.45122">
        <ele>2373.9</ele>
        <time>2022-01-14T10:07:47Z</time>
      </trkpt>
      <trkpt lat="44.99591" lon="6.45122">
        <ele>2373.9</ele>
        <time>2022-01-14T10:07:48Z</time>
      </trkpt>
      <trkpt lat="44.99592" lon="6.45122">
        <ele>2373.9</ele>
        <time>2022-01-14T10:07:49Z</time>
      </trkpt>
      <trkpt lat="44.99592" lon="6.45122">
        <ele>2373.9</ele>
        <time>2022-01-14T10:07:50Z</time>
      </trkpt>
      <trkpt lat="44.99592" lon="6.45122">
        <ele>2373.9</ele>
        <time>2022-01-14T10:07:51Z</time>
      </trkpt>
      <trkpt lat="44.99592" lon="6.45122">
        <ele>2373.9</ele>
        <time>2022-01-14T10:07:52Z</time>
      </trkpt>
      <trkpt lat="44.99592" lon="6.45122">
        <ele>2373.9</ele>
        <time>2022-01-14T10:07:53Z</time>
      </trkpt>
      <trkpt lat="44.99592" lon="6.45122">
        <ele>2373.9</ele>
        <time>2022-01-14T10:07:54Z</time>
      </trkpt>
      <trkpt lat="44.99593" lon="6.45122">
        <ele>2373.9</ele>
        <time>2022-01-14T10:07:55Z</time>
      </trkpt>
      <trkpt lat="44.99592" lon="6.4512">
        <ele>2375.4</ele>
        <time>2022-01-14T10:07:56Z</time>
      </trkpt>
      <trkpt lat="44.99592" lon="6.4512">
        <ele>2375.4</ele>
        <time>2022-01-14T10:07:57Z</time>
      </trkpt>
      <trkpt lat="44.99592" lon="6.45119">
        <ele>2375.4</ele>
        <time>2022-01-14T10:07:58Z</time>
      </trkpt>
      <trkpt lat="44.99592" lon="6.45118">
        <ele>2375.4</ele>
        <time>2022-01-14T10:07:59Z</time>
      </trkpt>
      <trkpt lat="44.99592" lon="6.45117">
        <ele>2375.4</ele>
        <time>2022-01-14T10:08:00Z</time>
      </trkpt>
      <trkpt lat="44.99592" lon="6.45117">
        <ele>2375.4</ele>
        <time>2022-01-14T10:08:01Z</time>
      </trkpt>
      <trkpt lat="44.99592" lon="6.45117">
        <ele>2375.4</ele>
        <time>2022-01-14T10:08:02Z</time>
      </trkpt>
      <trkpt lat="44.99591" lon="6.45116">
        <ele>2375.4</ele>
        <time>2022-01-14T10:08:03Z</time>
      </trkpt>
      <trkpt lat="44.99591" lon="6.45116">
        <ele>2376.9</ele>
        <time>2022-01-14T10:08:04Z</time>
      </trkpt>
      <trkpt lat="44.99591" lon="6.45116">
        <ele>2376.9</ele>
        <time>2022-01-14T10:08:05Z</time>
      </trkpt>
      <trkpt lat="44.99591" lon="6.45115">
        <ele>2376.4</ele>
        <time>2022-01-14T10:08:06Z</time>
      </trkpt>
      <trkpt lat="44.99591" lon="6.45115">
        <ele>2376.4</ele>
        <time>2022-01-14T10:08:07Z</time>
      </trkpt>
      <trkpt lat="44.99591" lon="6.45115">
        <ele>2376.4</ele>
        <time>2022-01-14T10:08:08Z</time>
      </trkpt>
      <trkpt lat="44.99591" lon="6.45114">
        <ele>2376.4</ele>
        <time>2022-01-14T10:08:09Z</time>
      </trkpt>
      <trkpt lat="44.99591" lon="6.45114">
        <ele>2376.4</ele>
        <time>2022-01-14T10:08:10Z</time>
      </trkpt>
      <trkpt lat="44.99591" lon="6.45113">
        <ele>2376.4</ele>
        <time>2022-01-14T10:08:11Z</time>
      </trkpt>
      <trkpt lat="44.99591" lon="6.45113">
        <ele>2376.4</ele>
        <time>2022-01-14T10:08:12Z</time>
      </trkpt>
      <trkpt lat="44.99591" lon="6.45113">
        <ele>2376.4</ele>
        <time>2022-01-14T10:08:13Z</time>
      </trkpt>
      <trkpt lat="44.99591" lon="6.45112">
        <ele>2376.4</ele>
        <time>2022-01-14T10:08:14Z</time>
      </trkpt>
      <trkpt lat="44.99591" lon="6.45113">
        <ele>2376.4</ele>
        <time>2022-01-14T10:08:15Z</time>
      </trkpt>
      <trkpt lat="44.99591" lon="6.45113">
        <ele>2376.4</ele>
        <time>2022-01-14T10:08:16Z</time>
      </trkpt>
      <trkpt lat="44.99591" lon="6.45114">
        <ele>2376.4</ele>
        <time>2022-01-14T10:08:17Z</time>
      </trkpt>
      <trkpt lat="44.99591" lon="6.45114">
        <ele>2376.4</ele>
        <time>2022-01-14T10:08:18Z</time>
      </trkpt>
      <trkpt lat="44.99591" lon="6.45115">
        <ele>2376.4</ele>
        <time>2022-01-14T10:08:19Z</time>
      </trkpt>
      <trkpt lat="44.99591" lon="6.45115">
        <ele>2376.4</ele>
        <time>2022-01-14T10:08:20Z</time>
      </trkpt>
      <trkpt lat="44.9959" lon="6.45115">
        <ele>2376.4</ele>
        <time>2022-01-14T10:08:21Z</time>
      </trkpt>
      <trkpt lat="44.9959" lon="6.45115">
        <ele>2376.4</ele>
        <time>2022-01-14T10:08:22Z</time>
      </trkpt>
      <trkpt lat="44.99589" lon="6.45115">
        <ele>2376.4</ele>
        <time>2022-01-14T10:08:23Z</time>
      </trkpt>
      <trkpt lat="44.99589" lon="6.45115">
        <ele>2376.4</ele>
        <time>2022-01-14T10:08:24Z</time>
      </trkpt>
      <trkpt lat="44.9959" lon="6.45115">
        <ele>2376.4</ele>
        <time>2022-01-14T10:08:25Z</time>
      </trkpt>
      <trkpt lat="44.9959" lon="6.45113">
        <ele>2376.4</ele>
        <time>2022-01-14T10:08:26Z</time>
      </trkpt>
      <trkpt lat="44.99591" lon="6.45112">
        <ele>2377.9</ele>
        <time>2022-01-14T10:08:27Z</time>
      </trkpt>
      <trkpt lat="44.99591" lon="6.45111">
        <ele>2377.9</ele>
        <time>2022-01-14T10:08:28Z</time>
      </trkpt>
      <trkpt lat="44.99591" lon="6.4511">
        <ele>2377.9</ele>
        <time>2022-01-14T10:08:29Z</time>
      </trkpt>
      <trkpt lat="44.99591" lon="6.45109">
        <ele>2377.9</ele>
        <time>2022-01-14T10:08:30Z</time>
      </trkpt>
      <trkpt lat="44.99591" lon="6.45109">
        <ele>2377.9</ele>
        <time>2022-01-14T10:08:31Z</time>
      </trkpt>
      <trkpt lat="44.99591" lon="6.45109">
        <ele>2377.9</ele>
        <time>2022-01-14T10:08:32Z</time>
      </trkpt>
      <trkpt lat="44.99591" lon="6.45109">
        <ele>2377.9</ele>
        <time>2022-01-14T10:08:33Z</time>
      </trkpt>
      <trkpt lat="44.99591" lon="6.45109">
        <ele>2377.9</ele>
        <time>2022-01-14T10:08:34Z</time>
      </trkpt>
      <trkpt lat="44.9959" lon="6.45108">
        <ele>2377.9</ele>
        <time>2022-01-14T10:08:35Z</time>
      </trkpt>
      <trkpt lat="44.9959" lon="6.45107">
        <ele>2379.5</ele>
        <time>2022-01-14T10:08:36Z</time>
      </trkpt>
      <trkpt lat="44.9959" lon="6.45107">
        <ele>2379.5</ele>
        <time>2022-01-14T10:08:37Z</time>
      </trkpt>
      <trkpt lat="44.9959" lon="6.45106">
        <ele>2379.5</ele>
        <time>2022-01-14T10:08:38Z</time>
      </trkpt>
      <trkpt lat="44.9959" lon="6.45104">
        <ele>2379.5</ele>
        <time>2022-01-14T10:08:39Z</time>
      </trkpt>
      <trkpt lat="44.99589" lon="6.45104">
        <ele>2379.5</ele>
        <time>2022-01-14T10:08:40Z</time>
      </trkpt>
      <trkpt lat="44.99589" lon="6.45104">
        <ele>2379.5</ele>
        <time>2022-01-14T10:08:41Z</time>
      </trkpt>
      <trkpt lat="44.99589" lon="6.45105">
        <ele>2379.5</ele>
        <time>2022-01-14T10:08:42Z</time>
      </trkpt>
      <trkpt lat="44.99589" lon="6.45106">
        <ele>2379.5</ele>
        <time>2022-01-14T10:08:43Z</time>
      </trkpt>
      <trkpt lat="44.99588" lon="6.45104">
        <ele>2379.3</ele>
        <time>2022-01-14T10:08:44Z</time>
      </trkpt>
      <trkpt lat="44.99588" lon="6.45103">
        <ele>2379.3</ele>
        <time>2022-01-14T10:08:45Z</time>
      </trkpt>
      <trkpt lat="44.99588" lon="6.45103">
        <ele>2379.7</ele>
        <time>2022-01-14T10:08:46Z</time>
      </trkpt>
      <trkpt lat="44.99587" lon="6.45103">
        <ele>2379.7</ele>
        <time>2022-01-14T10:08:47Z</time>
      </trkpt>
      <trkpt lat="44.99587" lon="6.45102">
        <ele>2379.8</ele>
        <time>2022-01-14T10:08:48Z</time>
      </trkpt>
      <trkpt lat="44.99587" lon="6.45102">
        <ele>2380</ele>
        <time>2022-01-14T10:08:49Z</time>
      </trkpt>
      <trkpt lat="44.99586" lon="6.45101">
        <ele>2380</ele>
        <time>2022-01-14T10:08:50Z</time>
      </trkpt>
      <trkpt lat="44.99586" lon="6.451">
        <ele>2380.2</ele>
        <time>2022-01-14T10:08:51Z</time>
      </trkpt>
      <trkpt lat="44.99586" lon="6.45099">
        <ele>2380.4</ele>
        <time>2022-01-14T10:08:52Z</time>
      </trkpt>
      <trkpt lat="44.99585" lon="6.45098">
        <ele>2380.6</ele>
        <time>2022-01-14T10:08:53Z</time>
      </trkpt>
      <trkpt lat="44.99585" lon="6.45097">
        <ele>2380.8</ele>
        <time>2022-01-14T10:08:54Z</time>
      </trkpt>
      <trkpt lat="44.99584" lon="6.45098">
        <ele>2381</ele>
        <time>2022-01-14T10:08:55Z</time>
      </trkpt>
      <trkpt lat="44.99584" lon="6.45098">
        <ele>2380.6</ele>
        <time>2022-01-14T10:08:56Z</time>
      </trkpt>
      <trkpt lat="44.99584" lon="6.45098">
        <ele>2380.6</ele>
        <time>2022-01-14T10:08:57Z</time>
      </trkpt>
      <trkpt lat="44.99584" lon="6.45098">
        <ele>2380.7</ele>
        <time>2022-01-14T10:08:58Z</time>
      </trkpt>
      <trkpt lat="44.99584" lon="6.45098">
        <ele>2380.5</ele>
        <time>2022-01-14T10:08:59Z</time>
      </trkpt>
      <trkpt lat="44.99584" lon="6.45097">
        <ele>2380.5</ele>
        <time>2022-01-14T10:09:00Z</time>
      </trkpt>
      <trkpt lat="44.99583" lon="6.45096">
        <ele>2380.7</ele>
        <time>2022-01-14T10:09:01Z</time>
      </trkpt>
      <trkpt lat="44.99583" lon="6.45095">
        <ele>2380.7</ele>
        <time>2022-01-14T10:09:02Z</time>
      </trkpt>
      <trkpt lat="44.99582" lon="6.45095">
        <ele>2381.1</ele>
        <time>2022-01-14T10:09:03Z</time>
      </trkpt>
      <trkpt lat="44.99582" lon="6.45096">
        <ele>2381.3</ele>
        <time>2022-01-14T10:09:04Z</time>
      </trkpt>
      <trkpt lat="44.99582" lon="6.45096">
        <ele>2380.7</ele>
        <time>2022-01-14T10:09:05Z</time>
      </trkpt>
      <trkpt lat="44.99582" lon="6.45097">
        <ele>2380.7</ele>
        <time>2022-01-14T10:09:06Z</time>
      </trkpt>
      <trkpt lat="44.99582" lon="6.45097">
        <ele>2380.9</ele>
        <time>2022-01-14T10:09:07Z</time>
      </trkpt>
      <trkpt lat="44.99581" lon="6.45098">
        <ele>2381.2</ele>
        <time>2022-01-14T10:09:08Z</time>
      </trkpt>
      <trkpt lat="44.99581" lon="6.45099">
        <ele>2381.2</ele>
        <time>2022-01-14T10:09:10Z</time>
      </trkpt>
      <trkpt lat="44.99581" lon="6.45099">
        <ele>2381.2</ele>
        <time>2022-01-14T10:09:11Z</time>
      </trkpt>
      <trkpt lat="44.99581" lon="6.451">
        <ele>2380.4</ele>
        <time>2022-01-14T10:09:12Z</time>
      </trkpt>
      <trkpt lat="44.9958" lon="6.45101">
        <ele>2379.8</ele>
        <time>2022-01-14T10:09:13Z</time>
      </trkpt>
      <trkpt lat="44.9958" lon="6.45101">
        <ele>2379.4</ele>
        <time>2022-01-14T10:09:14Z</time>
      </trkpt>
      <trkpt lat="44.99579" lon="6.45102">
        <ele>2379.2</ele>
        <time>2022-01-14T10:09:15Z</time>
      </trkpt>
      <trkpt lat="44.99579" lon="6.45102">
        <ele>2379</ele>
        <time>2022-01-14T10:09:16Z</time>
      </trkpt>
      <trkpt lat="44.99579" lon="6.45102">
        <ele>2379</ele>
        <time>2022-01-14T10:09:17Z</time>
      </trkpt>
      <trkpt lat="44.99579" lon="6.45102">
        <ele>2379.1</ele>
        <time>2022-01-14T10:09:18Z</time>
      </trkpt>
      <trkpt lat="44.99579" lon="6.45101">
        <ele>2379.1</ele>
        <time>2022-01-14T10:09:19Z</time>
      </trkpt>
      <trkpt lat="44.99579" lon="6.451">
        <ele>2379.3</ele>
        <time>2022-01-14T10:09:20Z</time>
      </trkpt>
      <trkpt lat="44.99579" lon="6.451">
        <ele>2379.7</ele>
        <time>2022-01-14T10:09:21Z</time>
      </trkpt>
      <trkpt lat="44.99579" lon="6.45099">
        <ele>2379.9</ele>
        <time>2022-01-14T10:09:22Z</time>
      </trkpt>
      <trkpt lat="44.9958" lon="6.45096">
        <ele>2380.1</ele>
        <time>2022-01-14T10:09:23Z</time>
      </trkpt>
      <trkpt lat="44.9958" lon="6.45096">
        <ele>2380.9</ele>
        <time>2022-01-14T10:09:24Z</time>
      </trkpt>
      <trkpt lat="44.9958" lon="6.45097">
        <ele>2381.1</ele>
        <time>2022-01-14T10:09:25Z</time>
      </trkpt>
      <trkpt lat="44.99579" lon="6.45097">
        <ele>2380.9</ele>
        <time>2022-01-14T10:09:26Z</time>
      </trkpt>
      <trkpt lat="44.99578" lon="6.45096">
        <ele>2380.9</ele>
        <time>2022-01-14T10:09:27Z</time>
      </trkpt>
      <trkpt lat="44.99578" lon="6.45096">
        <ele>2381</ele>
        <time>2022-01-14T10:09:28Z</time>
      </trkpt>
      <trkpt lat="44.99579" lon="6.45096">
        <ele>2381.2</ele>
        <time>2022-01-14T10:09:29Z</time>
      </trkpt>
      <trkpt lat="44.99579" lon="6.45095">
        <ele>2381.2</ele>
        <time>2022-01-14T10:09:30Z</time>
      </trkpt>
      <trkpt lat="44.99578" lon="6.45096">
        <ele>2381.4</ele>
        <time>2022-01-14T10:09:31Z</time>
      </trkpt>
      <trkpt lat="44.99578" lon="6.45096">
        <ele>2381.4</ele>
        <time>2022-01-14T10:09:32Z</time>
      </trkpt>
      <trkpt lat="44.99578" lon="6.45097">
        <ele>2381.2</ele>
        <time>2022-01-14T10:09:33Z</time>
      </trkpt>
      <trkpt lat="44.99578" lon="6.45097">
        <ele>2381</ele>
        <time>2022-01-14T10:09:34Z</time>
      </trkpt>
      <trkpt lat="44.99578" lon="6.45096">
        <ele>2381</ele>
        <time>2022-01-14T10:09:35Z</time>
      </trkpt>
      <trkpt lat="44.99578" lon="6.45097">
        <ele>2381</ele>
        <time>2022-01-14T10:09:36Z</time>
      </trkpt>
      <trkpt lat="44.99578" lon="6.45096">
        <ele>2381</ele>
        <time>2022-01-14T10:09:37Z</time>
      </trkpt>
      <trkpt lat="44.99579" lon="6.45095">
        <ele>2381.3</ele>
        <time>2022-01-14T10:09:38Z</time>
      </trkpt>
      <trkpt lat="44.99579" lon="6.45095">
        <ele>2381.5</ele>
        <time>2022-01-14T10:09:39Z</time>
      </trkpt>
      <trkpt lat="44.99579" lon="6.45095">
        <ele>2381.5</ele>
        <time>2022-01-14T10:09:40Z</time>
      </trkpt>
      <trkpt lat="44.99579" lon="6.45095">
        <ele>2381.5</ele>
        <time>2022-01-14T10:09:41Z</time>
      </trkpt>
      <trkpt lat="44.99579" lon="6.45095">
        <ele>2381.5</ele>
        <time>2022-01-14T10:09:42Z</time>
      </trkpt>
      <trkpt lat="44.99579" lon="6.45095">
        <ele>2381.5</ele>
        <time>2022-01-14T10:09:43Z</time>
      </trkpt>
      <trkpt lat="44.99579" lon="6.45096">
        <ele>2381.5</ele>
        <time>2022-01-14T10:09:44Z</time>
      </trkpt>
      <trkpt lat="44.9958" lon="6.45096">
        <ele>2381.5</ele>
        <time>2022-01-14T10:09:45Z</time>
      </trkpt>
      <trkpt lat="44.99581" lon="6.45095">
        <ele>2381.5</ele>
        <time>2022-01-14T10:09:46Z</time>
      </trkpt>
      <trkpt lat="44.99582" lon="6.45094">
        <ele>2381.8</ele>
        <time>2022-01-14T10:09:47Z</time>
      </trkpt>
      <trkpt lat="44.99583" lon="6.45093">
        <ele>2382</ele>
        <time>2022-01-14T10:09:48Z</time>
      </trkpt>
      <trkpt lat="44.99583" lon="6.45092">
        <ele>2382.4</ele>
        <time>2022-01-14T10:09:49Z</time>
      </trkpt>
      <trkpt lat="44.99584" lon="6.45092">
        <ele>2382.6</ele>
        <time>2022-01-14T10:09:50Z</time>
      </trkpt>
      <trkpt lat="44.99584" lon="6.45092">
        <ele>2383</ele>
        <time>2022-01-14T10:09:51Z</time>
      </trkpt>
      <trkpt lat="44.99585" lon="6.45091">
        <ele>2383</ele>
        <time>2022-01-14T10:09:52Z</time>
      </trkpt>
      <trkpt lat="44.99585" lon="6.45091">
        <ele>2383.4</ele>
        <time>2022-01-14T10:09:53Z</time>
      </trkpt>
      <trkpt lat="44.99585" lon="6.45091">
        <ele>2383.6</ele>
        <time>2022-01-14T10:09:54Z</time>
      </trkpt>
      <trkpt lat="44.99586" lon="6.4509">
        <ele>2383.8</ele>
        <time>2022-01-14T10:09:55Z</time>
      </trkpt>
      <trkpt lat="44.99586" lon="6.4509">
        <ele>2384.2</ele>
        <time>2022-01-14T10:09:56Z</time>
      </trkpt>
      <trkpt lat="44.99586" lon="6.4509">
        <ele>2384.3</ele>
        <time>2022-01-14T10:09:57Z</time>
      </trkpt>
      <trkpt lat="44.99586" lon="6.4509">
        <ele>2384.5</ele>
        <time>2022-01-14T10:09:58Z</time>
      </trkpt>
      <trkpt lat="44.99586" lon="6.4509">
        <ele>2384.5</ele>
        <time>2022-01-14T10:09:59Z</time>
      </trkpt>
      <trkpt lat="44.99585" lon="6.45091">
        <ele>2384.5</ele>
        <time>2022-01-14T10:10:00Z</time>
      </trkpt>
      <trkpt lat="44.99585" lon="6.45092">
        <ele>2384.1</ele>
        <time>2022-01-14T10:10:01Z</time>
      </trkpt>
      <trkpt lat="44.99586" lon="6.45092">
        <ele>2383.7</ele>
        <time>2022-01-14T10:10:02Z</time>
      </trkpt>
      <trkpt lat="44.99586" lon="6.45092">
        <ele>2383.9</ele>
        <time>2022-01-14T10:10:03Z</time>
      </trkpt>
      <trkpt lat="44.99588" lon="6.45093">
        <ele>2384.1</ele>
        <time>2022-01-14T10:10:04Z</time>
      </trkpt>
      <trkpt lat="44.99588" lon="6.45093">
        <ele>2384.3</ele>
        <time>2022-01-14T10:10:05Z</time>
      </trkpt>
      <trkpt lat="44.99589" lon="6.45092">
        <ele>2384.3</ele>
        <time>2022-01-14T10:10:06Z</time>
      </trkpt>
      <trkpt lat="44.9959" lon="6.45092">
        <ele>2384.3</ele>
        <time>2022-01-14T10:10:07Z</time>
      </trkpt>
      <trkpt lat="44.9959" lon="6.45091">
        <ele>2384.3</ele>
        <time>2022-01-14T10:10:08Z</time>
      </trkpt>
      <trkpt lat="44.9959" lon="6.45091">
        <ele>2384.3</ele>
        <time>2022-01-14T10:10:09Z</time>
      </trkpt>
      <trkpt lat="44.99591" lon="6.45092">
        <ele>2384.3</ele>
        <time>2022-01-14T10:10:10Z</time>
      </trkpt>
      <trkpt lat="44.99591" lon="6.45091">
        <ele>2384.3</ele>
        <time>2022-01-14T10:10:11Z</time>
      </trkpt>
      <trkpt lat="44.9959" lon="6.4509">
        <ele>2386.1</ele>
        <time>2022-01-14T10:10:12Z</time>
      </trkpt>
      <trkpt lat="44.9959" lon="6.4509">
        <ele>2386.1</ele>
        <time>2022-01-14T10:10:13Z</time>
      </trkpt>
      <trkpt lat="44.9959" lon="6.45089">
        <ele>2386.1</ele>
        <time>2022-01-14T10:10:14Z</time>
      </trkpt>
      <trkpt lat="44.9959" lon="6.45089">
        <ele>2386.1</ele>
        <time>2022-01-14T10:10:15Z</time>
      </trkpt>
      <trkpt lat="44.9959" lon="6.4509">
        <ele>2386.1</ele>
        <time>2022-01-14T10:10:16Z</time>
      </trkpt>
      <trkpt lat="44.9959" lon="6.4509">
        <ele>2386.1</ele>
        <time>2022-01-14T10:10:17Z</time>
      </trkpt>
      <trkpt lat="44.9959" lon="6.45089">
        <ele>2386.1</ele>
        <time>2022-01-14T10:10:18Z</time>
      </trkpt>
      <trkpt lat="44.9959" lon="6.45089">
        <ele>2386.1</ele>
        <time>2022-01-14T10:10:19Z</time>
      </trkpt>
      <trkpt lat="44.99589" lon="6.45089">
        <ele>2386.1</ele>
        <time>2022-01-14T10:10:20Z</time>
      </trkpt>
      <trkpt lat="44.99591" lon="6.45089">
        <ele>2386.1</ele>
        <time>2022-01-14T10:10:21Z</time>
      </trkpt>
      <trkpt lat="44.99592" lon="6.45089">
        <ele>2387.1</ele>
        <time>2022-01-14T10:10:22Z</time>
      </trkpt>
      <trkpt lat="44.99593" lon="6.45088">
        <ele>2387.1</ele>
        <time>2022-01-14T10:10:23Z</time>
      </trkpt>
      <trkpt lat="44.99593" lon="6.45089">
        <ele>2387.1</ele>
        <time>2022-01-14T10:10:24Z</time>
      </trkpt>
      <trkpt lat="44.99593" lon="6.45089">
        <ele>2387.1</ele>
        <time>2022-01-14T10:10:25Z</time>
      </trkpt>
      <trkpt lat="44.99594" lon="6.4509">
        <ele>2387.1</ele>
        <time>2022-01-14T10:10:26Z</time>
      </trkpt>
      <trkpt lat="44.99594" lon="6.4509">
        <ele>2387.1</ele>
        <time>2022-01-14T10:10:27Z</time>
      </trkpt>
      <trkpt lat="44.99594" lon="6.4509">
        <ele>2387.1</ele>
        <time>2022-01-14T10:10:28Z</time>
      </trkpt>
      <trkpt lat="44.99595" lon="6.45091">
        <ele>2386.5</ele>
        <time>2022-01-14T10:10:29Z</time>
      </trkpt>
      <trkpt lat="44.99595" lon="6.45091">
        <ele>2386.5</ele>
        <time>2022-01-14T10:10:30Z</time>
      </trkpt>
      <trkpt lat="44.99595" lon="6.45091">
        <ele>2386.5</ele>
        <time>2022-01-14T10:10:31Z</time>
      </trkpt>
      <trkpt lat="44.99595" lon="6.45091">
        <ele>2386.5</ele>
        <time>2022-01-14T10:10:32Z</time>
      </trkpt>
      <trkpt lat="44.99595" lon="6.45091">
        <ele>2386.5</ele>
        <time>2022-01-14T10:10:33Z</time>
      </trkpt>
      <trkpt lat="44.99595" lon="6.45091">
        <ele>2386.5</ele>
        <time>2022-01-14T10:10:34Z</time>
      </trkpt>
      <trkpt lat="44.99595" lon="6.45091">
        <ele>2386.5</ele>
        <time>2022-01-14T10:10:35Z</time>
      </trkpt>
      <trkpt lat="44.99596" lon="6.45091">
        <ele>2386.5</ele>
        <time>2022-01-14T10:10:36Z</time>
      </trkpt>
      <trkpt lat="44.99598" lon="6.45092">
        <ele>2387.8</ele>
        <time>2022-01-14T10:10:37Z</time>
      </trkpt>
      <trkpt lat="44.99599" lon="6.45091">
        <ele>2387.8</ele>
        <time>2022-01-14T10:10:38Z</time>
      </trkpt>
      <trkpt lat="44.996" lon="6.4509">
        <ele>2389.7</ele>
        <time>2022-01-14T10:10:39Z</time>
      </trkpt>
      <trkpt lat="44.99601" lon="6.4509">
        <ele>2391</ele>
        <time>2022-01-14T10:10:40Z</time>
      </trkpt>
      <trkpt lat="44.99602" lon="6.4509">
        <ele>2391</ele>
        <time>2022-01-14T10:10:41Z</time>
      </trkpt>
      <trkpt lat="44.99603" lon="6.45089">
        <ele>2391</ele>
        <time>2022-01-14T10:10:42Z</time>
      </trkpt>
      <trkpt lat="44.99604" lon="6.45089">
        <ele>2392.3</ele>
        <time>2022-01-14T10:10:43Z</time>
      </trkpt>
      <trkpt lat="44.99603" lon="6.45089">
        <ele>2391</ele>
        <time>2022-01-14T10:10:44Z</time>
      </trkpt>
      <trkpt lat="44.99603" lon="6.4509">
        <ele>2391</ele>
        <time>2022-01-14T10:10:45Z</time>
      </trkpt>
      <trkpt lat="44.99603" lon="6.4509">
        <ele>2391</ele>
        <time>2022-01-14T10:10:46Z</time>
      </trkpt>
      <trkpt lat="44.99603" lon="6.45091">
        <ele>2391</ele>
        <time>2022-01-14T10:10:47Z</time>
      </trkpt>
      <trkpt lat="44.99603" lon="6.45091">
        <ele>2389.1</ele>
        <time>2022-01-14T10:10:48Z</time>
      </trkpt>
      <trkpt lat="44.99603" lon="6.45091">
        <ele>2389.1</ele>
        <time>2022-01-14T10:10:49Z</time>
      </trkpt>
      <trkpt lat="44.99604" lon="6.45091">
        <ele>2390.3</ele>
        <time>2022-01-14T10:10:50Z</time>
      </trkpt>
      <trkpt lat="44.99604" lon="6.45091">
        <ele>2390.3</ele>
        <time>2022-01-14T10:10:51Z</time>
      </trkpt>
      <trkpt lat="44.99604" lon="6.45092">
        <ele>2390.3</ele>
        <time>2022-01-14T10:10:52Z</time>
      </trkpt>
      <trkpt lat="44.99604" lon="6.45091">
        <ele>2390.3</ele>
        <time>2022-01-14T10:10:53Z</time>
      </trkpt>
      <trkpt lat="44.99604" lon="6.45092">
        <ele>2390.3</ele>
        <time>2022-01-14T10:10:54Z</time>
      </trkpt>
      <trkpt lat="44.99605" lon="6.45092">
        <ele>2390.3</ele>
        <time>2022-01-14T10:10:55Z</time>
      </trkpt>
      <trkpt lat="44.99605" lon="6.45093">
        <ele>2390.3</ele>
        <time>2022-01-14T10:10:56Z</time>
      </trkpt>
      <trkpt lat="44.99605" lon="6.45094">
        <ele>2390.3</ele>
        <time>2022-01-14T10:10:57Z</time>
      </trkpt>
      <trkpt lat="44.99606" lon="6.45094">
        <ele>2390.3</ele>
        <time>2022-01-14T10:10:58Z</time>
      </trkpt>
      <trkpt lat="44.99607" lon="6.45095">
        <ele>2389.4</ele>
        <time>2022-01-14T10:10:59Z</time>
      </trkpt>
      <trkpt lat="44.99607" lon="6.45096">
        <ele>2389.4</ele>
        <time>2022-01-14T10:11:00Z</time>
      </trkpt>
      <trkpt lat="44.99607" lon="6.45097">
        <ele>2389.4</ele>
        <time>2022-01-14T10:11:01Z</time>
      </trkpt>
      <trkpt lat="44.99607" lon="6.45098">
        <ele>2389.4</ele>
        <time>2022-01-14T10:11:02Z</time>
      </trkpt>
      <trkpt lat="44.99607" lon="6.45099">
        <ele>2387.5</ele>
        <time>2022-01-14T10:11:03Z</time>
      </trkpt>
      <trkpt lat="44.99607" lon="6.45101">
        <ele>2387.5</ele>
        <time>2022-01-14T10:11:04Z</time>
      </trkpt>
      <trkpt lat="44.99607" lon="6.45101">
        <ele>2387.5</ele>
        <time>2022-01-14T10:11:05Z</time>
      </trkpt>
      <trkpt lat="44.99607" lon="6.45101">
        <ele>2387.5</ele>
        <time>2022-01-14T10:11:06Z</time>
      </trkpt>
      <trkpt lat="44.99607" lon="6.45103">
        <ele>2387.5</ele>
        <time>2022-01-14T10:11:07Z</time>
      </trkpt>
      <trkpt lat="44.99607" lon="6.45103">
        <ele>2387.5</ele>
        <time>2022-01-14T10:11:08Z</time>
      </trkpt>
      <trkpt lat="44.99607" lon="6.45103">
        <ele>2387.5</ele>
        <time>2022-01-14T10:11:09Z</time>
      </trkpt>
      <trkpt lat="44.99607" lon="6.45103">
        <ele>2387.5</ele>
        <time>2022-01-14T10:11:10Z</time>
      </trkpt>
      <trkpt lat="44.99607" lon="6.45103">
        <ele>2387.5</ele>
        <time>2022-01-14T10:11:11Z</time>
      </trkpt>
      <trkpt lat="44.99608" lon="6.45103">
        <ele>2387.5</ele>
        <time>2022-01-14T10:11:12Z</time>
      </trkpt>
      <trkpt lat="44.99608" lon="6.45102">
        <ele>2387.5</ele>
        <time>2022-01-14T10:11:13Z</time>
      </trkpt>
      <trkpt lat="44.99609" lon="6.45103">
        <ele>2387.5</ele>
        <time>2022-01-14T10:11:14Z</time>
      </trkpt>
      <trkpt lat="44.99609" lon="6.45102">
        <ele>2387.5</ele>
        <time>2022-01-14T10:11:15Z</time>
      </trkpt>
      <trkpt lat="44.9961" lon="6.45102">
        <ele>2388.6</ele>
        <time>2022-01-14T10:11:16Z</time>
      </trkpt>
      <trkpt lat="44.99611" lon="6.45101">
        <ele>2388.6</ele>
        <time>2022-01-14T10:11:17Z</time>
      </trkpt>
      <trkpt lat="44.99612" lon="6.45101">
        <ele>2388.6</ele>
        <time>2022-01-14T10:11:18Z</time>
      </trkpt>
      <trkpt lat="44.99612" lon="6.451">
        <ele>2388.6</ele>
        <time>2022-01-14T10:11:19Z</time>
      </trkpt>
      <trkpt lat="44.99612" lon="6.451">
        <ele>2388.6</ele>
        <time>2022-01-14T10:11:20Z</time>
      </trkpt>
      <trkpt lat="44.99613" lon="6.451">
        <ele>2389.7</ele>
        <time>2022-01-14T10:11:21Z</time>
      </trkpt>
      <trkpt lat="44.99613" lon="6.45099">
        <ele>2389.7</ele>
        <time>2022-01-14T10:11:22Z</time>
      </trkpt>
      <trkpt lat="44.99614" lon="6.45099">
        <ele>2389.7</ele>
        <time>2022-01-14T10:11:23Z</time>
      </trkpt>
      <trkpt lat="44.99614" lon="6.451">
        <ele>2389.7</ele>
        <time>2022-01-14T10:11:24Z</time>
      </trkpt>
      <trkpt lat="44.99615" lon="6.451">
        <ele>2389.7</ele>
        <time>2022-01-14T10:11:25Z</time>
      </trkpt>
      <trkpt lat="44.99616" lon="6.451">
        <ele>2389.7</ele>
        <time>2022-01-14T10:11:26Z</time>
      </trkpt>
      <trkpt lat="44.99616" lon="6.451">
        <ele>2390.8</ele>
        <time>2022-01-14T10:11:27Z</time>
      </trkpt>
      <trkpt lat="44.99617" lon="6.451">
        <ele>2390.8</ele>
        <time>2022-01-14T10:11:28Z</time>
      </trkpt>
      <trkpt lat="44.99617" lon="6.45099">
        <ele>2390.8</ele>
        <time>2022-01-14T10:11:29Z</time>
      </trkpt>
      <trkpt lat="44.99618" lon="6.45099">
        <ele>2392.6</ele>
        <time>2022-01-14T10:11:30Z</time>
      </trkpt>
      <trkpt lat="44.99619" lon="6.45099">
        <ele>2394</ele>
        <time>2022-01-14T10:11:31Z</time>
      </trkpt>
      <trkpt lat="44.9962" lon="6.451">
        <ele>2392.4</ele>
        <time>2022-01-14T10:11:32Z</time>
      </trkpt>
      <trkpt lat="44.9962" lon="6.451">
        <ele>2392.4</ele>
        <time>2022-01-14T10:11:33Z</time>
      </trkpt>
      <trkpt lat="44.99621" lon="6.45101">
        <ele>2392.4</ele>
        <time>2022-01-14T10:11:34Z</time>
      </trkpt>
      <trkpt lat="44.99622" lon="6.45102">
        <ele>2394.1</ele>
        <time>2022-01-14T10:11:35Z</time>
      </trkpt>
      <trkpt lat="44.99623" lon="6.45103">
        <ele>2394.1</ele>
        <time>2022-01-14T10:11:36Z</time>
      </trkpt>
      <trkpt lat="44.99623" lon="6.45103">
        <ele>2394.1</ele>
        <time>2022-01-14T10:11:37Z</time>
      </trkpt>
      <trkpt lat="44.99623" lon="6.45103">
        <ele>2394.1</ele>
        <time>2022-01-14T10:11:38Z</time>
      </trkpt>
      <trkpt lat="44.99623" lon="6.45101">
        <ele>2394.1</ele>
        <time>2022-01-14T10:11:39Z</time>
      </trkpt>
      <trkpt lat="44.99623" lon="6.451">
        <ele>2394.1</ele>
        <time>2022-01-14T10:11:40Z</time>
      </trkpt>
      <trkpt lat="44.99623" lon="6.45099">
        <ele>2395.6</ele>
        <time>2022-01-14T10:11:41Z</time>
      </trkpt>
      <trkpt lat="44.99622" lon="6.45099">
        <ele>2395.6</ele>
        <time>2022-01-14T10:11:42Z</time>
      </trkpt>
      <trkpt lat="44.99623" lon="6.45099">
        <ele>2394.1</ele>
        <time>2022-01-14T10:11:43Z</time>
      </trkpt>
      <trkpt lat="44.99623" lon="6.45099">
        <ele>2394.1</ele>
        <time>2022-01-14T10:11:44Z</time>
      </trkpt>
      <trkpt lat="44.99624" lon="6.451">
        <ele>2394.1</ele>
        <time>2022-01-14T10:11:45Z</time>
      </trkpt>
      <trkpt lat="44.99624" lon="6.451">
        <ele>2394.1</ele>
        <time>2022-01-14T10:11:46Z</time>
      </trkpt>
      <trkpt lat="44.99624" lon="6.45099">
        <ele>2395.6</ele>
        <time>2022-01-14T10:11:47Z</time>
      </trkpt>
      <trkpt lat="44.99624" lon="6.45098">
        <ele>2395.6</ele>
        <time>2022-01-14T10:11:48Z</time>
      </trkpt>
      <trkpt lat="44.99624" lon="6.45098">
        <ele>2395.6</ele>
        <time>2022-01-14T10:11:49Z</time>
      </trkpt>
      <trkpt lat="44.99624" lon="6.45099">
        <ele>2395.6</ele>
        <time>2022-01-14T10:11:50Z</time>
      </trkpt>
      <trkpt lat="44.99624" lon="6.451">
        <ele>2394.1</ele>
        <time>2022-01-14T10:11:51Z</time>
      </trkpt>
      <trkpt lat="44.99625" lon="6.451">
        <ele>2395.8</ele>
        <time>2022-01-14T10:11:52Z</time>
      </trkpt>
      <trkpt lat="44.99625" lon="6.451">
        <ele>2395.8</ele>
        <time>2022-01-14T10:11:53Z</time>
      </trkpt>
      <trkpt lat="44.99625" lon="6.45101">
        <ele>2395.8</ele>
        <time>2022-01-14T10:11:54Z</time>
      </trkpt>
      <trkpt lat="44.99624" lon="6.45102">
        <ele>2394.1</ele>
        <time>2022-01-14T10:11:55Z</time>
      </trkpt>
      <trkpt lat="44.99624" lon="6.45103">
        <ele>2394.1</ele>
        <time>2022-01-14T10:11:56Z</time>
      </trkpt>
      <trkpt lat="44.99624" lon="6.45103">
        <ele>2394.1</ele>
        <time>2022-01-14T10:11:57Z</time>
      </trkpt>
      <trkpt lat="44.99624" lon="6.45104">
        <ele>2392.6</ele>
        <time>2022-01-14T10:11:58Z</time>
      </trkpt>
      <trkpt lat="44.99624" lon="6.45104">
        <ele>2392.6</ele>
        <time>2022-01-14T10:11:59Z</time>
      </trkpt>
      <trkpt lat="44.99624" lon="6.45103">
        <ele>2394.1</ele>
        <time>2022-01-14T10:12:00Z</time>
      </trkpt>
      <trkpt lat="44.99624" lon="6.45102">
        <ele>2394.1</ele>
        <time>2022-01-14T10:12:01Z</time>
      </trkpt>
      <trkpt lat="44.99625" lon="6.451">
        <ele>2395.8</ele>
        <time>2022-01-14T10:12:02Z</time>
      </trkpt>
      <trkpt lat="44.99625" lon="6.45099">
        <ele>2397.2</ele>
        <time>2022-01-14T10:12:03Z</time>
      </trkpt>
      <trkpt lat="44.99626" lon="6.45099">
        <ele>2397.2</ele>
        <time>2022-01-14T10:12:04Z</time>
      </trkpt>
      <trkpt lat="44.99626" lon="6.45099">
        <ele>2397.2</ele>
        <time>2022-01-14T10:12:05Z</time>
      </trkpt>
      <trkpt lat="44.99627" lon="6.45098">
        <ele>2397.2</ele>
        <time>2022-01-14T10:12:06Z</time>
      </trkpt>
      <trkpt lat="44.99627" lon="6.45098">
        <ele>2397.2</ele>
        <time>2022-01-14T10:12:07Z</time>
      </trkpt>
      <trkpt lat="44.99627" lon="6.45097">
        <ele>2397.2</ele>
        <time>2022-01-14T10:12:08Z</time>
      </trkpt>
      <trkpt lat="44.99627" lon="6.45093">
        <ele>2398.6</ele>
        <time>2022-01-14T10:12:09Z</time>
      </trkpt>
      <trkpt lat="44.99627" lon="6.45093">
        <ele>2398.6</ele>
        <time>2022-01-14T10:12:10Z</time>
      </trkpt>
      <trkpt lat="44.99627" lon="6.45092">
        <ele>2398.6</ele>
        <time>2022-01-14T10:12:11Z</time>
      </trkpt>
      <trkpt lat="44.99627" lon="6.45092">
        <ele>2398.6</ele>
        <time>2022-01-14T10:12:12Z</time>
      </trkpt>
      <trkpt lat="44.99627" lon="6.45092">
        <ele>2398.6</ele>
        <time>2022-01-14T10:12:13Z</time>
      </trkpt>
      <trkpt lat="44.99627" lon="6.45091">
        <ele>2398.6</ele>
        <time>2022-01-14T10:12:14Z</time>
      </trkpt>
      <trkpt lat="44.99628" lon="6.45089">
        <ele>2400</ele>
        <time>2022-01-14T10:12:15Z</time>
      </trkpt>
      <trkpt lat="44.99628" lon="6.45089">
        <ele>2401.3</ele>
        <time>2022-01-14T10:12:16Z</time>
      </trkpt>
      <trkpt lat="44.99628" lon="6.45089">
        <ele>2401.3</ele>
        <time>2022-01-14T10:12:17Z</time>
      </trkpt>
      <trkpt lat="44.99628" lon="6.45089">
        <ele>2401.3</ele>
        <time>2022-01-14T10:12:18Z</time>
      </trkpt>
      <trkpt lat="44.99629" lon="6.45088">
        <ele>2401.3</ele>
        <time>2022-01-14T10:12:19Z</time>
      </trkpt>
      <trkpt lat="44.99629" lon="6.45089">
        <ele>2401.3</ele>
        <time>2022-01-14T10:12:20Z</time>
      </trkpt>
      <trkpt lat="44.99629" lon="6.45088">
        <ele>2401.3</ele>
        <time>2022-01-14T10:12:21Z</time>
      </trkpt>
      <trkpt lat="44.99629" lon="6.45088">
        <ele>2401.3</ele>
        <time>2022-01-14T10:12:22Z</time>
      </trkpt>
      <trkpt lat="44.99629" lon="6.45089">
        <ele>2401.3</ele>
        <time>2022-01-14T10:12:23Z</time>
      </trkpt>
      <trkpt lat="44.99629" lon="6.45089">
        <ele>2401.3</ele>
        <time>2022-01-14T10:12:24Z</time>
      </trkpt>
      <trkpt lat="44.99629" lon="6.45088">
        <ele>2401.3</ele>
        <time>2022-01-14T10:12:25Z</time>
      </trkpt>
      <trkpt lat="44.99628" lon="6.45088">
        <ele>2401.3</ele>
        <time>2022-01-14T10:12:26Z</time>
      </trkpt>
      <trkpt lat="44.99628" lon="6.45087">
        <ele>2401.3</ele>
        <time>2022-01-14T10:12:27Z</time>
      </trkpt>
      <trkpt lat="44.99628" lon="6.45087">
        <ele>2400</ele>
        <time>2022-01-14T10:12:28Z</time>
      </trkpt>
      <trkpt lat="44.99627" lon="6.45086">
        <ele>2400</ele>
        <time>2022-01-14T10:12:29Z</time>
      </trkpt>
      <trkpt lat="44.99627" lon="6.45086">
        <ele>2400</ele>
        <time>2022-01-14T10:12:30Z</time>
      </trkpt>
      <trkpt lat="44.99627" lon="6.45086">
        <ele>2401.4</ele>
        <time>2022-01-14T10:12:31Z</time>
      </trkpt>
      <trkpt lat="44.99627" lon="6.45086">
        <ele>2401.4</ele>
        <time>2022-01-14T10:12:32Z</time>
      </trkpt>
      <trkpt lat="44.99627" lon="6.45086">
        <ele>2401.4</ele>
        <time>2022-01-14T10:12:33Z</time>
      </trkpt>
      <trkpt lat="44.99626" lon="6.45085">
        <ele>2401.4</ele>
        <time>2022-01-14T10:12:34Z</time>
      </trkpt>
      <trkpt lat="44.99626" lon="6.45085">
        <ele>2401.4</ele>
        <time>2022-01-14T10:12:35Z</time>
      </trkpt>
      <trkpt lat="44.99627" lon="6.45084">
        <ele>2401.4</ele>
        <time>2022-01-14T10:12:36Z</time>
      </trkpt>
      <trkpt lat="44.99626" lon="6.45083">
        <ele>2401.4</ele>
        <time>2022-01-14T10:12:37Z</time>
      </trkpt>
      <trkpt lat="44.99626" lon="6.45082">
        <ele>2401.4</ele>
        <time>2022-01-14T10:12:38Z</time>
      </trkpt>
      <trkpt lat="44.99626" lon="6.45081">
        <ele>2402.8</ele>
        <time>2022-01-14T10:12:39Z</time>
      </trkpt>
      <trkpt lat="44.99624" lon="6.45082">
        <ele>2400.2</ele>
        <time>2022-01-14T10:12:40Z</time>
      </trkpt>
      <trkpt lat="44.99623" lon="6.45082">
        <ele>2401.7</ele>
        <time>2022-01-14T10:12:41Z</time>
      </trkpt>
      <trkpt lat="44.99623" lon="6.45081">
        <ele>2401.7</ele>
        <time>2022-01-14T10:12:42Z</time>
      </trkpt>
      <trkpt lat="44.99622" lon="6.4508">
        <ele>2401.7</ele>
        <time>2022-01-14T10:12:43Z</time>
      </trkpt>
      <trkpt lat="44.99622" lon="6.45079">
        <ele>2401.7</ele>
        <time>2022-01-14T10:12:44Z</time>
      </trkpt>
      <trkpt lat="44.99622" lon="6.45079">
        <ele>2400.6</ele>
        <time>2022-01-14T10:12:45Z</time>
      </trkpt>
      <trkpt lat="44.99622" lon="6.45078">
        <ele>2400.6</ele>
        <time>2022-01-14T10:12:46Z</time>
      </trkpt>
      <trkpt lat="44.99622" lon="6.45078">
        <ele>2400.6</ele>
        <time>2022-01-14T10:12:47Z</time>
      </trkpt>
      <trkpt lat="44.99622" lon="6.45077">
        <ele>2402.3</ele>
        <time>2022-01-14T10:12:48Z</time>
      </trkpt>
      <trkpt lat="44.99622" lon="6.45077">
        <ele>2403.3</ele>
        <time>2022-01-14T10:12:49Z</time>
      </trkpt>
      <trkpt lat="44.99622" lon="6.45077">
        <ele>2403.3</ele>
        <time>2022-01-14T10:12:50Z</time>
      </trkpt>
      <trkpt lat="44.99622" lon="6.45076">
        <ele>2402.3</ele>
        <time>2022-01-14T10:12:51Z</time>
      </trkpt>
      <trkpt lat="44.99621" lon="6.45075">
        <ele>2402.3</ele>
        <time>2022-01-14T10:12:52Z</time>
      </trkpt>
      <trkpt lat="44.99621" lon="6.45075">
        <ele>2402.3</ele>
        <time>2022-01-14T10:12:53Z</time>
      </trkpt>
      <trkpt lat="44.9962" lon="6.45074">
        <ele>2402.3</ele>
        <time>2022-01-14T10:12:54Z</time>
      </trkpt>
      <trkpt lat="44.9962" lon="6.45073">
        <ele>2404</ele>
        <time>2022-01-14T10:12:55Z</time>
      </trkpt>
      <trkpt lat="44.9962" lon="6.45072">
        <ele>2404</ele>
        <time>2022-01-14T10:12:56Z</time>
      </trkpt>
      <trkpt lat="44.9962" lon="6.45072">
        <ele>2404</ele>
        <time>2022-01-14T10:12:57Z</time>
      </trkpt>
      <trkpt lat="44.9962" lon="6.45071">
        <ele>2404</ele>
        <time>2022-01-14T10:12:58Z</time>
      </trkpt>
      <trkpt lat="44.9962" lon="6.4507">
        <ele>2404</ele>
        <time>2022-01-14T10:12:59Z</time>
      </trkpt>
      <trkpt lat="44.99619" lon="6.4507">
        <ele>2404</ele>
        <time>2022-01-14T10:13:00Z</time>
      </trkpt>
      <trkpt lat="44.99619" lon="6.4507">
        <ele>2404</ele>
        <time>2022-01-14T10:13:01Z</time>
      </trkpt>
      <trkpt lat="44.99619" lon="6.4507">
        <ele>2404</ele>
        <time>2022-01-14T10:13:02Z</time>
      </trkpt>
      <trkpt lat="44.9962" lon="6.4507">
        <ele>2404</ele>
        <time>2022-01-14T10:13:03Z</time>
      </trkpt>
      <trkpt lat="44.9962" lon="6.45071">
        <ele>2404</ele>
        <time>2022-01-14T10:13:04Z</time>
      </trkpt>
      <trkpt lat="44.99619" lon="6.4507">
        <ele>2404</ele>
        <time>2022-01-14T10:13:05Z</time>
      </trkpt>
      <trkpt lat="44.99618" lon="6.45069">
        <ele>2403.1</ele>
        <time>2022-01-14T10:13:06Z</time>
      </trkpt>
      <trkpt lat="44.99617" lon="6.45069">
        <ele>2403.1</ele>
        <time>2022-01-14T10:13:07Z</time>
      </trkpt>
      <trkpt lat="44.99617" lon="6.45069">
        <ele>2403.1</ele>
        <time>2022-01-14T10:13:08Z</time>
      </trkpt>
      <trkpt lat="44.99617" lon="6.45068">
        <ele>2404.8</ele>
        <time>2022-01-14T10:13:09Z</time>
      </trkpt>
      <trkpt lat="44.99617" lon="6.45068">
        <ele>2404.8</ele>
        <time>2022-01-14T10:13:10Z</time>
      </trkpt>
      <trkpt lat="44.99617" lon="6.45067">
        <ele>2404.8</ele>
        <time>2022-01-14T10:13:11Z</time>
      </trkpt>
      <trkpt lat="44.99617" lon="6.45067">
        <ele>2404.8</ele>
        <time>2022-01-14T10:13:12Z</time>
      </trkpt>
      <trkpt lat="44.99618" lon="6.45067">
        <ele>2404.8</ele>
        <time>2022-01-14T10:13:13Z</time>
      </trkpt>
      <trkpt lat="44.99618" lon="6.45066">
        <ele>2404.8</ele>
        <time>2022-01-14T10:13:14Z</time>
      </trkpt>
      <trkpt lat="44.99618" lon="6.45066">
        <ele>2404.8</ele>
        <time>2022-01-14T10:13:15Z</time>
      </trkpt>
      <trkpt lat="44.99618" lon="6.45066">
        <ele>2404.8</ele>
        <time>2022-01-14T10:13:16Z</time>
      </trkpt>
      <trkpt lat="44.99618" lon="6.45065">
        <ele>2404.8</ele>
        <time>2022-01-14T10:13:17Z</time>
      </trkpt>
      <trkpt lat="44.99618" lon="6.45065">
        <ele>2406.5</ele>
        <time>2022-01-14T10:13:18Z</time>
      </trkpt>
      <trkpt lat="44.99618" lon="6.45064">
        <ele>2406.5</ele>
        <time>2022-01-14T10:13:19Z</time>
      </trkpt>
      <trkpt lat="44.99618" lon="6.45064">
        <ele>2406.5</ele>
        <time>2022-01-14T10:13:20Z</time>
      </trkpt>
      <trkpt lat="44.99619" lon="6.45064">
        <ele>2406.5</ele>
        <time>2022-01-14T10:13:21Z</time>
      </trkpt>
      <trkpt lat="44.99618" lon="6.45063">
        <ele>2406.5</ele>
        <time>2022-01-14T10:13:22Z</time>
      </trkpt>
      <trkpt lat="44.99618" lon="6.45062">
        <ele>2406.5</ele>
        <time>2022-01-14T10:13:23Z</time>
      </trkpt>
      <trkpt lat="44.99619" lon="6.45061">
        <ele>2406.5</ele>
        <time>2022-01-14T10:13:24Z</time>
      </trkpt>
      <trkpt lat="44.99619" lon="6.45061">
        <ele>2407.4</ele>
        <time>2022-01-14T10:13:25Z</time>
      </trkpt>
      <trkpt lat="44.99619" lon="6.45059">
        <ele>2408.9</ele>
        <time>2022-01-14T10:13:26Z</time>
      </trkpt>
      <trkpt lat="44.99619" lon="6.45058">
        <ele>2408.9</ele>
        <time>2022-01-14T10:13:27Z</time>
      </trkpt>
      <trkpt lat="44.9962" lon="6.45057">
        <ele>2408.9</ele>
        <time>2022-01-14T10:13:28Z</time>
      </trkpt>
      <trkpt lat="44.9962" lon="6.45057">
        <ele>2408.9</ele>
        <time>2022-01-14T10:13:29Z</time>
      </trkpt>
      <trkpt lat="44.99619" lon="6.45055">
        <ele>2409.9</ele>
        <time>2022-01-14T10:13:30Z</time>
      </trkpt>
      <trkpt lat="44.99619" lon="6.45054">
        <ele>2409.1</ele>
        <time>2022-01-14T10:13:31Z</time>
      </trkpt>
      <trkpt lat="44.99618" lon="6.45054">
        <ele>2409.1</ele>
        <time>2022-01-14T10:13:32Z</time>
      </trkpt>
      <trkpt lat="44.99618" lon="6.45053">
        <ele>2409.1</ele>
        <time>2022-01-14T10:13:33Z</time>
      </trkpt>
      <trkpt lat="44.99618" lon="6.45053">
        <ele>2409.1</ele>
        <time>2022-01-14T10:13:34Z</time>
      </trkpt>
      <trkpt lat="44.99618" lon="6.45053">
        <ele>2409.1</ele>
        <time>2022-01-14T10:13:35Z</time>
      </trkpt>
      <trkpt lat="44.99618" lon="6.45052">
        <ele>2409.1</ele>
        <time>2022-01-14T10:13:36Z</time>
      </trkpt>
      <trkpt lat="44.99617" lon="6.45052">
        <ele>2410.1</ele>
        <time>2022-01-14T10:13:37Z</time>
      </trkpt>
      <trkpt lat="44.99617" lon="6.45051">
        <ele>2410.1</ele>
        <time>2022-01-14T10:13:38Z</time>
      </trkpt>
      <trkpt lat="44.99617" lon="6.45051">
        <ele>2410.1</ele>
        <time>2022-01-14T10:13:39Z</time>
      </trkpt>
      <trkpt lat="44.99617" lon="6.45051">
        <ele>2410.1</ele>
        <time>2022-01-14T10:13:40Z</time>
      </trkpt>
      <trkpt lat="44.99616" lon="6.45052">
        <ele>2409.1</ele>
        <time>2022-01-14T10:13:41Z</time>
      </trkpt>
      <trkpt lat="44.99617" lon="6.45051">
        <ele>2410.1</ele>
        <time>2022-01-14T10:13:42Z</time>
      </trkpt>
      <trkpt lat="44.99617" lon="6.4505">
        <ele>2410.1</ele>
        <time>2022-01-14T10:13:43Z</time>
      </trkpt>
      <trkpt lat="44.99617" lon="6.45049">
        <ele>2410.1</ele>
        <time>2022-01-14T10:13:44Z</time>
      </trkpt>
      <trkpt lat="44.99617" lon="6.45049">
        <ele>2410.1</ele>
        <time>2022-01-14T10:13:45Z</time>
      </trkpt>
      <trkpt lat="44.99617" lon="6.45048">
        <ele>2410.1</ele>
        <time>2022-01-14T10:13:46Z</time>
      </trkpt>
      <trkpt lat="44.99618" lon="6.45048">
        <ele>2410.1</ele>
        <time>2022-01-14T10:13:47Z</time>
      </trkpt>
      <trkpt lat="44.99617" lon="6.45048">
        <ele>2410.1</ele>
        <time>2022-01-14T10:13:48Z</time>
      </trkpt>
      <trkpt lat="44.99618" lon="6.45048">
        <ele>2411.1</ele>
        <time>2022-01-14T10:13:49Z</time>
      </trkpt>
      <trkpt lat="44.99618" lon="6.45047">
        <ele>2411.1</ele>
        <time>2022-01-14T10:13:50Z</time>
      </trkpt>
      <trkpt lat="44.99618" lon="6.45045">
        <ele>2411.1</ele>
        <time>2022-01-14T10:13:51Z</time>
      </trkpt>
      <trkpt lat="44.99617" lon="6.45046">
        <ele>2411.1</ele>
        <time>2022-01-14T10:13:52Z</time>
      </trkpt>
      <trkpt lat="44.99617" lon="6.45046">
        <ele>2411.1</ele>
        <time>2022-01-14T10:13:53Z</time>
      </trkpt>
      <trkpt lat="44.99617" lon="6.45046">
        <ele>2411.1</ele>
        <time>2022-01-14T10:13:54Z</time>
      </trkpt>
      <trkpt lat="44.99617" lon="6.45046">
        <ele>2411.1</ele>
        <time>2022-01-14T10:13:55Z</time>
      </trkpt>
      <trkpt lat="44.99617" lon="6.45045">
        <ele>2411.1</ele>
        <time>2022-01-14T10:13:56Z</time>
      </trkpt>
      <trkpt lat="44.99617" lon="6.45045">
        <ele>2411.1</ele>
        <time>2022-01-14T10:13:57Z</time>
      </trkpt>
      <trkpt lat="44.99617" lon="6.45044">
        <ele>2411.1</ele>
        <time>2022-01-14T10:13:58Z</time>
      </trkpt>
      <trkpt lat="44.99617" lon="6.45043">
        <ele>2412.2</ele>
        <time>2022-01-14T10:13:59Z</time>
      </trkpt>
      <trkpt lat="44.99618" lon="6.45043">
        <ele>2412.2</ele>
        <time>2022-01-14T10:14:00Z</time>
      </trkpt>
      <trkpt lat="44.99617" lon="6.45043">
        <ele>2412.2</ele>
        <time>2022-01-14T10:14:01Z</time>
      </trkpt>
      <trkpt lat="44.99617" lon="6.45043">
        <ele>2412.2</ele>
        <time>2022-01-14T10:14:02Z</time>
      </trkpt>
      <trkpt lat="44.99617" lon="6.45042">
        <ele>2412.2</ele>
        <time>2022-01-14T10:14:03Z</time>
      </trkpt>
      <trkpt lat="44.99616" lon="6.45042">
        <ele>2412.2</ele>
        <time>2022-01-14T10:14:04Z</time>
      </trkpt>
      <trkpt lat="44.99616" lon="6.45042">
        <ele>2412.2</ele>
        <time>2022-01-14T10:14:05Z</time>
      </trkpt>
      <trkpt lat="44.99616" lon="6.45042">
        <ele>2411.4</ele>
        <time>2022-01-14T10:14:06Z</time>
      </trkpt>
      <trkpt lat="44.99616" lon="6.45042">
        <ele>2411.4</ele>
        <time>2022-01-14T10:14:07Z</time>
      </trkpt>
      <trkpt lat="44.99615" lon="6.45042">
        <ele>2411.4</ele>
        <time>2022-01-14T10:14:08Z</time>
      </trkpt>
      <trkpt lat="44.99614" lon="6.45043">
        <ele>2411.4</ele>
        <time>2022-01-14T10:14:09Z</time>
      </trkpt>
      <trkpt lat="44.99614" lon="6.45042">
        <ele>2411.4</ele>
        <time>2022-01-14T10:14:10Z</time>
      </trkpt>
      <trkpt lat="44.99613" lon="6.45042">
        <ele>2411.4</ele>
        <time>2022-01-14T10:14:11Z</time>
      </trkpt>
      <trkpt lat="44.99613" lon="6.45042">
        <ele>2411.4</ele>
        <time>2022-01-14T10:14:12Z</time>
      </trkpt>
      <trkpt lat="44.99613" lon="6.45042">
        <ele>2411.4</ele>
        <time>2022-01-14T10:14:13Z</time>
      </trkpt>
      <trkpt lat="44.99612" lon="6.45041">
        <ele>2410.7</ele>
        <time>2022-01-14T10:14:14Z</time>
      </trkpt>
      <trkpt lat="44.99612" lon="6.45041">
        <ele>2410.7</ele>
        <time>2022-01-14T10:14:15Z</time>
      </trkpt>
      <trkpt lat="44.99611" lon="6.45041">
        <ele>2410.7</ele>
        <time>2022-01-14T10:14:16Z</time>
      </trkpt>
      <trkpt lat="44.99611" lon="6.45041">
        <ele>2410.7</ele>
        <time>2022-01-14T10:14:17Z</time>
      </trkpt>
      <trkpt lat="44.99611" lon="6.4504">
        <ele>2410.7</ele>
        <time>2022-01-14T10:14:18Z</time>
      </trkpt>
      <trkpt lat="44.99612" lon="6.45041">
        <ele>2410.7</ele>
        <time>2022-01-14T10:14:19Z</time>
      </trkpt>
      <trkpt lat="44.99611" lon="6.45041">
        <ele>2410.7</ele>
        <time>2022-01-14T10:14:20Z</time>
      </trkpt>
      <trkpt lat="44.99611" lon="6.45041">
        <ele>2410.7</ele>
        <time>2022-01-14T10:14:21Z</time>
      </trkpt>
      <trkpt lat="44.99611" lon="6.45041">
        <ele>2410.7</ele>
        <time>2022-01-14T10:14:22Z</time>
      </trkpt>
      <trkpt lat="44.99611" lon="6.45041">
        <ele>2410.7</ele>
        <time>2022-01-14T10:14:23Z</time>
      </trkpt>
      <trkpt lat="44.99611" lon="6.45041">
        <ele>2410.7</ele>
        <time>2022-01-14T10:14:24Z</time>
      </trkpt>
      <trkpt lat="44.99611" lon="6.45041">
        <ele>2410.7</ele>
        <time>2022-01-14T10:14:25Z</time>
      </trkpt>
      <trkpt lat="44.99611" lon="6.45041">
        <ele>2410.7</ele>
        <time>2022-01-14T10:14:26Z</time>
      </trkpt>
      <trkpt lat="44.9961" lon="6.45041">
        <ele>2410.7</ele>
        <time>2022-01-14T10:14:27Z</time>
      </trkpt>
      <trkpt lat="44.9961" lon="6.45042">
        <ele>2410.7</ele>
        <time>2022-01-14T10:14:28Z</time>
      </trkpt>
      <trkpt lat="44.99611" lon="6.45042">
        <ele>2410.7</ele>
        <time>2022-01-14T10:14:29Z</time>
      </trkpt>
      <trkpt lat="44.9961" lon="6.45042">
        <ele>2410.7</ele>
        <time>2022-01-14T10:14:30Z</time>
      </trkpt>
      <trkpt lat="44.9961" lon="6.45041">
        <ele>2410.7</ele>
        <time>2022-01-14T10:14:31Z</time>
      </trkpt>
      <trkpt lat="44.9961" lon="6.45041">
        <ele>2410.7</ele>
        <time>2022-01-14T10:14:32Z</time>
      </trkpt>
      <trkpt lat="44.9961" lon="6.45041">
        <ele>2410.7</ele>
        <time>2022-01-14T10:14:33Z</time>
      </trkpt>
      <trkpt lat="44.9961" lon="6.4504">
        <ele>2410.7</ele>
        <time>2022-01-14T10:14:34Z</time>
      </trkpt>
      <trkpt lat="44.9961" lon="6.4504">
        <ele>2410.7</ele>
        <time>2022-01-14T10:14:35Z</time>
      </trkpt>
      <trkpt lat="44.99609" lon="6.4504">
        <ele>2409.9</ele>
        <time>2022-01-14T10:14:36Z</time>
      </trkpt>
      <trkpt lat="44.99609" lon="6.4504">
        <ele>2409.9</ele>
        <time>2022-01-14T10:14:37Z</time>
      </trkpt>
      <trkpt lat="44.99609" lon="6.45041">
        <ele>2409.9</ele>
        <time>2022-01-14T10:14:38Z</time>
      </trkpt>
      <trkpt lat="44.99609" lon="6.45041">
        <ele>2409.9</ele>
        <time>2022-01-14T10:14:39Z</time>
      </trkpt>
      <trkpt lat="44.99609" lon="6.45041">
        <ele>2409.9</ele>
        <time>2022-01-14T10:14:40Z</time>
      </trkpt>
      <trkpt lat="44.99609" lon="6.45041">
        <ele>2409.9</ele>
        <time>2022-01-14T10:14:41Z</time>
      </trkpt>
      <trkpt lat="44.99609" lon="6.45041">
        <ele>2409.9</ele>
        <time>2022-01-14T10:14:42Z</time>
      </trkpt>
      <trkpt lat="44.99609" lon="6.45041">
        <ele>2409.9</ele>
        <time>2022-01-14T10:14:43Z</time>
      </trkpt>
      <trkpt lat="44.99609" lon="6.45041">
        <ele>2409.9</ele>
        <time>2022-01-14T10:14:44Z</time>
      </trkpt>
      <trkpt lat="44.99609" lon="6.45041">
        <ele>2409.9</ele>
        <time>2022-01-14T10:14:45Z</time>
      </trkpt>
      <trkpt lat="44.9961" lon="6.45041">
        <ele>2410.7</ele>
        <time>2022-01-14T10:14:46Z</time>
      </trkpt>
      <trkpt lat="44.99611" lon="6.45041">
        <ele>2410.7</ele>
        <time>2022-01-14T10:14:47Z</time>
      </trkpt>
      <trkpt lat="44.99612" lon="6.45041">
        <ele>2410.7</ele>
        <time>2022-01-14T10:14:48Z</time>
      </trkpt>
      <trkpt lat="44.99612" lon="6.45041">
        <ele>2410.7</ele>
        <time>2022-01-14T10:14:49Z</time>
      </trkpt>
      <trkpt lat="44.99612" lon="6.45041">
        <ele>2410.7</ele>
        <time>2022-01-14T10:14:50Z</time>
      </trkpt>
      <trkpt lat="44.99612" lon="6.4504">
        <ele>2410.7</ele>
        <time>2022-01-14T10:14:51Z</time>
      </trkpt>
      <trkpt lat="44.99612" lon="6.4504">
        <ele>2410.7</ele>
        <time>2022-01-14T10:14:52Z</time>
      </trkpt>
      <trkpt lat="44.99612" lon="6.4504">
        <ele>2410.7</ele>
        <time>2022-01-14T10:14:53Z</time>
      </trkpt>
      <trkpt lat="44.99612" lon="6.4504">
        <ele>2410.7</ele>
        <time>2022-01-14T10:14:54Z</time>
      </trkpt>
      <trkpt lat="44.99612" lon="6.4504">
        <ele>2410.7</ele>
        <time>2022-01-14T10:14:55Z</time>
      </trkpt>
      <trkpt lat="44.99612" lon="6.45041">
        <ele>2410.7</ele>
        <time>2022-01-14T10:14:56Z</time>
      </trkpt>
      <trkpt lat="44.99613" lon="6.4504">
        <ele>2410.7</ele>
        <time>2022-01-14T10:14:57Z</time>
      </trkpt>
      <trkpt lat="44.99612" lon="6.45041">
        <ele>2410.7</ele>
        <time>2022-01-14T10:14:58Z</time>
      </trkpt>
      <trkpt lat="44.99612" lon="6.45042">
        <ele>2410.7</ele>
        <time>2022-01-14T10:14:59Z</time>
      </trkpt>
      <trkpt lat="44.99612" lon="6.45042">
        <ele>2410.7</ele>
        <time>2022-01-14T10:15:00Z</time>
      </trkpt>
      <trkpt lat="44.99613" lon="6.45042">
        <ele>2411.4</ele>
        <time>2022-01-14T10:15:01Z</time>
      </trkpt>
      <trkpt lat="44.99613" lon="6.45041">
        <ele>2411.4</ele>
        <time>2022-01-14T10:15:02Z</time>
      </trkpt>
      <trkpt lat="44.99613" lon="6.45041">
        <ele>2411.4</ele>
        <time>2022-01-14T10:15:03Z</time>
      </trkpt>
      <trkpt lat="44.99614" lon="6.45041">
        <ele>2411.4</ele>
        <time>2022-01-14T10:15:04Z</time>
      </trkpt>
      <trkpt lat="44.99614" lon="6.45042">
        <ele>2411.4</ele>
        <time>2022-01-14T10:15:05Z</time>
      </trkpt>
      <trkpt lat="44.99614" lon="6.45043">
        <ele>2411.4</ele>
        <time>2022-01-14T10:15:06Z</time>
      </trkpt>
      <trkpt lat="44.99614" lon="6.45043">
        <ele>2411.4</ele>
        <time>2022-01-14T10:15:07Z</time>
      </trkpt>
      <trkpt lat="44.99614" lon="6.45043">
        <ele>2410.3</ele>
        <time>2022-01-14T10:15:08Z</time>
      </trkpt>
      <trkpt lat="44.99614" lon="6.45044">
        <ele>2410.3</ele>
        <time>2022-01-14T10:15:09Z</time>
      </trkpt>
      <trkpt lat="44.99614" lon="6.45044">
        <ele>2410.3</ele>
        <time>2022-01-14T10:15:10Z</time>
      </trkpt>
      <trkpt lat="44.99614" lon="6.45043">
        <ele>2410.3</ele>
        <time>2022-01-14T10:15:11Z</time>
      </trkpt>
      <trkpt lat="44.99614" lon="6.45043">
        <ele>2410.3</ele>
        <time>2022-01-14T10:15:12Z</time>
      </trkpt>
      <trkpt lat="44.99615" lon="6.45043">
        <ele>2411.4</ele>
        <time>2022-01-14T10:15:13Z</time>
      </trkpt>
      <trkpt lat="44.99616" lon="6.45042">
        <ele>2412.2</ele>
        <time>2022-01-14T10:15:14Z</time>
      </trkpt>
      <trkpt lat="44.99617" lon="6.45041">
        <ele>2412.2</ele>
        <time>2022-01-14T10:15:15Z</time>
      </trkpt>
      <trkpt lat="44.99617" lon="6.4504">
        <ele>2412.2</ele>
        <time>2022-01-14T10:15:16Z</time>
      </trkpt>
      <trkpt lat="44.99617" lon="6.45041">
        <ele>2412.2</ele>
        <time>2022-01-14T10:15:17Z</time>
      </trkpt>
      <trkpt lat="44.99617" lon="6.45041">
        <ele>2412.2</ele>
        <time>2022-01-14T10:15:18Z</time>
      </trkpt>
      <trkpt lat="44.99618" lon="6.45039">
        <ele>2413.4</ele>
        <time>2022-01-14T10:15:19Z</time>
      </trkpt>
      <trkpt lat="44.99618" lon="6.45038">
        <ele>2413.4</ele>
        <time>2022-01-14T10:15:20Z</time>
      </trkpt>
      <trkpt lat="44.99618" lon="6.45038">
        <ele>2413.4</ele>
        <time>2022-01-14T10:15:21Z</time>
      </trkpt>
      <trkpt lat="44.99619" lon="6.45038">
        <ele>2413.4</ele>
        <time>2022-01-14T10:15:22Z</time>
      </trkpt>
      <trkpt lat="44.99619" lon="6.45037">
        <ele>2414.4</ele>
        <time>2022-01-14T10:15:23Z</time>
      </trkpt>
      <trkpt lat="44.99619" lon="6.45037">
        <ele>2414.4</ele>
        <time>2022-01-14T10:15:24Z</time>
      </trkpt>
      <trkpt lat="44.99619" lon="6.45036">
        <ele>2414.4</ele>
        <time>2022-01-14T10:15:25Z</time>
      </trkpt>
      <trkpt lat="44.99618" lon="6.45035">
        <ele>2413.4</ele>
        <time>2022-01-14T10:15:26Z</time>
      </trkpt>
      <trkpt lat="44.99618" lon="6.45035">
        <ele>2413.4</ele>
        <time>2022-01-14T10:15:27Z</time>
      </trkpt>
      <trkpt lat="44.99618" lon="6.45035">
        <ele>2413.4</ele>
        <time>2022-01-14T10:15:28Z</time>
      </trkpt>
      <trkpt lat="44.99619" lon="6.45036">
        <ele>2413.4</ele>
        <time>2022-01-14T10:15:29Z</time>
      </trkpt>
      <trkpt lat="44.99619" lon="6.45034">
        <ele>2414.7</ele>
        <time>2022-01-14T10:15:30Z</time>
      </trkpt>
      <trkpt lat="44.99618" lon="6.45033">
        <ele>2414.7</ele>
        <time>2022-01-14T10:15:31Z</time>
      </trkpt>
      <trkpt lat="44.99618" lon="6.45032">
        <ele>2414.7</ele>
        <time>2022-01-14T10:15:32Z</time>
      </trkpt>
      <trkpt lat="44.99618" lon="6.45031">
        <ele>2414.7</ele>
        <time>2022-01-14T10:15:33Z</time>
      </trkpt>
      <trkpt lat="44.99619" lon="6.4503">
        <ele>2416.9</ele>
        <time>2022-01-14T10:15:34Z</time>
      </trkpt>
      <trkpt lat="44.99619" lon="6.45029">
        <ele>2416.9</ele>
        <time>2022-01-14T10:15:35Z</time>
      </trkpt>
      <trkpt lat="44.99619" lon="6.45029">
        <ele>2416.9</ele>
        <time>2022-01-14T10:15:36Z</time>
      </trkpt>
      <trkpt lat="44.99619" lon="6.45028">
        <ele>2416.9</ele>
        <time>2022-01-14T10:15:37Z</time>
      </trkpt>
      <trkpt lat="44.9962" lon="6.45028">
        <ele>2416.9</ele>
        <time>2022-01-14T10:15:38Z</time>
      </trkpt>
      <trkpt lat="44.9962" lon="6.45027">
        <ele>2416.9</ele>
        <time>2022-01-14T10:15:39Z</time>
      </trkpt>
      <trkpt lat="44.9962" lon="6.45028">
        <ele>2416.9</ele>
        <time>2022-01-14T10:15:40Z</time>
      </trkpt>
      <trkpt lat="44.9962" lon="6.45029">
        <ele>2416.9</ele>
        <time>2022-01-14T10:15:41Z</time>
      </trkpt>
      <trkpt lat="44.9962" lon="6.4503">
        <ele>2416.9</ele>
        <time>2022-01-14T10:15:42Z</time>
      </trkpt>
      <trkpt lat="44.9962" lon="6.45029">
        <ele>2416.9</ele>
        <time>2022-01-14T10:15:43Z</time>
      </trkpt>
      <trkpt lat="44.99619" lon="6.45029">
        <ele>2416.9</ele>
        <time>2022-01-14T10:15:44Z</time>
      </trkpt>
      <trkpt lat="44.99619" lon="6.45028">
        <ele>2416.9</ele>
        <time>2022-01-14T10:15:45Z</time>
      </trkpt>
      <trkpt lat="44.99619" lon="6.45028">
        <ele>2416.9</ele>
        <time>2022-01-14T10:15:46Z</time>
      </trkpt>
      <trkpt lat="44.99618" lon="6.45027">
        <ele>2415.9</ele>
        <time>2022-01-14T10:15:47Z</time>
      </trkpt>
      <trkpt lat="44.99618" lon="6.45028">
        <ele>2415.9</ele>
        <time>2022-01-14T10:15:48Z</time>
      </trkpt>
      <trkpt lat="44.99618" lon="6.45027">
        <ele>2415.9</ele>
        <time>2022-01-14T10:15:49Z</time>
      </trkpt>
      <trkpt lat="44.99618" lon="6.45027">
        <ele>2415.9</ele>
        <time>2022-01-14T10:15:50Z</time>
      </trkpt>
      <trkpt lat="44.99618" lon="6.45027">
        <ele>2415.9</ele>
        <time>2022-01-14T10:15:51Z</time>
      </trkpt>
      <trkpt lat="44.99618" lon="6.45028">
        <ele>2415.9</ele>
        <time>2022-01-14T10:15:52Z</time>
      </trkpt>
      <trkpt lat="44.99618" lon="6.45027">
        <ele>2415.9</ele>
        <time>2022-01-14T10:15:53Z</time>
      </trkpt>
      <trkpt lat="44.99617" lon="6.45026">
        <ele>2415.9</ele>
        <time>2022-01-14T10:15:54Z</time>
      </trkpt>
      <trkpt lat="44.99617" lon="6.45027">
        <ele>2415.9</ele>
        <time>2022-01-14T10:15:55Z</time>
      </trkpt>
      <trkpt lat="44.99617" lon="6.45026">
        <ele>2417.2</ele>
        <time>2022-01-14T10:15:56Z</time>
      </trkpt>
      <trkpt lat="44.99617" lon="6.45026">
        <ele>2417.2</ele>
        <time>2022-01-14T10:15:57Z</time>
      </trkpt>
      <trkpt lat="44.99617" lon="6.45026">
        <ele>2417.2</ele>
        <time>2022-01-14T10:15:58Z</time>
      </trkpt>
      <trkpt lat="44.99617" lon="6.45026">
        <ele>2417.2</ele>
        <time>2022-01-14T10:15:59Z</time>
      </trkpt>
      <trkpt lat="44.99617" lon="6.45026">
        <ele>2417.2</ele>
        <time>2022-01-14T10:16:00Z</time>
      </trkpt>
      <trkpt lat="44.99617" lon="6.45025">
        <ele>2417.2</ele>
        <time>2022-01-14T10:16:01Z</time>
      </trkpt>
      <trkpt lat="44.99616" lon="6.45024">
        <ele>2416.5</ele>
        <time>2022-01-14T10:16:02Z</time>
      </trkpt>
      <trkpt lat="44.99615" lon="6.45023">
        <ele>2416.5</ele>
        <time>2022-01-14T10:16:03Z</time>
      </trkpt>
      <trkpt lat="44.99615" lon="6.45022">
        <ele>2416.5</ele>
        <time>2022-01-14T10:16:04Z</time>
      </trkpt>
      <trkpt lat="44.99614" lon="6.45022">
        <ele>2416.5</ele>
        <time>2022-01-14T10:16:05Z</time>
      </trkpt>
      <trkpt lat="44.99615" lon="6.45022">
        <ele>2418.1</ele>
        <time>2022-01-14T10:16:06Z</time>
      </trkpt>
      <trkpt lat="44.99614" lon="6.45022">
        <ele>2418.1</ele>
        <time>2022-01-14T10:16:07Z</time>
      </trkpt>
      <trkpt lat="44.99614" lon="6.4502">
        <ele>2418.1</ele>
        <time>2022-01-14T10:16:08Z</time>
      </trkpt>
      <trkpt lat="44.99614" lon="6.45019">
        <ele>2418.1</ele>
        <time>2022-01-14T10:16:09Z</time>
      </trkpt>
      <trkpt lat="44.99614" lon="6.45018">
        <ele>2418.1</ele>
        <time>2022-01-14T10:16:10Z</time>
      </trkpt>
      <trkpt lat="44.99613" lon="6.45017">
        <ele>2419.7</ele>
        <time>2022-01-14T10:16:11Z</time>
      </trkpt>
      <trkpt lat="44.99613" lon="6.45016">
        <ele>2419.7</ele>
        <time>2022-01-14T10:16:12Z</time>
      </trkpt>
      <trkpt lat="44.99613" lon="6.45016">
        <ele>2419.7</ele>
        <time>2022-01-14T10:16:13Z</time>
      </trkpt>
      <trkpt lat="44.99613" lon="6.45015">
        <ele>2419.7</ele>
        <time>2022-01-14T10:16:14Z</time>
      </trkpt>
      <trkpt lat="44.99613" lon="6.45015">
        <ele>2419</ele>
        <time>2022-01-14T10:16:15Z</time>
      </trkpt>
      <trkpt lat="44.99613" lon="6.45014">
        <ele>2419.7</ele>
        <time>2022-01-14T10:16:16Z</time>
      </trkpt>
      <trkpt lat="44.99613" lon="6.45013">
        <ele>2421.2</ele>
        <time>2022-01-14T10:16:17Z</time>
      </trkpt>
      <trkpt lat="44.99612" lon="6.45013">
        <ele>2420.7</ele>
        <time>2022-01-14T10:16:18Z</time>
      </trkpt>
      <trkpt lat="44.99611" lon="6.45013">
        <ele>2420.7</ele>
        <time>2022-01-14T10:16:19Z</time>
      </trkpt>
      <trkpt lat="44.99612" lon="6.45013">
        <ele>2420.7</ele>
        <time>2022-01-14T10:16:20Z</time>
      </trkpt>
      <trkpt lat="44.99612" lon="6.45012">
        <ele>2420.7</ele>
        <time>2022-01-14T10:16:21Z</time>
      </trkpt>
      <trkpt lat="44.99613" lon="6.45011">
        <ele>2420.7</ele>
        <time>2022-01-14T10:16:22Z</time>
      </trkpt>
      <trkpt lat="44.99613" lon="6.45011">
        <ele>2421.2</ele>
        <time>2022-01-14T10:16:23Z</time>
      </trkpt>
      <trkpt lat="44.99613" lon="6.4501">
        <ele>2421.2</ele>
        <time>2022-01-14T10:16:24Z</time>
      </trkpt>
      <trkpt lat="44.99613" lon="6.4501">
        <ele>2421.2</ele>
        <time>2022-01-14T10:16:25Z</time>
      </trkpt>
      <trkpt lat="44.99613" lon="6.45009">
        <ele>2421.2</ele>
        <time>2022-01-14T10:16:26Z</time>
      </trkpt>
      <trkpt lat="44.99613" lon="6.45009">
        <ele>2422.8</ele>
        <time>2022-01-14T10:16:27Z</time>
      </trkpt>
      <trkpt lat="44.99612" lon="6.4501">
        <ele>2420.7</ele>
        <time>2022-01-14T10:16:28Z</time>
      </trkpt>
      <trkpt lat="44.99612" lon="6.45012">
        <ele>2420.7</ele>
        <time>2022-01-14T10:16:29Z</time>
      </trkpt>
      <trkpt lat="44.99613" lon="6.45012">
        <ele>2420.7</ele>
        <time>2022-01-14T10:16:30Z</time>
      </trkpt>
      <trkpt lat="44.99613" lon="6.45012">
        <ele>2421.2</ele>
        <time>2022-01-14T10:16:31Z</time>
      </trkpt>
      <trkpt lat="44.99614" lon="6.45011">
        <ele>2421.2</ele>
        <time>2022-01-14T10:16:32Z</time>
      </trkpt>
      <trkpt lat="44.99615" lon="6.45011">
        <ele>2421.2</ele>
        <time>2022-01-14T10:16:33Z</time>
      </trkpt>
      <trkpt lat="44.99616" lon="6.45011">
        <ele>2421.8</ele>
        <time>2022-01-14T10:16:34Z</time>
      </trkpt>
      <trkpt lat="44.99617" lon="6.45011">
        <ele>2421.8</ele>
        <time>2022-01-14T10:16:35Z</time>
      </trkpt>
      <trkpt lat="44.99618" lon="6.45012">
        <ele>2421.8</ele>
        <time>2022-01-14T10:16:36Z</time>
      </trkpt>
      <trkpt lat="44.99619" lon="6.45013">
        <ele>2422.7</ele>
        <time>2022-01-14T10:16:37Z</time>
      </trkpt>
      <trkpt lat="44.99619" lon="6.45013">
        <ele>2422.7</ele>
        <time>2022-01-14T10:16:38Z</time>
      </trkpt>
      <trkpt lat="44.99619" lon="6.45013">
        <ele>2422.7</ele>
        <time>2022-01-14T10:16:39Z</time>
      </trkpt>
      <trkpt lat="44.99619" lon="6.45014">
        <ele>2421.2</ele>
        <time>2022-01-14T10:16:40Z</time>
      </trkpt>
      <trkpt lat="44.99619" lon="6.45014">
        <ele>2421.2</ele>
        <time>2022-01-14T10:16:41Z</time>
      </trkpt>
      <trkpt lat="44.99619" lon="6.45014">
        <ele>2421.2</ele>
        <time>2022-01-14T10:16:42Z</time>
      </trkpt>
      <trkpt lat="44.99619" lon="6.45014">
        <ele>2421.2</ele>
        <time>2022-01-14T10:16:43Z</time>
      </trkpt>
      <trkpt lat="44.99619" lon="6.45015">
        <ele>2421.2</ele>
        <time>2022-01-14T10:16:44Z</time>
      </trkpt>
      <trkpt lat="44.99619" lon="6.45015">
        <ele>2421.2</ele>
        <time>2022-01-14T10:16:45Z</time>
      </trkpt>
      <trkpt lat="44.99619" lon="6.45017">
        <ele>2421.2</ele>
        <time>2022-01-14T10:16:46Z</time>
      </trkpt>
      <trkpt lat="44.99619" lon="6.45018">
        <ele>2419.7</ele>
        <time>2022-01-14T10:16:47Z</time>
      </trkpt>
      <trkpt lat="44.99619" lon="6.45019">
        <ele>2419.7</ele>
        <time>2022-01-14T10:16:48Z</time>
      </trkpt>
      <trkpt lat="44.99619" lon="6.45019">
        <ele>2419.7</ele>
        <time>2022-01-14T10:16:49Z</time>
      </trkpt>
      <trkpt lat="44.99619" lon="6.45019">
        <ele>2419.7</ele>
        <time>2022-01-14T10:16:50Z</time>
      </trkpt>
      <trkpt lat="44.9962" lon="6.45019">
        <ele>2419.7</ele>
        <time>2022-01-14T10:16:51Z</time>
      </trkpt>
      <trkpt lat="44.99619" lon="6.45019">
        <ele>2419.7</ele>
        <time>2022-01-14T10:16:52Z</time>
      </trkpt>
      <trkpt lat="44.99619" lon="6.45019">
        <ele>2419.7</ele>
        <time>2022-01-14T10:16:53Z</time>
      </trkpt>
      <trkpt lat="44.99619" lon="6.45018">
        <ele>2419.7</ele>
        <time>2022-01-14T10:16:54Z</time>
      </trkpt>
      <trkpt lat="44.99619" lon="6.45018">
        <ele>2419.7</ele>
        <time>2022-01-14T10:16:55Z</time>
      </trkpt>
      <trkpt lat="44.99619" lon="6.45018">
        <ele>2419.7</ele>
        <time>2022-01-14T10:16:56Z</time>
      </trkpt>
      <trkpt lat="44.99619" lon="6.45018">
        <ele>2419.7</ele>
        <time>2022-01-14T10:16:57Z</time>
      </trkpt>
      <trkpt lat="44.9962" lon="6.45018">
        <ele>2419.7</ele>
        <time>2022-01-14T10:16:58Z</time>
      </trkpt>
      <trkpt lat="44.9962" lon="6.45018">
        <ele>2419.7</ele>
        <time>2022-01-14T10:16:59Z</time>
      </trkpt>
      <trkpt lat="44.9962" lon="6.45018">
        <ele>2419.7</ele>
        <time>2022-01-14T10:17:00Z</time>
      </trkpt>
      <trkpt lat="44.9962" lon="6.45018">
        <ele>2419.7</ele>
        <time>2022-01-14T10:17:01Z</time>
      </trkpt>
      <trkpt lat="44.9962" lon="6.45019">
        <ele>2419.7</ele>
        <time>2022-01-14T10:17:02Z</time>
      </trkpt>
      <trkpt lat="44.9962" lon="6.45019">
        <ele>2419.7</ele>
        <time>2022-01-14T10:17:03Z</time>
      </trkpt>
      <trkpt lat="44.99619" lon="6.4502">
        <ele>2419.7</ele>
        <time>2022-01-14T10:17:04Z</time>
      </trkpt>
      <trkpt lat="44.99619" lon="6.4502">
        <ele>2419.7</ele>
        <time>2022-01-14T10:17:05Z</time>
      </trkpt>
      <trkpt lat="44.9962" lon="6.45021">
        <ele>2419.7</ele>
        <time>2022-01-14T10:17:06Z</time>
      </trkpt>
      <trkpt lat="44.9962" lon="6.45021">
        <ele>2419.7</ele>
        <time>2022-01-14T10:17:07Z</time>
      </trkpt>
      <trkpt lat="44.9962" lon="6.45021">
        <ele>2419.7</ele>
        <time>2022-01-14T10:17:08Z</time>
      </trkpt>
      <trkpt lat="44.99621" lon="6.45021">
        <ele>2419.7</ele>
        <time>2022-01-14T10:17:09Z</time>
      </trkpt>
      <trkpt lat="44.99621" lon="6.45021">
        <ele>2419.7</ele>
        <time>2022-01-14T10:17:10Z</time>
      </trkpt>
      <trkpt lat="44.99621" lon="6.45021">
        <ele>2419.7</ele>
        <time>2022-01-14T10:17:11Z</time>
      </trkpt>
      <trkpt lat="44.99621" lon="6.45021">
        <ele>2419.7</ele>
        <time>2022-01-14T10:17:12Z</time>
      </trkpt>
      <trkpt lat="44.99621" lon="6.4502">
        <ele>2419.7</ele>
        <time>2022-01-14T10:17:13Z</time>
      </trkpt>
      <trkpt lat="44.99621" lon="6.45019">
        <ele>2419.7</ele>
        <time>2022-01-14T10:17:14Z</time>
      </trkpt>
      <trkpt lat="44.99621" lon="6.4502">
        <ele>2419.7</ele>
        <time>2022-01-14T10:17:15Z</time>
      </trkpt>
      <trkpt lat="44.99622" lon="6.4502">
        <ele>2419.7</ele>
        <time>2022-01-14T10:17:16Z</time>
      </trkpt>
      <trkpt lat="44.99622" lon="6.4502">
        <ele>2420.7</ele>
        <time>2022-01-14T10:17:17Z</time>
      </trkpt>
      <trkpt lat="44.99622" lon="6.4502">
        <ele>2420.7</ele>
        <time>2022-01-14T10:17:18Z</time>
      </trkpt>
      <trkpt lat="44.99622" lon="6.45021">
        <ele>2420.7</ele>
        <time>2022-01-14T10:17:19Z</time>
      </trkpt>
      <trkpt lat="44.99622" lon="6.4502">
        <ele>2420.7</ele>
        <time>2022-01-14T10:17:20Z</time>
      </trkpt>
      <trkpt lat="44.99622" lon="6.4502">
        <ele>2420.7</ele>
        <time>2022-01-14T10:17:21Z</time>
      </trkpt>
      <trkpt lat="44.99622" lon="6.45019">
        <ele>2420.7</ele>
        <time>2022-01-14T10:17:22Z</time>
      </trkpt>
      <trkpt lat="44.99622" lon="6.4502">
        <ele>2420.7</ele>
        <time>2022-01-14T10:17:23Z</time>
      </trkpt>
      <trkpt lat="44.99623" lon="6.4502">
        <ele>2420.7</ele>
        <time>2022-01-14T10:17:24Z</time>
      </trkpt>
      <trkpt lat="44.99624" lon="6.4502">
        <ele>2420.7</ele>
        <time>2022-01-14T10:17:25Z</time>
      </trkpt>
      <trkpt lat="44.99624" lon="6.45021">
        <ele>2420.7</ele>
        <time>2022-01-14T10:17:26Z</time>
      </trkpt>
      <trkpt lat="44.99624" lon="6.45021">
        <ele>2420.7</ele>
        <time>2022-01-14T10:17:27Z</time>
      </trkpt>
      <trkpt lat="44.99625" lon="6.45021">
        <ele>2421.7</ele>
        <time>2022-01-14T10:17:28Z</time>
      </trkpt>
      <trkpt lat="44.99626" lon="6.4502">
        <ele>2421.7</ele>
        <time>2022-01-14T10:17:29Z</time>
      </trkpt>
      <trkpt lat="44.99626" lon="6.4502">
        <ele>2421.7</ele>
        <time>2022-01-14T10:17:30Z</time>
      </trkpt>
      <trkpt lat="44.99627" lon="6.45019">
        <ele>2421.7</ele>
        <time>2022-01-14T10:17:31Z</time>
      </trkpt>
      <trkpt lat="44.99628" lon="6.45019">
        <ele>2422.7</ele>
        <time>2022-01-14T10:17:32Z</time>
      </trkpt>
      <trkpt lat="44.99628" lon="6.45018">
        <ele>2421.7</ele>
        <time>2022-01-14T10:17:33Z</time>
      </trkpt>
      <trkpt lat="44.99628" lon="6.45018">
        <ele>2421.7</ele>
        <time>2022-01-14T10:17:34Z</time>
      </trkpt>
      <trkpt lat="44.99628" lon="6.45018">
        <ele>2424.2</ele>
        <time>2022-01-14T10:17:35Z</time>
      </trkpt>
      <trkpt lat="44.99628" lon="6.45018">
        <ele>2424.2</ele>
        <time>2022-01-14T10:17:36Z</time>
      </trkpt>
      <trkpt lat="44.99628" lon="6.45018">
        <ele>2424.2</ele>
        <time>2022-01-14T10:17:37Z</time>
      </trkpt>
      <trkpt lat="44.99628" lon="6.45017">
        <ele>2424.2</ele>
        <time>2022-01-14T10:17:38Z</time>
      </trkpt>
      <trkpt lat="44.99628" lon="6.45015">
        <ele>2424.2</ele>
        <time>2022-01-14T10:17:39Z</time>
      </trkpt>
      <trkpt lat="44.99628" lon="6.45014">
        <ele>2424.2</ele>
        <time>2022-01-14T10:17:40Z</time>
      </trkpt>
      <trkpt lat="44.99628" lon="6.45013">
        <ele>2424.2</ele>
        <time>2022-01-14T10:17:41Z</time>
      </trkpt>
      <trkpt lat="44.99628" lon="6.45013">
        <ele>2425.7</ele>
        <time>2022-01-14T10:17:42Z</time>
      </trkpt>
      <trkpt lat="44.99628" lon="6.45013">
        <ele>2425.7</ele>
        <time>2022-01-14T10:17:43Z</time>
      </trkpt>
      <trkpt lat="44.99628" lon="6.45013">
        <ele>2425.7</ele>
        <time>2022-01-14T10:17:44Z</time>
      </trkpt>
      <trkpt lat="44.99628" lon="6.45013">
        <ele>2425.7</ele>
        <time>2022-01-14T10:17:45Z</time>
      </trkpt>
      <trkpt lat="44.99629" lon="6.45013">
        <ele>2425.7</ele>
        <time>2022-01-14T10:17:46Z</time>
      </trkpt>
      <trkpt lat="44.99628" lon="6.45013">
        <ele>2425.7</ele>
        <time>2022-01-14T10:17:47Z</time>
      </trkpt>
      <trkpt lat="44.99628" lon="6.45013">
        <ele>2425.7</ele>
        <time>2022-01-14T10:17:48Z</time>
      </trkpt>
      <trkpt lat="44.99629" lon="6.45012">
        <ele>2425.7</ele>
        <time>2022-01-14T10:17:49Z</time>
      </trkpt>
      <trkpt lat="44.99629" lon="6.45012">
        <ele>2425.7</ele>
        <time>2022-01-14T10:17:50Z</time>
      </trkpt>
      <trkpt lat="44.99629" lon="6.45012">
        <ele>2425.7</ele>
        <time>2022-01-14T10:17:51Z</time>
      </trkpt>
      <trkpt lat="44.99629" lon="6.45011">
        <ele>2425.7</ele>
        <time>2022-01-14T10:17:52Z</time>
      </trkpt>
      <trkpt lat="44.99629" lon="6.45011">
        <ele>2425.7</ele>
        <time>2022-01-14T10:17:53Z</time>
      </trkpt>
      <trkpt lat="44.99629" lon="6.45011">
        <ele>2425.7</ele>
        <time>2022-01-14T10:17:54Z</time>
      </trkpt>
      <trkpt lat="44.99629" lon="6.45011">
        <ele>2425.7</ele>
        <time>2022-01-14T10:17:55Z</time>
      </trkpt>
      <trkpt lat="44.99629" lon="6.45011">
        <ele>2425.7</ele>
        <time>2022-01-14T10:17:56Z</time>
      </trkpt>
      <trkpt lat="44.99628" lon="6.4501">
        <ele>2425.7</ele>
        <time>2022-01-14T10:17:57Z</time>
      </trkpt>
      <trkpt lat="44.99629" lon="6.4501">
        <ele>2425.7</ele>
        <time>2022-01-14T10:17:58Z</time>
      </trkpt>
      <trkpt lat="44.99629" lon="6.45009">
        <ele>2427.2</ele>
        <time>2022-01-14T10:17:59Z</time>
      </trkpt>
      <trkpt lat="44.99629" lon="6.45008">
        <ele>2427.2</ele>
        <time>2022-01-14T10:18:00Z</time>
      </trkpt>
      <trkpt lat="44.99629" lon="6.45008">
        <ele>2427.2</ele>
        <time>2022-01-14T10:18:01Z</time>
      </trkpt>
      <trkpt lat="44.99629" lon="6.45008">
        <ele>2427.2</ele>
        <time>2022-01-14T10:18:02Z</time>
      </trkpt>
      <trkpt lat="44.99629" lon="6.45008">
        <ele>2427.2</ele>
        <time>2022-01-14T10:18:03Z</time>
      </trkpt>
      <trkpt lat="44.99629" lon="6.45008">
        <ele>2427.2</ele>
        <time>2022-01-14T10:18:04Z</time>
      </trkpt>
      <trkpt lat="44.99629" lon="6.45008">
        <ele>2427.2</ele>
        <time>2022-01-14T10:18:05Z</time>
      </trkpt>
      <trkpt lat="44.99629" lon="6.45007">
        <ele>2427.2</ele>
        <time>2022-01-14T10:18:06Z</time>
      </trkpt>
      <trkpt lat="44.99629" lon="6.45006">
        <ele>2427.2</ele>
        <time>2022-01-14T10:18:07Z</time>
      </trkpt>
      <trkpt lat="44.99629" lon="6.45005">
        <ele>2429</ele>
        <time>2022-01-14T10:18:08Z</time>
      </trkpt>
      <trkpt lat="44.99629" lon="6.45004">
        <ele>2429</ele>
        <time>2022-01-14T10:18:09Z</time>
      </trkpt>
      <trkpt lat="44.99629" lon="6.45003">
        <ele>2429</ele>
        <time>2022-01-14T10:18:10Z</time>
      </trkpt>
      <trkpt lat="44.99629" lon="6.45002">
        <ele>2429</ele>
        <time>2022-01-14T10:18:11Z</time>
      </trkpt>
      <trkpt lat="44.99629" lon="6.45001">
        <ele>2429</ele>
        <time>2022-01-14T10:18:12Z</time>
      </trkpt>
      <trkpt lat="44.99629" lon="6.45">
        <ele>2430.7</ele>
        <time>2022-01-14T10:18:13Z</time>
      </trkpt>
      <trkpt lat="44.99628" lon="6.45">
        <ele>2430.7</ele>
        <time>2022-01-14T10:18:14Z</time>
      </trkpt>
      <trkpt lat="44.99628" lon="6.45">
        <ele>2430.7</ele>
        <time>2022-01-14T10:18:15Z</time>
      </trkpt>
      <trkpt lat="44.99629" lon="6.44998">
        <ele>2430.7</ele>
        <time>2022-01-14T10:18:16Z</time>
      </trkpt>
      <trkpt lat="44.99628" lon="6.44997">
        <ele>2430.7</ele>
        <time>2022-01-14T10:18:17Z</time>
      </trkpt>
      <trkpt lat="44.99627" lon="6.44997">
        <ele>2429.7</ele>
        <time>2022-01-14T10:18:18Z</time>
      </trkpt>
      <trkpt lat="44.99626" lon="6.44996">
        <ele>2431.5</ele>
        <time>2022-01-14T10:18:19Z</time>
      </trkpt>
      <trkpt lat="44.99626" lon="6.44995">
        <ele>2431.5</ele>
        <time>2022-01-14T10:18:20Z</time>
      </trkpt>
      <trkpt lat="44.99625" lon="6.44995">
        <ele>2431.5</ele>
        <time>2022-01-14T10:18:21Z</time>
      </trkpt>
      <trkpt lat="44.99625" lon="6.44995">
        <ele>2430.5</ele>
        <time>2022-01-14T10:18:22Z</time>
      </trkpt>
      <trkpt lat="44.99624" lon="6.44995">
        <ele>2430.5</ele>
        <time>2022-01-14T10:18:23Z</time>
      </trkpt>
      <trkpt lat="44.99624" lon="6.44994">
        <ele>2430.5</ele>
        <time>2022-01-14T10:18:24Z</time>
      </trkpt>
      <trkpt lat="44.99624" lon="6.44994">
        <ele>2430.5</ele>
        <time>2022-01-14T10:18:25Z</time>
      </trkpt>
      <trkpt lat="44.99624" lon="6.44994">
        <ele>2430.5</ele>
        <time>2022-01-14T10:18:26Z</time>
      </trkpt>
      <trkpt lat="44.99623" lon="6.44993">
        <ele>2430.5</ele>
        <time>2022-01-14T10:18:27Z</time>
      </trkpt>
      <trkpt lat="44.99624" lon="6.44992">
        <ele>2432.3</ele>
        <time>2022-01-14T10:18:28Z</time>
      </trkpt>
      <trkpt lat="44.99624" lon="6.44991">
        <ele>2432.3</ele>
        <time>2022-01-14T10:18:29Z</time>
      </trkpt>
      <trkpt lat="44.99624" lon="6.44988">
        <ele>2432.3</ele>
        <time>2022-01-14T10:18:30Z</time>
      </trkpt>
      <trkpt lat="44.99624" lon="6.44988">
        <ele>2434.6</ele>
        <time>2022-01-14T10:18:31Z</time>
      </trkpt>
      <trkpt lat="44.99624" lon="6.44987">
        <ele>2434.6</ele>
        <time>2022-01-14T10:18:32Z</time>
      </trkpt>
      <trkpt lat="44.99623" lon="6.44987">
        <ele>2434.6</ele>
        <time>2022-01-14T10:18:33Z</time>
      </trkpt>
      <trkpt lat="44.99623" lon="6.44987">
        <ele>2434.6</ele>
        <time>2022-01-14T10:18:34Z</time>
      </trkpt>
      <trkpt lat="44.99623" lon="6.44987">
        <ele>2434.6</ele>
        <time>2022-01-14T10:18:35Z</time>
      </trkpt>
      <trkpt lat="44.99623" lon="6.44986">
        <ele>2434.6</ele>
        <time>2022-01-14T10:18:36Z</time>
      </trkpt>
      <trkpt lat="44.99623" lon="6.44986">
        <ele>2434.6</ele>
        <time>2022-01-14T10:18:37Z</time>
      </trkpt>
      <trkpt lat="44.99624" lon="6.44986">
        <ele>2434.6</ele>
        <time>2022-01-14T10:18:38Z</time>
      </trkpt>
      <trkpt lat="44.99624" lon="6.44986">
        <ele>2434.6</ele>
        <time>2022-01-14T10:18:39Z</time>
      </trkpt>
      <trkpt lat="44.99623" lon="6.44986">
        <ele>2434.6</ele>
        <time>2022-01-14T10:18:40Z</time>
      </trkpt>
      <trkpt lat="44.99623" lon="6.44985">
        <ele>2434.6</ele>
        <time>2022-01-14T10:18:41Z</time>
      </trkpt>
      <trkpt lat="44.99622" lon="6.44985">
        <ele>2434.6</ele>
        <time>2022-01-14T10:18:42Z</time>
      </trkpt>
      <trkpt lat="44.99622" lon="6.44985">
        <ele>2434.6</ele>
        <time>2022-01-14T10:18:43Z</time>
      </trkpt>
      <trkpt lat="44.99623" lon="6.44985">
        <ele>2434.6</ele>
        <time>2022-01-14T10:18:44Z</time>
      </trkpt>
      <trkpt lat="44.99623" lon="6.44984">
        <ele>2434.6</ele>
        <time>2022-01-14T10:18:45Z</time>
      </trkpt>
      <trkpt lat="44.99623" lon="6.44983">
        <ele>2436.8</ele>
        <time>2022-01-14T10:18:46Z</time>
      </trkpt>
      <trkpt lat="44.99622" lon="6.44982">
        <ele>2436.8</ele>
        <time>2022-01-14T10:18:47Z</time>
      </trkpt>
      <trkpt lat="44.99622" lon="6.44981">
        <ele>2436.8</ele>
        <time>2022-01-14T10:18:48Z</time>
      </trkpt>
      <trkpt lat="44.99622" lon="6.4498">
        <ele>2436.8</ele>
        <time>2022-01-14T10:18:49Z</time>
      </trkpt>
      <trkpt lat="44.99622" lon="6.4498">
        <ele>2436.8</ele>
        <time>2022-01-14T10:18:50Z</time>
      </trkpt>
      <trkpt lat="44.99622" lon="6.4498">
        <ele>2436.8</ele>
        <time>2022-01-14T10:18:51Z</time>
      </trkpt>
      <trkpt lat="44.99622" lon="6.44979">
        <ele>2436.8</ele>
        <time>2022-01-14T10:18:52Z</time>
      </trkpt>
      <trkpt lat="44.99622" lon="6.44979">
        <ele>2439.1</ele>
        <time>2022-01-14T10:18:53Z</time>
      </trkpt>
      <trkpt lat="44.99622" lon="6.44978">
        <ele>2439.1</ele>
        <time>2022-01-14T10:18:54Z</time>
      </trkpt>
      <trkpt lat="44.99623" lon="6.44977">
        <ele>2439.1</ele>
        <time>2022-01-14T10:18:55Z</time>
      </trkpt>
      <trkpt lat="44.99623" lon="6.44976">
        <ele>2439.1</ele>
        <time>2022-01-14T10:18:56Z</time>
      </trkpt>
      <trkpt lat="44.99623" lon="6.44976">
        <ele>2439.1</ele>
        <time>2022-01-14T10:18:57Z</time>
      </trkpt>
      <trkpt lat="44.99623" lon="6.44976">
        <ele>2439.1</ele>
        <time>2022-01-14T10:18:58Z</time>
      </trkpt>
      <trkpt lat="44.99622" lon="6.44976">
        <ele>2439.1</ele>
        <time>2022-01-14T10:18:59Z</time>
      </trkpt>
      <trkpt lat="44.99622" lon="6.44977">
        <ele>2439.1</ele>
        <time>2022-01-14T10:19:00Z</time>
      </trkpt>
      <trkpt lat="44.99622" lon="6.44977">
        <ele>2439.1</ele>
        <time>2022-01-14T10:19:01Z</time>
      </trkpt>
      <trkpt lat="44.99623" lon="6.44977">
        <ele>2439.1</ele>
        <time>2022-01-14T10:19:02Z</time>
      </trkpt>
      <trkpt lat="44.99622" lon="6.44977">
        <ele>2439.1</ele>
        <time>2022-01-14T10:19:03Z</time>
      </trkpt>
      <trkpt lat="44.99622" lon="6.44977">
        <ele>2438.1</ele>
        <time>2022-01-14T10:19:04Z</time>
      </trkpt>
      <trkpt lat="44.99621" lon="6.44976">
        <ele>2438.1</ele>
        <time>2022-01-14T10:19:05Z</time>
      </trkpt>
      <trkpt lat="44.99621" lon="6.44975">
        <ele>2440.4</ele>
        <time>2022-01-14T10:19:06Z</time>
      </trkpt>
      <trkpt lat="44.99621" lon="6.44974">
        <ele>2440.4</ele>
        <time>2022-01-14T10:19:07Z</time>
      </trkpt>
      <trkpt lat="44.99621" lon="6.44974">
        <ele>2440.4</ele>
        <time>2022-01-14T10:19:08Z</time>
      </trkpt>
      <trkpt lat="44.99621" lon="6.44973">
        <ele>2440.4</ele>
        <time>2022-01-14T10:19:09Z</time>
      </trkpt>
      <trkpt lat="44.99621" lon="6.44973">
        <ele>2440.4</ele>
        <time>2022-01-14T10:19:10Z</time>
      </trkpt>
      <trkpt lat="44.99621" lon="6.44972">
        <ele>2440.4</ele>
        <time>2022-01-14T10:19:11Z</time>
      </trkpt>
      <trkpt lat="44.99621" lon="6.44972">
        <ele>2440.4</ele>
        <time>2022-01-14T10:19:12Z</time>
      </trkpt>
      <trkpt lat="44.99621" lon="6.44971">
        <ele>2440.4</ele>
        <time>2022-01-14T10:19:13Z</time>
      </trkpt>
      <trkpt lat="44.99621" lon="6.4497">
        <ele>2442.9</ele>
        <time>2022-01-14T10:19:14Z</time>
      </trkpt>
      <trkpt lat="44.99621" lon="6.4497">
        <ele>2442.9</ele>
        <time>2022-01-14T10:19:15Z</time>
      </trkpt>
      <trkpt lat="44.99621" lon="6.4497">
        <ele>2442.9</ele>
        <time>2022-01-14T10:19:16Z</time>
      </trkpt>
      <trkpt lat="44.99621" lon="6.4497">
        <ele>2442.9</ele>
        <time>2022-01-14T10:19:17Z</time>
      </trkpt>
      <trkpt lat="44.99621" lon="6.44971">
        <ele>2440.4</ele>
        <time>2022-01-14T10:19:18Z</time>
      </trkpt>
      <trkpt lat="44.99621" lon="6.44971">
        <ele>2440.4</ele>
        <time>2022-01-14T10:19:19Z</time>
      </trkpt>
      <trkpt lat="44.99621" lon="6.44972">
        <ele>2440.4</ele>
        <time>2022-01-14T10:19:20Z</time>
      </trkpt>
      <trkpt lat="44.99621" lon="6.44972">
        <ele>2440.4</ele>
        <time>2022-01-14T10:19:21Z</time>
      </trkpt>
      <trkpt lat="44.99621" lon="6.44972">
        <ele>2440.4</ele>
        <time>2022-01-14T10:19:22Z</time>
      </trkpt>
      <trkpt lat="44.99621" lon="6.44972">
        <ele>2440.4</ele>
        <time>2022-01-14T10:19:23Z</time>
      </trkpt>
      <trkpt lat="44.99622" lon="6.44972">
        <ele>2441.4</ele>
        <time>2022-01-14T10:19:24Z</time>
      </trkpt>
      <trkpt lat="44.99623" lon="6.44973">
        <ele>2441.4</ele>
        <time>2022-01-14T10:19:25Z</time>
      </trkpt>
      <trkpt lat="44.99623" lon="6.44973">
        <ele>2441.4</ele>
        <time>2022-01-14T10:19:26Z</time>
      </trkpt>
      <trkpt lat="44.99623" lon="6.44973">
        <ele>2441.4</ele>
        <time>2022-01-14T10:19:27Z</time>
      </trkpt>
      <trkpt lat="44.99623" lon="6.44973">
        <ele>2441.4</ele>
        <time>2022-01-14T10:19:28Z</time>
      </trkpt>
      <trkpt lat="44.99623" lon="6.44972">
        <ele>2441.4</ele>
        <time>2022-01-14T10:19:29Z</time>
      </trkpt>
      <trkpt lat="44.99624" lon="6.44971">
        <ele>2441.4</ele>
        <time>2022-01-14T10:19:30Z</time>
      </trkpt>
      <trkpt lat="44.99624" lon="6.44971">
        <ele>2441.4</ele>
        <time>2022-01-14T10:19:31Z</time>
      </trkpt>
      <trkpt lat="44.99624" lon="6.4497">
        <ele>2443.9</ele>
        <time>2022-01-14T10:19:32Z</time>
      </trkpt>
      <trkpt lat="44.99624" lon="6.4497">
        <ele>2443.9</ele>
        <time>2022-01-14T10:19:33Z</time>
      </trkpt>
      <trkpt lat="44.99624" lon="6.4497">
        <ele>2443.9</ele>
        <time>2022-01-14T10:19:34Z</time>
      </trkpt>
      <trkpt lat="44.99624" lon="6.4497">
        <ele>2443.9</ele>
        <time>2022-01-14T10:19:35Z</time>
      </trkpt>
      <trkpt lat="44.99625" lon="6.4497">
        <ele>2444.9</ele>
        <time>2022-01-14T10:19:36Z</time>
      </trkpt>
      <trkpt lat="44.99625" lon="6.4497">
        <ele>2444.9</ele>
        <time>2022-01-14T10:19:37Z</time>
      </trkpt>
      <trkpt lat="44.99625" lon="6.44971">
        <ele>2442.4</ele>
        <time>2022-01-14T10:19:38Z</time>
      </trkpt>
      <trkpt lat="44.99625" lon="6.44971">
        <ele>2442.4</ele>
        <time>2022-01-14T10:19:39Z</time>
      </trkpt>
      <trkpt lat="44.99625" lon="6.44972">
        <ele>2442.4</ele>
        <time>2022-01-14T10:19:40Z</time>
      </trkpt>
      <trkpt lat="44.99625" lon="6.44972">
        <ele>2442.4</ele>
        <time>2022-01-14T10:19:41Z</time>
      </trkpt>
      <trkpt lat="44.99625" lon="6.44972">
        <ele>2442.4</ele>
        <time>2022-01-14T10:19:42Z</time>
      </trkpt>
      <trkpt lat="44.99625" lon="6.44972">
        <ele>2442.4</ele>
        <time>2022-01-14T10:19:43Z</time>
      </trkpt>
      <trkpt lat="44.99625" lon="6.44972">
        <ele>2442.4</ele>
        <time>2022-01-14T10:19:44Z</time>
      </trkpt>
      <trkpt lat="44.99625" lon="6.44973">
        <ele>2442.4</ele>
        <time>2022-01-14T10:19:45Z</time>
      </trkpt>
      <trkpt lat="44.99626" lon="6.44973">
        <ele>2442.4</ele>
        <time>2022-01-14T10:19:46Z</time>
      </trkpt>
      <trkpt lat="44.99625" lon="6.44973">
        <ele>2442.4</ele>
        <time>2022-01-14T10:19:47Z</time>
      </trkpt>
      <trkpt lat="44.99625" lon="6.44973">
        <ele>2442.4</ele>
        <time>2022-01-14T10:19:48Z</time>
      </trkpt>
      <trkpt lat="44.99625" lon="6.44973">
        <ele>2442.4</ele>
        <time>2022-01-14T10:19:49Z</time>
      </trkpt>
      <trkpt lat="44.99626" lon="6.44974">
        <ele>2442.4</ele>
        <time>2022-01-14T10:19:50Z</time>
      </trkpt>
      <trkpt lat="44.99626" lon="6.44974">
        <ele>2442.4</ele>
        <time>2022-01-14T10:19:51Z</time>
      </trkpt>
      <trkpt lat="44.99626" lon="6.44974">
        <ele>2442.4</ele>
        <time>2022-01-14T10:19:52Z</time>
      </trkpt>
      <trkpt lat="44.99626" lon="6.44975">
        <ele>2442.4</ele>
        <time>2022-01-14T10:19:53Z</time>
      </trkpt>
      <trkpt lat="44.99626" lon="6.44975">
        <ele>2442.4</ele>
        <time>2022-01-14T10:19:54Z</time>
      </trkpt>
      <trkpt lat="44.99625" lon="6.44974">
        <ele>2442.4</ele>
        <time>2022-01-14T10:19:55Z</time>
      </trkpt>
      <trkpt lat="44.99625" lon="6.44974">
        <ele>2442.4</ele>
        <time>2022-01-14T10:19:56Z</time>
      </trkpt>
      <trkpt lat="44.99625" lon="6.44975">
        <ele>2440.1</ele>
        <time>2022-01-14T10:19:57Z</time>
      </trkpt>
      <trkpt lat="44.99625" lon="6.44975">
        <ele>2442.4</ele>
        <time>2022-01-14T10:19:58Z</time>
      </trkpt>
      <trkpt lat="44.99626" lon="6.44975">
        <ele>2440.1</ele>
        <time>2022-01-14T10:19:59Z</time>
      </trkpt>
      <trkpt lat="44.99626" lon="6.44976">
        <ele>2440.1</ele>
        <time>2022-01-14T10:20:00Z</time>
      </trkpt>
      <trkpt lat="44.99626" lon="6.44976">
        <ele>2440.1</ele>
        <time>2022-01-14T10:20:01Z</time>
      </trkpt>
      <trkpt lat="44.99626" lon="6.44976">
        <ele>2440.1</ele>
        <time>2022-01-14T10:20:02Z</time>
      </trkpt>
      <trkpt lat="44.99627" lon="6.44976">
        <ele>2440.1</ele>
        <time>2022-01-14T10:20:03Z</time>
      </trkpt>
      <trkpt lat="44.99627" lon="6.44976">
        <ele>2440.1</ele>
        <time>2022-01-14T10:20:04Z</time>
      </trkpt>
      <trkpt lat="44.99626" lon="6.44976">
        <ele>2440.1</ele>
        <time>2022-01-14T10:20:05Z</time>
      </trkpt>
      <trkpt lat="44.99626" lon="6.44976">
        <ele>2440.1</ele>
        <time>2022-01-14T10:20:06Z</time>
      </trkpt>
      <trkpt lat="44.99626" lon="6.44976">
        <ele>2440.1</ele>
        <time>2022-01-14T10:20:07Z</time>
      </trkpt>
      <trkpt lat="44.99626" lon="6.44977">
        <ele>2440.1</ele>
        <time>2022-01-14T10:20:08Z</time>
      </trkpt>
      <trkpt lat="44.99626" lon="6.44977">
        <ele>2440.1</ele>
        <time>2022-01-14T10:20:09Z</time>
      </trkpt>
      <trkpt lat="44.99627" lon="6.44978">
        <ele>2440.1</ele>
        <time>2022-01-14T10:20:10Z</time>
      </trkpt>
      <trkpt lat="44.99627" lon="6.44978">
        <ele>2440.1</ele>
        <time>2022-01-14T10:20:11Z</time>
      </trkpt>
      <trkpt lat="44.99628" lon="6.44977">
        <ele>2441.1</ele>
        <time>2022-01-14T10:20:12Z</time>
      </trkpt>
      <trkpt lat="44.99628" lon="6.44976">
        <ele>2441.1</ele>
        <time>2022-01-14T10:20:13Z</time>
      </trkpt>
      <trkpt lat="44.99629" lon="6.44976">
        <ele>2441.1</ele>
        <time>2022-01-14T10:20:14Z</time>
      </trkpt>
      <trkpt lat="44.99629" lon="6.44976">
        <ele>2441.1</ele>
        <time>2022-01-14T10:20:15Z</time>
      </trkpt>
      <trkpt lat="44.99629" lon="6.44976">
        <ele>2441.1</ele>
        <time>2022-01-14T10:20:16Z</time>
      </trkpt>
      <trkpt lat="44.99629" lon="6.44976">
        <ele>2441.1</ele>
        <time>2022-01-14T10:20:17Z</time>
      </trkpt>
      <trkpt lat="44.99629" lon="6.44976">
        <ele>2441.1</ele>
        <time>2022-01-14T10:20:18Z</time>
      </trkpt>
      <trkpt lat="44.99629" lon="6.44976">
        <ele>2441.1</ele>
        <time>2022-01-14T10:20:19Z</time>
      </trkpt>
      <trkpt lat="44.99629" lon="6.44976">
        <ele>2441.1</ele>
        <time>2022-01-14T10:20:20Z</time>
      </trkpt>
      <trkpt lat="44.9963" lon="6.44976">
        <ele>2441.1</ele>
        <time>2022-01-14T10:20:21Z</time>
      </trkpt>
      <trkpt lat="44.99631" lon="6.44976">
        <ele>2441.1</ele>
        <time>2022-01-14T10:20:22Z</time>
      </trkpt>
      <trkpt lat="44.99631" lon="6.44976">
        <ele>2442.4</ele>
        <time>2022-01-14T10:20:23Z</time>
      </trkpt>
      <trkpt lat="44.99632" lon="6.44976">
        <ele>2442.4</ele>
        <time>2022-01-14T10:20:24Z</time>
      </trkpt>
      <trkpt lat="44.99633" lon="6.44976">
        <ele>2442.4</ele>
        <time>2022-01-14T10:20:25Z</time>
      </trkpt>
      <trkpt lat="44.99633" lon="6.44976">
        <ele>2442.4</ele>
        <time>2022-01-14T10:20:26Z</time>
      </trkpt>
      <trkpt lat="44.99633" lon="6.44977">
        <ele>2442.4</ele>
        <time>2022-01-14T10:20:27Z</time>
      </trkpt>
      <trkpt lat="44.99633" lon="6.44978">
        <ele>2442.4</ele>
        <time>2022-01-14T10:20:28Z</time>
      </trkpt>
      <trkpt lat="44.99633" lon="6.44978">
        <ele>2442.4</ele>
        <time>2022-01-14T10:20:29Z</time>
      </trkpt>
      <trkpt lat="44.99633" lon="6.44979">
        <ele>2440.2</ele>
        <time>2022-01-14T10:20:30Z</time>
      </trkpt>
      <trkpt lat="44.99634" lon="6.4498">
        <ele>2440.2</ele>
        <time>2022-01-14T10:20:31Z</time>
      </trkpt>
      <trkpt lat="44.99634" lon="6.4498">
        <ele>2440.2</ele>
        <time>2022-01-14T10:20:32Z</time>
      </trkpt>
      <trkpt lat="44.99634" lon="6.4498">
        <ele>2441.7</ele>
        <time>2022-01-14T10:20:33Z</time>
      </trkpt>
      <trkpt lat="44.99634" lon="6.4498">
        <ele>2441.7</ele>
        <time>2022-01-14T10:20:35Z</time>
      </trkpt>
      <trkpt lat="44.99634" lon="6.4498">
        <ele>2441.7</ele>
        <time>2022-01-14T10:20:36Z</time>
      </trkpt>
      <trkpt lat="44.99635" lon="6.44981">
        <ele>2441.7</ele>
        <time>2022-01-14T10:20:37Z</time>
      </trkpt>
      <trkpt lat="44.99635" lon="6.44981">
        <ele>2441.7</ele>
        <time>2022-01-14T10:20:38Z</time>
      </trkpt>
      <trkpt lat="44.99635" lon="6.4498">
        <ele>2441.7</ele>
        <time>2022-01-14T10:20:39Z</time>
      </trkpt>
      <trkpt lat="44.99635" lon="6.44979">
        <ele>2441.7</ele>
        <time>2022-01-14T10:20:40Z</time>
      </trkpt>
      <trkpt lat="44.99635" lon="6.4498">
        <ele>2441.7</ele>
        <time>2022-01-14T10:20:41Z</time>
      </trkpt>
      <trkpt lat="44.99635" lon="6.4498">
        <ele>2441.7</ele>
        <time>2022-01-14T10:20:42Z</time>
      </trkpt>
      <trkpt lat="44.99635" lon="6.4498">
        <ele>2441.7</ele>
        <time>2022-01-14T10:20:43Z</time>
      </trkpt>
      <trkpt lat="44.99635" lon="6.4498">
        <ele>2441.7</ele>
        <time>2022-01-14T10:20:44Z</time>
      </trkpt>
      <trkpt lat="44.99634" lon="6.4498">
        <ele>2441.7</ele>
        <time>2022-01-14T10:20:45Z</time>
      </trkpt>
      <trkpt lat="44.99635" lon="6.44981">
        <ele>2441.7</ele>
        <time>2022-01-14T10:20:46Z</time>
      </trkpt>
      <trkpt lat="44.99636" lon="6.44981">
        <ele>2441.7</ele>
        <time>2022-01-14T10:20:47Z</time>
      </trkpt>
      <trkpt lat="44.99636" lon="6.44981">
        <ele>2441.7</ele>
        <time>2022-01-14T10:20:48Z</time>
      </trkpt>
      <trkpt lat="44.99636" lon="6.44983">
        <ele>2441.7</ele>
        <time>2022-01-14T10:20:49Z</time>
      </trkpt>
      <trkpt lat="44.99636" lon="6.44984">
        <ele>2439.5</ele>
        <time>2022-01-14T10:20:50Z</time>
      </trkpt>
      <trkpt lat="44.99636" lon="6.44985">
        <ele>2439.5</ele>
        <time>2022-01-14T10:20:51Z</time>
      </trkpt>
      <trkpt lat="44.99637" lon="6.44986">
        <ele>2439.5</ele>
        <time>2022-01-14T10:20:52Z</time>
      </trkpt>
      <trkpt lat="44.99637" lon="6.44987">
        <ele>2439.5</ele>
        <time>2022-01-14T10:20:53Z</time>
      </trkpt>
      <trkpt lat="44.99637" lon="6.44987">
        <ele>2440.9</ele>
        <time>2022-01-14T10:20:54Z</time>
      </trkpt>
      <trkpt lat="44.99637" lon="6.44987">
        <ele>2440.9</ele>
        <time>2022-01-14T10:20:55Z</time>
      </trkpt>
      <trkpt lat="44.99637" lon="6.44987">
        <ele>2440.9</ele>
        <time>2022-01-14T10:20:56Z</time>
      </trkpt>
      <trkpt lat="44.99637" lon="6.44988">
        <ele>2437.2</ele>
        <time>2022-01-14T10:20:57Z</time>
      </trkpt>
      <trkpt lat="44.99637" lon="6.4499">
        <ele>2437.2</ele>
        <time>2022-01-14T10:20:58Z</time>
      </trkpt>
      <trkpt lat="44.99636" lon="6.44989">
        <ele>2437.2</ele>
        <time>2022-01-14T10:20:59Z</time>
      </trkpt>
      <trkpt lat="44.99636" lon="6.44988">
        <ele>2437.2</ele>
        <time>2022-01-14T10:21:00Z</time>
      </trkpt>
      <trkpt lat="44.99637" lon="6.44989">
        <ele>2438.7</ele>
        <time>2022-01-14T10:21:01Z</time>
      </trkpt>
      <trkpt lat="44.99637" lon="6.44989">
        <ele>2438.7</ele>
        <time>2022-01-14T10:21:02Z</time>
      </trkpt>
      <trkpt lat="44.99638" lon="6.4499">
        <ele>2438.7</ele>
        <time>2022-01-14T10:21:03Z</time>
      </trkpt>
      <trkpt lat="44.99638" lon="6.4499">
        <ele>2438.7</ele>
        <time>2022-01-14T10:21:04Z</time>
      </trkpt>
      <trkpt lat="44.99639" lon="6.4499">
        <ele>2438.7</ele>
        <time>2022-01-14T10:21:05Z</time>
      </trkpt>
      <trkpt lat="44.99639" lon="6.4499">
        <ele>2438.7</ele>
        <time>2022-01-14T10:21:06Z</time>
      </trkpt>
      <trkpt lat="44.99639" lon="6.44989">
        <ele>2438.7</ele>
        <time>2022-01-14T10:21:07Z</time>
      </trkpt>
      <trkpt lat="44.99639" lon="6.44989">
        <ele>2438.7</ele>
        <time>2022-01-14T10:21:08Z</time>
      </trkpt>
      <trkpt lat="44.9964" lon="6.44988">
        <ele>2438.7</ele>
        <time>2022-01-14T10:21:09Z</time>
      </trkpt>
      <trkpt lat="44.9964" lon="6.44989">
        <ele>2440.2</ele>
        <time>2022-01-14T10:21:10Z</time>
      </trkpt>
      <trkpt lat="44.99641" lon="6.44989">
        <ele>2440.2</ele>
        <time>2022-01-14T10:21:11Z</time>
      </trkpt>
      <trkpt lat="44.99641" lon="6.4499">
        <ele>2440.2</ele>
        <time>2022-01-14T10:21:12Z</time>
      </trkpt>
      <trkpt lat="44.99641" lon="6.44989">
        <ele>2440.2</ele>
        <time>2022-01-14T10:21:13Z</time>
      </trkpt>
      <trkpt lat="44.99641" lon="6.44989">
        <ele>2440.2</ele>
        <time>2022-01-14T10:21:14Z</time>
      </trkpt>
      <trkpt lat="44.99641" lon="6.44989">
        <ele>2440.2</ele>
        <time>2022-01-14T10:21:15Z</time>
      </trkpt>
      <trkpt lat="44.99641" lon="6.44989">
        <ele>2440.2</ele>
        <time>2022-01-14T10:21:16Z</time>
      </trkpt>
      <trkpt lat="44.99641" lon="6.44989">
        <ele>2440.2</ele>
        <time>2022-01-14T10:21:17Z</time>
      </trkpt>
      <trkpt lat="44.99641" lon="6.44989">
        <ele>2440.2</ele>
        <time>2022-01-14T10:21:18Z</time>
      </trkpt>
      <trkpt lat="44.99641" lon="6.44989">
        <ele>2440.2</ele>
        <time>2022-01-14T10:21:19Z</time>
      </trkpt>
      <trkpt lat="44.9964" lon="6.44989">
        <ele>2440.2</ele>
        <time>2022-01-14T10:21:20Z</time>
      </trkpt>
      <trkpt lat="44.9964" lon="6.44989">
        <ele>2440.2</ele>
        <time>2022-01-14T10:21:21Z</time>
      </trkpt>
      <trkpt lat="44.9964" lon="6.44989">
        <ele>2440.2</ele>
        <time>2022-01-14T10:21:22Z</time>
      </trkpt>
      <trkpt lat="44.9964" lon="6.44988">
        <ele>2440.2</ele>
        <time>2022-01-14T10:21:23Z</time>
      </trkpt>
      <trkpt lat="44.9964" lon="6.44987">
        <ele>2442.4</ele>
        <time>2022-01-14T10:21:24Z</time>
      </trkpt>
      <trkpt lat="44.99641" lon="6.44986">
        <ele>2442.4</ele>
        <time>2022-01-14T10:21:25Z</time>
      </trkpt>
      <trkpt lat="44.99641" lon="6.44986">
        <ele>2442.4</ele>
        <time>2022-01-14T10:21:26Z</time>
      </trkpt>
      <trkpt lat="44.99641" lon="6.44985">
        <ele>2442.4</ele>
        <time>2022-01-14T10:21:27Z</time>
      </trkpt>
      <trkpt lat="44.99642" lon="6.44984">
        <ele>2442.4</ele>
        <time>2022-01-14T10:21:28Z</time>
      </trkpt>
      <trkpt lat="44.99642" lon="6.44983">
        <ele>2444.7</ele>
        <time>2022-01-14T10:21:29Z</time>
      </trkpt>
      <trkpt lat="44.99643" lon="6.44982">
        <ele>2444.7</ele>
        <time>2022-01-14T10:21:30Z</time>
      </trkpt>
      <trkpt lat="44.99643" lon="6.44982">
        <ele>2444.7</ele>
        <time>2022-01-14T10:21:31Z</time>
      </trkpt>
      <trkpt lat="44.99643" lon="6.44983">
        <ele>2444.7</ele>
        <time>2022-01-14T10:21:32Z</time>
      </trkpt>
      <trkpt lat="44.99643" lon="6.44983">
        <ele>2446.3</ele>
        <time>2022-01-14T10:21:33Z</time>
      </trkpt>
      <trkpt lat="44.99643" lon="6.44982">
        <ele>2446.3</ele>
        <time>2022-01-14T10:21:34Z</time>
      </trkpt>
      <trkpt lat="44.99643" lon="6.44982">
        <ele>2444.7</ele>
        <time>2022-01-14T10:21:35Z</time>
      </trkpt>
      <trkpt lat="44.99643" lon="6.4498">
        <ele>2444.7</ele>
        <time>2022-01-14T10:21:36Z</time>
      </trkpt>
      <trkpt lat="44.99643" lon="6.44979">
        <ele>2448.5</ele>
        <time>2022-01-14T10:21:37Z</time>
      </trkpt>
      <trkpt lat="44.99643" lon="6.44978">
        <ele>2448.5</ele>
        <time>2022-01-14T10:21:38Z</time>
      </trkpt>
      <trkpt lat="44.99643" lon="6.44979">
        <ele>2446.3</ele>
        <time>2022-01-14T10:21:39Z</time>
      </trkpt>
      <trkpt lat="44.99643" lon="6.44978">
        <ele>2448.5</ele>
        <time>2022-01-14T10:21:40Z</time>
      </trkpt>
      <trkpt lat="44.99643" lon="6.44977">
        <ele>2448.5</ele>
        <time>2022-01-14T10:21:41Z</time>
      </trkpt>
      <trkpt lat="44.99643" lon="6.44976">
        <ele>2448.5</ele>
        <time>2022-01-14T10:21:42Z</time>
      </trkpt>
      <trkpt lat="44.99644" lon="6.44975">
        <ele>2448.5</ele>
        <time>2022-01-14T10:21:43Z</time>
      </trkpt>
      <trkpt lat="44.99643" lon="6.44974">
        <ele>2450.7</ele>
        <time>2022-01-14T10:21:44Z</time>
      </trkpt>
      <trkpt lat="44.99643" lon="6.44974">
        <ele>2450.7</ele>
        <time>2022-01-14T10:21:45Z</time>
      </trkpt>
      <trkpt lat="44.99644" lon="6.44973">
        <ele>2450.7</ele>
        <time>2022-01-14T10:21:46Z</time>
      </trkpt>
      <trkpt lat="44.99644" lon="6.44973">
        <ele>2450.7</ele>
        <time>2022-01-14T10:21:47Z</time>
      </trkpt>
      <trkpt lat="44.99644" lon="6.44973">
        <ele>2450.7</ele>
        <time>2022-01-14T10:21:48Z</time>
      </trkpt>
      <trkpt lat="44.99644" lon="6.44974">
        <ele>2450.7</ele>
        <time>2022-01-14T10:21:49Z</time>
      </trkpt>
      <trkpt lat="44.99644" lon="6.44973">
        <ele>2450.7</ele>
        <time>2022-01-14T10:21:50Z</time>
      </trkpt>
      <trkpt lat="44.99644" lon="6.44971">
        <ele>2450.7</ele>
        <time>2022-01-14T10:21:51Z</time>
      </trkpt>
      <trkpt lat="44.99643" lon="6.44971">
        <ele>2450.7</ele>
        <time>2022-01-14T10:21:52Z</time>
      </trkpt>
      <trkpt lat="44.99643" lon="6.4497">
        <ele>2452.9</ele>
        <time>2022-01-14T10:21:53Z</time>
      </trkpt>
      <trkpt lat="44.99643" lon="6.44968">
        <ele>2452.9</ele>
        <time>2022-01-14T10:21:54Z</time>
      </trkpt>
      <trkpt lat="44.99644" lon="6.44969">
        <ele>2452.9</ele>
        <time>2022-01-14T10:21:55Z</time>
      </trkpt>
      <trkpt lat="44.99644" lon="6.44968">
        <ele>2452.9</ele>
        <time>2022-01-14T10:21:56Z</time>
      </trkpt>
      <trkpt lat="44.99644" lon="6.44968">
        <ele>2452.9</ele>
        <time>2022-01-14T10:21:57Z</time>
      </trkpt>
      <trkpt lat="44.99643" lon="6.44968">
        <ele>2452.9</ele>
        <time>2022-01-14T10:21:58Z</time>
      </trkpt>
      <trkpt lat="44.99643" lon="6.44968">
        <ele>2452.9</ele>
        <time>2022-01-14T10:21:59Z</time>
      </trkpt>
      <trkpt lat="44.99643" lon="6.44968">
        <ele>2452.9</ele>
        <time>2022-01-14T10:22:00Z</time>
      </trkpt>
      <trkpt lat="44.99643" lon="6.44968">
        <ele>2452.9</ele>
        <time>2022-01-14T10:22:01Z</time>
      </trkpt>
      <trkpt lat="44.99643" lon="6.44968">
        <ele>2451.4</ele>
        <time>2022-01-14T10:22:02Z</time>
      </trkpt>
      <trkpt lat="44.99643" lon="6.44968">
        <ele>2452.9</ele>
        <time>2022-01-14T10:22:03Z</time>
      </trkpt>
      <trkpt lat="44.99643" lon="6.44968">
        <ele>2452.9</ele>
        <time>2022-01-14T10:22:04Z</time>
      </trkpt>
      <trkpt lat="44.99643" lon="6.44968">
        <ele>2452.9</ele>
        <time>2022-01-14T10:22:05Z</time>
      </trkpt>
      <trkpt lat="44.99643" lon="6.44968">
        <ele>2452.9</ele>
        <time>2022-01-14T10:22:06Z</time>
      </trkpt>
      <trkpt lat="44.99643" lon="6.44967">
        <ele>2452.9</ele>
        <time>2022-01-14T10:22:07Z</time>
      </trkpt>
      <trkpt lat="44.99643" lon="6.44967">
        <ele>2452.9</ele>
        <time>2022-01-14T10:22:08Z</time>
      </trkpt>
      <trkpt lat="44.99644" lon="6.44967">
        <ele>2452.9</ele>
        <time>2022-01-14T10:22:09Z</time>
      </trkpt>
      <trkpt lat="44.99644" lon="6.44966">
        <ele>2455.1</ele>
        <time>2022-01-14T10:22:10Z</time>
      </trkpt>
      <trkpt lat="44.99644" lon="6.44964">
        <ele>2455.1</ele>
        <time>2022-01-14T10:22:11Z</time>
      </trkpt>
      <trkpt lat="44.99644" lon="6.44963">
        <ele>2455.1</ele>
        <time>2022-01-14T10:22:12Z</time>
      </trkpt>
      <trkpt lat="44.99644" lon="6.44962">
        <ele>2457.3</ele>
        <time>2022-01-14T10:22:13Z</time>
      </trkpt>
      <trkpt lat="44.99644" lon="6.44961">
        <ele>2457.3</ele>
        <time>2022-01-14T10:22:14Z</time>
      </trkpt>
      <trkpt lat="44.99644" lon="6.44961">
        <ele>2457.3</ele>
        <time>2022-01-14T10:22:15Z</time>
      </trkpt>
      <trkpt lat="44.99644" lon="6.44962">
        <ele>2457.3</ele>
        <time>2022-01-14T10:22:16Z</time>
      </trkpt>
      <trkpt lat="44.99644" lon="6.44961">
        <ele>2457.3</ele>
        <time>2022-01-14T10:22:17Z</time>
      </trkpt>
      <trkpt lat="44.99643" lon="6.44961">
        <ele>2457.3</ele>
        <time>2022-01-14T10:22:18Z</time>
      </trkpt>
      <trkpt lat="44.99643" lon="6.44961">
        <ele>2457.3</ele>
        <time>2022-01-14T10:22:19Z</time>
      </trkpt>
      <trkpt lat="44.99642" lon="6.44961">
        <ele>2456</ele>
        <time>2022-01-14T10:22:20Z</time>
      </trkpt>
      <trkpt lat="44.99641" lon="6.44959">
        <ele>2456</ele>
        <time>2022-01-14T10:22:21Z</time>
      </trkpt>
      <trkpt lat="44.99641" lon="6.44959">
        <ele>2456</ele>
        <time>2022-01-14T10:22:22Z</time>
      </trkpt>
      <trkpt lat="44.9964" lon="6.44959">
        <ele>2454.7</ele>
        <time>2022-01-14T10:22:23Z</time>
      </trkpt>
      <trkpt lat="44.99639" lon="6.44959">
        <ele>2454.7</ele>
        <time>2022-01-14T10:22:24Z</time>
      </trkpt>
      <trkpt lat="44.99639" lon="6.44958">
        <ele>2454.7</ele>
        <time>2022-01-14T10:22:25Z</time>
      </trkpt>
      <trkpt lat="44.99639" lon="6.44958">
        <ele>2454.7</ele>
        <time>2022-01-14T10:22:26Z</time>
      </trkpt>
      <trkpt lat="44.99638" lon="6.44958">
        <ele>2454.7</ele>
        <time>2022-01-14T10:22:27Z</time>
      </trkpt>
      <trkpt lat="44.99638" lon="6.44956">
        <ele>2456.9</ele>
        <time>2022-01-14T10:22:28Z</time>
      </trkpt>
      <trkpt lat="44.99638" lon="6.44956">
        <ele>2456.9</ele>
        <time>2022-01-14T10:22:29Z</time>
      </trkpt>
      <trkpt lat="44.99637" lon="6.44955">
        <ele>2456.9</ele>
        <time>2022-01-14T10:22:30Z</time>
      </trkpt>
      <trkpt lat="44.99637" lon="6.44954">
        <ele>2456.9</ele>
        <time>2022-01-14T10:22:31Z</time>
      </trkpt>
      <trkpt lat="44.99637" lon="6.44954">
        <ele>2456.9</ele>
        <time>2022-01-14T10:22:32Z</time>
      </trkpt>
      <trkpt lat="44.99637" lon="6.44953">
        <ele>2456.9</ele>
        <time>2022-01-14T10:22:33Z</time>
      </trkpt>
      <trkpt lat="44.99638" lon="6.44953">
        <ele>2459</ele>
        <time>2022-01-14T10:22:34Z</time>
      </trkpt>
      <trkpt lat="44.99638" lon="6.44952">
        <ele>2459</ele>
        <time>2022-01-14T10:22:35Z</time>
      </trkpt>
      <trkpt lat="44.99638" lon="6.44951">
        <ele>2459</ele>
        <time>2022-01-14T10:22:36Z</time>
      </trkpt>
      <trkpt lat="44.99639" lon="6.4495">
        <ele>2459</ele>
        <time>2022-01-14T10:22:37Z</time>
      </trkpt>
      <trkpt lat="44.99639" lon="6.4495">
        <ele>2459</ele>
        <time>2022-01-14T10:22:38Z</time>
      </trkpt>
      <trkpt lat="44.99639" lon="6.44949">
        <ele>2461.1</ele>
        <time>2022-01-14T10:22:39Z</time>
      </trkpt>
      <trkpt lat="44.99639" lon="6.44949">
        <ele>2461.1</ele>
        <time>2022-01-14T10:22:40Z</time>
      </trkpt>
      <trkpt lat="44.99639" lon="6.44949">
        <ele>2461.1</ele>
        <time>2022-01-14T10:22:41Z</time>
      </trkpt>
      <trkpt lat="44.9964" lon="6.44948">
        <ele>2461.1</ele>
        <time>2022-01-14T10:22:42Z</time>
      </trkpt>
      <trkpt lat="44.99639" lon="6.44949">
        <ele>2459</ele>
        <time>2022-01-14T10:22:43Z</time>
      </trkpt>
      <trkpt lat="44.99639" lon="6.44949">
        <ele>2459</ele>
        <time>2022-01-14T10:22:44Z</time>
      </trkpt>
      <trkpt lat="44.99639" lon="6.44948">
        <ele>2461.1</ele>
        <time>2022-01-14T10:22:45Z</time>
      </trkpt>
      <trkpt lat="44.99639" lon="6.44947">
        <ele>2461.1</ele>
        <time>2022-01-14T10:22:46Z</time>
      </trkpt>
      <trkpt lat="44.99639" lon="6.44947">
        <ele>2461.1</ele>
        <time>2022-01-14T10:22:47Z</time>
      </trkpt>
      <trkpt lat="44.99639" lon="6.44946">
        <ele>2461.1</ele>
        <time>2022-01-14T10:22:48Z</time>
      </trkpt>
      <trkpt lat="44.99641" lon="6.44946">
        <ele>2462.2</ele>
        <time>2022-01-14T10:22:49Z</time>
      </trkpt>
      <trkpt lat="44.99641" lon="6.44945">
        <ele>2462.2</ele>
        <time>2022-01-14T10:22:50Z</time>
      </trkpt>
      <trkpt lat="44.99641" lon="6.44946">
        <ele>2462.2</ele>
        <time>2022-01-14T10:22:51Z</time>
      </trkpt>
      <trkpt lat="44.99641" lon="6.44945">
        <ele>2462.2</ele>
        <time>2022-01-14T10:22:52Z</time>
      </trkpt>
      <trkpt lat="44.99641" lon="6.44945">
        <ele>2462.2</ele>
        <time>2022-01-14T10:22:53Z</time>
      </trkpt>
      <trkpt lat="44.99641" lon="6.44945">
        <ele>2462.2</ele>
        <time>2022-01-14T10:22:54Z</time>
      </trkpt>
      <trkpt lat="44.9964" lon="6.44945">
        <ele>2462.2</ele>
        <time>2022-01-14T10:22:55Z</time>
      </trkpt>
      <trkpt lat="44.9964" lon="6.44945">
        <ele>2462.2</ele>
        <time>2022-01-14T10:22:56Z</time>
      </trkpt>
      <trkpt lat="44.9964" lon="6.44945">
        <ele>2462.2</ele>
        <time>2022-01-14T10:22:57Z</time>
      </trkpt>
      <trkpt lat="44.99641" lon="6.44944">
        <ele>2464.2</ele>
        <time>2022-01-14T10:22:58Z</time>
      </trkpt>
      <trkpt lat="44.9964" lon="6.44944">
        <ele>2464.2</ele>
        <time>2022-01-14T10:22:59Z</time>
      </trkpt>
      <trkpt lat="44.9964" lon="6.44943">
        <ele>2464.2</ele>
        <time>2022-01-14T10:23:00Z</time>
      </trkpt>
      <trkpt lat="44.99639" lon="6.44942">
        <ele>2463.1</ele>
        <time>2022-01-14T10:23:01Z</time>
      </trkpt>
      <trkpt lat="44.99639" lon="6.44941">
        <ele>2463.1</ele>
        <time>2022-01-14T10:23:02Z</time>
      </trkpt>
      <trkpt lat="44.99639" lon="6.44941">
        <ele>2463.1</ele>
        <time>2022-01-14T10:23:03Z</time>
      </trkpt>
      <trkpt lat="44.99639" lon="6.44941">
        <ele>2463.1</ele>
        <time>2022-01-14T10:23:04Z</time>
      </trkpt>
      <trkpt lat="44.99638" lon="6.44939">
        <ele>2465.2</ele>
        <time>2022-01-14T10:23:05Z</time>
      </trkpt>
      <trkpt lat="44.99637" lon="6.44939">
        <ele>2465.2</ele>
        <time>2022-01-14T10:23:06Z</time>
      </trkpt>
      <trkpt lat="44.99637" lon="6.44939">
        <ele>2464.2</ele>
        <time>2022-01-14T10:23:07Z</time>
      </trkpt>
      <trkpt lat="44.99637" lon="6.44939">
        <ele>2465.2</ele>
        <time>2022-01-14T10:23:08Z</time>
      </trkpt>
      <trkpt lat="44.99637" lon="6.44939">
        <ele>2465.2</ele>
        <time>2022-01-14T10:23:09Z</time>
      </trkpt>
      <trkpt lat="44.99637" lon="6.44939">
        <ele>2465.2</ele>
        <time>2022-01-14T10:23:10Z</time>
      </trkpt>
      <trkpt lat="44.99637" lon="6.44938">
        <ele>2465.2</ele>
        <time>2022-01-14T10:23:11Z</time>
      </trkpt>
      <trkpt lat="44.99637" lon="6.44937">
        <ele>2465.2</ele>
        <time>2022-01-14T10:23:12Z</time>
      </trkpt>
      <trkpt lat="44.99638" lon="6.44938">
        <ele>2465.2</ele>
        <time>2022-01-14T10:23:13Z</time>
      </trkpt>
      <trkpt lat="44.99638" lon="6.44938">
        <ele>2465.2</ele>
        <time>2022-01-14T10:23:14Z</time>
      </trkpt>
      <trkpt lat="44.99638" lon="6.44938">
        <ele>2465.2</ele>
        <time>2022-01-14T10:23:15Z</time>
      </trkpt>
      <trkpt lat="44.99638" lon="6.44938">
        <ele>2465.2</ele>
        <time>2022-01-14T10:23:16Z</time>
      </trkpt>
      <trkpt lat="44.99638" lon="6.44938">
        <ele>2465.2</ele>
        <time>2022-01-14T10:23:17Z</time>
      </trkpt>
      <trkpt lat="44.99639" lon="6.44938">
        <ele>2465.2</ele>
        <time>2022-01-14T10:23:18Z</time>
      </trkpt>
      <trkpt lat="44.99639" lon="6.44938">
        <ele>2465.2</ele>
        <time>2022-01-14T10:23:19Z</time>
      </trkpt>
      <trkpt lat="44.99639" lon="6.44936">
        <ele>2465.2</ele>
        <time>2022-01-14T10:23:20Z</time>
      </trkpt>
      <trkpt lat="44.9964" lon="6.44937">
        <ele>2465.2</ele>
        <time>2022-01-14T10:23:21Z</time>
      </trkpt>
      <trkpt lat="44.9964" lon="6.44938">
        <ele>2465.2</ele>
        <time>2022-01-14T10:23:22Z</time>
      </trkpt>
      <trkpt lat="44.9964" lon="6.44939">
        <ele>2465.2</ele>
        <time>2022-01-14T10:23:23Z</time>
      </trkpt>
      <trkpt lat="44.9964" lon="6.44939">
        <ele>2465.2</ele>
        <time>2022-01-14T10:23:24Z</time>
      </trkpt>
      <trkpt lat="44.9964" lon="6.44939">
        <ele>2465.2</ele>
        <time>2022-01-14T10:23:25Z</time>
      </trkpt>
      <trkpt lat="44.9964" lon="6.44939">
        <ele>2465.2</ele>
        <time>2022-01-14T10:23:26Z</time>
      </trkpt>
      <trkpt lat="44.9964" lon="6.44939">
        <ele>2465.2</ele>
        <time>2022-01-14T10:23:27Z</time>
      </trkpt>
      <trkpt lat="44.9964" lon="6.44939">
        <ele>2465.2</ele>
        <time>2022-01-14T10:23:28Z</time>
      </trkpt>
      <trkpt lat="44.99639" lon="6.44939">
        <ele>2465.2</ele>
        <time>2022-01-14T10:23:29Z</time>
      </trkpt>
      <trkpt lat="44.99638" lon="6.4494">
        <ele>2465.2</ele>
        <time>2022-01-14T10:23:30Z</time>
      </trkpt>
      <trkpt lat="44.99638" lon="6.44941">
        <ele>2463.1</ele>
        <time>2022-01-14T10:23:31Z</time>
      </trkpt>
      <trkpt lat="44.99637" lon="6.44942">
        <ele>2463.1</ele>
        <time>2022-01-14T10:23:32Z</time>
      </trkpt>
      <trkpt lat="44.99637" lon="6.44942">
        <ele>2463.1</ele>
        <time>2022-01-14T10:23:33Z</time>
      </trkpt>
      <trkpt lat="44.99637" lon="6.44942">
        <ele>2463.1</ele>
        <time>2022-01-14T10:23:34Z</time>
      </trkpt>
      <trkpt lat="44.99637" lon="6.44943">
        <ele>2462.1</ele>
        <time>2022-01-14T10:23:35Z</time>
      </trkpt>
      <trkpt lat="44.99636" lon="6.44943">
        <ele>2462.1</ele>
        <time>2022-01-14T10:23:36Z</time>
      </trkpt>
      <trkpt lat="44.99636" lon="6.44944">
        <ele>2462.1</ele>
        <time>2022-01-14T10:23:37Z</time>
      </trkpt>
      <trkpt lat="44.99636" lon="6.44944">
        <ele>2462.1</ele>
        <time>2022-01-14T10:23:38Z</time>
      </trkpt>
      <trkpt lat="44.99636" lon="6.44944">
        <ele>2462.1</ele>
        <time>2022-01-14T10:23:39Z</time>
      </trkpt>
      <trkpt lat="44.99636" lon="6.44945">
        <ele>2462.1</ele>
        <time>2022-01-14T10:23:40Z</time>
      </trkpt>
      <trkpt lat="44.99636" lon="6.44945">
        <ele>2460</ele>
        <time>2022-01-14T10:23:41Z</time>
      </trkpt>
      <trkpt lat="44.99636" lon="6.44946">
        <ele>2460</ele>
        <time>2022-01-14T10:23:42Z</time>
      </trkpt>
      <trkpt lat="44.99637" lon="6.44946">
        <ele>2460</ele>
        <time>2022-01-14T10:23:43Z</time>
      </trkpt>
      <trkpt lat="44.99637" lon="6.44947">
        <ele>2461.1</ele>
        <time>2022-01-14T10:23:44Z</time>
      </trkpt>
      <trkpt lat="44.99637" lon="6.44947">
        <ele>2461.1</ele>
        <time>2022-01-14T10:23:45Z</time>
      </trkpt>
      <trkpt lat="44.99637" lon="6.44947">
        <ele>2461.1</ele>
        <time>2022-01-14T10:23:46Z</time>
      </trkpt>
      <trkpt lat="44.99637" lon="6.44947">
        <ele>2461.1</ele>
        <time>2022-01-14T10:23:47Z</time>
      </trkpt>
      <trkpt lat="44.99637" lon="6.44947">
        <ele>2461.1</ele>
        <time>2022-01-14T10:23:48Z</time>
      </trkpt>
      <trkpt lat="44.99637" lon="6.44947">
        <ele>2461.1</ele>
        <time>2022-01-14T10:23:49Z</time>
      </trkpt>
      <trkpt lat="44.99638" lon="6.44948">
        <ele>2461.1</ele>
        <time>2022-01-14T10:23:50Z</time>
      </trkpt>
      <trkpt lat="44.99638" lon="6.44947">
        <ele>2461.1</ele>
        <time>2022-01-14T10:23:51Z</time>
      </trkpt>
      <trkpt lat="44.99639" lon="6.44947">
        <ele>2461.1</ele>
        <time>2022-01-14T10:23:52Z</time>
      </trkpt>
      <trkpt lat="44.99639" lon="6.44947">
        <ele>2461.1</ele>
        <time>2022-01-14T10:23:53Z</time>
      </trkpt>
      <trkpt lat="44.99639" lon="6.44947">
        <ele>2461.1</ele>
        <time>2022-01-14T10:23:54Z</time>
      </trkpt>
      <trkpt lat="44.99639" lon="6.44948">
        <ele>2461.1</ele>
        <time>2022-01-14T10:23:55Z</time>
      </trkpt>
      <trkpt lat="44.99639" lon="6.44948">
        <ele>2461.1</ele>
        <time>2022-01-14T10:23:56Z</time>
      </trkpt>
      <trkpt lat="44.9964" lon="6.44948">
        <ele>2462.2</ele>
        <time>2022-01-14T10:23:57Z</time>
      </trkpt>
      <trkpt lat="44.9964" lon="6.44948">
        <ele>2462.2</ele>
        <time>2022-01-14T10:23:58Z</time>
      </trkpt>
      <trkpt lat="44.99641" lon="6.44948">
        <ele>2462.2</ele>
        <time>2022-01-14T10:23:59Z</time>
      </trkpt>
      <trkpt lat="44.99642" lon="6.44948">
        <ele>2462.2</ele>
        <time>2022-01-14T10:24:00Z</time>
      </trkpt>
      <trkpt lat="44.99642" lon="6.44948">
        <ele>2462.2</ele>
        <time>2022-01-14T10:24:01Z</time>
      </trkpt>
      <trkpt lat="44.99642" lon="6.44948">
        <ele>2462.2</ele>
        <time>2022-01-14T10:24:02Z</time>
      </trkpt>
      <trkpt lat="44.99642" lon="6.44947">
        <ele>2462.2</ele>
        <time>2022-01-14T10:24:03Z</time>
      </trkpt>
      <trkpt lat="44.99642" lon="6.44947">
        <ele>2462.2</ele>
        <time>2022-01-14T10:24:04Z</time>
      </trkpt>
      <trkpt lat="44.99642" lon="6.44947">
        <ele>2462.2</ele>
        <time>2022-01-14T10:24:05Z</time>
      </trkpt>
      <trkpt lat="44.99642" lon="6.44947">
        <ele>2462.2</ele>
        <time>2022-01-14T10:24:06Z</time>
      </trkpt>
      <trkpt lat="44.99642" lon="6.44947">
        <ele>2462.2</ele>
        <time>2022-01-14T10:24:07Z</time>
      </trkpt>
      <trkpt lat="44.99642" lon="6.44947">
        <ele>2462.2</ele>
        <time>2022-01-14T10:24:08Z</time>
      </trkpt>
      <trkpt lat="44.99642" lon="6.44947">
        <ele>2462.2</ele>
        <time>2022-01-14T10:24:09Z</time>
      </trkpt>
      <trkpt lat="44.99642" lon="6.44946">
        <ele>2462.2</ele>
        <time>2022-01-14T10:24:10Z</time>
      </trkpt>
      <trkpt lat="44.99642" lon="6.44946">
        <ele>2462.2</ele>
        <time>2022-01-14T10:24:11Z</time>
      </trkpt>
      <trkpt lat="44.99642" lon="6.44946">
        <ele>2462.2</ele>
        <time>2022-01-14T10:24:12Z</time>
      </trkpt>
      <trkpt lat="44.99642" lon="6.44946">
        <ele>2462.2</ele>
        <time>2022-01-14T10:24:13Z</time>
      </trkpt>
      <trkpt lat="44.99642" lon="6.44945">
        <ele>2462.2</ele>
        <time>2022-01-14T10:24:14Z</time>
      </trkpt>
      <trkpt lat="44.99642" lon="6.44945">
        <ele>2462.2</ele>
        <time>2022-01-14T10:24:15Z</time>
      </trkpt>
      <trkpt lat="44.99643" lon="6.44944">
        <ele>2464.2</ele>
        <time>2022-01-14T10:24:16Z</time>
      </trkpt>
      <trkpt lat="44.99643" lon="6.44944">
        <ele>2465.5</ele>
        <time>2022-01-14T10:24:17Z</time>
      </trkpt>
      <trkpt lat="44.99643" lon="6.44944">
        <ele>2465.5</ele>
        <time>2022-01-14T10:24:18Z</time>
      </trkpt>
      <trkpt lat="44.99643" lon="6.44945">
        <ele>2463.5</ele>
        <time>2022-01-14T10:24:19Z</time>
      </trkpt>
      <trkpt lat="44.99644" lon="6.44945">
        <ele>2463.5</ele>
        <time>2022-01-14T10:24:20Z</time>
      </trkpt>
      <trkpt lat="44.99644" lon="6.44946">
        <ele>2463.5</ele>
        <time>2022-01-14T10:24:21Z</time>
      </trkpt>
      <trkpt lat="44.99645" lon="6.44946">
        <ele>2463.5</ele>
        <time>2022-01-14T10:24:22Z</time>
      </trkpt>
      <trkpt lat="44.99645" lon="6.44947">
        <ele>2463.5</ele>
        <time>2022-01-14T10:24:23Z</time>
      </trkpt>
      <trkpt lat="44.99645" lon="6.44946">
        <ele>2463.5</ele>
        <time>2022-01-14T10:24:24Z</time>
      </trkpt>
      <trkpt lat="44.99645" lon="6.44946">
        <ele>2463.5</ele>
        <time>2022-01-14T10:24:25Z</time>
      </trkpt>
      <trkpt lat="44.99645" lon="6.44946">
        <ele>2463.5</ele>
        <time>2022-01-14T10:24:26Z</time>
      </trkpt>
      <trkpt lat="44.99646" lon="6.44946">
        <ele>2463.5</ele>
        <time>2022-01-14T10:24:27Z</time>
      </trkpt>
      <trkpt lat="44.99646" lon="6.44946">
        <ele>2463.5</ele>
        <time>2022-01-14T10:24:28Z</time>
      </trkpt>
      <trkpt lat="44.99646" lon="6.44947">
        <ele>2464.9</ele>
        <time>2022-01-14T10:24:29Z</time>
      </trkpt>
      <trkpt lat="44.99646" lon="6.44947">
        <ele>2463.5</ele>
        <time>2022-01-14T10:24:30Z</time>
      </trkpt>
      <trkpt lat="44.99646" lon="6.44947">
        <ele>2463.5</ele>
        <time>2022-01-14T10:24:31Z</time>
      </trkpt>
      <trkpt lat="44.99646" lon="6.44947">
        <ele>2464.9</ele>
        <time>2022-01-14T10:24:32Z</time>
      </trkpt>
      <trkpt lat="44.99646" lon="6.44947">
        <ele>2464.9</ele>
        <time>2022-01-14T10:24:33Z</time>
      </trkpt>
      <trkpt lat="44.99646" lon="6.44947">
        <ele>2464.9</ele>
        <time>2022-01-14T10:24:34Z</time>
      </trkpt>
      <trkpt lat="44.99646" lon="6.44948">
        <ele>2464.9</ele>
        <time>2022-01-14T10:24:35Z</time>
      </trkpt>
      <trkpt lat="44.99647" lon="6.44948">
        <ele>2464.9</ele>
        <time>2022-01-14T10:24:36Z</time>
      </trkpt>
      <trkpt lat="44.99646" lon="6.44948">
        <ele>2464.9</ele>
        <time>2022-01-14T10:24:37Z</time>
      </trkpt>
      <trkpt lat="44.99646" lon="6.44948">
        <ele>2464.9</ele>
        <time>2022-01-14T10:24:38Z</time>
      </trkpt>
      <trkpt lat="44.99646" lon="6.44947">
        <ele>2464.9</ele>
        <time>2022-01-14T10:24:39Z</time>
      </trkpt>
      <trkpt lat="44.99646" lon="6.44947">
        <ele>2464.9</ele>
        <time>2022-01-14T10:24:40Z</time>
      </trkpt>
      <trkpt lat="44.99647" lon="6.44947">
        <ele>2464.9</ele>
        <time>2022-01-14T10:24:41Z</time>
      </trkpt>
      <trkpt lat="44.99646" lon="6.44947">
        <ele>2464.9</ele>
        <time>2022-01-14T10:24:42Z</time>
      </trkpt>
      <trkpt lat="44.99647" lon="6.44947">
        <ele>2464.9</ele>
        <time>2022-01-14T10:24:43Z</time>
      </trkpt>
      <trkpt lat="44.99647" lon="6.44946">
        <ele>2464.9</ele>
        <time>2022-01-14T10:24:44Z</time>
      </trkpt>
      <trkpt lat="44.99647" lon="6.44946">
        <ele>2464.9</ele>
        <time>2022-01-14T10:24:45Z</time>
      </trkpt>
      <trkpt lat="44.99647" lon="6.44946">
        <ele>2464.9</ele>
        <time>2022-01-14T10:24:46Z</time>
      </trkpt>
      <trkpt lat="44.99647" lon="6.44945">
        <ele>2464.9</ele>
        <time>2022-01-14T10:24:47Z</time>
      </trkpt>
      <trkpt lat="44.99647" lon="6.44944">
        <ele>2467</ele>
        <time>2022-01-14T10:24:48Z</time>
      </trkpt>
      <trkpt lat="44.99647" lon="6.44944">
        <ele>2467</ele>
        <time>2022-01-14T10:24:49Z</time>
      </trkpt>
      <trkpt lat="44.99648" lon="6.44944">
        <ele>2467</ele>
        <time>2022-01-14T10:24:50Z</time>
      </trkpt>
      <trkpt lat="44.99648" lon="6.44944">
        <ele>2467</ele>
        <time>2022-01-14T10:24:51Z</time>
      </trkpt>
      <trkpt lat="44.99648" lon="6.44942">
        <ele>2467</ele>
        <time>2022-01-14T10:24:52Z</time>
      </trkpt>
      <trkpt lat="44.99649" lon="6.44941">
        <ele>2467</ele>
        <time>2022-01-14T10:24:53Z</time>
      </trkpt>
      <trkpt lat="44.99649" lon="6.4494">
        <ele>2469.1</ele>
        <time>2022-01-14T10:24:54Z</time>
      </trkpt>
      <trkpt lat="44.99649" lon="6.44939">
        <ele>2470.6</ele>
        <time>2022-01-14T10:24:55Z</time>
      </trkpt>
      <trkpt lat="44.99649" lon="6.44939">
        <ele>2470.6</ele>
        <time>2022-01-14T10:24:56Z</time>
      </trkpt>
      <trkpt lat="44.99649" lon="6.44939">
        <ele>2470.6</ele>
        <time>2022-01-14T10:24:57Z</time>
      </trkpt>
      <trkpt lat="44.99649" lon="6.44938">
        <ele>2470.6</ele>
        <time>2022-01-14T10:24:58Z</time>
      </trkpt>
      <trkpt lat="44.9965" lon="6.44937">
        <ele>2470.6</ele>
        <time>2022-01-14T10:24:59Z</time>
      </trkpt>
      <trkpt lat="44.9965" lon="6.44937">
        <ele>2470.6</ele>
        <time>2022-01-14T10:25:00Z</time>
      </trkpt>
      <trkpt lat="44.99649" lon="6.44937">
        <ele>2470.6</ele>
        <time>2022-01-14T10:25:01Z</time>
      </trkpt>
      <trkpt lat="44.99649" lon="6.44936">
        <ele>2470.6</ele>
        <time>2022-01-14T10:25:02Z</time>
      </trkpt>
      <trkpt lat="44.99648" lon="6.44937">
        <ele>2469.1</ele>
        <time>2022-01-14T10:25:03Z</time>
      </trkpt>
      <trkpt lat="44.99648" lon="6.44937">
        <ele>2469.1</ele>
        <time>2022-01-14T10:25:04Z</time>
      </trkpt>
      <trkpt lat="44.99648" lon="6.44937">
        <ele>2469.1</ele>
        <time>2022-01-14T10:25:05Z</time>
      </trkpt>
      <trkpt lat="44.99648" lon="6.44937">
        <ele>2469.1</ele>
        <time>2022-01-14T10:25:06Z</time>
      </trkpt>
      <trkpt lat="44.99648" lon="6.44937">
        <ele>2469.1</ele>
        <time>2022-01-14T10:25:07Z</time>
      </trkpt>
      <trkpt lat="44.99648" lon="6.44937">
        <ele>2469.1</ele>
        <time>2022-01-14T10:25:08Z</time>
      </trkpt>
      <trkpt lat="44.99647" lon="6.44937">
        <ele>2469.1</ele>
        <time>2022-01-14T10:25:09Z</time>
      </trkpt>
      <trkpt lat="44.99647" lon="6.44937">
        <ele>2469.1</ele>
        <time>2022-01-14T10:25:10Z</time>
      </trkpt>
      <trkpt lat="44.99647" lon="6.44938">
        <ele>2469.1</ele>
        <time>2022-01-14T10:25:11Z</time>
      </trkpt>
      <trkpt lat="44.99647" lon="6.44938">
        <ele>2469.1</ele>
        <time>2022-01-14T10:25:12Z</time>
      </trkpt>
      <trkpt lat="44.99646" lon="6.44939">
        <ele>2467.6</ele>
        <time>2022-01-14T10:25:13Z</time>
      </trkpt>
      <trkpt lat="44.99646" lon="6.44939">
        <ele>2467.6</ele>
        <time>2022-01-14T10:25:14Z</time>
      </trkpt>
      <trkpt lat="44.99646" lon="6.44939">
        <ele>2467.6</ele>
        <time>2022-01-14T10:25:15Z</time>
      </trkpt>
      <trkpt lat="44.99645" lon="6.44939">
        <ele>2467.6</ele>
        <time>2022-01-14T10:25:16Z</time>
      </trkpt>
      <trkpt lat="44.99645" lon="6.44939">
        <ele>2467.6</ele>
        <time>2022-01-14T10:25:17Z</time>
      </trkpt>
      <trkpt lat="44.99645" lon="6.44939">
        <ele>2467.6</ele>
        <time>2022-01-14T10:25:18Z</time>
      </trkpt>
      <trkpt lat="44.99645" lon="6.44939">
        <ele>2467.6</ele>
        <time>2022-01-14T10:25:19Z</time>
      </trkpt>
      <trkpt lat="44.99644" lon="6.4494">
        <ele>2465.5</ele>
        <time>2022-01-14T10:25:20Z</time>
      </trkpt>
      <trkpt lat="44.99643" lon="6.44941">
        <ele>2465.5</ele>
        <time>2022-01-14T10:25:21Z</time>
      </trkpt>
      <trkpt lat="44.99643" lon="6.44941">
        <ele>2464.2</ele>
        <time>2022-01-14T10:25:22Z</time>
      </trkpt>
      <trkpt lat="44.99642" lon="6.44941">
        <ele>2464.2</ele>
        <time>2022-01-14T10:25:23Z</time>
      </trkpt>
      <trkpt lat="44.99642" lon="6.44942">
        <ele>2464.2</ele>
        <time>2022-01-14T10:25:24Z</time>
      </trkpt>
      <trkpt lat="44.99642" lon="6.44941">
        <ele>2464.2</ele>
        <time>2022-01-14T10:25:25Z</time>
      </trkpt>
      <trkpt lat="44.99642" lon="6.44942">
        <ele>2464.2</ele>
        <time>2022-01-14T10:25:26Z</time>
      </trkpt>
      <trkpt lat="44.99642" lon="6.44941">
        <ele>2464.2</ele>
        <time>2022-01-14T10:25:27Z</time>
      </trkpt>
      <trkpt lat="44.99643" lon="6.44941">
        <ele>2464.2</ele>
        <time>2022-01-14T10:25:28Z</time>
      </trkpt>
      <trkpt lat="44.99643" lon="6.4494">
        <ele>2467.6</ele>
        <time>2022-01-14T10:25:29Z</time>
      </trkpt>
      <trkpt lat="44.99644" lon="6.4494">
        <ele>2467.6</ele>
        <time>2022-01-14T10:25:30Z</time>
      </trkpt>
      <trkpt lat="44.99644" lon="6.4494">
        <ele>2467.6</ele>
        <time>2022-01-14T10:25:31Z</time>
      </trkpt>
      <trkpt lat="44.99645" lon="6.44939">
        <ele>2467.6</ele>
        <time>2022-01-14T10:25:32Z</time>
      </trkpt>
      <trkpt lat="44.99646" lon="6.44939">
        <ele>2469.1</ele>
        <time>2022-01-14T10:25:33Z</time>
      </trkpt>
      <trkpt lat="44.99647" lon="6.4494">
        <ele>2469.1</ele>
        <time>2022-01-14T10:25:34Z</time>
      </trkpt>
      <trkpt lat="44.99647" lon="6.4494">
        <ele>2467</ele>
        <time>2022-01-14T10:25:35Z</time>
      </trkpt>
      <trkpt lat="44.99647" lon="6.44941">
        <ele>2467</ele>
        <time>2022-01-14T10:25:36Z</time>
      </trkpt>
      <trkpt lat="44.99648" lon="6.44941">
        <ele>2467</ele>
        <time>2022-01-14T10:25:37Z</time>
      </trkpt>
      <trkpt lat="44.99648" lon="6.44942">
        <ele>2467</ele>
        <time>2022-01-14T10:25:38Z</time>
      </trkpt>
      <trkpt lat="44.99649" lon="6.44942">
        <ele>2467</ele>
        <time>2022-01-14T10:25:39Z</time>
      </trkpt>
      <trkpt lat="44.99649" lon="6.44942">
        <ele>2468.4</ele>
        <time>2022-01-14T10:25:40Z</time>
      </trkpt>
      <trkpt lat="44.99649" lon="6.44943">
        <ele>2468.4</ele>
        <time>2022-01-14T10:25:41Z</time>
      </trkpt>
      <trkpt lat="44.9965" lon="6.44943">
        <ele>2468.4</ele>
        <time>2022-01-14T10:25:42Z</time>
      </trkpt>
      <trkpt lat="44.9965" lon="6.44943">
        <ele>2468.4</ele>
        <time>2022-01-14T10:25:43Z</time>
      </trkpt>
      <trkpt lat="44.99651" lon="6.44944">
        <ele>2468.4</ele>
        <time>2022-01-14T10:25:44Z</time>
      </trkpt>
      <trkpt lat="44.99651" lon="6.44945">
        <ele>2466.3</ele>
        <time>2022-01-14T10:25:45Z</time>
      </trkpt>
      <trkpt lat="44.99651" lon="6.44946">
        <ele>2466.3</ele>
        <time>2022-01-14T10:25:46Z</time>
      </trkpt>
      <trkpt lat="44.99651" lon="6.44947">
        <ele>2466.3</ele>
        <time>2022-01-14T10:25:47Z</time>
      </trkpt>
      <trkpt lat="44.99651" lon="6.44948">
        <ele>2466.3</ele>
        <time>2022-01-14T10:25:48Z</time>
      </trkpt>
      <trkpt lat="44.99651" lon="6.44948">
        <ele>2466.3</ele>
        <time>2022-01-14T10:25:49Z</time>
      </trkpt>
      <trkpt lat="44.99651" lon="6.44949">
        <ele>2464.1</ele>
        <time>2022-01-14T10:25:50Z</time>
      </trkpt>
      <trkpt lat="44.99651" lon="6.44949">
        <ele>2464.1</ele>
        <time>2022-01-14T10:25:51Z</time>
      </trkpt>
      <trkpt lat="44.99652" lon="6.44949">
        <ele>2464.1</ele>
        <time>2022-01-14T10:25:52Z</time>
      </trkpt>
      <trkpt lat="44.99652" lon="6.4495">
        <ele>2464.1</ele>
        <time>2022-01-14T10:25:53Z</time>
      </trkpt>
      <trkpt lat="44.99652" lon="6.4495">
        <ele>2464.1</ele>
        <time>2022-01-14T10:25:54Z</time>
      </trkpt>
      <trkpt lat="44.99652" lon="6.44951">
        <ele>2465.4</ele>
        <time>2022-01-14T10:25:55Z</time>
      </trkpt>
      <trkpt lat="44.99652" lon="6.44951">
        <ele>2465.4</ele>
        <time>2022-01-14T10:25:56Z</time>
      </trkpt>
      <trkpt lat="44.99652" lon="6.44951">
        <ele>2465.4</ele>
        <time>2022-01-14T10:25:57Z</time>
      </trkpt>
      <trkpt lat="44.99652" lon="6.44952">
        <ele>2465.4</ele>
        <time>2022-01-14T10:25:58Z</time>
      </trkpt>
      <trkpt lat="44.99652" lon="6.44952">
        <ele>2465.4</ele>
        <time>2022-01-14T10:25:59Z</time>
      </trkpt>
      <trkpt lat="44.99651" lon="6.44954">
        <ele>2461.9</ele>
        <time>2022-01-14T10:26:00Z</time>
      </trkpt>
      <trkpt lat="44.99651" lon="6.44955">
        <ele>2461.9</ele>
        <time>2022-01-14T10:26:01Z</time>
      </trkpt>
      <trkpt lat="44.99651" lon="6.44956">
        <ele>2461.9</ele>
        <time>2022-01-14T10:26:02Z</time>
      </trkpt>
      <trkpt lat="44.99651" lon="6.44957">
        <ele>2461.9</ele>
        <time>2022-01-14T10:26:03Z</time>
      </trkpt>
      <trkpt lat="44.99651" lon="6.44957">
        <ele>2461.9</ele>
        <time>2022-01-14T10:26:04Z</time>
      </trkpt>
      <trkpt lat="44.99651" lon="6.44958">
        <ele>2459.8</ele>
        <time>2022-01-14T10:26:05Z</time>
      </trkpt>
      <trkpt lat="44.99651" lon="6.44958">
        <ele>2459.8</ele>
        <time>2022-01-14T10:26:06Z</time>
      </trkpt>
      <trkpt lat="44.9965" lon="6.4496">
        <ele>2459.8</ele>
        <time>2022-01-14T10:26:07Z</time>
      </trkpt>
      <trkpt lat="44.9965" lon="6.44962">
        <ele>2457.8</ele>
        <time>2022-01-14T10:26:08Z</time>
      </trkpt>
      <trkpt lat="44.9965" lon="6.44964">
        <ele>2457.8</ele>
        <time>2022-01-14T10:26:09Z</time>
      </trkpt>
      <trkpt lat="44.9965" lon="6.44965">
        <ele>2457.8</ele>
        <time>2022-01-14T10:26:10Z</time>
      </trkpt>
      <trkpt lat="44.99651" lon="6.44966">
        <ele>2455.7</ele>
        <time>2022-01-14T10:26:11Z</time>
      </trkpt>
      <trkpt lat="44.9965" lon="6.44966">
        <ele>2455.7</ele>
        <time>2022-01-14T10:26:12Z</time>
      </trkpt>
      <trkpt lat="44.9965" lon="6.44966">
        <ele>2457.8</ele>
        <time>2022-01-14T10:26:13Z</time>
      </trkpt>
      <trkpt lat="44.99651" lon="6.44966">
        <ele>2457.8</ele>
        <time>2022-01-14T10:26:14Z</time>
      </trkpt>
      <trkpt lat="44.99651" lon="6.44966">
        <ele>2457.8</ele>
        <time>2022-01-14T10:26:15Z</time>
      </trkpt>
      <trkpt lat="44.99652" lon="6.44966">
        <ele>2457.8</ele>
        <time>2022-01-14T10:26:16Z</time>
      </trkpt>
      <trkpt lat="44.99652" lon="6.44966">
        <ele>2455.7</ele>
        <time>2022-01-14T10:26:17Z</time>
      </trkpt>
      <trkpt lat="44.99652" lon="6.44966">
        <ele>2459.1</ele>
        <time>2022-01-14T10:26:18Z</time>
      </trkpt>
      <trkpt lat="44.99652" lon="6.44966">
        <ele>2459.1</ele>
        <time>2022-01-14T10:26:19Z</time>
      </trkpt>
      <trkpt lat="44.99652" lon="6.44966">
        <ele>2459.1</ele>
        <time>2022-01-14T10:26:20Z</time>
      </trkpt>
      <trkpt lat="44.99652" lon="6.44966">
        <ele>2459.1</ele>
        <time>2022-01-14T10:26:21Z</time>
      </trkpt>
      <trkpt lat="44.99653" lon="6.44966">
        <ele>2459.1</ele>
        <time>2022-01-14T10:26:22Z</time>
      </trkpt>
      <trkpt lat="44.99653" lon="6.44966">
        <ele>2459.1</ele>
        <time>2022-01-14T10:26:23Z</time>
      </trkpt>
      <trkpt lat="44.99653" lon="6.44965">
        <ele>2459.1</ele>
        <time>2022-01-14T10:26:24Z</time>
      </trkpt>
      <trkpt lat="44.99653" lon="6.44965">
        <ele>2459.1</ele>
        <time>2022-01-14T10:26:25Z</time>
      </trkpt>
      <trkpt lat="44.99653" lon="6.44965">
        <ele>2459.1</ele>
        <time>2022-01-14T10:26:26Z</time>
      </trkpt>
      <trkpt lat="44.99653" lon="6.44965">
        <ele>2459.1</ele>
        <time>2022-01-14T10:26:27Z</time>
      </trkpt>
      <trkpt lat="44.99653" lon="6.44965">
        <ele>2459.1</ele>
        <time>2022-01-14T10:26:28Z</time>
      </trkpt>
      <trkpt lat="44.99654" lon="6.44964">
        <ele>2459.1</ele>
        <time>2022-01-14T10:26:29Z</time>
      </trkpt>
      <trkpt lat="44.99654" lon="6.44964">
        <ele>2459.1</ele>
        <time>2022-01-14T10:26:30Z</time>
      </trkpt>
      <trkpt lat="44.99654" lon="6.44963">
        <ele>2459.1</ele>
        <time>2022-01-14T10:26:31Z</time>
      </trkpt>
      <trkpt lat="44.99655" lon="6.44963">
        <ele>2459.1</ele>
        <time>2022-01-14T10:26:32Z</time>
      </trkpt>
      <trkpt lat="44.99655" lon="6.44962">
        <ele>2459.1</ele>
        <time>2022-01-14T10:26:33Z</time>
      </trkpt>
      <trkpt lat="44.99656" lon="6.44962">
        <ele>2462.2</ele>
        <time>2022-01-14T10:26:34Z</time>
      </trkpt>
      <trkpt lat="44.99656" lon="6.44961">
        <ele>2462.2</ele>
        <time>2022-01-14T10:26:35Z</time>
      </trkpt>
      <trkpt lat="44.99656" lon="6.4496">
        <ele>2462.2</ele>
        <time>2022-01-14T10:26:36Z</time>
      </trkpt>
      <trkpt lat="44.99657" lon="6.4496">
        <ele>2462.2</ele>
        <time>2022-01-14T10:26:37Z</time>
      </trkpt>
      <trkpt lat="44.99657" lon="6.4496">
        <ele>2462.2</ele>
        <time>2022-01-14T10:26:38Z</time>
      </trkpt>
      <trkpt lat="44.99658" lon="6.4496">
        <ele>2462.2</ele>
        <time>2022-01-14T10:26:39Z</time>
      </trkpt>
      <trkpt lat="44.99658" lon="6.4496">
        <ele>2462.2</ele>
        <time>2022-01-14T10:26:40Z</time>
      </trkpt>
      <trkpt lat="44.99658" lon="6.4496">
        <ele>2462.2</ele>
        <time>2022-01-14T10:26:41Z</time>
      </trkpt>
      <trkpt lat="44.99658" lon="6.4496">
        <ele>2462.2</ele>
        <time>2022-01-14T10:26:42Z</time>
      </trkpt>
      <trkpt lat="44.99658" lon="6.4496">
        <ele>2463.1</ele>
        <time>2022-01-14T10:26:43Z</time>
      </trkpt>
      <trkpt lat="44.99658" lon="6.4496">
        <ele>2463.1</ele>
        <time>2022-01-14T10:26:44Z</time>
      </trkpt>
      <trkpt lat="44.99658" lon="6.4496">
        <ele>2463.1</ele>
        <time>2022-01-14T10:26:45Z</time>
      </trkpt>
      <trkpt lat="44.99659" lon="6.4496">
        <ele>2463.1</ele>
        <time>2022-01-14T10:26:46Z</time>
      </trkpt>
      <trkpt lat="44.99658" lon="6.44959">
        <ele>2463.1</ele>
        <time>2022-01-14T10:26:47Z</time>
      </trkpt>
      <trkpt lat="44.99658" lon="6.44959">
        <ele>2463.1</ele>
        <time>2022-01-14T10:26:48Z</time>
      </trkpt>
      <trkpt lat="44.99658" lon="6.44958">
        <ele>2462.2</ele>
        <time>2022-01-14T10:26:49Z</time>
      </trkpt>
      <trkpt lat="44.99658" lon="6.44957">
        <ele>2464.3</ele>
        <time>2022-01-14T10:26:50Z</time>
      </trkpt>
      <trkpt lat="44.99658" lon="6.44957">
        <ele>2465.3</ele>
        <time>2022-01-14T10:26:51Z</time>
      </trkpt>
      <trkpt lat="44.99658" lon="6.44957">
        <ele>2465.3</ele>
        <time>2022-01-14T10:26:52Z</time>
      </trkpt>
      <trkpt lat="44.99658" lon="6.44957">
        <ele>2464.3</ele>
        <time>2022-01-14T10:26:53Z</time>
      </trkpt>
      <trkpt lat="44.99658" lon="6.44956">
        <ele>2465.3</ele>
        <time>2022-01-14T10:26:54Z</time>
      </trkpt>
      <trkpt lat="44.99657" lon="6.44957">
        <ele>2464.3</ele>
        <time>2022-01-14T10:26:55Z</time>
      </trkpt>
      <trkpt lat="44.99657" lon="6.44957">
        <ele>2464.3</ele>
        <time>2022-01-14T10:26:56Z</time>
      </trkpt>
      <trkpt lat="44.99657" lon="6.44956">
        <ele>2464.3</ele>
        <time>2022-01-14T10:26:57Z</time>
      </trkpt>
      <trkpt lat="44.99657" lon="6.44956">
        <ele>2464.3</ele>
        <time>2022-01-14T10:26:58Z</time>
      </trkpt>
      <trkpt lat="44.99657" lon="6.44956">
        <ele>2464.3</ele>
        <time>2022-01-14T10:26:59Z</time>
      </trkpt>
      <trkpt lat="44.99657" lon="6.44955">
        <ele>2464.3</ele>
        <time>2022-01-14T10:27:00Z</time>
      </trkpt>
      <trkpt lat="44.99658" lon="6.44954">
        <ele>2464.3</ele>
        <time>2022-01-14T10:27:01Z</time>
      </trkpt>
      <trkpt lat="44.99658" lon="6.44954">
        <ele>2464.3</ele>
        <time>2022-01-14T10:27:02Z</time>
      </trkpt>
      <trkpt lat="44.99658" lon="6.44954">
        <ele>2464.3</ele>
        <time>2022-01-14T10:27:03Z</time>
      </trkpt>
      <trkpt lat="44.99658" lon="6.44953">
        <ele>2466.5</ele>
        <time>2022-01-14T10:27:04Z</time>
      </trkpt>
      <trkpt lat="44.99658" lon="6.44952">
        <ele>2466.5</ele>
        <time>2022-01-14T10:27:05Z</time>
      </trkpt>
      <trkpt lat="44.99658" lon="6.44952">
        <ele>2466.5</ele>
        <time>2022-01-14T10:27:06Z</time>
      </trkpt>
      <trkpt lat="44.99657" lon="6.44952">
        <ele>2466.5</ele>
        <time>2022-01-14T10:27:07Z</time>
      </trkpt>
      <trkpt lat="44.99657" lon="6.44953">
        <ele>2466.5</ele>
        <time>2022-01-14T10:27:08Z</time>
      </trkpt>
      <trkpt lat="44.99657" lon="6.44953">
        <ele>2466.5</ele>
        <time>2022-01-14T10:27:09Z</time>
      </trkpt>
      <trkpt lat="44.99657" lon="6.44952">
        <ele>2466.5</ele>
        <time>2022-01-14T10:27:10Z</time>
      </trkpt>
      <trkpt lat="44.99657" lon="6.4495">
        <ele>2466.5</ele>
        <time>2022-01-14T10:27:11Z</time>
      </trkpt>
      <trkpt lat="44.99657" lon="6.4495">
        <ele>2466.5</ele>
        <time>2022-01-14T10:27:12Z</time>
      </trkpt>
      <trkpt lat="44.99658" lon="6.4495">
        <ele>2466.5</ele>
        <time>2022-01-14T10:27:13Z</time>
      </trkpt>
      <trkpt lat="44.99658" lon="6.44949">
        <ele>2466.5</ele>
        <time>2022-01-14T10:27:14Z</time>
      </trkpt>
      <trkpt lat="44.99658" lon="6.44948">
        <ele>2469.8</ele>
        <time>2022-01-14T10:27:15Z</time>
      </trkpt>
      <trkpt lat="44.99658" lon="6.44946">
        <ele>2468.8</ele>
        <time>2022-01-14T10:27:16Z</time>
      </trkpt>
      <trkpt lat="44.99658" lon="6.44946">
        <ele>2468.8</ele>
        <time>2022-01-14T10:27:17Z</time>
      </trkpt>
      <trkpt lat="44.99659" lon="6.44945">
        <ele>2469.8</ele>
        <time>2022-01-14T10:27:18Z</time>
      </trkpt>
      <trkpt lat="44.99659" lon="6.44944">
        <ele>2472</ele>
        <time>2022-01-14T10:27:19Z</time>
      </trkpt>
      <trkpt lat="44.99659" lon="6.44943">
        <ele>2472</ele>
        <time>2022-01-14T10:27:20Z</time>
      </trkpt>
      <trkpt lat="44.99659" lon="6.44943">
        <ele>2472</ele>
        <time>2022-01-14T10:27:21Z</time>
      </trkpt>
      <trkpt lat="44.99659" lon="6.44943">
        <ele>2472</ele>
        <time>2022-01-14T10:27:22Z</time>
      </trkpt>
      <trkpt lat="44.9966" lon="6.44942">
        <ele>2472</ele>
        <time>2022-01-14T10:27:23Z</time>
      </trkpt>
      <trkpt lat="44.9966" lon="6.44942">
        <ele>2472</ele>
        <time>2022-01-14T10:27:24Z</time>
      </trkpt>
      <trkpt lat="44.9966" lon="6.44942">
        <ele>2472</ele>
        <time>2022-01-14T10:27:25Z</time>
      </trkpt>
      <trkpt lat="44.9966" lon="6.44941">
        <ele>2472</ele>
        <time>2022-01-14T10:27:26Z</time>
      </trkpt>
      <trkpt lat="44.9966" lon="6.44941">
        <ele>2472</ele>
        <time>2022-01-14T10:27:27Z</time>
      </trkpt>
      <trkpt lat="44.9966" lon="6.4494">
        <ele>2474.2</ele>
        <time>2022-01-14T10:27:28Z</time>
      </trkpt>
      <trkpt lat="44.9966" lon="6.4494">
        <ele>2474.2</ele>
        <time>2022-01-14T10:27:29Z</time>
      </trkpt>
      <trkpt lat="44.9966" lon="6.44939">
        <ele>2474.2</ele>
        <time>2022-01-14T10:27:30Z</time>
      </trkpt>
      <trkpt lat="44.9966" lon="6.44939">
        <ele>2474.2</ele>
        <time>2022-01-14T10:27:31Z</time>
      </trkpt>
      <trkpt lat="44.99659" lon="6.44938">
        <ele>2474.2</ele>
        <time>2022-01-14T10:27:32Z</time>
      </trkpt>
      <trkpt lat="44.9966" lon="6.44937">
        <ele>2474.2</ele>
        <time>2022-01-14T10:27:33Z</time>
      </trkpt>
      <trkpt lat="44.9966" lon="6.44935">
        <ele>2476.4</ele>
        <time>2022-01-14T10:27:34Z</time>
      </trkpt>
      <trkpt lat="44.9966" lon="6.44935">
        <ele>2476.4</ele>
        <time>2022-01-14T10:27:35Z</time>
      </trkpt>
      <trkpt lat="44.9966" lon="6.44935">
        <ele>2476.4</ele>
        <time>2022-01-14T10:27:36Z</time>
      </trkpt>
      <trkpt lat="44.9966" lon="6.44934">
        <ele>2476.4</ele>
        <time>2022-01-14T10:27:37Z</time>
      </trkpt>
      <trkpt lat="44.9966" lon="6.44935">
        <ele>2476.4</ele>
        <time>2022-01-14T10:27:38Z</time>
      </trkpt>
      <trkpt lat="44.9966" lon="6.44935">
        <ele>2476.4</ele>
        <time>2022-01-14T10:27:39Z</time>
      </trkpt>
      <trkpt lat="44.99661" lon="6.44934">
        <ele>2476.4</ele>
        <time>2022-01-14T10:27:41Z</time>
      </trkpt>
      <trkpt lat="44.9966" lon="6.44934">
        <ele>2476.4</ele>
        <time>2022-01-14T10:27:42Z</time>
      </trkpt>
      <trkpt lat="44.9966" lon="6.44934">
        <ele>2476.4</ele>
        <time>2022-01-14T10:27:43Z</time>
      </trkpt>
      <trkpt lat="44.9966" lon="6.44932">
        <ele>2476.4</ele>
        <time>2022-01-14T10:27:44Z</time>
      </trkpt>
      <trkpt lat="44.9966" lon="6.44931">
        <ele>2478.7</ele>
        <time>2022-01-14T10:27:45Z</time>
      </trkpt>
      <trkpt lat="44.9966" lon="6.4493">
        <ele>2478.7</ele>
        <time>2022-01-14T10:27:46Z</time>
      </trkpt>
      <trkpt lat="44.99661" lon="6.4493">
        <ele>2478.7</ele>
        <time>2022-01-14T10:27:47Z</time>
      </trkpt>
      <trkpt lat="44.9966" lon="6.44929">
        <ele>2478.7</ele>
        <time>2022-01-14T10:27:48Z</time>
      </trkpt>
      <trkpt lat="44.9966" lon="6.44928">
        <ele>2478.7</ele>
        <time>2022-01-14T10:27:49Z</time>
      </trkpt>
      <trkpt lat="44.9966" lon="6.44928">
        <ele>2480.9</ele>
        <time>2022-01-14T10:27:50Z</time>
      </trkpt>
      <trkpt lat="44.9966" lon="6.44926">
        <ele>2480.9</ele>
        <time>2022-01-14T10:27:51Z</time>
      </trkpt>
      <trkpt lat="44.99661" lon="6.44924">
        <ele>2480.9</ele>
        <time>2022-01-14T10:27:52Z</time>
      </trkpt>
      <trkpt lat="44.99661" lon="6.44925">
        <ele>2480.9</ele>
        <time>2022-01-14T10:27:53Z</time>
      </trkpt>
      <trkpt lat="44.99661" lon="6.44925">
        <ele>2480.9</ele>
        <time>2022-01-14T10:27:54Z</time>
      </trkpt>
      <trkpt lat="44.99661" lon="6.44925">
        <ele>2482.3</ele>
        <time>2022-01-14T10:27:55Z</time>
      </trkpt>
      <trkpt lat="44.99662" lon="6.44924">
        <ele>2482.3</ele>
        <time>2022-01-14T10:27:56Z</time>
      </trkpt>
      <trkpt lat="44.99662" lon="6.44923">
        <ele>2484.6</ele>
        <time>2022-01-14T10:27:57Z</time>
      </trkpt>
      <trkpt lat="44.99662" lon="6.44923">
        <ele>2484.6</ele>
        <time>2022-01-14T10:27:58Z</time>
      </trkpt>
      <trkpt lat="44.99662" lon="6.44922">
        <ele>2484.6</ele>
        <time>2022-01-14T10:27:59Z</time>
      </trkpt>
      <trkpt lat="44.99661" lon="6.44922">
        <ele>2484.6</ele>
        <time>2022-01-14T10:28:00Z</time>
      </trkpt>
      <trkpt lat="44.99661" lon="6.44922">
        <ele>2484.6</ele>
        <time>2022-01-14T10:28:01Z</time>
      </trkpt>
      <trkpt lat="44.99661" lon="6.44921">
        <ele>2484.6</ele>
        <time>2022-01-14T10:28:02Z</time>
      </trkpt>
      <trkpt lat="44.99661" lon="6.4492">
        <ele>2484.6</ele>
        <time>2022-01-14T10:28:03Z</time>
      </trkpt>
      <trkpt lat="44.99661" lon="6.4492">
        <ele>2484.6</ele>
        <time>2022-01-14T10:28:04Z</time>
      </trkpt>
      <trkpt lat="44.99661" lon="6.4492">
        <ele>2483.1</ele>
        <time>2022-01-14T10:28:05Z</time>
      </trkpt>
      <trkpt lat="44.99661" lon="6.4492">
        <ele>2483.1</ele>
        <time>2022-01-14T10:28:06Z</time>
      </trkpt>
      <trkpt lat="44.99661" lon="6.4492">
        <ele>2483.1</ele>
        <time>2022-01-14T10:28:07Z</time>
      </trkpt>
      <trkpt lat="44.99661" lon="6.4492">
        <ele>2483.1</ele>
        <time>2022-01-14T10:28:08Z</time>
      </trkpt>
      <trkpt lat="44.99661" lon="6.4492">
        <ele>2483.1</ele>
        <time>2022-01-14T10:28:09Z</time>
      </trkpt>
      <trkpt lat="44.99661" lon="6.4492">
        <ele>2483.1</ele>
        <time>2022-01-14T10:28:10Z</time>
      </trkpt>
      <trkpt lat="44.99661" lon="6.4492">
        <ele>2483.1</ele>
        <time>2022-01-14T10:28:11Z</time>
      </trkpt>
      <trkpt lat="44.99661" lon="6.4492">
        <ele>2483.1</ele>
        <time>2022-01-14T10:28:12Z</time>
      </trkpt>
      <trkpt lat="44.9966" lon="6.4492">
        <ele>2483.1</ele>
        <time>2022-01-14T10:28:13Z</time>
      </trkpt>
      <trkpt lat="44.9966" lon="6.44919">
        <ele>2483.1</ele>
        <time>2022-01-14T10:28:14Z</time>
      </trkpt>
      <trkpt lat="44.9966" lon="6.44919">
        <ele>2483.1</ele>
        <time>2022-01-14T10:28:15Z</time>
      </trkpt>
      <trkpt lat="44.9966" lon="6.4492">
        <ele>2483.1</ele>
        <time>2022-01-14T10:28:16Z</time>
      </trkpt>
      <trkpt lat="44.9966" lon="6.44921">
        <ele>2483.1</ele>
        <time>2022-01-14T10:28:17Z</time>
      </trkpt>
      <trkpt lat="44.99659" lon="6.44921">
        <ele>2483.1</ele>
        <time>2022-01-14T10:28:18Z</time>
      </trkpt>
      <trkpt lat="44.99659" lon="6.44922">
        <ele>2483.1</ele>
        <time>2022-01-14T10:28:19Z</time>
      </trkpt>
      <trkpt lat="44.99659" lon="6.44922">
        <ele>2483.1</ele>
        <time>2022-01-14T10:28:20Z</time>
      </trkpt>
      <trkpt lat="44.99659" lon="6.44922">
        <ele>2483.1</ele>
        <time>2022-01-14T10:28:21Z</time>
      </trkpt>
      <trkpt lat="44.99659" lon="6.44922">
        <ele>2483.1</ele>
        <time>2022-01-14T10:28:22Z</time>
      </trkpt>
      <trkpt lat="44.99659" lon="6.44922">
        <ele>2483.1</ele>
        <time>2022-01-14T10:28:23Z</time>
      </trkpt>
      <trkpt lat="44.99659" lon="6.44921">
        <ele>2483.1</ele>
        <time>2022-01-14T10:28:24Z</time>
      </trkpt>
      <trkpt lat="44.99659" lon="6.44921">
        <ele>2483.1</ele>
        <time>2022-01-14T10:28:25Z</time>
      </trkpt>
      <trkpt lat="44.99659" lon="6.44921">
        <ele>2483.1</ele>
        <time>2022-01-14T10:28:26Z</time>
      </trkpt>
      <trkpt lat="44.99659" lon="6.44921">
        <ele>2483.1</ele>
        <time>2022-01-14T10:28:27Z</time>
      </trkpt>
      <trkpt lat="44.9966" lon="6.44921">
        <ele>2483.1</ele>
        <time>2022-01-14T10:28:28Z</time>
      </trkpt>
      <trkpt lat="44.9966" lon="6.4492">
        <ele>2483.1</ele>
        <time>2022-01-14T10:28:29Z</time>
      </trkpt>
      <trkpt lat="44.9966" lon="6.44921">
        <ele>2483.1</ele>
        <time>2022-01-14T10:28:30Z</time>
      </trkpt>
      <trkpt lat="44.9966" lon="6.44921">
        <ele>2483.1</ele>
        <time>2022-01-14T10:28:31Z</time>
      </trkpt>
      <trkpt lat="44.99661" lon="6.4492">
        <ele>2483.1</ele>
        <time>2022-01-14T10:28:32Z</time>
      </trkpt>
      <trkpt lat="44.99661" lon="6.4492">
        <ele>2484.6</ele>
        <time>2022-01-14T10:28:33Z</time>
      </trkpt>
      <trkpt lat="44.99662" lon="6.44921">
        <ele>2484.6</ele>
        <time>2022-01-14T10:28:34Z</time>
      </trkpt>
      <trkpt lat="44.99663" lon="6.44921">
        <ele>2484.6</ele>
        <time>2022-01-14T10:28:35Z</time>
      </trkpt>
      <trkpt lat="44.99663" lon="6.44921">
        <ele>2484.6</ele>
        <time>2022-01-14T10:28:36Z</time>
      </trkpt>
      <trkpt lat="44.99663" lon="6.44921">
        <ele>2484.6</ele>
        <time>2022-01-14T10:28:37Z</time>
      </trkpt>
      <trkpt lat="44.99664" lon="6.44921">
        <ele>2484.6</ele>
        <time>2022-01-14T10:28:38Z</time>
      </trkpt>
      <trkpt lat="44.99664" lon="6.44921">
        <ele>2486.1</ele>
        <time>2022-01-14T10:28:39Z</time>
      </trkpt>
      <trkpt lat="44.99664" lon="6.44921">
        <ele>2486.1</ele>
        <time>2022-01-14T10:28:40Z</time>
      </trkpt>
      <trkpt lat="44.99664" lon="6.44921">
        <ele>2486.1</ele>
        <time>2022-01-14T10:28:41Z</time>
      </trkpt>
      <trkpt lat="44.99665" lon="6.44921">
        <ele>2486.1</ele>
        <time>2022-01-14T10:28:42Z</time>
      </trkpt>
      <trkpt lat="44.99665" lon="6.44922">
        <ele>2486.1</ele>
        <time>2022-01-14T10:28:43Z</time>
      </trkpt>
      <trkpt lat="44.99665" lon="6.44922">
        <ele>2486.1</ele>
        <time>2022-01-14T10:28:44Z</time>
      </trkpt>
      <trkpt lat="44.99665" lon="6.44923">
        <ele>2486.1</ele>
        <time>2022-01-14T10:28:45Z</time>
      </trkpt>
      <trkpt lat="44.99666" lon="6.44923">
        <ele>2483.7</ele>
        <time>2022-01-14T10:28:46Z</time>
      </trkpt>
      <trkpt lat="44.99666" lon="6.44923">
        <ele>2483.7</ele>
        <time>2022-01-14T10:28:47Z</time>
      </trkpt>
      <trkpt lat="44.99665" lon="6.44924">
        <ele>2483.7</ele>
        <time>2022-01-14T10:28:48Z</time>
      </trkpt>
      <trkpt lat="44.99666" lon="6.44924">
        <ele>2483.7</ele>
        <time>2022-01-14T10:28:49Z</time>
      </trkpt>
      <trkpt lat="44.99666" lon="6.44924">
        <ele>2483.7</ele>
        <time>2022-01-14T10:28:50Z</time>
      </trkpt>
      <trkpt lat="44.99665" lon="6.44924">
        <ele>2483.7</ele>
        <time>2022-01-14T10:28:51Z</time>
      </trkpt>
      <trkpt lat="44.99665" lon="6.44924">
        <ele>2483.7</ele>
        <time>2022-01-14T10:28:52Z</time>
      </trkpt>
      <trkpt lat="44.99666" lon="6.44924">
        <ele>2483.7</ele>
        <time>2022-01-14T10:28:53Z</time>
      </trkpt>
      <trkpt lat="44.99666" lon="6.44924">
        <ele>2483.7</ele>
        <time>2022-01-14T10:28:54Z</time>
      </trkpt>
      <trkpt lat="44.99666" lon="6.44924">
        <ele>2483.7</ele>
        <time>2022-01-14T10:28:55Z</time>
      </trkpt>
      <trkpt lat="44.99666" lon="6.44924">
        <ele>2483.7</ele>
        <time>2022-01-14T10:28:56Z</time>
      </trkpt>
      <trkpt lat="44.99667" lon="6.44924">
        <ele>2483.7</ele>
        <time>2022-01-14T10:28:57Z</time>
      </trkpt>
      <trkpt lat="44.99667" lon="6.44925">
        <ele>2485</ele>
        <time>2022-01-14T10:28:58Z</time>
      </trkpt>
      <trkpt lat="44.99668" lon="6.44926">
        <ele>2485</ele>
        <time>2022-01-14T10:28:59Z</time>
      </trkpt>
      <trkpt lat="44.99668" lon="6.44927">
        <ele>2485</ele>
        <time>2022-01-14T10:29:00Z</time>
      </trkpt>
      <trkpt lat="44.99668" lon="6.44927">
        <ele>2485</ele>
        <time>2022-01-14T10:29:01Z</time>
      </trkpt>
      <trkpt lat="44.99668" lon="6.44928">
        <ele>2482.4</ele>
        <time>2022-01-14T10:29:02Z</time>
      </trkpt>
      <trkpt lat="44.99669" lon="6.44928">
        <ele>2482.4</ele>
        <time>2022-01-14T10:29:03Z</time>
      </trkpt>
      <trkpt lat="44.99669" lon="6.44928">
        <ele>2482.4</ele>
        <time>2022-01-14T10:29:04Z</time>
      </trkpt>
      <trkpt lat="44.99669" lon="6.44929">
        <ele>2482.4</ele>
        <time>2022-01-14T10:29:05Z</time>
      </trkpt>
      <trkpt lat="44.99669" lon="6.44929">
        <ele>2482.4</ele>
        <time>2022-01-14T10:29:06Z</time>
      </trkpt>
      <trkpt lat="44.99669" lon="6.44929">
        <ele>2482.4</ele>
        <time>2022-01-14T10:29:07Z</time>
      </trkpt>
      <trkpt lat="44.99669" lon="6.44928">
        <ele>2482.4</ele>
        <time>2022-01-14T10:29:08Z</time>
      </trkpt>
      <trkpt lat="44.99669" lon="6.44929">
        <ele>2482.4</ele>
        <time>2022-01-14T10:29:09Z</time>
      </trkpt>
      <trkpt lat="44.99669" lon="6.44929">
        <ele>2482.4</ele>
        <time>2022-01-14T10:29:10Z</time>
      </trkpt>
      <trkpt lat="44.99669" lon="6.44929">
        <ele>2482.4</ele>
        <time>2022-01-14T10:29:11Z</time>
      </trkpt>
      <trkpt lat="44.99669" lon="6.44929">
        <ele>2482.4</ele>
        <time>2022-01-14T10:29:12Z</time>
      </trkpt>
      <trkpt lat="44.99669" lon="6.44929">
        <ele>2482.4</ele>
        <time>2022-01-14T10:29:13Z</time>
      </trkpt>
      <trkpt lat="44.99668" lon="6.44929">
        <ele>2482.4</ele>
        <time>2022-01-14T10:29:14Z</time>
      </trkpt>
      <trkpt lat="44.99668" lon="6.4493">
        <ele>2482.4</ele>
        <time>2022-01-14T10:29:15Z</time>
      </trkpt>
      <trkpt lat="44.99668" lon="6.4493">
        <ele>2482.4</ele>
        <time>2022-01-14T10:29:16Z</time>
      </trkpt>
      <trkpt lat="44.99668" lon="6.4493">
        <ele>2482.4</ele>
        <time>2022-01-14T10:29:17Z</time>
      </trkpt>
      <trkpt lat="44.99668" lon="6.4493">
        <ele>2482.4</ele>
        <time>2022-01-14T10:29:18Z</time>
      </trkpt>
      <trkpt lat="44.99668" lon="6.44929">
        <ele>2482.4</ele>
        <time>2022-01-14T10:29:19Z</time>
      </trkpt>
      <trkpt lat="44.99668" lon="6.44929">
        <ele>2482.4</ele>
        <time>2022-01-14T10:29:20Z</time>
      </trkpt>
      <trkpt lat="44.99668" lon="6.44929">
        <ele>2482.4</ele>
        <time>2022-01-14T10:29:21Z</time>
      </trkpt>
      <trkpt lat="44.99668" lon="6.44928">
        <ele>2482.4</ele>
        <time>2022-01-14T10:29:22Z</time>
      </trkpt>
      <trkpt lat="44.99668" lon="6.44928">
        <ele>2482.4</ele>
        <time>2022-01-14T10:29:23Z</time>
      </trkpt>
      <trkpt lat="44.99668" lon="6.44928">
        <ele>2482.4</ele>
        <time>2022-01-14T10:29:24Z</time>
      </trkpt>
      <trkpt lat="44.99668" lon="6.44927">
        <ele>2485</ele>
        <time>2022-01-14T10:29:25Z</time>
      </trkpt>
      <trkpt lat="44.99668" lon="6.44927">
        <ele>2485</ele>
        <time>2022-01-14T10:29:26Z</time>
      </trkpt>
      <trkpt lat="44.99668" lon="6.44927">
        <ele>2485</ele>
        <time>2022-01-14T10:29:27Z</time>
      </trkpt>
      <trkpt lat="44.99668" lon="6.44926">
        <ele>2485</ele>
        <time>2022-01-14T10:29:28Z</time>
      </trkpt>
      <trkpt lat="44.99668" lon="6.44926">
        <ele>2485</ele>
        <time>2022-01-14T10:29:29Z</time>
      </trkpt>
      <trkpt lat="44.99668" lon="6.44926">
        <ele>2485</ele>
        <time>2022-01-14T10:29:30Z</time>
      </trkpt>
      <trkpt lat="44.99668" lon="6.44925">
        <ele>2485</ele>
        <time>2022-01-14T10:29:31Z</time>
      </trkpt>
      <trkpt lat="44.99668" lon="6.44925">
        <ele>2485</ele>
        <time>2022-01-14T10:29:32Z</time>
      </trkpt>
      <trkpt lat="44.99668" lon="6.44925">
        <ele>2485</ele>
        <time>2022-01-14T10:29:33Z</time>
      </trkpt>
      <trkpt lat="44.99668" lon="6.44925">
        <ele>2485</ele>
        <time>2022-01-14T10:29:34Z</time>
      </trkpt>
      <trkpt lat="44.99668" lon="6.44924">
        <ele>2485</ele>
        <time>2022-01-14T10:29:35Z</time>
      </trkpt>
      <trkpt lat="44.99668" lon="6.44923">
        <ele>2485</ele>
        <time>2022-01-14T10:29:36Z</time>
      </trkpt>
      <trkpt lat="44.99668" lon="6.44923">
        <ele>2487.7</ele>
        <time>2022-01-14T10:29:37Z</time>
      </trkpt>
      <trkpt lat="44.99668" lon="6.44922">
        <ele>2487.7</ele>
        <time>2022-01-14T10:29:38Z</time>
      </trkpt>
      <trkpt lat="44.99668" lon="6.44921">
        <ele>2487.7</ele>
        <time>2022-01-14T10:29:39Z</time>
      </trkpt>
      <trkpt lat="44.99669" lon="6.4492">
        <ele>2487.7</ele>
        <time>2022-01-14T10:29:40Z</time>
      </trkpt>
      <trkpt lat="44.99669" lon="6.4492">
        <ele>2487.7</ele>
        <time>2022-01-14T10:29:41Z</time>
      </trkpt>
      <trkpt lat="44.99669" lon="6.44919">
        <ele>2487.7</ele>
        <time>2022-01-14T10:29:42Z</time>
      </trkpt>
      <trkpt lat="44.99669" lon="6.4492">
        <ele>2487.7</ele>
        <time>2022-01-14T10:29:43Z</time>
      </trkpt>
      <trkpt lat="44.99669" lon="6.4492">
        <ele>2487.7</ele>
        <time>2022-01-14T10:29:44Z</time>
      </trkpt>
      <trkpt lat="44.99669" lon="6.4492">
        <ele>2487.7</ele>
        <time>2022-01-14T10:29:45Z</time>
      </trkpt>
      <trkpt lat="44.99669" lon="6.44919">
        <ele>2487.7</ele>
        <time>2022-01-14T10:29:46Z</time>
      </trkpt>
      <trkpt lat="44.99669" lon="6.44918">
        <ele>2490.2</ele>
        <time>2022-01-14T10:29:47Z</time>
      </trkpt>
      <trkpt lat="44.99669" lon="6.44917">
        <ele>2490.2</ele>
        <time>2022-01-14T10:29:48Z</time>
      </trkpt>
      <trkpt lat="44.99669" lon="6.44917">
        <ele>2490.2</ele>
        <time>2022-01-14T10:29:49Z</time>
      </trkpt>
      <trkpt lat="44.99668" lon="6.44916">
        <ele>2490.2</ele>
        <time>2022-01-14T10:29:50Z</time>
      </trkpt>
      <trkpt lat="44.99667" lon="6.44915">
        <ele>2490.2</ele>
        <time>2022-01-14T10:29:51Z</time>
      </trkpt>
      <trkpt lat="44.99667" lon="6.44916">
        <ele>2490.2</ele>
        <time>2022-01-14T10:29:52Z</time>
      </trkpt>
      <trkpt lat="44.99667" lon="6.44917">
        <ele>2490.2</ele>
        <time>2022-01-14T10:29:53Z</time>
      </trkpt>
      <trkpt lat="44.99668" lon="6.44916">
        <ele>2490.2</ele>
        <time>2022-01-14T10:29:54Z</time>
      </trkpt>
      <trkpt lat="44.99668" lon="6.44916">
        <ele>2490.2</ele>
        <time>2022-01-14T10:29:55Z</time>
      </trkpt>
      <trkpt lat="44.99668" lon="6.44917">
        <ele>2490.2</ele>
        <time>2022-01-14T10:29:56Z</time>
      </trkpt>
      <trkpt lat="44.99668" lon="6.44917">
        <ele>2490.2</ele>
        <time>2022-01-14T10:29:57Z</time>
      </trkpt>
      <trkpt lat="44.99669" lon="6.44916">
        <ele>2490.2</ele>
        <time>2022-01-14T10:29:58Z</time>
      </trkpt>
      <trkpt lat="44.9967" lon="6.44913">
        <ele>2492.8</ele>
        <time>2022-01-14T10:29:59Z</time>
      </trkpt>
      <trkpt lat="44.99669" lon="6.44913">
        <ele>2492.8</ele>
        <time>2022-01-14T10:30:00Z</time>
      </trkpt>
      <trkpt lat="44.99669" lon="6.44912">
        <ele>2492.8</ele>
        <time>2022-01-14T10:30:01Z</time>
      </trkpt>
      <trkpt lat="44.99669" lon="6.4491">
        <ele>2492.8</ele>
        <time>2022-01-14T10:30:02Z</time>
      </trkpt>
      <trkpt lat="44.99668" lon="6.44909">
        <ele>2495.4</ele>
        <time>2022-01-14T10:30:03Z</time>
      </trkpt>
      <trkpt lat="44.99668" lon="6.44909">
        <ele>2495.4</ele>
        <time>2022-01-14T10:30:04Z</time>
      </trkpt>
      <trkpt lat="44.99668" lon="6.44908">
        <ele>2495.4</ele>
        <time>2022-01-14T10:30:06Z</time>
      </trkpt>
      <trkpt lat="44.99668" lon="6.44909">
        <ele>2495.4</ele>
        <time>2022-01-14T10:30:07Z</time>
      </trkpt>
      <trkpt lat="44.99668" lon="6.44908">
        <ele>2495.4</ele>
        <time>2022-01-14T10:30:08Z</time>
      </trkpt>
      <trkpt lat="44.99667" lon="6.44908">
        <ele>2495.4</ele>
        <time>2022-01-14T10:30:09Z</time>
      </trkpt>
      <trkpt lat="44.99667" lon="6.44908">
        <ele>2493.5</ele>
        <time>2022-01-14T10:30:10Z</time>
      </trkpt>
      <trkpt lat="44.99667" lon="6.44908">
        <ele>2493.5</ele>
        <time>2022-01-14T10:30:11Z</time>
      </trkpt>
      <trkpt lat="44.99667" lon="6.44909">
        <ele>2493.5</ele>
        <time>2022-01-14T10:30:12Z</time>
      </trkpt>
      <trkpt lat="44.99667" lon="6.44909">
        <ele>2493.5</ele>
        <time>2022-01-14T10:30:13Z</time>
      </trkpt>
      <trkpt lat="44.99667" lon="6.44908">
        <ele>2493.5</ele>
        <time>2022-01-14T10:30:14Z</time>
      </trkpt>
      <trkpt lat="44.99667" lon="6.44908">
        <ele>2493.5</ele>
        <time>2022-01-14T10:30:15Z</time>
      </trkpt>
      <trkpt lat="44.99667" lon="6.44907">
        <ele>2493.5</ele>
        <time>2022-01-14T10:30:16Z</time>
      </trkpt>
      <trkpt lat="44.99666" lon="6.44907">
        <ele>2493.5</ele>
        <time>2022-01-14T10:30:17Z</time>
      </trkpt>
      <trkpt lat="44.99666" lon="6.44908">
        <ele>2493.5</ele>
        <time>2022-01-14T10:30:18Z</time>
      </trkpt>
      <trkpt lat="44.99666" lon="6.44908">
        <ele>2493.5</ele>
        <time>2022-01-14T10:30:19Z</time>
      </trkpt>
      <trkpt lat="44.99666" lon="6.44907">
        <ele>2493.5</ele>
        <time>2022-01-14T10:30:20Z</time>
      </trkpt>
      <trkpt lat="44.99666" lon="6.44906">
        <ele>2495.9</ele>
        <time>2022-01-14T10:30:21Z</time>
      </trkpt>
      <trkpt lat="44.99666" lon="6.44905">
        <ele>2495.9</ele>
        <time>2022-01-14T10:30:22Z</time>
      </trkpt>
      <trkpt lat="44.99666" lon="6.44904">
        <ele>2495.9</ele>
        <time>2022-01-14T10:30:23Z</time>
      </trkpt>
      <trkpt lat="44.99666" lon="6.44903">
        <ele>2495.9</ele>
        <time>2022-01-14T10:30:24Z</time>
      </trkpt>
      <trkpt lat="44.99665" lon="6.44903">
        <ele>2495.9</ele>
        <time>2022-01-14T10:30:25Z</time>
      </trkpt>
      <trkpt lat="44.99665" lon="6.44903">
        <ele>2495.9</ele>
        <time>2022-01-14T10:30:26Z</time>
      </trkpt>
      <trkpt lat="44.99665" lon="6.44902">
        <ele>2495.9</ele>
        <time>2022-01-14T10:30:27Z</time>
      </trkpt>
      <trkpt lat="44.99664" lon="6.44903">
        <ele>2495.9</ele>
        <time>2022-01-14T10:30:28Z</time>
      </trkpt>
      <trkpt lat="44.99664" lon="6.44903">
        <ele>2493.7</ele>
        <time>2022-01-14T10:30:29Z</time>
      </trkpt>
      <trkpt lat="44.99663" lon="6.44902">
        <ele>2493.7</ele>
        <time>2022-01-14T10:30:30Z</time>
      </trkpt>
      <trkpt lat="44.99663" lon="6.44902">
        <ele>2493.7</ele>
        <time>2022-01-14T10:30:31Z</time>
      </trkpt>
      <trkpt lat="44.99664" lon="6.44902">
        <ele>2496.1</ele>
        <time>2022-01-14T10:30:32Z</time>
      </trkpt>
      <trkpt lat="44.99664" lon="6.44901">
        <ele>2496.1</ele>
        <time>2022-01-14T10:30:33Z</time>
      </trkpt>
      <trkpt lat="44.99664" lon="6.44901">
        <ele>2496.1</ele>
        <time>2022-01-14T10:30:34Z</time>
      </trkpt>
      <trkpt lat="44.99664" lon="6.44901">
        <ele>2496.1</ele>
        <time>2022-01-14T10:30:35Z</time>
      </trkpt>
      <trkpt lat="44.99664" lon="6.449">
        <ele>2496.1</ele>
        <time>2022-01-14T10:30:36Z</time>
      </trkpt>
      <trkpt lat="44.99664" lon="6.449">
        <ele>2496.1</ele>
        <time>2022-01-14T10:30:37Z</time>
      </trkpt>
      <trkpt lat="44.99664" lon="6.44899">
        <ele>2496.1</ele>
        <time>2022-01-14T10:30:38Z</time>
      </trkpt>
      <trkpt lat="44.99664" lon="6.44899">
        <ele>2496.1</ele>
        <time>2022-01-14T10:30:39Z</time>
      </trkpt>
      <trkpt lat="44.99664" lon="6.44899">
        <ele>2496.1</ele>
        <time>2022-01-14T10:30:40Z</time>
      </trkpt>
      <trkpt lat="44.99664" lon="6.44898">
        <ele>2496.1</ele>
        <time>2022-01-14T10:30:41Z</time>
      </trkpt>
      <trkpt lat="44.99664" lon="6.44898">
        <ele>2496.1</ele>
        <time>2022-01-14T10:30:42Z</time>
      </trkpt>
      <trkpt lat="44.99664" lon="6.44898">
        <ele>2496.1</ele>
        <time>2022-01-14T10:30:43Z</time>
      </trkpt>
      <trkpt lat="44.99664" lon="6.44897">
        <ele>2499.9</ele>
        <time>2022-01-14T10:30:44Z</time>
      </trkpt>
      <trkpt lat="44.99664" lon="6.44897">
        <ele>2499.9</ele>
        <time>2022-01-14T10:30:45Z</time>
      </trkpt>
      <trkpt lat="44.99664" lon="6.44896">
        <ele>2499.9</ele>
        <time>2022-01-14T10:30:46Z</time>
      </trkpt>
      <trkpt lat="44.99665" lon="6.44896">
        <ele>2502.4</ele>
        <time>2022-01-14T10:30:47Z</time>
      </trkpt>
      <trkpt lat="44.99664" lon="6.44896">
        <ele>2502.4</ele>
        <time>2022-01-14T10:30:48Z</time>
      </trkpt>
      <trkpt lat="44.99664" lon="6.44895">
        <ele>2502.4</ele>
        <time>2022-01-14T10:30:49Z</time>
      </trkpt>
      <trkpt lat="44.99663" lon="6.44895">
        <ele>2499.9</ele>
        <time>2022-01-14T10:30:50Z</time>
      </trkpt>
      <trkpt lat="44.99663" lon="6.44894">
        <ele>2499.9</ele>
        <time>2022-01-14T10:30:51Z</time>
      </trkpt>
      <trkpt lat="44.99662" lon="6.44893">
        <ele>2499.9</ele>
        <time>2022-01-14T10:30:52Z</time>
      </trkpt>
      <trkpt lat="44.99662" lon="6.44893">
        <ele>2502.4</ele>
        <time>2022-01-14T10:30:53Z</time>
      </trkpt>
      <trkpt lat="44.99662" lon="6.44892">
        <ele>2502.4</ele>
        <time>2022-01-14T10:30:54Z</time>
      </trkpt>
      <trkpt lat="44.99661" lon="6.44892">
        <ele>2502.4</ele>
        <time>2022-01-14T10:30:55Z</time>
      </trkpt>
      <trkpt lat="44.99661" lon="6.44892">
        <ele>2499.9</ele>
        <time>2022-01-14T10:30:56Z</time>
      </trkpt>
      <trkpt lat="44.9966" lon="6.44892">
        <ele>2499.9</ele>
        <time>2022-01-14T10:30:57Z</time>
      </trkpt>
      <trkpt lat="44.99659" lon="6.44891">
        <ele>2499.9</ele>
        <time>2022-01-14T10:30:58Z</time>
      </trkpt>
      <trkpt lat="44.99659" lon="6.4489">
        <ele>2499.9</ele>
        <time>2022-01-14T10:30:59Z</time>
      </trkpt>
      <trkpt lat="44.99659" lon="6.4489">
        <ele>2499.9</ele>
        <time>2022-01-14T10:31:00Z</time>
      </trkpt>
      <trkpt lat="44.99659" lon="6.44889">
        <ele>2499.9</ele>
        <time>2022-01-14T10:31:01Z</time>
      </trkpt>
      <trkpt lat="44.99659" lon="6.44889">
        <ele>2499.9</ele>
        <time>2022-01-14T10:31:02Z</time>
      </trkpt>
      <trkpt lat="44.99659" lon="6.44889">
        <ele>2499.9</ele>
        <time>2022-01-14T10:31:03Z</time>
      </trkpt>
      <trkpt lat="44.99659" lon="6.44889">
        <ele>2501.7</ele>
        <time>2022-01-14T10:31:04Z</time>
      </trkpt>
      <trkpt lat="44.99659" lon="6.44889">
        <ele>2501.7</ele>
        <time>2022-01-14T10:31:05Z</time>
      </trkpt>
      <trkpt lat="44.99659" lon="6.44888">
        <ele>2501.7</ele>
        <time>2022-01-14T10:31:06Z</time>
      </trkpt>
      <trkpt lat="44.99658" lon="6.44888">
        <ele>2501.7</ele>
        <time>2022-01-14T10:31:07Z</time>
      </trkpt>
      <trkpt lat="44.99658" lon="6.44886">
        <ele>2499.2</ele>
        <time>2022-01-14T10:31:08Z</time>
      </trkpt>
      <trkpt lat="44.99658" lon="6.44886">
        <ele>2499.2</ele>
        <time>2022-01-14T10:31:09Z</time>
      </trkpt>
      <trkpt lat="44.99657" lon="6.44886">
        <ele>2499.2</ele>
        <time>2022-01-14T10:31:10Z</time>
      </trkpt>
      <trkpt lat="44.99657" lon="6.44886">
        <ele>2499.2</ele>
        <time>2022-01-14T10:31:11Z</time>
      </trkpt>
      <trkpt lat="44.99657" lon="6.44885">
        <ele>2499.2</ele>
        <time>2022-01-14T10:31:12Z</time>
      </trkpt>
      <trkpt lat="44.99656" lon="6.44885">
        <ele>2499.2</ele>
        <time>2022-01-14T10:31:13Z</time>
      </trkpt>
      <trkpt lat="44.99656" lon="6.44885">
        <ele>2499.2</ele>
        <time>2022-01-14T10:31:14Z</time>
      </trkpt>
      <trkpt lat="44.99656" lon="6.44884">
        <ele>2500.9</ele>
        <time>2022-01-14T10:31:15Z</time>
      </trkpt>
      <trkpt lat="44.99656" lon="6.44883">
        <ele>2500.9</ele>
        <time>2022-01-14T10:31:16Z</time>
      </trkpt>
      <trkpt lat="44.99656" lon="6.44883">
        <ele>2500.9</ele>
        <time>2022-01-14T10:31:17Z</time>
      </trkpt>
      <trkpt lat="44.99656" lon="6.44883">
        <ele>2500.9</ele>
        <time>2022-01-14T10:31:18Z</time>
      </trkpt>
      <trkpt lat="44.99656" lon="6.44881">
        <ele>2500.9</ele>
        <time>2022-01-14T10:31:19Z</time>
      </trkpt>
      <trkpt lat="44.99656" lon="6.44881">
        <ele>2500.9</ele>
        <time>2022-01-14T10:31:20Z</time>
      </trkpt>
      <trkpt lat="44.99656" lon="6.44882">
        <ele>2500.9</ele>
        <time>2022-01-14T10:31:21Z</time>
      </trkpt>
      <trkpt lat="44.99656" lon="6.44882">
        <ele>2500.9</ele>
        <time>2022-01-14T10:31:22Z</time>
      </trkpt>
      <trkpt lat="44.99656" lon="6.44882">
        <ele>2500.9</ele>
        <time>2022-01-14T10:31:23Z</time>
      </trkpt>
      <trkpt lat="44.99656" lon="6.44882">
        <ele>2500.9</ele>
        <time>2022-01-14T10:31:24Z</time>
      </trkpt>
      <trkpt lat="44.99656" lon="6.44882">
        <ele>2500.9</ele>
        <time>2022-01-14T10:31:25Z</time>
      </trkpt>
      <trkpt lat="44.99656" lon="6.44882">
        <ele>2500.9</ele>
        <time>2022-01-14T10:31:26Z</time>
      </trkpt>
      <trkpt lat="44.99656" lon="6.44883">
        <ele>2500.9</ele>
        <time>2022-01-14T10:31:27Z</time>
      </trkpt>
      <trkpt lat="44.99656" lon="6.44883">
        <ele>2500.9</ele>
        <time>2022-01-14T10:31:28Z</time>
      </trkpt>
      <trkpt lat="44.99656" lon="6.44883">
        <ele>2500.9</ele>
        <time>2022-01-14T10:31:29Z</time>
      </trkpt>
      <trkpt lat="44.99655" lon="6.44883">
        <ele>2500.9</ele>
        <time>2022-01-14T10:31:30Z</time>
      </trkpt>
      <trkpt lat="44.99655" lon="6.44883">
        <ele>2500.9</ele>
        <time>2022-01-14T10:31:31Z</time>
      </trkpt>
      <trkpt lat="44.99655" lon="6.44883">
        <ele>2500.9</ele>
        <time>2022-01-14T10:31:32Z</time>
      </trkpt>
      <trkpt lat="44.99655" lon="6.44884">
        <ele>2500.9</ele>
        <time>2022-01-14T10:31:33Z</time>
      </trkpt>
      <trkpt lat="44.99655" lon="6.44884">
        <ele>2498.6</ele>
        <time>2022-01-14T10:31:34Z</time>
      </trkpt>
      <trkpt lat="44.99655" lon="6.44884">
        <ele>2498.6</ele>
        <time>2022-01-14T10:31:35Z</time>
      </trkpt>
      <trkpt lat="44.99655" lon="6.44884">
        <ele>2498.6</ele>
        <time>2022-01-14T10:31:36Z</time>
      </trkpt>
      <trkpt lat="44.99655" lon="6.44884">
        <ele>2498.6</ele>
        <time>2022-01-14T10:31:37Z</time>
      </trkpt>
      <trkpt lat="44.99655" lon="6.44884">
        <ele>2498.6</ele>
        <time>2022-01-14T10:31:38Z</time>
      </trkpt>
      <trkpt lat="44.99655" lon="6.44885">
        <ele>2498.6</ele>
        <time>2022-01-14T10:31:39Z</time>
      </trkpt>
      <trkpt lat="44.99655" lon="6.44885">
        <ele>2496.8</ele>
        <time>2022-01-14T10:31:40Z</time>
      </trkpt>
      <trkpt lat="44.99654" lon="6.44885">
        <ele>2496.8</ele>
        <time>2022-01-14T10:31:41Z</time>
      </trkpt>
      <trkpt lat="44.99654" lon="6.44885">
        <ele>2496.8</ele>
        <time>2022-01-14T10:31:42Z</time>
      </trkpt>
      <trkpt lat="44.99653" lon="6.44889">
        <ele>2496.8</ele>
        <time>2022-01-14T10:31:43Z</time>
      </trkpt>
      <trkpt lat="44.99652" lon="6.4489">
        <ele>2494.9</ele>
        <time>2022-01-14T10:31:44Z</time>
      </trkpt>
      <trkpt lat="44.99651" lon="6.44891">
        <ele>2492.5</ele>
        <time>2022-01-14T10:31:45Z</time>
      </trkpt>
      <trkpt lat="44.9965" lon="6.44893">
        <ele>2492.5</ele>
        <time>2022-01-14T10:31:46Z</time>
      </trkpt>
      <trkpt lat="44.9965" lon="6.44894">
        <ele>2490.5</ele>
        <time>2022-01-14T10:31:47Z</time>
      </trkpt>
      <trkpt lat="44.9965" lon="6.44894">
        <ele>2490.5</ele>
        <time>2022-01-14T10:31:48Z</time>
      </trkpt>
      <trkpt lat="44.99649" lon="6.44895">
        <ele>2490.5</ele>
        <time>2022-01-14T10:31:49Z</time>
      </trkpt>
      <trkpt lat="44.99649" lon="6.44896">
        <ele>2488.2</ele>
        <time>2022-01-14T10:31:50Z</time>
      </trkpt>
      <trkpt lat="44.99649" lon="6.44897">
        <ele>2490.5</ele>
        <time>2022-01-14T10:31:51Z</time>
      </trkpt>
      <trkpt lat="44.99649" lon="6.44897">
        <ele>2490.5</ele>
        <time>2022-01-14T10:31:52Z</time>
      </trkpt>
      <trkpt lat="44.9965" lon="6.44897">
        <ele>2490.5</ele>
        <time>2022-01-14T10:31:53Z</time>
      </trkpt>
      <trkpt lat="44.9965" lon="6.44896">
        <ele>2490.5</ele>
        <time>2022-01-14T10:31:54Z</time>
      </trkpt>
      <trkpt lat="44.99651" lon="6.44896">
        <ele>2490.5</ele>
        <time>2022-01-14T10:31:55Z</time>
      </trkpt>
      <trkpt lat="44.9965" lon="6.44897">
        <ele>2490.5</ele>
        <time>2022-01-14T10:31:56Z</time>
      </trkpt>
      <trkpt lat="44.99649" lon="6.44898">
        <ele>2485.3</ele>
        <time>2022-01-14T10:31:57Z</time>
      </trkpt>
      <trkpt lat="44.99648" lon="6.44899">
        <ele>2485.3</ele>
        <time>2022-01-14T10:31:58Z</time>
      </trkpt>
      <trkpt lat="44.99648" lon="6.44899">
        <ele>2485.3</ele>
        <time>2022-01-14T10:31:59Z</time>
      </trkpt>
      <trkpt lat="44.99648" lon="6.449">
        <ele>2485.3</ele>
        <time>2022-01-14T10:32:00Z</time>
      </trkpt>
      <trkpt lat="44.99648" lon="6.449">
        <ele>2485.3</ele>
        <time>2022-01-14T10:32:01Z</time>
      </trkpt>
      <trkpt lat="44.99648" lon="6.44901">
        <ele>2485.3</ele>
        <time>2022-01-14T10:32:02Z</time>
      </trkpt>
      <trkpt lat="44.99649" lon="6.449">
        <ele>2485.3</ele>
        <time>2022-01-14T10:32:03Z</time>
      </trkpt>
      <trkpt lat="44.99649" lon="6.449">
        <ele>2487.2</ele>
        <time>2022-01-14T10:32:04Z</time>
      </trkpt>
      <trkpt lat="44.99649" lon="6.449">
        <ele>2487.2</ele>
        <time>2022-01-14T10:32:05Z</time>
      </trkpt>
      <trkpt lat="44.9965" lon="6.449">
        <ele>2487.2</ele>
        <time>2022-01-14T10:32:06Z</time>
      </trkpt>
      <trkpt lat="44.99649" lon="6.44899">
        <ele>2487.2</ele>
        <time>2022-01-14T10:32:07Z</time>
      </trkpt>
      <trkpt lat="44.99649" lon="6.44899">
        <ele>2487.2</ele>
        <time>2022-01-14T10:32:08Z</time>
      </trkpt>
      <trkpt lat="44.9965" lon="6.449">
        <ele>2487.2</ele>
        <time>2022-01-14T10:32:09Z</time>
      </trkpt>
      <trkpt lat="44.99651" lon="6.44901">
        <ele>2487.2</ele>
        <time>2022-01-14T10:32:10Z</time>
      </trkpt>
      <trkpt lat="44.99651" lon="6.44902">
        <ele>2487.2</ele>
        <time>2022-01-14T10:32:11Z</time>
      </trkpt>
      <trkpt lat="44.99652" lon="6.44902">
        <ele>2487</ele>
        <time>2022-01-14T10:32:12Z</time>
      </trkpt>
      <trkpt lat="44.99653" lon="6.44902">
        <ele>2487</ele>
        <time>2022-01-14T10:32:13Z</time>
      </trkpt>
      <trkpt lat="44.99653" lon="6.44902">
        <ele>2487</ele>
        <time>2022-01-14T10:32:14Z</time>
      </trkpt>
      <trkpt lat="44.99654" lon="6.44902">
        <ele>2489.2</ele>
        <time>2022-01-14T10:32:15Z</time>
      </trkpt>
      <trkpt lat="44.99654" lon="6.44902">
        <ele>2489.2</ele>
        <time>2022-01-14T10:32:16Z</time>
      </trkpt>
      <trkpt lat="44.99655" lon="6.44901">
        <ele>2489.2</ele>
        <time>2022-01-14T10:32:17Z</time>
      </trkpt>
      <trkpt lat="44.99655" lon="6.44901">
        <ele>2491.4</ele>
        <time>2022-01-14T10:32:18Z</time>
      </trkpt>
      <trkpt lat="44.99656" lon="6.44901">
        <ele>2491.4</ele>
        <time>2022-01-14T10:32:19Z</time>
      </trkpt>
      <trkpt lat="44.99656" lon="6.44901">
        <ele>2491.4</ele>
        <time>2022-01-14T10:32:20Z</time>
      </trkpt>
      <trkpt lat="44.99657" lon="6.44901">
        <ele>2491.4</ele>
        <time>2022-01-14T10:32:21Z</time>
      </trkpt>
      <trkpt lat="44.99657" lon="6.44901">
        <ele>2491.4</ele>
        <time>2022-01-14T10:32:22Z</time>
      </trkpt>
      <trkpt lat="44.99658" lon="6.44901">
        <ele>2491.4</ele>
        <time>2022-01-14T10:32:23Z</time>
      </trkpt>
      <trkpt lat="44.99658" lon="6.44901">
        <ele>2493.8</ele>
        <time>2022-01-14T10:32:24Z</time>
      </trkpt>
      <trkpt lat="44.99658" lon="6.44901">
        <ele>2493.8</ele>
        <time>2022-01-14T10:32:25Z</time>
      </trkpt>
      <trkpt lat="44.99659" lon="6.44899">
        <ele>2493.8</ele>
        <time>2022-01-14T10:32:26Z</time>
      </trkpt>
      <trkpt lat="44.99659" lon="6.44899">
        <ele>2493.8</ele>
        <time>2022-01-14T10:32:27Z</time>
      </trkpt>
      <trkpt lat="44.99659" lon="6.44898">
        <ele>2493.8</ele>
        <time>2022-01-14T10:32:28Z</time>
      </trkpt>
      <trkpt lat="44.99659" lon="6.44898">
        <ele>2493.8</ele>
        <time>2022-01-14T10:32:29Z</time>
      </trkpt>
      <trkpt lat="44.9966" lon="6.44897">
        <ele>2497.5</ele>
        <time>2022-01-14T10:32:30Z</time>
      </trkpt>
      <trkpt lat="44.9966" lon="6.44897">
        <ele>2497.5</ele>
        <time>2022-01-14T10:32:31Z</time>
      </trkpt>
      <trkpt lat="44.9966" lon="6.44896">
        <ele>2497.5</ele>
        <time>2022-01-14T10:32:32Z</time>
      </trkpt>
      <trkpt lat="44.9966" lon="6.44896">
        <ele>2497.5</ele>
        <time>2022-01-14T10:32:33Z</time>
      </trkpt>
      <trkpt lat="44.9966" lon="6.44895">
        <ele>2497.5</ele>
        <time>2022-01-14T10:32:34Z</time>
      </trkpt>
      <trkpt lat="44.9966" lon="6.44895">
        <ele>2497.5</ele>
        <time>2022-01-14T10:32:35Z</time>
      </trkpt>
      <trkpt lat="44.9966" lon="6.44894">
        <ele>2497.5</ele>
        <time>2022-01-14T10:32:36Z</time>
      </trkpt>
      <trkpt lat="44.99661" lon="6.44893">
        <ele>2499.9</ele>
        <time>2022-01-14T10:32:37Z</time>
      </trkpt>
      <trkpt lat="44.99662" lon="6.44892">
        <ele>2502.4</ele>
        <time>2022-01-14T10:32:38Z</time>
      </trkpt>
      <trkpt lat="44.99662" lon="6.4489">
        <ele>2502.4</ele>
        <time>2022-01-14T10:32:39Z</time>
      </trkpt>
      <trkpt lat="44.99662" lon="6.44889">
        <ele>2502.4</ele>
        <time>2022-01-14T10:32:40Z</time>
      </trkpt>
      <trkpt lat="44.99663" lon="6.44889">
        <ele>2504.1</ele>
        <time>2022-01-14T10:32:41Z</time>
      </trkpt>
      <trkpt lat="44.99663" lon="6.44889">
        <ele>2504.1</ele>
        <time>2022-01-14T10:32:42Z</time>
      </trkpt>
      <trkpt lat="44.99663" lon="6.44888">
        <ele>2504.1</ele>
        <time>2022-01-14T10:32:43Z</time>
      </trkpt>
      <trkpt lat="44.99664" lon="6.44886">
        <ele>2504.1</ele>
        <time>2022-01-14T10:32:44Z</time>
      </trkpt>
      <trkpt lat="44.99664" lon="6.44886">
        <ele>2504.1</ele>
        <time>2022-01-14T10:32:45Z</time>
      </trkpt>
      <trkpt lat="44.99665" lon="6.44886">
        <ele>2506.6</ele>
        <time>2022-01-14T10:32:46Z</time>
      </trkpt>
      <trkpt lat="44.99665" lon="6.44885">
        <ele>2506.6</ele>
        <time>2022-01-14T10:32:47Z</time>
      </trkpt>
      <trkpt lat="44.99665" lon="6.44884">
        <ele>2508.1</ele>
        <time>2022-01-14T10:32:48Z</time>
      </trkpt>
      <trkpt lat="44.99665" lon="6.44884">
        <ele>2508.1</ele>
        <time>2022-01-14T10:32:49Z</time>
      </trkpt>
      <trkpt lat="44.99665" lon="6.44882">
        <ele>2508.1</ele>
        <time>2022-01-14T10:32:50Z</time>
      </trkpt>
      <trkpt lat="44.99666" lon="6.44881">
        <ele>2508.1</ele>
        <time>2022-01-14T10:32:51Z</time>
      </trkpt>
      <trkpt lat="44.99666" lon="6.4488">
        <ele>2508.1</ele>
        <time>2022-01-14T10:32:52Z</time>
      </trkpt>
      <trkpt lat="44.99667" lon="6.44881">
        <ele>2508.1</ele>
        <time>2022-01-14T10:32:53Z</time>
      </trkpt>
      <trkpt lat="44.99667" lon="6.4488">
        <ele>2508.1</ele>
        <time>2022-01-14T10:32:54Z</time>
      </trkpt>
      <trkpt lat="44.99667" lon="6.4488">
        <ele>2509.6</ele>
        <time>2022-01-14T10:32:55Z</time>
      </trkpt>
      <trkpt lat="44.99667" lon="6.44879">
        <ele>2509.6</ele>
        <time>2022-01-14T10:32:56Z</time>
      </trkpt>
      <trkpt lat="44.99667" lon="6.44879">
        <ele>2511.2</ele>
        <time>2022-01-14T10:32:57Z</time>
      </trkpt>
      <trkpt lat="44.99667" lon="6.44879">
        <ele>2509.6</ele>
        <time>2022-01-14T10:32:58Z</time>
      </trkpt>
      <trkpt lat="44.99667" lon="6.44878">
        <ele>2509.6</ele>
        <time>2022-01-14T10:32:59Z</time>
      </trkpt>
      <trkpt lat="44.99667" lon="6.44877">
        <ele>2509.6</ele>
        <time>2022-01-14T10:33:00Z</time>
      </trkpt>
      <trkpt lat="44.99667" lon="6.44876">
        <ele>2512.6</ele>
        <time>2022-01-14T10:33:01Z</time>
      </trkpt>
      <trkpt lat="44.99667" lon="6.44875">
        <ele>2511.1</ele>
        <time>2022-01-14T10:33:02Z</time>
      </trkpt>
      <trkpt lat="44.99667" lon="6.44875">
        <ele>2511.1</ele>
        <time>2022-01-14T10:33:03Z</time>
      </trkpt>
      <trkpt lat="44.99667" lon="6.44874">
        <ele>2511.1</ele>
        <time>2022-01-14T10:33:04Z</time>
      </trkpt>
      <trkpt lat="44.99667" lon="6.44874">
        <ele>2511.1</ele>
        <time>2022-01-14T10:33:05Z</time>
      </trkpt>
      <trkpt lat="44.99667" lon="6.44874">
        <ele>2511.1</ele>
        <time>2022-01-14T10:33:06Z</time>
      </trkpt>
      <trkpt lat="44.99667" lon="6.44875">
        <ele>2511.1</ele>
        <time>2022-01-14T10:33:07Z</time>
      </trkpt>
      <trkpt lat="44.99667" lon="6.44876">
        <ele>2511.1</ele>
        <time>2022-01-14T10:33:08Z</time>
      </trkpt>
      <trkpt lat="44.99667" lon="6.44876">
        <ele>2511.1</ele>
        <time>2022-01-14T10:33:09Z</time>
      </trkpt>
      <trkpt lat="44.99667" lon="6.44875">
        <ele>2511.1</ele>
        <time>2022-01-14T10:33:10Z</time>
      </trkpt>
      <trkpt lat="44.99666" lon="6.44875">
        <ele>2511.1</ele>
        <time>2022-01-14T10:33:11Z</time>
      </trkpt>
      <trkpt lat="44.99666" lon="6.44875">
        <ele>2511.1</ele>
        <time>2022-01-14T10:33:12Z</time>
      </trkpt>
      <trkpt lat="44.99666" lon="6.44875">
        <ele>2511.1</ele>
        <time>2022-01-14T10:33:13Z</time>
      </trkpt>
      <trkpt lat="44.99666" lon="6.44874">
        <ele>2511.1</ele>
        <time>2022-01-14T10:33:14Z</time>
      </trkpt>
      <trkpt lat="44.99666" lon="6.44874">
        <ele>2511.1</ele>
        <time>2022-01-14T10:33:15Z</time>
      </trkpt>
      <trkpt lat="44.99666" lon="6.44874">
        <ele>2511.1</ele>
        <time>2022-01-14T10:33:16Z</time>
      </trkpt>
      <trkpt lat="44.99665" lon="6.44873">
        <ele>2511.1</ele>
        <time>2022-01-14T10:33:17Z</time>
      </trkpt>
      <trkpt lat="44.99666" lon="6.44874">
        <ele>2511.1</ele>
        <time>2022-01-14T10:33:18Z</time>
      </trkpt>
      <trkpt lat="44.99666" lon="6.44874">
        <ele>2511.1</ele>
        <time>2022-01-14T10:33:19Z</time>
      </trkpt>
      <trkpt lat="44.99667" lon="6.44874">
        <ele>2511.1</ele>
        <time>2022-01-14T10:33:20Z</time>
      </trkpt>
      <trkpt lat="44.99667" lon="6.44872">
        <ele>2511.1</ele>
        <time>2022-01-14T10:33:21Z</time>
      </trkpt>
      <trkpt lat="44.99666" lon="6.44872">
        <ele>2511.1</ele>
        <time>2022-01-14T10:33:22Z</time>
      </trkpt>
      <trkpt lat="44.99667" lon="6.44872">
        <ele>2512.3</ele>
        <time>2022-01-14T10:33:23Z</time>
      </trkpt>
      <trkpt lat="44.99666" lon="6.44871">
        <ele>2512.3</ele>
        <time>2022-01-14T10:33:24Z</time>
      </trkpt>
      <trkpt lat="44.99665" lon="6.44871">
        <ele>2512.3</ele>
        <time>2022-01-14T10:33:25Z</time>
      </trkpt>
      <trkpt lat="44.99665" lon="6.4487">
        <ele>2512.3</ele>
        <time>2022-01-14T10:33:26Z</time>
      </trkpt>
      <trkpt lat="44.99665" lon="6.4487">
        <ele>2512.3</ele>
        <time>2022-01-14T10:33:27Z</time>
      </trkpt>
      <trkpt lat="44.99665" lon="6.4487">
        <ele>2512.3</ele>
        <time>2022-01-14T10:33:28Z</time>
      </trkpt>
      <trkpt lat="44.99665" lon="6.44871">
        <ele>2512.3</ele>
        <time>2022-01-14T10:33:29Z</time>
      </trkpt>
      <trkpt lat="44.99665" lon="6.44871">
        <ele>2512.3</ele>
        <time>2022-01-14T10:33:30Z</time>
      </trkpt>
      <trkpt lat="44.99665" lon="6.44871">
        <ele>2512.3</ele>
        <time>2022-01-14T10:33:31Z</time>
      </trkpt>
      <trkpt lat="44.99665" lon="6.44871">
        <ele>2512.3</ele>
        <time>2022-01-14T10:33:32Z</time>
      </trkpt>
      <trkpt lat="44.99665" lon="6.4487">
        <ele>2512.3</ele>
        <time>2022-01-14T10:33:33Z</time>
      </trkpt>
      <trkpt lat="44.99664" lon="6.4487">
        <ele>2512.3</ele>
        <time>2022-01-14T10:33:34Z</time>
      </trkpt>
      <trkpt lat="44.99664" lon="6.4487">
        <ele>2512.3</ele>
        <time>2022-01-14T10:33:35Z</time>
      </trkpt>
      <trkpt lat="44.99664" lon="6.4487">
        <ele>2510.2</ele>
        <time>2022-01-14T10:33:36Z</time>
      </trkpt>
      <trkpt lat="44.99664" lon="6.4487">
        <ele>2512.3</ele>
        <time>2022-01-14T10:33:37Z</time>
      </trkpt>
      <trkpt lat="44.99664" lon="6.4487">
        <ele>2512.3</ele>
        <time>2022-01-14T10:33:38Z</time>
      </trkpt>
      <trkpt lat="44.99664" lon="6.4487">
        <ele>2510.2</ele>
        <time>2022-01-14T10:33:39Z</time>
      </trkpt>
      <trkpt lat="44.99664" lon="6.44872">
        <ele>2512.3</ele>
        <time>2022-01-14T10:33:40Z</time>
      </trkpt>
      <trkpt lat="44.99664" lon="6.44873">
        <ele>2508.8</ele>
        <time>2022-01-14T10:33:41Z</time>
      </trkpt>
      <trkpt lat="44.99664" lon="6.44873">
        <ele>2508.8</ele>
        <time>2022-01-14T10:33:42Z</time>
      </trkpt>
      <trkpt lat="44.99662" lon="6.44874">
        <ele>2508.8</ele>
        <time>2022-01-14T10:33:43Z</time>
      </trkpt>
      <trkpt lat="44.99661" lon="6.44875">
        <ele>2508.8</ele>
        <time>2022-01-14T10:33:44Z</time>
      </trkpt>
      <trkpt lat="44.9966" lon="6.44875">
        <ele>2506.6</ele>
        <time>2022-01-14T10:33:45Z</time>
      </trkpt>
      <trkpt lat="44.9966" lon="6.44874">
        <ele>2506.6</ele>
        <time>2022-01-14T10:33:46Z</time>
      </trkpt>
      <trkpt lat="44.99659" lon="6.44874">
        <ele>2506.6</ele>
        <time>2022-01-14T10:33:47Z</time>
      </trkpt>
      <trkpt lat="44.99659" lon="6.44873">
        <ele>2506.6</ele>
        <time>2022-01-14T10:33:48Z</time>
      </trkpt>
      <trkpt lat="44.9966" lon="6.44873">
        <ele>2506.6</ele>
        <time>2022-01-14T10:33:49Z</time>
      </trkpt>
      <trkpt lat="44.9966" lon="6.44873">
        <ele>2506.6</ele>
        <time>2022-01-14T10:33:50Z</time>
      </trkpt>
      <trkpt lat="44.9966" lon="6.44873">
        <ele>2506.6</ele>
        <time>2022-01-14T10:33:51Z</time>
      </trkpt>
      <trkpt lat="44.9966" lon="6.44873">
        <ele>2506.6</ele>
        <time>2022-01-14T10:33:52Z</time>
      </trkpt>
      <trkpt lat="44.9966" lon="6.44873">
        <ele>2506.6</ele>
        <time>2022-01-14T10:33:53Z</time>
      </trkpt>
      <trkpt lat="44.9966" lon="6.44873">
        <ele>2506.6</ele>
        <time>2022-01-14T10:33:54Z</time>
      </trkpt>
      <trkpt lat="44.99661" lon="6.44872">
        <ele>2506.6</ele>
        <time>2022-01-14T10:33:55Z</time>
      </trkpt>
      <trkpt lat="44.99661" lon="6.44872">
        <ele>2508.8</ele>
        <time>2022-01-14T10:33:56Z</time>
      </trkpt>
      <trkpt lat="44.99662" lon="6.44872">
        <ele>2508.8</ele>
        <time>2022-01-14T10:33:57Z</time>
      </trkpt>
      <trkpt lat="44.99662" lon="6.44872">
        <ele>2510.2</ele>
        <time>2022-01-14T10:33:58Z</time>
      </trkpt>
      <trkpt lat="44.99662" lon="6.44871">
        <ele>2510.2</ele>
        <time>2022-01-14T10:33:59Z</time>
      </trkpt>
      <trkpt lat="44.99663" lon="6.44871">
        <ele>2510.2</ele>
        <time>2022-01-14T10:34:00Z</time>
      </trkpt>
      <trkpt lat="44.99663" lon="6.44871">
        <ele>2510.2</ele>
        <time>2022-01-14T10:34:01Z</time>
      </trkpt>
      <trkpt lat="44.99664" lon="6.44872">
        <ele>2508.8</ele>
        <time>2022-01-14T10:34:02Z</time>
      </trkpt>
      <trkpt lat="44.99664" lon="6.44874">
        <ele>2508.8</ele>
        <time>2022-01-14T10:34:03Z</time>
      </trkpt>
      <trkpt lat="44.99664" lon="6.44874">
        <ele>2508.8</ele>
        <time>2022-01-14T10:34:04Z</time>
      </trkpt>
      <trkpt lat="44.99664" lon="6.44875">
        <ele>2508.8</ele>
        <time>2022-01-14T10:34:05Z</time>
      </trkpt>
      <trkpt lat="44.99664" lon="6.44875">
        <ele>2511.1</ele>
        <time>2022-01-14T10:34:06Z</time>
      </trkpt>
      <trkpt lat="44.99666" lon="6.44877">
        <ele>2509.6</ele>
        <time>2022-01-14T10:34:07Z</time>
      </trkpt>
      <trkpt lat="44.99666" lon="6.44876">
        <ele>2509.6</ele>
        <time>2022-01-14T10:34:08Z</time>
      </trkpt>
      <trkpt lat="44.99666" lon="6.44877">
        <ele>2509.6</ele>
        <time>2022-01-14T10:34:09Z</time>
      </trkpt>
      <trkpt lat="44.99667" lon="6.44877">
        <ele>2509.6</ele>
        <time>2022-01-14T10:34:10Z</time>
      </trkpt>
      <trkpt lat="44.99667" lon="6.44876">
        <ele>2511.2</ele>
        <time>2022-01-14T10:34:11Z</time>
      </trkpt>
      <trkpt lat="44.99668" lon="6.44876">
        <ele>2511.2</ele>
        <time>2022-01-14T10:34:12Z</time>
      </trkpt>
      <trkpt lat="44.99668" lon="6.44876">
        <ele>2511.2</ele>
        <time>2022-01-14T10:34:13Z</time>
      </trkpt>
      <trkpt lat="44.99668" lon="6.44876">
        <ele>2511.2</ele>
        <time>2022-01-14T10:34:14Z</time>
      </trkpt>
      <trkpt lat="44.99668" lon="6.44877">
        <ele>2511.2</ele>
        <time>2022-01-14T10:34:15Z</time>
      </trkpt>
      <trkpt lat="44.99667" lon="6.44878">
        <ele>2509.6</ele>
        <time>2022-01-14T10:34:16Z</time>
      </trkpt>
      <trkpt lat="44.99667" lon="6.44879">
        <ele>2509.6</ele>
        <time>2022-01-14T10:34:17Z</time>
      </trkpt>
      <trkpt lat="44.99667" lon="6.44879">
        <ele>2511.2</ele>
        <time>2022-01-14T10:34:18Z</time>
      </trkpt>
      <trkpt lat="44.99668" lon="6.44879">
        <ele>2511.2</ele>
        <time>2022-01-14T10:34:19Z</time>
      </trkpt>
      <trkpt lat="44.99668" lon="6.44879">
        <ele>2511.2</ele>
        <time>2022-01-14T10:34:20Z</time>
      </trkpt>
      <trkpt lat="44.99669" lon="6.44879">
        <ele>2511.2</ele>
        <time>2022-01-14T10:34:21Z</time>
      </trkpt>
      <trkpt lat="44.99669" lon="6.44879">
        <ele>2511.2</ele>
        <time>2022-01-14T10:34:22Z</time>
      </trkpt>
      <trkpt lat="44.99669" lon="6.4488">
        <ele>2511.2</ele>
        <time>2022-01-14T10:34:23Z</time>
      </trkpt>
      <trkpt lat="44.99669" lon="6.4488">
        <ele>2509.8</ele>
        <time>2022-01-14T10:34:24Z</time>
      </trkpt>
      <trkpt lat="44.9967" lon="6.44881">
        <ele>2509.8</ele>
        <time>2022-01-14T10:34:25Z</time>
      </trkpt>
      <trkpt lat="44.9967" lon="6.44881">
        <ele>2509.8</ele>
        <time>2022-01-14T10:34:26Z</time>
      </trkpt>
      <trkpt lat="44.9967" lon="6.4488">
        <ele>2509.8</ele>
        <time>2022-01-14T10:34:27Z</time>
      </trkpt>
      <trkpt lat="44.9967" lon="6.4488">
        <ele>2511.2</ele>
        <time>2022-01-14T10:34:28Z</time>
      </trkpt>
      <trkpt lat="44.9967" lon="6.4488">
        <ele>2512.6</ele>
        <time>2022-01-14T10:34:29Z</time>
      </trkpt>
      <trkpt lat="44.9967" lon="6.4488">
        <ele>2511.3</ele>
        <time>2022-01-14T10:34:30Z</time>
      </trkpt>
      <trkpt lat="44.99671" lon="6.44881">
        <ele>2511.3</ele>
        <time>2022-01-14T10:34:31Z</time>
      </trkpt>
      <trkpt lat="44.9967" lon="6.44881">
        <ele>2509.8</ele>
        <time>2022-01-14T10:34:32Z</time>
      </trkpt>
      <trkpt lat="44.9967" lon="6.44881">
        <ele>2509.8</ele>
        <time>2022-01-14T10:34:33Z</time>
      </trkpt>
      <trkpt lat="44.9967" lon="6.44882">
        <ele>2509.8</ele>
        <time>2022-01-14T10:34:34Z</time>
      </trkpt>
      <trkpt lat="44.9967" lon="6.44882">
        <ele>2509.8</ele>
        <time>2022-01-14T10:34:35Z</time>
      </trkpt>
      <trkpt lat="44.9967" lon="6.44883">
        <ele>2509.8</ele>
        <time>2022-01-14T10:34:36Z</time>
      </trkpt>
      <trkpt lat="44.9967" lon="6.44883">
        <ele>2509.8</ele>
        <time>2022-01-14T10:34:37Z</time>
      </trkpt>
      <trkpt lat="44.9967" lon="6.44882">
        <ele>2509.8</ele>
        <time>2022-01-14T10:34:38Z</time>
      </trkpt>
      <trkpt lat="44.99671" lon="6.44882">
        <ele>2511.3</ele>
        <time>2022-01-14T10:34:39Z</time>
      </trkpt>
      <trkpt lat="44.99671" lon="6.44883">
        <ele>2511.3</ele>
        <time>2022-01-14T10:34:40Z</time>
      </trkpt>
      <trkpt lat="44.99672" lon="6.44884">
        <ele>2511.3</ele>
        <time>2022-01-14T10:34:41Z</time>
      </trkpt>
      <trkpt lat="44.99672" lon="6.44884">
        <ele>2511.3</ele>
        <time>2022-01-14T10:34:42Z</time>
      </trkpt>
      <trkpt lat="44.99672" lon="6.44885">
        <ele>2510.1</ele>
        <time>2022-01-14T10:34:43Z</time>
      </trkpt>
      <trkpt lat="44.99672" lon="6.44885">
        <ele>2510.1</ele>
        <time>2022-01-14T10:34:44Z</time>
      </trkpt>
      <trkpt lat="44.99673" lon="6.44885">
        <ele>2510.1</ele>
        <time>2022-01-14T10:34:45Z</time>
      </trkpt>
      <trkpt lat="44.99674" lon="6.44885">
        <ele>2511.7</ele>
        <time>2022-01-14T10:34:46Z</time>
      </trkpt>
      <trkpt lat="44.99674" lon="6.44886">
        <ele>2511.7</ele>
        <time>2022-01-14T10:34:47Z</time>
      </trkpt>
      <trkpt lat="44.99675" lon="6.44886">
        <ele>2511.7</ele>
        <time>2022-01-14T10:34:48Z</time>
      </trkpt>
      <trkpt lat="44.99675" lon="6.44887">
        <ele>2511.7</ele>
        <time>2022-01-14T10:34:49Z</time>
      </trkpt>
      <trkpt lat="44.99676" lon="6.44887">
        <ele>2511.7</ele>
        <time>2022-01-14T10:34:50Z</time>
      </trkpt>
      <trkpt lat="44.99676" lon="6.44887">
        <ele>2511.7</ele>
        <time>2022-01-14T10:34:51Z</time>
      </trkpt>
      <trkpt lat="44.99676" lon="6.44886">
        <ele>2511.7</ele>
        <time>2022-01-14T10:34:52Z</time>
      </trkpt>
      <trkpt lat="44.99676" lon="6.44887">
        <ele>2511.7</ele>
        <time>2022-01-14T10:34:53Z</time>
      </trkpt>
      <trkpt lat="44.99676" lon="6.44887">
        <ele>2511.7</ele>
        <time>2022-01-14T10:34:54Z</time>
      </trkpt>
      <trkpt lat="44.99675" lon="6.44886">
        <ele>2511.7</ele>
        <time>2022-01-14T10:34:55Z</time>
      </trkpt>
      <trkpt lat="44.99675" lon="6.44887">
        <ele>2511.7</ele>
        <time>2022-01-14T10:34:56Z</time>
      </trkpt>
      <trkpt lat="44.99675" lon="6.44887">
        <ele>2511.7</ele>
        <time>2022-01-14T10:34:57Z</time>
      </trkpt>
      <trkpt lat="44.99675" lon="6.44886">
        <ele>2511.7</ele>
        <time>2022-01-14T10:34:58Z</time>
      </trkpt>
      <trkpt lat="44.99675" lon="6.44886">
        <ele>2511.7</ele>
        <time>2022-01-14T10:34:59Z</time>
      </trkpt>
      <trkpt lat="44.99674" lon="6.44887">
        <ele>2511.7</ele>
        <time>2022-01-14T10:35:00Z</time>
      </trkpt>
      <trkpt lat="44.99674" lon="6.44888">
        <ele>2511.7</ele>
        <time>2022-01-14T10:35:01Z</time>
      </trkpt>
      <trkpt lat="44.99674" lon="6.44888">
        <ele>2511.7</ele>
        <time>2022-01-14T10:35:02Z</time>
      </trkpt>
      <trkpt lat="44.99674" lon="6.44888">
        <ele>2511.7</ele>
        <time>2022-01-14T10:35:03Z</time>
      </trkpt>
      <trkpt lat="44.99674" lon="6.44889">
        <ele>2511.7</ele>
        <time>2022-01-14T10:35:04Z</time>
      </trkpt>
      <trkpt lat="44.99674" lon="6.44888">
        <ele>2511.7</ele>
        <time>2022-01-14T10:35:05Z</time>
      </trkpt>
      <trkpt lat="44.99674" lon="6.44887">
        <ele>2511.7</ele>
        <time>2022-01-14T10:35:06Z</time>
      </trkpt>
      <trkpt lat="44.99674" lon="6.44887">
        <ele>2511.7</ele>
        <time>2022-01-14T10:35:07Z</time>
      </trkpt>
      <trkpt lat="44.99674" lon="6.44887">
        <ele>2511.7</ele>
        <time>2022-01-14T10:35:08Z</time>
      </trkpt>
      <trkpt lat="44.99674" lon="6.44887">
        <ele>2511.7</ele>
        <time>2022-01-14T10:35:09Z</time>
      </trkpt>
      <trkpt lat="44.99674" lon="6.44885">
        <ele>2511.7</ele>
        <time>2022-01-14T10:35:10Z</time>
      </trkpt>
      <trkpt lat="44.99675" lon="6.44884">
        <ele>2512.9</ele>
        <time>2022-01-14T10:35:11Z</time>
      </trkpt>
      <trkpt lat="44.99675" lon="6.44884">
        <ele>2512.9</ele>
        <time>2022-01-14T10:35:12Z</time>
      </trkpt>
      <trkpt lat="44.99674" lon="6.44883">
        <ele>2512.9</ele>
        <time>2022-01-14T10:35:13Z</time>
      </trkpt>
      <trkpt lat="44.99674" lon="6.44881">
        <ele>2512.9</ele>
        <time>2022-01-14T10:35:14Z</time>
      </trkpt>
      <trkpt lat="44.99675" lon="6.44879">
        <ele>2514</ele>
        <time>2022-01-14T10:35:15Z</time>
      </trkpt>
      <trkpt lat="44.99674" lon="6.44879">
        <ele>2514</ele>
        <time>2022-01-14T10:35:16Z</time>
      </trkpt>
      <trkpt lat="44.99675" lon="6.44878">
        <ele>2514</ele>
        <time>2022-01-14T10:35:17Z</time>
      </trkpt>
      <trkpt lat="44.99675" lon="6.44878">
        <ele>2514</ele>
        <time>2022-01-14T10:35:18Z</time>
      </trkpt>
      <trkpt lat="44.99676" lon="6.44876">
        <ele>2514</ele>
        <time>2022-01-14T10:35:19Z</time>
      </trkpt>
      <trkpt lat="44.99676" lon="6.44876">
        <ele>2514</ele>
        <time>2022-01-14T10:35:20Z</time>
      </trkpt>
      <trkpt lat="44.99676" lon="6.44875">
        <ele>2515.2</ele>
        <time>2022-01-14T10:35:21Z</time>
      </trkpt>
      <trkpt lat="44.99676" lon="6.44873">
        <ele>2515.2</ele>
        <time>2022-01-14T10:35:22Z</time>
      </trkpt>
      <trkpt lat="44.99676" lon="6.44873">
        <ele>2515.2</ele>
        <time>2022-01-14T10:35:23Z</time>
      </trkpt>
      <trkpt lat="44.99676" lon="6.44873">
        <ele>2515.2</ele>
        <time>2022-01-14T10:35:24Z</time>
      </trkpt>
      <trkpt lat="44.99676" lon="6.44872">
        <ele>2515.2</ele>
        <time>2022-01-14T10:35:25Z</time>
      </trkpt>
      <trkpt lat="44.99676" lon="6.44872">
        <ele>2515.2</ele>
        <time>2022-01-14T10:35:26Z</time>
      </trkpt>
      <trkpt lat="44.99676" lon="6.44872">
        <ele>2515.8</ele>
        <time>2022-01-14T10:35:27Z</time>
      </trkpt>
      <trkpt lat="44.99676" lon="6.44871">
        <ele>2515.8</ele>
        <time>2022-01-14T10:35:28Z</time>
      </trkpt>
      <trkpt lat="44.99676" lon="6.44871">
        <ele>2515.8</ele>
        <time>2022-01-14T10:35:29Z</time>
      </trkpt>
      <trkpt lat="44.99676" lon="6.44871">
        <ele>2515.8</ele>
        <time>2022-01-14T10:35:30Z</time>
      </trkpt>
      <trkpt lat="44.99676" lon="6.4487">
        <ele>2515.8</ele>
        <time>2022-01-14T10:35:31Z</time>
      </trkpt>
      <trkpt lat="44.99676" lon="6.4487">
        <ele>2515.8</ele>
        <time>2022-01-14T10:35:32Z</time>
      </trkpt>
      <trkpt lat="44.99676" lon="6.4487">
        <ele>2515.8</ele>
        <time>2022-01-14T10:35:33Z</time>
      </trkpt>
      <trkpt lat="44.99676" lon="6.4487">
        <ele>2515.8</ele>
        <time>2022-01-14T10:35:34Z</time>
      </trkpt>
      <trkpt lat="44.99676" lon="6.4487">
        <ele>2515.8</ele>
        <time>2022-01-14T10:35:35Z</time>
      </trkpt>
      <trkpt lat="44.99676" lon="6.4487">
        <ele>2515.8</ele>
        <time>2022-01-14T10:35:36Z</time>
      </trkpt>
      <trkpt lat="44.99676" lon="6.4487">
        <ele>2515.8</ele>
        <time>2022-01-14T10:35:37Z</time>
      </trkpt>
      <trkpt lat="44.99676" lon="6.44869">
        <ele>2515.8</ele>
        <time>2022-01-14T10:35:38Z</time>
      </trkpt>
      <trkpt lat="44.99676" lon="6.44868">
        <ele>2515.8</ele>
        <time>2022-01-14T10:35:39Z</time>
      </trkpt>
      <trkpt lat="44.99675" lon="6.44867">
        <ele>2516.3</ele>
        <time>2022-01-14T10:35:40Z</time>
      </trkpt>
      <trkpt lat="44.99675" lon="6.44867">
        <ele>2516.3</ele>
        <time>2022-01-14T10:35:41Z</time>
      </trkpt>
      <trkpt lat="44.99675" lon="6.44867">
        <ele>2516.3</ele>
        <time>2022-01-14T10:35:42Z</time>
      </trkpt>
      <trkpt lat="44.99675" lon="6.44867">
        <ele>2516.3</ele>
        <time>2022-01-14T10:35:43Z</time>
      </trkpt>
      <trkpt lat="44.99675" lon="6.44868">
        <ele>2515.8</ele>
        <time>2022-01-14T10:35:44Z</time>
      </trkpt>
      <trkpt lat="44.99675" lon="6.44868">
        <ele>2515.8</ele>
        <time>2022-01-14T10:35:45Z</time>
      </trkpt>
      <trkpt lat="44.99675" lon="6.44867">
        <ele>2516.3</ele>
        <time>2022-01-14T10:35:46Z</time>
      </trkpt>
      <trkpt lat="44.99674" lon="6.44866">
        <ele>2516.3</ele>
        <time>2022-01-14T10:35:47Z</time>
      </trkpt>
      <trkpt lat="44.99674" lon="6.44865">
        <ele>2516.3</ele>
        <time>2022-01-14T10:35:48Z</time>
      </trkpt>
      <trkpt lat="44.99673" lon="6.44865">
        <ele>2515.4</ele>
        <time>2022-01-14T10:35:49Z</time>
      </trkpt>
      <trkpt lat="44.99673" lon="6.44863">
        <ele>2516</ele>
        <time>2022-01-14T10:35:50Z</time>
      </trkpt>
      <trkpt lat="44.99673" lon="6.44863">
        <ele>2516</ele>
        <time>2022-01-14T10:35:51Z</time>
      </trkpt>
      <trkpt lat="44.99673" lon="6.44863">
        <ele>2516</ele>
        <time>2022-01-14T10:35:52Z</time>
      </trkpt>
      <trkpt lat="44.99672" lon="6.44862">
        <ele>2516</ele>
        <time>2022-01-14T10:35:53Z</time>
      </trkpt>
      <trkpt lat="44.99673" lon="6.44864">
        <ele>2515.4</ele>
        <time>2022-01-14T10:35:54Z</time>
      </trkpt>
      <trkpt lat="44.99673" lon="6.44866">
        <ele>2515.4</ele>
        <time>2022-01-14T10:35:55Z</time>
      </trkpt>
      <trkpt lat="44.99674" lon="6.44866">
        <ele>2516.3</ele>
        <time>2022-01-14T10:35:56Z</time>
      </trkpt>
      <trkpt lat="44.99674" lon="6.44865">
        <ele>2516.3</ele>
        <time>2022-01-14T10:35:57Z</time>
      </trkpt>
      <trkpt lat="44.99674" lon="6.44865">
        <ele>2516.3</ele>
        <time>2022-01-14T10:35:58Z</time>
      </trkpt>
      <trkpt lat="44.99674" lon="6.44864">
        <ele>2516.3</ele>
        <time>2022-01-14T10:35:59Z</time>
      </trkpt>
      <trkpt lat="44.99673" lon="6.44865">
        <ele>2515.4</ele>
        <time>2022-01-14T10:36:00Z</time>
      </trkpt>
      <trkpt lat="44.99673" lon="6.44864">
        <ele>2516.3</ele>
        <time>2022-01-14T10:36:01Z</time>
      </trkpt>
      <trkpt lat="44.99673" lon="6.44864">
        <ele>2516.3</ele>
        <time>2022-01-14T10:36:02Z</time>
      </trkpt>
      <trkpt lat="44.99674" lon="6.44862">
        <ele>2516.8</ele>
        <time>2022-01-14T10:36:03Z</time>
      </trkpt>
      <trkpt lat="44.99674" lon="6.44863">
        <ele>2516.8</ele>
        <time>2022-01-14T10:36:04Z</time>
      </trkpt>
      <trkpt lat="44.99674" lon="6.44863">
        <ele>2516.8</ele>
        <time>2022-01-14T10:36:05Z</time>
      </trkpt>
      <trkpt lat="44.99674" lon="6.44862">
        <ele>2516.8</ele>
        <time>2022-01-14T10:36:06Z</time>
      </trkpt>
      <trkpt lat="44.99674" lon="6.44862">
        <ele>2516.8</ele>
        <time>2022-01-14T10:36:07Z</time>
      </trkpt>
      <trkpt lat="44.99674" lon="6.44862">
        <ele>2516.8</ele>
        <time>2022-01-14T10:36:08Z</time>
      </trkpt>
      <trkpt lat="44.99674" lon="6.44862">
        <ele>2516.8</ele>
        <time>2022-01-14T10:36:09Z</time>
      </trkpt>
      <trkpt lat="44.99674" lon="6.44862">
        <ele>2516.8</ele>
        <time>2022-01-14T10:36:10Z</time>
      </trkpt>
      <trkpt lat="44.99674" lon="6.44862">
        <ele>2516.8</ele>
        <time>2022-01-14T10:36:11Z</time>
      </trkpt>
      <trkpt lat="44.99674" lon="6.44862">
        <ele>2516.8</ele>
        <time>2022-01-14T10:36:12Z</time>
      </trkpt>
      <trkpt lat="44.99674" lon="6.44861">
        <ele>2516.8</ele>
        <time>2022-01-14T10:36:13Z</time>
      </trkpt>
      <trkpt lat="44.99673" lon="6.44861">
        <ele>2516.8</ele>
        <time>2022-01-14T10:36:14Z</time>
      </trkpt>
      <trkpt lat="44.99674" lon="6.44861">
        <ele>2516.8</ele>
        <time>2022-01-14T10:36:15Z</time>
      </trkpt>
      <trkpt lat="44.99673" lon="6.4486">
        <ele>2516</ele>
        <time>2022-01-14T10:36:16Z</time>
      </trkpt>
      <trkpt lat="44.99673" lon="6.4486">
        <ele>2516</ele>
        <time>2022-01-14T10:36:17Z</time>
      </trkpt>
      <trkpt lat="44.99673" lon="6.44859">
        <ele>2517.3</ele>
        <time>2022-01-14T10:36:18Z</time>
      </trkpt>
      <trkpt lat="44.99673" lon="6.44859">
        <ele>2517.3</ele>
        <time>2022-01-14T10:36:19Z</time>
      </trkpt>
      <trkpt lat="44.99673" lon="6.44859">
        <ele>2516.7</ele>
        <time>2022-01-14T10:36:20Z</time>
      </trkpt>
      <trkpt lat="44.99674" lon="6.44857">
        <ele>2517.3</ele>
        <time>2022-01-14T10:36:21Z</time>
      </trkpt>
      <trkpt lat="44.99674" lon="6.44857">
        <ele>2517.3</ele>
        <time>2022-01-14T10:36:22Z</time>
      </trkpt>
      <trkpt lat="44.99675" lon="6.44856">
        <ele>2517.3</ele>
        <time>2022-01-14T10:36:23Z</time>
      </trkpt>
      <trkpt lat="44.99674" lon="6.44856">
        <ele>2517.3</ele>
        <time>2022-01-14T10:36:24Z</time>
      </trkpt>
      <trkpt lat="44.99674" lon="6.44856">
        <ele>2517.3</ele>
        <time>2022-01-14T10:36:25Z</time>
      </trkpt>
      <trkpt lat="44.99675" lon="6.44855">
        <ele>2517.3</ele>
        <time>2022-01-14T10:36:26Z</time>
      </trkpt>
      <trkpt lat="44.99675" lon="6.44854">
        <ele>2517.7</ele>
        <time>2022-01-14T10:36:27Z</time>
      </trkpt>
      <trkpt lat="44.99675" lon="6.44853">
        <ele>2517.7</ele>
        <time>2022-01-14T10:36:28Z</time>
      </trkpt>
      <trkpt lat="44.99674" lon="6.44853">
        <ele>2517.7</ele>
        <time>2022-01-14T10:36:29Z</time>
      </trkpt>
      <trkpt lat="44.99674" lon="6.44853">
        <ele>2517.7</ele>
        <time>2022-01-14T10:36:30Z</time>
      </trkpt>
      <trkpt lat="44.99674" lon="6.44853">
        <ele>2517.7</ele>
        <time>2022-01-14T10:36:31Z</time>
      </trkpt>
      <trkpt lat="44.99673" lon="6.44852">
        <ele>2517.3</ele>
        <time>2022-01-14T10:36:32Z</time>
      </trkpt>
      <trkpt lat="44.99672" lon="6.44851">
        <ele>2517.3</ele>
        <time>2022-01-14T10:36:33Z</time>
      </trkpt>
      <trkpt lat="44.99672" lon="6.4485">
        <ele>2517.8</ele>
        <time>2022-01-14T10:36:34Z</time>
      </trkpt>
      <trkpt lat="44.99671" lon="6.4485">
        <ele>2517.8</ele>
        <time>2022-01-14T10:36:35Z</time>
      </trkpt>
      <trkpt lat="44.9967" lon="6.44849">
        <ele>2517.8</ele>
        <time>2022-01-14T10:36:36Z</time>
      </trkpt>
      <trkpt lat="44.9967" lon="6.4485">
        <ele>2517.5</ele>
        <time>2022-01-14T10:36:37Z</time>
      </trkpt>
      <trkpt lat="44.9967" lon="6.44849">
        <ele>2517.5</ele>
        <time>2022-01-14T10:36:38Z</time>
      </trkpt>
      <trkpt lat="44.9967" lon="6.44849">
        <ele>2517.5</ele>
        <time>2022-01-14T10:36:39Z</time>
      </trkpt>
      <trkpt lat="44.9967" lon="6.4485">
        <ele>2517.5</ele>
        <time>2022-01-14T10:36:40Z</time>
      </trkpt>
      <trkpt lat="44.99669" lon="6.4485">
        <ele>2517.5</ele>
        <time>2022-01-14T10:36:41Z</time>
      </trkpt>
      <trkpt lat="44.99669" lon="6.44849">
        <ele>2517.5</ele>
        <time>2022-01-14T10:36:42Z</time>
      </trkpt>
      <trkpt lat="44.9967" lon="6.44849">
        <ele>2517.5</ele>
        <time>2022-01-14T10:36:43Z</time>
      </trkpt>
      <trkpt lat="44.99669" lon="6.4485">
        <ele>2517.5</ele>
        <time>2022-01-14T10:36:44Z</time>
      </trkpt>
      <trkpt lat="44.99669" lon="6.4485">
        <ele>2517.5</ele>
        <time>2022-01-14T10:36:45Z</time>
      </trkpt>
      <trkpt lat="44.99669" lon="6.4485">
        <ele>2517.5</ele>
        <time>2022-01-14T10:36:46Z</time>
      </trkpt>
      <trkpt lat="44.99669" lon="6.44849">
        <ele>2517.5</ele>
        <time>2022-01-14T10:36:47Z</time>
      </trkpt>
      <trkpt lat="44.99669" lon="6.44847">
        <ele>2517.5</ele>
        <time>2022-01-14T10:36:48Z</time>
      </trkpt>
      <trkpt lat="44.99668" lon="6.44847">
        <ele>2517.5</ele>
        <time>2022-01-14T10:36:49Z</time>
      </trkpt>
      <trkpt lat="44.99667" lon="6.44847">
        <ele>2517.5</ele>
        <time>2022-01-14T10:36:50Z</time>
      </trkpt>
      <trkpt lat="44.99667" lon="6.44847">
        <ele>2517.1</ele>
        <time>2022-01-14T10:36:51Z</time>
      </trkpt>
      <trkpt lat="44.99667" lon="6.44846">
        <ele>2517.5</ele>
        <time>2022-01-14T10:36:52Z</time>
      </trkpt>
      <trkpt lat="44.99667" lon="6.44846">
        <ele>2517.5</ele>
        <time>2022-01-14T10:36:53Z</time>
      </trkpt>
      <trkpt lat="44.99668" lon="6.44845">
        <ele>2518.2</ele>
        <time>2022-01-14T10:36:54Z</time>
      </trkpt>
      <trkpt lat="44.99668" lon="6.44845">
        <ele>2518.2</ele>
        <time>2022-01-14T10:36:55Z</time>
      </trkpt>
      <trkpt lat="44.99668" lon="6.44845">
        <ele>2518.2</ele>
        <time>2022-01-14T10:36:56Z</time>
      </trkpt>
      <trkpt lat="44.99668" lon="6.44845">
        <ele>2518.2</ele>
        <time>2022-01-14T10:36:57Z</time>
      </trkpt>
      <trkpt lat="44.99668" lon="6.44845">
        <ele>2518.2</ele>
        <time>2022-01-14T10:36:58Z</time>
      </trkpt>
      <trkpt lat="44.99668" lon="6.44844">
        <ele>2518.2</ele>
        <time>2022-01-14T10:36:59Z</time>
      </trkpt>
      <trkpt lat="44.99668" lon="6.44843">
        <ele>2518.2</ele>
        <time>2022-01-14T10:37:00Z</time>
      </trkpt>
      <trkpt lat="44.99667" lon="6.44843">
        <ele>2518</ele>
        <time>2022-01-14T10:37:01Z</time>
      </trkpt>
      <trkpt lat="44.99667" lon="6.44843">
        <ele>2518</ele>
        <time>2022-01-14T10:37:02Z</time>
      </trkpt>
      <trkpt lat="44.99668" lon="6.44844">
        <ele>2518.2</ele>
        <time>2022-01-14T10:37:03Z</time>
      </trkpt>
      <trkpt lat="44.99668" lon="6.44843">
        <ele>2518.2</ele>
        <time>2022-01-14T10:37:04Z</time>
      </trkpt>
      <trkpt lat="44.99668" lon="6.44843">
        <ele>2518.2</ele>
        <time>2022-01-14T10:37:05Z</time>
      </trkpt>
      <trkpt lat="44.99668" lon="6.44843">
        <ele>2518.2</ele>
        <time>2022-01-14T10:37:06Z</time>
      </trkpt>
      <trkpt lat="44.99668" lon="6.44843">
        <ele>2518.2</ele>
        <time>2022-01-14T10:37:07Z</time>
      </trkpt>
      <trkpt lat="44.99668" lon="6.44842">
        <ele>2518.2</ele>
        <time>2022-01-14T10:37:08Z</time>
      </trkpt>
      <trkpt lat="44.99668" lon="6.44843">
        <ele>2518.2</ele>
        <time>2022-01-14T10:37:09Z</time>
      </trkpt>
      <trkpt lat="44.99668" lon="6.44843">
        <ele>2518.2</ele>
        <time>2022-01-14T10:37:10Z</time>
      </trkpt>
      <trkpt lat="44.99668" lon="6.44844">
        <ele>2518.2</ele>
        <time>2022-01-14T10:37:11Z</time>
      </trkpt>
      <trkpt lat="44.99668" lon="6.44844">
        <ele>2518.2</ele>
        <time>2022-01-14T10:37:12Z</time>
      </trkpt>
      <trkpt lat="44.99668" lon="6.44844">
        <ele>2518.2</ele>
        <time>2022-01-14T10:37:13Z</time>
      </trkpt>
      <trkpt lat="44.99668" lon="6.44844">
        <ele>2518.2</ele>
        <time>2022-01-14T10:37:14Z</time>
      </trkpt>
      <trkpt lat="44.99667" lon="6.44844">
        <ele>2518.2</ele>
        <time>2022-01-14T10:37:15Z</time>
      </trkpt>
      <trkpt lat="44.99667" lon="6.44844">
        <ele>2518.2</ele>
        <time>2022-01-14T10:37:16Z</time>
      </trkpt>
      <trkpt lat="44.99667" lon="6.44844">
        <ele>2518.2</ele>
        <time>2022-01-14T10:37:17Z</time>
      </trkpt>
      <trkpt lat="44.99667" lon="6.44844">
        <ele>2518.2</ele>
        <time>2022-01-14T10:37:18Z</time>
      </trkpt>
      <trkpt lat="44.99668" lon="6.44844">
        <ele>2518.2</ele>
        <time>2022-01-14T10:37:19Z</time>
      </trkpt>
      <trkpt lat="44.99668" lon="6.44844">
        <ele>2518.2</ele>
        <time>2022-01-14T10:37:20Z</time>
      </trkpt>
      <trkpt lat="44.99667" lon="6.44844">
        <ele>2518.2</ele>
        <time>2022-01-14T10:37:21Z</time>
      </trkpt>
      <trkpt lat="44.99667" lon="6.44844">
        <ele>2518</ele>
        <time>2022-01-14T10:37:22Z</time>
      </trkpt>
      <trkpt lat="44.99666" lon="6.44843">
        <ele>2518</ele>
        <time>2022-01-14T10:37:23Z</time>
      </trkpt>
      <trkpt lat="44.99667" lon="6.44842">
        <ele>2518</ele>
        <time>2022-01-14T10:37:24Z</time>
      </trkpt>
      <trkpt lat="44.99667" lon="6.44841">
        <ele>2518.8</ele>
        <time>2022-01-14T10:37:25Z</time>
      </trkpt>
      <trkpt lat="44.99667" lon="6.4484">
        <ele>2518.8</ele>
        <time>2022-01-14T10:37:26Z</time>
      </trkpt>
      <trkpt lat="44.99666" lon="6.44838">
        <ele>2518.8</ele>
        <time>2022-01-14T10:37:27Z</time>
      </trkpt>
      <trkpt lat="44.99667" lon="6.44837">
        <ele>2519.4</ele>
        <time>2022-01-14T10:37:28Z</time>
      </trkpt>
      <trkpt lat="44.99667" lon="6.44837">
        <ele>2519.4</ele>
        <time>2022-01-14T10:37:29Z</time>
      </trkpt>
      <trkpt lat="44.99667" lon="6.44837">
        <ele>2519.5</ele>
        <time>2022-01-14T10:37:30Z</time>
      </trkpt>
      <trkpt lat="44.99667" lon="6.44837">
        <ele>2519.5</ele>
        <time>2022-01-14T10:37:31Z</time>
      </trkpt>
      <trkpt lat="44.99668" lon="6.44837">
        <ele>2519.5</ele>
        <time>2022-01-14T10:37:32Z</time>
      </trkpt>
      <trkpt lat="44.99668" lon="6.44837">
        <ele>2519.5</ele>
        <time>2022-01-14T10:37:33Z</time>
      </trkpt>
      <trkpt lat="44.99668" lon="6.44837">
        <ele>2519.5</ele>
        <time>2022-01-14T10:37:34Z</time>
      </trkpt>
      <trkpt lat="44.99668" lon="6.44837">
        <ele>2519.5</ele>
        <time>2022-01-14T10:37:35Z</time>
      </trkpt>
      <trkpt lat="44.99669" lon="6.44837">
        <ele>2519.5</ele>
        <time>2022-01-14T10:37:36Z</time>
      </trkpt>
      <trkpt lat="44.99669" lon="6.44836">
        <ele>2519.5</ele>
        <time>2022-01-14T10:37:37Z</time>
      </trkpt>
      <trkpt lat="44.99669" lon="6.44836">
        <ele>2519.5</ele>
        <time>2022-01-14T10:37:38Z</time>
      </trkpt>
      <trkpt lat="44.99669" lon="6.44836">
        <ele>2519.5</ele>
        <time>2022-01-14T10:37:39Z</time>
      </trkpt>
      <trkpt lat="44.9967" lon="6.44836">
        <ele>2519.5</ele>
        <time>2022-01-14T10:37:40Z</time>
      </trkpt>
      <trkpt lat="44.9967" lon="6.44836">
        <ele>2519.5</ele>
        <time>2022-01-14T10:37:41Z</time>
      </trkpt>
      <trkpt lat="44.9967" lon="6.44836">
        <ele>2519.5</ele>
        <time>2022-01-14T10:37:42Z</time>
      </trkpt>
      <trkpt lat="44.9967" lon="6.44836">
        <ele>2519.5</ele>
        <time>2022-01-14T10:37:43Z</time>
      </trkpt>
      <trkpt lat="44.9967" lon="6.44836">
        <ele>2519.6</ele>
        <time>2022-01-14T10:37:44Z</time>
      </trkpt>
      <trkpt lat="44.99671" lon="6.44836">
        <ele>2519.6</ele>
        <time>2022-01-14T10:37:45Z</time>
      </trkpt>
      <trkpt lat="44.99671" lon="6.44835">
        <ele>2519.6</ele>
        <time>2022-01-14T10:37:46Z</time>
      </trkpt>
      <trkpt lat="44.99671" lon="6.44835">
        <ele>2519.6</ele>
        <time>2022-01-14T10:37:47Z</time>
      </trkpt>
      <trkpt lat="44.99672" lon="6.44837">
        <ele>2519.6</ele>
        <time>2022-01-14T10:37:48Z</time>
      </trkpt>
      <trkpt lat="44.99672" lon="6.44837">
        <ele>2519.6</ele>
        <time>2022-01-14T10:37:49Z</time>
      </trkpt>
      <trkpt lat="44.99673" lon="6.44838">
        <ele>2518.9</ele>
        <time>2022-01-14T10:37:50Z</time>
      </trkpt>
      <trkpt lat="44.99673" lon="6.44838">
        <ele>2518.9</ele>
        <time>2022-01-14T10:37:51Z</time>
      </trkpt>
      <trkpt lat="44.99674" lon="6.44837">
        <ele>2519.8</ele>
        <time>2022-01-14T10:37:52Z</time>
      </trkpt>
      <trkpt lat="44.99674" lon="6.44837">
        <ele>2519.8</ele>
        <time>2022-01-14T10:37:53Z</time>
      </trkpt>
      <trkpt lat="44.99676" lon="6.44837">
        <ele>2519.8</ele>
        <time>2022-01-14T10:37:54Z</time>
      </trkpt>
      <trkpt lat="44.99676" lon="6.44837">
        <ele>2519.8</ele>
        <time>2022-01-14T10:37:55Z</time>
      </trkpt>
      <trkpt lat="44.99676" lon="6.44838">
        <ele>2518.9</ele>
        <time>2022-01-14T10:37:56Z</time>
      </trkpt>
      <trkpt lat="44.99677" lon="6.44838">
        <ele>2518.9</ele>
        <time>2022-01-14T10:37:57Z</time>
      </trkpt>
      <trkpt lat="44.99677" lon="6.44838">
        <ele>2518.9</ele>
        <time>2022-01-14T10:37:58Z</time>
      </trkpt>
      <trkpt lat="44.99677" lon="6.44838">
        <ele>2518.9</ele>
        <time>2022-01-14T10:37:59Z</time>
      </trkpt>
      <trkpt lat="44.99677" lon="6.44839">
        <ele>2518.9</ele>
        <time>2022-01-14T10:38:00Z</time>
      </trkpt>
      <trkpt lat="44.99677" lon="6.44839">
        <ele>2518.9</ele>
        <time>2022-01-14T10:38:01Z</time>
      </trkpt>
      <trkpt lat="44.99677" lon="6.44839">
        <ele>2518.9</ele>
        <time>2022-01-14T10:38:02Z</time>
      </trkpt>
      <trkpt lat="44.99677" lon="6.44839">
        <ele>2518.9</ele>
        <time>2022-01-14T10:38:03Z</time>
      </trkpt>
      <trkpt lat="44.99677" lon="6.4484">
        <ele>2518.9</ele>
        <time>2022-01-14T10:38:04Z</time>
      </trkpt>
      <trkpt lat="44.99677" lon="6.4484">
        <ele>2518.9</ele>
        <time>2022-01-14T10:38:05Z</time>
      </trkpt>
      <trkpt lat="44.99677" lon="6.4484">
        <ele>2518.9</ele>
        <time>2022-01-14T10:38:06Z</time>
      </trkpt>
      <trkpt lat="44.99678" lon="6.4484">
        <ele>2518.9</ele>
        <time>2022-01-14T10:38:07Z</time>
      </trkpt>
      <trkpt lat="44.99678" lon="6.44841">
        <ele>2518.9</ele>
        <time>2022-01-14T10:38:08Z</time>
      </trkpt>
      <trkpt lat="44.99678" lon="6.44842">
        <ele>2518.9</ele>
        <time>2022-01-14T10:38:09Z</time>
      </trkpt>
      <trkpt lat="44.99679" lon="6.44843">
        <ele>2518.7</ele>
        <time>2022-01-14T10:38:10Z</time>
      </trkpt>
      <trkpt lat="44.99679" lon="6.44844">
        <ele>2518.7</ele>
        <time>2022-01-14T10:38:11Z</time>
      </trkpt>
      <trkpt lat="44.9968" lon="6.44845">
        <ele>2518.4</ele>
        <time>2022-01-14T10:38:12Z</time>
      </trkpt>
      <trkpt lat="44.9968" lon="6.44845">
        <ele>2518.4</ele>
        <time>2022-01-14T10:38:13Z</time>
      </trkpt>
      <trkpt lat="44.9968" lon="6.44846">
        <ele>2518.3</ele>
        <time>2022-01-14T10:38:14Z</time>
      </trkpt>
      <trkpt lat="44.9968" lon="6.44847">
        <ele>2518.3</ele>
        <time>2022-01-14T10:38:15Z</time>
      </trkpt>
      <trkpt lat="44.99681" lon="6.44848">
        <ele>2518.3</ele>
        <time>2022-01-14T10:38:16Z</time>
      </trkpt>
      <trkpt lat="44.99681" lon="6.44849">
        <ele>2518.3</ele>
        <time>2022-01-14T10:38:17Z</time>
      </trkpt>
      <trkpt lat="44.99681" lon="6.44849">
        <ele>2518.3</ele>
        <time>2022-01-14T10:38:18Z</time>
      </trkpt>
      <trkpt lat="44.99681" lon="6.44849">
        <ele>2518.3</ele>
        <time>2022-01-14T10:38:19Z</time>
      </trkpt>
      <trkpt lat="44.99681" lon="6.4485">
        <ele>2518.3</ele>
        <time>2022-01-14T10:38:20Z</time>
      </trkpt>
      <trkpt lat="44.99682" lon="6.4485">
        <ele>2518.3</ele>
        <time>2022-01-14T10:38:21Z</time>
      </trkpt>
      <trkpt lat="44.99682" lon="6.44851">
        <ele>2518.1</ele>
        <time>2022-01-14T10:38:22Z</time>
      </trkpt>
      <trkpt lat="44.99681" lon="6.44851">
        <ele>2518.1</ele>
        <time>2022-01-14T10:38:23Z</time>
      </trkpt>
      <trkpt lat="44.99681" lon="6.44852">
        <ele>2518.1</ele>
        <time>2022-01-14T10:38:24Z</time>
      </trkpt>
      <trkpt lat="44.99681" lon="6.44852">
        <ele>2518.1</ele>
        <time>2022-01-14T10:38:25Z</time>
      </trkpt>
      <trkpt lat="44.99681" lon="6.44852">
        <ele>2518.1</ele>
        <time>2022-01-14T10:38:26Z</time>
      </trkpt>
      <trkpt lat="44.99681" lon="6.44852">
        <ele>2518.1</ele>
        <time>2022-01-14T10:38:27Z</time>
      </trkpt>
      <trkpt lat="44.99682" lon="6.44852">
        <ele>2518.1</ele>
        <time>2022-01-14T10:38:28Z</time>
      </trkpt>
      <trkpt lat="44.99683" lon="6.44853">
        <ele>2518</ele>
        <time>2022-01-14T10:38:29Z</time>
      </trkpt>
      <trkpt lat="44.99683" lon="6.44853">
        <ele>2518</ele>
        <time>2022-01-14T10:38:30Z</time>
      </trkpt>
      <trkpt lat="44.99683" lon="6.44854">
        <ele>2518</ele>
        <time>2022-01-14T10:38:31Z</time>
      </trkpt>
      <trkpt lat="44.99683" lon="6.44854">
        <ele>2518</ele>
        <time>2022-01-14T10:38:32Z</time>
      </trkpt>
      <trkpt lat="44.99683" lon="6.44855">
        <ele>2517.9</ele>
        <time>2022-01-14T10:38:33Z</time>
      </trkpt>
      <trkpt lat="44.99683" lon="6.44855">
        <ele>2517.9</ele>
        <time>2022-01-14T10:38:34Z</time>
      </trkpt>
      <trkpt lat="44.99683" lon="6.44855">
        <ele>2517.9</ele>
        <time>2022-01-14T10:38:35Z</time>
      </trkpt>
      <trkpt lat="44.99683" lon="6.44855">
        <ele>2517.9</ele>
        <time>2022-01-14T10:38:36Z</time>
      </trkpt>
      <trkpt lat="44.99682" lon="6.44856">
        <ele>2517.9</ele>
        <time>2022-01-14T10:38:37Z</time>
      </trkpt>
      <trkpt lat="44.99683" lon="6.44857">
        <ele>2517.9</ele>
        <time>2022-01-14T10:38:38Z</time>
      </trkpt>
      <trkpt lat="44.99683" lon="6.44859">
        <ele>2517.9</ele>
        <time>2022-01-14T10:38:39Z</time>
      </trkpt>
      <trkpt lat="44.99682" lon="6.44859">
        <ele>2517.7</ele>
        <time>2022-01-14T10:38:40Z</time>
      </trkpt>
      <trkpt lat="44.99682" lon="6.44858">
        <ele>2517.9</ele>
        <time>2022-01-14T10:38:41Z</time>
      </trkpt>
      <trkpt lat="44.99681" lon="6.44858">
        <ele>2517.9</ele>
        <time>2022-01-14T10:38:42Z</time>
      </trkpt>
      <trkpt lat="44.99681" lon="6.44858">
        <ele>2517.9</ele>
        <time>2022-01-14T10:38:43Z</time>
      </trkpt>
      <trkpt lat="44.99681" lon="6.44858">
        <ele>2517.9</ele>
        <time>2022-01-14T10:38:44Z</time>
      </trkpt>
      <trkpt lat="44.99681" lon="6.44858">
        <ele>2517.9</ele>
        <time>2022-01-14T10:38:45Z</time>
      </trkpt>
      <trkpt lat="44.99681" lon="6.44858">
        <ele>2517.9</ele>
        <time>2022-01-14T10:38:46Z</time>
      </trkpt>
      <trkpt lat="44.99681" lon="6.44858">
        <ele>2517.9</ele>
        <time>2022-01-14T10:38:47Z</time>
      </trkpt>
      <trkpt lat="44.99681" lon="6.44859">
        <ele>2517.9</ele>
        <time>2022-01-14T10:38:48Z</time>
      </trkpt>
      <trkpt lat="44.99682" lon="6.44859">
        <ele>2517.9</ele>
        <time>2022-01-14T10:38:49Z</time>
      </trkpt>
      <trkpt lat="44.99682" lon="6.44859">
        <ele>2517.9</ele>
        <time>2022-01-14T10:38:50Z</time>
      </trkpt>
      <trkpt lat="44.99682" lon="6.44859">
        <ele>2517.9</ele>
        <time>2022-01-14T10:38:51Z</time>
      </trkpt>
      <trkpt lat="44.99682" lon="6.44859">
        <ele>2517.9</ele>
        <time>2022-01-14T10:38:52Z</time>
      </trkpt>
      <trkpt lat="44.99682" lon="6.44858">
        <ele>2517.9</ele>
        <time>2022-01-14T10:38:53Z</time>
      </trkpt>
      <trkpt lat="44.99683" lon="6.44858">
        <ele>2517.9</ele>
        <time>2022-01-14T10:38:54Z</time>
      </trkpt>
      <trkpt lat="44.99683" lon="6.44858">
        <ele>2517.9</ele>
        <time>2022-01-14T10:38:55Z</time>
      </trkpt>
      <trkpt lat="44.99683" lon="6.44859">
        <ele>2517.7</ele>
        <time>2022-01-14T10:38:56Z</time>
      </trkpt>
      <trkpt lat="44.99683" lon="6.4486">
        <ele>2517.7</ele>
        <time>2022-01-14T10:38:57Z</time>
      </trkpt>
      <trkpt lat="44.99684" lon="6.4486">
        <ele>2517.7</ele>
        <time>2022-01-14T10:38:58Z</time>
      </trkpt>
      <trkpt lat="44.99685" lon="6.4486">
        <ele>2517.7</ele>
        <time>2022-01-14T10:38:59Z</time>
      </trkpt>
      <trkpt lat="44.99685" lon="6.4486">
        <ele>2517.7</ele>
        <time>2022-01-14T10:39:00Z</time>
      </trkpt>
      <trkpt lat="44.99686" lon="6.4486">
        <ele>2517.7</ele>
        <time>2022-01-14T10:39:01Z</time>
      </trkpt>
      <trkpt lat="44.99686" lon="6.44861">
        <ele>2517.7</ele>
        <time>2022-01-14T10:39:02Z</time>
      </trkpt>
      <trkpt lat="44.99686" lon="6.44861">
        <ele>2517.7</ele>
        <time>2022-01-14T10:39:03Z</time>
      </trkpt>
      <trkpt lat="44.99686" lon="6.44861">
        <ele>2517.7</ele>
        <time>2022-01-14T10:39:04Z</time>
      </trkpt>
      <trkpt lat="44.99687" lon="6.44862">
        <ele>2517.7</ele>
        <time>2022-01-14T10:39:05Z</time>
      </trkpt>
      <trkpt lat="44.99687" lon="6.44862">
        <ele>2517.7</ele>
        <time>2022-01-14T10:39:06Z</time>
      </trkpt>
      <trkpt lat="44.99687" lon="6.44863">
        <ele>2517.7</ele>
        <time>2022-01-14T10:39:07Z</time>
      </trkpt>
      <trkpt lat="44.99687" lon="6.44863">
        <ele>2517.4</ele>
        <time>2022-01-14T10:39:08Z</time>
      </trkpt>
      <trkpt lat="44.99687" lon="6.44864">
        <ele>2517.4</ele>
        <time>2022-01-14T10:39:09Z</time>
      </trkpt>
      <trkpt lat="44.99688" lon="6.44864">
        <ele>2517.4</ele>
        <time>2022-01-14T10:39:10Z</time>
      </trkpt>
      <trkpt lat="44.99688" lon="6.44865">
        <ele>2517.4</ele>
        <time>2022-01-14T10:39:11Z</time>
      </trkpt>
      <trkpt lat="44.99687" lon="6.44866">
        <ele>2517.4</ele>
        <time>2022-01-14T10:39:12Z</time>
      </trkpt>
      <trkpt lat="44.99687" lon="6.44866">
        <ele>2517.4</ele>
        <time>2022-01-14T10:39:13Z</time>
      </trkpt>
      <trkpt lat="44.99688" lon="6.44867">
        <ele>2517.4</ele>
        <time>2022-01-14T10:39:14Z</time>
      </trkpt>
      <trkpt lat="44.99688" lon="6.44867">
        <ele>2517.4</ele>
        <time>2022-01-14T10:39:15Z</time>
      </trkpt>
      <trkpt lat="44.99688" lon="6.44868">
        <ele>2517.2</ele>
        <time>2022-01-14T10:39:16Z</time>
      </trkpt>
      <trkpt lat="44.99688" lon="6.44869">
        <ele>2517.2</ele>
        <time>2022-01-14T10:39:17Z</time>
      </trkpt>
      <trkpt lat="44.99688" lon="6.4487">
        <ele>2517.2</ele>
        <time>2022-01-14T10:39:18Z</time>
      </trkpt>
      <trkpt lat="44.99688" lon="6.44871">
        <ele>2517.2</ele>
        <time>2022-01-14T10:39:19Z</time>
      </trkpt>
      <trkpt lat="44.99688" lon="6.44871">
        <ele>2517.2</ele>
        <time>2022-01-14T10:39:20Z</time>
      </trkpt>
      <trkpt lat="44.99688" lon="6.44871">
        <ele>2517.2</ele>
        <time>2022-01-14T10:39:21Z</time>
      </trkpt>
      <trkpt lat="44.99688" lon="6.44871">
        <ele>2517.2</ele>
        <time>2022-01-14T10:39:22Z</time>
      </trkpt>
      <trkpt lat="44.99688" lon="6.4487">
        <ele>2517.2</ele>
        <time>2022-01-14T10:39:23Z</time>
      </trkpt>
      <trkpt lat="44.99688" lon="6.44869">
        <ele>2517.2</ele>
        <time>2022-01-14T10:39:24Z</time>
      </trkpt>
      <trkpt lat="44.99688" lon="6.44868">
        <ele>2517.2</ele>
        <time>2022-01-14T10:39:25Z</time>
      </trkpt>
      <trkpt lat="44.99689" lon="6.44868">
        <ele>2517.2</ele>
        <time>2022-01-14T10:39:26Z</time>
      </trkpt>
      <trkpt lat="44.99689" lon="6.44867">
        <ele>2517.4</ele>
        <time>2022-01-14T10:39:27Z</time>
      </trkpt>
      <trkpt lat="44.99689" lon="6.44867">
        <ele>2517.4</ele>
        <time>2022-01-14T10:39:28Z</time>
      </trkpt>
      <trkpt lat="44.9969" lon="6.44866">
        <ele>2517.4</ele>
        <time>2022-01-14T10:39:29Z</time>
      </trkpt>
      <trkpt lat="44.9969" lon="6.44866">
        <ele>2517.4</ele>
        <time>2022-01-14T10:39:30Z</time>
      </trkpt>
      <trkpt lat="44.9969" lon="6.44866">
        <ele>2517.4</ele>
        <time>2022-01-14T10:39:31Z</time>
      </trkpt>
      <trkpt lat="44.9969" lon="6.44866">
        <ele>2517.4</ele>
        <time>2022-01-14T10:39:32Z</time>
      </trkpt>
      <trkpt lat="44.9969" lon="6.44865">
        <ele>2517.4</ele>
        <time>2022-01-14T10:39:33Z</time>
      </trkpt>
      <trkpt lat="44.9969" lon="6.44865">
        <ele>2517.4</ele>
        <time>2022-01-14T10:39:34Z</time>
      </trkpt>
      <trkpt lat="44.9969" lon="6.44865">
        <ele>2517.4</ele>
        <time>2022-01-14T10:39:35Z</time>
      </trkpt>
      <trkpt lat="44.99691" lon="6.44864">
        <ele>2517.4</ele>
        <time>2022-01-14T10:39:36Z</time>
      </trkpt>
      <trkpt lat="44.99691" lon="6.44863">
        <ele>2517.4</ele>
        <time>2022-01-14T10:39:37Z</time>
      </trkpt>
      <trkpt lat="44.99691" lon="6.44862">
        <ele>2517.7</ele>
        <time>2022-01-14T10:39:38Z</time>
      </trkpt>
      <trkpt lat="44.9969" lon="6.44861">
        <ele>2517.7</ele>
        <time>2022-01-14T10:39:39Z</time>
      </trkpt>
      <trkpt lat="44.9969" lon="6.44859">
        <ele>2517.9</ele>
        <time>2022-01-14T10:39:40Z</time>
      </trkpt>
      <trkpt lat="44.9969" lon="6.44858">
        <ele>2517.9</ele>
        <time>2022-01-14T10:39:41Z</time>
      </trkpt>
      <trkpt lat="44.99691" lon="6.44857">
        <ele>2517.9</ele>
        <time>2022-01-14T10:39:42Z</time>
      </trkpt>
      <trkpt lat="44.99691" lon="6.44856">
        <ele>2517.9</ele>
        <time>2022-01-14T10:39:43Z</time>
      </trkpt>
      <trkpt lat="44.99691" lon="6.44855">
        <ele>2517.9</ele>
        <time>2022-01-14T10:39:44Z</time>
      </trkpt>
      <trkpt lat="44.99691" lon="6.44854">
        <ele>2517.8</ele>
        <time>2022-01-14T10:39:45Z</time>
      </trkpt>
      <trkpt lat="44.99691" lon="6.44852">
        <ele>2517.8</ele>
        <time>2022-01-14T10:39:46Z</time>
      </trkpt>
      <trkpt lat="44.99691" lon="6.44852">
        <ele>2517.8</ele>
        <time>2022-01-14T10:39:47Z</time>
      </trkpt>
      <trkpt lat="44.99691" lon="6.44852">
        <ele>2517.8</ele>
        <time>2022-01-14T10:39:48Z</time>
      </trkpt>
      <trkpt lat="44.99691" lon="6.44852">
        <ele>2517.8</ele>
        <time>2022-01-14T10:39:49Z</time>
      </trkpt>
      <trkpt lat="44.9969" lon="6.44852">
        <ele>2517.8</ele>
        <time>2022-01-14T10:39:50Z</time>
      </trkpt>
      <trkpt lat="44.9969" lon="6.44852">
        <ele>2517.8</ele>
        <time>2022-01-14T10:39:51Z</time>
      </trkpt>
      <trkpt lat="44.9969" lon="6.44852">
        <ele>2517.8</ele>
        <time>2022-01-14T10:39:52Z</time>
      </trkpt>
      <trkpt lat="44.99691" lon="6.44852">
        <ele>2517.8</ele>
        <time>2022-01-14T10:39:53Z</time>
      </trkpt>
      <trkpt lat="44.99691" lon="6.44852">
        <ele>2517.8</ele>
        <time>2022-01-14T10:39:54Z</time>
      </trkpt>
      <trkpt lat="44.99691" lon="6.44852">
        <ele>2517.8</ele>
        <time>2022-01-14T10:39:55Z</time>
      </trkpt>
      <trkpt lat="44.99691" lon="6.44852">
        <ele>2517.8</ele>
        <time>2022-01-14T10:39:56Z</time>
      </trkpt>
      <trkpt lat="44.99691" lon="6.44852">
        <ele>2517.8</ele>
        <time>2022-01-14T10:39:57Z</time>
      </trkpt>
      <trkpt lat="44.99691" lon="6.44852">
        <ele>2517.8</ele>
        <time>2022-01-14T10:39:58Z</time>
      </trkpt>
      <trkpt lat="44.99691" lon="6.44852">
        <ele>2517.8</ele>
        <time>2022-01-14T10:39:59Z</time>
      </trkpt>
      <trkpt lat="44.99691" lon="6.44852">
        <ele>2517.8</ele>
        <time>2022-01-14T10:40:00Z</time>
      </trkpt>
      <trkpt lat="44.99691" lon="6.44852">
        <ele>2517.8</ele>
        <time>2022-01-14T10:40:01Z</time>
      </trkpt>
      <trkpt lat="44.99691" lon="6.44851">
        <ele>2517.8</ele>
        <time>2022-01-14T10:40:02Z</time>
      </trkpt>
      <trkpt lat="44.9969" lon="6.44851">
        <ele>2517.8</ele>
        <time>2022-01-14T10:40:03Z</time>
      </trkpt>
      <trkpt lat="44.9969" lon="6.44851">
        <ele>2517.8</ele>
        <time>2022-01-14T10:40:04Z</time>
      </trkpt>
      <trkpt lat="44.9969" lon="6.4485">
        <ele>2517.6</ele>
        <time>2022-01-14T10:40:05Z</time>
      </trkpt>
      <trkpt lat="44.9969" lon="6.44849">
        <ele>2517.6</ele>
        <time>2022-01-14T10:40:06Z</time>
      </trkpt>
      <trkpt lat="44.9969" lon="6.44848">
        <ele>2517.6</ele>
        <time>2022-01-14T10:40:07Z</time>
      </trkpt>
      <trkpt lat="44.9969" lon="6.44848">
        <ele>2517.6</ele>
        <time>2022-01-14T10:40:08Z</time>
      </trkpt>
      <trkpt lat="44.9969" lon="6.44847">
        <ele>2517.6</ele>
        <time>2022-01-14T10:40:09Z</time>
      </trkpt>
      <trkpt lat="44.9969" lon="6.44847">
        <ele>2517.6</ele>
        <time>2022-01-14T10:40:10Z</time>
      </trkpt>
      <trkpt lat="44.9969" lon="6.44847">
        <ele>2517.6</ele>
        <time>2022-01-14T10:40:11Z</time>
      </trkpt>
      <trkpt lat="44.9969" lon="6.44847">
        <ele>2517.6</ele>
        <time>2022-01-14T10:40:12Z</time>
      </trkpt>
      <trkpt lat="44.9969" lon="6.44846">
        <ele>2517.6</ele>
        <time>2022-01-14T10:40:13Z</time>
      </trkpt>
      <trkpt lat="44.9969" lon="6.44845">
        <ele>2517.4</ele>
        <time>2022-01-14T10:40:14Z</time>
      </trkpt>
      <trkpt lat="44.9969" lon="6.44845">
        <ele>2517.4</ele>
        <time>2022-01-14T10:40:15Z</time>
      </trkpt>
      <trkpt lat="44.9969" lon="6.44844">
        <ele>2517.4</ele>
        <time>2022-01-14T10:40:16Z</time>
      </trkpt>
      <trkpt lat="44.9969" lon="6.44844">
        <ele>2517.4</ele>
        <time>2022-01-14T10:40:17Z</time>
      </trkpt>
      <trkpt lat="44.9969" lon="6.44844">
        <ele>2517.4</ele>
        <time>2022-01-14T10:40:18Z</time>
      </trkpt>
      <trkpt lat="44.9969" lon="6.44843">
        <ele>2517.4</ele>
        <time>2022-01-14T10:40:19Z</time>
      </trkpt>
      <trkpt lat="44.9969" lon="6.44841">
        <ele>2517.2</ele>
        <time>2022-01-14T10:40:20Z</time>
      </trkpt>
      <trkpt lat="44.9969" lon="6.44841">
        <ele>2517.2</ele>
        <time>2022-01-14T10:40:21Z</time>
      </trkpt>
      <trkpt lat="44.9969" lon="6.4484">
        <ele>2517.2</ele>
        <time>2022-01-14T10:40:22Z</time>
      </trkpt>
      <trkpt lat="44.9969" lon="6.4484">
        <ele>2517.2</ele>
        <time>2022-01-14T10:40:23Z</time>
      </trkpt>
      <trkpt lat="44.9969" lon="6.4484">
        <ele>2517.2</ele>
        <time>2022-01-14T10:40:24Z</time>
      </trkpt>
      <trkpt lat="44.99691" lon="6.4484">
        <ele>2517.2</ele>
        <time>2022-01-14T10:40:25Z</time>
      </trkpt>
      <trkpt lat="44.99692" lon="6.44839">
        <ele>2516.6</ele>
        <time>2022-01-14T10:40:26Z</time>
      </trkpt>
      <trkpt lat="44.99692" lon="6.44839">
        <ele>2516.6</ele>
        <time>2022-01-14T10:40:27Z</time>
      </trkpt>
      <trkpt lat="44.99692" lon="6.44839">
        <ele>2516.6</ele>
        <time>2022-01-14T10:40:28Z</time>
      </trkpt>
      <trkpt lat="44.99692" lon="6.44839">
        <ele>2516.6</ele>
        <time>2022-01-14T10:40:29Z</time>
      </trkpt>
      <trkpt lat="44.99691" lon="6.44838">
        <ele>2517.2</ele>
        <time>2022-01-14T10:40:30Z</time>
      </trkpt>
      <trkpt lat="44.99691" lon="6.44837">
        <ele>2517.9</ele>
        <time>2022-01-14T10:40:31Z</time>
      </trkpt>
      <trkpt lat="44.9969" lon="6.44837">
        <ele>2517.9</ele>
        <time>2022-01-14T10:40:32Z</time>
      </trkpt>
      <trkpt lat="44.9969" lon="6.44836">
        <ele>2517.9</ele>
        <time>2022-01-14T10:40:33Z</time>
      </trkpt>
      <trkpt lat="44.9969" lon="6.44836">
        <ele>2517.9</ele>
        <time>2022-01-14T10:40:34Z</time>
      </trkpt>
      <trkpt lat="44.9969" lon="6.44836">
        <ele>2517.9</ele>
        <time>2022-01-14T10:40:35Z</time>
      </trkpt>
      <trkpt lat="44.9969" lon="6.44836">
        <ele>2517.9</ele>
        <time>2022-01-14T10:40:36Z</time>
      </trkpt>
      <trkpt lat="44.9969" lon="6.44836">
        <ele>2517.9</ele>
        <time>2022-01-14T10:40:37Z</time>
      </trkpt>
      <trkpt lat="44.99691" lon="6.44836">
        <ele>2517.9</ele>
        <time>2022-01-14T10:40:38Z</time>
      </trkpt>
      <trkpt lat="44.99691" lon="6.44835">
        <ele>2517.9</ele>
        <time>2022-01-14T10:40:39Z</time>
      </trkpt>
      <trkpt lat="44.99692" lon="6.44834">
        <ele>2516.8</ele>
        <time>2022-01-14T10:40:40Z</time>
      </trkpt>
      <trkpt lat="44.99693" lon="6.44834">
        <ele>2516.8</ele>
        <time>2022-01-14T10:40:41Z</time>
      </trkpt>
      <trkpt lat="44.99692" lon="6.44834">
        <ele>2516.8</ele>
        <time>2022-01-14T10:40:42Z</time>
      </trkpt>
      <trkpt lat="44.99693" lon="6.44833">
        <ele>2516.8</ele>
        <time>2022-01-14T10:40:43Z</time>
      </trkpt>
      <trkpt lat="44.99693" lon="6.44832">
        <ele>2517.2</ele>
        <time>2022-01-14T10:40:44Z</time>
      </trkpt>
      <trkpt lat="44.99693" lon="6.44833">
        <ele>2517.2</ele>
        <time>2022-01-14T10:40:45Z</time>
      </trkpt>
      <trkpt lat="44.99693" lon="6.44833">
        <ele>2517.2</ele>
        <time>2022-01-14T10:40:46Z</time>
      </trkpt>
      <trkpt lat="44.99692" lon="6.44834">
        <ele>2516.8</ele>
        <time>2022-01-14T10:40:47Z</time>
      </trkpt>
      <trkpt lat="44.99691" lon="6.44834">
        <ele>2517.9</ele>
        <time>2022-01-14T10:40:48Z</time>
      </trkpt>
      <trkpt lat="44.9969" lon="6.44834">
        <ele>2517.9</ele>
        <time>2022-01-14T10:40:49Z</time>
      </trkpt>
      <trkpt lat="44.9969" lon="6.44834">
        <ele>2517.9</ele>
        <time>2022-01-14T10:40:50Z</time>
      </trkpt>
      <trkpt lat="44.99689" lon="6.44834">
        <ele>2517.9</ele>
        <time>2022-01-14T10:40:51Z</time>
      </trkpt>
      <trkpt lat="44.99689" lon="6.44834">
        <ele>2517.9</ele>
        <time>2022-01-14T10:40:52Z</time>
      </trkpt>
      <trkpt lat="44.99689" lon="6.44833">
        <ele>2517.9</ele>
        <time>2022-01-14T10:40:53Z</time>
      </trkpt>
      <trkpt lat="44.99689" lon="6.44833">
        <ele>2517.9</ele>
        <time>2022-01-14T10:40:54Z</time>
      </trkpt>
      <trkpt lat="44.99688" lon="6.44833">
        <ele>2518.5</ele>
        <time>2022-01-14T10:40:55Z</time>
      </trkpt>
      <trkpt lat="44.99687" lon="6.44833">
        <ele>2518.5</ele>
        <time>2022-01-14T10:40:56Z</time>
      </trkpt>
      <trkpt lat="44.99687" lon="6.44833">
        <ele>2519.5</ele>
        <time>2022-01-14T10:40:57Z</time>
      </trkpt>
      <trkpt lat="44.99687" lon="6.44833">
        <ele>2519.5</ele>
        <time>2022-01-14T10:40:58Z</time>
      </trkpt>
      <trkpt lat="44.99687" lon="6.44833">
        <ele>2519.5</ele>
        <time>2022-01-14T10:40:59Z</time>
      </trkpt>
      <trkpt lat="44.99687" lon="6.44833">
        <ele>2519.5</ele>
        <time>2022-01-14T10:41:00Z</time>
      </trkpt>
      <trkpt lat="44.99687" lon="6.44832">
        <ele>2519.5</ele>
        <time>2022-01-14T10:41:01Z</time>
      </trkpt>
      <trkpt lat="44.99687" lon="6.44832">
        <ele>2519.5</ele>
        <time>2022-01-14T10:41:02Z</time>
      </trkpt>
      <trkpt lat="44.99687" lon="6.44832">
        <ele>2519.5</ele>
        <time>2022-01-14T10:41:03Z</time>
      </trkpt>
      <trkpt lat="44.99687" lon="6.44832">
        <ele>2519.5</ele>
        <time>2022-01-14T10:41:04Z</time>
      </trkpt>
      <trkpt lat="44.99687" lon="6.44832">
        <ele>2519.5</ele>
        <time>2022-01-14T10:41:05Z</time>
      </trkpt>
      <trkpt lat="44.99687" lon="6.44832">
        <ele>2519.5</ele>
        <time>2022-01-14T10:41:06Z</time>
      </trkpt>
      <trkpt lat="44.99686" lon="6.44834">
        <ele>2518.5</ele>
        <time>2022-01-14T10:41:07Z</time>
      </trkpt>
      <trkpt lat="44.99686" lon="6.44834">
        <ele>2518.5</ele>
        <time>2022-01-14T10:41:08Z</time>
      </trkpt>
      <trkpt lat="44.99686" lon="6.44836">
        <ele>2518.5</ele>
        <time>2022-01-14T10:41:09Z</time>
      </trkpt>
      <trkpt lat="44.99686" lon="6.44837">
        <ele>2518.5</ele>
        <time>2022-01-14T10:41:10Z</time>
      </trkpt>
      <trkpt lat="44.99687" lon="6.44838">
        <ele>2517.7</ele>
        <time>2022-01-14T10:41:11Z</time>
      </trkpt>
      <trkpt lat="44.99687" lon="6.4484">
        <ele>2517.7</ele>
        <time>2022-01-14T10:41:12Z</time>
      </trkpt>
      <trkpt lat="44.99687" lon="6.4484">
        <ele>2517.7</ele>
        <time>2022-01-14T10:41:13Z</time>
      </trkpt>
      <trkpt lat="44.99687" lon="6.44841">
        <ele>2517.7</ele>
        <time>2022-01-14T10:41:14Z</time>
      </trkpt>
      <trkpt lat="44.99688" lon="6.44843">
        <ele>2517.8</ele>
        <time>2022-01-14T10:41:15Z</time>
      </trkpt>
      <trkpt lat="44.99688" lon="6.44844">
        <ele>2517.8</ele>
        <time>2022-01-14T10:41:16Z</time>
      </trkpt>
      <trkpt lat="44.99688" lon="6.44845">
        <ele>2517.8</ele>
        <time>2022-01-14T10:41:17Z</time>
      </trkpt>
      <trkpt lat="44.99688" lon="6.44846">
        <ele>2517.8</ele>
        <time>2022-01-14T10:41:18Z</time>
      </trkpt>
      <trkpt lat="44.99688" lon="6.44846">
        <ele>2517.8</ele>
        <time>2022-01-14T10:41:19Z</time>
      </trkpt>
      <trkpt lat="44.99688" lon="6.44846">
        <ele>2517.8</ele>
        <time>2022-01-14T10:41:20Z</time>
      </trkpt>
      <trkpt lat="44.99688" lon="6.44847">
        <ele>2517.8</ele>
        <time>2022-01-14T10:41:21Z</time>
      </trkpt>
      <trkpt lat="44.99688" lon="6.44847">
        <ele>2517.8</ele>
        <time>2022-01-14T10:41:22Z</time>
      </trkpt>
      <trkpt lat="44.99688" lon="6.44847">
        <ele>2517.8</ele>
        <time>2022-01-14T10:41:23Z</time>
      </trkpt>
      <trkpt lat="44.99689" lon="6.44847">
        <ele>2517.6</ele>
        <time>2022-01-14T10:41:24Z</time>
      </trkpt>
      <trkpt lat="44.99689" lon="6.44847">
        <ele>2517.6</ele>
        <time>2022-01-14T10:41:25Z</time>
      </trkpt>
      <trkpt lat="44.99689" lon="6.44847">
        <ele>2517.6</ele>
        <time>2022-01-14T10:41:26Z</time>
      </trkpt>
      <trkpt lat="44.99689" lon="6.44848">
        <ele>2517.6</ele>
        <time>2022-01-14T10:41:27Z</time>
      </trkpt>
      <trkpt lat="44.99689" lon="6.44849">
        <ele>2517.6</ele>
        <time>2022-01-14T10:41:28Z</time>
      </trkpt>
      <trkpt lat="44.99689" lon="6.4485">
        <ele>2517.6</ele>
        <time>2022-01-14T10:41:29Z</time>
      </trkpt>
      <trkpt lat="44.9969" lon="6.4485">
        <ele>2517.6</ele>
        <time>2022-01-14T10:41:30Z</time>
      </trkpt>
      <trkpt lat="44.9969" lon="6.4485">
        <ele>2517.6</ele>
        <time>2022-01-14T10:41:31Z</time>
      </trkpt>
      <trkpt lat="44.9969" lon="6.4485">
        <ele>2517.8</ele>
        <time>2022-01-14T10:41:32Z</time>
      </trkpt>
      <trkpt lat="44.9969" lon="6.4485">
        <ele>2517.8</ele>
        <time>2022-01-14T10:41:33Z</time>
      </trkpt>
      <trkpt lat="44.99689" lon="6.44851">
        <ele>2517.8</ele>
        <time>2022-01-14T10:41:34Z</time>
      </trkpt>
      <trkpt lat="44.99689" lon="6.44851">
        <ele>2517.8</ele>
        <time>2022-01-14T10:41:35Z</time>
      </trkpt>
      <trkpt lat="44.99689" lon="6.44851">
        <ele>2517.8</ele>
        <time>2022-01-14T10:41:36Z</time>
      </trkpt>
      <trkpt lat="44.99689" lon="6.44851">
        <ele>2517.8</ele>
        <time>2022-01-14T10:41:37Z</time>
      </trkpt>
      <trkpt lat="44.9969" lon="6.44851">
        <ele>2517.8</ele>
        <time>2022-01-14T10:41:38Z</time>
      </trkpt>
      <trkpt lat="44.9969" lon="6.44851">
        <ele>2517.8</ele>
        <time>2022-01-14T10:41:39Z</time>
      </trkpt>
      <trkpt lat="44.9969" lon="6.44851">
        <ele>2517.8</ele>
        <time>2022-01-14T10:41:40Z</time>
      </trkpt>
      <trkpt lat="44.9969" lon="6.44851">
        <ele>2517.8</ele>
        <time>2022-01-14T10:41:41Z</time>
      </trkpt>
      <trkpt lat="44.9969" lon="6.44851">
        <ele>2517.8</ele>
        <time>2022-01-14T10:41:42Z</time>
      </trkpt>
      <trkpt lat="44.9969" lon="6.44851">
        <ele>2517.8</ele>
        <time>2022-01-14T10:41:43Z</time>
      </trkpt>
      <trkpt lat="44.9969" lon="6.44851">
        <ele>2517.8</ele>
        <time>2022-01-14T10:41:44Z</time>
      </trkpt>
      <trkpt lat="44.9969" lon="6.44851">
        <ele>2517.8</ele>
        <time>2022-01-14T10:41:45Z</time>
      </trkpt>
      <trkpt lat="44.99689" lon="6.44851">
        <ele>2517.8</ele>
        <time>2022-01-14T10:41:46Z</time>
      </trkpt>
      <trkpt lat="44.99689" lon="6.44851">
        <ele>2517.8</ele>
        <time>2022-01-14T10:41:47Z</time>
      </trkpt>
      <trkpt lat="44.99689" lon="6.44851">
        <ele>2517.8</ele>
        <time>2022-01-14T10:41:48Z</time>
      </trkpt>
      <trkpt lat="44.99689" lon="6.44851">
        <ele>2517.8</ele>
        <time>2022-01-14T10:41:49Z</time>
      </trkpt>
      <trkpt lat="44.9969" lon="6.44851">
        <ele>2517.8</ele>
        <time>2022-01-14T10:41:50Z</time>
      </trkpt>
      <trkpt lat="44.9969" lon="6.44851">
        <ele>2517.8</ele>
        <time>2022-01-14T10:41:51Z</time>
      </trkpt>
      <trkpt lat="44.9969" lon="6.44851">
        <ele>2517.8</ele>
        <time>2022-01-14T10:41:52Z</time>
      </trkpt>
      <trkpt lat="44.9969" lon="6.44851">
        <ele>2517.8</ele>
        <time>2022-01-14T10:41:53Z</time>
      </trkpt>
      <trkpt lat="44.9969" lon="6.44851">
        <ele>2517.8</ele>
        <time>2022-01-14T10:41:54Z</time>
      </trkpt>
      <trkpt lat="44.9969" lon="6.4485">
        <ele>2517.8</ele>
        <time>2022-01-14T10:41:55Z</time>
      </trkpt>
      <trkpt lat="44.9969" lon="6.4485">
        <ele>2517.8</ele>
        <time>2022-01-14T10:41:56Z</time>
      </trkpt>
      <trkpt lat="44.9969" lon="6.44849">
        <ele>2517.6</ele>
        <time>2022-01-14T10:41:57Z</time>
      </trkpt>
      <trkpt lat="44.9969" lon="6.44849">
        <ele>2517.6</ele>
        <time>2022-01-14T10:41:58Z</time>
      </trkpt>
      <trkpt lat="44.9969" lon="6.44848">
        <ele>2517.6</ele>
        <time>2022-01-14T10:41:59Z</time>
      </trkpt>
      <trkpt lat="44.9969" lon="6.44848">
        <ele>2517.6</ele>
        <time>2022-01-14T10:42:00Z</time>
      </trkpt>
      <trkpt lat="44.9969" lon="6.44848">
        <ele>2517.6</ele>
        <time>2022-01-14T10:42:01Z</time>
      </trkpt>
      <trkpt lat="44.9969" lon="6.44848">
        <ele>2517.6</ele>
        <time>2022-01-14T10:42:02Z</time>
      </trkpt>
      <trkpt lat="44.9969" lon="6.44848">
        <ele>2517.6</ele>
        <time>2022-01-14T10:42:03Z</time>
      </trkpt>
      <trkpt lat="44.9969" lon="6.44848">
        <ele>2517.6</ele>
        <time>2022-01-14T10:42:04Z</time>
      </trkpt>
      <trkpt lat="44.99689" lon="6.44847">
        <ele>2517.6</ele>
        <time>2022-01-14T10:42:05Z</time>
      </trkpt>
      <trkpt lat="44.99689" lon="6.44848">
        <ele>2517.6</ele>
        <time>2022-01-14T10:42:06Z</time>
      </trkpt>
      <trkpt lat="44.99689" lon="6.44848">
        <ele>2517.6</ele>
        <time>2022-01-14T10:42:07Z</time>
      </trkpt>
      <trkpt lat="44.9969" lon="6.44847">
        <ele>2517.6</ele>
        <time>2022-01-14T10:42:08Z</time>
      </trkpt>
      <trkpt lat="44.9969" lon="6.44847">
        <ele>2517.6</ele>
        <time>2022-01-14T10:42:09Z</time>
      </trkpt>
      <trkpt lat="44.9969" lon="6.44847">
        <ele>2517.6</ele>
        <time>2022-01-14T10:42:10Z</time>
      </trkpt>
      <trkpt lat="44.9969" lon="6.44847">
        <ele>2517.6</ele>
        <time>2022-01-14T10:42:11Z</time>
      </trkpt>
      <trkpt lat="44.9969" lon="6.44847">
        <ele>2517.6</ele>
        <time>2022-01-14T10:42:12Z</time>
      </trkpt>
      <trkpt lat="44.9969" lon="6.44847">
        <ele>2517.6</ele>
        <time>2022-01-14T10:42:13Z</time>
      </trkpt>
      <trkpt lat="44.9969" lon="6.44846">
        <ele>2517.6</ele>
        <time>2022-01-14T10:42:14Z</time>
      </trkpt>
      <trkpt lat="44.99689" lon="6.44846">
        <ele>2517.4</ele>
        <time>2022-01-14T10:42:15Z</time>
      </trkpt>
      <trkpt lat="44.99688" lon="6.44846">
        <ele>2517.8</ele>
        <time>2022-01-14T10:42:16Z</time>
      </trkpt>
      <trkpt lat="44.99688" lon="6.44845">
        <ele>2517.8</ele>
        <time>2022-01-14T10:42:17Z</time>
      </trkpt>
      <trkpt lat="44.99688" lon="6.44846">
        <ele>2517.8</ele>
        <time>2022-01-14T10:42:18Z</time>
      </trkpt>
      <trkpt lat="44.99689" lon="6.44846">
        <ele>2517.4</ele>
        <time>2022-01-14T10:42:19Z</time>
      </trkpt>
      <trkpt lat="44.99689" lon="6.44846">
        <ele>2517.4</ele>
        <time>2022-01-14T10:42:20Z</time>
      </trkpt>
      <trkpt lat="44.99689" lon="6.44846">
        <ele>2517.4</ele>
        <time>2022-01-14T10:42:21Z</time>
      </trkpt>
      <trkpt lat="44.99689" lon="6.44846">
        <ele>2517.4</ele>
        <time>2022-01-14T10:42:22Z</time>
      </trkpt>
      <trkpt lat="44.99689" lon="6.44846">
        <ele>2517.4</ele>
        <time>2022-01-14T10:42:23Z</time>
      </trkpt>
      <trkpt lat="44.99689" lon="6.44846">
        <ele>2517.4</ele>
        <time>2022-01-14T10:42:24Z</time>
      </trkpt>
      <trkpt lat="44.99689" lon="6.44846">
        <ele>2517.4</ele>
        <time>2022-01-14T10:42:25Z</time>
      </trkpt>
      <trkpt lat="44.99689" lon="6.44844">
        <ele>2517.4</ele>
        <time>2022-01-14T10:42:26Z</time>
      </trkpt>
      <trkpt lat="44.9969" lon="6.44843">
        <ele>2517.4</ele>
        <time>2022-01-14T10:42:27Z</time>
      </trkpt>
      <trkpt lat="44.9969" lon="6.44842">
        <ele>2517.4</ele>
        <time>2022-01-14T10:42:28Z</time>
      </trkpt>
      <trkpt lat="44.9969" lon="6.44841">
        <ele>2517.2</ele>
        <time>2022-01-14T10:42:29Z</time>
      </trkpt>
      <trkpt lat="44.99691" lon="6.44841">
        <ele>2517.2</ele>
        <time>2022-01-14T10:42:30Z</time>
      </trkpt>
      <trkpt lat="44.99691" lon="6.44842">
        <ele>2517.2</ele>
        <time>2022-01-14T10:42:31Z</time>
      </trkpt>
      <trkpt lat="44.99691" lon="6.44842">
        <ele>2517.2</ele>
        <time>2022-01-14T10:42:32Z</time>
      </trkpt>
      <trkpt lat="44.99691" lon="6.44842">
        <ele>2517.4</ele>
        <time>2022-01-14T10:42:33Z</time>
      </trkpt>
      <trkpt lat="44.99691" lon="6.44842">
        <ele>2517.4</ele>
        <time>2022-01-14T10:42:34Z</time>
      </trkpt>
      <trkpt lat="44.99691" lon="6.44842">
        <ele>2517.4</ele>
        <time>2022-01-14T10:42:35Z</time>
      </trkpt>
      <trkpt lat="44.99691" lon="6.44842">
        <ele>2517.4</ele>
        <time>2022-01-14T10:42:36Z</time>
      </trkpt>
      <trkpt lat="44.99691" lon="6.44842">
        <ele>2517.4</ele>
        <time>2022-01-14T10:42:37Z</time>
      </trkpt>
      <trkpt lat="44.99691" lon="6.44842">
        <ele>2517.4</ele>
        <time>2022-01-14T10:42:38Z</time>
      </trkpt>
      <trkpt lat="44.99691" lon="6.44843">
        <ele>2517.4</ele>
        <time>2022-01-14T10:42:39Z</time>
      </trkpt>
      <trkpt lat="44.99691" lon="6.44843">
        <ele>2517.4</ele>
        <time>2022-01-14T10:42:40Z</time>
      </trkpt>
      <trkpt lat="44.99691" lon="6.44843">
        <ele>2517.4</ele>
        <time>2022-01-14T10:42:41Z</time>
      </trkpt>
      <trkpt lat="44.99692" lon="6.44842">
        <ele>2516.9</ele>
        <time>2022-01-14T10:42:42Z</time>
      </trkpt>
      <trkpt lat="44.99692" lon="6.44843">
        <ele>2516.9</ele>
        <time>2022-01-14T10:42:43Z</time>
      </trkpt>
      <trkpt lat="44.99692" lon="6.44844">
        <ele>2516.9</ele>
        <time>2022-01-14T10:42:44Z</time>
      </trkpt>
      <trkpt lat="44.99692" lon="6.44844">
        <ele>2516.9</ele>
        <time>2022-01-14T10:42:45Z</time>
      </trkpt>
      <trkpt lat="44.99692" lon="6.44844">
        <ele>2516.9</ele>
        <time>2022-01-14T10:42:46Z</time>
      </trkpt>
      <trkpt lat="44.99692" lon="6.44844">
        <ele>2516.9</ele>
        <time>2022-01-14T10:42:47Z</time>
      </trkpt>
      <trkpt lat="44.99692" lon="6.44843">
        <ele>2516.9</ele>
        <time>2022-01-14T10:42:48Z</time>
      </trkpt>
      <trkpt lat="44.99692" lon="6.44843">
        <ele>2516.9</ele>
        <time>2022-01-14T10:42:49Z</time>
      </trkpt>
      <trkpt lat="44.99692" lon="6.44843">
        <ele>2516.9</ele>
        <time>2022-01-14T10:42:50Z</time>
      </trkpt>
      <trkpt lat="44.99692" lon="6.44844">
        <ele>2516.9</ele>
        <time>2022-01-14T10:42:51Z</time>
      </trkpt>
      <trkpt lat="44.99692" lon="6.44844">
        <ele>2516.9</ele>
        <time>2022-01-14T10:42:52Z</time>
      </trkpt>
      <trkpt lat="44.99691" lon="6.44844">
        <ele>2517.4</ele>
        <time>2022-01-14T10:42:53Z</time>
      </trkpt>
      <trkpt lat="44.99691" lon="6.44844">
        <ele>2517.4</ele>
        <time>2022-01-14T10:42:54Z</time>
      </trkpt>
      <trkpt lat="44.99691" lon="6.44844">
        <ele>2517.4</ele>
        <time>2022-01-14T10:42:55Z</time>
      </trkpt>
      <trkpt lat="44.99691" lon="6.44843">
        <ele>2517.4</ele>
        <time>2022-01-14T10:42:56Z</time>
      </trkpt>
      <trkpt lat="44.99691" lon="6.44843">
        <ele>2517.4</ele>
        <time>2022-01-14T10:42:57Z</time>
      </trkpt>
      <trkpt lat="44.9969" lon="6.44843">
        <ele>2517.4</ele>
        <time>2022-01-14T10:42:58Z</time>
      </trkpt>
      <trkpt lat="44.9969" lon="6.44843">
        <ele>2517.4</ele>
        <time>2022-01-14T10:42:59Z</time>
      </trkpt>
      <trkpt lat="44.9969" lon="6.44843">
        <ele>2517.4</ele>
        <time>2022-01-14T10:43:00Z</time>
      </trkpt>
      <trkpt lat="44.9969" lon="6.44843">
        <ele>2517.4</ele>
        <time>2022-01-14T10:43:01Z</time>
      </trkpt>
      <trkpt lat="44.9969" lon="6.44843">
        <ele>2517.4</ele>
        <time>2022-01-14T10:43:02Z</time>
      </trkpt>
      <trkpt lat="44.9969" lon="6.44843">
        <ele>2517.4</ele>
        <time>2022-01-14T10:43:03Z</time>
      </trkpt>
      <trkpt lat="44.9969" lon="6.44843">
        <ele>2517.4</ele>
        <time>2022-01-14T10:43:04Z</time>
      </trkpt>
      <trkpt lat="44.9969" lon="6.44843">
        <ele>2517.4</ele>
        <time>2022-01-14T10:43:05Z</time>
      </trkpt>
      <trkpt lat="44.9969" lon="6.44844">
        <ele>2517.4</ele>
        <time>2022-01-14T10:43:06Z</time>
      </trkpt>
      <trkpt lat="44.99689" lon="6.44844">
        <ele>2517.4</ele>
        <time>2022-01-14T10:43:07Z</time>
      </trkpt>
      <trkpt lat="44.99689" lon="6.44843">
        <ele>2517.4</ele>
        <time>2022-01-14T10:43:08Z</time>
      </trkpt>
      <trkpt lat="44.99689" lon="6.44843">
        <ele>2517.4</ele>
        <time>2022-01-14T10:43:09Z</time>
      </trkpt>
      <trkpt lat="44.99689" lon="6.44843">
        <ele>2517.4</ele>
        <time>2022-01-14T10:43:10Z</time>
      </trkpt>
      <trkpt lat="44.99689" lon="6.44844">
        <ele>2517.4</ele>
        <time>2022-01-14T10:43:11Z</time>
      </trkpt>
      <trkpt lat="44.99689" lon="6.44844">
        <ele>2517.4</ele>
        <time>2022-01-14T10:43:12Z</time>
      </trkpt>
      <trkpt lat="44.99689" lon="6.44844">
        <ele>2517.4</ele>
        <time>2022-01-14T10:43:13Z</time>
      </trkpt>
      <trkpt lat="44.99689" lon="6.44844">
        <ele>2517.4</ele>
        <time>2022-01-14T10:43:14Z</time>
      </trkpt>
      <trkpt lat="44.99689" lon="6.44844">
        <ele>2517.4</ele>
        <time>2022-01-14T10:43:15Z</time>
      </trkpt>
      <trkpt lat="44.99689" lon="6.44844">
        <ele>2517.4</ele>
        <time>2022-01-14T10:43:16Z</time>
      </trkpt>
      <trkpt lat="44.99689" lon="6.44844">
        <ele>2517.4</ele>
        <time>2022-01-14T10:43:17Z</time>
      </trkpt>
      <trkpt lat="44.99689" lon="6.44844">
        <ele>2517.4</ele>
        <time>2022-01-14T10:43:18Z</time>
      </trkpt>
      <trkpt lat="44.99689" lon="6.44844">
        <ele>2517.4</ele>
        <time>2022-01-14T10:43:19Z</time>
      </trkpt>
      <trkpt lat="44.99689" lon="6.44844">
        <ele>2517.4</ele>
        <time>2022-01-14T10:43:20Z</time>
      </trkpt>
      <trkpt lat="44.99689" lon="6.44844">
        <ele>2517.4</ele>
        <time>2022-01-14T10:43:21Z</time>
      </trkpt>
      <trkpt lat="44.99689" lon="6.44844">
        <ele>2517.4</ele>
        <time>2022-01-14T10:43:22Z</time>
      </trkpt>
      <trkpt lat="44.99689" lon="6.44844">
        <ele>2517.4</ele>
        <time>2022-01-14T10:43:23Z</time>
      </trkpt>
      <trkpt lat="44.99689" lon="6.44844">
        <ele>2517.4</ele>
        <time>2022-01-14T10:43:24Z</time>
      </trkpt>
      <trkpt lat="44.99689" lon="6.44844">
        <ele>2517.4</ele>
        <time>2022-01-14T10:43:25Z</time>
      </trkpt>
      <trkpt lat="44.99689" lon="6.44844">
        <ele>2517.4</ele>
        <time>2022-01-14T10:43:26Z</time>
      </trkpt>
      <trkpt lat="44.99689" lon="6.44844">
        <ele>2517.4</ele>
        <time>2022-01-14T10:43:27Z</time>
      </trkpt>
      <trkpt lat="44.99689" lon="6.44844">
        <ele>2517.4</ele>
        <time>2022-01-14T10:43:28Z</time>
      </trkpt>
      <trkpt lat="44.99689" lon="6.44844">
        <ele>2517.4</ele>
        <time>2022-01-14T10:43:29Z</time>
      </trkpt>
      <trkpt lat="44.99689" lon="6.44844">
        <ele>2517.4</ele>
        <time>2022-01-14T10:43:30Z</time>
      </trkpt>
      <trkpt lat="44.99689" lon="6.44844">
        <ele>2517.4</ele>
        <time>2022-01-14T10:43:31Z</time>
      </trkpt>
      <trkpt lat="44.99689" lon="6.44844">
        <ele>2517.4</ele>
        <time>2022-01-14T10:43:32Z</time>
      </trkpt>
      <trkpt lat="44.99689" lon="6.44844">
        <ele>2517.4</ele>
        <time>2022-01-14T10:43:33Z</time>
      </trkpt>
      <trkpt lat="44.99689" lon="6.44844">
        <ele>2517.4</ele>
        <time>2022-01-14T10:43:34Z</time>
      </trkpt>
      <trkpt lat="44.99689" lon="6.44844">
        <ele>2517.4</ele>
        <time>2022-01-14T10:43:35Z</time>
      </trkpt>
      <trkpt lat="44.9969" lon="6.44844">
        <ele>2517.4</ele>
        <time>2022-01-14T10:43:36Z</time>
      </trkpt>
      <trkpt lat="44.9969" lon="6.44844">
        <ele>2517.4</ele>
        <time>2022-01-14T10:43:37Z</time>
      </trkpt>
      <trkpt lat="44.9969" lon="6.44844">
        <ele>2517.4</ele>
        <time>2022-01-14T10:43:38Z</time>
      </trkpt>
      <trkpt lat="44.9969" lon="6.44844">
        <ele>2517.4</ele>
        <time>2022-01-14T10:43:39Z</time>
      </trkpt>
      <trkpt lat="44.9969" lon="6.44844">
        <ele>2517.4</ele>
        <time>2022-01-14T10:43:40Z</time>
      </trkpt>
      <trkpt lat="44.9969" lon="6.44844">
        <ele>2517.4</ele>
        <time>2022-01-14T10:43:41Z</time>
      </trkpt>
      <trkpt lat="44.9969" lon="6.44844">
        <ele>2517.4</ele>
        <time>2022-01-14T10:43:42Z</time>
      </trkpt>
      <trkpt lat="44.9969" lon="6.44844">
        <ele>2517.4</ele>
        <time>2022-01-14T10:43:43Z</time>
      </trkpt>
      <trkpt lat="44.99691" lon="6.44844">
        <ele>2517.4</ele>
        <time>2022-01-14T10:43:44Z</time>
      </trkpt>
      <trkpt lat="44.99691" lon="6.44844">
        <ele>2517.4</ele>
        <time>2022-01-14T10:43:45Z</time>
      </trkpt>
      <trkpt lat="44.9969" lon="6.44843">
        <ele>2517.4</ele>
        <time>2022-01-14T10:43:46Z</time>
      </trkpt>
      <trkpt lat="44.9969" lon="6.44845">
        <ele>2517.4</ele>
        <time>2022-01-14T10:43:47Z</time>
      </trkpt>
      <trkpt lat="44.9969" lon="6.44844">
        <ele>2517.4</ele>
        <time>2022-01-14T10:43:48Z</time>
      </trkpt>
      <trkpt lat="44.9969" lon="6.44844">
        <ele>2517.4</ele>
        <time>2022-01-14T10:43:49Z</time>
      </trkpt>
      <trkpt lat="44.9969" lon="6.44844">
        <ele>2517.4</ele>
        <time>2022-01-14T10:43:50Z</time>
      </trkpt>
      <trkpt lat="44.9969" lon="6.44844">
        <ele>2517.4</ele>
        <time>2022-01-14T10:43:51Z</time>
      </trkpt>
      <trkpt lat="44.9969" lon="6.44844">
        <ele>2517.4</ele>
        <time>2022-01-14T10:43:52Z</time>
      </trkpt>
      <trkpt lat="44.9969" lon="6.44844">
        <ele>2517.4</ele>
        <time>2022-01-14T10:43:53Z</time>
      </trkpt>
      <trkpt lat="44.9969" lon="6.44844">
        <ele>2517.4</ele>
        <time>2022-01-14T10:43:54Z</time>
      </trkpt>
      <trkpt lat="44.9969" lon="6.44844">
        <ele>2517.4</ele>
        <time>2022-01-14T10:43:55Z</time>
      </trkpt>
      <trkpt lat="44.9969" lon="6.44844">
        <ele>2517.4</ele>
        <time>2022-01-14T10:43:56Z</time>
      </trkpt>
      <trkpt lat="44.9969" lon="6.44844">
        <ele>2517.4</ele>
        <time>2022-01-14T10:43:57Z</time>
      </trkpt>
      <trkpt lat="44.9969" lon="6.44844">
        <ele>2517.4</ele>
        <time>2022-01-14T10:43:58Z</time>
      </trkpt>
      <trkpt lat="44.99692" lon="6.44844">
        <ele>2516.9</ele>
        <time>2022-01-14T10:43:59Z</time>
      </trkpt>
      <trkpt lat="44.99692" lon="6.44845">
        <ele>2516.9</ele>
        <time>2022-01-14T10:44:00Z</time>
      </trkpt>
      <trkpt lat="44.99693" lon="6.44846">
        <ele>2516.9</ele>
        <time>2022-01-14T10:44:01Z</time>
      </trkpt>
      <trkpt lat="44.99693" lon="6.44846">
        <ele>2516.9</ele>
        <time>2022-01-14T10:44:02Z</time>
      </trkpt>
      <trkpt lat="44.99693" lon="6.44845">
        <ele>2516.9</ele>
        <time>2022-01-14T10:44:03Z</time>
      </trkpt>
      <trkpt lat="44.99693" lon="6.44845">
        <ele>2516.9</ele>
        <time>2022-01-14T10:44:04Z</time>
      </trkpt>
      <trkpt lat="44.99693" lon="6.44845">
        <ele>2516.9</ele>
        <time>2022-01-14T10:44:05Z</time>
      </trkpt>
      <trkpt lat="44.99693" lon="6.44845">
        <ele>2516.9</ele>
        <time>2022-01-14T10:44:06Z</time>
      </trkpt>
      <trkpt lat="44.99693" lon="6.44845">
        <ele>2516.9</ele>
        <time>2022-01-14T10:44:07Z</time>
      </trkpt>
      <trkpt lat="44.99693" lon="6.44845">
        <ele>2516.9</ele>
        <time>2022-01-14T10:44:08Z</time>
      </trkpt>
      <trkpt lat="44.99693" lon="6.44845">
        <ele>2516.9</ele>
        <time>2022-01-14T10:44:09Z</time>
      </trkpt>
      <trkpt lat="44.99693" lon="6.44845">
        <ele>2516.9</ele>
        <time>2022-01-14T10:44:10Z</time>
      </trkpt>
      <trkpt lat="44.99693" lon="6.44845">
        <ele>2516.9</ele>
        <time>2022-01-14T10:44:11Z</time>
      </trkpt>
      <trkpt lat="44.99694" lon="6.44845">
        <ele>2516.9</ele>
        <time>2022-01-14T10:44:12Z</time>
      </trkpt>
      <trkpt lat="44.99694" lon="6.44845">
        <ele>2516.9</ele>
        <time>2022-01-14T10:44:13Z</time>
      </trkpt>
      <trkpt lat="44.99694" lon="6.44845">
        <ele>2516.9</ele>
        <time>2022-01-14T10:44:14Z</time>
      </trkpt>
      <trkpt lat="44.99694" lon="6.44845">
        <ele>2516.9</ele>
        <time>2022-01-14T10:44:15Z</time>
      </trkpt>
      <trkpt lat="44.99694" lon="6.44845">
        <ele>2516.9</ele>
        <time>2022-01-14T10:44:16Z</time>
      </trkpt>
      <trkpt lat="44.99695" lon="6.44845">
        <ele>2516.4</ele>
        <time>2022-01-14T10:44:17Z</time>
      </trkpt>
      <trkpt lat="44.99695" lon="6.44845">
        <ele>2516.4</ele>
        <time>2022-01-14T10:44:18Z</time>
      </trkpt>
      <trkpt lat="44.99695" lon="6.44844">
        <ele>2516.4</ele>
        <time>2022-01-14T10:44:19Z</time>
      </trkpt>
      <trkpt lat="44.99695" lon="6.44844">
        <ele>2516.4</ele>
        <time>2022-01-14T10:44:20Z</time>
      </trkpt>
      <trkpt lat="44.99695" lon="6.44844">
        <ele>2516.4</ele>
        <time>2022-01-14T10:44:21Z</time>
      </trkpt>
      <trkpt lat="44.99695" lon="6.44842">
        <ele>2516.4</ele>
        <time>2022-01-14T10:44:22Z</time>
      </trkpt>
      <trkpt lat="44.99695" lon="6.44842">
        <ele>2515.8</ele>
        <time>2022-01-14T10:44:23Z</time>
      </trkpt>
      <trkpt lat="44.99695" lon="6.44841">
        <ele>2515.8</ele>
        <time>2022-01-14T10:44:24Z</time>
      </trkpt>
      <trkpt lat="44.99695" lon="6.44841">
        <ele>2515.8</ele>
        <time>2022-01-14T10:44:25Z</time>
      </trkpt>
      <trkpt lat="44.99695" lon="6.44842">
        <ele>2515.8</ele>
        <time>2022-01-14T10:44:26Z</time>
      </trkpt>
      <trkpt lat="44.99695" lon="6.44842">
        <ele>2515.8</ele>
        <time>2022-01-14T10:44:27Z</time>
      </trkpt>
      <trkpt lat="44.99695" lon="6.44842">
        <ele>2515.8</ele>
        <time>2022-01-14T10:44:28Z</time>
      </trkpt>
      <trkpt lat="44.99695" lon="6.44842">
        <ele>2515.8</ele>
        <time>2022-01-14T10:44:29Z</time>
      </trkpt>
      <trkpt lat="44.99695" lon="6.44842">
        <ele>2515.8</ele>
        <time>2022-01-14T10:44:30Z</time>
      </trkpt>
      <trkpt lat="44.99695" lon="6.44841">
        <ele>2515.8</ele>
        <time>2022-01-14T10:44:31Z</time>
      </trkpt>
      <trkpt lat="44.99695" lon="6.44841">
        <ele>2515.8</ele>
        <time>2022-01-14T10:44:32Z</time>
      </trkpt>
      <trkpt lat="44.99695" lon="6.44842">
        <ele>2515.8</ele>
        <time>2022-01-14T10:44:33Z</time>
      </trkpt>
      <trkpt lat="44.99695" lon="6.44842">
        <ele>2515.8</ele>
        <time>2022-01-14T10:44:34Z</time>
      </trkpt>
      <trkpt lat="44.99694" lon="6.44842">
        <ele>2516.9</ele>
        <time>2022-01-14T10:44:35Z</time>
      </trkpt>
      <trkpt lat="44.99695" lon="6.44842">
        <ele>2516.4</ele>
        <time>2022-01-14T10:44:36Z</time>
      </trkpt>
      <trkpt lat="44.99695" lon="6.44842">
        <ele>2516.4</ele>
        <time>2022-01-14T10:44:37Z</time>
      </trkpt>
      <trkpt lat="44.99695" lon="6.44842">
        <ele>2515.8</ele>
        <time>2022-01-14T10:44:38Z</time>
      </trkpt>
      <trkpt lat="44.99695" lon="6.44841">
        <ele>2515.8</ele>
        <time>2022-01-14T10:44:39Z</time>
      </trkpt>
      <trkpt lat="44.99696" lon="6.4484">
        <ele>2515.8</ele>
        <time>2022-01-14T10:44:40Z</time>
      </trkpt>
      <trkpt lat="44.99696" lon="6.4484">
        <ele>2515.8</ele>
        <time>2022-01-14T10:44:41Z</time>
      </trkpt>
      <trkpt lat="44.99696" lon="6.4484">
        <ele>2515.8</ele>
        <time>2022-01-14T10:44:42Z</time>
      </trkpt>
      <trkpt lat="44.99696" lon="6.4484">
        <ele>2515.8</ele>
        <time>2022-01-14T10:44:43Z</time>
      </trkpt>
      <trkpt lat="44.99696" lon="6.44839">
        <ele>2515.8</ele>
        <time>2022-01-14T10:44:44Z</time>
      </trkpt>
      <trkpt lat="44.99696" lon="6.4484">
        <ele>2515.8</ele>
        <time>2022-01-14T10:44:45Z</time>
      </trkpt>
      <trkpt lat="44.99696" lon="6.44841">
        <ele>2515.8</ele>
        <time>2022-01-14T10:44:46Z</time>
      </trkpt>
      <trkpt lat="44.99694" lon="6.4484">
        <ele>2516.6</ele>
        <time>2022-01-14T10:44:47Z</time>
      </trkpt>
      <trkpt lat="44.99692" lon="6.44839">
        <ele>2516.6</ele>
        <time>2022-01-14T10:44:48Z</time>
      </trkpt>
      <trkpt lat="44.99692" lon="6.44838">
        <ele>2516.6</ele>
        <time>2022-01-14T10:44:49Z</time>
      </trkpt>
      <trkpt lat="44.99691" lon="6.44838">
        <ele>2517.2</ele>
        <time>2022-01-14T10:44:50Z</time>
      </trkpt>
      <trkpt lat="44.9969" lon="6.44837">
        <ele>2517.9</ele>
        <time>2022-01-14T10:44:51Z</time>
      </trkpt>
      <trkpt lat="44.9969" lon="6.44837">
        <ele>2517.9</ele>
        <time>2022-01-14T10:44:52Z</time>
      </trkpt>
      <trkpt lat="44.9969" lon="6.44837">
        <ele>2517.9</ele>
        <time>2022-01-14T10:44:53Z</time>
      </trkpt>
      <trkpt lat="44.9969" lon="6.44837">
        <ele>2517.9</ele>
        <time>2022-01-14T10:44:54Z</time>
      </trkpt>
      <trkpt lat="44.99691" lon="6.44837">
        <ele>2517.9</ele>
        <time>2022-01-14T10:44:55Z</time>
      </trkpt>
      <trkpt lat="44.99692" lon="6.44839">
        <ele>2516.6</ele>
        <time>2022-01-14T10:44:56Z</time>
      </trkpt>
      <trkpt lat="44.99693" lon="6.4484">
        <ele>2516.6</ele>
        <time>2022-01-14T10:44:57Z</time>
      </trkpt>
      <trkpt lat="44.99694" lon="6.4484">
        <ele>2516.6</ele>
        <time>2022-01-14T10:44:58Z</time>
      </trkpt>
      <trkpt lat="44.99694" lon="6.4484">
        <ele>2516.6</ele>
        <time>2022-01-14T10:44:59Z</time>
      </trkpt>
      <trkpt lat="44.99694" lon="6.44839">
        <ele>2516.6</ele>
        <time>2022-01-14T10:45:00Z</time>
      </trkpt>
      <trkpt lat="44.99694" lon="6.44839">
        <ele>2516.6</ele>
        <time>2022-01-14T10:45:01Z</time>
      </trkpt>
      <trkpt lat="44.99695" lon="6.44839">
        <ele>2515.8</ele>
        <time>2022-01-14T10:45:02Z</time>
      </trkpt>
      <trkpt lat="44.99695" lon="6.44839">
        <ele>2515.8</ele>
        <time>2022-01-14T10:45:03Z</time>
      </trkpt>
      <trkpt lat="44.99695" lon="6.44839">
        <ele>2515.8</ele>
        <time>2022-01-14T10:45:04Z</time>
      </trkpt>
      <trkpt lat="44.99695" lon="6.44839">
        <ele>2515.8</ele>
        <time>2022-01-14T10:45:05Z</time>
      </trkpt>
      <trkpt lat="44.99695" lon="6.44839">
        <ele>2515.8</ele>
        <time>2022-01-14T10:45:06Z</time>
      </trkpt>
      <trkpt lat="44.99695" lon="6.4484">
        <ele>2515.8</ele>
        <time>2022-01-14T10:45:07Z</time>
      </trkpt>
      <trkpt lat="44.99695" lon="6.44841">
        <ele>2515.8</ele>
        <time>2022-01-14T10:45:08Z</time>
      </trkpt>
      <trkpt lat="44.99696" lon="6.44842">
        <ele>2516.4</ele>
        <time>2022-01-14T10:45:09Z</time>
      </trkpt>
      <trkpt lat="44.99696" lon="6.44841">
        <ele>2515.8</ele>
        <time>2022-01-14T10:45:10Z</time>
      </trkpt>
      <trkpt lat="44.99697" lon="6.44841">
        <ele>2515.8</ele>
        <time>2022-01-14T10:45:11Z</time>
      </trkpt>
      <trkpt lat="44.99697" lon="6.44841">
        <ele>2515.8</ele>
        <time>2022-01-14T10:45:12Z</time>
      </trkpt>
      <trkpt lat="44.99697" lon="6.44841">
        <ele>2515.8</ele>
        <time>2022-01-14T10:45:13Z</time>
      </trkpt>
      <trkpt lat="44.99697" lon="6.44841">
        <ele>2515.8</ele>
        <time>2022-01-14T10:45:14Z</time>
      </trkpt>
      <trkpt lat="44.99697" lon="6.44841">
        <ele>2515.8</ele>
        <time>2022-01-14T10:45:15Z</time>
      </trkpt>
      <trkpt lat="44.99697" lon="6.4484">
        <ele>2515.8</ele>
        <time>2022-01-14T10:45:16Z</time>
      </trkpt>
      <trkpt lat="44.99696" lon="6.4484">
        <ele>2515.8</ele>
        <time>2022-01-14T10:45:17Z</time>
      </trkpt>
      <trkpt lat="44.99696" lon="6.4484">
        <ele>2515.8</ele>
        <time>2022-01-14T10:45:18Z</time>
      </trkpt>
      <trkpt lat="44.99697" lon="6.44839">
        <ele>2515.8</ele>
        <time>2022-01-14T10:45:19Z</time>
      </trkpt>
      <trkpt lat="44.99697" lon="6.44838">
        <ele>2515.8</ele>
        <time>2022-01-14T10:45:20Z</time>
      </trkpt>
      <trkpt lat="44.99697" lon="6.44838">
        <ele>2515.8</ele>
        <time>2022-01-14T10:45:21Z</time>
      </trkpt>
      <trkpt lat="44.99697" lon="6.44838">
        <ele>2515.8</ele>
        <time>2022-01-14T10:45:22Z</time>
      </trkpt>
      <trkpt lat="44.99697" lon="6.44839">
        <ele>2515.8</ele>
        <time>2022-01-14T10:45:23Z</time>
      </trkpt>
      <trkpt lat="44.99697" lon="6.44839">
        <ele>2515.8</ele>
        <time>2022-01-14T10:45:24Z</time>
      </trkpt>
      <trkpt lat="44.99698" lon="6.44839">
        <ele>2515.8</ele>
        <time>2022-01-14T10:45:25Z</time>
      </trkpt>
      <trkpt lat="44.99698" lon="6.44839">
        <ele>2515.1</ele>
        <time>2022-01-14T10:45:26Z</time>
      </trkpt>
      <trkpt lat="44.99698" lon="6.44839">
        <ele>2515.1</ele>
        <time>2022-01-14T10:45:27Z</time>
      </trkpt>
      <trkpt lat="44.99698" lon="6.4484">
        <ele>2515.1</ele>
        <time>2022-01-14T10:45:28Z</time>
      </trkpt>
      <trkpt lat="44.99698" lon="6.44839">
        <ele>2515.1</ele>
        <time>2022-01-14T10:45:29Z</time>
      </trkpt>
      <trkpt lat="44.99697" lon="6.44839">
        <ele>2515.8</ele>
        <time>2022-01-14T10:45:30Z</time>
      </trkpt>
      <trkpt lat="44.99697" lon="6.44839">
        <ele>2515.8</ele>
        <time>2022-01-14T10:45:31Z</time>
      </trkpt>
      <trkpt lat="44.99696" lon="6.44839">
        <ele>2515.8</ele>
        <time>2022-01-14T10:45:32Z</time>
      </trkpt>
      <trkpt lat="44.99698" lon="6.44841">
        <ele>2515.1</ele>
        <time>2022-01-14T10:45:33Z</time>
      </trkpt>
      <trkpt lat="44.99698" lon="6.44841">
        <ele>2515.1</ele>
        <time>2022-01-14T10:45:34Z</time>
      </trkpt>
      <trkpt lat="44.99698" lon="6.4484">
        <ele>2515.1</ele>
        <time>2022-01-14T10:45:35Z</time>
      </trkpt>
      <trkpt lat="44.99699" lon="6.44842">
        <ele>2515.9</ele>
        <time>2022-01-14T10:45:36Z</time>
      </trkpt>
      <trkpt lat="44.99699" lon="6.44842">
        <ele>2515.9</ele>
        <time>2022-01-14T10:45:37Z</time>
      </trkpt>
      <trkpt lat="44.99699" lon="6.44843">
        <ele>2515.9</ele>
        <time>2022-01-14T10:45:38Z</time>
      </trkpt>
      <trkpt lat="44.99699" lon="6.44843">
        <ele>2515.9</ele>
        <time>2022-01-14T10:45:39Z</time>
      </trkpt>
      <trkpt lat="44.99699" lon="6.44844">
        <ele>2515.9</ele>
        <time>2022-01-14T10:45:40Z</time>
      </trkpt>
      <trkpt lat="44.99698" lon="6.44845">
        <ele>2515.9</ele>
        <time>2022-01-14T10:45:41Z</time>
      </trkpt>
      <trkpt lat="44.99698" lon="6.44845">
        <ele>2515.9</ele>
        <time>2022-01-14T10:45:42Z</time>
      </trkpt>
      <trkpt lat="44.99698" lon="6.44845">
        <ele>2515.9</ele>
        <time>2022-01-14T10:45:43Z</time>
      </trkpt>
      <trkpt lat="44.99698" lon="6.44846">
        <ele>2515.9</ele>
        <time>2022-01-14T10:45:44Z</time>
      </trkpt>
      <trkpt lat="44.99698" lon="6.44846">
        <ele>2515.9</ele>
        <time>2022-01-14T10:45:45Z</time>
      </trkpt>
      <trkpt lat="44.99698" lon="6.44846">
        <ele>2516.7</ele>
        <time>2022-01-14T10:45:46Z</time>
      </trkpt>
      <trkpt lat="44.99698" lon="6.44846">
        <ele>2516.7</ele>
        <time>2022-01-14T10:45:47Z</time>
      </trkpt>
      <trkpt lat="44.99698" lon="6.44846">
        <ele>2515.9</ele>
        <time>2022-01-14T10:45:48Z</time>
      </trkpt>
      <trkpt lat="44.99698" lon="6.44846">
        <ele>2515.9</ele>
        <time>2022-01-14T10:45:49Z</time>
      </trkpt>
      <trkpt lat="44.99698" lon="6.44846">
        <ele>2517</ele>
        <time>2022-01-14T10:45:50Z</time>
      </trkpt>
      <trkpt lat="44.99697" lon="6.44846">
        <ele>2517</ele>
        <time>2022-01-14T10:45:51Z</time>
      </trkpt>
      <trkpt lat="44.99697" lon="6.44846">
        <ele>2517</ele>
        <time>2022-01-14T10:45:52Z</time>
      </trkpt>
      <trkpt lat="44.99697" lon="6.44846">
        <ele>2517</ele>
        <time>2022-01-14T10:45:53Z</time>
      </trkpt>
      <trkpt lat="44.99697" lon="6.44846">
        <ele>2517</ele>
        <time>2022-01-14T10:45:54Z</time>
      </trkpt>
      <trkpt lat="44.99697" lon="6.44846">
        <ele>2517</ele>
        <time>2022-01-14T10:45:55Z</time>
      </trkpt>
      <trkpt lat="44.99697" lon="6.44847">
        <ele>2517</ele>
        <time>2022-01-14T10:45:56Z</time>
      </trkpt>
      <trkpt lat="44.99697" lon="6.44847">
        <ele>2517</ele>
        <time>2022-01-14T10:45:57Z</time>
      </trkpt>
      <trkpt lat="44.99697" lon="6.44847">
        <ele>2517</ele>
        <time>2022-01-14T10:45:58Z</time>
      </trkpt>
      <trkpt lat="44.99697" lon="6.44847">
        <ele>2517</ele>
        <time>2022-01-14T10:45:59Z</time>
      </trkpt>
      <trkpt lat="44.99697" lon="6.44847">
        <ele>2517</ele>
        <time>2022-01-14T10:46:00Z</time>
      </trkpt>
      <trkpt lat="44.99697" lon="6.44847">
        <ele>2517</ele>
        <time>2022-01-14T10:46:01Z</time>
      </trkpt>
      <trkpt lat="44.99697" lon="6.44848">
        <ele>2517</ele>
        <time>2022-01-14T10:46:02Z</time>
      </trkpt>
      <trkpt lat="44.99697" lon="6.44849">
        <ele>2517</ele>
        <time>2022-01-14T10:46:03Z</time>
      </trkpt>
      <trkpt lat="44.99697" lon="6.44849">
        <ele>2517</ele>
        <time>2022-01-14T10:46:04Z</time>
      </trkpt>
      <trkpt lat="44.99697" lon="6.44849">
        <ele>2517</ele>
        <time>2022-01-14T10:46:05Z</time>
      </trkpt>
      <trkpt lat="44.99695" lon="6.44848">
        <ele>2517</ele>
        <time>2022-01-14T10:46:06Z</time>
      </trkpt>
      <trkpt lat="44.99694" lon="6.44846">
        <ele>2517.3</ele>
        <time>2022-01-14T10:46:07Z</time>
      </trkpt>
      <trkpt lat="44.99694" lon="6.44846">
        <ele>2517.3</ele>
        <time>2022-01-14T10:46:08Z</time>
      </trkpt>
      <trkpt lat="44.99694" lon="6.44846">
        <ele>2517.3</ele>
        <time>2022-01-14T10:46:09Z</time>
      </trkpt>
      <trkpt lat="44.99694" lon="6.44847">
        <ele>2517.3</ele>
        <time>2022-01-14T10:46:10Z</time>
      </trkpt>
      <trkpt lat="44.99694" lon="6.44846">
        <ele>2517.3</ele>
        <time>2022-01-14T10:46:11Z</time>
      </trkpt>
      <trkpt lat="44.99694" lon="6.44846">
        <ele>2517.3</ele>
        <time>2022-01-14T10:46:12Z</time>
      </trkpt>
      <trkpt lat="44.99694" lon="6.44846">
        <ele>2517.3</ele>
        <time>2022-01-14T10:46:13Z</time>
      </trkpt>
      <trkpt lat="44.99694" lon="6.44846">
        <ele>2517.3</ele>
        <time>2022-01-14T10:46:14Z</time>
      </trkpt>
      <trkpt lat="44.99694" lon="6.44846">
        <ele>2517.3</ele>
        <time>2022-01-14T10:46:15Z</time>
      </trkpt>
      <trkpt lat="44.99694" lon="6.44846">
        <ele>2517.3</ele>
        <time>2022-01-14T10:46:16Z</time>
      </trkpt>
      <trkpt lat="44.99694" lon="6.44846">
        <ele>2517.3</ele>
        <time>2022-01-14T10:46:17Z</time>
      </trkpt>
      <trkpt lat="44.99694" lon="6.44846">
        <ele>2517.3</ele>
        <time>2022-01-14T10:46:18Z</time>
      </trkpt>
      <trkpt lat="44.99694" lon="6.44846">
        <ele>2517.3</ele>
        <time>2022-01-14T10:46:19Z</time>
      </trkpt>
      <trkpt lat="44.99694" lon="6.44846">
        <ele>2517.3</ele>
        <time>2022-01-14T10:46:20Z</time>
      </trkpt>
      <trkpt lat="44.99694" lon="6.44846">
        <ele>2517.3</ele>
        <time>2022-01-14T10:46:21Z</time>
      </trkpt>
      <trkpt lat="44.99694" lon="6.44846">
        <ele>2517.3</ele>
        <time>2022-01-14T10:46:22Z</time>
      </trkpt>
      <trkpt lat="44.99694" lon="6.44847">
        <ele>2517.3</ele>
        <time>2022-01-14T10:46:23Z</time>
      </trkpt>
      <trkpt lat="44.99695" lon="6.44847">
        <ele>2517</ele>
        <time>2022-01-14T10:46:24Z</time>
      </trkpt>
      <trkpt lat="44.99695" lon="6.44847">
        <ele>2517</ele>
        <time>2022-01-14T10:46:25Z</time>
      </trkpt>
      <trkpt lat="44.99695" lon="6.44847">
        <ele>2517</ele>
        <time>2022-01-14T10:46:26Z</time>
      </trkpt>
      <trkpt lat="44.99694" lon="6.44847">
        <ele>2517.3</ele>
        <time>2022-01-14T10:46:27Z</time>
      </trkpt>
      <trkpt lat="44.99694" lon="6.44846">
        <ele>2516.9</ele>
        <time>2022-01-14T10:46:28Z</time>
      </trkpt>
      <trkpt lat="44.99695" lon="6.44846">
        <ele>2516.4</ele>
        <time>2022-01-14T10:46:29Z</time>
      </trkpt>
      <trkpt lat="44.99695" lon="6.44846">
        <ele>2516.4</ele>
        <time>2022-01-14T10:46:30Z</time>
      </trkpt>
      <trkpt lat="44.99695" lon="6.44845">
        <ele>2516.4</ele>
        <time>2022-01-14T10:46:31Z</time>
      </trkpt>
      <trkpt lat="44.99694" lon="6.44845">
        <ele>2516.9</ele>
        <time>2022-01-14T10:46:32Z</time>
      </trkpt>
      <trkpt lat="44.99695" lon="6.44845">
        <ele>2516.4</ele>
        <time>2022-01-14T10:46:33Z</time>
      </trkpt>
      <trkpt lat="44.99695" lon="6.44845">
        <ele>2516.4</ele>
        <time>2022-01-14T10:46:34Z</time>
      </trkpt>
      <trkpt lat="44.99695" lon="6.44845">
        <ele>2516.4</ele>
        <time>2022-01-14T10:46:35Z</time>
      </trkpt>
      <trkpt lat="44.99696" lon="6.44845">
        <ele>2516.4</ele>
        <time>2022-01-14T10:46:36Z</time>
      </trkpt>
      <trkpt lat="44.99696" lon="6.44844">
        <ele>2516.4</ele>
        <time>2022-01-14T10:46:37Z</time>
      </trkpt>
      <trkpt lat="44.99696" lon="6.44844">
        <ele>2516.4</ele>
        <time>2022-01-14T10:46:38Z</time>
      </trkpt>
      <trkpt lat="44.99696" lon="6.44844">
        <ele>2516.4</ele>
        <time>2022-01-14T10:46:39Z</time>
      </trkpt>
      <trkpt lat="44.99696" lon="6.44843">
        <ele>2516.4</ele>
        <time>2022-01-14T10:46:40Z</time>
      </trkpt>
      <trkpt lat="44.99696" lon="6.44843">
        <ele>2516.4</ele>
        <time>2022-01-14T10:46:41Z</time>
      </trkpt>
      <trkpt lat="44.99696" lon="6.44843">
        <ele>2516.4</ele>
        <time>2022-01-14T10:46:42Z</time>
      </trkpt>
      <trkpt lat="44.99697" lon="6.44842">
        <ele>2516.4</ele>
        <time>2022-01-14T10:46:43Z</time>
      </trkpt>
      <trkpt lat="44.99697" lon="6.44842">
        <ele>2516.4</ele>
        <time>2022-01-14T10:46:44Z</time>
      </trkpt>
      <trkpt lat="44.99697" lon="6.44842">
        <ele>2516.4</ele>
        <time>2022-01-14T10:46:45Z</time>
      </trkpt>
      <trkpt lat="44.99697" lon="6.44842">
        <ele>2515.8</ele>
        <time>2022-01-14T10:46:46Z</time>
      </trkpt>
      <trkpt lat="44.99697" lon="6.44841">
        <ele>2515.8</ele>
        <time>2022-01-14T10:46:47Z</time>
      </trkpt>
      <trkpt lat="44.99697" lon="6.44841">
        <ele>2515.8</ele>
        <time>2022-01-14T10:46:48Z</time>
      </trkpt>
      <trkpt lat="44.99697" lon="6.44841">
        <ele>2515.8</ele>
        <time>2022-01-14T10:46:49Z</time>
      </trkpt>
      <trkpt lat="44.99697" lon="6.44841">
        <ele>2515.8</ele>
        <time>2022-01-14T10:46:50Z</time>
      </trkpt>
      <trkpt lat="44.99697" lon="6.44841">
        <ele>2515.8</ele>
        <time>2022-01-14T10:46:51Z</time>
      </trkpt>
      <trkpt lat="44.99697" lon="6.44841">
        <ele>2515.8</ele>
        <time>2022-01-14T10:46:52Z</time>
      </trkpt>
      <trkpt lat="44.99696" lon="6.4484">
        <ele>2515.8</ele>
        <time>2022-01-14T10:46:53Z</time>
      </trkpt>
      <trkpt lat="44.99696" lon="6.44841">
        <ele>2515.8</ele>
        <time>2022-01-14T10:46:54Z</time>
      </trkpt>
      <trkpt lat="44.99696" lon="6.4484">
        <ele>2515.8</ele>
        <time>2022-01-14T10:46:55Z</time>
      </trkpt>
      <trkpt lat="44.99697" lon="6.4484">
        <ele>2515.8</ele>
        <time>2022-01-14T10:46:56Z</time>
      </trkpt>
      <trkpt lat="44.99697" lon="6.44841">
        <ele>2515.8</ele>
        <time>2022-01-14T10:46:57Z</time>
      </trkpt>
      <trkpt lat="44.99697" lon="6.44841">
        <ele>2515.8</ele>
        <time>2022-01-14T10:46:58Z</time>
      </trkpt>
      <trkpt lat="44.99697" lon="6.44841">
        <ele>2515.8</ele>
        <time>2022-01-14T10:46:59Z</time>
      </trkpt>
      <trkpt lat="44.99697" lon="6.4484">
        <ele>2515.8</ele>
        <time>2022-01-14T10:47:00Z</time>
      </trkpt>
      <trkpt lat="44.99698" lon="6.4484">
        <ele>2515.8</ele>
        <time>2022-01-14T10:47:01Z</time>
      </trkpt>
      <trkpt lat="44.99698" lon="6.4484">
        <ele>2515.1</ele>
        <time>2022-01-14T10:47:02Z</time>
      </trkpt>
      <trkpt lat="44.99698" lon="6.4484">
        <ele>2515.1</ele>
        <time>2022-01-14T10:47:03Z</time>
      </trkpt>
      <trkpt lat="44.99698" lon="6.4484">
        <ele>2515.1</ele>
        <time>2022-01-14T10:47:04Z</time>
      </trkpt>
      <trkpt lat="44.99699" lon="6.44837">
        <ele>2514</ele>
        <time>2022-01-14T10:47:05Z</time>
      </trkpt>
      <trkpt lat="44.99701" lon="6.44835">
        <ele>2512.7</ele>
        <time>2022-01-14T10:47:06Z</time>
      </trkpt>
      <trkpt lat="44.99702" lon="6.44835">
        <ele>2512.7</ele>
        <time>2022-01-14T10:47:07Z</time>
      </trkpt>
      <trkpt lat="44.99702" lon="6.44835">
        <ele>2512.7</ele>
        <time>2022-01-14T10:47:08Z</time>
      </trkpt>
      <trkpt lat="44.99701" lon="6.44834">
        <ele>2512.7</ele>
        <time>2022-01-14T10:47:09Z</time>
      </trkpt>
      <trkpt lat="44.99701" lon="6.44834">
        <ele>2514</ele>
        <time>2022-01-14T10:47:10Z</time>
      </trkpt>
      <trkpt lat="44.997" lon="6.44834">
        <ele>2514</ele>
        <time>2022-01-14T10:47:11Z</time>
      </trkpt>
      <trkpt lat="44.997" lon="6.44834">
        <ele>2514</ele>
        <time>2022-01-14T10:47:12Z</time>
      </trkpt>
      <trkpt lat="44.997" lon="6.44834">
        <ele>2514</ele>
        <time>2022-01-14T10:47:13Z</time>
      </trkpt>
      <trkpt lat="44.997" lon="6.44834">
        <ele>2514</ele>
        <time>2022-01-14T10:47:14Z</time>
      </trkpt>
      <trkpt lat="44.997" lon="6.44834">
        <ele>2514</ele>
        <time>2022-01-14T10:47:15Z</time>
      </trkpt>
      <trkpt lat="44.997" lon="6.44834">
        <ele>2514</ele>
        <time>2022-01-14T10:47:16Z</time>
      </trkpt>
      <trkpt lat="44.997" lon="6.44834">
        <ele>2514</ele>
        <time>2022-01-14T10:47:17Z</time>
      </trkpt>
      <trkpt lat="44.99699" lon="6.44835">
        <ele>2514</ele>
        <time>2022-01-14T10:47:18Z</time>
      </trkpt>
      <trkpt lat="44.99698" lon="6.44835">
        <ele>2514</ele>
        <time>2022-01-14T10:47:19Z</time>
      </trkpt>
      <trkpt lat="44.99698" lon="6.44836">
        <ele>2514</ele>
        <time>2022-01-14T10:47:20Z</time>
      </trkpt>
      <trkpt lat="44.99698" lon="6.44836">
        <ele>2514</ele>
        <time>2022-01-14T10:47:21Z</time>
      </trkpt>
      <trkpt lat="44.99698" lon="6.44836">
        <ele>2514</ele>
        <time>2022-01-14T10:47:22Z</time>
      </trkpt>
      <trkpt lat="44.99698" lon="6.44836">
        <ele>2514</ele>
        <time>2022-01-14T10:47:23Z</time>
      </trkpt>
      <trkpt lat="44.99698" lon="6.44836">
        <ele>2514</ele>
        <time>2022-01-14T10:47:24Z</time>
      </trkpt>
      <trkpt lat="44.99697" lon="6.44836">
        <ele>2515.4</ele>
        <time>2022-01-14T10:47:25Z</time>
      </trkpt>
      <trkpt lat="44.99696" lon="6.44836">
        <ele>2515.4</ele>
        <time>2022-01-14T10:47:26Z</time>
      </trkpt>
      <trkpt lat="44.99696" lon="6.44836">
        <ele>2515.4</ele>
        <time>2022-01-14T10:47:27Z</time>
      </trkpt>
      <trkpt lat="44.99696" lon="6.44836">
        <ele>2515.4</ele>
        <time>2022-01-14T10:47:28Z</time>
      </trkpt>
      <trkpt lat="44.99696" lon="6.44836">
        <ele>2515.4</ele>
        <time>2022-01-14T10:47:29Z</time>
      </trkpt>
      <trkpt lat="44.99696" lon="6.44836">
        <ele>2515.4</ele>
        <time>2022-01-14T10:47:30Z</time>
      </trkpt>
      <trkpt lat="44.99695" lon="6.44836">
        <ele>2515.4</ele>
        <time>2022-01-14T10:47:31Z</time>
      </trkpt>
      <trkpt lat="44.99695" lon="6.44836">
        <ele>2515.4</ele>
        <time>2022-01-14T10:47:32Z</time>
      </trkpt>
      <trkpt lat="44.99695" lon="6.44836">
        <ele>2515.4</ele>
        <time>2022-01-14T10:47:33Z</time>
      </trkpt>
      <trkpt lat="44.99695" lon="6.44836">
        <ele>2515.4</ele>
        <time>2022-01-14T10:47:34Z</time>
      </trkpt>
      <trkpt lat="44.99695" lon="6.44835">
        <ele>2515.4</ele>
        <time>2022-01-14T10:47:35Z</time>
      </trkpt>
      <trkpt lat="44.99695" lon="6.44835">
        <ele>2515.4</ele>
        <time>2022-01-14T10:47:36Z</time>
      </trkpt>
      <trkpt lat="44.99695" lon="6.44835">
        <ele>2515.4</ele>
        <time>2022-01-14T10:47:37Z</time>
      </trkpt>
      <trkpt lat="44.99695" lon="6.44835">
        <ele>2515.4</ele>
        <time>2022-01-14T10:47:38Z</time>
      </trkpt>
      <trkpt lat="44.99695" lon="6.44835">
        <ele>2515.4</ele>
        <time>2022-01-14T10:47:39Z</time>
      </trkpt>
      <trkpt lat="44.99695" lon="6.44835">
        <ele>2515.4</ele>
        <time>2022-01-14T10:47:40Z</time>
      </trkpt>
      <trkpt lat="44.99695" lon="6.44835">
        <ele>2515.4</ele>
        <time>2022-01-14T10:47:41Z</time>
      </trkpt>
      <trkpt lat="44.99695" lon="6.44835">
        <ele>2515.4</ele>
        <time>2022-01-14T10:47:42Z</time>
      </trkpt>
      <trkpt lat="44.99695" lon="6.44835">
        <ele>2515.4</ele>
        <time>2022-01-14T10:47:43Z</time>
      </trkpt>
      <trkpt lat="44.99695" lon="6.44835">
        <ele>2515.4</ele>
        <time>2022-01-14T10:47:44Z</time>
      </trkpt>
      <trkpt lat="44.99695" lon="6.44835">
        <ele>2515.4</ele>
        <time>2022-01-14T10:47:45Z</time>
      </trkpt>
      <trkpt lat="44.99694" lon="6.44835">
        <ele>2516.8</ele>
        <time>2022-01-14T10:47:46Z</time>
      </trkpt>
      <trkpt lat="44.99694" lon="6.44835">
        <ele>2516.8</ele>
        <time>2022-01-14T10:47:47Z</time>
      </trkpt>
      <trkpt lat="44.99694" lon="6.44835">
        <ele>2516.8</ele>
        <time>2022-01-14T10:47:48Z</time>
      </trkpt>
      <trkpt lat="44.99694" lon="6.44835">
        <ele>2516.8</ele>
        <time>2022-01-14T10:47:49Z</time>
      </trkpt>
      <trkpt lat="44.99694" lon="6.44835">
        <ele>2516.8</ele>
        <time>2022-01-14T10:47:50Z</time>
      </trkpt>
      <trkpt lat="44.99694" lon="6.44835">
        <ele>2516.8</ele>
        <time>2022-01-14T10:47:51Z</time>
      </trkpt>
      <trkpt lat="44.99694" lon="6.44835">
        <ele>2516.8</ele>
        <time>2022-01-14T10:47:52Z</time>
      </trkpt>
      <trkpt lat="44.99694" lon="6.44835">
        <ele>2516.8</ele>
        <time>2022-01-14T10:47:53Z</time>
      </trkpt>
      <trkpt lat="44.99694" lon="6.44834">
        <ele>2516.8</ele>
        <time>2022-01-14T10:47:54Z</time>
      </trkpt>
      <trkpt lat="44.99694" lon="6.44835">
        <ele>2516.8</ele>
        <time>2022-01-14T10:47:55Z</time>
      </trkpt>
      <trkpt lat="44.99694" lon="6.44834">
        <ele>2516.8</ele>
        <time>2022-01-14T10:47:56Z</time>
      </trkpt>
      <trkpt lat="44.99693" lon="6.44833">
        <ele>2516.8</ele>
        <time>2022-01-14T10:47:57Z</time>
      </trkpt>
      <trkpt lat="44.99693" lon="6.44833">
        <ele>2517.2</ele>
        <time>2022-01-14T10:47:58Z</time>
      </trkpt>
      <trkpt lat="44.99693" lon="6.44832">
        <ele>2517.2</ele>
        <time>2022-01-14T10:47:59Z</time>
      </trkpt>
      <trkpt lat="44.99693" lon="6.44832">
        <ele>2517.2</ele>
        <time>2022-01-14T10:48:00Z</time>
      </trkpt>
      <trkpt lat="44.99693" lon="6.44832">
        <ele>2517.2</ele>
        <time>2022-01-14T10:48:01Z</time>
      </trkpt>
      <trkpt lat="44.99692" lon="6.44831">
        <ele>2517.2</ele>
        <time>2022-01-14T10:48:02Z</time>
      </trkpt>
      <trkpt lat="44.99691" lon="6.4483">
        <ele>2518.9</ele>
        <time>2022-01-14T10:48:03Z</time>
      </trkpt>
      <trkpt lat="44.9969" lon="6.44829">
        <ele>2518.9</ele>
        <time>2022-01-14T10:48:04Z</time>
      </trkpt>
      <trkpt lat="44.9969" lon="6.44829">
        <ele>2518.9</ele>
        <time>2022-01-14T10:48:05Z</time>
      </trkpt>
      <trkpt lat="44.99689" lon="6.44828">
        <ele>2519.9</ele>
        <time>2022-01-14T10:48:06Z</time>
      </trkpt>
      <trkpt lat="44.99689" lon="6.44827">
        <ele>2519.9</ele>
        <time>2022-01-14T10:48:07Z</time>
      </trkpt>
      <trkpt lat="44.99689" lon="6.44827">
        <ele>2519.9</ele>
        <time>2022-01-14T10:48:08Z</time>
      </trkpt>
      <trkpt lat="44.99688" lon="6.44826">
        <ele>2520.6</ele>
        <time>2022-01-14T10:48:09Z</time>
      </trkpt>
      <trkpt lat="44.99688" lon="6.44825">
        <ele>2520.6</ele>
        <time>2022-01-14T10:48:10Z</time>
      </trkpt>
      <trkpt lat="44.99688" lon="6.44827">
        <ele>2520.6</ele>
        <time>2022-01-14T10:48:11Z</time>
      </trkpt>
      <trkpt lat="44.99688" lon="6.44827">
        <ele>2520.6</ele>
        <time>2022-01-14T10:48:12Z</time>
      </trkpt>
      <trkpt lat="44.99688" lon="6.44828">
        <ele>2520.6</ele>
        <time>2022-01-14T10:48:13Z</time>
      </trkpt>
      <trkpt lat="44.99688" lon="6.44828">
        <ele>2520.6</ele>
        <time>2022-01-14T10:48:14Z</time>
      </trkpt>
      <trkpt lat="44.99688" lon="6.44828">
        <ele>2520.6</ele>
        <time>2022-01-14T10:48:15Z</time>
      </trkpt>
      <trkpt lat="44.99688" lon="6.44828">
        <ele>2520.6</ele>
        <time>2022-01-14T10:48:16Z</time>
      </trkpt>
      <trkpt lat="44.99688" lon="6.44828">
        <ele>2520.6</ele>
        <time>2022-01-14T10:48:17Z</time>
      </trkpt>
      <trkpt lat="44.99688" lon="6.4483">
        <ele>2519.5</ele>
        <time>2022-01-14T10:48:18Z</time>
      </trkpt>
      <trkpt lat="44.99689" lon="6.44831">
        <ele>2518.9</ele>
        <time>2022-01-14T10:48:19Z</time>
      </trkpt>
      <trkpt lat="44.99689" lon="6.44831">
        <ele>2518.9</ele>
        <time>2022-01-14T10:48:20Z</time>
      </trkpt>
      <trkpt lat="44.99689" lon="6.44831">
        <ele>2518.9</ele>
        <time>2022-01-14T10:48:21Z</time>
      </trkpt>
      <trkpt lat="44.99689" lon="6.44831">
        <ele>2518.9</ele>
        <time>2022-01-14T10:48:22Z</time>
      </trkpt>
      <trkpt lat="44.99689" lon="6.44831">
        <ele>2518.9</ele>
        <time>2022-01-14T10:48:23Z</time>
      </trkpt>
      <trkpt lat="44.99689" lon="6.44831">
        <ele>2518.9</ele>
        <time>2022-01-14T10:48:24Z</time>
      </trkpt>
      <trkpt lat="44.99689" lon="6.44831">
        <ele>2518.9</ele>
        <time>2022-01-14T10:48:25Z</time>
      </trkpt>
      <trkpt lat="44.99689" lon="6.44831">
        <ele>2518.9</ele>
        <time>2022-01-14T10:48:26Z</time>
      </trkpt>
      <trkpt lat="44.99689" lon="6.44832">
        <ele>2518.9</ele>
        <time>2022-01-14T10:48:27Z</time>
      </trkpt>
      <trkpt lat="44.99689" lon="6.44832">
        <ele>2518.9</ele>
        <time>2022-01-14T10:48:28Z</time>
      </trkpt>
      <trkpt lat="44.99688" lon="6.44832">
        <ele>2519.5</ele>
        <time>2022-01-14T10:48:29Z</time>
      </trkpt>
      <trkpt lat="44.99688" lon="6.44832">
        <ele>2519.5</ele>
        <time>2022-01-14T10:48:30Z</time>
      </trkpt>
      <trkpt lat="44.99688" lon="6.44832">
        <ele>2519.5</ele>
        <time>2022-01-14T10:48:31Z</time>
      </trkpt>
      <trkpt lat="44.99688" lon="6.44832">
        <ele>2519.5</ele>
        <time>2022-01-14T10:48:32Z</time>
      </trkpt>
      <trkpt lat="44.99688" lon="6.44833">
        <ele>2519.5</ele>
        <time>2022-01-14T10:48:33Z</time>
      </trkpt>
      <trkpt lat="44.99689" lon="6.44834">
        <ele>2517.9</ele>
        <time>2022-01-14T10:48:34Z</time>
      </trkpt>
      <trkpt lat="44.99689" lon="6.44836">
        <ele>2517.9</ele>
        <time>2022-01-14T10:48:35Z</time>
      </trkpt>
      <trkpt lat="44.99689" lon="6.44836">
        <ele>2517.9</ele>
        <time>2022-01-14T10:48:36Z</time>
      </trkpt>
      <trkpt lat="44.99689" lon="6.44838">
        <ele>2517.2</ele>
        <time>2022-01-14T10:48:37Z</time>
      </trkpt>
      <trkpt lat="44.99689" lon="6.44838">
        <ele>2517.2</ele>
        <time>2022-01-14T10:48:38Z</time>
      </trkpt>
      <trkpt lat="44.99689" lon="6.44838">
        <ele>2517.2</ele>
        <time>2022-01-14T10:48:39Z</time>
      </trkpt>
      <trkpt lat="44.99689" lon="6.44838">
        <ele>2517.2</ele>
        <time>2022-01-14T10:48:40Z</time>
      </trkpt>
      <trkpt lat="44.99689" lon="6.44838">
        <ele>2517.2</ele>
        <time>2022-01-14T10:48:41Z</time>
      </trkpt>
      <trkpt lat="44.99689" lon="6.44838">
        <ele>2517.2</ele>
        <time>2022-01-14T10:48:42Z</time>
      </trkpt>
      <trkpt lat="44.9969" lon="6.44838">
        <ele>2517.2</ele>
        <time>2022-01-14T10:48:43Z</time>
      </trkpt>
      <trkpt lat="44.9969" lon="6.44838">
        <ele>2517.2</ele>
        <time>2022-01-14T10:48:44Z</time>
      </trkpt>
      <trkpt lat="44.9969" lon="6.44838">
        <ele>2517.2</ele>
        <time>2022-01-14T10:48:45Z</time>
      </trkpt>
      <trkpt lat="44.99691" lon="6.44838">
        <ele>2517.2</ele>
        <time>2022-01-14T10:48:46Z</time>
      </trkpt>
      <trkpt lat="44.99691" lon="6.44837">
        <ele>2517.9</ele>
        <time>2022-01-14T10:48:47Z</time>
      </trkpt>
      <trkpt lat="44.99692" lon="6.44836">
        <ele>2516.8</ele>
        <time>2022-01-14T10:48:48Z</time>
      </trkpt>
      <trkpt lat="44.99692" lon="6.44836">
        <ele>2516.8</ele>
        <time>2022-01-14T10:48:49Z</time>
      </trkpt>
      <trkpt lat="44.99693" lon="6.44836">
        <ele>2516.8</ele>
        <time>2022-01-14T10:48:50Z</time>
      </trkpt>
      <trkpt lat="44.99693" lon="6.44835">
        <ele>2516.8</ele>
        <time>2022-01-14T10:48:51Z</time>
      </trkpt>
      <trkpt lat="44.99693" lon="6.44835">
        <ele>2516.8</ele>
        <time>2022-01-14T10:48:52Z</time>
      </trkpt>
      <trkpt lat="44.99693" lon="6.44835">
        <ele>2516.8</ele>
        <time>2022-01-14T10:48:53Z</time>
      </trkpt>
      <trkpt lat="44.99693" lon="6.44836">
        <ele>2516.8</ele>
        <time>2022-01-14T10:48:54Z</time>
      </trkpt>
      <trkpt lat="44.99693" lon="6.44836">
        <ele>2516.8</ele>
        <time>2022-01-14T10:48:55Z</time>
      </trkpt>
      <trkpt lat="44.99693" lon="6.44836">
        <ele>2516.8</ele>
        <time>2022-01-14T10:48:56Z</time>
      </trkpt>
      <trkpt lat="44.99693" lon="6.44835">
        <ele>2516.8</ele>
        <time>2022-01-14T10:48:57Z</time>
      </trkpt>
      <trkpt lat="44.99693" lon="6.44835">
        <ele>2516.8</ele>
        <time>2022-01-14T10:48:58Z</time>
      </trkpt>
      <trkpt lat="44.99693" lon="6.44835">
        <ele>2516.8</ele>
        <time>2022-01-14T10:48:59Z</time>
      </trkpt>
      <trkpt lat="44.99693" lon="6.44835">
        <ele>2516.8</ele>
        <time>2022-01-14T10:49:00Z</time>
      </trkpt>
      <trkpt lat="44.99693" lon="6.44835">
        <ele>2516.8</ele>
        <time>2022-01-14T10:49:01Z</time>
      </trkpt>
      <trkpt lat="44.99693" lon="6.44835">
        <ele>2516.8</ele>
        <time>2022-01-14T10:49:02Z</time>
      </trkpt>
      <trkpt lat="44.99693" lon="6.44836">
        <ele>2516.8</ele>
        <time>2022-01-14T10:49:03Z</time>
      </trkpt>
      <trkpt lat="44.99693" lon="6.44836">
        <ele>2516.8</ele>
        <time>2022-01-14T10:49:04Z</time>
      </trkpt>
      <trkpt lat="44.99693" lon="6.44837">
        <ele>2516.8</ele>
        <time>2022-01-14T10:49:05Z</time>
      </trkpt>
      <trkpt lat="44.99693" lon="6.44837">
        <ele>2516.8</ele>
        <time>2022-01-14T10:49:06Z</time>
      </trkpt>
      <trkpt lat="44.99693" lon="6.44837">
        <ele>2516.8</ele>
        <time>2022-01-14T10:49:07Z</time>
      </trkpt>
      <trkpt lat="44.99693" lon="6.44837">
        <ele>2516.8</ele>
        <time>2022-01-14T10:49:08Z</time>
      </trkpt>
      <trkpt lat="44.99693" lon="6.44837">
        <ele>2516.8</ele>
        <time>2022-01-14T10:49:09Z</time>
      </trkpt>
      <trkpt lat="44.99693" lon="6.44837">
        <ele>2516.8</ele>
        <time>2022-01-14T10:49:10Z</time>
      </trkpt>
      <trkpt lat="44.99693" lon="6.44837">
        <ele>2516.8</ele>
        <time>2022-01-14T10:49:11Z</time>
      </trkpt>
      <trkpt lat="44.99694" lon="6.44837">
        <ele>2516.8</ele>
        <time>2022-01-14T10:49:12Z</time>
      </trkpt>
      <trkpt lat="44.99694" lon="6.44837">
        <ele>2516.8</ele>
        <time>2022-01-14T10:49:13Z</time>
      </trkpt>
      <trkpt lat="44.99694" lon="6.44837">
        <ele>2516.8</ele>
        <time>2022-01-14T10:49:14Z</time>
      </trkpt>
      <trkpt lat="44.99694" lon="6.44837">
        <ele>2516.8</ele>
        <time>2022-01-14T10:49:15Z</time>
      </trkpt>
      <trkpt lat="44.99694" lon="6.44837">
        <ele>2516.8</ele>
        <time>2022-01-14T10:49:16Z</time>
      </trkpt>
      <trkpt lat="44.99694" lon="6.44837">
        <ele>2516.8</ele>
        <time>2022-01-14T10:49:17Z</time>
      </trkpt>
      <trkpt lat="44.99694" lon="6.44837">
        <ele>2516.8</ele>
        <time>2022-01-14T10:49:18Z</time>
      </trkpt>
      <trkpt lat="44.99694" lon="6.44836">
        <ele>2516.8</ele>
        <time>2022-01-14T10:49:19Z</time>
      </trkpt>
      <trkpt lat="44.99694" lon="6.44836">
        <ele>2516.8</ele>
        <time>2022-01-14T10:49:20Z</time>
      </trkpt>
      <trkpt lat="44.99694" lon="6.44836">
        <ele>2516.8</ele>
        <time>2022-01-14T10:49:21Z</time>
      </trkpt>
      <trkpt lat="44.99694" lon="6.44836">
        <ele>2516.8</ele>
        <time>2022-01-14T10:49:22Z</time>
      </trkpt>
      <trkpt lat="44.99694" lon="6.44836">
        <ele>2516.8</ele>
        <time>2022-01-14T10:49:23Z</time>
      </trkpt>
      <trkpt lat="44.99694" lon="6.44836">
        <ele>2516.8</ele>
        <time>2022-01-14T10:49:24Z</time>
      </trkpt>
      <trkpt lat="44.99694" lon="6.44836">
        <ele>2516.8</ele>
        <time>2022-01-14T10:49:25Z</time>
      </trkpt>
      <trkpt lat="44.99694" lon="6.44836">
        <ele>2516.8</ele>
        <time>2022-01-14T10:49:26Z</time>
      </trkpt>
      <trkpt lat="44.99694" lon="6.44836">
        <ele>2516.8</ele>
        <time>2022-01-14T10:49:27Z</time>
      </trkpt>
      <trkpt lat="44.99695" lon="6.44835">
        <ele>2515.4</ele>
        <time>2022-01-14T10:49:28Z</time>
      </trkpt>
      <trkpt lat="44.99695" lon="6.44835">
        <ele>2515.4</ele>
        <time>2022-01-14T10:49:29Z</time>
      </trkpt>
      <trkpt lat="44.99695" lon="6.44835">
        <ele>2515.4</ele>
        <time>2022-01-14T10:49:30Z</time>
      </trkpt>
      <trkpt lat="44.99695" lon="6.44835">
        <ele>2515.4</ele>
        <time>2022-01-14T10:49:31Z</time>
      </trkpt>
      <trkpt lat="44.99695" lon="6.44835">
        <ele>2515.4</ele>
        <time>2022-01-14T10:49:32Z</time>
      </trkpt>
      <trkpt lat="44.99695" lon="6.44835">
        <ele>2515.4</ele>
        <time>2022-01-14T10:49:33Z</time>
      </trkpt>
      <trkpt lat="44.99695" lon="6.44835">
        <ele>2515.4</ele>
        <time>2022-01-14T10:49:34Z</time>
      </trkpt>
      <trkpt lat="44.99695" lon="6.44835">
        <ele>2515.4</ele>
        <time>2022-01-14T10:49:35Z</time>
      </trkpt>
      <trkpt lat="44.99695" lon="6.44835">
        <ele>2515.4</ele>
        <time>2022-01-14T10:49:36Z</time>
      </trkpt>
      <trkpt lat="44.99695" lon="6.44835">
        <ele>2515.4</ele>
        <time>2022-01-14T10:49:37Z</time>
      </trkpt>
      <trkpt lat="44.99695" lon="6.44836">
        <ele>2515.4</ele>
        <time>2022-01-14T10:49:38Z</time>
      </trkpt>
      <trkpt lat="44.99695" lon="6.44836">
        <ele>2515.4</ele>
        <time>2022-01-14T10:49:39Z</time>
      </trkpt>
      <trkpt lat="44.99695" lon="6.44836">
        <ele>2515.4</ele>
        <time>2022-01-14T10:49:40Z</time>
      </trkpt>
      <trkpt lat="44.99694" lon="6.44835">
        <ele>2516.8</ele>
        <time>2022-01-14T10:49:41Z</time>
      </trkpt>
      <trkpt lat="44.99694" lon="6.44835">
        <ele>2516.8</ele>
        <time>2022-01-14T10:49:42Z</time>
      </trkpt>
      <trkpt lat="44.99694" lon="6.44835">
        <ele>2516.8</ele>
        <time>2022-01-14T10:49:43Z</time>
      </trkpt>
      <trkpt lat="44.99694" lon="6.44835">
        <ele>2516.8</ele>
        <time>2022-01-14T10:49:44Z</time>
      </trkpt>
      <trkpt lat="44.99694" lon="6.44835">
        <ele>2516.8</ele>
        <time>2022-01-14T10:49:45Z</time>
      </trkpt>
      <trkpt lat="44.99694" lon="6.44836">
        <ele>2516.8</ele>
        <time>2022-01-14T10:49:46Z</time>
      </trkpt>
      <trkpt lat="44.99693" lon="6.44836">
        <ele>2516.8</ele>
        <time>2022-01-14T10:49:47Z</time>
      </trkpt>
      <trkpt lat="44.99693" lon="6.44837">
        <ele>2516.8</ele>
        <time>2022-01-14T10:49:48Z</time>
      </trkpt>
      <trkpt lat="44.99693" lon="6.44837">
        <ele>2516.8</ele>
        <time>2022-01-14T10:49:49Z</time>
      </trkpt>
      <trkpt lat="44.99693" lon="6.44837">
        <ele>2516.6</ele>
        <time>2022-01-14T10:49:50Z</time>
      </trkpt>
      <trkpt lat="44.99693" lon="6.44838">
        <ele>2516.6</ele>
        <time>2022-01-14T10:49:51Z</time>
      </trkpt>
      <trkpt lat="44.99693" lon="6.44838">
        <ele>2516.6</ele>
        <time>2022-01-14T10:49:52Z</time>
      </trkpt>
      <trkpt lat="44.99693" lon="6.44837">
        <ele>2516.8</ele>
        <time>2022-01-14T10:49:53Z</time>
      </trkpt>
      <trkpt lat="44.99693" lon="6.44837">
        <ele>2516.8</ele>
        <time>2022-01-14T10:49:54Z</time>
      </trkpt>
      <trkpt lat="44.99693" lon="6.44838">
        <ele>2516.6</ele>
        <time>2022-01-14T10:49:55Z</time>
      </trkpt>
      <trkpt lat="44.99694" lon="6.44839">
        <ele>2516.6</ele>
        <time>2022-01-14T10:49:56Z</time>
      </trkpt>
      <trkpt lat="44.99695" lon="6.44839">
        <ele>2515.8</ele>
        <time>2022-01-14T10:49:57Z</time>
      </trkpt>
      <trkpt lat="44.99695" lon="6.44839">
        <ele>2515.8</ele>
        <time>2022-01-14T10:49:58Z</time>
      </trkpt>
      <trkpt lat="44.99695" lon="6.44839">
        <ele>2515.8</ele>
        <time>2022-01-14T10:49:59Z</time>
      </trkpt>
      <trkpt lat="44.99695" lon="6.44839">
        <ele>2515.8</ele>
        <time>2022-01-14T10:50:00Z</time>
      </trkpt>
      <trkpt lat="44.99695" lon="6.44838">
        <ele>2515.8</ele>
        <time>2022-01-14T10:50:01Z</time>
      </trkpt>
      <trkpt lat="44.99696" lon="6.44838">
        <ele>2515.8</ele>
        <time>2022-01-14T10:50:02Z</time>
      </trkpt>
      <trkpt lat="44.99696" lon="6.44839">
        <ele>2515.8</ele>
        <time>2022-01-14T10:50:03Z</time>
      </trkpt>
      <trkpt lat="44.99695" lon="6.44837">
        <ele>2515.8</ele>
        <time>2022-01-14T10:50:04Z</time>
      </trkpt>
      <trkpt lat="44.99695" lon="6.44837">
        <ele>2515.4</ele>
        <time>2022-01-14T10:50:05Z</time>
      </trkpt>
      <trkpt lat="44.99695" lon="6.44836">
        <ele>2515.4</ele>
        <time>2022-01-14T10:50:06Z</time>
      </trkpt>
      <trkpt lat="44.99695" lon="6.44836">
        <ele>2515.4</ele>
        <time>2022-01-14T10:50:07Z</time>
      </trkpt>
      <trkpt lat="44.99695" lon="6.44836">
        <ele>2515.4</ele>
        <time>2022-01-14T10:50:08Z</time>
      </trkpt>
      <trkpt lat="44.99695" lon="6.44836">
        <ele>2515.4</ele>
        <time>2022-01-14T10:50:09Z</time>
      </trkpt>
      <trkpt lat="44.99694" lon="6.44835">
        <ele>2516.8</ele>
        <time>2022-01-14T10:50:10Z</time>
      </trkpt>
      <trkpt lat="44.99695" lon="6.44835">
        <ele>2515.4</ele>
        <time>2022-01-14T10:50:11Z</time>
      </trkpt>
      <trkpt lat="44.99695" lon="6.44835">
        <ele>2515.4</ele>
        <time>2022-01-14T10:50:12Z</time>
      </trkpt>
      <trkpt lat="44.99695" lon="6.44835">
        <ele>2515.4</ele>
        <time>2022-01-14T10:50:13Z</time>
      </trkpt>
      <trkpt lat="44.99695" lon="6.44835">
        <ele>2515.4</ele>
        <time>2022-01-14T10:50:14Z</time>
      </trkpt>
      <trkpt lat="44.99695" lon="6.44835">
        <ele>2515.4</ele>
        <time>2022-01-14T10:50:15Z</time>
      </trkpt>
      <trkpt lat="44.99695" lon="6.44835">
        <ele>2515.4</ele>
        <time>2022-01-14T10:50:16Z</time>
      </trkpt>
      <trkpt lat="44.99695" lon="6.44835">
        <ele>2515.4</ele>
        <time>2022-01-14T10:50:17Z</time>
      </trkpt>
      <trkpt lat="44.99695" lon="6.44835">
        <ele>2515.4</ele>
        <time>2022-01-14T10:50:18Z</time>
      </trkpt>
      <trkpt lat="44.99694" lon="6.44835">
        <ele>2516.8</ele>
        <time>2022-01-14T10:50:19Z</time>
      </trkpt>
      <trkpt lat="44.99694" lon="6.44835">
        <ele>2516.8</ele>
        <time>2022-01-14T10:50:20Z</time>
      </trkpt>
      <trkpt lat="44.99694" lon="6.44835">
        <ele>2516.8</ele>
        <time>2022-01-14T10:50:21Z</time>
      </trkpt>
      <trkpt lat="44.99694" lon="6.44835">
        <ele>2516.8</ele>
        <time>2022-01-14T10:50:22Z</time>
      </trkpt>
      <trkpt lat="44.99694" lon="6.44835">
        <ele>2516.8</ele>
        <time>2022-01-14T10:50:23Z</time>
      </trkpt>
      <trkpt lat="44.99694" lon="6.44835">
        <ele>2516.8</ele>
        <time>2022-01-14T10:50:24Z</time>
      </trkpt>
      <trkpt lat="44.99694" lon="6.44836">
        <ele>2516.8</ele>
        <time>2022-01-14T10:50:25Z</time>
      </trkpt>
      <trkpt lat="44.99694" lon="6.44836">
        <ele>2516.8</ele>
        <time>2022-01-14T10:50:26Z</time>
      </trkpt>
      <trkpt lat="44.99694" lon="6.44836">
        <ele>2516.8</ele>
        <time>2022-01-14T10:50:27Z</time>
      </trkpt>
      <trkpt lat="44.99694" lon="6.44836">
        <ele>2516.8</ele>
        <time>2022-01-14T10:50:28Z</time>
      </trkpt>
      <trkpt lat="44.99695" lon="6.44838">
        <ele>2515.8</ele>
        <time>2022-01-14T10:50:29Z</time>
      </trkpt>
      <trkpt lat="44.99695" lon="6.44838">
        <ele>2515.8</ele>
        <time>2022-01-14T10:50:30Z</time>
      </trkpt>
      <trkpt lat="44.99695" lon="6.44838">
        <ele>2515.8</ele>
        <time>2022-01-14T10:50:31Z</time>
      </trkpt>
      <trkpt lat="44.99696" lon="6.44838">
        <ele>2515.8</ele>
        <time>2022-01-14T10:50:32Z</time>
      </trkpt>
      <trkpt lat="44.99696" lon="6.44837">
        <ele>2515.4</ele>
        <time>2022-01-14T10:50:33Z</time>
      </trkpt>
      <trkpt lat="44.99696" lon="6.44837">
        <ele>2515.8</ele>
        <time>2022-01-14T10:50:34Z</time>
      </trkpt>
      <trkpt lat="44.99697" lon="6.44838">
        <ele>2515.8</ele>
        <time>2022-01-14T10:50:35Z</time>
      </trkpt>
      <trkpt lat="44.99697" lon="6.44837">
        <ele>2515.8</ele>
        <time>2022-01-14T10:50:36Z</time>
      </trkpt>
      <trkpt lat="44.99697" lon="6.44837">
        <ele>2515.4</ele>
        <time>2022-01-14T10:50:37Z</time>
      </trkpt>
      <trkpt lat="44.99698" lon="6.44837">
        <ele>2515.4</ele>
        <time>2022-01-14T10:50:38Z</time>
      </trkpt>
      <trkpt lat="44.99698" lon="6.44837">
        <ele>2514</ele>
        <time>2022-01-14T10:50:39Z</time>
      </trkpt>
      <trkpt lat="44.99698" lon="6.44838">
        <ele>2515.1</ele>
        <time>2022-01-14T10:50:40Z</time>
      </trkpt>
      <trkpt lat="44.99698" lon="6.44838">
        <ele>2515.1</ele>
        <time>2022-01-14T10:50:41Z</time>
      </trkpt>
      <trkpt lat="44.99698" lon="6.44837">
        <ele>2514</ele>
        <time>2022-01-14T10:50:42Z</time>
      </trkpt>
      <trkpt lat="44.99698" lon="6.44837">
        <ele>2514</ele>
        <time>2022-01-14T10:50:43Z</time>
      </trkpt>
      <trkpt lat="44.99698" lon="6.44837">
        <ele>2514</ele>
        <time>2022-01-14T10:50:44Z</time>
      </trkpt>
      <trkpt lat="44.99698" lon="6.44836">
        <ele>2515.4</ele>
        <time>2022-01-14T10:50:45Z</time>
      </trkpt>
      <trkpt lat="44.99697" lon="6.44836">
        <ele>2515.4</ele>
        <time>2022-01-14T10:50:46Z</time>
      </trkpt>
      <trkpt lat="44.99696" lon="6.44835">
        <ele>2515.4</ele>
        <time>2022-01-14T10:50:47Z</time>
      </trkpt>
      <trkpt lat="44.99696" lon="6.44833">
        <ele>2515</ele>
        <time>2022-01-14T10:50:48Z</time>
      </trkpt>
      <trkpt lat="44.99695" lon="6.44832">
        <ele>2515</ele>
        <time>2022-01-14T10:50:49Z</time>
      </trkpt>
      <trkpt lat="44.99695" lon="6.44831">
        <ele>2515</ele>
        <time>2022-01-14T10:50:50Z</time>
      </trkpt>
      <trkpt lat="44.99695" lon="6.44832">
        <ele>2515</ele>
        <time>2022-01-14T10:50:51Z</time>
      </trkpt>
      <trkpt lat="44.99694" lon="6.44832">
        <ele>2517.2</ele>
        <time>2022-01-14T10:50:52Z</time>
      </trkpt>
      <trkpt lat="44.99694" lon="6.44834">
        <ele>2516.8</ele>
        <time>2022-01-14T10:50:53Z</time>
      </trkpt>
      <trkpt lat="44.99693" lon="6.44834">
        <ele>2516.8</ele>
        <time>2022-01-14T10:50:54Z</time>
      </trkpt>
      <trkpt lat="44.99693" lon="6.44835">
        <ele>2516.8</ele>
        <time>2022-01-14T10:50:55Z</time>
      </trkpt>
      <trkpt lat="44.99692" lon="6.44835">
        <ele>2516.8</ele>
        <time>2022-01-14T10:50:56Z</time>
      </trkpt>
      <trkpt lat="44.99692" lon="6.44835">
        <ele>2516.8</ele>
        <time>2022-01-14T10:50:57Z</time>
      </trkpt>
      <trkpt lat="44.99692" lon="6.44835">
        <ele>2516.8</ele>
        <time>2022-01-14T10:50:58Z</time>
      </trkpt>
      <trkpt lat="44.99692" lon="6.44835">
        <ele>2516.8</ele>
        <time>2022-01-14T10:50:59Z</time>
      </trkpt>
      <trkpt lat="44.99692" lon="6.44835">
        <ele>2516.8</ele>
        <time>2022-01-14T10:51:00Z</time>
      </trkpt>
      <trkpt lat="44.99692" lon="6.44835">
        <ele>2516.8</ele>
        <time>2022-01-14T10:51:01Z</time>
      </trkpt>
      <trkpt lat="44.99692" lon="6.44835">
        <ele>2516.8</ele>
        <time>2022-01-14T10:51:02Z</time>
      </trkpt>
      <trkpt lat="44.99692" lon="6.44835">
        <ele>2516.8</ele>
        <time>2022-01-14T10:51:03Z</time>
      </trkpt>
      <trkpt lat="44.99692" lon="6.44835">
        <ele>2516.8</ele>
        <time>2022-01-14T10:51:04Z</time>
      </trkpt>
      <trkpt lat="44.99691" lon="6.44835">
        <ele>2517.9</ele>
        <time>2022-01-14T10:51:05Z</time>
      </trkpt>
      <trkpt lat="44.99691" lon="6.44834">
        <ele>2517.9</ele>
        <time>2022-01-14T10:51:06Z</time>
      </trkpt>
      <trkpt lat="44.99691" lon="6.44834">
        <ele>2517.9</ele>
        <time>2022-01-14T10:51:07Z</time>
      </trkpt>
      <trkpt lat="44.99691" lon="6.44835">
        <ele>2517.9</ele>
        <time>2022-01-14T10:51:08Z</time>
      </trkpt>
      <trkpt lat="44.99691" lon="6.44835">
        <ele>2517.9</ele>
        <time>2022-01-14T10:51:09Z</time>
      </trkpt>
      <trkpt lat="44.9969" lon="6.44835">
        <ele>2517.9</ele>
        <time>2022-01-14T10:51:10Z</time>
      </trkpt>
      <trkpt lat="44.99691" lon="6.44835">
        <ele>2517.9</ele>
        <time>2022-01-14T10:51:11Z</time>
      </trkpt>
      <trkpt lat="44.99691" lon="6.44835">
        <ele>2517.9</ele>
        <time>2022-01-14T10:51:12Z</time>
      </trkpt>
      <trkpt lat="44.99691" lon="6.44834">
        <ele>2517.9</ele>
        <time>2022-01-14T10:51:13Z</time>
      </trkpt>
      <trkpt lat="44.99691" lon="6.44834">
        <ele>2517.9</ele>
        <time>2022-01-14T10:51:14Z</time>
      </trkpt>
      <trkpt lat="44.99691" lon="6.44834">
        <ele>2517.9</ele>
        <time>2022-01-14T10:51:15Z</time>
      </trkpt>
      <trkpt lat="44.9969" lon="6.44834">
        <ele>2517.9</ele>
        <time>2022-01-14T10:51:16Z</time>
      </trkpt>
      <trkpt lat="44.9969" lon="6.44834">
        <ele>2517.9</ele>
        <time>2022-01-14T10:51:17Z</time>
      </trkpt>
      <trkpt lat="44.9969" lon="6.44834">
        <ele>2517.9</ele>
        <time>2022-01-14T10:51:18Z</time>
      </trkpt>
      <trkpt lat="44.9969" lon="6.44834">
        <ele>2517.9</ele>
        <time>2022-01-14T10:51:19Z</time>
      </trkpt>
      <trkpt lat="44.9969" lon="6.44834">
        <ele>2517.9</ele>
        <time>2022-01-14T10:51:20Z</time>
      </trkpt>
      <trkpt lat="44.9969" lon="6.44834">
        <ele>2517.9</ele>
        <time>2022-01-14T10:51:21Z</time>
      </trkpt>
      <trkpt lat="44.99689" lon="6.44834">
        <ele>2517.9</ele>
        <time>2022-01-14T10:51:22Z</time>
      </trkpt>
      <trkpt lat="44.99689" lon="6.44834">
        <ele>2517.9</ele>
        <time>2022-01-14T10:51:23Z</time>
      </trkpt>
      <trkpt lat="44.99689" lon="6.44834">
        <ele>2517.9</ele>
        <time>2022-01-14T10:51:24Z</time>
      </trkpt>
      <trkpt lat="44.99689" lon="6.44835">
        <ele>2517.9</ele>
        <time>2022-01-14T10:51:25Z</time>
      </trkpt>
      <trkpt lat="44.99689" lon="6.44835">
        <ele>2517.9</ele>
        <time>2022-01-14T10:51:26Z</time>
      </trkpt>
      <trkpt lat="44.99689" lon="6.44835">
        <ele>2517.9</ele>
        <time>2022-01-14T10:51:27Z</time>
      </trkpt>
      <trkpt lat="44.99689" lon="6.44835">
        <ele>2517.9</ele>
        <time>2022-01-14T10:51:28Z</time>
      </trkpt>
      <trkpt lat="44.99689" lon="6.44835">
        <ele>2517.9</ele>
        <time>2022-01-14T10:51:29Z</time>
      </trkpt>
      <trkpt lat="44.99689" lon="6.44835">
        <ele>2517.9</ele>
        <time>2022-01-14T10:51:30Z</time>
      </trkpt>
      <trkpt lat="44.99689" lon="6.44835">
        <ele>2517.9</ele>
        <time>2022-01-14T10:51:31Z</time>
      </trkpt>
      <trkpt lat="44.99689" lon="6.44836">
        <ele>2517.9</ele>
        <time>2022-01-14T10:51:32Z</time>
      </trkpt>
      <trkpt lat="44.9969" lon="6.44838">
        <ele>2517.2</ele>
        <time>2022-01-14T10:51:33Z</time>
      </trkpt>
      <trkpt lat="44.9969" lon="6.44838">
        <ele>2517.2</ele>
        <time>2022-01-14T10:51:34Z</time>
      </trkpt>
      <trkpt lat="44.9969" lon="6.44838">
        <ele>2517.2</ele>
        <time>2022-01-14T10:51:35Z</time>
      </trkpt>
      <trkpt lat="44.9969" lon="6.44836">
        <ele>2517.9</ele>
        <time>2022-01-14T10:51:36Z</time>
      </trkpt>
      <trkpt lat="44.9969" lon="6.44836">
        <ele>2517.9</ele>
        <time>2022-01-14T10:51:37Z</time>
      </trkpt>
      <trkpt lat="44.9969" lon="6.44836">
        <ele>2517.9</ele>
        <time>2022-01-14T10:51:38Z</time>
      </trkpt>
      <trkpt lat="44.9969" lon="6.44837">
        <ele>2517.9</ele>
        <time>2022-01-14T10:51:39Z</time>
      </trkpt>
      <trkpt lat="44.99689" lon="6.44837">
        <ele>2517.9</ele>
        <time>2022-01-14T10:51:40Z</time>
      </trkpt>
      <trkpt lat="44.9969" lon="6.44836">
        <ele>2517.9</ele>
        <time>2022-01-14T10:51:41Z</time>
      </trkpt>
      <trkpt lat="44.9969" lon="6.44836">
        <ele>2517.9</ele>
        <time>2022-01-14T10:51:42Z</time>
      </trkpt>
      <trkpt lat="44.9969" lon="6.44835">
        <ele>2517.9</ele>
        <time>2022-01-14T10:51:43Z</time>
      </trkpt>
      <trkpt lat="44.9969" lon="6.44835">
        <ele>2517.9</ele>
        <time>2022-01-14T10:51:44Z</time>
      </trkpt>
      <trkpt lat="44.9969" lon="6.44836">
        <ele>2517.9</ele>
        <time>2022-01-14T10:51:45Z</time>
      </trkpt>
      <trkpt lat="44.9969" lon="6.44836">
        <ele>2517.9</ele>
        <time>2022-01-14T10:51:46Z</time>
      </trkpt>
      <trkpt lat="44.9969" lon="6.44837">
        <ele>2517.9</ele>
        <time>2022-01-14T10:51:47Z</time>
      </trkpt>
      <trkpt lat="44.99689" lon="6.44836">
        <ele>2517.9</ele>
        <time>2022-01-14T10:51:48Z</time>
      </trkpt>
      <trkpt lat="44.99689" lon="6.44836">
        <ele>2517.9</ele>
        <time>2022-01-14T10:51:49Z</time>
      </trkpt>
      <trkpt lat="44.99689" lon="6.44836">
        <ele>2517.9</ele>
        <time>2022-01-14T10:51:50Z</time>
      </trkpt>
      <trkpt lat="44.99689" lon="6.44836">
        <ele>2517.9</ele>
        <time>2022-01-14T10:51:51Z</time>
      </trkpt>
      <trkpt lat="44.99689" lon="6.44836">
        <ele>2517.9</ele>
        <time>2022-01-14T10:51:52Z</time>
      </trkpt>
      <trkpt lat="44.99689" lon="6.44834">
        <ele>2517.9</ele>
        <time>2022-01-14T10:51:53Z</time>
      </trkpt>
      <trkpt lat="44.99688" lon="6.44834">
        <ele>2518.5</ele>
        <time>2022-01-14T10:51:54Z</time>
      </trkpt>
      <trkpt lat="44.99688" lon="6.44834">
        <ele>2518.5</ele>
        <time>2022-01-14T10:51:55Z</time>
      </trkpt>
      <trkpt lat="44.99688" lon="6.44835">
        <ele>2518.5</ele>
        <time>2022-01-14T10:51:56Z</time>
      </trkpt>
      <trkpt lat="44.99688" lon="6.44835">
        <ele>2518.5</ele>
        <time>2022-01-14T10:51:57Z</time>
      </trkpt>
      <trkpt lat="44.99687" lon="6.44835">
        <ele>2518.5</ele>
        <time>2022-01-14T10:51:58Z</time>
      </trkpt>
      <trkpt lat="44.99687" lon="6.44836">
        <ele>2518.5</ele>
        <time>2022-01-14T10:51:59Z</time>
      </trkpt>
      <trkpt lat="44.99686" lon="6.44836">
        <ele>2518.5</ele>
        <time>2022-01-14T10:52:00Z</time>
      </trkpt>
      <trkpt lat="44.99686" lon="6.44838">
        <ele>2517.7</ele>
        <time>2022-01-14T10:52:01Z</time>
      </trkpt>
      <trkpt lat="44.99686" lon="6.44839">
        <ele>2517.7</ele>
        <time>2022-01-14T10:52:02Z</time>
      </trkpt>
      <trkpt lat="44.99686" lon="6.44839">
        <ele>2517.7</ele>
        <time>2022-01-14T10:52:03Z</time>
      </trkpt>
      <trkpt lat="44.99686" lon="6.44839">
        <ele>2517.7</ele>
        <time>2022-01-14T10:52:04Z</time>
      </trkpt>
      <trkpt lat="44.99686" lon="6.4484">
        <ele>2517.7</ele>
        <time>2022-01-14T10:52:05Z</time>
      </trkpt>
      <trkpt lat="44.99686" lon="6.4484">
        <ele>2517.7</ele>
        <time>2022-01-14T10:52:06Z</time>
      </trkpt>
      <trkpt lat="44.99686" lon="6.44839">
        <ele>2517.7</ele>
        <time>2022-01-14T10:52:07Z</time>
      </trkpt>
      <trkpt lat="44.99687" lon="6.44838">
        <ele>2517.7</ele>
        <time>2022-01-14T10:52:08Z</time>
      </trkpt>
      <trkpt lat="44.99687" lon="6.44838">
        <ele>2517.7</ele>
        <time>2022-01-14T10:52:09Z</time>
      </trkpt>
      <trkpt lat="44.99687" lon="6.44838">
        <ele>2517.7</ele>
        <time>2022-01-14T10:52:10Z</time>
      </trkpt>
      <trkpt lat="44.99687" lon="6.44839">
        <ele>2517.7</ele>
        <time>2022-01-14T10:52:11Z</time>
      </trkpt>
      <trkpt lat="44.99688" lon="6.44839">
        <ele>2517.7</ele>
        <time>2022-01-14T10:52:12Z</time>
      </trkpt>
      <trkpt lat="44.99688" lon="6.44839">
        <ele>2517.7</ele>
        <time>2022-01-14T10:52:13Z</time>
      </trkpt>
      <trkpt lat="44.99688" lon="6.44839">
        <ele>2517.7</ele>
        <time>2022-01-14T10:52:14Z</time>
      </trkpt>
      <trkpt lat="44.99689" lon="6.44839">
        <ele>2517.2</ele>
        <time>2022-01-14T10:52:15Z</time>
      </trkpt>
      <trkpt lat="44.99689" lon="6.44838">
        <ele>2517.2</ele>
        <time>2022-01-14T10:52:16Z</time>
      </trkpt>
      <trkpt lat="44.99689" lon="6.44838">
        <ele>2517.2</ele>
        <time>2022-01-14T10:52:17Z</time>
      </trkpt>
      <trkpt lat="44.99689" lon="6.44838">
        <ele>2517.2</ele>
        <time>2022-01-14T10:52:18Z</time>
      </trkpt>
      <trkpt lat="44.99689" lon="6.44838">
        <ele>2517.2</ele>
        <time>2022-01-14T10:52:19Z</time>
      </trkpt>
      <trkpt lat="44.99689" lon="6.44838">
        <ele>2517.2</ele>
        <time>2022-01-14T10:52:20Z</time>
      </trkpt>
      <trkpt lat="44.99689" lon="6.44837">
        <ele>2517.2</ele>
        <time>2022-01-14T10:52:21Z</time>
      </trkpt>
      <trkpt lat="44.99689" lon="6.44837">
        <ele>2517.9</ele>
        <time>2022-01-14T10:52:22Z</time>
      </trkpt>
      <trkpt lat="44.99689" lon="6.44837">
        <ele>2517.9</ele>
        <time>2022-01-14T10:52:23Z</time>
      </trkpt>
      <trkpt lat="44.99689" lon="6.44837">
        <ele>2517.9</ele>
        <time>2022-01-14T10:52:24Z</time>
      </trkpt>
      <trkpt lat="44.99689" lon="6.44837">
        <ele>2517.9</ele>
        <time>2022-01-14T10:52:25Z</time>
      </trkpt>
      <trkpt lat="44.99689" lon="6.44837">
        <ele>2517.9</ele>
        <time>2022-01-14T10:52:26Z</time>
      </trkpt>
      <trkpt lat="44.99689" lon="6.44837">
        <ele>2517.9</ele>
        <time>2022-01-14T10:52:27Z</time>
      </trkpt>
      <trkpt lat="44.99689" lon="6.44837">
        <ele>2517.9</ele>
        <time>2022-01-14T10:52:28Z</time>
      </trkpt>
      <trkpt lat="44.99689" lon="6.44837">
        <ele>2517.9</ele>
        <time>2022-01-14T10:52:29Z</time>
      </trkpt>
      <trkpt lat="44.99689" lon="6.44837">
        <ele>2517.9</ele>
        <time>2022-01-14T10:52:30Z</time>
      </trkpt>
      <trkpt lat="44.99689" lon="6.44837">
        <ele>2517.9</ele>
        <time>2022-01-14T10:52:31Z</time>
      </trkpt>
      <trkpt lat="44.99689" lon="6.44837">
        <ele>2517.9</ele>
        <time>2022-01-14T10:52:32Z</time>
      </trkpt>
      <trkpt lat="44.99689" lon="6.44837">
        <ele>2517.9</ele>
        <time>2022-01-14T10:52:33Z</time>
      </trkpt>
      <trkpt lat="44.99689" lon="6.44837">
        <ele>2517.9</ele>
        <time>2022-01-14T10:52:34Z</time>
      </trkpt>
      <trkpt lat="44.99689" lon="6.44837">
        <ele>2517.9</ele>
        <time>2022-01-14T10:52:35Z</time>
      </trkpt>
      <trkpt lat="44.99689" lon="6.44837">
        <ele>2517.9</ele>
        <time>2022-01-14T10:52:36Z</time>
      </trkpt>
      <trkpt lat="44.99689" lon="6.44837">
        <ele>2517.9</ele>
        <time>2022-01-14T10:52:37Z</time>
      </trkpt>
      <trkpt lat="44.99689" lon="6.44837">
        <ele>2517.9</ele>
        <time>2022-01-14T10:52:38Z</time>
      </trkpt>
      <trkpt lat="44.99688" lon="6.44837">
        <ele>2518.5</ele>
        <time>2022-01-14T10:52:39Z</time>
      </trkpt>
      <trkpt lat="44.99688" lon="6.44837">
        <ele>2518.5</ele>
        <time>2022-01-14T10:52:40Z</time>
      </trkpt>
      <trkpt lat="44.99688" lon="6.44836">
        <ele>2518.5</ele>
        <time>2022-01-14T10:52:41Z</time>
      </trkpt>
      <trkpt lat="44.99687" lon="6.44836">
        <ele>2518.5</ele>
        <time>2022-01-14T10:52:42Z</time>
      </trkpt>
      <trkpt lat="44.99687" lon="6.44835">
        <ele>2518.5</ele>
        <time>2022-01-14T10:52:43Z</time>
      </trkpt>
      <trkpt lat="44.99686" lon="6.44835">
        <ele>2518.5</ele>
        <time>2022-01-14T10:52:44Z</time>
      </trkpt>
      <trkpt lat="44.99685" lon="6.44835">
        <ele>2519</ele>
        <time>2022-01-14T10:52:45Z</time>
      </trkpt>
      <trkpt lat="44.99685" lon="6.44835">
        <ele>2519</ele>
        <time>2022-01-14T10:52:46Z</time>
      </trkpt>
      <trkpt lat="44.99684" lon="6.44835">
        <ele>2519</ele>
        <time>2022-01-14T10:52:47Z</time>
      </trkpt>
      <trkpt lat="44.99684" lon="6.44837">
        <ele>2519</ele>
        <time>2022-01-14T10:52:48Z</time>
      </trkpt>
      <trkpt lat="44.99683" lon="6.44837">
        <ele>2519</ele>
        <time>2022-01-14T10:52:49Z</time>
      </trkpt>
      <trkpt lat="44.99683" lon="6.44837">
        <ele>2519</ele>
        <time>2022-01-14T10:52:50Z</time>
      </trkpt>
      <trkpt lat="44.99683" lon="6.44837">
        <ele>2519</ele>
        <time>2022-01-14T10:52:51Z</time>
      </trkpt>
      <trkpt lat="44.99683" lon="6.44837">
        <ele>2519</ele>
        <time>2022-01-14T10:52:52Z</time>
      </trkpt>
      <trkpt lat="44.99683" lon="6.44836">
        <ele>2519</ele>
        <time>2022-01-14T10:52:53Z</time>
      </trkpt>
      <trkpt lat="44.99683" lon="6.44837">
        <ele>2519</ele>
        <time>2022-01-14T10:52:54Z</time>
      </trkpt>
      <trkpt lat="44.99683" lon="6.44837">
        <ele>2519</ele>
        <time>2022-01-14T10:52:55Z</time>
      </trkpt>
      <trkpt lat="44.99682" lon="6.44837">
        <ele>2519</ele>
        <time>2022-01-14T10:52:56Z</time>
      </trkpt>
      <trkpt lat="44.99682" lon="6.44838">
        <ele>2518.6</ele>
        <time>2022-01-14T10:52:57Z</time>
      </trkpt>
      <trkpt lat="44.99682" lon="6.44839">
        <ele>2518.6</ele>
        <time>2022-01-14T10:52:58Z</time>
      </trkpt>
      <trkpt lat="44.99681" lon="6.44838">
        <ele>2518.6</ele>
        <time>2022-01-14T10:52:59Z</time>
      </trkpt>
      <trkpt lat="44.99681" lon="6.44837">
        <ele>2519.6</ele>
        <time>2022-01-14T10:53:00Z</time>
      </trkpt>
      <trkpt lat="44.99682" lon="6.44838">
        <ele>2518.6</ele>
        <time>2022-01-14T10:53:01Z</time>
      </trkpt>
      <trkpt lat="44.99683" lon="6.44838">
        <ele>2518.1</ele>
        <time>2022-01-14T10:53:02Z</time>
      </trkpt>
      <trkpt lat="44.99683" lon="6.44838">
        <ele>2518.1</ele>
        <time>2022-01-14T10:53:03Z</time>
      </trkpt>
      <trkpt lat="44.99683" lon="6.44838">
        <ele>2518.1</ele>
        <time>2022-01-14T10:53:04Z</time>
      </trkpt>
      <trkpt lat="44.99683" lon="6.44838">
        <ele>2518.1</ele>
        <time>2022-01-14T10:53:05Z</time>
      </trkpt>
      <trkpt lat="44.99683" lon="6.44838">
        <ele>2518.1</ele>
        <time>2022-01-14T10:53:06Z</time>
      </trkpt>
      <trkpt lat="44.99683" lon="6.44837">
        <ele>2519</ele>
        <time>2022-01-14T10:53:07Z</time>
      </trkpt>
      <trkpt lat="44.99685" lon="6.44837">
        <ele>2519</ele>
        <time>2022-01-14T10:53:08Z</time>
      </trkpt>
      <trkpt lat="44.99685" lon="6.44836">
        <ele>2519</ele>
        <time>2022-01-14T10:53:09Z</time>
      </trkpt>
      <trkpt lat="44.99685" lon="6.44835">
        <ele>2519</ele>
        <time>2022-01-14T10:53:10Z</time>
      </trkpt>
      <trkpt lat="44.99685" lon="6.44835">
        <ele>2518.5</ele>
        <time>2022-01-14T10:53:11Z</time>
      </trkpt>
      <trkpt lat="44.99685" lon="6.44834">
        <ele>2519</ele>
        <time>2022-01-14T10:53:12Z</time>
      </trkpt>
      <trkpt lat="44.99685" lon="6.44834">
        <ele>2519</ele>
        <time>2022-01-14T10:53:13Z</time>
      </trkpt>
      <trkpt lat="44.99686" lon="6.44835">
        <ele>2518.5</ele>
        <time>2022-01-14T10:53:14Z</time>
      </trkpt>
      <trkpt lat="44.99687" lon="6.44836">
        <ele>2518.5</ele>
        <time>2022-01-14T10:53:15Z</time>
      </trkpt>
      <trkpt lat="44.99688" lon="6.44838">
        <ele>2517.7</ele>
        <time>2022-01-14T10:53:16Z</time>
      </trkpt>
      <trkpt lat="44.99689" lon="6.44836">
        <ele>2517.9</ele>
        <time>2022-01-14T10:53:17Z</time>
      </trkpt>
      <trkpt lat="44.99689" lon="6.44835">
        <ele>2517.9</ele>
        <time>2022-01-14T10:53:18Z</time>
      </trkpt>
      <trkpt lat="44.9969" lon="6.44835">
        <ele>2517.9</ele>
        <time>2022-01-14T10:53:19Z</time>
      </trkpt>
      <trkpt lat="44.9969" lon="6.44835">
        <ele>2517.9</ele>
        <time>2022-01-14T10:53:20Z</time>
      </trkpt>
      <trkpt lat="44.9969" lon="6.44835">
        <ele>2517.9</ele>
        <time>2022-01-14T10:53:21Z</time>
      </trkpt>
      <trkpt lat="44.9969" lon="6.44835">
        <ele>2517.9</ele>
        <time>2022-01-14T10:53:22Z</time>
      </trkpt>
      <trkpt lat="44.9969" lon="6.44834">
        <ele>2517.9</ele>
        <time>2022-01-14T10:53:23Z</time>
      </trkpt>
      <trkpt lat="44.9969" lon="6.44834">
        <ele>2517.9</ele>
        <time>2022-01-14T10:53:24Z</time>
      </trkpt>
      <trkpt lat="44.9969" lon="6.44835">
        <ele>2517.9</ele>
        <time>2022-01-14T10:53:25Z</time>
      </trkpt>
      <trkpt lat="44.99691" lon="6.44834">
        <ele>2517.9</ele>
        <time>2022-01-14T10:53:26Z</time>
      </trkpt>
      <trkpt lat="44.99691" lon="6.44834">
        <ele>2517.9</ele>
        <time>2022-01-14T10:53:27Z</time>
      </trkpt>
      <trkpt lat="44.99691" lon="6.44834">
        <ele>2517.9</ele>
        <time>2022-01-14T10:53:28Z</time>
      </trkpt>
      <trkpt lat="44.99691" lon="6.44834">
        <ele>2517.9</ele>
        <time>2022-01-14T10:53:29Z</time>
      </trkpt>
      <trkpt lat="44.99691" lon="6.44834">
        <ele>2517.9</ele>
        <time>2022-01-14T10:53:30Z</time>
      </trkpt>
      <trkpt lat="44.99691" lon="6.44834">
        <ele>2517.9</ele>
        <time>2022-01-14T10:53:31Z</time>
      </trkpt>
      <trkpt lat="44.99691" lon="6.44834">
        <ele>2517.9</ele>
        <time>2022-01-14T10:53:32Z</time>
      </trkpt>
      <trkpt lat="44.99691" lon="6.44834">
        <ele>2517.9</ele>
        <time>2022-01-14T10:53:33Z</time>
      </trkpt>
      <trkpt lat="44.99691" lon="6.44834">
        <ele>2517.9</ele>
        <time>2022-01-14T10:53:34Z</time>
      </trkpt>
      <trkpt lat="44.99691" lon="6.44835">
        <ele>2517.9</ele>
        <time>2022-01-14T10:53:35Z</time>
      </trkpt>
      <trkpt lat="44.99691" lon="6.44834">
        <ele>2517.9</ele>
        <time>2022-01-14T10:53:36Z</time>
      </trkpt>
      <trkpt lat="44.99691" lon="6.44834">
        <ele>2517.9</ele>
        <time>2022-01-14T10:53:37Z</time>
      </trkpt>
      <trkpt lat="44.99691" lon="6.44834">
        <ele>2517.9</ele>
        <time>2022-01-14T10:53:38Z</time>
      </trkpt>
      <trkpt lat="44.99691" lon="6.44834">
        <ele>2517.9</ele>
        <time>2022-01-14T10:53:39Z</time>
      </trkpt>
      <trkpt lat="44.99691" lon="6.44834">
        <ele>2517.9</ele>
        <time>2022-01-14T10:53:40Z</time>
      </trkpt>
      <trkpt lat="44.99692" lon="6.44834">
        <ele>2516.8</ele>
        <time>2022-01-14T10:53:41Z</time>
      </trkpt>
      <trkpt lat="44.99692" lon="6.44834">
        <ele>2516.8</ele>
        <time>2022-01-14T10:53:42Z</time>
      </trkpt>
      <trkpt lat="44.99692" lon="6.44834">
        <ele>2516.8</ele>
        <time>2022-01-14T10:53:43Z</time>
      </trkpt>
      <trkpt lat="44.99692" lon="6.44834">
        <ele>2516.8</ele>
        <time>2022-01-14T10:53:44Z</time>
      </trkpt>
      <trkpt lat="44.99692" lon="6.44834">
        <ele>2516.8</ele>
        <time>2022-01-14T10:53:45Z</time>
      </trkpt>
      <trkpt lat="44.99692" lon="6.44834">
        <ele>2516.8</ele>
        <time>2022-01-14T10:53:46Z</time>
      </trkpt>
      <trkpt lat="44.99692" lon="6.44834">
        <ele>2516.8</ele>
        <time>2022-01-14T10:53:47Z</time>
      </trkpt>
      <trkpt lat="44.99692" lon="6.44834">
        <ele>2516.8</ele>
        <time>2022-01-14T10:53:48Z</time>
      </trkpt>
      <trkpt lat="44.99692" lon="6.44834">
        <ele>2516.8</ele>
        <time>2022-01-14T10:53:49Z</time>
      </trkpt>
      <trkpt lat="44.99693" lon="6.44834">
        <ele>2516.8</ele>
        <time>2022-01-14T10:53:50Z</time>
      </trkpt>
      <trkpt lat="44.99693" lon="6.44833">
        <ele>2516.8</ele>
        <time>2022-01-14T10:53:51Z</time>
      </trkpt>
      <trkpt lat="44.99693" lon="6.44833">
        <ele>2516.8</ele>
        <time>2022-01-14T10:53:52Z</time>
      </trkpt>
      <trkpt lat="44.99693" lon="6.44833">
        <ele>2516.8</ele>
        <time>2022-01-14T10:53:53Z</time>
      </trkpt>
      <trkpt lat="44.99693" lon="6.44833">
        <ele>2516.8</ele>
        <time>2022-01-14T10:53:54Z</time>
      </trkpt>
      <trkpt lat="44.99693" lon="6.44833">
        <ele>2516.8</ele>
        <time>2022-01-14T10:53:55Z</time>
      </trkpt>
      <trkpt lat="44.99693" lon="6.44833">
        <ele>2516.8</ele>
        <time>2022-01-14T10:53:56Z</time>
      </trkpt>
      <trkpt lat="44.99693" lon="6.44833">
        <ele>2516.8</ele>
        <time>2022-01-14T10:53:57Z</time>
      </trkpt>
      <trkpt lat="44.99693" lon="6.44833">
        <ele>2516.8</ele>
        <time>2022-01-14T10:53:58Z</time>
      </trkpt>
      <trkpt lat="44.99692" lon="6.44834">
        <ele>2516.8</ele>
        <time>2022-01-14T10:53:59Z</time>
      </trkpt>
      <trkpt lat="44.99692" lon="6.44834">
        <ele>2516.8</ele>
        <time>2022-01-14T10:54:00Z</time>
      </trkpt>
      <trkpt lat="44.99692" lon="6.44834">
        <ele>2516.8</ele>
        <time>2022-01-14T10:54:01Z</time>
      </trkpt>
      <trkpt lat="44.99692" lon="6.44834">
        <ele>2516.8</ele>
        <time>2022-01-14T10:54:02Z</time>
      </trkpt>
      <trkpt lat="44.99692" lon="6.44834">
        <ele>2516.8</ele>
        <time>2022-01-14T10:54:03Z</time>
      </trkpt>
      <trkpt lat="44.99692" lon="6.44834">
        <ele>2516.8</ele>
        <time>2022-01-14T10:54:04Z</time>
      </trkpt>
      <trkpt lat="44.99692" lon="6.44834">
        <ele>2516.8</ele>
        <time>2022-01-14T10:54:05Z</time>
      </trkpt>
      <trkpt lat="44.99691" lon="6.44834">
        <ele>2517.9</ele>
        <time>2022-01-14T10:54:06Z</time>
      </trkpt>
      <trkpt lat="44.99691" lon="6.44834">
        <ele>2517.9</ele>
        <time>2022-01-14T10:54:07Z</time>
      </trkpt>
      <trkpt lat="44.99691" lon="6.44834">
        <ele>2517.9</ele>
        <time>2022-01-14T10:54:08Z</time>
      </trkpt>
      <trkpt lat="44.99691" lon="6.44834">
        <ele>2517.9</ele>
        <time>2022-01-14T10:54:09Z</time>
      </trkpt>
      <trkpt lat="44.99691" lon="6.44834">
        <ele>2517.9</ele>
        <time>2022-01-14T10:54:10Z</time>
      </trkpt>
      <trkpt lat="44.99691" lon="6.44834">
        <ele>2517.9</ele>
        <time>2022-01-14T10:54:11Z</time>
      </trkpt>
      <trkpt lat="44.99691" lon="6.44835">
        <ele>2517.9</ele>
        <time>2022-01-14T10:54:12Z</time>
      </trkpt>
      <trkpt lat="44.99691" lon="6.44835">
        <ele>2517.9</ele>
        <time>2022-01-14T10:54:13Z</time>
      </trkpt>
      <trkpt lat="44.99691" lon="6.44835">
        <ele>2517.9</ele>
        <time>2022-01-14T10:54:14Z</time>
      </trkpt>
      <trkpt lat="44.99691" lon="6.44835">
        <ele>2517.9</ele>
        <time>2022-01-14T10:54:15Z</time>
      </trkpt>
      <trkpt lat="44.99691" lon="6.44835">
        <ele>2517.9</ele>
        <time>2022-01-14T10:54:16Z</time>
      </trkpt>
      <trkpt lat="44.99691" lon="6.44835">
        <ele>2517.9</ele>
        <time>2022-01-14T10:54:17Z</time>
      </trkpt>
      <trkpt lat="44.99691" lon="6.44835">
        <ele>2517.9</ele>
        <time>2022-01-14T10:54:18Z</time>
      </trkpt>
      <trkpt lat="44.9969" lon="6.44835">
        <ele>2517.9</ele>
        <time>2022-01-14T10:54:19Z</time>
      </trkpt>
      <trkpt lat="44.9969" lon="6.44835">
        <ele>2517.9</ele>
        <time>2022-01-14T10:54:20Z</time>
      </trkpt>
      <trkpt lat="44.9969" lon="6.44835">
        <ele>2517.9</ele>
        <time>2022-01-14T10:54:21Z</time>
      </trkpt>
      <trkpt lat="44.9969" lon="6.44835">
        <ele>2517.9</ele>
        <time>2022-01-14T10:54:22Z</time>
      </trkpt>
      <trkpt lat="44.99691" lon="6.44835">
        <ele>2517.9</ele>
        <time>2022-01-14T10:54:23Z</time>
      </trkpt>
      <trkpt lat="44.99691" lon="6.44835">
        <ele>2517.9</ele>
        <time>2022-01-14T10:54:24Z</time>
      </trkpt>
      <trkpt lat="44.99691" lon="6.44834">
        <ele>2517.9</ele>
        <time>2022-01-14T10:54:25Z</time>
      </trkpt>
      <trkpt lat="44.99691" lon="6.44834">
        <ele>2517.9</ele>
        <time>2022-01-14T10:54:26Z</time>
      </trkpt>
      <trkpt lat="44.99691" lon="6.44834">
        <ele>2517.9</ele>
        <time>2022-01-14T10:54:27Z</time>
      </trkpt>
      <trkpt lat="44.99691" lon="6.44834">
        <ele>2517.9</ele>
        <time>2022-01-14T10:54:28Z</time>
      </trkpt>
      <trkpt lat="44.99692" lon="6.44834">
        <ele>2516.8</ele>
        <time>2022-01-14T10:54:29Z</time>
      </trkpt>
      <trkpt lat="44.99692" lon="6.44833">
        <ele>2516.8</ele>
        <time>2022-01-14T10:54:30Z</time>
      </trkpt>
      <trkpt lat="44.99692" lon="6.44834">
        <ele>2516.8</ele>
        <time>2022-01-14T10:54:31Z</time>
      </trkpt>
      <trkpt lat="44.99692" lon="6.44834">
        <ele>2516.8</ele>
        <time>2022-01-14T10:54:32Z</time>
      </trkpt>
      <trkpt lat="44.99692" lon="6.44834">
        <ele>2516.8</ele>
        <time>2022-01-14T10:54:33Z</time>
      </trkpt>
      <trkpt lat="44.99692" lon="6.44834">
        <ele>2516.8</ele>
        <time>2022-01-14T10:54:34Z</time>
      </trkpt>
      <trkpt lat="44.99693" lon="6.44834">
        <ele>2516.8</ele>
        <time>2022-01-14T10:54:35Z</time>
      </trkpt>
      <trkpt lat="44.99694" lon="6.44834">
        <ele>2516.8</ele>
        <time>2022-01-14T10:54:36Z</time>
      </trkpt>
      <trkpt lat="44.99694" lon="6.44834">
        <ele>2516.8</ele>
        <time>2022-01-14T10:54:37Z</time>
      </trkpt>
      <trkpt lat="44.99694" lon="6.44835">
        <ele>2516.8</ele>
        <time>2022-01-14T10:54:38Z</time>
      </trkpt>
      <trkpt lat="44.99694" lon="6.44834">
        <ele>2516.8</ele>
        <time>2022-01-14T10:54:39Z</time>
      </trkpt>
      <trkpt lat="44.99694" lon="6.44835">
        <ele>2516.8</ele>
        <time>2022-01-14T10:54:40Z</time>
      </trkpt>
      <trkpt lat="44.99694" lon="6.44835">
        <ele>2516.8</ele>
        <time>2022-01-14T10:54:41Z</time>
      </trkpt>
      <trkpt lat="44.99694" lon="6.44835">
        <ele>2516.8</ele>
        <time>2022-01-14T10:54:42Z</time>
      </trkpt>
      <trkpt lat="44.99694" lon="6.44835">
        <ele>2516.8</ele>
        <time>2022-01-14T10:54:43Z</time>
      </trkpt>
      <trkpt lat="44.99695" lon="6.44835">
        <ele>2515.4</ele>
        <time>2022-01-14T10:54:44Z</time>
      </trkpt>
      <trkpt lat="44.99695" lon="6.44836">
        <ele>2515.4</ele>
        <time>2022-01-14T10:54:45Z</time>
      </trkpt>
      <trkpt lat="44.99695" lon="6.44836">
        <ele>2515.4</ele>
        <time>2022-01-14T10:54:46Z</time>
      </trkpt>
      <trkpt lat="44.99695" lon="6.44837">
        <ele>2515.4</ele>
        <time>2022-01-14T10:54:47Z</time>
      </trkpt>
      <trkpt lat="44.99696" lon="6.44839">
        <ele>2515.8</ele>
        <time>2022-01-14T10:54:48Z</time>
      </trkpt>
      <trkpt lat="44.99696" lon="6.4484">
        <ele>2515.8</ele>
        <time>2022-01-14T10:54:49Z</time>
      </trkpt>
      <trkpt lat="44.99696" lon="6.44841">
        <ele>2515.8</ele>
        <time>2022-01-14T10:54:50Z</time>
      </trkpt>
      <trkpt lat="44.99696" lon="6.44842">
        <ele>2516.4</ele>
        <time>2022-01-14T10:54:51Z</time>
      </trkpt>
      <trkpt lat="44.99696" lon="6.44843">
        <ele>2516.4</ele>
        <time>2022-01-14T10:54:52Z</time>
      </trkpt>
      <trkpt lat="44.99696" lon="6.44843">
        <ele>2516.4</ele>
        <time>2022-01-14T10:54:53Z</time>
      </trkpt>
      <trkpt lat="44.99695" lon="6.44843">
        <ele>2516.4</ele>
        <time>2022-01-14T10:54:54Z</time>
      </trkpt>
      <trkpt lat="44.99694" lon="6.44843">
        <ele>2516.9</ele>
        <time>2022-01-14T10:54:55Z</time>
      </trkpt>
      <trkpt lat="44.99695" lon="6.44843">
        <ele>2516.4</ele>
        <time>2022-01-14T10:54:56Z</time>
      </trkpt>
      <trkpt lat="44.99695" lon="6.44843">
        <ele>2516.4</ele>
        <time>2022-01-14T10:54:57Z</time>
      </trkpt>
      <trkpt lat="44.99695" lon="6.44844">
        <ele>2516.4</ele>
        <time>2022-01-14T10:54:58Z</time>
      </trkpt>
      <trkpt lat="44.99695" lon="6.44843">
        <ele>2516.4</ele>
        <time>2022-01-14T10:54:59Z</time>
      </trkpt>
      <trkpt lat="44.99695" lon="6.44843">
        <ele>2516.4</ele>
        <time>2022-01-14T10:55:00Z</time>
      </trkpt>
      <trkpt lat="44.99692" lon="6.44841">
        <ele>2516.6</ele>
        <time>2022-01-14T10:55:01Z</time>
      </trkpt>
      <trkpt lat="44.99692" lon="6.44841">
        <ele>2516.6</ele>
        <time>2022-01-14T10:55:02Z</time>
      </trkpt>
      <trkpt lat="44.99692" lon="6.44841">
        <ele>2516.6</ele>
        <time>2022-01-14T10:55:03Z</time>
      </trkpt>
      <trkpt lat="44.99692" lon="6.44841">
        <ele>2516.6</ele>
        <time>2022-01-14T10:55:04Z</time>
      </trkpt>
      <trkpt lat="44.99692" lon="6.44841">
        <ele>2516.6</ele>
        <time>2022-01-14T10:55:05Z</time>
      </trkpt>
      <trkpt lat="44.99692" lon="6.44841">
        <ele>2516.6</ele>
        <time>2022-01-14T10:55:06Z</time>
      </trkpt>
      <trkpt lat="44.99692" lon="6.44841">
        <ele>2516.6</ele>
        <time>2022-01-14T10:55:07Z</time>
      </trkpt>
      <trkpt lat="44.99692" lon="6.44841">
        <ele>2516.6</ele>
        <time>2022-01-14T10:55:08Z</time>
      </trkpt>
      <trkpt lat="44.99692" lon="6.44841">
        <ele>2516.6</ele>
        <time>2022-01-14T10:55:09Z</time>
      </trkpt>
      <trkpt lat="44.99692" lon="6.44841">
        <ele>2516.6</ele>
        <time>2022-01-14T10:55:10Z</time>
      </trkpt>
      <trkpt lat="44.99692" lon="6.44841">
        <ele>2516.6</ele>
        <time>2022-01-14T10:55:11Z</time>
      </trkpt>
      <trkpt lat="44.99692" lon="6.44841">
        <ele>2516.6</ele>
        <time>2022-01-14T10:55:12Z</time>
      </trkpt>
      <trkpt lat="44.99692" lon="6.4484">
        <ele>2516.6</ele>
        <time>2022-01-14T10:55:13Z</time>
      </trkpt>
      <trkpt lat="44.99692" lon="6.4484">
        <ele>2516.6</ele>
        <time>2022-01-14T10:55:14Z</time>
      </trkpt>
      <trkpt lat="44.99692" lon="6.44839">
        <ele>2516.6</ele>
        <time>2022-01-14T10:55:15Z</time>
      </trkpt>
      <trkpt lat="44.99692" lon="6.44839">
        <ele>2516.6</ele>
        <time>2022-01-14T10:55:16Z</time>
      </trkpt>
      <trkpt lat="44.99692" lon="6.44839">
        <ele>2516.6</ele>
        <time>2022-01-14T10:55:17Z</time>
      </trkpt>
      <trkpt lat="44.99692" lon="6.44838">
        <ele>2516.6</ele>
        <time>2022-01-14T10:55:18Z</time>
      </trkpt>
      <trkpt lat="44.99693" lon="6.44838">
        <ele>2516.6</ele>
        <time>2022-01-14T10:55:19Z</time>
      </trkpt>
      <trkpt lat="44.99693" lon="6.44837">
        <ele>2516.8</ele>
        <time>2022-01-14T10:55:20Z</time>
      </trkpt>
      <trkpt lat="44.99692" lon="6.44836">
        <ele>2516.8</ele>
        <time>2022-01-14T10:55:21Z</time>
      </trkpt>
      <trkpt lat="44.99692" lon="6.44834">
        <ele>2516.8</ele>
        <time>2022-01-14T10:55:22Z</time>
      </trkpt>
      <trkpt lat="44.99691" lon="6.44833">
        <ele>2518.9</ele>
        <time>2022-01-14T10:55:23Z</time>
      </trkpt>
      <trkpt lat="44.99691" lon="6.44832">
        <ele>2518.9</ele>
        <time>2022-01-14T10:55:24Z</time>
      </trkpt>
      <trkpt lat="44.9969" lon="6.44831">
        <ele>2518.9</ele>
        <time>2022-01-14T10:55:25Z</time>
      </trkpt>
      <trkpt lat="44.9969" lon="6.4483">
        <ele>2518.9</ele>
        <time>2022-01-14T10:55:26Z</time>
      </trkpt>
      <trkpt lat="44.9969" lon="6.4483">
        <ele>2518.9</ele>
        <time>2022-01-14T10:55:27Z</time>
      </trkpt>
      <trkpt lat="44.9969" lon="6.44829">
        <ele>2518.9</ele>
        <time>2022-01-14T10:55:28Z</time>
      </trkpt>
      <trkpt lat="44.9969" lon="6.44829">
        <ele>2519.9</ele>
        <time>2022-01-14T10:55:29Z</time>
      </trkpt>
      <trkpt lat="44.9969" lon="6.44829">
        <ele>2518.9</ele>
        <time>2022-01-14T10:55:30Z</time>
      </trkpt>
      <trkpt lat="44.9969" lon="6.44829">
        <ele>2518.9</ele>
        <time>2022-01-14T10:55:31Z</time>
      </trkpt>
      <trkpt lat="44.9969" lon="6.4483">
        <ele>2518.9</ele>
        <time>2022-01-14T10:55:32Z</time>
      </trkpt>
      <trkpt lat="44.99691" lon="6.4483">
        <ele>2518.9</ele>
        <time>2022-01-14T10:55:33Z</time>
      </trkpt>
      <trkpt lat="44.99693" lon="6.44831">
        <ele>2517.2</ele>
        <time>2022-01-14T10:55:34Z</time>
      </trkpt>
      <trkpt lat="44.99694" lon="6.44833">
        <ele>2516.8</ele>
        <time>2022-01-14T10:55:35Z</time>
      </trkpt>
      <trkpt lat="44.99694" lon="6.44833">
        <ele>2517.2</ele>
        <time>2022-01-14T10:55:36Z</time>
      </trkpt>
      <trkpt lat="44.99694" lon="6.44833">
        <ele>2517.2</ele>
        <time>2022-01-14T10:55:37Z</time>
      </trkpt>
      <trkpt lat="44.99694" lon="6.44833">
        <ele>2517.2</ele>
        <time>2022-01-14T10:55:38Z</time>
      </trkpt>
      <trkpt lat="44.99694" lon="6.44833">
        <ele>2516.8</ele>
        <time>2022-01-14T10:55:39Z</time>
      </trkpt>
      <trkpt lat="44.99694" lon="6.44833">
        <ele>2516.8</ele>
        <time>2022-01-14T10:55:40Z</time>
      </trkpt>
      <trkpt lat="44.99694" lon="6.44833">
        <ele>2516.8</ele>
        <time>2022-01-14T10:55:41Z</time>
      </trkpt>
      <trkpt lat="44.99694" lon="6.44833">
        <ele>2516.8</ele>
        <time>2022-01-14T10:55:42Z</time>
      </trkpt>
      <trkpt lat="44.99693" lon="6.44833">
        <ele>2516.8</ele>
        <time>2022-01-14T10:55:43Z</time>
      </trkpt>
      <trkpt lat="44.99694" lon="6.44833">
        <ele>2516.8</ele>
        <time>2022-01-14T10:55:44Z</time>
      </trkpt>
      <trkpt lat="44.99694" lon="6.44833">
        <ele>2516.8</ele>
        <time>2022-01-14T10:55:45Z</time>
      </trkpt>
      <trkpt lat="44.99694" lon="6.44833">
        <ele>2517.2</ele>
        <time>2022-01-14T10:55:46Z</time>
      </trkpt>
      <trkpt lat="44.99694" lon="6.44833">
        <ele>2517.2</ele>
        <time>2022-01-14T10:55:47Z</time>
      </trkpt>
      <trkpt lat="44.99694" lon="6.44833">
        <ele>2517.2</ele>
        <time>2022-01-14T10:55:48Z</time>
      </trkpt>
      <trkpt lat="44.99694" lon="6.44833">
        <ele>2517.2</ele>
        <time>2022-01-14T10:55:49Z</time>
      </trkpt>
      <trkpt lat="44.99694" lon="6.44833">
        <ele>2517.2</ele>
        <time>2022-01-14T10:55:50Z</time>
      </trkpt>
      <trkpt lat="44.99694" lon="6.44833">
        <ele>2517.2</ele>
        <time>2022-01-14T10:55:51Z</time>
      </trkpt>
      <trkpt lat="44.99694" lon="6.44833">
        <ele>2517.2</ele>
        <time>2022-01-14T10:55:52Z</time>
      </trkpt>
      <trkpt lat="44.99694" lon="6.44833">
        <ele>2517.2</ele>
        <time>2022-01-14T10:55:53Z</time>
      </trkpt>
      <trkpt lat="44.99694" lon="6.44833">
        <ele>2517.2</ele>
        <time>2022-01-14T10:55:54Z</time>
      </trkpt>
      <trkpt lat="44.99694" lon="6.44833">
        <ele>2517.2</ele>
        <time>2022-01-14T10:55:55Z</time>
      </trkpt>
      <trkpt lat="44.99694" lon="6.44833">
        <ele>2517.2</ele>
        <time>2022-01-14T10:55:56Z</time>
      </trkpt>
      <trkpt lat="44.99694" lon="6.44833">
        <ele>2517.2</ele>
        <time>2022-01-14T10:55:57Z</time>
      </trkpt>
      <trkpt lat="44.99694" lon="6.44833">
        <ele>2517.2</ele>
        <time>2022-01-14T10:55:58Z</time>
      </trkpt>
      <trkpt lat="44.99694" lon="6.44833">
        <ele>2517.2</ele>
        <time>2022-01-14T10:55:59Z</time>
      </trkpt>
      <trkpt lat="44.99694" lon="6.44833">
        <ele>2517.2</ele>
        <time>2022-01-14T10:56:00Z</time>
      </trkpt>
      <trkpt lat="44.99694" lon="6.44833">
        <ele>2516.8</ele>
        <time>2022-01-14T10:56:01Z</time>
      </trkpt>
      <trkpt lat="44.99694" lon="6.44834">
        <ele>2516.8</ele>
        <time>2022-01-14T10:56:02Z</time>
      </trkpt>
      <trkpt lat="44.99694" lon="6.44834">
        <ele>2516.8</ele>
        <time>2022-01-14T10:56:03Z</time>
      </trkpt>
      <trkpt lat="44.99694" lon="6.44834">
        <ele>2516.8</ele>
        <time>2022-01-14T10:56:04Z</time>
      </trkpt>
      <trkpt lat="44.99694" lon="6.44835">
        <ele>2516.8</ele>
        <time>2022-01-14T10:56:05Z</time>
      </trkpt>
      <trkpt lat="44.99694" lon="6.44835">
        <ele>2516.8</ele>
        <time>2022-01-14T10:56:06Z</time>
      </trkpt>
      <trkpt lat="44.99694" lon="6.44835">
        <ele>2516.8</ele>
        <time>2022-01-14T10:56:07Z</time>
      </trkpt>
      <trkpt lat="44.99694" lon="6.44836">
        <ele>2516.8</ele>
        <time>2022-01-14T10:56:08Z</time>
      </trkpt>
      <trkpt lat="44.99694" lon="6.44836">
        <ele>2516.8</ele>
        <time>2022-01-14T10:56:09Z</time>
      </trkpt>
      <trkpt lat="44.99693" lon="6.44836">
        <ele>2516.8</ele>
        <time>2022-01-14T10:56:10Z</time>
      </trkpt>
      <trkpt lat="44.99694" lon="6.44836">
        <ele>2516.8</ele>
        <time>2022-01-14T10:56:11Z</time>
      </trkpt>
      <trkpt lat="44.99694" lon="6.44835">
        <ele>2516.8</ele>
        <time>2022-01-14T10:56:12Z</time>
      </trkpt>
      <trkpt lat="44.99694" lon="6.44835">
        <ele>2516.8</ele>
        <time>2022-01-14T10:56:13Z</time>
      </trkpt>
      <trkpt lat="44.99694" lon="6.44835">
        <ele>2516.8</ele>
        <time>2022-01-14T10:56:14Z</time>
      </trkpt>
      <trkpt lat="44.99694" lon="6.44835">
        <ele>2516.8</ele>
        <time>2022-01-14T10:56:15Z</time>
      </trkpt>
      <trkpt lat="44.99694" lon="6.44836">
        <ele>2516.8</ele>
        <time>2022-01-14T10:56:16Z</time>
      </trkpt>
      <trkpt lat="44.99694" lon="6.44835">
        <ele>2516.8</ele>
        <time>2022-01-14T10:56:17Z</time>
      </trkpt>
      <trkpt lat="44.99694" lon="6.44835">
        <ele>2516.8</ele>
        <time>2022-01-14T10:56:18Z</time>
      </trkpt>
      <trkpt lat="44.99694" lon="6.44835">
        <ele>2516.8</ele>
        <time>2022-01-14T10:56:19Z</time>
      </trkpt>
      <trkpt lat="44.99694" lon="6.44835">
        <ele>2516.8</ele>
        <time>2022-01-14T10:56:20Z</time>
      </trkpt>
      <trkpt lat="44.99694" lon="6.44835">
        <ele>2516.8</ele>
        <time>2022-01-14T10:56:21Z</time>
      </trkpt>
      <trkpt lat="44.99694" lon="6.44835">
        <ele>2516.8</ele>
        <time>2022-01-14T10:56:22Z</time>
      </trkpt>
      <trkpt lat="44.99694" lon="6.44834">
        <ele>2516.8</ele>
        <time>2022-01-14T10:56:23Z</time>
      </trkpt>
      <trkpt lat="44.99694" lon="6.44834">
        <ele>2516.8</ele>
        <time>2022-01-14T10:56:24Z</time>
      </trkpt>
      <trkpt lat="44.99694" lon="6.44834">
        <ele>2516.8</ele>
        <time>2022-01-14T10:56:25Z</time>
      </trkpt>
      <trkpt lat="44.99694" lon="6.44834">
        <ele>2516.8</ele>
        <time>2022-01-14T10:56:26Z</time>
      </trkpt>
      <trkpt lat="44.99694" lon="6.44834">
        <ele>2516.8</ele>
        <time>2022-01-14T10:56:27Z</time>
      </trkpt>
      <trkpt lat="44.99694" lon="6.44834">
        <ele>2516.8</ele>
        <time>2022-01-14T10:56:28Z</time>
      </trkpt>
      <trkpt lat="44.99694" lon="6.44834">
        <ele>2516.8</ele>
        <time>2022-01-14T10:56:29Z</time>
      </trkpt>
      <trkpt lat="44.99694" lon="6.44834">
        <ele>2516.8</ele>
        <time>2022-01-14T10:56:30Z</time>
      </trkpt>
      <trkpt lat="44.99694" lon="6.44834">
        <ele>2516.8</ele>
        <time>2022-01-14T10:56:31Z</time>
      </trkpt>
      <trkpt lat="44.99694" lon="6.44834">
        <ele>2516.8</ele>
        <time>2022-01-14T10:56:32Z</time>
      </trkpt>
      <trkpt lat="44.99694" lon="6.44834">
        <ele>2516.8</ele>
        <time>2022-01-14T10:56:33Z</time>
      </trkpt>
      <trkpt lat="44.99694" lon="6.44834">
        <ele>2516.8</ele>
        <time>2022-01-14T10:56:34Z</time>
      </trkpt>
      <trkpt lat="44.99694" lon="6.44834">
        <ele>2516.8</ele>
        <time>2022-01-14T10:56:35Z</time>
      </trkpt>
      <trkpt lat="44.99694" lon="6.44834">
        <ele>2516.8</ele>
        <time>2022-01-14T10:56:36Z</time>
      </trkpt>
      <trkpt lat="44.99694" lon="6.44834">
        <ele>2516.8</ele>
        <time>2022-01-14T10:56:37Z</time>
      </trkpt>
      <trkpt lat="44.99694" lon="6.44834">
        <ele>2516.8</ele>
        <time>2022-01-14T10:56:38Z</time>
      </trkpt>
      <trkpt lat="44.99694" lon="6.44834">
        <ele>2516.8</ele>
        <time>2022-01-14T10:56:39Z</time>
      </trkpt>
      <trkpt lat="44.99694" lon="6.44834">
        <ele>2516.8</ele>
        <time>2022-01-14T10:56:40Z</time>
      </trkpt>
      <trkpt lat="44.99694" lon="6.44834">
        <ele>2516.8</ele>
        <time>2022-01-14T10:56:41Z</time>
      </trkpt>
      <trkpt lat="44.99694" lon="6.44834">
        <ele>2516.8</ele>
        <time>2022-01-14T10:56:42Z</time>
      </trkpt>
      <trkpt lat="44.99694" lon="6.44835">
        <ele>2516.8</ele>
        <time>2022-01-14T10:56:43Z</time>
      </trkpt>
      <trkpt lat="44.99694" lon="6.44835">
        <ele>2516.8</ele>
        <time>2022-01-14T10:56:44Z</time>
      </trkpt>
      <trkpt lat="44.99694" lon="6.44835">
        <ele>2516.8</ele>
        <time>2022-01-14T10:56:45Z</time>
      </trkpt>
      <trkpt lat="44.99693" lon="6.44835">
        <ele>2516.8</ele>
        <time>2022-01-14T10:56:46Z</time>
      </trkpt>
      <trkpt lat="44.99693" lon="6.44834">
        <ele>2516.8</ele>
        <time>2022-01-14T10:56:47Z</time>
      </trkpt>
      <trkpt lat="44.99692" lon="6.44834">
        <ele>2516.8</ele>
        <time>2022-01-14T10:56:48Z</time>
      </trkpt>
      <trkpt lat="44.99692" lon="6.44834">
        <ele>2516.8</ele>
        <time>2022-01-14T10:56:49Z</time>
      </trkpt>
      <trkpt lat="44.99692" lon="6.44834">
        <ele>2516.8</ele>
        <time>2022-01-14T10:56:50Z</time>
      </trkpt>
      <trkpt lat="44.99692" lon="6.44834">
        <ele>2516.8</ele>
        <time>2022-01-14T10:56:51Z</time>
      </trkpt>
      <trkpt lat="44.99692" lon="6.44833">
        <ele>2516.8</ele>
        <time>2022-01-14T10:56:52Z</time>
      </trkpt>
      <trkpt lat="44.99692" lon="6.44833">
        <ele>2516.8</ele>
        <time>2022-01-14T10:56:53Z</time>
      </trkpt>
      <trkpt lat="44.99692" lon="6.44833">
        <ele>2517.2</ele>
        <time>2022-01-14T10:56:54Z</time>
      </trkpt>
      <trkpt lat="44.99692" lon="6.44831">
        <ele>2517.2</ele>
        <time>2022-01-14T10:56:55Z</time>
      </trkpt>
      <trkpt lat="44.99691" lon="6.44831">
        <ele>2518.9</ele>
        <time>2022-01-14T10:56:56Z</time>
      </trkpt>
      <trkpt lat="44.99691" lon="6.44831">
        <ele>2518.9</ele>
        <time>2022-01-14T10:56:57Z</time>
      </trkpt>
      <trkpt lat="44.99691" lon="6.44831">
        <ele>2518.9</ele>
        <time>2022-01-14T10:56:58Z</time>
      </trkpt>
      <trkpt lat="44.9969" lon="6.44831">
        <ele>2518.9</ele>
        <time>2022-01-14T10:56:59Z</time>
      </trkpt>
      <trkpt lat="44.9969" lon="6.44831">
        <ele>2518.9</ele>
        <time>2022-01-14T10:57:00Z</time>
      </trkpt>
      <trkpt lat="44.9969" lon="6.44831">
        <ele>2518.9</ele>
        <time>2022-01-14T10:57:01Z</time>
      </trkpt>
      <trkpt lat="44.9969" lon="6.44831">
        <ele>2518.9</ele>
        <time>2022-01-14T10:57:02Z</time>
      </trkpt>
      <trkpt lat="44.9969" lon="6.4483">
        <ele>2518.9</ele>
        <time>2022-01-14T10:57:03Z</time>
      </trkpt>
      <trkpt lat="44.9969" lon="6.4483">
        <ele>2518.9</ele>
        <time>2022-01-14T10:57:04Z</time>
      </trkpt>
      <trkpt lat="44.9969" lon="6.4483">
        <ele>2518.9</ele>
        <time>2022-01-14T10:57:05Z</time>
      </trkpt>
      <trkpt lat="44.99691" lon="6.4483">
        <ele>2518.9</ele>
        <time>2022-01-14T10:57:06Z</time>
      </trkpt>
      <trkpt lat="44.99691" lon="6.4483">
        <ele>2518.9</ele>
        <time>2022-01-14T10:57:07Z</time>
      </trkpt>
      <trkpt lat="44.99691" lon="6.4483">
        <ele>2518.9</ele>
        <time>2022-01-14T10:57:08Z</time>
      </trkpt>
      <trkpt lat="44.99691" lon="6.4483">
        <ele>2518.9</ele>
        <time>2022-01-14T10:57:09Z</time>
      </trkpt>
      <trkpt lat="44.99691" lon="6.4483">
        <ele>2518.9</ele>
        <time>2022-01-14T10:57:10Z</time>
      </trkpt>
      <trkpt lat="44.99691" lon="6.44831">
        <ele>2518.9</ele>
        <time>2022-01-14T10:57:11Z</time>
      </trkpt>
      <trkpt lat="44.99691" lon="6.44831">
        <ele>2518.9</ele>
        <time>2022-01-14T10:57:12Z</time>
      </trkpt>
      <trkpt lat="44.99691" lon="6.44831">
        <ele>2518.9</ele>
        <time>2022-01-14T10:57:13Z</time>
      </trkpt>
      <trkpt lat="44.99691" lon="6.44831">
        <ele>2518.9</ele>
        <time>2022-01-14T10:57:14Z</time>
      </trkpt>
      <trkpt lat="44.99691" lon="6.44831">
        <ele>2518.9</ele>
        <time>2022-01-14T10:57:15Z</time>
      </trkpt>
      <trkpt lat="44.99691" lon="6.44831">
        <ele>2518.9</ele>
        <time>2022-01-14T10:57:16Z</time>
      </trkpt>
      <trkpt lat="44.99691" lon="6.44831">
        <ele>2518.9</ele>
        <time>2022-01-14T10:57:17Z</time>
      </trkpt>
      <trkpt lat="44.99691" lon="6.44832">
        <ele>2518.9</ele>
        <time>2022-01-14T10:57:18Z</time>
      </trkpt>
      <trkpt lat="44.99691" lon="6.44832">
        <ele>2518.9</ele>
        <time>2022-01-14T10:57:19Z</time>
      </trkpt>
      <trkpt lat="44.99691" lon="6.44832">
        <ele>2518.9</ele>
        <time>2022-01-14T10:57:20Z</time>
      </trkpt>
      <trkpt lat="44.99691" lon="6.44832">
        <ele>2518.9</ele>
        <time>2022-01-14T10:57:21Z</time>
      </trkpt>
      <trkpt lat="44.99691" lon="6.44833">
        <ele>2518.9</ele>
        <time>2022-01-14T10:57:22Z</time>
      </trkpt>
      <trkpt lat="44.99691" lon="6.44833">
        <ele>2518.9</ele>
        <time>2022-01-14T10:57:23Z</time>
      </trkpt>
      <trkpt lat="44.99692" lon="6.44832">
        <ele>2517.2</ele>
        <time>2022-01-14T10:57:24Z</time>
      </trkpt>
      <trkpt lat="44.99692" lon="6.44832">
        <ele>2517.2</ele>
        <time>2022-01-14T10:57:25Z</time>
      </trkpt>
      <trkpt lat="44.99692" lon="6.44832">
        <ele>2517.2</ele>
        <time>2022-01-14T10:57:26Z</time>
      </trkpt>
      <trkpt lat="44.99692" lon="6.44831">
        <ele>2517.2</ele>
        <time>2022-01-14T10:57:27Z</time>
      </trkpt>
      <trkpt lat="44.99692" lon="6.44831">
        <ele>2517.2</ele>
        <time>2022-01-14T10:57:28Z</time>
      </trkpt>
      <trkpt lat="44.99692" lon="6.44831">
        <ele>2517.2</ele>
        <time>2022-01-14T10:57:29Z</time>
      </trkpt>
      <trkpt lat="44.99691" lon="6.44831">
        <ele>2518.9</ele>
        <time>2022-01-14T10:57:30Z</time>
      </trkpt>
      <trkpt lat="44.9969" lon="6.44832">
        <ele>2518.9</ele>
        <time>2022-01-14T10:57:31Z</time>
      </trkpt>
      <trkpt lat="44.99689" lon="6.44832">
        <ele>2518.9</ele>
        <time>2022-01-14T10:57:32Z</time>
      </trkpt>
      <trkpt lat="44.99689" lon="6.44832">
        <ele>2518.9</ele>
        <time>2022-01-14T10:57:33Z</time>
      </trkpt>
      <trkpt lat="44.99689" lon="6.44833">
        <ele>2518.9</ele>
        <time>2022-01-14T10:57:34Z</time>
      </trkpt>
      <trkpt lat="44.99689" lon="6.44833">
        <ele>2517.9</ele>
        <time>2022-01-14T10:57:35Z</time>
      </trkpt>
      <trkpt lat="44.99689" lon="6.44834">
        <ele>2517.9</ele>
        <time>2022-01-14T10:57:36Z</time>
      </trkpt>
      <trkpt lat="44.99689" lon="6.44835">
        <ele>2517.9</ele>
        <time>2022-01-14T10:57:37Z</time>
      </trkpt>
      <trkpt lat="44.99689" lon="6.44835">
        <ele>2517.9</ele>
        <time>2022-01-14T10:57:38Z</time>
      </trkpt>
      <trkpt lat="44.99689" lon="6.44836">
        <ele>2517.9</ele>
        <time>2022-01-14T10:57:39Z</time>
      </trkpt>
      <trkpt lat="44.99689" lon="6.44837">
        <ele>2517.9</ele>
        <time>2022-01-14T10:57:40Z</time>
      </trkpt>
      <trkpt lat="44.99689" lon="6.44837">
        <ele>2517.9</ele>
        <time>2022-01-14T10:57:41Z</time>
      </trkpt>
      <trkpt lat="44.9969" lon="6.44838">
        <ele>2517.2</ele>
        <time>2022-01-14T10:57:42Z</time>
      </trkpt>
      <trkpt lat="44.9969" lon="6.44839">
        <ele>2517.2</ele>
        <time>2022-01-14T10:57:43Z</time>
      </trkpt>
      <trkpt lat="44.9969" lon="6.44841">
        <ele>2517.2</ele>
        <time>2022-01-14T10:57:44Z</time>
      </trkpt>
      <trkpt lat="44.99688" lon="6.44842">
        <ele>2517.8</ele>
        <time>2022-01-14T10:57:45Z</time>
      </trkpt>
      <trkpt lat="44.99685" lon="6.44842">
        <ele>2518.1</ele>
        <time>2022-01-14T10:57:46Z</time>
      </trkpt>
      <trkpt lat="44.99683" lon="6.44842">
        <ele>2518.1</ele>
        <time>2022-01-14T10:57:47Z</time>
      </trkpt>
      <trkpt lat="44.99681" lon="6.44845">
        <ele>2518.4</ele>
        <time>2022-01-14T10:57:48Z</time>
      </trkpt>
      <trkpt lat="44.9968" lon="6.44846">
        <ele>2518.3</ele>
        <time>2022-01-14T10:57:49Z</time>
      </trkpt>
      <trkpt lat="44.99679" lon="6.4485">
        <ele>2518.4</ele>
        <time>2022-01-14T10:57:50Z</time>
      </trkpt>
      <trkpt lat="44.99678" lon="6.44851">
        <ele>2518.1</ele>
        <time>2022-01-14T10:57:51Z</time>
      </trkpt>
      <trkpt lat="44.99676" lon="6.44853">
        <ele>2517.7</ele>
        <time>2022-01-14T10:57:52Z</time>
      </trkpt>
      <trkpt lat="44.99675" lon="6.44854">
        <ele>2517.7</ele>
        <time>2022-01-14T10:57:53Z</time>
      </trkpt>
      <trkpt lat="44.99672" lon="6.44854">
        <ele>2517.3</ele>
        <time>2022-01-14T10:57:54Z</time>
      </trkpt>
      <trkpt lat="44.9967" lon="6.44853">
        <ele>2516.9</ele>
        <time>2022-01-14T10:57:55Z</time>
      </trkpt>
      <trkpt lat="44.99669" lon="6.44853">
        <ele>2516.9</ele>
        <time>2022-01-14T10:57:56Z</time>
      </trkpt>
      <trkpt lat="44.99667" lon="6.44855">
        <ele>2516.2</ele>
        <time>2022-01-14T10:57:57Z</time>
      </trkpt>
      <trkpt lat="44.99667" lon="6.44857">
        <ele>2515.4</ele>
        <time>2022-01-14T10:57:58Z</time>
      </trkpt>
      <trkpt lat="44.99667" lon="6.44861">
        <ele>2515.3</ele>
        <time>2022-01-14T10:57:59Z</time>
      </trkpt>
      <trkpt lat="44.99668" lon="6.44863">
        <ele>2514.5</ele>
        <time>2022-01-14T10:58:00Z</time>
      </trkpt>
      <trkpt lat="44.99668" lon="6.44865">
        <ele>2514.5</ele>
        <time>2022-01-14T10:58:01Z</time>
      </trkpt>
      <trkpt lat="44.99668" lon="6.44866">
        <ele>2514.5</ele>
        <time>2022-01-14T10:58:02Z</time>
      </trkpt>
      <trkpt lat="44.99668" lon="6.44867">
        <ele>2514.5</ele>
        <time>2022-01-14T10:58:03Z</time>
      </trkpt>
      <trkpt lat="44.99669" lon="6.44869">
        <ele>2513.6</ele>
        <time>2022-01-14T10:58:04Z</time>
      </trkpt>
      <trkpt lat="44.99667" lon="6.44869">
        <ele>2512.3</ele>
        <time>2022-01-14T10:58:05Z</time>
      </trkpt>
      <trkpt lat="44.99666" lon="6.44868">
        <ele>2512.3</ele>
        <time>2022-01-14T10:58:06Z</time>
      </trkpt>
      <trkpt lat="44.99665" lon="6.44866">
        <ele>2513.3</ele>
        <time>2022-01-14T10:58:07Z</time>
      </trkpt>
      <trkpt lat="44.99663" lon="6.44864">
        <ele>2511.5</ele>
        <time>2022-01-14T10:58:08Z</time>
      </trkpt>
      <trkpt lat="44.99662" lon="6.44865">
        <ele>2511.5</ele>
        <time>2022-01-14T10:58:09Z</time>
      </trkpt>
      <trkpt lat="44.99662" lon="6.44871">
        <ele>2510.2</ele>
        <time>2022-01-14T10:58:10Z</time>
      </trkpt>
      <trkpt lat="44.99663" lon="6.44873">
        <ele>2508.8</ele>
        <time>2022-01-14T10:58:11Z</time>
      </trkpt>
      <trkpt lat="44.99664" lon="6.44876">
        <ele>2507.3</ele>
        <time>2022-01-14T10:58:12Z</time>
      </trkpt>
      <trkpt lat="44.99664" lon="6.44877">
        <ele>2509.6</ele>
        <time>2022-01-14T10:58:13Z</time>
      </trkpt>
      <trkpt lat="44.99664" lon="6.4488">
        <ele>2509.6</ele>
        <time>2022-01-14T10:58:14Z</time>
      </trkpt>
      <trkpt lat="44.99664" lon="6.44882">
        <ele>2505.7</ele>
        <time>2022-01-14T10:58:15Z</time>
      </trkpt>
      <trkpt lat="44.99662" lon="6.44884">
        <ele>2505.7</ele>
        <time>2022-01-14T10:58:16Z</time>
      </trkpt>
      <trkpt lat="44.99659" lon="6.44882">
        <ele>2503.3</ele>
        <time>2022-01-14T10:58:17Z</time>
      </trkpt>
      <trkpt lat="44.99657" lon="6.44882">
        <ele>2500.9</ele>
        <time>2022-01-14T10:58:18Z</time>
      </trkpt>
      <trkpt lat="44.99656" lon="6.44882">
        <ele>2500.9</ele>
        <time>2022-01-14T10:58:19Z</time>
      </trkpt>
      <trkpt lat="44.99655" lon="6.44885">
        <ele>2499.2</ele>
        <time>2022-01-14T10:58:20Z</time>
      </trkpt>
      <trkpt lat="44.99655" lon="6.44887">
        <ele>2499.2</ele>
        <time>2022-01-14T10:58:21Z</time>
      </trkpt>
      <trkpt lat="44.99655" lon="6.44892">
        <ele>2497.4</ele>
        <time>2022-01-14T10:58:22Z</time>
      </trkpt>
      <trkpt lat="44.99655" lon="6.44894">
        <ele>2495.1</ele>
        <time>2022-01-14T10:58:23Z</time>
      </trkpt>
      <trkpt lat="44.99655" lon="6.44895">
        <ele>2492.7</ele>
        <time>2022-01-14T10:58:24Z</time>
      </trkpt>
      <trkpt lat="44.99655" lon="6.44895">
        <ele>2492.7</ele>
        <time>2022-01-14T10:58:25Z</time>
      </trkpt>
      <trkpt lat="44.99655" lon="6.44895">
        <ele>2492.7</ele>
        <time>2022-01-14T10:58:26Z</time>
      </trkpt>
      <trkpt lat="44.99655" lon="6.44895">
        <ele>2492.7</ele>
        <time>2022-01-14T10:58:27Z</time>
      </trkpt>
      <trkpt lat="44.99655" lon="6.44896">
        <ele>2492.7</ele>
        <time>2022-01-14T10:58:28Z</time>
      </trkpt>
      <trkpt lat="44.99652" lon="6.44895">
        <ele>2490.5</ele>
        <time>2022-01-14T10:58:29Z</time>
      </trkpt>
      <trkpt lat="44.99651" lon="6.44895">
        <ele>2490.5</ele>
        <time>2022-01-14T10:58:30Z</time>
      </trkpt>
      <trkpt lat="44.99648" lon="6.44892">
        <ele>2490</ele>
        <time>2022-01-14T10:58:31Z</time>
      </trkpt>
      <trkpt lat="44.99648" lon="6.44891">
        <ele>2490</ele>
        <time>2022-01-14T10:58:32Z</time>
      </trkpt>
      <trkpt lat="44.99648" lon="6.44892">
        <ele>2490</ele>
        <time>2022-01-14T10:58:33Z</time>
      </trkpt>
      <trkpt lat="44.99648" lon="6.44893">
        <ele>2490</ele>
        <time>2022-01-14T10:58:34Z</time>
      </trkpt>
      <trkpt lat="44.99648" lon="6.44893">
        <ele>2490</ele>
        <time>2022-01-14T10:58:35Z</time>
      </trkpt>
      <trkpt lat="44.99649" lon="6.44894">
        <ele>2488.2</ele>
        <time>2022-01-14T10:58:36Z</time>
      </trkpt>
      <trkpt lat="44.99649" lon="6.44894">
        <ele>2490.5</ele>
        <time>2022-01-14T10:58:37Z</time>
      </trkpt>
      <trkpt lat="44.99649" lon="6.44895">
        <ele>2490.5</ele>
        <time>2022-01-14T10:58:38Z</time>
      </trkpt>
      <trkpt lat="44.9965" lon="6.44896">
        <ele>2490.5</ele>
        <time>2022-01-14T10:58:39Z</time>
      </trkpt>
      <trkpt lat="44.9965" lon="6.44896">
        <ele>2490.5</ele>
        <time>2022-01-14T10:58:40Z</time>
      </trkpt>
      <trkpt lat="44.9965" lon="6.44897">
        <ele>2490.5</ele>
        <time>2022-01-14T10:58:41Z</time>
      </trkpt>
      <trkpt lat="44.99652" lon="6.44901">
        <ele>2487.2</ele>
        <time>2022-01-14T10:58:42Z</time>
      </trkpt>
      <trkpt lat="44.99654" lon="6.44904">
        <ele>2487</ele>
        <time>2022-01-14T10:58:43Z</time>
      </trkpt>
      <trkpt lat="44.99656" lon="6.44908">
        <ele>2487.2</ele>
        <time>2022-01-14T10:58:44Z</time>
      </trkpt>
      <trkpt lat="44.99658" lon="6.44911">
        <ele>2485.3</ele>
        <time>2022-01-14T10:58:45Z</time>
      </trkpt>
      <trkpt lat="44.99659" lon="6.44913">
        <ele>2487.2</ele>
        <time>2022-01-14T10:58:46Z</time>
      </trkpt>
      <trkpt lat="44.9966" lon="6.44914">
        <ele>2487.2</ele>
        <time>2022-01-14T10:58:47Z</time>
      </trkpt>
      <trkpt lat="44.99661" lon="6.44915">
        <ele>2485.1</ele>
        <time>2022-01-14T10:58:48Z</time>
      </trkpt>
      <trkpt lat="44.99661" lon="6.44915">
        <ele>2486.9</ele>
        <time>2022-01-14T10:58:49Z</time>
      </trkpt>
      <trkpt lat="44.99662" lon="6.44915">
        <ele>2486.9</ele>
        <time>2022-01-14T10:58:50Z</time>
      </trkpt>
      <trkpt lat="44.99662" lon="6.44915">
        <ele>2486.9</ele>
        <time>2022-01-14T10:58:51Z</time>
      </trkpt>
      <trkpt lat="44.99662" lon="6.44915">
        <ele>2486.9</ele>
        <time>2022-01-14T10:58:52Z</time>
      </trkpt>
      <trkpt lat="44.99662" lon="6.44915">
        <ele>2486.9</ele>
        <time>2022-01-14T10:58:53Z</time>
      </trkpt>
      <trkpt lat="44.9966" lon="6.44915">
        <ele>2485.1</ele>
        <time>2022-01-14T10:58:54Z</time>
      </trkpt>
      <trkpt lat="44.99657" lon="6.44913">
        <ele>2485.3</ele>
        <time>2022-01-14T10:58:55Z</time>
      </trkpt>
      <trkpt lat="44.99654" lon="6.44911">
        <ele>2483.5</ele>
        <time>2022-01-14T10:58:56Z</time>
      </trkpt>
      <trkpt lat="44.99651" lon="6.44909">
        <ele>2483.6</ele>
        <time>2022-01-14T10:58:57Z</time>
      </trkpt>
      <trkpt lat="44.99648" lon="6.44909">
        <ele>2481.9</ele>
        <time>2022-01-14T10:58:58Z</time>
      </trkpt>
      <trkpt lat="44.99645" lon="6.44913">
        <ele>2478.9</ele>
        <time>2022-01-14T10:58:59Z</time>
      </trkpt>
      <trkpt lat="44.99644" lon="6.44919">
        <ele>2477.6</ele>
        <time>2022-01-14T10:59:00Z</time>
      </trkpt>
      <trkpt lat="44.99643" lon="6.44924">
        <ele>2472.9</ele>
        <time>2022-01-14T10:59:01Z</time>
      </trkpt>
      <trkpt lat="44.99642" lon="6.44927">
        <ele>2472.9</ele>
        <time>2022-01-14T10:59:02Z</time>
      </trkpt>
      <trkpt lat="44.99643" lon="6.44931">
        <ele>2472</ele>
        <time>2022-01-14T10:59:03Z</time>
      </trkpt>
      <trkpt lat="44.99643" lon="6.44934">
        <ele>2469.8</ele>
        <time>2022-01-14T10:59:04Z</time>
      </trkpt>
      <trkpt lat="44.99642" lon="6.44934">
        <ele>2468.5</ele>
        <time>2022-01-14T10:59:05Z</time>
      </trkpt>
      <trkpt lat="44.9964" lon="6.44933">
        <ele>2468.5</ele>
        <time>2022-01-14T10:59:06Z</time>
      </trkpt>
      <trkpt lat="44.99637" lon="6.44934">
        <ele>2467.3</ele>
        <time>2022-01-14T10:59:07Z</time>
      </trkpt>
      <trkpt lat="44.99637" lon="6.44939">
        <ele>2465.2</ele>
        <time>2022-01-14T10:59:08Z</time>
      </trkpt>
      <trkpt lat="44.99637" lon="6.44943">
        <ele>2463.1</ele>
        <time>2022-01-14T10:59:09Z</time>
      </trkpt>
      <trkpt lat="44.99638" lon="6.44945">
        <ele>2461.1</ele>
        <time>2022-01-14T10:59:10Z</time>
      </trkpt>
      <trkpt lat="44.99639" lon="6.44945">
        <ele>2461.1</ele>
        <time>2022-01-14T10:59:11Z</time>
      </trkpt>
      <trkpt lat="44.9964" lon="6.44945">
        <ele>2461.1</ele>
        <time>2022-01-14T10:59:12Z</time>
      </trkpt>
      <trkpt lat="44.9964" lon="6.44946">
        <ele>2462.2</ele>
        <time>2022-01-14T10:59:13Z</time>
      </trkpt>
      <trkpt lat="44.99641" lon="6.44946">
        <ele>2462.2</ele>
        <time>2022-01-14T10:59:14Z</time>
      </trkpt>
      <trkpt lat="44.99641" lon="6.44945">
        <ele>2462.2</ele>
        <time>2022-01-14T10:59:15Z</time>
      </trkpt>
      <trkpt lat="44.99641" lon="6.44945">
        <ele>2462.2</ele>
        <time>2022-01-14T10:59:16Z</time>
      </trkpt>
      <trkpt lat="44.99641" lon="6.44945">
        <ele>2462.2</ele>
        <time>2022-01-14T10:59:17Z</time>
      </trkpt>
      <trkpt lat="44.9964" lon="6.44945">
        <ele>2462.2</ele>
        <time>2022-01-14T10:59:18Z</time>
      </trkpt>
      <trkpt lat="44.9964" lon="6.44945">
        <ele>2461.1</ele>
        <time>2022-01-14T10:59:19Z</time>
      </trkpt>
      <trkpt lat="44.99639" lon="6.44945">
        <ele>2463.1</ele>
        <time>2022-01-14T10:59:20Z</time>
      </trkpt>
      <trkpt lat="44.99639" lon="6.44944">
        <ele>2463.1</ele>
        <time>2022-01-14T10:59:21Z</time>
      </trkpt>
      <trkpt lat="44.99639" lon="6.44944">
        <ele>2463.1</ele>
        <time>2022-01-14T10:59:22Z</time>
      </trkpt>
      <trkpt lat="44.99638" lon="6.44944">
        <ele>2463.1</ele>
        <time>2022-01-14T10:59:23Z</time>
      </trkpt>
      <trkpt lat="44.99638" lon="6.44944">
        <ele>2463.1</ele>
        <time>2022-01-14T10:59:24Z</time>
      </trkpt>
      <trkpt lat="44.99637" lon="6.44944">
        <ele>2463.1</ele>
        <time>2022-01-14T10:59:25Z</time>
      </trkpt>
      <trkpt lat="44.99636" lon="6.44947">
        <ele>2460</ele>
        <time>2022-01-14T10:59:26Z</time>
      </trkpt>
      <trkpt lat="44.99636" lon="6.44949">
        <ele>2460</ele>
        <time>2022-01-14T10:59:27Z</time>
      </trkpt>
      <trkpt lat="44.99637" lon="6.44954">
        <ele>2456.9</ele>
        <time>2022-01-14T10:59:28Z</time>
      </trkpt>
      <trkpt lat="44.99639" lon="6.44957">
        <ele>2456.9</ele>
        <time>2022-01-14T10:59:29Z</time>
      </trkpt>
      <trkpt lat="44.99639" lon="6.44958">
        <ele>2454.7</ele>
        <time>2022-01-14T10:59:30Z</time>
      </trkpt>
      <trkpt lat="44.9964" lon="6.44961">
        <ele>2454.7</ele>
        <time>2022-01-14T10:59:31Z</time>
      </trkpt>
      <trkpt lat="44.99637" lon="6.44961">
        <ele>2454.7</ele>
        <time>2022-01-14T10:59:32Z</time>
      </trkpt>
      <trkpt lat="44.99634" lon="6.44958">
        <ele>2453.4</ele>
        <time>2022-01-14T10:59:33Z</time>
      </trkpt>
      <trkpt lat="44.99632" lon="6.44957">
        <ele>2454.5</ele>
        <time>2022-01-14T10:59:34Z</time>
      </trkpt>
      <trkpt lat="44.99631" lon="6.44957">
        <ele>2454.5</ele>
        <time>2022-01-14T10:59:35Z</time>
      </trkpt>
      <trkpt lat="44.99629" lon="6.44962">
        <ele>2450.9</ele>
        <time>2022-01-14T10:59:36Z</time>
      </trkpt>
      <trkpt lat="44.99629" lon="6.44964">
        <ele>2448.4</ele>
        <time>2022-01-14T10:59:37Z</time>
      </trkpt>
      <trkpt lat="44.99632" lon="6.44969">
        <ele>2447.2</ele>
        <time>2022-01-14T10:59:38Z</time>
      </trkpt>
      <trkpt lat="44.99633" lon="6.44972">
        <ele>2444.7</ele>
        <time>2022-01-14T10:59:39Z</time>
      </trkpt>
      <trkpt lat="44.99635" lon="6.44974">
        <ele>2446.2</ele>
        <time>2022-01-14T10:59:40Z</time>
      </trkpt>
      <trkpt lat="44.99636" lon="6.44975">
        <ele>2443.9</ele>
        <time>2022-01-14T10:59:41Z</time>
      </trkpt>
      <trkpt lat="44.99636" lon="6.44977">
        <ele>2443.9</ele>
        <time>2022-01-14T10:59:42Z</time>
      </trkpt>
      <trkpt lat="44.99635" lon="6.44977">
        <ele>2443.9</ele>
        <time>2022-01-14T10:59:43Z</time>
      </trkpt>
      <trkpt lat="44.99633" lon="6.44976">
        <ele>2442.4</ele>
        <time>2022-01-14T10:59:44Z</time>
      </trkpt>
      <trkpt lat="44.99631" lon="6.44976">
        <ele>2442.4</ele>
        <time>2022-01-14T10:59:45Z</time>
      </trkpt>
      <trkpt lat="44.99632" lon="6.44979">
        <ele>2442.4</ele>
        <time>2022-01-14T10:59:46Z</time>
      </trkpt>
      <trkpt lat="44.99632" lon="6.44981">
        <ele>2440.2</ele>
        <time>2022-01-14T10:59:47Z</time>
      </trkpt>
      <trkpt lat="44.99633" lon="6.44983">
        <ele>2440.2</ele>
        <time>2022-01-14T10:59:48Z</time>
      </trkpt>
      <trkpt lat="44.99633" lon="6.44985">
        <ele>2438</ele>
        <time>2022-01-14T10:59:49Z</time>
      </trkpt>
      <trkpt lat="44.99632" lon="6.44988">
        <ele>2435.7</ele>
        <time>2022-01-14T10:59:50Z</time>
      </trkpt>
      <trkpt lat="44.99631" lon="6.44988">
        <ele>2435.7</ele>
        <time>2022-01-14T10:59:51Z</time>
      </trkpt>
      <trkpt lat="44.9963" lon="6.44988">
        <ele>2434.3</ele>
        <time>2022-01-14T10:59:52Z</time>
      </trkpt>
      <trkpt lat="44.99627" lon="6.44994">
        <ele>2431.5</ele>
        <time>2022-01-14T10:59:53Z</time>
      </trkpt>
      <trkpt lat="44.99627" lon="6.45">
        <ele>2429.7</ele>
        <time>2022-01-14T10:59:54Z</time>
      </trkpt>
      <trkpt lat="44.99628" lon="6.45007">
        <ele>2427.2</ele>
        <time>2022-01-14T10:59:55Z</time>
      </trkpt>
      <trkpt lat="44.99629" lon="6.4501">
        <ele>2425.7</ele>
        <time>2022-01-14T10:59:56Z</time>
      </trkpt>
      <trkpt lat="44.9963" lon="6.4501">
        <ele>2425.7</ele>
        <time>2022-01-14T10:59:57Z</time>
      </trkpt>
      <trkpt lat="44.9963" lon="6.45009">
        <ele>2425.7</ele>
        <time>2022-01-14T10:59:58Z</time>
      </trkpt>
      <trkpt lat="44.99631" lon="6.45008">
        <ele>2428.4</ele>
        <time>2022-01-14T10:59:59Z</time>
      </trkpt>
      <trkpt lat="44.9963" lon="6.45008">
        <ele>2427.2</ele>
        <time>2022-01-14T11:00:00Z</time>
      </trkpt>
      <trkpt lat="44.9963" lon="6.45008">
        <ele>2427.2</ele>
        <time>2022-01-14T11:00:01Z</time>
      </trkpt>
      <trkpt lat="44.9963" lon="6.45008">
        <ele>2427.2</ele>
        <time>2022-01-14T11:00:02Z</time>
      </trkpt>
      <trkpt lat="44.99631" lon="6.45008">
        <ele>2427.2</ele>
        <time>2022-01-14T11:00:03Z</time>
      </trkpt>
      <trkpt lat="44.99631" lon="6.45009">
        <ele>2428.4</ele>
        <time>2022-01-14T11:00:04Z</time>
      </trkpt>
      <trkpt lat="44.99632" lon="6.45009">
        <ele>2426.8</ele>
        <time>2022-01-14T11:00:05Z</time>
      </trkpt>
      <trkpt lat="44.99632" lon="6.45009">
        <ele>2428.4</ele>
        <time>2022-01-14T11:00:06Z</time>
      </trkpt>
      <trkpt lat="44.99633" lon="6.45009">
        <ele>2426.8</ele>
        <time>2022-01-14T11:00:07Z</time>
      </trkpt>
      <trkpt lat="44.99633" lon="6.4501">
        <ele>2426.8</ele>
        <time>2022-01-14T11:00:08Z</time>
      </trkpt>
      <trkpt lat="44.99632" lon="6.45011">
        <ele>2426.8</ele>
        <time>2022-01-14T11:00:09Z</time>
      </trkpt>
      <trkpt lat="44.9963" lon="6.45011">
        <ele>2425.7</ele>
        <time>2022-01-14T11:00:10Z</time>
      </trkpt>
      <trkpt lat="44.99627" lon="6.45008">
        <ele>2426.2</ele>
        <time>2022-01-14T11:00:11Z</time>
      </trkpt>
      <trkpt lat="44.99626" lon="6.45007">
        <ele>2426.2</ele>
        <time>2022-01-14T11:00:12Z</time>
      </trkpt>
      <trkpt lat="44.99624" lon="6.45009">
        <ele>2425.2</ele>
        <time>2022-01-14T11:00:13Z</time>
      </trkpt>
      <trkpt lat="44.99623" lon="6.45011">
        <ele>2423.7</ele>
        <time>2022-01-14T11:00:14Z</time>
      </trkpt>
      <trkpt lat="44.99624" lon="6.45016">
        <ele>2422.2</ele>
        <time>2022-01-14T11:00:15Z</time>
      </trkpt>
      <trkpt lat="44.99625" lon="6.45021">
        <ele>2421.7</ele>
        <time>2022-01-14T11:00:16Z</time>
      </trkpt>
      <trkpt lat="44.99627" lon="6.45024">
        <ele>2420.2</ele>
        <time>2022-01-14T11:00:17Z</time>
      </trkpt>
      <trkpt lat="44.99628" lon="6.45025">
        <ele>2421.2</ele>
        <time>2022-01-14T11:00:18Z</time>
      </trkpt>
      <trkpt lat="44.99629" lon="6.45028">
        <ele>2419.9</ele>
        <time>2022-01-14T11:00:19Z</time>
      </trkpt>
      <trkpt lat="44.99627" lon="6.45031">
        <ele>2417.6</ele>
        <time>2022-01-14T11:00:20Z</time>
      </trkpt>
      <trkpt lat="44.99626" lon="6.45032">
        <ele>2417.6</ele>
        <time>2022-01-14T11:00:21Z</time>
      </trkpt>
      <trkpt lat="44.99623" lon="6.4503">
        <ele>2417.9</ele>
        <time>2022-01-14T11:00:22Z</time>
      </trkpt>
      <trkpt lat="44.99621" lon="6.45028">
        <ele>2416.9</ele>
        <time>2022-01-14T11:00:23Z</time>
      </trkpt>
      <trkpt lat="44.99618" lon="6.45027">
        <ele>2415.9</ele>
        <time>2022-01-14T11:00:24Z</time>
      </trkpt>
      <trkpt lat="44.99614" lon="6.45027">
        <ele>2415.2</ele>
        <time>2022-01-14T11:00:25Z</time>
      </trkpt>
      <trkpt lat="44.99612" lon="6.4503">
        <ele>2414.4</ele>
        <time>2022-01-14T11:00:26Z</time>
      </trkpt>
      <trkpt lat="44.99611" lon="6.45034">
        <ele>2413.2</ele>
        <time>2022-01-14T11:00:27Z</time>
      </trkpt>
      <trkpt lat="44.99612" lon="6.45038">
        <ele>2411.9</ele>
        <time>2022-01-14T11:00:28Z</time>
      </trkpt>
      <trkpt lat="44.99614" lon="6.45043">
        <ele>2410.3</ele>
        <time>2022-01-14T11:00:29Z</time>
      </trkpt>
      <trkpt lat="44.99616" lon="6.45048">
        <ele>2411.1</ele>
        <time>2022-01-14T11:00:30Z</time>
      </trkpt>
      <trkpt lat="44.99617" lon="6.45052">
        <ele>2409.1</ele>
        <time>2022-01-14T11:00:31Z</time>
      </trkpt>
      <trkpt lat="44.99618" lon="6.45054">
        <ele>2409.1</ele>
        <time>2022-01-14T11:00:32Z</time>
      </trkpt>
      <trkpt lat="44.99618" lon="6.45055">
        <ele>2409.1</ele>
        <time>2022-01-14T11:00:33Z</time>
      </trkpt>
      <trkpt lat="44.99619" lon="6.45055">
        <ele>2409.1</ele>
        <time>2022-01-14T11:00:34Z</time>
      </trkpt>
      <trkpt lat="44.99619" lon="6.45055">
        <ele>2409.1</ele>
        <time>2022-01-14T11:00:35Z</time>
      </trkpt>
      <trkpt lat="44.99619" lon="6.45056">
        <ele>2409.9</ele>
        <time>2022-01-14T11:00:36Z</time>
      </trkpt>
      <trkpt lat="44.99618" lon="6.45055">
        <ele>2409.1</ele>
        <time>2022-01-14T11:00:37Z</time>
      </trkpt>
      <trkpt lat="44.99617" lon="6.45055">
        <ele>2409.1</ele>
        <time>2022-01-14T11:00:38Z</time>
      </trkpt>
      <trkpt lat="44.99616" lon="6.45055">
        <ele>2409.1</ele>
        <time>2022-01-14T11:00:39Z</time>
      </trkpt>
      <trkpt lat="44.99615" lon="6.45055">
        <ele>2408.2</ele>
        <time>2022-01-14T11:00:40Z</time>
      </trkpt>
      <trkpt lat="44.99612" lon="6.45056">
        <ele>2407.2</ele>
        <time>2022-01-14T11:00:41Z</time>
      </trkpt>
      <trkpt lat="44.99611" lon="6.4506">
        <ele>2406.1</ele>
        <time>2022-01-14T11:00:42Z</time>
      </trkpt>
      <trkpt lat="44.99612" lon="6.45065">
        <ele>2403</ele>
        <time>2022-01-14T11:00:43Z</time>
      </trkpt>
      <trkpt lat="44.99614" lon="6.45071">
        <ele>2402.3</ele>
        <time>2022-01-14T11:00:44Z</time>
      </trkpt>
      <trkpt lat="44.99615" lon="6.45077">
        <ele>2400.6</ele>
        <time>2022-01-14T11:00:45Z</time>
      </trkpt>
      <trkpt lat="44.99616" lon="6.45081">
        <ele>2399.6</ele>
        <time>2022-01-14T11:00:46Z</time>
      </trkpt>
      <trkpt lat="44.99617" lon="6.45082">
        <ele>2399.6</ele>
        <time>2022-01-14T11:00:47Z</time>
      </trkpt>
      <trkpt lat="44.99618" lon="6.45086">
        <ele>2397.8</ele>
        <time>2022-01-14T11:00:48Z</time>
      </trkpt>
      <trkpt lat="44.99619" lon="6.45088">
        <ele>2397.3</ele>
        <time>2022-01-14T11:00:49Z</time>
      </trkpt>
      <trkpt lat="44.99618" lon="6.45091">
        <ele>2394.3</ele>
        <time>2022-01-14T11:00:50Z</time>
      </trkpt>
      <trkpt lat="44.99617" lon="6.45092">
        <ele>2394.3</ele>
        <time>2022-01-14T11:00:51Z</time>
      </trkpt>
      <trkpt lat="44.99614" lon="6.4509">
        <ele>2395.2</ele>
        <time>2022-01-14T11:00:52Z</time>
      </trkpt>
      <trkpt lat="44.99613" lon="6.45089">
        <ele>2395.2</ele>
        <time>2022-01-14T11:00:53Z</time>
      </trkpt>
      <trkpt lat="44.99609" lon="6.45087">
        <ele>2393.3</ele>
        <time>2022-01-14T11:00:54Z</time>
      </trkpt>
      <trkpt lat="44.99607" lon="6.45086">
        <ele>2395.3</ele>
        <time>2022-01-14T11:00:55Z</time>
      </trkpt>
      <trkpt lat="44.99604" lon="6.45084">
        <ele>2394.3</ele>
        <time>2022-01-14T11:00:56Z</time>
      </trkpt>
      <trkpt lat="44.99601" lon="6.45085">
        <ele>2392.9</ele>
        <time>2022-01-14T11:00:57Z</time>
      </trkpt>
      <trkpt lat="44.99598" lon="6.45086">
        <ele>2391.5</ele>
        <time>2022-01-14T11:00:58Z</time>
      </trkpt>
      <trkpt lat="44.99595" lon="6.45087">
        <ele>2388.3</ele>
        <time>2022-01-14T11:00:59Z</time>
      </trkpt>
      <trkpt lat="44.99592" lon="6.45088">
        <ele>2387.1</ele>
        <time>2022-01-14T11:01:00Z</time>
      </trkpt>
      <trkpt lat="44.9959" lon="6.4509">
        <ele>2386.1</ele>
        <time>2022-01-14T11:01:01Z</time>
      </trkpt>
      <trkpt lat="44.99588" lon="6.45091">
        <ele>2384.5</ele>
        <time>2022-01-14T11:01:02Z</time>
      </trkpt>
      <trkpt lat="44.99586" lon="6.45091">
        <ele>2383.5</ele>
        <time>2022-01-14T11:01:03Z</time>
      </trkpt>
      <trkpt lat="44.99586" lon="6.4509">
        <ele>2383.1</ele>
        <time>2022-01-14T11:01:04Z</time>
      </trkpt>
      <trkpt lat="44.99585" lon="6.4509">
        <ele>2382.9</ele>
        <time>2022-01-14T11:01:05Z</time>
      </trkpt>
      <trkpt lat="44.99585" lon="6.4509">
        <ele>2382.7</ele>
        <time>2022-01-14T11:01:06Z</time>
      </trkpt>
      <trkpt lat="44.99585" lon="6.4509">
        <ele>2382.9</ele>
        <time>2022-01-14T11:01:07Z</time>
      </trkpt>
      <trkpt lat="44.99584" lon="6.4509">
        <ele>2382.7</ele>
        <time>2022-01-14T11:01:08Z</time>
      </trkpt>
      <trkpt lat="44.99584" lon="6.4509">
        <ele>2382.8</ele>
        <time>2022-01-14T11:01:09Z</time>
      </trkpt>
      <trkpt lat="44.99584" lon="6.45091">
        <ele>2382.4</ele>
        <time>2022-01-14T11:01:10Z</time>
      </trkpt>
      <trkpt lat="44.99583" lon="6.45092">
        <ele>2382.2</ele>
        <time>2022-01-14T11:01:11Z</time>
      </trkpt>
      <trkpt lat="44.99585" lon="6.45095">
        <ele>2381.6</ele>
        <time>2022-01-14T11:01:12Z</time>
      </trkpt>
      <trkpt lat="44.99586" lon="6.45094">
        <ele>2381</ele>
        <time>2022-01-14T11:01:13Z</time>
      </trkpt>
      <trkpt lat="44.99586" lon="6.45093">
        <ele>2381.2</ele>
        <time>2022-01-14T11:01:14Z</time>
      </trkpt>
      <trkpt lat="44.99586" lon="6.45092">
        <ele>2381.6</ele>
        <time>2022-01-14T11:01:15Z</time>
      </trkpt>
      <trkpt lat="44.99586" lon="6.45092">
        <ele>2381.8</ele>
        <time>2022-01-14T11:01:16Z</time>
      </trkpt>
      <trkpt lat="44.99586" lon="6.45091">
        <ele>2381.8</ele>
        <time>2022-01-14T11:01:17Z</time>
      </trkpt>
      <trkpt lat="44.99586" lon="6.4509">
        <ele>2382.2</ele>
        <time>2022-01-14T11:01:18Z</time>
      </trkpt>
      <trkpt lat="44.99586" lon="6.4509">
        <ele>2383</ele>
        <time>2022-01-14T11:01:19Z</time>
      </trkpt>
      <trkpt lat="44.99585" lon="6.4509">
        <ele>2383.3</ele>
        <time>2022-01-14T11:01:20Z</time>
      </trkpt>
      <trkpt lat="44.99585" lon="6.45092">
        <ele>2383.1</ele>
        <time>2022-01-14T11:01:21Z</time>
      </trkpt>
      <trkpt lat="44.99584" lon="6.45094">
        <ele>2382.3</ele>
        <time>2022-01-14T11:01:22Z</time>
      </trkpt>
      <trkpt lat="44.99586" lon="6.45097">
        <ele>2381.3</ele>
        <time>2022-01-14T11:01:23Z</time>
      </trkpt>
      <trkpt lat="44.99587" lon="6.45097">
        <ele>2380.9</ele>
        <time>2022-01-14T11:01:24Z</time>
      </trkpt>
      <trkpt lat="44.9959" lon="6.451">
        <ele>2381.1</ele>
        <time>2022-01-14T11:01:25Z</time>
      </trkpt>
      <trkpt lat="44.99594" lon="6.45104">
        <ele>2380.2</ele>
        <time>2022-01-14T11:01:26Z</time>
      </trkpt>
      <trkpt lat="44.99598" lon="6.45109">
        <ele>2380.4</ele>
        <time>2022-01-14T11:01:27Z</time>
      </trkpt>
      <trkpt lat="44.99602" lon="6.45114">
        <ele>2379.9</ele>
        <time>2022-01-14T11:01:28Z</time>
      </trkpt>
      <trkpt lat="44.99605" lon="6.45118">
        <ele>2379.7</ele>
        <time>2022-01-14T11:01:29Z</time>
      </trkpt>
      <trkpt lat="44.99607" lon="6.45121">
        <ele>2379.8</ele>
        <time>2022-01-14T11:01:30Z</time>
      </trkpt>
      <trkpt lat="44.99609" lon="6.45125">
        <ele>2379.8</ele>
        <time>2022-01-14T11:01:31Z</time>
      </trkpt>
      <trkpt lat="44.9961" lon="6.45126">
        <ele>2380</ele>
        <time>2022-01-14T11:01:32Z</time>
      </trkpt>
      <trkpt lat="44.99611" lon="6.45128">
        <ele>2380</ele>
        <time>2022-01-14T11:01:33Z</time>
      </trkpt>
      <trkpt lat="44.99612" lon="6.45129">
        <ele>2380</ele>
        <time>2022-01-14T11:01:34Z</time>
      </trkpt>
      <trkpt lat="44.99614" lon="6.45134">
        <ele>2379.5</ele>
        <time>2022-01-14T11:01:35Z</time>
      </trkpt>
      <trkpt lat="44.99614" lon="6.45136">
        <ele>2379.5</ele>
        <time>2022-01-14T11:01:36Z</time>
      </trkpt>
      <trkpt lat="44.99614" lon="6.45141">
        <ele>2378.5</ele>
        <time>2022-01-14T11:01:37Z</time>
      </trkpt>
      <trkpt lat="44.99611" lon="6.45145">
        <ele>2376</ele>
        <time>2022-01-14T11:01:38Z</time>
      </trkpt>
      <trkpt lat="44.99608" lon="6.45147">
        <ele>2373.3</ele>
        <time>2022-01-14T11:01:39Z</time>
      </trkpt>
      <trkpt lat="44.99605" lon="6.4515">
        <ele>2371.9</ele>
        <time>2022-01-14T11:01:40Z</time>
      </trkpt>
      <trkpt lat="44.99603" lon="6.45154">
        <ele>2369.4</ele>
        <time>2022-01-14T11:01:41Z</time>
      </trkpt>
      <trkpt lat="44.99603" lon="6.4516">
        <ele>2366.9</ele>
        <time>2022-01-14T11:01:42Z</time>
      </trkpt>
      <trkpt lat="44.99605" lon="6.45166">
        <ele>2367.1</ele>
        <time>2022-01-14T11:01:43Z</time>
      </trkpt>
      <trkpt lat="44.99608" lon="6.45171">
        <ele>2367.5</ele>
        <time>2022-01-14T11:01:44Z</time>
      </trkpt>
      <trkpt lat="44.9961" lon="6.45176">
        <ele>2368</ele>
        <time>2022-01-14T11:01:45Z</time>
      </trkpt>
      <trkpt lat="44.99613" lon="6.45182">
        <ele>2367.6</ele>
        <time>2022-01-14T11:01:46Z</time>
      </trkpt>
      <trkpt lat="44.99614" lon="6.45188">
        <ele>2366.8</ele>
        <time>2022-01-14T11:01:47Z</time>
      </trkpt>
      <trkpt lat="44.99615" lon="6.45194">
        <ele>2365.2</ele>
        <time>2022-01-14T11:01:48Z</time>
      </trkpt>
      <trkpt lat="44.99616" lon="6.45201">
        <ele>2365.5</ele>
        <time>2022-01-14T11:01:49Z</time>
      </trkpt>
      <trkpt lat="44.99616" lon="6.45207">
        <ele>2362</ele>
        <time>2022-01-14T11:01:50Z</time>
      </trkpt>
      <trkpt lat="44.99617" lon="6.45214">
        <ele>2360.3</ele>
        <time>2022-01-14T11:01:51Z</time>
      </trkpt>
      <trkpt lat="44.99618" lon="6.45219">
        <ele>2358.8</ele>
        <time>2022-01-14T11:01:52Z</time>
      </trkpt>
      <trkpt lat="44.99619" lon="6.45224">
        <ele>2360.4</ele>
        <time>2022-01-14T11:01:53Z</time>
      </trkpt>
      <trkpt lat="44.99619" lon="6.45227">
        <ele>2356.4</ele>
        <time>2022-01-14T11:01:54Z</time>
      </trkpt>
      <trkpt lat="44.99619" lon="6.45232">
        <ele>2357.8</ele>
        <time>2022-01-14T11:01:55Z</time>
      </trkpt>
      <trkpt lat="44.99619" lon="6.45233">
        <ele>2356.7</ele>
        <time>2022-01-14T11:01:56Z</time>
      </trkpt>
      <trkpt lat="44.99619" lon="6.45233">
        <ele>2356.7</ele>
        <time>2022-01-14T11:01:57Z</time>
      </trkpt>
      <trkpt lat="44.99619" lon="6.45233">
        <ele>2356.7</ele>
        <time>2022-01-14T11:01:58Z</time>
      </trkpt>
      <trkpt lat="44.99619" lon="6.45233">
        <ele>2356.7</ele>
        <time>2022-01-14T11:01:59Z</time>
      </trkpt>
      <trkpt lat="44.99618" lon="6.45233">
        <ele>2354.2</ele>
        <time>2022-01-14T11:02:00Z</time>
      </trkpt>
      <trkpt lat="44.99618" lon="6.45232">
        <ele>2354.2</ele>
        <time>2022-01-14T11:02:01Z</time>
      </trkpt>
      <trkpt lat="44.99618" lon="6.45233">
        <ele>2354.2</ele>
        <time>2022-01-14T11:02:02Z</time>
      </trkpt>
      <trkpt lat="44.99618" lon="6.45233">
        <ele>2354.2</ele>
        <time>2022-01-14T11:02:03Z</time>
      </trkpt>
      <trkpt lat="44.99618" lon="6.45232">
        <ele>2355.1</ele>
        <time>2022-01-14T11:02:04Z</time>
      </trkpt>
      <trkpt lat="44.99617" lon="6.45232">
        <ele>2355.1</ele>
        <time>2022-01-14T11:02:05Z</time>
      </trkpt>
      <trkpt lat="44.99617" lon="6.45232">
        <ele>2355.1</ele>
        <time>2022-01-14T11:02:06Z</time>
      </trkpt>
      <trkpt lat="44.99617" lon="6.45232">
        <ele>2354.2</ele>
        <time>2022-01-14T11:02:07Z</time>
      </trkpt>
      <trkpt lat="44.99617" lon="6.45232">
        <ele>2355.1</ele>
        <time>2022-01-14T11:02:08Z</time>
      </trkpt>
      <trkpt lat="44.99616" lon="6.45232">
        <ele>2355.1</ele>
        <time>2022-01-14T11:02:09Z</time>
      </trkpt>
      <trkpt lat="44.99616" lon="6.45231">
        <ele>2355.1</ele>
        <time>2022-01-14T11:02:10Z</time>
      </trkpt>
      <trkpt lat="44.99616" lon="6.4523">
        <ele>2355.1</ele>
        <time>2022-01-14T11:02:11Z</time>
      </trkpt>
      <trkpt lat="44.99617" lon="6.45231">
        <ele>2355.1</ele>
        <time>2022-01-14T11:02:12Z</time>
      </trkpt>
      <trkpt lat="44.99617" lon="6.45231">
        <ele>2355.1</ele>
        <time>2022-01-14T11:02:13Z</time>
      </trkpt>
      <trkpt lat="44.99617" lon="6.45231">
        <ele>2355.1</ele>
        <time>2022-01-14T11:02:14Z</time>
      </trkpt>
      <trkpt lat="44.99617" lon="6.45231">
        <ele>2355.1</ele>
        <time>2022-01-14T11:02:15Z</time>
      </trkpt>
      <trkpt lat="44.99617" lon="6.45231">
        <ele>2355.1</ele>
        <time>2022-01-14T11:02:16Z</time>
      </trkpt>
      <trkpt lat="44.99617" lon="6.45232">
        <ele>2355.1</ele>
        <time>2022-01-14T11:02:17Z</time>
      </trkpt>
      <trkpt lat="44.99617" lon="6.45232">
        <ele>2355.1</ele>
        <time>2022-01-14T11:02:18Z</time>
      </trkpt>
      <trkpt lat="44.99617" lon="6.45232">
        <ele>2355.1</ele>
        <time>2022-01-14T11:02:19Z</time>
      </trkpt>
      <trkpt lat="44.99617" lon="6.45232">
        <ele>2355.1</ele>
        <time>2022-01-14T11:02:20Z</time>
      </trkpt>
      <trkpt lat="44.99617" lon="6.45232">
        <ele>2354.2</ele>
        <time>2022-01-14T11:02:21Z</time>
      </trkpt>
      <trkpt lat="44.99617" lon="6.45233">
        <ele>2354.2</ele>
        <time>2022-01-14T11:02:22Z</time>
      </trkpt>
      <trkpt lat="44.99617" lon="6.45233">
        <ele>2354.2</ele>
        <time>2022-01-14T11:02:23Z</time>
      </trkpt>
      <trkpt lat="44.99617" lon="6.45233">
        <ele>2354.2</ele>
        <time>2022-01-14T11:02:24Z</time>
      </trkpt>
      <trkpt lat="44.99617" lon="6.45233">
        <ele>2354.2</ele>
        <time>2022-01-14T11:02:25Z</time>
      </trkpt>
      <trkpt lat="44.99617" lon="6.45233">
        <ele>2354.2</ele>
        <time>2022-01-14T11:02:26Z</time>
      </trkpt>
      <trkpt lat="44.99617" lon="6.45234">
        <ele>2354.2</ele>
        <time>2022-01-14T11:02:27Z</time>
      </trkpt>
      <trkpt lat="44.99617" lon="6.45234">
        <ele>2354.2</ele>
        <time>2022-01-14T11:02:28Z</time>
      </trkpt>
      <trkpt lat="44.99617" lon="6.45234">
        <ele>2354.2</ele>
        <time>2022-01-14T11:02:29Z</time>
      </trkpt>
      <trkpt lat="44.99617" lon="6.45234">
        <ele>2354.2</ele>
        <time>2022-01-14T11:02:30Z</time>
      </trkpt>
      <trkpt lat="44.99617" lon="6.45234">
        <ele>2354.2</ele>
        <time>2022-01-14T11:02:31Z</time>
      </trkpt>
      <trkpt lat="44.99617" lon="6.45235">
        <ele>2354.2</ele>
        <time>2022-01-14T11:02:32Z</time>
      </trkpt>
      <trkpt lat="44.99617" lon="6.45235">
        <ele>2354.2</ele>
        <time>2022-01-14T11:02:33Z</time>
      </trkpt>
      <trkpt lat="44.99617" lon="6.45235">
        <ele>2354.2</ele>
        <time>2022-01-14T11:02:34Z</time>
      </trkpt>
      <trkpt lat="44.99617" lon="6.45235">
        <ele>2354.2</ele>
        <time>2022-01-14T11:02:35Z</time>
      </trkpt>
      <trkpt lat="44.99617" lon="6.45235">
        <ele>2354.2</ele>
        <time>2022-01-14T11:02:36Z</time>
      </trkpt>
      <trkpt lat="44.99617" lon="6.45236">
        <ele>2354.2</ele>
        <time>2022-01-14T11:02:37Z</time>
      </trkpt>
      <trkpt lat="44.99617" lon="6.45236">
        <ele>2354.2</ele>
        <time>2022-01-14T11:02:38Z</time>
      </trkpt>
      <trkpt lat="44.99617" lon="6.45236">
        <ele>2354.2</ele>
        <time>2022-01-14T11:02:39Z</time>
      </trkpt>
      <trkpt lat="44.99617" lon="6.45236">
        <ele>2354.2</ele>
        <time>2022-01-14T11:02:40Z</time>
      </trkpt>
      <trkpt lat="44.99617" lon="6.45237">
        <ele>2353.5</ele>
        <time>2022-01-14T11:02:41Z</time>
      </trkpt>
      <trkpt lat="44.99614" lon="6.45239">
        <ele>2352.2</ele>
        <time>2022-01-14T11:02:42Z</time>
      </trkpt>
      <trkpt lat="44.9961" lon="6.45239">
        <ele>2350.9</ele>
        <time>2022-01-14T11:02:43Z</time>
      </trkpt>
      <trkpt lat="44.99605" lon="6.45238">
        <ele>2348.5</ele>
        <time>2022-01-14T11:02:44Z</time>
      </trkpt>
      <trkpt lat="44.99601" lon="6.45241">
        <ele>2347.5</ele>
        <time>2022-01-14T11:02:45Z</time>
      </trkpt>
      <trkpt lat="44.99598" lon="6.45247">
        <ele>2346.5</ele>
        <time>2022-01-14T11:02:46Z</time>
      </trkpt>
      <trkpt lat="44.99597" lon="6.45255">
        <ele>2344.6</ele>
        <time>2022-01-14T11:02:47Z</time>
      </trkpt>
      <trkpt lat="44.99598" lon="6.45262">
        <ele>2345</ele>
        <time>2022-01-14T11:02:48Z</time>
      </trkpt>
      <trkpt lat="44.99599" lon="6.45269">
        <ele>2343.9</ele>
        <time>2022-01-14T11:02:49Z</time>
      </trkpt>
      <trkpt lat="44.99598" lon="6.45274">
        <ele>2343.4</ele>
        <time>2022-01-14T11:02:50Z</time>
      </trkpt>
      <trkpt lat="44.99597" lon="6.45279">
        <ele>2341.7</ele>
        <time>2022-01-14T11:02:51Z</time>
      </trkpt>
      <trkpt lat="44.99592" lon="6.45284">
        <ele>2340</ele>
        <time>2022-01-14T11:02:52Z</time>
      </trkpt>
      <trkpt lat="44.9959" lon="6.4529">
        <ele>2337.5</ele>
        <time>2022-01-14T11:02:53Z</time>
      </trkpt>
      <trkpt lat="44.99591" lon="6.45297">
        <ele>2335.8</ele>
        <time>2022-01-14T11:02:54Z</time>
      </trkpt>
      <trkpt lat="44.99592" lon="6.45303">
        <ele>2336.3</ele>
        <time>2022-01-14T11:02:55Z</time>
      </trkpt>
      <trkpt lat="44.99592" lon="6.45309">
        <ele>2335.6</ele>
        <time>2022-01-14T11:02:56Z</time>
      </trkpt>
      <trkpt lat="44.99592" lon="6.45315">
        <ele>2334.1</ele>
        <time>2022-01-14T11:02:57Z</time>
      </trkpt>
      <trkpt lat="44.99591" lon="6.45319">
        <ele>2332.1</ele>
        <time>2022-01-14T11:02:58Z</time>
      </trkpt>
      <trkpt lat="44.99587" lon="6.45321">
        <ele>2331.7</ele>
        <time>2022-01-14T11:02:59Z</time>
      </trkpt>
      <trkpt lat="44.99584" lon="6.45325">
        <ele>2330.7</ele>
        <time>2022-01-14T11:03:00Z</time>
      </trkpt>
      <trkpt lat="44.99584" lon="6.45331">
        <ele>2329.5</ele>
        <time>2022-01-14T11:03:01Z</time>
      </trkpt>
      <trkpt lat="44.99586" lon="6.45335">
        <ele>2329.5</ele>
        <time>2022-01-14T11:03:02Z</time>
      </trkpt>
      <trkpt lat="44.99588" lon="6.45339">
        <ele>2329.7</ele>
        <time>2022-01-14T11:03:03Z</time>
      </trkpt>
      <trkpt lat="44.99588" lon="6.45341">
        <ele>2329.3</ele>
        <time>2022-01-14T11:03:04Z</time>
      </trkpt>
      <trkpt lat="44.99587" lon="6.45346">
        <ele>2328.3</ele>
        <time>2022-01-14T11:03:05Z</time>
      </trkpt>
      <trkpt lat="44.99586" lon="6.45349">
        <ele>2331.3</ele>
        <time>2022-01-14T11:03:06Z</time>
      </trkpt>
      <trkpt lat="44.99583" lon="6.45351">
        <ele>2333.3</ele>
        <time>2022-01-14T11:03:07Z</time>
      </trkpt>
      <trkpt lat="44.9958" lon="6.45352">
        <ele>2334.9</ele>
        <time>2022-01-14T11:03:08Z</time>
      </trkpt>
      <trkpt lat="44.99578" lon="6.45352">
        <ele>2323.3</ele>
        <time>2022-01-14T11:03:09Z</time>
      </trkpt>
      <trkpt lat="44.99576" lon="6.4535">
        <ele>2321.3</ele>
        <time>2022-01-14T11:03:10Z</time>
      </trkpt>
      <trkpt lat="44.99575" lon="6.45349">
        <ele>2321.1</ele>
        <time>2022-01-14T11:03:11Z</time>
      </trkpt>
      <trkpt lat="44.99575" lon="6.45348">
        <ele>2320.9</ele>
        <time>2022-01-14T11:03:12Z</time>
      </trkpt>
      <trkpt lat="44.99574" lon="6.45348">
        <ele>2320.9</ele>
        <time>2022-01-14T11:03:13Z</time>
      </trkpt>
      <trkpt lat="44.99573" lon="6.45348">
        <ele>2320.9</ele>
        <time>2022-01-14T11:03:14Z</time>
      </trkpt>
      <trkpt lat="44.99573" lon="6.45348">
        <ele>2320.7</ele>
        <time>2022-01-14T11:03:15Z</time>
      </trkpt>
      <trkpt lat="44.99573" lon="6.45348">
        <ele>2320.7</ele>
        <time>2022-01-14T11:03:16Z</time>
      </trkpt>
      <trkpt lat="44.99573" lon="6.45348">
        <ele>2320.7</ele>
        <time>2022-01-14T11:03:17Z</time>
      </trkpt>
      <trkpt lat="44.99573" lon="6.45348">
        <ele>2320.7</ele>
        <time>2022-01-14T11:03:18Z</time>
      </trkpt>
      <trkpt lat="44.99573" lon="6.45348">
        <ele>2320.7</ele>
        <time>2022-01-14T11:03:19Z</time>
      </trkpt>
      <trkpt lat="44.99573" lon="6.45348">
        <ele>2320.7</ele>
        <time>2022-01-14T11:03:20Z</time>
      </trkpt>
      <trkpt lat="44.99573" lon="6.45348">
        <ele>2320.7</ele>
        <time>2022-01-14T11:03:21Z</time>
      </trkpt>
      <trkpt lat="44.99573" lon="6.45348">
        <ele>2320.7</ele>
        <time>2022-01-14T11:03:22Z</time>
      </trkpt>
      <trkpt lat="44.99573" lon="6.45348">
        <ele>2320.7</ele>
        <time>2022-01-14T11:03:23Z</time>
      </trkpt>
      <trkpt lat="44.99573" lon="6.45347">
        <ele>2320.7</ele>
        <time>2022-01-14T11:03:24Z</time>
      </trkpt>
      <trkpt lat="44.99573" lon="6.45347">
        <ele>2320.9</ele>
        <time>2022-01-14T11:03:25Z</time>
      </trkpt>
      <trkpt lat="44.99573" lon="6.45347">
        <ele>2320.9</ele>
        <time>2022-01-14T11:03:26Z</time>
      </trkpt>
      <trkpt lat="44.99573" lon="6.45347">
        <ele>2320.9</ele>
        <time>2022-01-14T11:03:27Z</time>
      </trkpt>
      <trkpt lat="44.99574" lon="6.45347">
        <ele>2320.9</ele>
        <time>2022-01-14T11:03:28Z</time>
      </trkpt>
      <trkpt lat="44.99574" lon="6.45347">
        <ele>2320.9</ele>
        <time>2022-01-14T11:03:29Z</time>
      </trkpt>
      <trkpt lat="44.99574" lon="6.45347">
        <ele>2321.1</ele>
        <time>2022-01-14T11:03:30Z</time>
      </trkpt>
      <trkpt lat="44.99574" lon="6.45347">
        <ele>2321.1</ele>
        <time>2022-01-14T11:03:31Z</time>
      </trkpt>
      <trkpt lat="44.99575" lon="6.45346">
        <ele>2321.1</ele>
        <time>2022-01-14T11:03:32Z</time>
      </trkpt>
      <trkpt lat="44.99575" lon="6.45346">
        <ele>2321.7</ele>
        <time>2022-01-14T11:03:33Z</time>
      </trkpt>
      <trkpt lat="44.99575" lon="6.45345">
        <ele>2321.9</ele>
        <time>2022-01-14T11:03:34Z</time>
      </trkpt>
      <trkpt lat="44.99575" lon="6.45345">
        <ele>2322.3</ele>
        <time>2022-01-14T11:03:35Z</time>
      </trkpt>
      <trkpt lat="44.99575" lon="6.45345">
        <ele>2322.3</ele>
        <time>2022-01-14T11:03:36Z</time>
      </trkpt>
      <trkpt lat="44.99575" lon="6.45345">
        <ele>2322.3</ele>
        <time>2022-01-14T11:03:37Z</time>
      </trkpt>
      <trkpt lat="44.99575" lon="6.45345">
        <ele>2322.3</ele>
        <time>2022-01-14T11:03:38Z</time>
      </trkpt>
      <trkpt lat="44.99574" lon="6.45345">
        <ele>2322.3</ele>
        <time>2022-01-14T11:03:39Z</time>
      </trkpt>
      <trkpt lat="44.99574" lon="6.45345">
        <ele>2322.3</ele>
        <time>2022-01-14T11:03:40Z</time>
      </trkpt>
      <trkpt lat="44.99574" lon="6.45345">
        <ele>2322.3</ele>
        <time>2022-01-14T11:03:41Z</time>
      </trkpt>
      <trkpt lat="44.99574" lon="6.45345">
        <ele>2322.3</ele>
        <time>2022-01-14T11:03:42Z</time>
      </trkpt>
      <trkpt lat="44.99574" lon="6.45345">
        <ele>2322.3</ele>
        <time>2022-01-14T11:03:43Z</time>
      </trkpt>
      <trkpt lat="44.99574" lon="6.45344">
        <ele>2322.3</ele>
        <time>2022-01-14T11:03:44Z</time>
      </trkpt>
      <trkpt lat="44.99574" lon="6.45344">
        <ele>2322.3</ele>
        <time>2022-01-14T11:03:45Z</time>
      </trkpt>
      <trkpt lat="44.99574" lon="6.45344">
        <ele>2322.3</ele>
        <time>2022-01-14T11:03:46Z</time>
      </trkpt>
      <trkpt lat="44.99574" lon="6.45344">
        <ele>2322.3</ele>
        <time>2022-01-14T11:03:47Z</time>
      </trkpt>
      <trkpt lat="44.99574" lon="6.45344">
        <ele>2322.1</ele>
        <time>2022-01-14T11:03:48Z</time>
      </trkpt>
      <trkpt lat="44.99573" lon="6.45344">
        <ele>2322.3</ele>
        <time>2022-01-14T11:03:49Z</time>
      </trkpt>
      <trkpt lat="44.99573" lon="6.45343">
        <ele>2322.3</ele>
        <time>2022-01-14T11:03:50Z</time>
      </trkpt>
      <trkpt lat="44.99573" lon="6.45343">
        <ele>2322.3</ele>
        <time>2022-01-14T11:03:51Z</time>
      </trkpt>
      <trkpt lat="44.99573" lon="6.45343">
        <ele>2322.1</ele>
        <time>2022-01-14T11:03:52Z</time>
      </trkpt>
      <trkpt lat="44.99573" lon="6.45343">
        <ele>2322.1</ele>
        <time>2022-01-14T11:03:53Z</time>
      </trkpt>
      <trkpt lat="44.99573" lon="6.45343">
        <ele>2322.1</ele>
        <time>2022-01-14T11:03:54Z</time>
      </trkpt>
      <trkpt lat="44.99573" lon="6.45343">
        <ele>2322.1</ele>
        <time>2022-01-14T11:03:55Z</time>
      </trkpt>
      <trkpt lat="44.99573" lon="6.45343">
        <ele>2322.1</ele>
        <time>2022-01-14T11:03:56Z</time>
      </trkpt>
      <trkpt lat="44.99573" lon="6.45343">
        <ele>2322.1</ele>
        <time>2022-01-14T11:03:57Z</time>
      </trkpt>
      <trkpt lat="44.99573" lon="6.45343">
        <ele>2322.1</ele>
        <time>2022-01-14T11:03:58Z</time>
      </trkpt>
      <trkpt lat="44.99573" lon="6.45343">
        <ele>2322.1</ele>
        <time>2022-01-14T11:03:59Z</time>
      </trkpt>
      <trkpt lat="44.99573" lon="6.45343">
        <ele>2322.1</ele>
        <time>2022-01-14T11:04:00Z</time>
      </trkpt>
      <trkpt lat="44.99573" lon="6.45343">
        <ele>2322.1</ele>
        <time>2022-01-14T11:04:01Z</time>
      </trkpt>
      <trkpt lat="44.99573" lon="6.45343">
        <ele>2322.1</ele>
        <time>2022-01-14T11:04:02Z</time>
      </trkpt>
      <trkpt lat="44.99573" lon="6.45343">
        <ele>2322.1</ele>
        <time>2022-01-14T11:04:03Z</time>
      </trkpt>
      <trkpt lat="44.99573" lon="6.45343">
        <ele>2322.1</ele>
        <time>2022-01-14T11:04:04Z</time>
      </trkpt>
      <trkpt lat="44.99573" lon="6.45343">
        <ele>2322.3</ele>
        <time>2022-01-14T11:04:05Z</time>
      </trkpt>
      <trkpt lat="44.99573" lon="6.45343">
        <ele>2322.3</ele>
        <time>2022-01-14T11:04:06Z</time>
      </trkpt>
      <trkpt lat="44.99572" lon="6.45343">
        <ele>2322.3</ele>
        <time>2022-01-14T11:04:07Z</time>
      </trkpt>
      <trkpt lat="44.99572" lon="6.45343">
        <ele>2322.3</ele>
        <time>2022-01-14T11:04:08Z</time>
      </trkpt>
      <trkpt lat="44.99573" lon="6.45342">
        <ele>2322.3</ele>
        <time>2022-01-14T11:04:09Z</time>
      </trkpt>
      <trkpt lat="44.99572" lon="6.45342">
        <ele>2322.3</ele>
        <time>2022-01-14T11:04:10Z</time>
      </trkpt>
      <trkpt lat="44.99572" lon="6.45342">
        <ele>2322.3</ele>
        <time>2022-01-14T11:04:11Z</time>
      </trkpt>
      <trkpt lat="44.99572" lon="6.45342">
        <ele>2322.3</ele>
        <time>2022-01-14T11:04:12Z</time>
      </trkpt>
      <trkpt lat="44.99572" lon="6.45342">
        <ele>2322.3</ele>
        <time>2022-01-14T11:04:13Z</time>
      </trkpt>
      <trkpt lat="44.99572" lon="6.45342">
        <ele>2322.5</ele>
        <time>2022-01-14T11:04:14Z</time>
      </trkpt>
      <trkpt lat="44.99572" lon="6.45341">
        <ele>2322.3</ele>
        <time>2022-01-14T11:04:15Z</time>
      </trkpt>
      <trkpt lat="44.99572" lon="6.45341">
        <ele>2324.1</ele>
        <time>2022-01-14T11:04:16Z</time>
      </trkpt>
      <trkpt lat="44.99572" lon="6.45341">
        <ele>2325.7</ele>
        <time>2022-01-14T11:04:17Z</time>
      </trkpt>
      <trkpt lat="44.99572" lon="6.45341">
        <ele>2326.9</ele>
        <time>2022-01-14T11:04:18Z</time>
      </trkpt>
      <trkpt lat="44.99572" lon="6.45341">
        <ele>2328.1</ele>
        <time>2022-01-14T11:04:19Z</time>
      </trkpt>
      <trkpt lat="44.99572" lon="6.45341">
        <ele>2328.9</ele>
        <time>2022-01-14T11:04:20Z</time>
      </trkpt>
      <trkpt lat="44.9957" lon="6.45339">
        <ele>2329.7</ele>
        <time>2022-01-14T11:04:21Z</time>
      </trkpt>
      <trkpt lat="44.99571" lon="6.4534">
        <ele>2323.3</ele>
        <time>2022-01-14T11:04:22Z</time>
      </trkpt>
      <trkpt lat="44.99571" lon="6.4534">
        <ele>2322.7</ele>
        <time>2022-01-14T11:04:23Z</time>
      </trkpt>
      <trkpt lat="44.9957" lon="6.4534">
        <ele>2322.7</ele>
        <time>2022-01-14T11:04:24Z</time>
      </trkpt>
      <trkpt lat="44.9957" lon="6.45339">
        <ele>2322.7</ele>
        <time>2022-01-14T11:04:25Z</time>
      </trkpt>
      <trkpt lat="44.9957" lon="6.45339">
        <ele>2322.7</ele>
        <time>2022-01-14T11:04:26Z</time>
      </trkpt>
      <trkpt lat="44.9957" lon="6.45339">
        <ele>2322.7</ele>
        <time>2022-01-14T11:04:27Z</time>
      </trkpt>
      <trkpt lat="44.9957" lon="6.45339">
        <ele>2322.7</ele>
        <time>2022-01-14T11:04:28Z</time>
      </trkpt>
      <trkpt lat="44.9957" lon="6.45339">
        <ele>2322.7</ele>
        <time>2022-01-14T11:04:29Z</time>
      </trkpt>
      <trkpt lat="44.9957" lon="6.45339">
        <ele>2322.7</ele>
        <time>2022-01-14T11:04:30Z</time>
      </trkpt>
      <trkpt lat="44.9957" lon="6.45339">
        <ele>2322.7</ele>
        <time>2022-01-14T11:04:31Z</time>
      </trkpt>
      <trkpt lat="44.99571" lon="6.45339">
        <ele>2322.9</ele>
        <time>2022-01-14T11:04:32Z</time>
      </trkpt>
      <trkpt lat="44.99571" lon="6.45339">
        <ele>2322.9</ele>
        <time>2022-01-14T11:04:33Z</time>
      </trkpt>
      <trkpt lat="44.99571" lon="6.45338">
        <ele>2322.9</ele>
        <time>2022-01-14T11:04:34Z</time>
      </trkpt>
      <trkpt lat="44.9957" lon="6.45338">
        <ele>2323.1</ele>
        <time>2022-01-14T11:04:35Z</time>
      </trkpt>
      <trkpt lat="44.9957" lon="6.45338">
        <ele>2323.1</ele>
        <time>2022-01-14T11:04:36Z</time>
      </trkpt>
      <trkpt lat="44.9957" lon="6.45338">
        <ele>2323.1</ele>
        <time>2022-01-14T11:04:37Z</time>
      </trkpt>
      <trkpt lat="44.9957" lon="6.45338">
        <ele>2323.1</ele>
        <time>2022-01-14T11:04:39Z</time>
      </trkpt>
      <trkpt lat="44.9957" lon="6.45338">
        <ele>2323.1</ele>
        <time>2022-01-14T11:04:40Z</time>
      </trkpt>
      <trkpt lat="44.9957" lon="6.45338">
        <ele>2323.1</ele>
        <time>2022-01-14T11:04:41Z</time>
      </trkpt>
      <trkpt lat="44.9957" lon="6.45337">
        <ele>2323.1</ele>
        <time>2022-01-14T11:04:42Z</time>
      </trkpt>
      <trkpt lat="44.9957" lon="6.45337">
        <ele>2323.1</ele>
        <time>2022-01-14T11:04:43Z</time>
      </trkpt>
      <trkpt lat="44.9957" lon="6.45336">
        <ele>2323.1</ele>
        <time>2022-01-14T11:04:44Z</time>
      </trkpt>
      <trkpt lat="44.99569" lon="6.45335">
        <ele>2323.3</ele>
        <time>2022-01-14T11:04:45Z</time>
      </trkpt>
      <trkpt lat="44.99569" lon="6.45335">
        <ele>2323.5</ele>
        <time>2022-01-14T11:04:46Z</time>
      </trkpt>
      <trkpt lat="44.99568" lon="6.45334">
        <ele>2323.7</ele>
        <time>2022-01-14T11:04:47Z</time>
      </trkpt>
      <trkpt lat="44.99567" lon="6.45333">
        <ele>2323.7</ele>
        <time>2022-01-14T11:04:48Z</time>
      </trkpt>
      <trkpt lat="44.99567" lon="6.45333">
        <ele>2323.7</ele>
        <time>2022-01-14T11:04:49Z</time>
      </trkpt>
      <trkpt lat="44.99566" lon="6.45332">
        <ele>2323.7</ele>
        <time>2022-01-14T11:04:50Z</time>
      </trkpt>
      <trkpt lat="44.99565" lon="6.45332">
        <ele>2323.5</ele>
        <time>2022-01-14T11:04:51Z</time>
      </trkpt>
      <trkpt lat="44.99562" lon="6.4533">
        <ele>2322.9</ele>
        <time>2022-01-14T11:04:52Z</time>
      </trkpt>
      <trkpt lat="44.9956" lon="6.45328">
        <ele>2322.1</ele>
        <time>2022-01-14T11:04:53Z</time>
      </trkpt>
      <trkpt lat="44.99557" lon="6.45324">
        <ele>2321.1</ele>
        <time>2022-01-14T11:04:54Z</time>
      </trkpt>
      <trkpt lat="44.99554" lon="6.4532">
        <ele>2320.1</ele>
        <time>2022-01-14T11:04:55Z</time>
      </trkpt>
      <trkpt lat="44.99552" lon="6.45316">
        <ele>2318.9</ele>
        <time>2022-01-14T11:04:56Z</time>
      </trkpt>
      <trkpt lat="44.99549" lon="6.45317">
        <ele>2317.9</ele>
        <time>2022-01-14T11:04:57Z</time>
      </trkpt>
      <trkpt lat="44.99548" lon="6.45317">
        <ele>2316.9</ele>
        <time>2022-01-14T11:04:58Z</time>
      </trkpt>
      <trkpt lat="44.99547" lon="6.45321">
        <ele>2315.9</ele>
        <time>2022-01-14T11:04:59Z</time>
      </trkpt>
      <trkpt lat="44.99547" lon="6.45323">
        <ele>2314.9</ele>
        <time>2022-01-14T11:05:00Z</time>
      </trkpt>
      <trkpt lat="44.99546" lon="6.45324">
        <ele>2314.5</ele>
        <time>2022-01-14T11:05:02Z</time>
      </trkpt>
      <trkpt lat="44.99547" lon="6.45326">
        <ele>2314.3</ele>
        <time>2022-01-14T11:05:03Z</time>
      </trkpt>
      <trkpt lat="44.99545" lon="6.45327">
        <ele>2314.3</ele>
        <time>2022-01-14T11:05:04Z</time>
      </trkpt>
      <trkpt lat="44.99544" lon="6.45327">
        <ele>2315.5</ele>
        <time>2022-01-14T11:05:05Z</time>
      </trkpt>
      <trkpt lat="44.99543" lon="6.45327">
        <ele>2313.5</ele>
        <time>2022-01-14T11:05:06Z</time>
      </trkpt>
      <trkpt lat="44.9954" lon="6.45326">
        <ele>2311.9</ele>
        <time>2022-01-14T11:05:07Z</time>
      </trkpt>
      <trkpt lat="44.99539" lon="6.45326">
        <ele>2310.9</ele>
        <time>2022-01-14T11:05:08Z</time>
      </trkpt>
      <trkpt lat="44.99538" lon="6.45332">
        <ele>2309.5</ele>
        <time>2022-01-14T11:05:09Z</time>
      </trkpt>
      <trkpt lat="44.99539" lon="6.45341">
        <ele>2308.1</ele>
        <time>2022-01-14T11:05:10Z</time>
      </trkpt>
      <trkpt lat="44.9954" lon="6.45348">
        <ele>2307.1</ele>
        <time>2022-01-14T11:05:11Z</time>
      </trkpt>
      <trkpt lat="44.99541" lon="6.45353">
        <ele>2306.7</ele>
        <time>2022-01-14T11:05:12Z</time>
      </trkpt>
      <trkpt lat="44.99542" lon="6.45357">
        <ele>2306.5</ele>
        <time>2022-01-14T11:05:13Z</time>
      </trkpt>
      <trkpt lat="44.9954" lon="6.4536">
        <ele>2306.1</ele>
        <time>2022-01-14T11:05:14Z</time>
      </trkpt>
      <trkpt lat="44.99539" lon="6.4536">
        <ele>2305.3</ele>
        <time>2022-01-14T11:05:15Z</time>
      </trkpt>
      <trkpt lat="44.99536" lon="6.45363">
        <ele>2304.5</ele>
        <time>2022-01-14T11:05:16Z</time>
      </trkpt>
      <trkpt lat="44.99536" lon="6.45366">
        <ele>2303.7</ele>
        <time>2022-01-14T11:05:17Z</time>
      </trkpt>
      <trkpt lat="44.99536" lon="6.45372">
        <ele>2301.7</ele>
        <time>2022-01-14T11:05:18Z</time>
      </trkpt>
      <trkpt lat="44.99537" lon="6.45375">
        <ele>2299.9</ele>
        <time>2022-01-14T11:05:19Z</time>
      </trkpt>
      <trkpt lat="44.99538" lon="6.4538">
        <ele>2298.9</ele>
        <time>2022-01-14T11:05:20Z</time>
      </trkpt>
      <trkpt lat="44.99537" lon="6.45382">
        <ele>2297.9</ele>
        <time>2022-01-14T11:05:21Z</time>
      </trkpt>
      <trkpt lat="44.99534" lon="6.45382">
        <ele>2296.7</ele>
        <time>2022-01-14T11:05:22Z</time>
      </trkpt>
      <trkpt lat="44.99533" lon="6.45381">
        <ele>2295.7</ele>
        <time>2022-01-14T11:05:23Z</time>
      </trkpt>
      <trkpt lat="44.99529" lon="6.45384">
        <ele>2295.1</ele>
        <time>2022-01-14T11:05:24Z</time>
      </trkpt>
      <trkpt lat="44.99529" lon="6.45387">
        <ele>2294.3</ele>
        <time>2022-01-14T11:05:25Z</time>
      </trkpt>
      <trkpt lat="44.9953" lon="6.45393">
        <ele>2292.1</ele>
        <time>2022-01-14T11:05:26Z</time>
      </trkpt>
      <trkpt lat="44.99532" lon="6.45398">
        <ele>2290.3</ele>
        <time>2022-01-14T11:05:27Z</time>
      </trkpt>
      <trkpt lat="44.99536" lon="6.45405">
        <ele>2289.5</ele>
        <time>2022-01-14T11:05:28Z</time>
      </trkpt>
      <trkpt lat="44.99537" lon="6.4541">
        <ele>2289.5</ele>
        <time>2022-01-14T11:05:29Z</time>
      </trkpt>
      <trkpt lat="44.99539" lon="6.45413">
        <ele>2289.3</ele>
        <time>2022-01-14T11:05:30Z</time>
      </trkpt>
      <trkpt lat="44.99539" lon="6.45414">
        <ele>2289.7</ele>
        <time>2022-01-14T11:05:31Z</time>
      </trkpt>
      <trkpt lat="44.99539" lon="6.45415">
        <ele>2289.3</ele>
        <time>2022-01-14T11:05:32Z</time>
      </trkpt>
      <trkpt lat="44.99539" lon="6.45415">
        <ele>2289.1</ele>
        <time>2022-01-14T11:05:33Z</time>
      </trkpt>
      <trkpt lat="44.99538" lon="6.45415">
        <ele>2289.1</ele>
        <time>2022-01-14T11:05:34Z</time>
      </trkpt>
      <trkpt lat="44.99538" lon="6.45414">
        <ele>2288.9</ele>
        <time>2022-01-14T11:05:35Z</time>
      </trkpt>
      <trkpt lat="44.99538" lon="6.45414">
        <ele>2288.9</ele>
        <time>2022-01-14T11:05:36Z</time>
      </trkpt>
      <trkpt lat="44.99538" lon="6.45414">
        <ele>2288.7</ele>
        <time>2022-01-14T11:05:37Z</time>
      </trkpt>
      <trkpt lat="44.99538" lon="6.45414">
        <ele>2288.7</ele>
        <time>2022-01-14T11:05:39Z</time>
      </trkpt>
      <trkpt lat="44.99537" lon="6.45413">
        <ele>2288.7</ele>
        <time>2022-01-14T11:05:40Z</time>
      </trkpt>
      <trkpt lat="44.99536" lon="6.45413">
        <ele>2288.1</ele>
        <time>2022-01-14T11:05:41Z</time>
      </trkpt>
      <trkpt lat="44.99536" lon="6.45414">
        <ele>2287.5</ele>
        <time>2022-01-14T11:05:42Z</time>
      </trkpt>
      <trkpt lat="44.99536" lon="6.45414">
        <ele>2287.1</ele>
        <time>2022-01-14T11:05:43Z</time>
      </trkpt>
      <trkpt lat="44.99535" lon="6.45414">
        <ele>2286.7</ele>
        <time>2022-01-14T11:05:44Z</time>
      </trkpt>
      <trkpt lat="44.99535" lon="6.45414">
        <ele>2286.7</ele>
        <time>2022-01-14T11:05:45Z</time>
      </trkpt>
      <trkpt lat="44.99536" lon="6.45415">
        <ele>2286.7</ele>
        <time>2022-01-14T11:05:46Z</time>
      </trkpt>
      <trkpt lat="44.99536" lon="6.45415">
        <ele>2286.9</ele>
        <time>2022-01-14T11:05:47Z</time>
      </trkpt>
      <trkpt lat="44.99536" lon="6.45416">
        <ele>2287.1</ele>
        <time>2022-01-14T11:05:48Z</time>
      </trkpt>
      <trkpt lat="44.99536" lon="6.45418">
        <ele>2287.1</ele>
        <time>2022-01-14T11:05:49Z</time>
      </trkpt>
      <trkpt lat="44.99535" lon="6.45419">
        <ele>2286.7</ele>
        <time>2022-01-14T11:05:50Z</time>
      </trkpt>
      <trkpt lat="44.99533" lon="6.45419">
        <ele>2286.9</ele>
        <time>2022-01-14T11:05:51Z</time>
      </trkpt>
      <trkpt lat="44.99529" lon="6.45419">
        <ele>2286.9</ele>
        <time>2022-01-14T11:05:52Z</time>
      </trkpt>
      <trkpt lat="44.99528" lon="6.4542">
        <ele>2283.5</ele>
        <time>2022-01-14T11:05:53Z</time>
      </trkpt>
      <trkpt lat="44.99526" lon="6.45426">
        <ele>2281.7</ele>
        <time>2022-01-14T11:05:54Z</time>
      </trkpt>
      <trkpt lat="44.99527" lon="6.45432">
        <ele>2281.1</ele>
        <time>2022-01-14T11:05:55Z</time>
      </trkpt>
      <trkpt lat="44.99528" lon="6.45439">
        <ele>2281.1</ele>
        <time>2022-01-14T11:05:56Z</time>
      </trkpt>
      <trkpt lat="44.99528" lon="6.45445">
        <ele>2281.3</ele>
        <time>2022-01-14T11:05:57Z</time>
      </trkpt>
      <trkpt lat="44.99527" lon="6.4545">
        <ele>2281.1</ele>
        <time>2022-01-14T11:05:58Z</time>
      </trkpt>
      <trkpt lat="44.99523" lon="6.45453">
        <ele>2279.3</ele>
        <time>2022-01-14T11:05:59Z</time>
      </trkpt>
      <trkpt lat="44.99522" lon="6.45456">
        <ele>2279.1</ele>
        <time>2022-01-14T11:06:00Z</time>
      </trkpt>
      <trkpt lat="44.99523" lon="6.45463">
        <ele>2275.5</ele>
        <time>2022-01-14T11:06:01Z</time>
      </trkpt>
      <trkpt lat="44.99521" lon="6.45469">
        <ele>2273.3</ele>
        <time>2022-01-14T11:06:02Z</time>
      </trkpt>
      <trkpt lat="44.99518" lon="6.45475">
        <ele>2270.7</ele>
        <time>2022-01-14T11:06:03Z</time>
      </trkpt>
      <trkpt lat="44.99514" lon="6.4548">
        <ele>2268.1</ele>
        <time>2022-01-14T11:06:04Z</time>
      </trkpt>
      <trkpt lat="44.9951" lon="6.45485">
        <ele>2265.9</ele>
        <time>2022-01-14T11:06:05Z</time>
      </trkpt>
      <trkpt lat="44.99507" lon="6.45491">
        <ele>2263.9</ele>
        <time>2022-01-14T11:06:06Z</time>
      </trkpt>
      <trkpt lat="44.99504" lon="6.45497">
        <ele>2262.7</ele>
        <time>2022-01-14T11:06:07Z</time>
      </trkpt>
      <trkpt lat="44.99502" lon="6.45502">
        <ele>2262.1</ele>
        <time>2022-01-14T11:06:08Z</time>
      </trkpt>
      <trkpt lat="44.995" lon="6.45506">
        <ele>2261.5</ele>
        <time>2022-01-14T11:06:09Z</time>
      </trkpt>
      <trkpt lat="44.99499" lon="6.45508">
        <ele>2260.1</ele>
        <time>2022-01-14T11:06:10Z</time>
      </trkpt>
      <trkpt lat="44.99498" lon="6.45509">
        <ele>2259.3</ele>
        <time>2022-01-14T11:06:11Z</time>
      </trkpt>
      <trkpt lat="44.99497" lon="6.4551">
        <ele>2258.9</ele>
        <time>2022-01-14T11:06:12Z</time>
      </trkpt>
      <trkpt lat="44.99497" lon="6.45511">
        <ele>2258.5</ele>
        <time>2022-01-14T11:06:13Z</time>
      </trkpt>
      <trkpt lat="44.99497" lon="6.4551">
        <ele>2258.3</ele>
        <time>2022-01-14T11:06:14Z</time>
      </trkpt>
      <trkpt lat="44.99497" lon="6.45511">
        <ele>2258.3</ele>
        <time>2022-01-14T11:06:15Z</time>
      </trkpt>
      <trkpt lat="44.99497" lon="6.45511">
        <ele>2258.3</ele>
        <time>2022-01-14T11:06:16Z</time>
      </trkpt>
      <trkpt lat="44.99496" lon="6.45511">
        <ele>2258.3</ele>
        <time>2022-01-14T11:06:17Z</time>
      </trkpt>
      <trkpt lat="44.99496" lon="6.45512">
        <ele>2258.1</ele>
        <time>2022-01-14T11:06:18Z</time>
      </trkpt>
      <trkpt lat="44.99495" lon="6.45511">
        <ele>2257.9</ele>
        <time>2022-01-14T11:06:19Z</time>
      </trkpt>
      <trkpt lat="44.99495" lon="6.45512">
        <ele>2258.3</ele>
        <time>2022-01-14T11:06:20Z</time>
      </trkpt>
      <trkpt lat="44.99495" lon="6.45512">
        <ele>2257.9</ele>
        <time>2022-01-14T11:06:21Z</time>
      </trkpt>
      <trkpt lat="44.99494" lon="6.45512">
        <ele>2257.9</ele>
        <time>2022-01-14T11:06:22Z</time>
      </trkpt>
      <trkpt lat="44.99494" lon="6.45512">
        <ele>2257.9</ele>
        <time>2022-01-14T11:06:23Z</time>
      </trkpt>
      <trkpt lat="44.99494" lon="6.45512">
        <ele>2257.9</ele>
        <time>2022-01-14T11:06:24Z</time>
      </trkpt>
      <trkpt lat="44.99494" lon="6.45512">
        <ele>2257.9</ele>
        <time>2022-01-14T11:06:25Z</time>
      </trkpt>
      <trkpt lat="44.99494" lon="6.45512">
        <ele>2257.9</ele>
        <time>2022-01-14T11:06:26Z</time>
      </trkpt>
      <trkpt lat="44.99494" lon="6.45512">
        <ele>2257.9</ele>
        <time>2022-01-14T11:06:27Z</time>
      </trkpt>
      <trkpt lat="44.99494" lon="6.45512">
        <ele>2257.9</ele>
        <time>2022-01-14T11:06:28Z</time>
      </trkpt>
      <trkpt lat="44.99493" lon="6.4551">
        <ele>2257.9</ele>
        <time>2022-01-14T11:06:29Z</time>
      </trkpt>
      <trkpt lat="44.99494" lon="6.4551">
        <ele>2258.3</ele>
        <time>2022-01-14T11:06:30Z</time>
      </trkpt>
      <trkpt lat="44.99493" lon="6.4551">
        <ele>2258.3</ele>
        <time>2022-01-14T11:06:31Z</time>
      </trkpt>
      <trkpt lat="44.99493" lon="6.4551">
        <ele>2258.5</ele>
        <time>2022-01-14T11:06:32Z</time>
      </trkpt>
      <trkpt lat="44.99493" lon="6.4551">
        <ele>2258.5</ele>
        <time>2022-01-14T11:06:33Z</time>
      </trkpt>
      <trkpt lat="44.99493" lon="6.4551">
        <ele>2258.7</ele>
        <time>2022-01-14T11:06:34Z</time>
      </trkpt>
      <trkpt lat="44.99493" lon="6.4551">
        <ele>2258.7</ele>
        <time>2022-01-14T11:06:35Z</time>
      </trkpt>
      <trkpt lat="44.99492" lon="6.4551">
        <ele>2258.7</ele>
        <time>2022-01-14T11:06:36Z</time>
      </trkpt>
      <trkpt lat="44.99492" lon="6.4551">
        <ele>2258.5</ele>
        <time>2022-01-14T11:06:37Z</time>
      </trkpt>
      <trkpt lat="44.99492" lon="6.45511">
        <ele>2258.3</ele>
        <time>2022-01-14T11:06:38Z</time>
      </trkpt>
      <trkpt lat="44.99491" lon="6.4551">
        <ele>2258.3</ele>
        <time>2022-01-14T11:06:39Z</time>
      </trkpt>
      <trkpt lat="44.99492" lon="6.4551">
        <ele>2258.3</ele>
        <time>2022-01-14T11:06:40Z</time>
      </trkpt>
      <trkpt lat="44.99492" lon="6.4551">
        <ele>2258.5</ele>
        <time>2022-01-14T11:06:41Z</time>
      </trkpt>
      <trkpt lat="44.99492" lon="6.4551">
        <ele>2258.5</ele>
        <time>2022-01-14T11:06:42Z</time>
      </trkpt>
      <trkpt lat="44.99491" lon="6.4551">
        <ele>2258.5</ele>
        <time>2022-01-14T11:06:43Z</time>
      </trkpt>
      <trkpt lat="44.99491" lon="6.4551">
        <ele>2258.3</ele>
        <time>2022-01-14T11:06:44Z</time>
      </trkpt>
      <trkpt lat="44.99491" lon="6.45509">
        <ele>2258.5</ele>
        <time>2022-01-14T11:06:45Z</time>
      </trkpt>
      <trkpt lat="44.99491" lon="6.45508">
        <ele>2258.9</ele>
        <time>2022-01-14T11:06:46Z</time>
      </trkpt>
      <trkpt lat="44.9949" lon="6.45508">
        <ele>2259.1</ele>
        <time>2022-01-14T11:06:47Z</time>
      </trkpt>
      <trkpt lat="44.9949" lon="6.45507">
        <ele>2259.1</ele>
        <time>2022-01-14T11:06:48Z</time>
      </trkpt>
      <trkpt lat="44.9949" lon="6.45507">
        <ele>2259.1</ele>
        <time>2022-01-14T11:06:49Z</time>
      </trkpt>
      <trkpt lat="44.9949" lon="6.45506">
        <ele>2259.1</ele>
        <time>2022-01-14T11:06:50Z</time>
      </trkpt>
      <trkpt lat="44.9949" lon="6.45506">
        <ele>2259.1</ele>
        <time>2022-01-14T11:06:51Z</time>
      </trkpt>
      <trkpt lat="44.99489" lon="6.45506">
        <ele>2259.3</ele>
        <time>2022-01-14T11:06:52Z</time>
      </trkpt>
      <trkpt lat="44.99489" lon="6.45505">
        <ele>2259.5</ele>
        <time>2022-01-14T11:06:53Z</time>
      </trkpt>
      <trkpt lat="44.99489" lon="6.45505">
        <ele>2259.5</ele>
        <time>2022-01-14T11:06:54Z</time>
      </trkpt>
      <trkpt lat="44.99489" lon="6.45505">
        <ele>2259.9</ele>
        <time>2022-01-14T11:06:55Z</time>
      </trkpt>
      <trkpt lat="44.99489" lon="6.45504">
        <ele>2260.1</ele>
        <time>2022-01-14T11:06:56Z</time>
      </trkpt>
      <trkpt lat="44.99487" lon="6.45503">
        <ele>2260.5</ele>
        <time>2022-01-14T11:06:57Z</time>
      </trkpt>
      <trkpt lat="44.99486" lon="6.45503">
        <ele>2260.7</ele>
        <time>2022-01-14T11:06:58Z</time>
      </trkpt>
      <trkpt lat="44.99485" lon="6.45502">
        <ele>2261.1</ele>
        <time>2022-01-14T11:06:59Z</time>
      </trkpt>
      <trkpt lat="44.99482" lon="6.455">
        <ele>2261.3</ele>
        <time>2022-01-14T11:07:00Z</time>
      </trkpt>
      <trkpt lat="44.99481" lon="6.45499">
        <ele>2261.5</ele>
        <time>2022-01-14T11:07:01Z</time>
      </trkpt>
      <trkpt lat="44.99477" lon="6.45497">
        <ele>2261.9</ele>
        <time>2022-01-14T11:07:02Z</time>
      </trkpt>
      <trkpt lat="44.99476" lon="6.45497">
        <ele>2261.9</ele>
        <time>2022-01-14T11:07:03Z</time>
      </trkpt>
      <trkpt lat="44.99474" lon="6.45499">
        <ele>2261.9</ele>
        <time>2022-01-14T11:07:04Z</time>
      </trkpt>
      <trkpt lat="44.99473" lon="6.45501">
        <ele>2261.9</ele>
        <time>2022-01-14T11:07:05Z</time>
      </trkpt>
      <trkpt lat="44.99472" lon="6.45505">
        <ele>2261.6</ele>
        <time>2022-01-14T11:07:06Z</time>
      </trkpt>
      <trkpt lat="44.99471" lon="6.4551">
        <ele>2260.4</ele>
        <time>2022-01-14T11:07:07Z</time>
      </trkpt>
      <trkpt lat="44.99469" lon="6.45515">
        <ele>2258.7</ele>
        <time>2022-01-14T11:07:08Z</time>
      </trkpt>
      <trkpt lat="44.99466" lon="6.45519">
        <ele>2257.1</ele>
        <time>2022-01-14T11:07:09Z</time>
      </trkpt>
      <trkpt lat="44.99463" lon="6.45524">
        <ele>2255.6</ele>
        <time>2022-01-14T11:07:10Z</time>
      </trkpt>
      <trkpt lat="44.99461" lon="6.45529">
        <ele>2253.9</ele>
        <time>2022-01-14T11:07:11Z</time>
      </trkpt>
      <trkpt lat="44.99459" lon="6.45533">
        <ele>2252.3</ele>
        <time>2022-01-14T11:07:12Z</time>
      </trkpt>
      <trkpt lat="44.99461" lon="6.4554">
        <ele>2251.6</ele>
        <time>2022-01-14T11:07:13Z</time>
      </trkpt>
      <trkpt lat="44.99463" lon="6.45544">
        <ele>2251</ele>
        <time>2022-01-14T11:07:14Z</time>
      </trkpt>
      <trkpt lat="44.99465" lon="6.45551">
        <ele>2248.9</ele>
        <time>2022-01-14T11:07:15Z</time>
      </trkpt>
      <trkpt lat="44.99466" lon="6.45559">
        <ele>2246.9</ele>
        <time>2022-01-14T11:07:16Z</time>
      </trkpt>
      <trkpt lat="44.99466" lon="6.45564">
        <ele>2245.4</ele>
        <time>2022-01-14T11:07:17Z</time>
      </trkpt>
      <trkpt lat="44.99466" lon="6.45566">
        <ele>2244.9</ele>
        <time>2022-01-14T11:07:18Z</time>
      </trkpt>
      <trkpt lat="44.99465" lon="6.45568">
        <ele>2244.2</ele>
        <time>2022-01-14T11:07:19Z</time>
      </trkpt>
      <trkpt lat="44.99464" lon="6.45573">
        <ele>2244.2</ele>
        <time>2022-01-14T11:07:20Z</time>
      </trkpt>
      <trkpt lat="44.99464" lon="6.45575">
        <ele>2244.1</ele>
        <time>2022-01-14T11:07:21Z</time>
      </trkpt>
      <trkpt lat="44.99463" lon="6.4558">
        <ele>2243.9</ele>
        <time>2022-01-14T11:07:22Z</time>
      </trkpt>
      <trkpt lat="44.99462" lon="6.45581">
        <ele>2243.6</ele>
        <time>2022-01-14T11:07:23Z</time>
      </trkpt>
      <trkpt lat="44.99462" lon="6.45585">
        <ele>2242.6</ele>
        <time>2022-01-14T11:07:24Z</time>
      </trkpt>
      <trkpt lat="44.99461" lon="6.45588">
        <ele>2241.8</ele>
        <time>2022-01-14T11:07:25Z</time>
      </trkpt>
      <trkpt lat="44.9946" lon="6.45589">
        <ele>2241.2</ele>
        <time>2022-01-14T11:07:26Z</time>
      </trkpt>
      <trkpt lat="44.99458" lon="6.45591">
        <ele>2240.7</ele>
        <time>2022-01-14T11:07:27Z</time>
      </trkpt>
      <trkpt lat="44.99457" lon="6.45591">
        <ele>2240.4</ele>
        <time>2022-01-14T11:07:28Z</time>
      </trkpt>
      <trkpt lat="44.99456" lon="6.45592">
        <ele>2240.4</ele>
        <time>2022-01-14T11:07:29Z</time>
      </trkpt>
      <trkpt lat="44.99454" lon="6.45595">
        <ele>2240.9</ele>
        <time>2022-01-14T11:07:30Z</time>
      </trkpt>
      <trkpt lat="44.99453" lon="6.45596">
        <ele>2240.5</ele>
        <time>2022-01-14T11:07:31Z</time>
      </trkpt>
      <trkpt lat="44.99454" lon="6.456">
        <ele>2240</ele>
        <time>2022-01-14T11:07:32Z</time>
      </trkpt>
      <trkpt lat="44.99454" lon="6.45602">
        <ele>2238.3</ele>
        <time>2022-01-14T11:07:33Z</time>
      </trkpt>
      <trkpt lat="44.99454" lon="6.45606">
        <ele>2237.5</ele>
        <time>2022-01-14T11:07:34Z</time>
      </trkpt>
      <trkpt lat="44.99452" lon="6.4561">
        <ele>2236.6</ele>
        <time>2022-01-14T11:07:35Z</time>
      </trkpt>
      <trkpt lat="44.99452" lon="6.45611">
        <ele>2236</ele>
        <time>2022-01-14T11:07:36Z</time>
      </trkpt>
      <trkpt lat="44.9945" lon="6.45612">
        <ele>2235.6</ele>
        <time>2022-01-14T11:07:37Z</time>
      </trkpt>
      <trkpt lat="44.99449" lon="6.45613">
        <ele>2235.5</ele>
        <time>2022-01-14T11:07:38Z</time>
      </trkpt>
      <trkpt lat="44.99448" lon="6.45613">
        <ele>2235.7</ele>
        <time>2022-01-14T11:07:39Z</time>
      </trkpt>
      <trkpt lat="44.99447" lon="6.45614">
        <ele>2235.3</ele>
        <time>2022-01-14T11:07:40Z</time>
      </trkpt>
      <trkpt lat="44.99446" lon="6.45615">
        <ele>2235.2</ele>
        <time>2022-01-14T11:07:41Z</time>
      </trkpt>
      <trkpt lat="44.99445" lon="6.45615">
        <ele>2235.1</ele>
        <time>2022-01-14T11:07:42Z</time>
      </trkpt>
      <trkpt lat="44.99445" lon="6.45614">
        <ele>2235.2</ele>
        <time>2022-01-14T11:07:43Z</time>
      </trkpt>
      <trkpt lat="44.99445" lon="6.45615">
        <ele>2235.4</ele>
        <time>2022-01-14T11:07:44Z</time>
      </trkpt>
      <trkpt lat="44.99445" lon="6.45616">
        <ele>2235.3</ele>
        <time>2022-01-14T11:07:45Z</time>
      </trkpt>
      <trkpt lat="44.99445" lon="6.45615">
        <ele>2235.2</ele>
        <time>2022-01-14T11:07:46Z</time>
      </trkpt>
      <trkpt lat="44.99445" lon="6.45614">
        <ele>2235.4</ele>
        <time>2022-01-14T11:07:47Z</time>
      </trkpt>
      <trkpt lat="44.99445" lon="6.45614">
        <ele>2235.8</ele>
        <time>2022-01-14T11:07:48Z</time>
      </trkpt>
      <trkpt lat="44.99445" lon="6.45614">
        <ele>2235.8</ele>
        <time>2022-01-14T11:07:49Z</time>
      </trkpt>
      <trkpt lat="44.99445" lon="6.45614">
        <ele>2235.9</ele>
        <time>2022-01-14T11:07:50Z</time>
      </trkpt>
      <trkpt lat="44.99445" lon="6.45615">
        <ele>2236.1</ele>
        <time>2022-01-14T11:07:51Z</time>
      </trkpt>
      <trkpt lat="44.99445" lon="6.45617">
        <ele>2236</ele>
        <time>2022-01-14T11:07:52Z</time>
      </trkpt>
      <trkpt lat="44.99446" lon="6.45619">
        <ele>2234.1</ele>
        <time>2022-01-14T11:07:53Z</time>
      </trkpt>
      <trkpt lat="44.99447" lon="6.45623">
        <ele>2233.9</ele>
        <time>2022-01-14T11:07:54Z</time>
      </trkpt>
      <trkpt lat="44.99447" lon="6.45625">
        <ele>2233.7</ele>
        <time>2022-01-14T11:07:55Z</time>
      </trkpt>
      <trkpt lat="44.99446" lon="6.45629">
        <ele>2233.3</ele>
        <time>2022-01-14T11:07:56Z</time>
      </trkpt>
      <trkpt lat="44.99443" lon="6.45632">
        <ele>2232.6</ele>
        <time>2022-01-14T11:07:57Z</time>
      </trkpt>
      <trkpt lat="44.99442" lon="6.45633">
        <ele>2233.3</ele>
        <time>2022-01-14T11:07:58Z</time>
      </trkpt>
      <trkpt lat="44.99441" lon="6.45633">
        <ele>2233.1</ele>
        <time>2022-01-14T11:07:59Z</time>
      </trkpt>
      <trkpt lat="44.99439" lon="6.45636">
        <ele>2230.9</ele>
        <time>2022-01-14T11:08:00Z</time>
      </trkpt>
      <trkpt lat="44.9944" lon="6.4564">
        <ele>2230.6</ele>
        <time>2022-01-14T11:08:01Z</time>
      </trkpt>
      <trkpt lat="44.9944" lon="6.45644">
        <ele>2230.2</ele>
        <time>2022-01-14T11:08:02Z</time>
      </trkpt>
      <trkpt lat="44.99439" lon="6.45645">
        <ele>2230.3</ele>
        <time>2022-01-14T11:08:03Z</time>
      </trkpt>
      <trkpt lat="44.99438" lon="6.45645">
        <ele>2230.3</ele>
        <time>2022-01-14T11:08:04Z</time>
      </trkpt>
      <trkpt lat="44.99438" lon="6.45646">
        <ele>2230.4</ele>
        <time>2022-01-14T11:08:05Z</time>
      </trkpt>
      <trkpt lat="44.99437" lon="6.45647">
        <ele>2230.5</ele>
        <time>2022-01-14T11:08:06Z</time>
      </trkpt>
      <trkpt lat="44.99437" lon="6.45649">
        <ele>2230.7</ele>
        <time>2022-01-14T11:08:07Z</time>
      </trkpt>
      <trkpt lat="44.99437" lon="6.4565">
        <ele>2230.7</ele>
        <time>2022-01-14T11:08:08Z</time>
      </trkpt>
      <trkpt lat="44.99436" lon="6.45651">
        <ele>2230.8</ele>
        <time>2022-01-14T11:08:09Z</time>
      </trkpt>
      <trkpt lat="44.99437" lon="6.45656">
        <ele>2228.2</ele>
        <time>2022-01-14T11:08:10Z</time>
      </trkpt>
      <trkpt lat="44.99439" lon="6.45662">
        <ele>2228.1</ele>
        <time>2022-01-14T11:08:11Z</time>
      </trkpt>
      <trkpt lat="44.9944" lon="6.45667">
        <ele>2228.2</ele>
        <time>2022-01-14T11:08:12Z</time>
      </trkpt>
      <trkpt lat="44.99441" lon="6.45672">
        <ele>2224.7</ele>
        <time>2022-01-14T11:08:13Z</time>
      </trkpt>
      <trkpt lat="44.99442" lon="6.45677">
        <ele>2224.4</ele>
        <time>2022-01-14T11:08:14Z</time>
      </trkpt>
      <trkpt lat="44.99444" lon="6.4568">
        <ele>2222.8</ele>
        <time>2022-01-14T11:08:15Z</time>
      </trkpt>
      <trkpt lat="44.99445" lon="6.45682">
        <ele>2222.6</ele>
        <time>2022-01-14T11:08:16Z</time>
      </trkpt>
      <trkpt lat="44.99446" lon="6.45684">
        <ele>2222.6</ele>
        <time>2022-01-14T11:08:17Z</time>
      </trkpt>
      <trkpt lat="44.99447" lon="6.45685">
        <ele>2222.4</ele>
        <time>2022-01-14T11:08:18Z</time>
      </trkpt>
      <trkpt lat="44.99447" lon="6.45684">
        <ele>2222.4</ele>
        <time>2022-01-14T11:08:19Z</time>
      </trkpt>
      <trkpt lat="44.99447" lon="6.45684">
        <ele>2222.5</ele>
        <time>2022-01-14T11:08:20Z</time>
      </trkpt>
      <trkpt lat="44.99447" lon="6.45684">
        <ele>2222.6</ele>
        <time>2022-01-14T11:08:21Z</time>
      </trkpt>
      <trkpt lat="44.99446" lon="6.45684">
        <ele>2222.6</ele>
        <time>2022-01-14T11:08:22Z</time>
      </trkpt>
      <trkpt lat="44.99446" lon="6.45684">
        <ele>2222.7</ele>
        <time>2022-01-14T11:08:23Z</time>
      </trkpt>
      <trkpt lat="44.99446" lon="6.45684">
        <ele>2222.8</ele>
        <time>2022-01-14T11:08:24Z</time>
      </trkpt>
      <trkpt lat="44.99446" lon="6.45684">
        <ele>2222.8</ele>
        <time>2022-01-14T11:08:25Z</time>
      </trkpt>
      <trkpt lat="44.99446" lon="6.45684">
        <ele>2222.9</ele>
        <time>2022-01-14T11:08:26Z</time>
      </trkpt>
      <trkpt lat="44.99446" lon="6.45684">
        <ele>2223</ele>
        <time>2022-01-14T11:08:27Z</time>
      </trkpt>
      <trkpt lat="44.99447" lon="6.45685">
        <ele>2223</ele>
        <time>2022-01-14T11:08:28Z</time>
      </trkpt>
      <trkpt lat="44.99447" lon="6.45686">
        <ele>2223.1</ele>
        <time>2022-01-14T11:08:29Z</time>
      </trkpt>
      <trkpt lat="44.99447" lon="6.45687">
        <ele>2223.1</ele>
        <time>2022-01-14T11:08:30Z</time>
      </trkpt>
      <trkpt lat="44.99447" lon="6.45687">
        <ele>2217.9</ele>
        <time>2022-01-14T11:08:31Z</time>
      </trkpt>
      <trkpt lat="44.99447" lon="6.45688">
        <ele>2217.9</ele>
        <time>2022-01-14T11:08:32Z</time>
      </trkpt>
      <trkpt lat="44.99447" lon="6.45688">
        <ele>2217.9</ele>
        <time>2022-01-14T11:08:33Z</time>
      </trkpt>
      <trkpt lat="44.99446" lon="6.45691">
        <ele>2217.9</ele>
        <time>2022-01-14T11:08:34Z</time>
      </trkpt>
      <trkpt lat="44.99443" lon="6.45695">
        <ele>2217.8</ele>
        <time>2022-01-14T11:08:35Z</time>
      </trkpt>
      <trkpt lat="44.99439" lon="6.45698">
        <ele>2219.7</ele>
        <time>2022-01-14T11:08:36Z</time>
      </trkpt>
      <trkpt lat="44.99434" lon="6.45699">
        <ele>2219.7</ele>
        <time>2022-01-14T11:08:37Z</time>
      </trkpt>
      <trkpt lat="44.99429" lon="6.45701">
        <ele>2220.6</ele>
        <time>2022-01-14T11:08:38Z</time>
      </trkpt>
      <trkpt lat="44.99424" lon="6.45702">
        <ele>2220.6</ele>
        <time>2022-01-14T11:08:39Z</time>
      </trkpt>
      <trkpt lat="44.99418" lon="6.45704">
        <ele>2220.7</ele>
        <time>2022-01-14T11:08:40Z</time>
      </trkpt>
      <trkpt lat="44.99412" lon="6.45706">
        <ele>2216.7</ele>
        <time>2022-01-14T11:08:41Z</time>
      </trkpt>
      <trkpt lat="44.99407" lon="6.45708">
        <ele>2216.8</ele>
        <time>2022-01-14T11:08:42Z</time>
      </trkpt>
      <trkpt lat="44.99402" lon="6.45712">
        <ele>2218.3</ele>
        <time>2022-01-14T11:08:43Z</time>
      </trkpt>
      <trkpt lat="44.99399" lon="6.45715">
        <ele>2218.4</ele>
        <time>2022-01-14T11:08:44Z</time>
      </trkpt>
      <trkpt lat="44.99396" lon="6.45717">
        <ele>2218.4</ele>
        <time>2022-01-14T11:08:45Z</time>
      </trkpt>
      <trkpt lat="44.99394" lon="6.45719">
        <ele>2220.8</ele>
        <time>2022-01-14T11:08:46Z</time>
      </trkpt>
      <trkpt lat="44.99391" lon="6.45721">
        <ele>2220.8</ele>
        <time>2022-01-14T11:08:47Z</time>
      </trkpt>
      <trkpt lat="44.99391" lon="6.45722">
        <ele>2216</ele>
        <time>2022-01-14T11:08:48Z</time>
      </trkpt>
      <trkpt lat="44.99387" lon="6.45724">
        <ele>2216</ele>
        <time>2022-01-14T11:08:49Z</time>
      </trkpt>
      <trkpt lat="44.99386" lon="6.45725">
        <ele>2216</ele>
        <time>2022-01-14T11:08:50Z</time>
      </trkpt>
      <trkpt lat="44.99382" lon="6.45727">
        <ele>2216</ele>
        <time>2022-01-14T11:08:51Z</time>
      </trkpt>
      <trkpt lat="44.99378" lon="6.45732">
        <ele>2218.8</ele>
        <time>2022-01-14T11:08:52Z</time>
      </trkpt>
      <trkpt lat="44.99374" lon="6.45739">
        <ele>2214.9</ele>
        <time>2022-01-14T11:08:53Z</time>
      </trkpt>
      <trkpt lat="44.99373" lon="6.45747">
        <ele>2214.9</ele>
        <time>2022-01-14T11:08:54Z</time>
      </trkpt>
      <trkpt lat="44.99373" lon="6.45756">
        <ele>2214.9</ele>
        <time>2022-01-14T11:08:55Z</time>
      </trkpt>
      <trkpt lat="44.99373" lon="6.45762">
        <ele>2210.9</ele>
        <time>2022-01-14T11:08:56Z</time>
      </trkpt>
      <trkpt lat="44.99372" lon="6.45767">
        <ele>2210.9</ele>
        <time>2022-01-14T11:08:57Z</time>
      </trkpt>
      <trkpt lat="44.99372" lon="6.45772">
        <ele>2210.9</ele>
        <time>2022-01-14T11:08:58Z</time>
      </trkpt>
      <trkpt lat="44.99374" lon="6.45777">
        <ele>2206.7</ele>
        <time>2022-01-14T11:08:59Z</time>
      </trkpt>
      <trkpt lat="44.99375" lon="6.45781">
        <ele>2206.7</ele>
        <time>2022-01-14T11:09:00Z</time>
      </trkpt>
      <trkpt lat="44.99378" lon="6.45785">
        <ele>2206.7</ele>
        <time>2022-01-14T11:09:01Z</time>
      </trkpt>
      <trkpt lat="44.99378" lon="6.4579">
        <ele>2206.7</ele>
        <time>2022-01-14T11:09:02Z</time>
      </trkpt>
      <trkpt lat="44.99377" lon="6.45791">
        <ele>2202.3</ele>
        <time>2022-01-14T11:09:03Z</time>
      </trkpt>
      <trkpt lat="44.99377" lon="6.45794">
        <ele>2202.3</ele>
        <time>2022-01-14T11:09:04Z</time>
      </trkpt>
      <trkpt lat="44.99377" lon="6.45796">
        <ele>2202.3</ele>
        <time>2022-01-14T11:09:05Z</time>
      </trkpt>
      <trkpt lat="44.99376" lon="6.45797">
        <ele>2202.3</ele>
        <time>2022-01-14T11:09:06Z</time>
      </trkpt>
      <trkpt lat="44.99375" lon="6.45798">
        <ele>2202.3</ele>
        <time>2022-01-14T11:09:07Z</time>
      </trkpt>
      <trkpt lat="44.99375" lon="6.45799">
        <ele>2202.3</ele>
        <time>2022-01-14T11:09:08Z</time>
      </trkpt>
      <trkpt lat="44.99375" lon="6.45798">
        <ele>2202.3</ele>
        <time>2022-01-14T11:09:09Z</time>
      </trkpt>
      <trkpt lat="44.99375" lon="6.45796">
        <ele>2202.3</ele>
        <time>2022-01-14T11:09:10Z</time>
      </trkpt>
      <trkpt lat="44.99374" lon="6.45796">
        <ele>2202.3</ele>
        <time>2022-01-14T11:09:11Z</time>
      </trkpt>
      <trkpt lat="44.99374" lon="6.45795">
        <ele>2202.3</ele>
        <time>2022-01-14T11:09:12Z</time>
      </trkpt>
      <trkpt lat="44.99374" lon="6.45795">
        <ele>2202.3</ele>
        <time>2022-01-14T11:09:13Z</time>
      </trkpt>
      <trkpt lat="44.99374" lon="6.45794">
        <ele>2202.3</ele>
        <time>2022-01-14T11:09:14Z</time>
      </trkpt>
      <trkpt lat="44.99374" lon="6.45793">
        <ele>2202.3</ele>
        <time>2022-01-14T11:09:15Z</time>
      </trkpt>
      <trkpt lat="44.99375" lon="6.45794">
        <ele>2202.3</ele>
        <time>2022-01-14T11:09:16Z</time>
      </trkpt>
      <trkpt lat="44.99375" lon="6.45794">
        <ele>2202.3</ele>
        <time>2022-01-14T11:09:17Z</time>
      </trkpt>
      <trkpt lat="44.99375" lon="6.45794">
        <ele>2202.3</ele>
        <time>2022-01-14T11:09:18Z</time>
      </trkpt>
      <trkpt lat="44.99375" lon="6.45794">
        <ele>2202.3</ele>
        <time>2022-01-14T11:09:19Z</time>
      </trkpt>
      <trkpt lat="44.99375" lon="6.45794">
        <ele>2202.3</ele>
        <time>2022-01-14T11:09:20Z</time>
      </trkpt>
      <trkpt lat="44.99375" lon="6.45794">
        <ele>2202.3</ele>
        <time>2022-01-14T11:09:21Z</time>
      </trkpt>
      <trkpt lat="44.99375" lon="6.45794">
        <ele>2202.3</ele>
        <time>2022-01-14T11:09:22Z</time>
      </trkpt>
      <trkpt lat="44.99375" lon="6.45794">
        <ele>2202.3</ele>
        <time>2022-01-14T11:09:23Z</time>
      </trkpt>
      <trkpt lat="44.99375" lon="6.45794">
        <ele>2202.3</ele>
        <time>2022-01-14T11:09:24Z</time>
      </trkpt>
      <trkpt lat="44.99375" lon="6.45794">
        <ele>2202.3</ele>
        <time>2022-01-14T11:09:25Z</time>
      </trkpt>
      <trkpt lat="44.99375" lon="6.45794">
        <ele>2202.3</ele>
        <time>2022-01-14T11:09:26Z</time>
      </trkpt>
      <trkpt lat="44.99375" lon="6.45794">
        <ele>2202.3</ele>
        <time>2022-01-14T11:09:27Z</time>
      </trkpt>
      <trkpt lat="44.99375" lon="6.45794">
        <ele>2202.3</ele>
        <time>2022-01-14T11:09:28Z</time>
      </trkpt>
      <trkpt lat="44.99375" lon="6.45794">
        <ele>2202.3</ele>
        <time>2022-01-14T11:09:29Z</time>
      </trkpt>
      <trkpt lat="44.99375" lon="6.45794">
        <ele>2202.3</ele>
        <time>2022-01-14T11:09:30Z</time>
      </trkpt>
      <trkpt lat="44.99375" lon="6.45794">
        <ele>2202.3</ele>
        <time>2022-01-14T11:09:31Z</time>
      </trkpt>
      <trkpt lat="44.99375" lon="6.45794">
        <ele>2202.3</ele>
        <time>2022-01-14T11:09:32Z</time>
      </trkpt>
      <trkpt lat="44.99375" lon="6.45794">
        <ele>2202.3</ele>
        <time>2022-01-14T11:09:33Z</time>
      </trkpt>
      <trkpt lat="44.99375" lon="6.45794">
        <ele>2202.3</ele>
        <time>2022-01-14T11:09:34Z</time>
      </trkpt>
      <trkpt lat="44.99375" lon="6.45794">
        <ele>2202.3</ele>
        <time>2022-01-14T11:09:35Z</time>
      </trkpt>
      <trkpt lat="44.99375" lon="6.45794">
        <ele>2202.3</ele>
        <time>2022-01-14T11:09:36Z</time>
      </trkpt>
      <trkpt lat="44.99375" lon="6.45794">
        <ele>2202.3</ele>
        <time>2022-01-14T11:09:37Z</time>
      </trkpt>
      <trkpt lat="44.99375" lon="6.45794">
        <ele>2202.3</ele>
        <time>2022-01-14T11:09:38Z</time>
      </trkpt>
      <trkpt lat="44.99375" lon="6.45794">
        <ele>2202.3</ele>
        <time>2022-01-14T11:09:39Z</time>
      </trkpt>
      <trkpt lat="44.99375" lon="6.45794">
        <ele>2202.3</ele>
        <time>2022-01-14T11:09:40Z</time>
      </trkpt>
      <trkpt lat="44.99375" lon="6.45795">
        <ele>2202.3</ele>
        <time>2022-01-14T11:09:41Z</time>
      </trkpt>
      <trkpt lat="44.99375" lon="6.45795">
        <ele>2202.3</ele>
        <time>2022-01-14T11:09:42Z</time>
      </trkpt>
      <trkpt lat="44.99375" lon="6.45795">
        <ele>2202.3</ele>
        <time>2022-01-14T11:09:43Z</time>
      </trkpt>
      <trkpt lat="44.99375" lon="6.45795">
        <ele>2202.3</ele>
        <time>2022-01-14T11:09:44Z</time>
      </trkpt>
      <trkpt lat="44.99375" lon="6.45796">
        <ele>2202.3</ele>
        <time>2022-01-14T11:09:45Z</time>
      </trkpt>
      <trkpt lat="44.99374" lon="6.45797">
        <ele>2202.3</ele>
        <time>2022-01-14T11:09:46Z</time>
      </trkpt>
      <trkpt lat="44.99374" lon="6.45797">
        <ele>2202.3</ele>
        <time>2022-01-14T11:09:47Z</time>
      </trkpt>
      <trkpt lat="44.99374" lon="6.45797">
        <ele>2202.3</ele>
        <time>2022-01-14T11:09:48Z</time>
      </trkpt>
      <trkpt lat="44.99374" lon="6.45797">
        <ele>2202.3</ele>
        <time>2022-01-14T11:09:49Z</time>
      </trkpt>
      <trkpt lat="44.99374" lon="6.45797">
        <ele>2202.3</ele>
        <time>2022-01-14T11:09:50Z</time>
      </trkpt>
      <trkpt lat="44.99374" lon="6.45798">
        <ele>2202.3</ele>
        <time>2022-01-14T11:09:51Z</time>
      </trkpt>
      <trkpt lat="44.99374" lon="6.45798">
        <ele>2202.3</ele>
        <time>2022-01-14T11:09:52Z</time>
      </trkpt>
      <trkpt lat="44.99374" lon="6.45798">
        <ele>2202.3</ele>
        <time>2022-01-14T11:09:53Z</time>
      </trkpt>
      <trkpt lat="44.99374" lon="6.45798">
        <ele>2202.3</ele>
        <time>2022-01-14T11:09:54Z</time>
      </trkpt>
      <trkpt lat="44.99374" lon="6.45798">
        <ele>2202.3</ele>
        <time>2022-01-14T11:09:55Z</time>
      </trkpt>
      <trkpt lat="44.99374" lon="6.45798">
        <ele>2202.3</ele>
        <time>2022-01-14T11:09:56Z</time>
      </trkpt>
      <trkpt lat="44.99374" lon="6.45798">
        <ele>2202.3</ele>
        <time>2022-01-14T11:09:57Z</time>
      </trkpt>
      <trkpt lat="44.99374" lon="6.45798">
        <ele>2202.3</ele>
        <time>2022-01-14T11:09:58Z</time>
      </trkpt>
      <trkpt lat="44.99374" lon="6.45798">
        <ele>2202.3</ele>
        <time>2022-01-14T11:09:59Z</time>
      </trkpt>
      <trkpt lat="44.99374" lon="6.45798">
        <ele>2202.3</ele>
        <time>2022-01-14T11:10:00Z</time>
      </trkpt>
      <trkpt lat="44.99373" lon="6.45797">
        <ele>2202.3</ele>
        <time>2022-01-14T11:10:01Z</time>
      </trkpt>
      <trkpt lat="44.99372" lon="6.45798">
        <ele>2202.3</ele>
        <time>2022-01-14T11:10:02Z</time>
      </trkpt>
      <trkpt lat="44.99371" lon="6.45799">
        <ele>2202.3</ele>
        <time>2022-01-14T11:10:03Z</time>
      </trkpt>
      <trkpt lat="44.9937" lon="6.458">
        <ele>2202.3</ele>
        <time>2022-01-14T11:10:04Z</time>
      </trkpt>
      <trkpt lat="44.9937" lon="6.45801">
        <ele>2202.3</ele>
        <time>2022-01-14T11:10:05Z</time>
      </trkpt>
      <trkpt lat="44.99369" lon="6.45802">
        <ele>2204.5</ele>
        <time>2022-01-14T11:10:06Z</time>
      </trkpt>
      <trkpt lat="44.99369" lon="6.45803">
        <ele>2204.5</ele>
        <time>2022-01-14T11:10:07Z</time>
      </trkpt>
      <trkpt lat="44.99368" lon="6.45805">
        <ele>2204.5</ele>
        <time>2022-01-14T11:10:08Z</time>
      </trkpt>
      <trkpt lat="44.99368" lon="6.45806">
        <ele>2204.5</ele>
        <time>2022-01-14T11:10:09Z</time>
      </trkpt>
      <trkpt lat="44.99367" lon="6.45807">
        <ele>2204.5</ele>
        <time>2022-01-14T11:10:10Z</time>
      </trkpt>
      <trkpt lat="44.99364" lon="6.45812">
        <ele>2197.7</ele>
        <time>2022-01-14T11:10:11Z</time>
      </trkpt>
      <trkpt lat="44.99361" lon="6.45815">
        <ele>2197.7</ele>
        <time>2022-01-14T11:10:12Z</time>
      </trkpt>
      <trkpt lat="44.99358" lon="6.45816">
        <ele>2197.7</ele>
        <time>2022-01-14T11:10:13Z</time>
      </trkpt>
      <trkpt lat="44.99357" lon="6.45816">
        <ele>2199.3</ele>
        <time>2022-01-14T11:10:14Z</time>
      </trkpt>
      <trkpt lat="44.99355" lon="6.45816">
        <ele>2199.3</ele>
        <time>2022-01-14T11:10:15Z</time>
      </trkpt>
      <trkpt lat="44.99354" lon="6.45816">
        <ele>2199.3</ele>
        <time>2022-01-14T11:10:16Z</time>
      </trkpt>
      <trkpt lat="44.99351" lon="6.45814">
        <ele>2199.3</ele>
        <time>2022-01-14T11:10:17Z</time>
      </trkpt>
      <trkpt lat="44.9935" lon="6.45814">
        <ele>2199.3</ele>
        <time>2022-01-14T11:10:18Z</time>
      </trkpt>
      <trkpt lat="44.99349" lon="6.45815">
        <ele>2199.3</ele>
        <time>2022-01-14T11:10:19Z</time>
      </trkpt>
      <trkpt lat="44.99349" lon="6.45815">
        <ele>2199.3</ele>
        <time>2022-01-14T11:10:20Z</time>
      </trkpt>
      <trkpt lat="44.99349" lon="6.45816">
        <ele>2199.3</ele>
        <time>2022-01-14T11:10:21Z</time>
      </trkpt>
      <trkpt lat="44.99348" lon="6.45814">
        <ele>2199.3</ele>
        <time>2022-01-14T11:10:22Z</time>
      </trkpt>
      <trkpt lat="44.99348" lon="6.45815">
        <ele>2199.3</ele>
        <time>2022-01-14T11:10:23Z</time>
      </trkpt>
      <trkpt lat="44.99347" lon="6.45815">
        <ele>2199.3</ele>
        <time>2022-01-14T11:10:24Z</time>
      </trkpt>
      <trkpt lat="44.99347" lon="6.45815">
        <ele>2199.3</ele>
        <time>2022-01-14T11:10:25Z</time>
      </trkpt>
      <trkpt lat="44.99347" lon="6.45814">
        <ele>2199.3</ele>
        <time>2022-01-14T11:10:26Z</time>
      </trkpt>
      <trkpt lat="44.99347" lon="6.45814">
        <ele>2199.3</ele>
        <time>2022-01-14T11:10:27Z</time>
      </trkpt>
      <trkpt lat="44.99347" lon="6.45814">
        <ele>2199.3</ele>
        <time>2022-01-14T11:10:28Z</time>
      </trkpt>
      <trkpt lat="44.99347" lon="6.45814">
        <ele>2199.3</ele>
        <time>2022-01-14T11:10:29Z</time>
      </trkpt>
      <trkpt lat="44.99347" lon="6.45814">
        <ele>2199.3</ele>
        <time>2022-01-14T11:10:30Z</time>
      </trkpt>
      <trkpt lat="44.99347" lon="6.45815">
        <ele>2199.3</ele>
        <time>2022-01-14T11:10:31Z</time>
      </trkpt>
      <trkpt lat="44.99347" lon="6.45815">
        <ele>2199.3</ele>
        <time>2022-01-14T11:10:32Z</time>
      </trkpt>
      <trkpt lat="44.99347" lon="6.45815">
        <ele>2199.3</ele>
        <time>2022-01-14T11:10:33Z</time>
      </trkpt>
      <trkpt lat="44.99347" lon="6.45815">
        <ele>2199.3</ele>
        <time>2022-01-14T11:10:34Z</time>
      </trkpt>
      <trkpt lat="44.99347" lon="6.45815">
        <ele>2199.3</ele>
        <time>2022-01-14T11:10:35Z</time>
      </trkpt>
      <trkpt lat="44.99347" lon="6.45815">
        <ele>2199.3</ele>
        <time>2022-01-14T11:10:36Z</time>
      </trkpt>
      <trkpt lat="44.99347" lon="6.45815">
        <ele>2199.3</ele>
        <time>2022-01-14T11:10:37Z</time>
      </trkpt>
      <trkpt lat="44.99347" lon="6.45815">
        <ele>2199.3</ele>
        <time>2022-01-14T11:10:38Z</time>
      </trkpt>
      <trkpt lat="44.99347" lon="6.45815">
        <ele>2199.3</ele>
        <time>2022-01-14T11:10:39Z</time>
      </trkpt>
      <trkpt lat="44.99347" lon="6.45814">
        <ele>2199.3</ele>
        <time>2022-01-14T11:10:40Z</time>
      </trkpt>
      <trkpt lat="44.99347" lon="6.45815">
        <ele>2199.3</ele>
        <time>2022-01-14T11:10:41Z</time>
      </trkpt>
      <trkpt lat="44.99347" lon="6.45814">
        <ele>2199.3</ele>
        <time>2022-01-14T11:10:42Z</time>
      </trkpt>
      <trkpt lat="44.99347" lon="6.45814">
        <ele>2199.3</ele>
        <time>2022-01-14T11:10:43Z</time>
      </trkpt>
      <trkpt lat="44.99347" lon="6.45814">
        <ele>2199.3</ele>
        <time>2022-01-14T11:10:44Z</time>
      </trkpt>
      <trkpt lat="44.99347" lon="6.45815">
        <ele>2199.3</ele>
        <time>2022-01-14T11:10:45Z</time>
      </trkpt>
      <trkpt lat="44.99347" lon="6.45815">
        <ele>2199.3</ele>
        <time>2022-01-14T11:10:46Z</time>
      </trkpt>
      <trkpt lat="44.99346" lon="6.45814">
        <ele>2199.3</ele>
        <time>2022-01-14T11:10:47Z</time>
      </trkpt>
      <trkpt lat="44.99346" lon="6.45814">
        <ele>2199.3</ele>
        <time>2022-01-14T11:10:48Z</time>
      </trkpt>
      <trkpt lat="44.99346" lon="6.45814">
        <ele>2199.3</ele>
        <time>2022-01-14T11:10:49Z</time>
      </trkpt>
      <trkpt lat="44.99346" lon="6.45814">
        <ele>2199.3</ele>
        <time>2022-01-14T11:10:50Z</time>
      </trkpt>
      <trkpt lat="44.99346" lon="6.45814">
        <ele>2199.3</ele>
        <time>2022-01-14T11:10:51Z</time>
      </trkpt>
      <trkpt lat="44.99346" lon="6.45813">
        <ele>2199.3</ele>
        <time>2022-01-14T11:10:52Z</time>
      </trkpt>
      <trkpt lat="44.99346" lon="6.45814">
        <ele>2199.3</ele>
        <time>2022-01-14T11:10:53Z</time>
      </trkpt>
      <trkpt lat="44.99346" lon="6.45814">
        <ele>2199.3</ele>
        <time>2022-01-14T11:10:54Z</time>
      </trkpt>
      <trkpt lat="44.99346" lon="6.45814">
        <ele>2199.3</ele>
        <time>2022-01-14T11:10:55Z</time>
      </trkpt>
      <trkpt lat="44.99346" lon="6.45814">
        <ele>2199.3</ele>
        <time>2022-01-14T11:10:56Z</time>
      </trkpt>
      <trkpt lat="44.99346" lon="6.45814">
        <ele>2199.3</ele>
        <time>2022-01-14T11:10:57Z</time>
      </trkpt>
      <trkpt lat="44.99346" lon="6.45814">
        <ele>2199.3</ele>
        <time>2022-01-14T11:10:58Z</time>
      </trkpt>
      <trkpt lat="44.99347" lon="6.45813">
        <ele>2199.3</ele>
        <time>2022-01-14T11:10:59Z</time>
      </trkpt>
      <trkpt lat="44.99346" lon="6.45813">
        <ele>2199.3</ele>
        <time>2022-01-14T11:11:00Z</time>
      </trkpt>
      <trkpt lat="44.99346" lon="6.45813">
        <ele>2199.3</ele>
        <time>2022-01-14T11:11:01Z</time>
      </trkpt>
      <trkpt lat="44.99346" lon="6.45813">
        <ele>2199.3</ele>
        <time>2022-01-14T11:11:02Z</time>
      </trkpt>
      <trkpt lat="44.99346" lon="6.45813">
        <ele>2199.3</ele>
        <time>2022-01-14T11:11:03Z</time>
      </trkpt>
      <trkpt lat="44.99346" lon="6.45813">
        <ele>2199.3</ele>
        <time>2022-01-14T11:11:04Z</time>
      </trkpt>
      <trkpt lat="44.99346" lon="6.45813">
        <ele>2199.3</ele>
        <time>2022-01-14T11:11:05Z</time>
      </trkpt>
      <trkpt lat="44.99347" lon="6.45813">
        <ele>2199.3</ele>
        <time>2022-01-14T11:11:06Z</time>
      </trkpt>
      <trkpt lat="44.99347" lon="6.45813">
        <ele>2199.3</ele>
        <time>2022-01-14T11:11:07Z</time>
      </trkpt>
      <trkpt lat="44.99347" lon="6.45813">
        <ele>2199.3</ele>
        <time>2022-01-14T11:11:08Z</time>
      </trkpt>
      <trkpt lat="44.99347" lon="6.45812">
        <ele>2199.3</ele>
        <time>2022-01-14T11:11:09Z</time>
      </trkpt>
      <trkpt lat="44.99348" lon="6.45811">
        <ele>2199.3</ele>
        <time>2022-01-14T11:11:10Z</time>
      </trkpt>
      <trkpt lat="44.99349" lon="6.4581">
        <ele>2199.3</ele>
        <time>2022-01-14T11:11:11Z</time>
      </trkpt>
      <trkpt lat="44.99349" lon="6.45809">
        <ele>2199.3</ele>
        <time>2022-01-14T11:11:12Z</time>
      </trkpt>
      <trkpt lat="44.99349" lon="6.4581">
        <ele>2199.3</ele>
        <time>2022-01-14T11:11:13Z</time>
      </trkpt>
      <trkpt lat="44.99349" lon="6.45809">
        <ele>2199.3</ele>
        <time>2022-01-14T11:11:14Z</time>
      </trkpt>
      <trkpt lat="44.9935" lon="6.45809">
        <ele>2199.3</ele>
        <time>2022-01-14T11:11:15Z</time>
      </trkpt>
      <trkpt lat="44.9935" lon="6.45808">
        <ele>2199.3</ele>
        <time>2022-01-14T11:11:16Z</time>
      </trkpt>
      <trkpt lat="44.99349" lon="6.45808">
        <ele>2199.3</ele>
        <time>2022-01-14T11:11:17Z</time>
      </trkpt>
      <trkpt lat="44.99349" lon="6.45808">
        <ele>2199.3</ele>
        <time>2022-01-14T11:11:18Z</time>
      </trkpt>
      <trkpt lat="44.99349" lon="6.45808">
        <ele>2199.3</ele>
        <time>2022-01-14T11:11:19Z</time>
      </trkpt>
      <trkpt lat="44.99348" lon="6.45806">
        <ele>2206.5</ele>
        <time>2022-01-14T11:11:20Z</time>
      </trkpt>
      <trkpt lat="44.99348" lon="6.45805">
        <ele>2206.5</ele>
        <time>2022-01-14T11:11:21Z</time>
      </trkpt>
      <trkpt lat="44.99348" lon="6.45804">
        <ele>2206.5</ele>
        <time>2022-01-14T11:11:22Z</time>
      </trkpt>
      <trkpt lat="44.99346" lon="6.45802">
        <ele>2206.5</ele>
        <time>2022-01-14T11:11:23Z</time>
      </trkpt>
      <trkpt lat="44.99343" lon="6.458">
        <ele>2207.7</ele>
        <time>2022-01-14T11:11:24Z</time>
      </trkpt>
      <trkpt lat="44.9934" lon="6.45798">
        <ele>2207.7</ele>
        <time>2022-01-14T11:11:25Z</time>
      </trkpt>
      <trkpt lat="44.99337" lon="6.45796">
        <ele>2207.7</ele>
        <time>2022-01-14T11:11:26Z</time>
      </trkpt>
      <trkpt lat="44.99333" lon="6.45795">
        <ele>2208.7</ele>
        <time>2022-01-14T11:11:27Z</time>
      </trkpt>
      <trkpt lat="44.99332" lon="6.45795">
        <ele>2208.7</ele>
        <time>2022-01-14T11:11:28Z</time>
      </trkpt>
      <trkpt lat="44.99329" lon="6.45796">
        <ele>2208.7</ele>
        <time>2022-01-14T11:11:29Z</time>
      </trkpt>
      <trkpt lat="44.99326" lon="6.45799">
        <ele>2208.7</ele>
        <time>2022-01-14T11:11:30Z</time>
      </trkpt>
      <trkpt lat="44.99325" lon="6.458">
        <ele>2208.7</ele>
        <time>2022-01-14T11:11:31Z</time>
      </trkpt>
      <trkpt lat="44.99322" lon="6.45802">
        <ele>2208.7</ele>
        <time>2022-01-14T11:11:32Z</time>
      </trkpt>
      <trkpt lat="44.99321" lon="6.45802">
        <ele>2209.1</ele>
        <time>2022-01-14T11:11:33Z</time>
      </trkpt>
      <trkpt lat="44.99319" lon="6.45803">
        <ele>2209.1</ele>
        <time>2022-01-14T11:11:34Z</time>
      </trkpt>
      <trkpt lat="44.99318" lon="6.45802">
        <ele>2209.1</ele>
        <time>2022-01-14T11:11:35Z</time>
      </trkpt>
      <trkpt lat="44.99317" lon="6.45802">
        <ele>2209.1</ele>
        <time>2022-01-14T11:11:36Z</time>
      </trkpt>
      <trkpt lat="44.99316" lon="6.45802">
        <ele>2209.1</ele>
        <time>2022-01-14T11:11:37Z</time>
      </trkpt>
      <trkpt lat="44.99315" lon="6.45802">
        <ele>2209.1</ele>
        <time>2022-01-14T11:11:38Z</time>
      </trkpt>
      <trkpt lat="44.99314" lon="6.45802">
        <ele>2209.1</ele>
        <time>2022-01-14T11:11:39Z</time>
      </trkpt>
      <trkpt lat="44.99313" lon="6.45803">
        <ele>2209.1</ele>
        <time>2022-01-14T11:11:40Z</time>
      </trkpt>
      <trkpt lat="44.99313" lon="6.45804">
        <ele>2209.1</ele>
        <time>2022-01-14T11:11:41Z</time>
      </trkpt>
      <trkpt lat="44.99313" lon="6.45804">
        <ele>2209.1</ele>
        <time>2022-01-14T11:11:42Z</time>
      </trkpt>
      <trkpt lat="44.99312" lon="6.45804">
        <ele>2209.1</ele>
        <time>2022-01-14T11:11:43Z</time>
      </trkpt>
      <trkpt lat="44.99312" lon="6.45804">
        <ele>2209.1</ele>
        <time>2022-01-14T11:11:44Z</time>
      </trkpt>
      <trkpt lat="44.99311" lon="6.45805">
        <ele>2209.1</ele>
        <time>2022-01-14T11:11:45Z</time>
      </trkpt>
      <trkpt lat="44.99311" lon="6.45805">
        <ele>2209.1</ele>
        <time>2022-01-14T11:11:46Z</time>
      </trkpt>
      <trkpt lat="44.99311" lon="6.45807">
        <ele>2209.1</ele>
        <time>2022-01-14T11:11:47Z</time>
      </trkpt>
      <trkpt lat="44.99311" lon="6.45809">
        <ele>2200.8</ele>
        <time>2022-01-14T11:11:48Z</time>
      </trkpt>
      <trkpt lat="44.99315" lon="6.45811">
        <ele>2200.8</ele>
        <time>2022-01-14T11:11:49Z</time>
      </trkpt>
      <trkpt lat="44.99317" lon="6.45812">
        <ele>2200.8</ele>
        <time>2022-01-14T11:11:50Z</time>
      </trkpt>
      <trkpt lat="44.99317" lon="6.45814">
        <ele>2200.8</ele>
        <time>2022-01-14T11:11:51Z</time>
      </trkpt>
      <trkpt lat="44.99317" lon="6.45816">
        <ele>2200.8</ele>
        <time>2022-01-14T11:11:52Z</time>
      </trkpt>
      <trkpt lat="44.99318" lon="6.45816">
        <ele>2200.8</ele>
        <time>2022-01-14T11:11:53Z</time>
      </trkpt>
      <trkpt lat="44.99318" lon="6.45816">
        <ele>2200.8</ele>
        <time>2022-01-14T11:11:54Z</time>
      </trkpt>
      <trkpt lat="44.99318" lon="6.45817">
        <ele>2200.8</ele>
        <time>2022-01-14T11:11:55Z</time>
      </trkpt>
      <trkpt lat="44.99317" lon="6.45817">
        <ele>2200.8</ele>
        <time>2022-01-14T11:11:56Z</time>
      </trkpt>
      <trkpt lat="44.99317" lon="6.45818">
        <ele>2200.8</ele>
        <time>2022-01-14T11:11:57Z</time>
      </trkpt>
      <trkpt lat="44.99317" lon="6.45819">
        <ele>2200.8</ele>
        <time>2022-01-14T11:11:58Z</time>
      </trkpt>
      <trkpt lat="44.99318" lon="6.45821">
        <ele>2200.8</ele>
        <time>2022-01-14T11:11:59Z</time>
      </trkpt>
      <trkpt lat="44.99318" lon="6.45821">
        <ele>2200.8</ele>
        <time>2022-01-14T11:12:00Z</time>
      </trkpt>
      <trkpt lat="44.99318" lon="6.45822">
        <ele>2200.8</ele>
        <time>2022-01-14T11:12:01Z</time>
      </trkpt>
      <trkpt lat="44.99318" lon="6.45823">
        <ele>2200.8</ele>
        <time>2022-01-14T11:12:02Z</time>
      </trkpt>
      <trkpt lat="44.99318" lon="6.45825">
        <ele>2191.5</ele>
        <time>2022-01-14T11:12:03Z</time>
      </trkpt>
      <trkpt lat="44.99318" lon="6.45826">
        <ele>2191.5</ele>
        <time>2022-01-14T11:12:04Z</time>
      </trkpt>
      <trkpt lat="44.99318" lon="6.45827">
        <ele>2191.5</ele>
        <time>2022-01-14T11:12:05Z</time>
      </trkpt>
      <trkpt lat="44.99318" lon="6.45827">
        <ele>2191.5</ele>
        <time>2022-01-14T11:12:06Z</time>
      </trkpt>
      <trkpt lat="44.99318" lon="6.45828">
        <ele>2191.5</ele>
        <time>2022-01-14T11:12:07Z</time>
      </trkpt>
      <trkpt lat="44.99318" lon="6.45828">
        <ele>2191.5</ele>
        <time>2022-01-14T11:12:08Z</time>
      </trkpt>
      <trkpt lat="44.99319" lon="6.45828">
        <ele>2191.5</ele>
        <time>2022-01-14T11:12:09Z</time>
      </trkpt>
      <trkpt lat="44.99319" lon="6.45828">
        <ele>2191.5</ele>
        <time>2022-01-14T11:12:10Z</time>
      </trkpt>
      <trkpt lat="44.99319" lon="6.45829">
        <ele>2191.5</ele>
        <time>2022-01-14T11:12:11Z</time>
      </trkpt>
      <trkpt lat="44.99319" lon="6.45829">
        <ele>2191.5</ele>
        <time>2022-01-14T11:12:12Z</time>
      </trkpt>
      <trkpt lat="44.9932" lon="6.4583">
        <ele>2191.5</ele>
        <time>2022-01-14T11:12:13Z</time>
      </trkpt>
      <trkpt lat="44.9932" lon="6.4583">
        <ele>2191.5</ele>
        <time>2022-01-14T11:12:14Z</time>
      </trkpt>
      <trkpt lat="44.9932" lon="6.4583">
        <ele>2191.5</ele>
        <time>2022-01-14T11:12:15Z</time>
      </trkpt>
      <trkpt lat="44.9932" lon="6.4583">
        <ele>2191.5</ele>
        <time>2022-01-14T11:12:16Z</time>
      </trkpt>
      <trkpt lat="44.9932" lon="6.4583">
        <ele>2191.5</ele>
        <time>2022-01-14T11:12:17Z</time>
      </trkpt>
      <trkpt lat="44.99321" lon="6.4583">
        <ele>2191.5</ele>
        <time>2022-01-14T11:12:18Z</time>
      </trkpt>
      <trkpt lat="44.99322" lon="6.4583">
        <ele>2192</ele>
        <time>2022-01-14T11:12:19Z</time>
      </trkpt>
      <trkpt lat="44.99322" lon="6.4583">
        <ele>2192</ele>
        <time>2022-01-14T11:12:20Z</time>
      </trkpt>
      <trkpt lat="44.99321" lon="6.4583">
        <ele>2192</ele>
        <time>2022-01-14T11:12:21Z</time>
      </trkpt>
      <trkpt lat="44.99321" lon="6.4583">
        <ele>2192</ele>
        <time>2022-01-14T11:12:22Z</time>
      </trkpt>
      <trkpt lat="44.99322" lon="6.45832">
        <ele>2192</ele>
        <time>2022-01-14T11:12:23Z</time>
      </trkpt>
      <trkpt lat="44.99321" lon="6.45833">
        <ele>2192</ele>
        <time>2022-01-14T11:12:24Z</time>
      </trkpt>
      <trkpt lat="44.99321" lon="6.45833">
        <ele>2192</ele>
        <time>2022-01-14T11:12:25Z</time>
      </trkpt>
      <trkpt lat="44.99321" lon="6.45834">
        <ele>2191.5</ele>
        <time>2022-01-14T11:12:26Z</time>
      </trkpt>
      <trkpt lat="44.99321" lon="6.45834">
        <ele>2191.5</ele>
        <time>2022-01-14T11:12:27Z</time>
      </trkpt>
      <trkpt lat="44.99321" lon="6.45835">
        <ele>2191.5</ele>
        <time>2022-01-14T11:12:28Z</time>
      </trkpt>
      <trkpt lat="44.9932" lon="6.45836">
        <ele>2191.5</ele>
        <time>2022-01-14T11:12:29Z</time>
      </trkpt>
      <trkpt lat="44.9932" lon="6.45836">
        <ele>2191.5</ele>
        <time>2022-01-14T11:12:30Z</time>
      </trkpt>
      <trkpt lat="44.9932" lon="6.45837">
        <ele>2191.5</ele>
        <time>2022-01-14T11:12:31Z</time>
      </trkpt>
      <trkpt lat="44.9932" lon="6.45837">
        <ele>2191.5</ele>
        <time>2022-01-14T11:12:32Z</time>
      </trkpt>
      <trkpt lat="44.99319" lon="6.45838">
        <ele>2191.5</ele>
        <time>2022-01-14T11:12:33Z</time>
      </trkpt>
      <trkpt lat="44.99318" lon="6.45841">
        <ele>2191.5</ele>
        <time>2022-01-14T11:12:34Z</time>
      </trkpt>
      <trkpt lat="44.99315" lon="6.45844">
        <ele>2180.6</ele>
        <time>2022-01-14T11:12:35Z</time>
      </trkpt>
      <trkpt lat="44.99314" lon="6.45845">
        <ele>2180.6</ele>
        <time>2022-01-14T11:12:36Z</time>
      </trkpt>
      <trkpt lat="44.99311" lon="6.45847">
        <ele>2180.6</ele>
        <time>2022-01-14T11:12:37Z</time>
      </trkpt>
      <trkpt lat="44.99307" lon="6.45848">
        <ele>2179.7</ele>
        <time>2022-01-14T11:12:38Z</time>
      </trkpt>
      <trkpt lat="44.99304" lon="6.45849">
        <ele>2179.7</ele>
        <time>2022-01-14T11:12:39Z</time>
      </trkpt>
      <trkpt lat="44.993" lon="6.45851">
        <ele>2179.7</ele>
        <time>2022-01-14T11:12:40Z</time>
      </trkpt>
      <trkpt lat="44.99297" lon="6.45851">
        <ele>2179.7</ele>
        <time>2022-01-14T11:12:41Z</time>
      </trkpt>
      <trkpt lat="44.99295" lon="6.45852">
        <ele>2178.7</ele>
        <time>2022-01-14T11:12:42Z</time>
      </trkpt>
      <trkpt lat="44.9929" lon="6.45855">
        <ele>2178.7</ele>
        <time>2022-01-14T11:12:44Z</time>
      </trkpt>
      <trkpt lat="44.99286" lon="6.45855">
        <ele>2178.7</ele>
        <time>2022-01-14T11:12:45Z</time>
      </trkpt>
      <trkpt lat="44.99285" lon="6.45855">
        <ele>2178.7</ele>
        <time>2022-01-14T11:12:46Z</time>
      </trkpt>
      <trkpt lat="44.99283" lon="6.45855">
        <ele>2178</ele>
        <time>2022-01-14T11:12:47Z</time>
      </trkpt>
      <trkpt lat="44.99282" lon="6.45855">
        <ele>2178</ele>
        <time>2022-01-14T11:12:49Z</time>
      </trkpt>
      <trkpt lat="44.9928" lon="6.45855">
        <ele>2178</ele>
        <time>2022-01-14T11:12:50Z</time>
      </trkpt>
      <trkpt lat="44.99279" lon="6.45854">
        <ele>2178</ele>
        <time>2022-01-14T11:12:51Z</time>
      </trkpt>
      <trkpt lat="44.99278" lon="6.45854">
        <ele>2178</ele>
        <time>2022-01-14T11:12:52Z</time>
      </trkpt>
      <trkpt lat="44.99277" lon="6.45855">
        <ele>2178</ele>
        <time>2022-01-14T11:12:53Z</time>
      </trkpt>
      <trkpt lat="44.99277" lon="6.45856">
        <ele>2178</ele>
        <time>2022-01-14T11:12:54Z</time>
      </trkpt>
      <trkpt lat="44.99277" lon="6.45858">
        <ele>2178</ele>
        <time>2022-01-14T11:12:55Z</time>
      </trkpt>
      <trkpt lat="44.99278" lon="6.45859">
        <ele>2165.8</ele>
        <time>2022-01-14T11:12:56Z</time>
      </trkpt>
      <trkpt lat="44.99279" lon="6.45859">
        <ele>2178</ele>
        <time>2022-01-14T11:12:57Z</time>
      </trkpt>
      <trkpt lat="44.99279" lon="6.45858">
        <ele>2178</ele>
        <time>2022-01-14T11:12:58Z</time>
      </trkpt>
      <trkpt lat="44.99279" lon="6.45858">
        <ele>2178</ele>
        <time>2022-01-14T11:12:59Z</time>
      </trkpt>
      <trkpt lat="44.9928" lon="6.45858">
        <ele>2178</ele>
        <time>2022-01-14T11:13:00Z</time>
      </trkpt>
      <trkpt lat="44.99281" lon="6.45858">
        <ele>2178</ele>
        <time>2022-01-14T11:13:01Z</time>
      </trkpt>
      <trkpt lat="44.99281" lon="6.45856">
        <ele>2178</ele>
        <time>2022-01-14T11:13:02Z</time>
      </trkpt>
      <trkpt lat="44.99282" lon="6.45857">
        <ele>2178</ele>
        <time>2022-01-14T11:13:03Z</time>
      </trkpt>
      <trkpt lat="44.99282" lon="6.45856">
        <ele>2178</ele>
        <time>2022-01-14T11:13:04Z</time>
      </trkpt>
      <trkpt lat="44.99282" lon="6.45856">
        <ele>2178</ele>
        <time>2022-01-14T11:13:05Z</time>
      </trkpt>
      <trkpt lat="44.99282" lon="6.45856">
        <ele>2178</ele>
        <time>2022-01-14T11:13:06Z</time>
      </trkpt>
      <trkpt lat="44.99282" lon="6.45858">
        <ele>2178</ele>
        <time>2022-01-14T11:13:07Z</time>
      </trkpt>
      <trkpt lat="44.99282" lon="6.45859">
        <ele>2165.8</ele>
        <time>2022-01-14T11:13:08Z</time>
      </trkpt>
      <trkpt lat="44.99281" lon="6.4586">
        <ele>2165.8</ele>
        <time>2022-01-14T11:13:09Z</time>
      </trkpt>
      <trkpt lat="44.99281" lon="6.45859">
        <ele>2165.8</ele>
        <time>2022-01-14T11:13:10Z</time>
      </trkpt>
      <trkpt lat="44.99282" lon="6.45861">
        <ele>2165.8</ele>
        <time>2022-01-14T11:13:11Z</time>
      </trkpt>
      <trkpt lat="44.99286" lon="6.45863">
        <ele>2166.5</ele>
        <time>2022-01-14T11:13:12Z</time>
      </trkpt>
      <trkpt lat="44.99287" lon="6.45863">
        <ele>2166.5</ele>
        <time>2022-01-14T11:13:13Z</time>
      </trkpt>
      <trkpt lat="44.99289" lon="6.45862">
        <ele>2166.5</ele>
        <time>2022-01-14T11:13:14Z</time>
      </trkpt>
      <trkpt lat="44.99291" lon="6.45862">
        <ele>2166.5</ele>
        <time>2022-01-14T11:13:15Z</time>
      </trkpt>
      <trkpt lat="44.99291" lon="6.45862">
        <ele>2166.5</ele>
        <time>2022-01-14T11:13:16Z</time>
      </trkpt>
      <trkpt lat="44.99291" lon="6.45861">
        <ele>2166.5</ele>
        <time>2022-01-14T11:13:17Z</time>
      </trkpt>
      <trkpt lat="44.99291" lon="6.45861">
        <ele>2166.5</ele>
        <time>2022-01-14T11:13:18Z</time>
      </trkpt>
      <trkpt lat="44.99291" lon="6.45861">
        <ele>2166.5</ele>
        <time>2022-01-14T11:13:19Z</time>
      </trkpt>
      <trkpt lat="44.99291" lon="6.45862">
        <ele>2166.5</ele>
        <time>2022-01-14T11:13:20Z</time>
      </trkpt>
      <trkpt lat="44.99293" lon="6.45862">
        <ele>2166.5</ele>
        <time>2022-01-14T11:13:21Z</time>
      </trkpt>
      <trkpt lat="44.99293" lon="6.45862">
        <ele>2166.5</ele>
        <time>2022-01-14T11:13:22Z</time>
      </trkpt>
      <trkpt lat="44.99293" lon="6.45862">
        <ele>2166.5</ele>
        <time>2022-01-14T11:13:23Z</time>
      </trkpt>
      <trkpt lat="44.99293" lon="6.45864">
        <ele>2166.5</ele>
        <time>2022-01-14T11:13:24Z</time>
      </trkpt>
      <trkpt lat="44.99291" lon="6.45866">
        <ele>2166.5</ele>
        <time>2022-01-14T11:13:25Z</time>
      </trkpt>
      <trkpt lat="44.99289" lon="6.4587">
        <ele>2166.5</ele>
        <time>2022-01-14T11:13:26Z</time>
      </trkpt>
      <trkpt lat="44.99288" lon="6.45871">
        <ele>2166.5</ele>
        <time>2022-01-14T11:13:27Z</time>
      </trkpt>
      <trkpt lat="44.99287" lon="6.45873">
        <ele>2166.5</ele>
        <time>2022-01-14T11:13:28Z</time>
      </trkpt>
      <trkpt lat="44.99286" lon="6.45874">
        <ele>2166.5</ele>
        <time>2022-01-14T11:13:29Z</time>
      </trkpt>
      <trkpt lat="44.99283" lon="6.45875">
        <ele>2165.8</ele>
        <time>2022-01-14T11:13:30Z</time>
      </trkpt>
      <trkpt lat="44.99282" lon="6.45876">
        <ele>2165.8</ele>
        <time>2022-01-14T11:13:31Z</time>
      </trkpt>
      <trkpt lat="44.9928" lon="6.45877">
        <ele>2155.1</ele>
        <time>2022-01-14T11:13:32Z</time>
      </trkpt>
      <trkpt lat="44.99279" lon="6.45878">
        <ele>2155.1</ele>
        <time>2022-01-14T11:13:33Z</time>
      </trkpt>
      <trkpt lat="44.99278" lon="6.45879">
        <ele>2155.1</ele>
        <time>2022-01-14T11:13:34Z</time>
      </trkpt>
      <trkpt lat="44.99279" lon="6.45881">
        <ele>2155.1</ele>
        <time>2022-01-14T11:13:35Z</time>
      </trkpt>
      <trkpt lat="44.99279" lon="6.45881">
        <ele>2155.1</ele>
        <time>2022-01-14T11:13:36Z</time>
      </trkpt>
      <trkpt lat="44.99279" lon="6.45881">
        <ele>2155.1</ele>
        <time>2022-01-14T11:13:37Z</time>
      </trkpt>
      <trkpt lat="44.9928" lon="6.45881">
        <ele>2155.1</ele>
        <time>2022-01-14T11:13:38Z</time>
      </trkpt>
      <trkpt lat="44.9928" lon="6.45882">
        <ele>2155.1</ele>
        <time>2022-01-14T11:13:39Z</time>
      </trkpt>
      <trkpt lat="44.99281" lon="6.45883">
        <ele>2155.1</ele>
        <time>2022-01-14T11:13:40Z</time>
      </trkpt>
      <trkpt lat="44.99282" lon="6.45883">
        <ele>2155.1</ele>
        <time>2022-01-14T11:13:41Z</time>
      </trkpt>
      <trkpt lat="44.99282" lon="6.45883">
        <ele>2155.1</ele>
        <time>2022-01-14T11:13:42Z</time>
      </trkpt>
      <trkpt lat="44.99282" lon="6.45884">
        <ele>2155.1</ele>
        <time>2022-01-14T11:13:43Z</time>
      </trkpt>
      <trkpt lat="44.99282" lon="6.45884">
        <ele>2155.1</ele>
        <time>2022-01-14T11:13:44Z</time>
      </trkpt>
      <trkpt lat="44.99281" lon="6.45884">
        <ele>2155.1</ele>
        <time>2022-01-14T11:13:45Z</time>
      </trkpt>
      <trkpt lat="44.99281" lon="6.45884">
        <ele>2155.1</ele>
        <time>2022-01-14T11:13:46Z</time>
      </trkpt>
      <trkpt lat="44.9928" lon="6.45884">
        <ele>2155.1</ele>
        <time>2022-01-14T11:13:47Z</time>
      </trkpt>
      <trkpt lat="44.99279" lon="6.45886">
        <ele>2155.1</ele>
        <time>2022-01-14T11:13:48Z</time>
      </trkpt>
      <trkpt lat="44.99278" lon="6.45886">
        <ele>2155.1</ele>
        <time>2022-01-14T11:13:49Z</time>
      </trkpt>
      <trkpt lat="44.99278" lon="6.45887">
        <ele>2155.1</ele>
        <time>2022-01-14T11:13:50Z</time>
      </trkpt>
      <trkpt lat="44.99277" lon="6.45887">
        <ele>2155.1</ele>
        <time>2022-01-14T11:13:51Z</time>
      </trkpt>
      <trkpt lat="44.99278" lon="6.45887">
        <ele>2155.1</ele>
        <time>2022-01-14T11:13:52Z</time>
      </trkpt>
      <trkpt lat="44.99278" lon="6.45888">
        <ele>2155.1</ele>
        <time>2022-01-14T11:13:53Z</time>
      </trkpt>
      <trkpt lat="44.99278" lon="6.45889">
        <ele>2155.1</ele>
        <time>2022-01-14T11:13:54Z</time>
      </trkpt>
      <trkpt lat="44.99278" lon="6.4589">
        <ele>2155.1</ele>
        <time>2022-01-14T11:13:55Z</time>
      </trkpt>
      <trkpt lat="44.99278" lon="6.45892">
        <ele>2155.1</ele>
        <time>2022-01-14T11:13:56Z</time>
      </trkpt>
      <trkpt lat="44.9928" lon="6.45893">
        <ele>2155.1</ele>
        <time>2022-01-14T11:13:57Z</time>
      </trkpt>
      <trkpt lat="44.99281" lon="6.45892">
        <ele>2155.1</ele>
        <time>2022-01-14T11:13:58Z</time>
      </trkpt>
      <trkpt lat="44.99282" lon="6.45892">
        <ele>2155.1</ele>
        <time>2022-01-14T11:13:59Z</time>
      </trkpt>
      <trkpt lat="44.99283" lon="6.45892">
        <ele>2155.1</ele>
        <time>2022-01-14T11:14:00Z</time>
      </trkpt>
      <trkpt lat="44.99284" lon="6.45893">
        <ele>2155.1</ele>
        <time>2022-01-14T11:14:01Z</time>
      </trkpt>
      <trkpt lat="44.99285" lon="6.45893">
        <ele>2144.2</ele>
        <time>2022-01-14T11:14:02Z</time>
      </trkpt>
      <trkpt lat="44.99285" lon="6.45893">
        <ele>2144.2</ele>
        <time>2022-01-14T11:14:03Z</time>
      </trkpt>
      <trkpt lat="44.99285" lon="6.45893">
        <ele>2144.2</ele>
        <time>2022-01-14T11:14:04Z</time>
      </trkpt>
      <trkpt lat="44.99286" lon="6.45894">
        <ele>2144.4</ele>
        <time>2022-01-14T11:14:05Z</time>
      </trkpt>
      <trkpt lat="44.99286" lon="6.45894">
        <ele>2144.4</ele>
        <time>2022-01-14T11:14:06Z</time>
      </trkpt>
      <trkpt lat="44.99285" lon="6.45896">
        <ele>2144.4</ele>
        <time>2022-01-14T11:14:07Z</time>
      </trkpt>
      <trkpt lat="44.99284" lon="6.45897">
        <ele>2144.2</ele>
        <time>2022-01-14T11:14:08Z</time>
      </trkpt>
      <trkpt lat="44.99284" lon="6.45899">
        <ele>2144.2</ele>
        <time>2022-01-14T11:14:09Z</time>
      </trkpt>
      <trkpt lat="44.99283" lon="6.459">
        <ele>2144.2</ele>
        <time>2022-01-14T11:14:10Z</time>
      </trkpt>
      <trkpt lat="44.99284" lon="6.45901">
        <ele>2144.2</ele>
        <time>2022-01-14T11:14:11Z</time>
      </trkpt>
      <trkpt lat="44.99284" lon="6.45903">
        <ele>2144.2</ele>
        <time>2022-01-14T11:14:12Z</time>
      </trkpt>
      <trkpt lat="44.99284" lon="6.45904">
        <ele>2144.2</ele>
        <time>2022-01-14T11:14:13Z</time>
      </trkpt>
      <trkpt lat="44.99285" lon="6.45907">
        <ele>2144.4</ele>
        <time>2022-01-14T11:14:14Z</time>
      </trkpt>
      <trkpt lat="44.99286" lon="6.45907">
        <ele>2144.4</ele>
        <time>2022-01-14T11:14:15Z</time>
      </trkpt>
      <trkpt lat="44.99288" lon="6.45909">
        <ele>2144.4</ele>
        <time>2022-01-14T11:14:16Z</time>
      </trkpt>
      <trkpt lat="44.99289" lon="6.45909">
        <ele>2144.4</ele>
        <time>2022-01-14T11:14:17Z</time>
      </trkpt>
      <trkpt lat="44.9929" lon="6.45909">
        <ele>2144.4</ele>
        <time>2022-01-14T11:14:18Z</time>
      </trkpt>
      <trkpt lat="44.99291" lon="6.45909">
        <ele>2144.4</ele>
        <time>2022-01-14T11:14:19Z</time>
      </trkpt>
      <trkpt lat="44.99291" lon="6.45909">
        <ele>2144.4</ele>
        <time>2022-01-14T11:14:20Z</time>
      </trkpt>
      <trkpt lat="44.99291" lon="6.45909">
        <ele>2144.4</ele>
        <time>2022-01-14T11:14:21Z</time>
      </trkpt>
      <trkpt lat="44.99292" lon="6.45911">
        <ele>2134.3</ele>
        <time>2022-01-14T11:14:22Z</time>
      </trkpt>
      <trkpt lat="44.99293" lon="6.45912">
        <ele>2134.3</ele>
        <time>2022-01-14T11:14:23Z</time>
      </trkpt>
      <trkpt lat="44.99294" lon="6.45913">
        <ele>2134.3</ele>
        <time>2022-01-14T11:14:24Z</time>
      </trkpt>
      <trkpt lat="44.99295" lon="6.45914">
        <ele>2134.3</ele>
        <time>2022-01-14T11:14:25Z</time>
      </trkpt>
      <trkpt lat="44.99299" lon="6.45915">
        <ele>2134.9</ele>
        <time>2022-01-14T11:14:26Z</time>
      </trkpt>
      <trkpt lat="44.99301" lon="6.45916">
        <ele>2134.9</ele>
        <time>2022-01-14T11:14:27Z</time>
      </trkpt>
      <trkpt lat="44.99304" lon="6.45916">
        <ele>2134.9</ele>
        <time>2022-01-14T11:14:28Z</time>
      </trkpt>
      <trkpt lat="44.99307" lon="6.45917">
        <ele>2134.9</ele>
        <time>2022-01-14T11:14:29Z</time>
      </trkpt>
      <trkpt lat="44.99308" lon="6.45918">
        <ele>2134.9</ele>
        <time>2022-01-14T11:14:30Z</time>
      </trkpt>
      <trkpt lat="44.99309" lon="6.45919">
        <ele>2136.1</ele>
        <time>2022-01-14T11:14:31Z</time>
      </trkpt>
      <trkpt lat="44.99311" lon="6.45918">
        <ele>2136.1</ele>
        <time>2022-01-14T11:14:32Z</time>
      </trkpt>
      <trkpt lat="44.99312" lon="6.45917">
        <ele>2136.1</ele>
        <time>2022-01-14T11:14:33Z</time>
      </trkpt>
      <trkpt lat="44.99311" lon="6.45916">
        <ele>2136.1</ele>
        <time>2022-01-14T11:14:34Z</time>
      </trkpt>
      <trkpt lat="44.99311" lon="6.45917">
        <ele>2136.1</ele>
        <time>2022-01-14T11:14:35Z</time>
      </trkpt>
      <trkpt lat="44.99312" lon="6.45918">
        <ele>2136.1</ele>
        <time>2022-01-14T11:14:36Z</time>
      </trkpt>
      <trkpt lat="44.99313" lon="6.45918">
        <ele>2136.1</ele>
        <time>2022-01-14T11:14:37Z</time>
      </trkpt>
      <trkpt lat="44.99313" lon="6.45918">
        <ele>2136.1</ele>
        <time>2022-01-14T11:14:38Z</time>
      </trkpt>
      <trkpt lat="44.99314" lon="6.45919">
        <ele>2136.1</ele>
        <time>2022-01-14T11:14:39Z</time>
      </trkpt>
      <trkpt lat="44.99314" lon="6.4592">
        <ele>2136.1</ele>
        <time>2022-01-14T11:14:40Z</time>
      </trkpt>
      <trkpt lat="44.99314" lon="6.4592">
        <ele>2136.1</ele>
        <time>2022-01-14T11:14:41Z</time>
      </trkpt>
      <trkpt lat="44.99314" lon="6.45922">
        <ele>2136.1</ele>
        <time>2022-01-14T11:14:42Z</time>
      </trkpt>
      <trkpt lat="44.99313" lon="6.45922">
        <ele>2136.1</ele>
        <time>2022-01-14T11:14:43Z</time>
      </trkpt>
      <trkpt lat="44.99312" lon="6.45923">
        <ele>2136.1</ele>
        <time>2022-01-14T11:14:44Z</time>
      </trkpt>
      <trkpt lat="44.99311" lon="6.45923">
        <ele>2136.1</ele>
        <time>2022-01-14T11:14:45Z</time>
      </trkpt>
      <trkpt lat="44.9931" lon="6.45922">
        <ele>2136.1</ele>
        <time>2022-01-14T11:14:46Z</time>
      </trkpt>
      <trkpt lat="44.9931" lon="6.45923">
        <ele>2136.1</ele>
        <time>2022-01-14T11:14:47Z</time>
      </trkpt>
      <trkpt lat="44.9931" lon="6.45925">
        <ele>2136.1</ele>
        <time>2022-01-14T11:14:48Z</time>
      </trkpt>
      <trkpt lat="44.99309" lon="6.45926">
        <ele>2134.9</ele>
        <time>2022-01-14T11:14:49Z</time>
      </trkpt>
      <trkpt lat="44.99307" lon="6.45928">
        <ele>2126</ele>
        <time>2022-01-14T11:14:50Z</time>
      </trkpt>
      <trkpt lat="44.99307" lon="6.45929">
        <ele>2126</ele>
        <time>2022-01-14T11:14:51Z</time>
      </trkpt>
      <trkpt lat="44.99306" lon="6.4593">
        <ele>2126</ele>
        <time>2022-01-14T11:14:52Z</time>
      </trkpt>
      <trkpt lat="44.99305" lon="6.45931">
        <ele>2126</ele>
        <time>2022-01-14T11:14:53Z</time>
      </trkpt>
      <trkpt lat="44.99304" lon="6.45931">
        <ele>2126</ele>
        <time>2022-01-14T11:14:54Z</time>
      </trkpt>
      <trkpt lat="44.99302" lon="6.45932">
        <ele>2126</ele>
        <time>2022-01-14T11:14:55Z</time>
      </trkpt>
      <trkpt lat="44.993" lon="6.45931">
        <ele>2126</ele>
        <time>2022-01-14T11:14:56Z</time>
      </trkpt>
      <trkpt lat="44.99299" lon="6.45933">
        <ele>2126</ele>
        <time>2022-01-14T11:14:57Z</time>
      </trkpt>
      <trkpt lat="44.993" lon="6.45934">
        <ele>2126</ele>
        <time>2022-01-14T11:14:58Z</time>
      </trkpt>
      <trkpt lat="44.99302" lon="6.45935">
        <ele>2126</ele>
        <time>2022-01-14T11:14:59Z</time>
      </trkpt>
      <trkpt lat="44.99303" lon="6.45937">
        <ele>2126</ele>
        <time>2022-01-14T11:15:00Z</time>
      </trkpt>
      <trkpt lat="44.99304" lon="6.4594">
        <ele>2126</ele>
        <time>2022-01-14T11:15:01Z</time>
      </trkpt>
      <trkpt lat="44.99304" lon="6.4594">
        <ele>2126</ele>
        <time>2022-01-14T11:15:02Z</time>
      </trkpt>
      <trkpt lat="44.99304" lon="6.4594">
        <ele>2126</ele>
        <time>2022-01-14T11:15:03Z</time>
      </trkpt>
      <trkpt lat="44.99304" lon="6.45941">
        <ele>2126</ele>
        <time>2022-01-14T11:15:04Z</time>
      </trkpt>
      <trkpt lat="44.99304" lon="6.45942">
        <ele>2126</ele>
        <time>2022-01-14T11:15:05Z</time>
      </trkpt>
      <trkpt lat="44.99304" lon="6.45942">
        <ele>2126</ele>
        <time>2022-01-14T11:15:06Z</time>
      </trkpt>
      <trkpt lat="44.99304" lon="6.45943">
        <ele>2126</ele>
        <time>2022-01-14T11:15:07Z</time>
      </trkpt>
      <trkpt lat="44.99303" lon="6.45944">
        <ele>2126</ele>
        <time>2022-01-14T11:15:08Z</time>
      </trkpt>
      <trkpt lat="44.99301" lon="6.45946">
        <ele>2116.4</ele>
        <time>2022-01-14T11:15:09Z</time>
      </trkpt>
      <trkpt lat="44.993" lon="6.45947">
        <ele>2116.4</ele>
        <time>2022-01-14T11:15:10Z</time>
      </trkpt>
      <trkpt lat="44.99298" lon="6.45948">
        <ele>2116.4</ele>
        <time>2022-01-14T11:15:11Z</time>
      </trkpt>
      <trkpt lat="44.99297" lon="6.45949">
        <ele>2115.4</ele>
        <time>2022-01-14T11:15:12Z</time>
      </trkpt>
      <trkpt lat="44.99295" lon="6.45954">
        <ele>2115.4</ele>
        <time>2022-01-14T11:15:13Z</time>
      </trkpt>
      <trkpt lat="44.99296" lon="6.45956">
        <ele>2115.4</ele>
        <time>2022-01-14T11:15:14Z</time>
      </trkpt>
      <trkpt lat="44.99296" lon="6.45956">
        <ele>2115.4</ele>
        <time>2022-01-14T11:15:15Z</time>
      </trkpt>
      <trkpt lat="44.99296" lon="6.45955">
        <ele>2115.4</ele>
        <time>2022-01-14T11:15:16Z</time>
      </trkpt>
      <trkpt lat="44.99296" lon="6.45956">
        <ele>2115.4</ele>
        <time>2022-01-14T11:15:17Z</time>
      </trkpt>
      <trkpt lat="44.99296" lon="6.45958">
        <ele>2115.4</ele>
        <time>2022-01-14T11:15:18Z</time>
      </trkpt>
      <trkpt lat="44.99295" lon="6.45962">
        <ele>2107.1</ele>
        <time>2022-01-14T11:15:19Z</time>
      </trkpt>
      <trkpt lat="44.99294" lon="6.45963">
        <ele>2107.1</ele>
        <time>2022-01-14T11:15:20Z</time>
      </trkpt>
      <trkpt lat="44.99294" lon="6.45963">
        <ele>2107.1</ele>
        <time>2022-01-14T11:15:21Z</time>
      </trkpt>
      <trkpt lat="44.99294" lon="6.45963">
        <ele>2107.1</ele>
        <time>2022-01-14T11:15:22Z</time>
      </trkpt>
      <trkpt lat="44.99294" lon="6.45962">
        <ele>2107.1</ele>
        <time>2022-01-14T11:15:23Z</time>
      </trkpt>
      <trkpt lat="44.99293" lon="6.45963">
        <ele>2107.1</ele>
        <time>2022-01-14T11:15:24Z</time>
      </trkpt>
      <trkpt lat="44.99293" lon="6.45962">
        <ele>2107.1</ele>
        <time>2022-01-14T11:15:25Z</time>
      </trkpt>
      <trkpt lat="44.99293" lon="6.45962">
        <ele>2107.1</ele>
        <time>2022-01-14T11:15:26Z</time>
      </trkpt>
      <trkpt lat="44.99293" lon="6.45963">
        <ele>2107.1</ele>
        <time>2022-01-14T11:15:27Z</time>
      </trkpt>
      <trkpt lat="44.99294" lon="6.45964">
        <ele>2107.1</ele>
        <time>2022-01-14T11:15:28Z</time>
      </trkpt>
      <trkpt lat="44.99295" lon="6.45965">
        <ele>2107.1</ele>
        <time>2022-01-14T11:15:29Z</time>
      </trkpt>
      <trkpt lat="44.99296" lon="6.45965">
        <ele>2107.1</ele>
        <time>2022-01-14T11:15:30Z</time>
      </trkpt>
      <trkpt lat="44.99296" lon="6.45966">
        <ele>2107.1</ele>
        <time>2022-01-14T11:15:31Z</time>
      </trkpt>
      <trkpt lat="44.99297" lon="6.45967">
        <ele>2107.1</ele>
        <time>2022-01-14T11:15:32Z</time>
      </trkpt>
      <trkpt lat="44.99297" lon="6.45968">
        <ele>2107.1</ele>
        <time>2022-01-14T11:15:33Z</time>
      </trkpt>
      <trkpt lat="44.99297" lon="6.45969">
        <ele>2107.1</ele>
        <time>2022-01-14T11:15:34Z</time>
      </trkpt>
      <trkpt lat="44.99297" lon="6.4597">
        <ele>2108.1</ele>
        <time>2022-01-14T11:15:35Z</time>
      </trkpt>
      <trkpt lat="44.99297" lon="6.45971">
        <ele>2108.1</ele>
        <time>2022-01-14T11:15:36Z</time>
      </trkpt>
      <trkpt lat="44.99298" lon="6.45973">
        <ele>2108.1</ele>
        <time>2022-01-14T11:15:37Z</time>
      </trkpt>
      <trkpt lat="44.99298" lon="6.45974">
        <ele>2108.1</ele>
        <time>2022-01-14T11:15:38Z</time>
      </trkpt>
      <trkpt lat="44.99299" lon="6.45975">
        <ele>2108.1</ele>
        <time>2022-01-14T11:15:39Z</time>
      </trkpt>
      <trkpt lat="44.99299" lon="6.45976">
        <ele>2108.1</ele>
        <time>2022-01-14T11:15:40Z</time>
      </trkpt>
      <trkpt lat="44.99302" lon="6.45979">
        <ele>2100</ele>
        <time>2022-01-14T11:15:41Z</time>
      </trkpt>
      <trkpt lat="44.99302" lon="6.4598">
        <ele>2100</ele>
        <time>2022-01-14T11:15:42Z</time>
      </trkpt>
      <trkpt lat="44.99303" lon="6.45983">
        <ele>2100</ele>
        <time>2022-01-14T11:15:43Z</time>
      </trkpt>
      <trkpt lat="44.99303" lon="6.45983">
        <ele>2100</ele>
        <time>2022-01-14T11:15:44Z</time>
      </trkpt>
      <trkpt lat="44.99303" lon="6.45984">
        <ele>2100</ele>
        <time>2022-01-14T11:15:45Z</time>
      </trkpt>
      <trkpt lat="44.99303" lon="6.45985">
        <ele>2100</ele>
        <time>2022-01-14T11:15:46Z</time>
      </trkpt>
      <trkpt lat="44.99303" lon="6.45985">
        <ele>2100</ele>
        <time>2022-01-14T11:15:47Z</time>
      </trkpt>
      <trkpt lat="44.99303" lon="6.45987">
        <ele>2100</ele>
        <time>2022-01-14T11:15:48Z</time>
      </trkpt>
      <trkpt lat="44.99303" lon="6.45987">
        <ele>2100</ele>
        <time>2022-01-14T11:15:49Z</time>
      </trkpt>
      <trkpt lat="44.99303" lon="6.45988">
        <ele>2100</ele>
        <time>2022-01-14T11:15:50Z</time>
      </trkpt>
      <trkpt lat="44.99303" lon="6.45989">
        <ele>2100</ele>
        <time>2022-01-14T11:15:51Z</time>
      </trkpt>
      <trkpt lat="44.99303" lon="6.45989">
        <ele>2100</ele>
        <time>2022-01-14T11:15:52Z</time>
      </trkpt>
      <trkpt lat="44.99303" lon="6.4599">
        <ele>2100</ele>
        <time>2022-01-14T11:15:53Z</time>
      </trkpt>
      <trkpt lat="44.99303" lon="6.45991">
        <ele>2100</ele>
        <time>2022-01-14T11:15:54Z</time>
      </trkpt>
      <trkpt lat="44.99303" lon="6.45991">
        <ele>2100</ele>
        <time>2022-01-14T11:15:55Z</time>
      </trkpt>
      <trkpt lat="44.99303" lon="6.45992">
        <ele>2100</ele>
        <time>2022-01-14T11:15:56Z</time>
      </trkpt>
      <trkpt lat="44.99305" lon="6.45996">
        <ele>2092.4</ele>
        <time>2022-01-14T11:15:57Z</time>
      </trkpt>
      <trkpt lat="44.99305" lon="6.45997">
        <ele>2092.4</ele>
        <time>2022-01-14T11:15:58Z</time>
      </trkpt>
      <trkpt lat="44.99306" lon="6.45998">
        <ele>2092.4</ele>
        <time>2022-01-14T11:15:59Z</time>
      </trkpt>
      <trkpt lat="44.99307" lon="6.45998">
        <ele>2092.4</ele>
        <time>2022-01-14T11:16:00Z</time>
      </trkpt>
      <trkpt lat="44.99307" lon="6.45997">
        <ele>2092.4</ele>
        <time>2022-01-14T11:16:01Z</time>
      </trkpt>
      <trkpt lat="44.99307" lon="6.45997">
        <ele>2092.4</ele>
        <time>2022-01-14T11:16:02Z</time>
      </trkpt>
      <trkpt lat="44.99308" lon="6.45996">
        <ele>2100</ele>
        <time>2022-01-14T11:16:03Z</time>
      </trkpt>
      <trkpt lat="44.99307" lon="6.45997">
        <ele>2092.4</ele>
        <time>2022-01-14T11:16:04Z</time>
      </trkpt>
      <trkpt lat="44.99307" lon="6.45997">
        <ele>2092.4</ele>
        <time>2022-01-14T11:16:05Z</time>
      </trkpt>
      <trkpt lat="44.99307" lon="6.45997">
        <ele>2092.4</ele>
        <time>2022-01-14T11:16:06Z</time>
      </trkpt>
      <trkpt lat="44.99307" lon="6.45998">
        <ele>2092.4</ele>
        <time>2022-01-14T11:16:07Z</time>
      </trkpt>
      <trkpt lat="44.99307" lon="6.45998">
        <ele>2092.4</ele>
        <time>2022-01-14T11:16:08Z</time>
      </trkpt>
      <trkpt lat="44.99306" lon="6.45999">
        <ele>2092.4</ele>
        <time>2022-01-14T11:16:09Z</time>
      </trkpt>
      <trkpt lat="44.99306" lon="6.45999">
        <ele>2092.4</ele>
        <time>2022-01-14T11:16:10Z</time>
      </trkpt>
      <trkpt lat="44.99306" lon="6.45999">
        <ele>2092.4</ele>
        <time>2022-01-14T11:16:11Z</time>
      </trkpt>
      <trkpt lat="44.99306" lon="6.46">
        <ele>2092.4</ele>
        <time>2022-01-14T11:16:12Z</time>
      </trkpt>
      <trkpt lat="44.99305" lon="6.46">
        <ele>2092.4</ele>
        <time>2022-01-14T11:16:13Z</time>
      </trkpt>
      <trkpt lat="44.99305" lon="6.46">
        <ele>2092.4</ele>
        <time>2022-01-14T11:16:14Z</time>
      </trkpt>
      <trkpt lat="44.99304" lon="6.46002">
        <ele>2092.4</ele>
        <time>2022-01-14T11:16:15Z</time>
      </trkpt>
      <trkpt lat="44.99305" lon="6.46">
        <ele>2092.4</ele>
        <time>2022-01-14T11:16:16Z</time>
      </trkpt>
      <trkpt lat="44.99306" lon="6.46">
        <ele>2092.4</ele>
        <time>2022-01-14T11:16:17Z</time>
      </trkpt>
      <trkpt lat="44.99305" lon="6.46003">
        <ele>2092.4</ele>
        <time>2022-01-14T11:16:18Z</time>
      </trkpt>
      <trkpt lat="44.99305" lon="6.46005">
        <ele>2092.4</ele>
        <time>2022-01-14T11:16:19Z</time>
      </trkpt>
      <trkpt lat="44.99306" lon="6.4601">
        <ele>2092.4</ele>
        <time>2022-01-14T11:16:20Z</time>
      </trkpt>
      <trkpt lat="44.99305" lon="6.46012">
        <ele>2092.4</ele>
        <time>2022-01-14T11:16:21Z</time>
      </trkpt>
      <trkpt lat="44.99305" lon="6.46014">
        <ele>2086.1</ele>
        <time>2022-01-14T11:16:22Z</time>
      </trkpt>
      <trkpt lat="44.99303" lon="6.46014">
        <ele>2086.1</ele>
        <time>2022-01-14T11:16:23Z</time>
      </trkpt>
      <trkpt lat="44.993" lon="6.46015">
        <ele>2086.1</ele>
        <time>2022-01-14T11:16:24Z</time>
      </trkpt>
      <trkpt lat="44.99299" lon="6.46016">
        <ele>2086.1</ele>
        <time>2022-01-14T11:16:25Z</time>
      </trkpt>
      <trkpt lat="44.99296" lon="6.46018">
        <ele>2086.4</ele>
        <time>2022-01-14T11:16:26Z</time>
      </trkpt>
      <trkpt lat="44.99294" lon="6.46019">
        <ele>2086.4</ele>
        <time>2022-01-14T11:16:27Z</time>
      </trkpt>
      <trkpt lat="44.99292" lon="6.46021">
        <ele>2086.4</ele>
        <time>2022-01-14T11:16:28Z</time>
      </trkpt>
      <trkpt lat="44.99291" lon="6.46023">
        <ele>2086.4</ele>
        <time>2022-01-14T11:16:29Z</time>
      </trkpt>
      <trkpt lat="44.99292" lon="6.46023">
        <ele>2086.4</ele>
        <time>2022-01-14T11:16:30Z</time>
      </trkpt>
      <trkpt lat="44.9929" lon="6.46022">
        <ele>2086.4</ele>
        <time>2022-01-14T11:16:31Z</time>
      </trkpt>
      <trkpt lat="44.99289" lon="6.46022">
        <ele>2086.4</ele>
        <time>2022-01-14T11:16:32Z</time>
      </trkpt>
      <trkpt lat="44.9929" lon="6.46022">
        <ele>2086.4</ele>
        <time>2022-01-14T11:16:33Z</time>
      </trkpt>
      <trkpt lat="44.9929" lon="6.46023">
        <ele>2086.4</ele>
        <time>2022-01-14T11:16:34Z</time>
      </trkpt>
      <trkpt lat="44.9929" lon="6.46023">
        <ele>2086.4</ele>
        <time>2022-01-14T11:16:35Z</time>
      </trkpt>
      <trkpt lat="44.99291" lon="6.46025">
        <ele>2086.4</ele>
        <time>2022-01-14T11:16:36Z</time>
      </trkpt>
      <trkpt lat="44.99292" lon="6.46026">
        <ele>2086.4</ele>
        <time>2022-01-14T11:16:37Z</time>
      </trkpt>
      <trkpt lat="44.99293" lon="6.46025">
        <ele>2086.4</ele>
        <time>2022-01-14T11:16:38Z</time>
      </trkpt>
      <trkpt lat="44.99293" lon="6.46025">
        <ele>2086.4</ele>
        <time>2022-01-14T11:16:39Z</time>
      </trkpt>
      <trkpt lat="44.99293" lon="6.46025">
        <ele>2086.4</ele>
        <time>2022-01-14T11:16:40Z</time>
      </trkpt>
      <trkpt lat="44.99293" lon="6.46025">
        <ele>2086.4</ele>
        <time>2022-01-14T11:16:41Z</time>
      </trkpt>
      <trkpt lat="44.99293" lon="6.46025">
        <ele>2086.4</ele>
        <time>2022-01-14T11:16:42Z</time>
      </trkpt>
      <trkpt lat="44.99293" lon="6.46025">
        <ele>2086.4</ele>
        <time>2022-01-14T11:16:43Z</time>
      </trkpt>
      <trkpt lat="44.99293" lon="6.46025">
        <ele>2086.4</ele>
        <time>2022-01-14T11:16:44Z</time>
      </trkpt>
      <trkpt lat="44.99293" lon="6.46025">
        <ele>2086.4</ele>
        <time>2022-01-14T11:16:45Z</time>
      </trkpt>
      <trkpt lat="44.99293" lon="6.46024">
        <ele>2086.4</ele>
        <time>2022-01-14T11:16:46Z</time>
      </trkpt>
      <trkpt lat="44.99292" lon="6.46023">
        <ele>2086.4</ele>
        <time>2022-01-14T11:16:47Z</time>
      </trkpt>
      <trkpt lat="44.99292" lon="6.46023">
        <ele>2086.4</ele>
        <time>2022-01-14T11:16:48Z</time>
      </trkpt>
      <trkpt lat="44.99292" lon="6.46023">
        <ele>2086.4</ele>
        <time>2022-01-14T11:16:49Z</time>
      </trkpt>
      <trkpt lat="44.99292" lon="6.46022">
        <ele>2086.4</ele>
        <time>2022-01-14T11:16:50Z</time>
      </trkpt>
      <trkpt lat="44.99291" lon="6.46021">
        <ele>2086.4</ele>
        <time>2022-01-14T11:16:51Z</time>
      </trkpt>
      <trkpt lat="44.99291" lon="6.46021">
        <ele>2086.4</ele>
        <time>2022-01-14T11:16:52Z</time>
      </trkpt>
      <trkpt lat="44.9929" lon="6.46021">
        <ele>2086.4</ele>
        <time>2022-01-14T11:16:53Z</time>
      </trkpt>
      <trkpt lat="44.9929" lon="6.46021">
        <ele>2086.4</ele>
        <time>2022-01-14T11:16:54Z</time>
      </trkpt>
      <trkpt lat="44.99289" lon="6.4602">
        <ele>2086.4</ele>
        <time>2022-01-14T11:16:55Z</time>
      </trkpt>
      <trkpt lat="44.99289" lon="6.46019">
        <ele>2086.4</ele>
        <time>2022-01-14T11:16:56Z</time>
      </trkpt>
      <trkpt lat="44.99289" lon="6.46019">
        <ele>2086.4</ele>
        <time>2022-01-14T11:16:57Z</time>
      </trkpt>
      <trkpt lat="44.99289" lon="6.46018">
        <ele>2086.4</ele>
        <time>2022-01-14T11:16:58Z</time>
      </trkpt>
      <trkpt lat="44.99289" lon="6.46018">
        <ele>2086.4</ele>
        <time>2022-01-14T11:16:59Z</time>
      </trkpt>
      <trkpt lat="44.99289" lon="6.46016">
        <ele>2086.4</ele>
        <time>2022-01-14T11:17:00Z</time>
      </trkpt>
      <trkpt lat="44.99288" lon="6.46017">
        <ele>2086.4</ele>
        <time>2022-01-14T11:17:01Z</time>
      </trkpt>
      <trkpt lat="44.99289" lon="6.46015">
        <ele>2086.4</ele>
        <time>2022-01-14T11:17:02Z</time>
      </trkpt>
      <trkpt lat="44.99288" lon="6.46014">
        <ele>2086.4</ele>
        <time>2022-01-14T11:17:03Z</time>
      </trkpt>
      <trkpt lat="44.99288" lon="6.46014">
        <ele>2086.4</ele>
        <time>2022-01-14T11:17:04Z</time>
      </trkpt>
      <trkpt lat="44.99288" lon="6.46014">
        <ele>2086.4</ele>
        <time>2022-01-14T11:17:05Z</time>
      </trkpt>
      <trkpt lat="44.99289" lon="6.46014">
        <ele>2086.4</ele>
        <time>2022-01-14T11:17:06Z</time>
      </trkpt>
      <trkpt lat="44.9929" lon="6.46015">
        <ele>2086.4</ele>
        <time>2022-01-14T11:17:07Z</time>
      </trkpt>
      <trkpt lat="44.99291" lon="6.46016">
        <ele>2086.4</ele>
        <time>2022-01-14T11:17:08Z</time>
      </trkpt>
      <trkpt lat="44.99291" lon="6.46016">
        <ele>2086.4</ele>
        <time>2022-01-14T11:17:09Z</time>
      </trkpt>
      <trkpt lat="44.99292" lon="6.46015">
        <ele>2086.4</ele>
        <time>2022-01-14T11:17:10Z</time>
      </trkpt>
      <trkpt lat="44.99292" lon="6.46014">
        <ele>2086.4</ele>
        <time>2022-01-14T11:17:11Z</time>
      </trkpt>
      <trkpt lat="44.99292" lon="6.46014">
        <ele>2086.4</ele>
        <time>2022-01-14T11:17:12Z</time>
      </trkpt>
      <trkpt lat="44.99292" lon="6.46014">
        <ele>2086.4</ele>
        <time>2022-01-14T11:17:13Z</time>
      </trkpt>
      <trkpt lat="44.99293" lon="6.46014">
        <ele>2086.4</ele>
        <time>2022-01-14T11:17:14Z</time>
      </trkpt>
      <trkpt lat="44.99293" lon="6.46014">
        <ele>2086.4</ele>
        <time>2022-01-14T11:17:15Z</time>
      </trkpt>
      <trkpt lat="44.99293" lon="6.46014">
        <ele>2086.4</ele>
        <time>2022-01-14T11:17:16Z</time>
      </trkpt>
      <trkpt lat="44.99295" lon="6.46014">
        <ele>2086.4</ele>
        <time>2022-01-14T11:17:17Z</time>
      </trkpt>
      <trkpt lat="44.99295" lon="6.46013">
        <ele>2086.4</ele>
        <time>2022-01-14T11:17:18Z</time>
      </trkpt>
      <trkpt lat="44.99296" lon="6.46013">
        <ele>2092.1</ele>
        <time>2022-01-14T11:17:19Z</time>
      </trkpt>
      <trkpt lat="44.99296" lon="6.46013">
        <ele>2092.1</ele>
        <time>2022-01-14T11:17:20Z</time>
      </trkpt>
      <trkpt lat="44.99296" lon="6.46013">
        <ele>2092.1</ele>
        <time>2022-01-14T11:17:21Z</time>
      </trkpt>
      <trkpt lat="44.99296" lon="6.46013">
        <ele>2092.1</ele>
        <time>2022-01-14T11:17:22Z</time>
      </trkpt>
      <trkpt lat="44.99296" lon="6.46013">
        <ele>2092.1</ele>
        <time>2022-01-14T11:17:23Z</time>
      </trkpt>
      <trkpt lat="44.99296" lon="6.46013">
        <ele>2092.1</ele>
        <time>2022-01-14T11:17:24Z</time>
      </trkpt>
      <trkpt lat="44.99296" lon="6.46013">
        <ele>2092.1</ele>
        <time>2022-01-14T11:17:25Z</time>
      </trkpt>
      <trkpt lat="44.99296" lon="6.46013">
        <ele>2092.1</ele>
        <time>2022-01-14T11:17:26Z</time>
      </trkpt>
      <trkpt lat="44.99296" lon="6.46014">
        <ele>2086.4</ele>
        <time>2022-01-14T11:17:27Z</time>
      </trkpt>
      <trkpt lat="44.99296" lon="6.46015">
        <ele>2086.4</ele>
        <time>2022-01-14T11:17:28Z</time>
      </trkpt>
      <trkpt lat="44.99298" lon="6.46019">
        <ele>2086.1</ele>
        <time>2022-01-14T11:17:29Z</time>
      </trkpt>
      <trkpt lat="44.993" lon="6.46022">
        <ele>2086.1</ele>
        <time>2022-01-14T11:17:30Z</time>
      </trkpt>
      <trkpt lat="44.993" lon="6.46027">
        <ele>2086.1</ele>
        <time>2022-01-14T11:17:31Z</time>
      </trkpt>
      <trkpt lat="44.993" lon="6.46029">
        <ele>2086.1</ele>
        <time>2022-01-14T11:17:32Z</time>
      </trkpt>
      <trkpt lat="44.99301" lon="6.46035">
        <ele>2079.6</ele>
        <time>2022-01-14T11:17:33Z</time>
      </trkpt>
      <trkpt lat="44.99301" lon="6.46037">
        <ele>2079.6</ele>
        <time>2022-01-14T11:17:34Z</time>
      </trkpt>
      <trkpt lat="44.993" lon="6.46042">
        <ele>2079.6</ele>
        <time>2022-01-14T11:17:35Z</time>
      </trkpt>
      <trkpt lat="44.99298" lon="6.46047">
        <ele>2079.6</ele>
        <time>2022-01-14T11:17:36Z</time>
      </trkpt>
      <trkpt lat="44.99296" lon="6.46049">
        <ele>2074.1</ele>
        <time>2022-01-14T11:17:37Z</time>
      </trkpt>
      <trkpt lat="44.99297" lon="6.46053">
        <ele>2074.1</ele>
        <time>2022-01-14T11:17:38Z</time>
      </trkpt>
      <trkpt lat="44.99299" lon="6.46057">
        <ele>2073.7</ele>
        <time>2022-01-14T11:17:39Z</time>
      </trkpt>
      <trkpt lat="44.993" lon="6.46057">
        <ele>2073.7</ele>
        <time>2022-01-14T11:17:40Z</time>
      </trkpt>
      <trkpt lat="44.99302" lon="6.46058">
        <ele>2073.7</ele>
        <time>2022-01-14T11:17:41Z</time>
      </trkpt>
      <trkpt lat="44.99302" lon="6.46058">
        <ele>2073.7</ele>
        <time>2022-01-14T11:17:42Z</time>
      </trkpt>
      <trkpt lat="44.99302" lon="6.46058">
        <ele>2073.7</ele>
        <time>2022-01-14T11:17:43Z</time>
      </trkpt>
      <trkpt lat="44.99302" lon="6.46059">
        <ele>2073.7</ele>
        <time>2022-01-14T11:17:44Z</time>
      </trkpt>
      <trkpt lat="44.99302" lon="6.46059">
        <ele>2073.7</ele>
        <time>2022-01-14T11:17:45Z</time>
      </trkpt>
      <trkpt lat="44.99302" lon="6.46059">
        <ele>2073.7</ele>
        <time>2022-01-14T11:17:46Z</time>
      </trkpt>
      <trkpt lat="44.99302" lon="6.4606">
        <ele>2073.7</ele>
        <time>2022-01-14T11:17:47Z</time>
      </trkpt>
      <trkpt lat="44.99302" lon="6.4606">
        <ele>2073.7</ele>
        <time>2022-01-14T11:17:48Z</time>
      </trkpt>
      <trkpt lat="44.99302" lon="6.4606">
        <ele>2073.7</ele>
        <time>2022-01-14T11:17:49Z</time>
      </trkpt>
      <trkpt lat="44.99302" lon="6.46061">
        <ele>2073.7</ele>
        <time>2022-01-14T11:17:50Z</time>
      </trkpt>
      <trkpt lat="44.99302" lon="6.46061">
        <ele>2073.7</ele>
        <time>2022-01-14T11:17:51Z</time>
      </trkpt>
      <trkpt lat="44.99302" lon="6.46061">
        <ele>2073.7</ele>
        <time>2022-01-14T11:17:52Z</time>
      </trkpt>
      <trkpt lat="44.99302" lon="6.46062">
        <ele>2073.7</ele>
        <time>2022-01-14T11:17:53Z</time>
      </trkpt>
      <trkpt lat="44.99302" lon="6.46062">
        <ele>2073.7</ele>
        <time>2022-01-14T11:17:54Z</time>
      </trkpt>
      <trkpt lat="44.99302" lon="6.46062">
        <ele>2073.7</ele>
        <time>2022-01-14T11:17:55Z</time>
      </trkpt>
      <trkpt lat="44.99302" lon="6.46063">
        <ele>2073.7</ele>
        <time>2022-01-14T11:17:56Z</time>
      </trkpt>
      <trkpt lat="44.99302" lon="6.46063">
        <ele>2073.7</ele>
        <time>2022-01-14T11:17:57Z</time>
      </trkpt>
      <trkpt lat="44.99302" lon="6.46063">
        <ele>2073.7</ele>
        <time>2022-01-14T11:17:58Z</time>
      </trkpt>
      <trkpt lat="44.99302" lon="6.46064">
        <ele>2073.7</ele>
        <time>2022-01-14T11:17:59Z</time>
      </trkpt>
      <trkpt lat="44.99302" lon="6.46064">
        <ele>2073.7</ele>
        <time>2022-01-14T11:18:00Z</time>
      </trkpt>
      <trkpt lat="44.99302" lon="6.46064">
        <ele>2073.7</ele>
        <time>2022-01-14T11:18:01Z</time>
      </trkpt>
      <trkpt lat="44.99302" lon="6.46065">
        <ele>2073.7</ele>
        <time>2022-01-14T11:18:02Z</time>
      </trkpt>
      <trkpt lat="44.99305" lon="6.46071">
        <ele>2067.9</ele>
        <time>2022-01-14T11:18:03Z</time>
      </trkpt>
      <trkpt lat="44.99307" lon="6.46075">
        <ele>2067.9</ele>
        <time>2022-01-14T11:18:04Z</time>
      </trkpt>
      <trkpt lat="44.99308" lon="6.46078">
        <ele>2067.9</ele>
        <time>2022-01-14T11:18:05Z</time>
      </trkpt>
      <trkpt lat="44.99308" lon="6.4608">
        <ele>2067.9</ele>
        <time>2022-01-14T11:18:06Z</time>
      </trkpt>
      <trkpt lat="44.99308" lon="6.46086">
        <ele>2061.4</ele>
        <time>2022-01-14T11:18:07Z</time>
      </trkpt>
      <trkpt lat="44.99308" lon="6.46088">
        <ele>2061.4</ele>
        <time>2022-01-14T11:18:08Z</time>
      </trkpt>
      <trkpt lat="44.99309" lon="6.46094">
        <ele>2060.3</ele>
        <time>2022-01-14T11:18:09Z</time>
      </trkpt>
      <trkpt lat="44.99308" lon="6.46099">
        <ele>2061.4</ele>
        <time>2022-01-14T11:18:10Z</time>
      </trkpt>
      <trkpt lat="44.99308" lon="6.46103">
        <ele>2055.1</ele>
        <time>2022-01-14T11:18:11Z</time>
      </trkpt>
      <trkpt lat="44.99309" lon="6.46107">
        <ele>2055.1</ele>
        <time>2022-01-14T11:18:12Z</time>
      </trkpt>
      <trkpt lat="44.99311" lon="6.46112">
        <ele>2053.9</ele>
        <time>2022-01-14T11:18:13Z</time>
      </trkpt>
      <trkpt lat="44.99311" lon="6.46114">
        <ele>2053.9</ele>
        <time>2022-01-14T11:18:14Z</time>
      </trkpt>
      <trkpt lat="44.99312" lon="6.46118">
        <ele>2046.5</ele>
        <time>2022-01-14T11:18:15Z</time>
      </trkpt>
      <trkpt lat="44.99312" lon="6.46119">
        <ele>2046.5</ele>
        <time>2022-01-14T11:18:16Z</time>
      </trkpt>
      <trkpt lat="44.99312" lon="6.46121">
        <ele>2046.5</ele>
        <time>2022-01-14T11:18:17Z</time>
      </trkpt>
      <trkpt lat="44.99311" lon="6.46123">
        <ele>2046.5</ele>
        <time>2022-01-14T11:18:18Z</time>
      </trkpt>
      <trkpt lat="44.99312" lon="6.46128">
        <ele>2046.5</ele>
        <time>2022-01-14T11:18:19Z</time>
      </trkpt>
      <trkpt lat="44.99313" lon="6.46129">
        <ele>2046.5</ele>
        <time>2022-01-14T11:18:20Z</time>
      </trkpt>
      <trkpt lat="44.99314" lon="6.46132">
        <ele>2046.5</ele>
        <time>2022-01-14T11:18:21Z</time>
      </trkpt>
      <trkpt lat="44.99313" lon="6.46134">
        <ele>2038.4</ele>
        <time>2022-01-14T11:18:22Z</time>
      </trkpt>
      <trkpt lat="44.9931" lon="6.46136">
        <ele>2038.4</ele>
        <time>2022-01-14T11:18:23Z</time>
      </trkpt>
      <trkpt lat="44.99307" lon="6.46137">
        <ele>2040.1</ele>
        <time>2022-01-14T11:18:24Z</time>
      </trkpt>
      <trkpt lat="44.99306" lon="6.46137">
        <ele>2040.1</ele>
        <time>2022-01-14T11:18:25Z</time>
      </trkpt>
      <trkpt lat="44.99306" lon="6.46138">
        <ele>2040.1</ele>
        <time>2022-01-14T11:18:26Z</time>
      </trkpt>
      <trkpt lat="44.99305" lon="6.46137">
        <ele>2040.1</ele>
        <time>2022-01-14T11:18:27Z</time>
      </trkpt>
      <trkpt lat="44.99305" lon="6.46138">
        <ele>2040.1</ele>
        <time>2022-01-14T11:18:28Z</time>
      </trkpt>
      <trkpt lat="44.99304" lon="6.46139">
        <ele>2040.1</ele>
        <time>2022-01-14T11:18:29Z</time>
      </trkpt>
      <trkpt lat="44.99304" lon="6.46139">
        <ele>2040.1</ele>
        <time>2022-01-14T11:18:30Z</time>
      </trkpt>
      <trkpt lat="44.99304" lon="6.4614">
        <ele>2040.1</ele>
        <time>2022-01-14T11:18:31Z</time>
      </trkpt>
      <trkpt lat="44.99304" lon="6.4614">
        <ele>2040.1</ele>
        <time>2022-01-14T11:18:32Z</time>
      </trkpt>
      <trkpt lat="44.99303" lon="6.4614">
        <ele>2040.1</ele>
        <time>2022-01-14T11:18:33Z</time>
      </trkpt>
      <trkpt lat="44.99303" lon="6.4614">
        <ele>2040.1</ele>
        <time>2022-01-14T11:18:34Z</time>
      </trkpt>
      <trkpt lat="44.99303" lon="6.4614">
        <ele>2040.1</ele>
        <time>2022-01-14T11:18:35Z</time>
      </trkpt>
      <trkpt lat="44.99303" lon="6.4614">
        <ele>2040.1</ele>
        <time>2022-01-14T11:18:36Z</time>
      </trkpt>
      <trkpt lat="44.99303" lon="6.4614">
        <ele>2040.1</ele>
        <time>2022-01-14T11:18:37Z</time>
      </trkpt>
      <trkpt lat="44.99303" lon="6.4614">
        <ele>2040.1</ele>
        <time>2022-01-14T11:18:38Z</time>
      </trkpt>
      <trkpt lat="44.99303" lon="6.4614">
        <ele>2040.1</ele>
        <time>2022-01-14T11:18:39Z</time>
      </trkpt>
      <trkpt lat="44.99303" lon="6.46139">
        <ele>2040.1</ele>
        <time>2022-01-14T11:18:40Z</time>
      </trkpt>
      <trkpt lat="44.99302" lon="6.46141">
        <ele>2040.1</ele>
        <time>2022-01-14T11:18:41Z</time>
      </trkpt>
      <trkpt lat="44.99302" lon="6.46143">
        <ele>2040.1</ele>
        <time>2022-01-14T11:18:42Z</time>
      </trkpt>
      <trkpt lat="44.993" lon="6.46147">
        <ele>2040.1</ele>
        <time>2022-01-14T11:18:43Z</time>
      </trkpt>
      <trkpt lat="44.993" lon="6.46149">
        <ele>2040.1</ele>
        <time>2022-01-14T11:18:44Z</time>
      </trkpt>
      <trkpt lat="44.99302" lon="6.46153">
        <ele>2032.4</ele>
        <time>2022-01-14T11:18:45Z</time>
      </trkpt>
      <trkpt lat="44.99303" lon="6.46155">
        <ele>2032.4</ele>
        <time>2022-01-14T11:18:46Z</time>
      </trkpt>
      <trkpt lat="44.99301" lon="6.46159">
        <ele>2032.4</ele>
        <time>2022-01-14T11:18:47Z</time>
      </trkpt>
      <trkpt lat="44.99298" lon="6.46161">
        <ele>2032.4</ele>
        <time>2022-01-14T11:18:48Z</time>
      </trkpt>
      <trkpt lat="44.99296" lon="6.46168">
        <ele>2033.5</ele>
        <time>2022-01-14T11:18:49Z</time>
      </trkpt>
      <trkpt lat="44.99297" lon="6.46171">
        <ele>2023.5</ele>
        <time>2022-01-14T11:18:50Z</time>
      </trkpt>
      <trkpt lat="44.99299" lon="6.46175">
        <ele>2023.5</ele>
        <time>2022-01-14T11:18:51Z</time>
      </trkpt>
      <trkpt lat="44.99298" lon="6.46179">
        <ele>2023.5</ele>
        <time>2022-01-14T11:18:52Z</time>
      </trkpt>
      <trkpt lat="44.99296" lon="6.46185">
        <ele>2024.7</ele>
        <time>2022-01-14T11:18:53Z</time>
      </trkpt>
      <trkpt lat="44.99296" lon="6.4619">
        <ele>2016.6</ele>
        <time>2022-01-14T11:18:54Z</time>
      </trkpt>
      <trkpt lat="44.99298" lon="6.46194">
        <ele>2015</ele>
        <time>2022-01-14T11:18:55Z</time>
      </trkpt>
      <trkpt lat="44.99301" lon="6.46196">
        <ele>2015</ele>
        <time>2022-01-14T11:18:56Z</time>
      </trkpt>
      <trkpt lat="44.99303" lon="6.46198">
        <ele>2015</ele>
        <time>2022-01-14T11:18:57Z</time>
      </trkpt>
      <trkpt lat="44.99307" lon="6.46201">
        <ele>2015</ele>
        <time>2022-01-14T11:18:58Z</time>
      </trkpt>
      <trkpt lat="44.99308" lon="6.46202">
        <ele>2006.4</ele>
        <time>2022-01-14T11:18:59Z</time>
      </trkpt>
      <trkpt lat="44.99311" lon="6.46206">
        <ele>2003.6</ele>
        <time>2022-01-14T11:19:00Z</time>
      </trkpt>
      <trkpt lat="44.99314" lon="6.4621">
        <ele>2003.6</ele>
        <time>2022-01-14T11:19:01Z</time>
      </trkpt>
      <trkpt lat="44.99317" lon="6.46213">
        <ele>2003.6</ele>
        <time>2022-01-14T11:19:02Z</time>
      </trkpt>
      <trkpt lat="44.9932" lon="6.46217">
        <ele>2003.6</ele>
        <time>2022-01-14T11:19:03Z</time>
      </trkpt>
      <trkpt lat="44.99323" lon="6.46219">
        <ele>1991.6</ele>
        <time>2022-01-14T11:19:04Z</time>
      </trkpt>
      <trkpt lat="44.99324" lon="6.46223">
        <ele>1991.6</ele>
        <time>2022-01-14T11:19:05Z</time>
      </trkpt>
      <trkpt lat="44.99325" lon="6.46224">
        <ele>1991.6</ele>
        <time>2022-01-14T11:19:06Z</time>
      </trkpt>
      <trkpt lat="44.99327" lon="6.46226">
        <ele>1991.6</ele>
        <time>2022-01-14T11:19:07Z</time>
      </trkpt>
      <trkpt lat="44.99328" lon="6.46227">
        <ele>1991.6</ele>
        <time>2022-01-14T11:19:08Z</time>
      </trkpt>
      <trkpt lat="44.9933" lon="6.46228">
        <ele>1991.6</ele>
        <time>2022-01-14T11:19:09Z</time>
      </trkpt>
      <trkpt lat="44.99331" lon="6.46229">
        <ele>1991.6</ele>
        <time>2022-01-14T11:19:10Z</time>
      </trkpt>
      <trkpt lat="44.99333" lon="6.46229">
        <ele>1991.6</ele>
        <time>2022-01-14T11:19:11Z</time>
      </trkpt>
      <trkpt lat="44.99334" lon="6.4623">
        <ele>1988.1</ele>
        <time>2022-01-14T11:19:12Z</time>
      </trkpt>
      <trkpt lat="44.99336" lon="6.46231">
        <ele>1988.1</ele>
        <time>2022-01-14T11:19:13Z</time>
      </trkpt>
      <trkpt lat="44.99337" lon="6.4623">
        <ele>1988.1</ele>
        <time>2022-01-14T11:19:14Z</time>
      </trkpt>
      <trkpt lat="44.99341" lon="6.4623">
        <ele>1988.1</ele>
        <time>2022-01-14T11:19:15Z</time>
      </trkpt>
      <trkpt lat="44.99342" lon="6.4623">
        <ele>1988.1</ele>
        <time>2022-01-14T11:19:16Z</time>
      </trkpt>
      <trkpt lat="44.99345" lon="6.46232">
        <ele>1988.1</ele>
        <time>2022-01-14T11:19:17Z</time>
      </trkpt>
      <trkpt lat="44.99346" lon="6.46233">
        <ele>1985.2</ele>
        <time>2022-01-14T11:19:18Z</time>
      </trkpt>
      <trkpt lat="44.99346" lon="6.46237">
        <ele>1977.4</ele>
        <time>2022-01-14T11:19:19Z</time>
      </trkpt>
      <trkpt lat="44.99345" lon="6.46239">
        <ele>1980.3</ele>
        <time>2022-01-14T11:19:20Z</time>
      </trkpt>
      <trkpt lat="44.99346" lon="6.46242">
        <ele>1977.4</ele>
        <time>2022-01-14T11:19:21Z</time>
      </trkpt>
      <trkpt lat="44.99347" lon="6.46243">
        <ele>1977.4</ele>
        <time>2022-01-14T11:19:22Z</time>
      </trkpt>
      <trkpt lat="44.9935" lon="6.46245">
        <ele>1977.4</ele>
        <time>2022-01-14T11:19:23Z</time>
      </trkpt>
      <trkpt lat="44.99354" lon="6.46247">
        <ele>1977.4</ele>
        <time>2022-01-14T11:19:24Z</time>
      </trkpt>
      <trkpt lat="44.99356" lon="6.4625">
        <ele>1977.4</ele>
        <time>2022-01-14T11:19:25Z</time>
      </trkpt>
      <trkpt lat="44.99356" lon="6.46252">
        <ele>1977.4</ele>
        <time>2022-01-14T11:19:27Z</time>
      </trkpt>
      <trkpt lat="44.99355" lon="6.46253">
        <ele>1977.4</ele>
        <time>2022-01-14T11:19:28Z</time>
      </trkpt>
      <trkpt lat="44.99355" lon="6.46253">
        <ele>1977.4</ele>
        <time>2022-01-14T11:19:29Z</time>
      </trkpt>
      <trkpt lat="44.99355" lon="6.46253">
        <ele>1977.4</ele>
        <time>2022-01-14T11:19:30Z</time>
      </trkpt>
      <trkpt lat="44.99356" lon="6.46253">
        <ele>1977.4</ele>
        <time>2022-01-14T11:19:31Z</time>
      </trkpt>
      <trkpt lat="44.99356" lon="6.46254">
        <ele>1969</ele>
        <time>2022-01-14T11:19:32Z</time>
      </trkpt>
      <trkpt lat="44.99356" lon="6.46254">
        <ele>1969</ele>
        <time>2022-01-14T11:19:33Z</time>
      </trkpt>
      <trkpt lat="44.99356" lon="6.46254">
        <ele>1969</ele>
        <time>2022-01-14T11:19:34Z</time>
      </trkpt>
      <trkpt lat="44.99356" lon="6.46254">
        <ele>1969</ele>
        <time>2022-01-14T11:19:35Z</time>
      </trkpt>
      <trkpt lat="44.99356" lon="6.46255">
        <ele>1969</ele>
        <time>2022-01-14T11:19:36Z</time>
      </trkpt>
      <trkpt lat="44.99356" lon="6.46255">
        <ele>1969</ele>
        <time>2022-01-14T11:19:37Z</time>
      </trkpt>
      <trkpt lat="44.99356" lon="6.46255">
        <ele>1969</ele>
        <time>2022-01-14T11:19:38Z</time>
      </trkpt>
      <trkpt lat="44.99356" lon="6.46255">
        <ele>1969</ele>
        <time>2022-01-14T11:19:39Z</time>
      </trkpt>
      <trkpt lat="44.99356" lon="6.46255">
        <ele>1969</ele>
        <time>2022-01-14T11:19:40Z</time>
      </trkpt>
      <trkpt lat="44.99356" lon="6.46255">
        <ele>1969</ele>
        <time>2022-01-14T11:19:41Z</time>
      </trkpt>
      <trkpt lat="44.99356" lon="6.46255">
        <ele>1969</ele>
        <time>2022-01-14T11:19:42Z</time>
      </trkpt>
      <trkpt lat="44.99356" lon="6.46255">
        <ele>1969</ele>
        <time>2022-01-14T11:19:43Z</time>
      </trkpt>
      <trkpt lat="44.99356" lon="6.46255">
        <ele>1969</ele>
        <time>2022-01-14T11:19:44Z</time>
      </trkpt>
      <trkpt lat="44.99355" lon="6.46255">
        <ele>1969</ele>
        <time>2022-01-14T11:19:45Z</time>
      </trkpt>
      <trkpt lat="44.99355" lon="6.46255">
        <ele>1969</ele>
        <time>2022-01-14T11:19:46Z</time>
      </trkpt>
      <trkpt lat="44.99355" lon="6.46255">
        <ele>1969</ele>
        <time>2022-01-14T11:19:47Z</time>
      </trkpt>
      <trkpt lat="44.99355" lon="6.46255">
        <ele>1969</ele>
        <time>2022-01-14T11:19:48Z</time>
      </trkpt>
      <trkpt lat="44.99355" lon="6.46255">
        <ele>1969</ele>
        <time>2022-01-14T11:19:49Z</time>
      </trkpt>
      <trkpt lat="44.99355" lon="6.46255">
        <ele>1969</ele>
        <time>2022-01-14T11:19:50Z</time>
      </trkpt>
      <trkpt lat="44.99355" lon="6.46255">
        <ele>1969</ele>
        <time>2022-01-14T11:19:51Z</time>
      </trkpt>
      <trkpt lat="44.99355" lon="6.46255">
        <ele>1969</ele>
        <time>2022-01-14T11:19:52Z</time>
      </trkpt>
      <trkpt lat="44.99355" lon="6.46255">
        <ele>1969</ele>
        <time>2022-01-14T11:19:53Z</time>
      </trkpt>
      <trkpt lat="44.99355" lon="6.46255">
        <ele>1969</ele>
        <time>2022-01-14T11:19:54Z</time>
      </trkpt>
      <trkpt lat="44.99355" lon="6.46255">
        <ele>1969</ele>
        <time>2022-01-14T11:19:55Z</time>
      </trkpt>
      <trkpt lat="44.99355" lon="6.46255">
        <ele>1969</ele>
        <time>2022-01-14T11:19:56Z</time>
      </trkpt>
      <trkpt lat="44.99355" lon="6.46255">
        <ele>1969</ele>
        <time>2022-01-14T11:19:57Z</time>
      </trkpt>
      <trkpt lat="44.99355" lon="6.46255">
        <ele>1969</ele>
        <time>2022-01-14T11:19:58Z</time>
      </trkpt>
      <trkpt lat="44.99355" lon="6.46255">
        <ele>1969</ele>
        <time>2022-01-14T11:19:59Z</time>
      </trkpt>
      <trkpt lat="44.99355" lon="6.46255">
        <ele>1969</ele>
        <time>2022-01-14T11:20:00Z</time>
      </trkpt>
      <trkpt lat="44.99355" lon="6.46255">
        <ele>1969</ele>
        <time>2022-01-14T11:20:01Z</time>
      </trkpt>
      <trkpt lat="44.99355" lon="6.46255">
        <ele>1969</ele>
        <time>2022-01-14T11:20:02Z</time>
      </trkpt>
      <trkpt lat="44.99355" lon="6.46255">
        <ele>1969</ele>
        <time>2022-01-14T11:20:03Z</time>
      </trkpt>
      <trkpt lat="44.99355" lon="6.46255">
        <ele>1969</ele>
        <time>2022-01-14T11:20:04Z</time>
      </trkpt>
      <trkpt lat="44.99355" lon="6.46255">
        <ele>1969</ele>
        <time>2022-01-14T11:20:05Z</time>
      </trkpt>
      <trkpt lat="44.99355" lon="6.46255">
        <ele>1969</ele>
        <time>2022-01-14T11:20:06Z</time>
      </trkpt>
      <trkpt lat="44.99355" lon="6.46255">
        <ele>1969</ele>
        <time>2022-01-14T11:20:07Z</time>
      </trkpt>
      <trkpt lat="44.99355" lon="6.46255">
        <ele>1969</ele>
        <time>2022-01-14T11:20:08Z</time>
      </trkpt>
      <trkpt lat="44.99355" lon="6.46255">
        <ele>1969</ele>
        <time>2022-01-14T11:20:09Z</time>
      </trkpt>
      <trkpt lat="44.99355" lon="6.46256">
        <ele>1969</ele>
        <time>2022-01-14T11:20:10Z</time>
      </trkpt>
      <trkpt lat="44.99355" lon="6.46256">
        <ele>1969</ele>
        <time>2022-01-14T11:20:11Z</time>
      </trkpt>
      <trkpt lat="44.99355" lon="6.46256">
        <ele>1969</ele>
        <time>2022-01-14T11:20:12Z</time>
      </trkpt>
      <trkpt lat="44.99355" lon="6.46256">
        <ele>1969</ele>
        <time>2022-01-14T11:20:13Z</time>
      </trkpt>
      <trkpt lat="44.99355" lon="6.46256">
        <ele>1969</ele>
        <time>2022-01-14T11:20:14Z</time>
      </trkpt>
      <trkpt lat="44.99355" lon="6.46256">
        <ele>1969</ele>
        <time>2022-01-14T11:20:15Z</time>
      </trkpt>
      <trkpt lat="44.99355" lon="6.46256">
        <ele>1969</ele>
        <time>2022-01-14T11:20:16Z</time>
      </trkpt>
      <trkpt lat="44.99355" lon="6.46257">
        <ele>1969</ele>
        <time>2022-01-14T11:20:17Z</time>
      </trkpt>
      <trkpt lat="44.99355" lon="6.46257">
        <ele>1969</ele>
        <time>2022-01-14T11:20:18Z</time>
      </trkpt>
      <trkpt lat="44.99355" lon="6.46258">
        <ele>1969</ele>
        <time>2022-01-14T11:20:19Z</time>
      </trkpt>
      <trkpt lat="44.99355" lon="6.46259">
        <ele>1969</ele>
        <time>2022-01-14T11:20:20Z</time>
      </trkpt>
      <trkpt lat="44.99355" lon="6.46259">
        <ele>1969</ele>
        <time>2022-01-14T11:20:21Z</time>
      </trkpt>
      <trkpt lat="44.99355" lon="6.46259">
        <ele>1969</ele>
        <time>2022-01-14T11:20:22Z</time>
      </trkpt>
      <trkpt lat="44.99355" lon="6.46259">
        <ele>1969</ele>
        <time>2022-01-14T11:20:23Z</time>
      </trkpt>
      <trkpt lat="44.99355" lon="6.46259">
        <ele>1969</ele>
        <time>2022-01-14T11:20:24Z</time>
      </trkpt>
      <trkpt lat="44.99355" lon="6.46259">
        <ele>1969</ele>
        <time>2022-01-14T11:20:25Z</time>
      </trkpt>
      <trkpt lat="44.99355" lon="6.46259">
        <ele>1969</ele>
        <time>2022-01-14T11:20:26Z</time>
      </trkpt>
      <trkpt lat="44.99355" lon="6.46259">
        <ele>1969</ele>
        <time>2022-01-14T11:20:27Z</time>
      </trkpt>
      <trkpt lat="44.99355" lon="6.46261">
        <ele>1969</ele>
        <time>2022-01-14T11:20:28Z</time>
      </trkpt>
      <trkpt lat="44.99356" lon="6.46267">
        <ele>1969</ele>
        <time>2022-01-14T11:20:29Z</time>
      </trkpt>
      <trkpt lat="44.99357" lon="6.46269">
        <ele>1969</ele>
        <time>2022-01-14T11:20:30Z</time>
      </trkpt>
      <trkpt lat="44.99357" lon="6.46274">
        <ele>1961.2</ele>
        <time>2022-01-14T11:20:31Z</time>
      </trkpt>
      <trkpt lat="44.99357" lon="6.4628">
        <ele>1961.2</ele>
        <time>2022-01-14T11:20:32Z</time>
      </trkpt>
      <trkpt lat="44.99355" lon="6.46285">
        <ele>1961.2</ele>
        <time>2022-01-14T11:20:33Z</time>
      </trkpt>
      <trkpt lat="44.99354" lon="6.4629">
        <ele>1953.8</ele>
        <time>2022-01-14T11:20:34Z</time>
      </trkpt>
      <trkpt lat="44.99355" lon="6.46295">
        <ele>1953.8</ele>
        <time>2022-01-14T11:20:35Z</time>
      </trkpt>
      <trkpt lat="44.99358" lon="6.46298">
        <ele>1950.7</ele>
        <time>2022-01-14T11:20:36Z</time>
      </trkpt>
      <trkpt lat="44.99359" lon="6.46299">
        <ele>1950.7</ele>
        <time>2022-01-14T11:20:37Z</time>
      </trkpt>
      <trkpt lat="44.99358" lon="6.46301">
        <ele>1950.7</ele>
        <time>2022-01-14T11:20:38Z</time>
      </trkpt>
      <trkpt lat="44.99357" lon="6.46302">
        <ele>1953.8</ele>
        <time>2022-01-14T11:20:39Z</time>
      </trkpt>
      <trkpt lat="44.99354" lon="6.46305">
        <ele>1945.9</ele>
        <time>2022-01-14T11:20:40Z</time>
      </trkpt>
      <trkpt lat="44.99353" lon="6.46306">
        <ele>1945.9</ele>
        <time>2022-01-14T11:20:41Z</time>
      </trkpt>
      <trkpt lat="44.9935" lon="6.46308">
        <ele>1945.9</ele>
        <time>2022-01-14T11:20:42Z</time>
      </trkpt>
      <trkpt lat="44.99346" lon="6.46309">
        <ele>1945.9</ele>
        <time>2022-01-14T11:20:43Z</time>
      </trkpt>
      <trkpt lat="44.99345" lon="6.4631">
        <ele>1948.2</ele>
        <time>2022-01-14T11:20:44Z</time>
      </trkpt>
      <trkpt lat="44.99342" lon="6.46309">
        <ele>1948.2</ele>
        <time>2022-01-14T11:20:45Z</time>
      </trkpt>
      <trkpt lat="44.99339" lon="6.46311">
        <ele>1948.2</ele>
        <time>2022-01-14T11:20:46Z</time>
      </trkpt>
      <trkpt lat="44.99338" lon="6.46311">
        <ele>1948.2</ele>
        <time>2022-01-14T11:20:47Z</time>
      </trkpt>
      <trkpt lat="44.99337" lon="6.46312">
        <ele>1948.2</ele>
        <time>2022-01-14T11:20:48Z</time>
      </trkpt>
      <trkpt lat="44.99335" lon="6.46313">
        <ele>1948.2</ele>
        <time>2022-01-14T11:20:49Z</time>
      </trkpt>
      <trkpt lat="44.99334" lon="6.46313">
        <ele>1948.2</ele>
        <time>2022-01-14T11:20:50Z</time>
      </trkpt>
      <trkpt lat="44.99334" lon="6.46314">
        <ele>1948.2</ele>
        <time>2022-01-14T11:20:51Z</time>
      </trkpt>
      <trkpt lat="44.99333" lon="6.46313">
        <ele>1950.5</ele>
        <time>2022-01-14T11:20:52Z</time>
      </trkpt>
      <trkpt lat="44.99333" lon="6.46314">
        <ele>1950.5</ele>
        <time>2022-01-14T11:20:53Z</time>
      </trkpt>
      <trkpt lat="44.99333" lon="6.46313">
        <ele>1950.5</ele>
        <time>2022-01-14T11:20:54Z</time>
      </trkpt>
      <trkpt lat="44.99334" lon="6.46314">
        <ele>1948.2</ele>
        <time>2022-01-14T11:20:55Z</time>
      </trkpt>
      <trkpt lat="44.99334" lon="6.46314">
        <ele>1948.2</ele>
        <time>2022-01-14T11:20:56Z</time>
      </trkpt>
      <trkpt lat="44.99336" lon="6.46314">
        <ele>1948.2</ele>
        <time>2022-01-14T11:20:57Z</time>
      </trkpt>
      <trkpt lat="44.99336" lon="6.46313">
        <ele>1948.2</ele>
        <time>2022-01-14T11:20:58Z</time>
      </trkpt>
      <trkpt lat="44.99336" lon="6.46312">
        <ele>1948.2</ele>
        <time>2022-01-14T11:20:59Z</time>
      </trkpt>
      <trkpt lat="44.99337" lon="6.46313">
        <ele>1948.2</ele>
        <time>2022-01-14T11:21:00Z</time>
      </trkpt>
      <trkpt lat="44.99338" lon="6.46313">
        <ele>1948.2</ele>
        <time>2022-01-14T11:21:01Z</time>
      </trkpt>
      <trkpt lat="44.9934" lon="6.46315">
        <ele>1948.2</ele>
        <time>2022-01-14T11:21:02Z</time>
      </trkpt>
      <trkpt lat="44.99341" lon="6.46316">
        <ele>1948.2</ele>
        <time>2022-01-14T11:21:03Z</time>
      </trkpt>
      <trkpt lat="44.99345" lon="6.46319">
        <ele>1948.2</ele>
        <time>2022-01-14T11:21:04Z</time>
      </trkpt>
      <trkpt lat="44.99349" lon="6.46321">
        <ele>1945.9</ele>
        <time>2022-01-14T11:21:05Z</time>
      </trkpt>
      <trkpt lat="44.99352" lon="6.46324">
        <ele>1939.2</ele>
        <time>2022-01-14T11:21:06Z</time>
      </trkpt>
      <trkpt lat="44.99354" lon="6.46325">
        <ele>1939.2</ele>
        <time>2022-01-14T11:21:07Z</time>
      </trkpt>
      <trkpt lat="44.99355" lon="6.46329">
        <ele>1939.2</ele>
        <time>2022-01-14T11:21:08Z</time>
      </trkpt>
      <trkpt lat="44.99354" lon="6.46332">
        <ele>1939.2</ele>
        <time>2022-01-14T11:21:09Z</time>
      </trkpt>
      <trkpt lat="44.99353" lon="6.46334">
        <ele>1939.2</ele>
        <time>2022-01-14T11:21:10Z</time>
      </trkpt>
      <trkpt lat="44.99353" lon="6.46336">
        <ele>1939.2</ele>
        <time>2022-01-14T11:21:11Z</time>
      </trkpt>
      <trkpt lat="44.99354" lon="6.46338">
        <ele>1939.2</ele>
        <time>2022-01-14T11:21:12Z</time>
      </trkpt>
      <trkpt lat="44.99356" lon="6.46338">
        <ele>1939.2</ele>
        <time>2022-01-14T11:21:13Z</time>
      </trkpt>
      <trkpt lat="44.99357" lon="6.46338">
        <ele>1939.2</ele>
        <time>2022-01-14T11:21:14Z</time>
      </trkpt>
      <trkpt lat="44.99359" lon="6.46337">
        <ele>1936.3</ele>
        <time>2022-01-14T11:21:15Z</time>
      </trkpt>
      <trkpt lat="44.9936" lon="6.46338">
        <ele>1936.3</ele>
        <time>2022-01-14T11:21:16Z</time>
      </trkpt>
      <trkpt lat="44.9936" lon="6.4634">
        <ele>1929.9</ele>
        <time>2022-01-14T11:21:17Z</time>
      </trkpt>
      <trkpt lat="44.9936" lon="6.46342">
        <ele>1929.9</ele>
        <time>2022-01-14T11:21:18Z</time>
      </trkpt>
      <trkpt lat="44.99359" lon="6.46341">
        <ele>1929.9</ele>
        <time>2022-01-14T11:21:19Z</time>
      </trkpt>
      <trkpt lat="44.99359" lon="6.46341">
        <ele>1929.9</ele>
        <time>2022-01-14T11:21:20Z</time>
      </trkpt>
      <trkpt lat="44.99359" lon="6.46342">
        <ele>1929.9</ele>
        <time>2022-01-14T11:21:21Z</time>
      </trkpt>
      <trkpt lat="44.99359" lon="6.46343">
        <ele>1929.9</ele>
        <time>2022-01-14T11:21:22Z</time>
      </trkpt>
      <trkpt lat="44.99359" lon="6.46343">
        <ele>1929.9</ele>
        <time>2022-01-14T11:21:23Z</time>
      </trkpt>
      <trkpt lat="44.99359" lon="6.46344">
        <ele>1929.9</ele>
        <time>2022-01-14T11:21:24Z</time>
      </trkpt>
      <trkpt lat="44.99359" lon="6.46344">
        <ele>1929.9</ele>
        <time>2022-01-14T11:21:25Z</time>
      </trkpt>
      <trkpt lat="44.99359" lon="6.46344">
        <ele>1929.9</ele>
        <time>2022-01-14T11:21:26Z</time>
      </trkpt>
      <trkpt lat="44.99359" lon="6.46344">
        <ele>1929.9</ele>
        <time>2022-01-14T11:21:27Z</time>
      </trkpt>
      <trkpt lat="44.99359" lon="6.46344">
        <ele>1929.9</ele>
        <time>2022-01-14T11:21:28Z</time>
      </trkpt>
      <trkpt lat="44.99359" lon="6.46344">
        <ele>1929.9</ele>
        <time>2022-01-14T11:21:29Z</time>
      </trkpt>
      <trkpt lat="44.99359" lon="6.46344">
        <ele>1929.9</ele>
        <time>2022-01-14T11:21:30Z</time>
      </trkpt>
      <trkpt lat="44.99359" lon="6.46344">
        <ele>1929.9</ele>
        <time>2022-01-14T11:21:31Z</time>
      </trkpt>
      <trkpt lat="44.99359" lon="6.46344">
        <ele>1929.9</ele>
        <time>2022-01-14T11:21:32Z</time>
      </trkpt>
      <trkpt lat="44.99359" lon="6.46344">
        <ele>1929.9</ele>
        <time>2022-01-14T11:21:33Z</time>
      </trkpt>
      <trkpt lat="44.99359" lon="6.46344">
        <ele>1929.9</ele>
        <time>2022-01-14T11:21:34Z</time>
      </trkpt>
      <trkpt lat="44.99359" lon="6.46344">
        <ele>1929.9</ele>
        <time>2022-01-14T11:21:35Z</time>
      </trkpt>
      <trkpt lat="44.99359" lon="6.46345">
        <ele>1929.9</ele>
        <time>2022-01-14T11:21:36Z</time>
      </trkpt>
      <trkpt lat="44.99359" lon="6.46345">
        <ele>1929.9</ele>
        <time>2022-01-14T11:21:37Z</time>
      </trkpt>
      <trkpt lat="44.99359" lon="6.46345">
        <ele>1929.9</ele>
        <time>2022-01-14T11:21:38Z</time>
      </trkpt>
      <trkpt lat="44.99359" lon="6.46345">
        <ele>1929.9</ele>
        <time>2022-01-14T11:21:39Z</time>
      </trkpt>
      <trkpt lat="44.99359" lon="6.46345">
        <ele>1929.9</ele>
        <time>2022-01-14T11:21:40Z</time>
      </trkpt>
      <trkpt lat="44.99359" lon="6.46345">
        <ele>1929.9</ele>
        <time>2022-01-14T11:21:41Z</time>
      </trkpt>
      <trkpt lat="44.99359" lon="6.46345">
        <ele>1929.9</ele>
        <time>2022-01-14T11:21:42Z</time>
      </trkpt>
      <trkpt lat="44.99359" lon="6.46346">
        <ele>1929.9</ele>
        <time>2022-01-14T11:21:43Z</time>
      </trkpt>
      <trkpt lat="44.99359" lon="6.46346">
        <ele>1929.9</ele>
        <time>2022-01-14T11:21:44Z</time>
      </trkpt>
      <trkpt lat="44.99359" lon="6.46346">
        <ele>1929.9</ele>
        <time>2022-01-14T11:21:45Z</time>
      </trkpt>
      <trkpt lat="44.99359" lon="6.46346">
        <ele>1929.9</ele>
        <time>2022-01-14T11:21:46Z</time>
      </trkpt>
      <trkpt lat="44.99359" lon="6.46345">
        <ele>1929.9</ele>
        <time>2022-01-14T11:21:47Z</time>
      </trkpt>
      <trkpt lat="44.99359" lon="6.46346">
        <ele>1929.9</ele>
        <time>2022-01-14T11:21:48Z</time>
      </trkpt>
      <trkpt lat="44.99358" lon="6.46346">
        <ele>1929.9</ele>
        <time>2022-01-14T11:21:49Z</time>
      </trkpt>
      <trkpt lat="44.99356" lon="6.46346">
        <ele>1932.6</ele>
        <time>2022-01-14T11:21:50Z</time>
      </trkpt>
      <trkpt lat="44.99356" lon="6.46346">
        <ele>1932.6</ele>
        <time>2022-01-14T11:21:51Z</time>
      </trkpt>
      <trkpt lat="44.99355" lon="6.46347">
        <ele>1932.6</ele>
        <time>2022-01-14T11:21:52Z</time>
      </trkpt>
      <trkpt lat="44.99355" lon="6.46347">
        <ele>1932.6</ele>
        <time>2022-01-14T11:21:53Z</time>
      </trkpt>
      <trkpt lat="44.99355" lon="6.46347">
        <ele>1932.6</ele>
        <time>2022-01-14T11:21:54Z</time>
      </trkpt>
      <trkpt lat="44.99355" lon="6.46347">
        <ele>1932.6</ele>
        <time>2022-01-14T11:21:55Z</time>
      </trkpt>
      <trkpt lat="44.99355" lon="6.46347">
        <ele>1932.6</ele>
        <time>2022-01-14T11:21:56Z</time>
      </trkpt>
      <trkpt lat="44.99355" lon="6.46347">
        <ele>1932.6</ele>
        <time>2022-01-14T11:21:57Z</time>
      </trkpt>
      <trkpt lat="44.99355" lon="6.46347">
        <ele>1932.6</ele>
        <time>2022-01-14T11:21:58Z</time>
      </trkpt>
      <trkpt lat="44.99355" lon="6.46348">
        <ele>1932.6</ele>
        <time>2022-01-14T11:21:59Z</time>
      </trkpt>
      <trkpt lat="44.99355" lon="6.46348">
        <ele>1932.6</ele>
        <time>2022-01-14T11:22:00Z</time>
      </trkpt>
      <trkpt lat="44.99355" lon="6.46348">
        <ele>1932.6</ele>
        <time>2022-01-14T11:22:01Z</time>
      </trkpt>
      <trkpt lat="44.99355" lon="6.46348">
        <ele>1932.6</ele>
        <time>2022-01-14T11:22:02Z</time>
      </trkpt>
      <trkpt lat="44.99355" lon="6.46349">
        <ele>1932.6</ele>
        <time>2022-01-14T11:22:03Z</time>
      </trkpt>
      <trkpt lat="44.99355" lon="6.4635">
        <ele>1932.6</ele>
        <time>2022-01-14T11:22:04Z</time>
      </trkpt>
      <trkpt lat="44.99355" lon="6.4635">
        <ele>1932.6</ele>
        <time>2022-01-14T11:22:05Z</time>
      </trkpt>
      <trkpt lat="44.99355" lon="6.46351">
        <ele>1932.6</ele>
        <time>2022-01-14T11:22:06Z</time>
      </trkpt>
      <trkpt lat="44.99355" lon="6.46351">
        <ele>1932.6</ele>
        <time>2022-01-14T11:22:07Z</time>
      </trkpt>
      <trkpt lat="44.99355" lon="6.46351">
        <ele>1932.6</ele>
        <time>2022-01-14T11:22:08Z</time>
      </trkpt>
      <trkpt lat="44.99355" lon="6.46351">
        <ele>1932.6</ele>
        <time>2022-01-14T11:22:09Z</time>
      </trkpt>
      <trkpt lat="44.99354" lon="6.46352">
        <ele>1932.6</ele>
        <time>2022-01-14T11:22:10Z</time>
      </trkpt>
      <trkpt lat="44.99354" lon="6.46352">
        <ele>1932.6</ele>
        <time>2022-01-14T11:22:11Z</time>
      </trkpt>
      <trkpt lat="44.99353" lon="6.46353">
        <ele>1932.6</ele>
        <time>2022-01-14T11:22:12Z</time>
      </trkpt>
      <trkpt lat="44.99352" lon="6.46354">
        <ele>1932.6</ele>
        <time>2022-01-14T11:22:13Z</time>
      </trkpt>
      <trkpt lat="44.99352" lon="6.46355">
        <ele>1932.6</ele>
        <time>2022-01-14T11:22:14Z</time>
      </trkpt>
      <trkpt lat="44.99352" lon="6.46356">
        <ele>1932.6</ele>
        <time>2022-01-14T11:22:15Z</time>
      </trkpt>
      <trkpt lat="44.99352" lon="6.46356">
        <ele>1932.6</ele>
        <time>2022-01-14T11:22:16Z</time>
      </trkpt>
      <trkpt lat="44.99352" lon="6.46356">
        <ele>1932.6</ele>
        <time>2022-01-14T11:22:17Z</time>
      </trkpt>
      <trkpt lat="44.99352" lon="6.46356">
        <ele>1932.6</ele>
        <time>2022-01-14T11:22:18Z</time>
      </trkpt>
      <trkpt lat="44.99352" lon="6.46356">
        <ele>1932.6</ele>
        <time>2022-01-14T11:22:19Z</time>
      </trkpt>
      <trkpt lat="44.99352" lon="6.46356">
        <ele>1932.6</ele>
        <time>2022-01-14T11:22:20Z</time>
      </trkpt>
      <trkpt lat="44.99352" lon="6.46356">
        <ele>1932.6</ele>
        <time>2022-01-14T11:22:21Z</time>
      </trkpt>
      <trkpt lat="44.99352" lon="6.46356">
        <ele>1932.6</ele>
        <time>2022-01-14T11:22:22Z</time>
      </trkpt>
      <trkpt lat="44.99352" lon="6.46357">
        <ele>1932.6</ele>
        <time>2022-01-14T11:22:23Z</time>
      </trkpt>
      <trkpt lat="44.99352" lon="6.46357">
        <ele>1926.5</ele>
        <time>2022-01-14T11:22:24Z</time>
      </trkpt>
      <trkpt lat="44.99352" lon="6.46357">
        <ele>1926.5</ele>
        <time>2022-01-14T11:22:25Z</time>
      </trkpt>
      <trkpt lat="44.99352" lon="6.46357">
        <ele>1926.5</ele>
        <time>2022-01-14T11:22:26Z</time>
      </trkpt>
      <trkpt lat="44.99352" lon="6.46357">
        <ele>1926.5</ele>
        <time>2022-01-14T11:22:27Z</time>
      </trkpt>
      <trkpt lat="44.99352" lon="6.46357">
        <ele>1926.5</ele>
        <time>2022-01-14T11:22:28Z</time>
      </trkpt>
      <trkpt lat="44.99352" lon="6.46357">
        <ele>1926.5</ele>
        <time>2022-01-14T11:22:29Z</time>
      </trkpt>
      <trkpt lat="44.99352" lon="6.46357">
        <ele>1926.5</ele>
        <time>2022-01-14T11:22:30Z</time>
      </trkpt>
      <trkpt lat="44.99352" lon="6.46357">
        <ele>1926.5</ele>
        <time>2022-01-14T11:22:31Z</time>
      </trkpt>
      <trkpt lat="44.99352" lon="6.46357">
        <ele>1926.5</ele>
        <time>2022-01-14T11:22:32Z</time>
      </trkpt>
      <trkpt lat="44.99352" lon="6.46357">
        <ele>1926.5</ele>
        <time>2022-01-14T11:22:33Z</time>
      </trkpt>
      <trkpt lat="44.99352" lon="6.46358">
        <ele>1926.5</ele>
        <time>2022-01-14T11:22:34Z</time>
      </trkpt>
      <trkpt lat="44.99352" lon="6.46358">
        <ele>1926.5</ele>
        <time>2022-01-14T11:22:35Z</time>
      </trkpt>
      <trkpt lat="44.99352" lon="6.46358">
        <ele>1926.5</ele>
        <time>2022-01-14T11:22:36Z</time>
      </trkpt>
      <trkpt lat="44.99352" lon="6.46358">
        <ele>1926.5</ele>
        <time>2022-01-14T11:22:37Z</time>
      </trkpt>
      <trkpt lat="44.99352" lon="6.46358">
        <ele>1926.5</ele>
        <time>2022-01-14T11:22:38Z</time>
      </trkpt>
      <trkpt lat="44.99352" lon="6.46358">
        <ele>1926.5</ele>
        <time>2022-01-14T11:22:39Z</time>
      </trkpt>
      <trkpt lat="44.99352" lon="6.46358">
        <ele>1926.5</ele>
        <time>2022-01-14T11:22:40Z</time>
      </trkpt>
      <trkpt lat="44.99352" lon="6.46358">
        <ele>1926.5</ele>
        <time>2022-01-14T11:22:41Z</time>
      </trkpt>
      <trkpt lat="44.99352" lon="6.46358">
        <ele>1926.5</ele>
        <time>2022-01-14T11:22:42Z</time>
      </trkpt>
      <trkpt lat="44.99352" lon="6.46358">
        <ele>1926.5</ele>
        <time>2022-01-14T11:22:43Z</time>
      </trkpt>
      <trkpt lat="44.99352" lon="6.46358">
        <ele>1926.5</ele>
        <time>2022-01-14T11:22:44Z</time>
      </trkpt>
      <trkpt lat="44.99352" lon="6.46357">
        <ele>1926.5</ele>
        <time>2022-01-14T11:22:45Z</time>
      </trkpt>
      <trkpt lat="44.99352" lon="6.46357">
        <ele>1926.5</ele>
        <time>2022-01-14T11:22:46Z</time>
      </trkpt>
      <trkpt lat="44.99352" lon="6.46357">
        <ele>1926.5</ele>
        <time>2022-01-14T11:22:47Z</time>
      </trkpt>
      <trkpt lat="44.99352" lon="6.46357">
        <ele>1926.5</ele>
        <time>2022-01-14T11:22:48Z</time>
      </trkpt>
      <trkpt lat="44.99352" lon="6.46357">
        <ele>1926.5</ele>
        <time>2022-01-14T11:22:49Z</time>
      </trkpt>
      <trkpt lat="44.99352" lon="6.46357">
        <ele>1926.5</ele>
        <time>2022-01-14T11:22:50Z</time>
      </trkpt>
      <trkpt lat="44.99352" lon="6.46357">
        <ele>1926.5</ele>
        <time>2022-01-14T11:22:51Z</time>
      </trkpt>
      <trkpt lat="44.99352" lon="6.46357">
        <ele>1926.5</ele>
        <time>2022-01-14T11:22:52Z</time>
      </trkpt>
      <trkpt lat="44.99352" lon="6.46357">
        <ele>1926.5</ele>
        <time>2022-01-14T11:22:53Z</time>
      </trkpt>
      <trkpt lat="44.99352" lon="6.46357">
        <ele>1926.5</ele>
        <time>2022-01-14T11:22:54Z</time>
      </trkpt>
      <trkpt lat="44.99352" lon="6.46358">
        <ele>1926.5</ele>
        <time>2022-01-14T11:22:55Z</time>
      </trkpt>
      <trkpt lat="44.99353" lon="6.46359">
        <ele>1926.5</ele>
        <time>2022-01-14T11:22:56Z</time>
      </trkpt>
      <trkpt lat="44.99355" lon="6.4636">
        <ele>1926.5</ele>
        <time>2022-01-14T11:22:57Z</time>
      </trkpt>
      <trkpt lat="44.99357" lon="6.46358">
        <ele>1926.5</ele>
        <time>2022-01-14T11:22:58Z</time>
      </trkpt>
      <trkpt lat="44.99358" lon="6.46358">
        <ele>1923.9</ele>
        <time>2022-01-14T11:22:59Z</time>
      </trkpt>
      <trkpt lat="44.99359" lon="6.4636">
        <ele>1923.9</ele>
        <time>2022-01-14T11:23:00Z</time>
      </trkpt>
      <trkpt lat="44.99359" lon="6.46361">
        <ele>1923.9</ele>
        <time>2022-01-14T11:23:01Z</time>
      </trkpt>
      <trkpt lat="44.99358" lon="6.46362">
        <ele>1923.9</ele>
        <time>2022-01-14T11:23:02Z</time>
      </trkpt>
      <trkpt lat="44.99358" lon="6.46364">
        <ele>1923.9</ele>
        <time>2022-01-14T11:23:03Z</time>
      </trkpt>
      <trkpt lat="44.99358" lon="6.46366">
        <ele>1923.9</ele>
        <time>2022-01-14T11:23:04Z</time>
      </trkpt>
      <trkpt lat="44.99358" lon="6.46368">
        <ele>1923.9</ele>
        <time>2022-01-14T11:23:05Z</time>
      </trkpt>
      <trkpt lat="44.99359" lon="6.4637">
        <ele>1923.9</ele>
        <time>2022-01-14T11:23:06Z</time>
      </trkpt>
      <trkpt lat="44.99359" lon="6.46371">
        <ele>1923.9</ele>
        <time>2022-01-14T11:23:07Z</time>
      </trkpt>
      <trkpt lat="44.9936" lon="6.46371">
        <ele>1923.9</ele>
        <time>2022-01-14T11:23:08Z</time>
      </trkpt>
      <trkpt lat="44.9936" lon="6.46372">
        <ele>1923.9</ele>
        <time>2022-01-14T11:23:09Z</time>
      </trkpt>
      <trkpt lat="44.99362" lon="6.46374">
        <ele>1919</ele>
        <time>2022-01-14T11:23:10Z</time>
      </trkpt>
      <trkpt lat="44.99363" lon="6.46376">
        <ele>1919</ele>
        <time>2022-01-14T11:23:11Z</time>
      </trkpt>
      <trkpt lat="44.99364" lon="6.46379">
        <ele>1919</ele>
        <time>2022-01-14T11:23:12Z</time>
      </trkpt>
      <trkpt lat="44.99365" lon="6.46379">
        <ele>1919</ele>
        <time>2022-01-14T11:23:13Z</time>
      </trkpt>
      <trkpt lat="44.99368" lon="6.46378">
        <ele>1919</ele>
        <time>2022-01-14T11:23:14Z</time>
      </trkpt>
      <trkpt lat="44.99369" lon="6.46379">
        <ele>1919</ele>
        <time>2022-01-14T11:23:15Z</time>
      </trkpt>
      <trkpt lat="44.9937" lon="6.46379">
        <ele>1919</ele>
        <time>2022-01-14T11:23:16Z</time>
      </trkpt>
      <trkpt lat="44.99372" lon="6.46383">
        <ele>1916.5</ele>
        <time>2022-01-14T11:23:17Z</time>
      </trkpt>
      <trkpt lat="44.99372" lon="6.46391">
        <ele>1911.2</ele>
        <time>2022-01-14T11:23:18Z</time>
      </trkpt>
      <trkpt lat="44.99372" lon="6.46395">
        <ele>1911.2</ele>
        <time>2022-01-14T11:23:19Z</time>
      </trkpt>
      <trkpt lat="44.99371" lon="6.46401">
        <ele>1911.2</ele>
        <time>2022-01-14T11:23:20Z</time>
      </trkpt>
      <trkpt lat="44.99371" lon="6.46403">
        <ele>1911.2</ele>
        <time>2022-01-14T11:23:21Z</time>
      </trkpt>
      <trkpt lat="44.99371" lon="6.46407">
        <ele>1911.2</ele>
        <time>2022-01-14T11:23:22Z</time>
      </trkpt>
      <trkpt lat="44.99372" lon="6.46411">
        <ele>1906.2</ele>
        <time>2022-01-14T11:23:23Z</time>
      </trkpt>
      <trkpt lat="44.99375" lon="6.46412">
        <ele>1906.2</ele>
        <time>2022-01-14T11:23:24Z</time>
      </trkpt>
      <trkpt lat="44.99377" lon="6.46411">
        <ele>1906.2</ele>
        <time>2022-01-14T11:23:25Z</time>
      </trkpt>
      <trkpt lat="44.99381" lon="6.46413">
        <ele>1906.2</ele>
        <time>2022-01-14T11:23:26Z</time>
      </trkpt>
      <trkpt lat="44.99382" lon="6.46414">
        <ele>1906.2</ele>
        <time>2022-01-14T11:23:27Z</time>
      </trkpt>
      <trkpt lat="44.99384" lon="6.46418">
        <ele>1904</ele>
        <time>2022-01-14T11:23:28Z</time>
      </trkpt>
      <trkpt lat="44.99385" lon="6.46421">
        <ele>1904</ele>
        <time>2022-01-14T11:23:29Z</time>
      </trkpt>
      <trkpt lat="44.99386" lon="6.46426">
        <ele>1898.3</ele>
        <time>2022-01-14T11:23:30Z</time>
      </trkpt>
      <trkpt lat="44.99386" lon="6.4643">
        <ele>1898.3</ele>
        <time>2022-01-14T11:23:31Z</time>
      </trkpt>
      <trkpt lat="44.99386" lon="6.46431">
        <ele>1898.3</ele>
        <time>2022-01-14T11:23:32Z</time>
      </trkpt>
      <trkpt lat="44.99385" lon="6.46434">
        <ele>1898.3</ele>
        <time>2022-01-14T11:23:33Z</time>
      </trkpt>
      <trkpt lat="44.99384" lon="6.46436">
        <ele>1898.3</ele>
        <time>2022-01-14T11:23:34Z</time>
      </trkpt>
      <trkpt lat="44.99384" lon="6.46437">
        <ele>1898.3</ele>
        <time>2022-01-14T11:23:35Z</time>
      </trkpt>
      <trkpt lat="44.99383" lon="6.4644">
        <ele>1898.3</ele>
        <time>2022-01-14T11:23:36Z</time>
      </trkpt>
      <trkpt lat="44.99384" lon="6.46441">
        <ele>1898.3</ele>
        <time>2022-01-14T11:23:37Z</time>
      </trkpt>
      <trkpt lat="44.99386" lon="6.4644">
        <ele>1898.3</ele>
        <time>2022-01-14T11:23:38Z</time>
      </trkpt>
      <trkpt lat="44.99387" lon="6.46439">
        <ele>1898.3</ele>
        <time>2022-01-14T11:23:39Z</time>
      </trkpt>
      <trkpt lat="44.99389" lon="6.46438">
        <ele>1898.3</ele>
        <time>2022-01-14T11:23:40Z</time>
      </trkpt>
      <trkpt lat="44.9939" lon="6.46443">
        <ele>1891.5</ele>
        <time>2022-01-14T11:23:41Z</time>
      </trkpt>
      <trkpt lat="44.99391" lon="6.46445">
        <ele>1891.5</ele>
        <time>2022-01-14T11:23:42Z</time>
      </trkpt>
      <trkpt lat="44.99391" lon="6.46451">
        <ele>1891.5</ele>
        <time>2022-01-14T11:23:43Z</time>
      </trkpt>
      <trkpt lat="44.99391" lon="6.46454">
        <ele>1891.5</ele>
        <time>2022-01-14T11:23:44Z</time>
      </trkpt>
      <trkpt lat="44.9939" lon="6.46456">
        <ele>1891.5</ele>
        <time>2022-01-14T11:23:45Z</time>
      </trkpt>
      <trkpt lat="44.9939" lon="6.46459">
        <ele>1891.5</ele>
        <time>2022-01-14T11:23:46Z</time>
      </trkpt>
      <trkpt lat="44.9939" lon="6.46461">
        <ele>1885.3</ele>
        <time>2022-01-14T11:23:47Z</time>
      </trkpt>
      <trkpt lat="44.99391" lon="6.46465">
        <ele>1885.3</ele>
        <time>2022-01-14T11:23:48Z</time>
      </trkpt>
      <trkpt lat="44.99391" lon="6.46466">
        <ele>1885.3</ele>
        <time>2022-01-14T11:23:49Z</time>
      </trkpt>
      <trkpt lat="44.99392" lon="6.46466">
        <ele>1885.3</ele>
        <time>2022-01-14T11:23:50Z</time>
      </trkpt>
      <trkpt lat="44.99394" lon="6.46466">
        <ele>1882.1</ele>
        <time>2022-01-14T11:23:51Z</time>
      </trkpt>
      <trkpt lat="44.99397" lon="6.46468">
        <ele>1882.1</ele>
        <time>2022-01-14T11:23:52Z</time>
      </trkpt>
      <trkpt lat="44.99398" lon="6.46469">
        <ele>1882.1</ele>
        <time>2022-01-14T11:23:53Z</time>
      </trkpt>
      <trkpt lat="44.99399" lon="6.46474">
        <ele>1882.1</ele>
        <time>2022-01-14T11:23:54Z</time>
      </trkpt>
      <trkpt lat="44.99399" lon="6.46476">
        <ele>1882.1</ele>
        <time>2022-01-14T11:23:55Z</time>
      </trkpt>
      <trkpt lat="44.99399" lon="6.46477">
        <ele>1882.1</ele>
        <time>2022-01-14T11:23:56Z</time>
      </trkpt>
      <trkpt lat="44.994" lon="6.46477">
        <ele>1882.1</ele>
        <time>2022-01-14T11:23:57Z</time>
      </trkpt>
      <trkpt lat="44.994" lon="6.46479">
        <ele>1875.3</ele>
        <time>2022-01-14T11:23:58Z</time>
      </trkpt>
      <trkpt lat="44.994" lon="6.46479">
        <ele>1875.3</ele>
        <time>2022-01-14T11:23:59Z</time>
      </trkpt>
      <trkpt lat="44.994" lon="6.46479">
        <ele>1875.3</ele>
        <time>2022-01-14T11:24:00Z</time>
      </trkpt>
      <trkpt lat="44.994" lon="6.46479">
        <ele>1875.3</ele>
        <time>2022-01-14T11:24:01Z</time>
      </trkpt>
      <trkpt lat="44.994" lon="6.46479">
        <ele>1875.3</ele>
        <time>2022-01-14T11:24:02Z</time>
      </trkpt>
      <trkpt lat="44.99401" lon="6.46479">
        <ele>1875.3</ele>
        <time>2022-01-14T11:24:03Z</time>
      </trkpt>
      <trkpt lat="44.99401" lon="6.46479">
        <ele>1875.3</ele>
        <time>2022-01-14T11:24:04Z</time>
      </trkpt>
      <trkpt lat="44.99401" lon="6.46479">
        <ele>1875.3</ele>
        <time>2022-01-14T11:24:05Z</time>
      </trkpt>
      <trkpt lat="44.99401" lon="6.4648">
        <ele>1875.3</ele>
        <time>2022-01-14T11:24:06Z</time>
      </trkpt>
      <trkpt lat="44.99401" lon="6.4648">
        <ele>1875.3</ele>
        <time>2022-01-14T11:24:07Z</time>
      </trkpt>
      <trkpt lat="44.99401" lon="6.4648">
        <ele>1875.3</ele>
        <time>2022-01-14T11:24:08Z</time>
      </trkpt>
      <trkpt lat="44.99402" lon="6.4648">
        <ele>1875.3</ele>
        <time>2022-01-14T11:24:09Z</time>
      </trkpt>
      <trkpt lat="44.99402" lon="6.4648">
        <ele>1875.3</ele>
        <time>2022-01-14T11:24:10Z</time>
      </trkpt>
      <trkpt lat="44.99402" lon="6.46481">
        <ele>1875.3</ele>
        <time>2022-01-14T11:24:11Z</time>
      </trkpt>
      <trkpt lat="44.99402" lon="6.46481">
        <ele>1875.3</ele>
        <time>2022-01-14T11:24:12Z</time>
      </trkpt>
      <trkpt lat="44.99402" lon="6.46481">
        <ele>1875.3</ele>
        <time>2022-01-14T11:24:13Z</time>
      </trkpt>
      <trkpt lat="44.99402" lon="6.46481">
        <ele>1875.3</ele>
        <time>2022-01-14T11:24:14Z</time>
      </trkpt>
      <trkpt lat="44.99403" lon="6.46481">
        <ele>1875.3</ele>
        <time>2022-01-14T11:24:15Z</time>
      </trkpt>
      <trkpt lat="44.99403" lon="6.46482">
        <ele>1875.3</ele>
        <time>2022-01-14T11:24:16Z</time>
      </trkpt>
      <trkpt lat="44.99403" lon="6.46482">
        <ele>1875.3</ele>
        <time>2022-01-14T11:24:17Z</time>
      </trkpt>
      <trkpt lat="44.99403" lon="6.46482">
        <ele>1875.3</ele>
        <time>2022-01-14T11:24:18Z</time>
      </trkpt>
      <trkpt lat="44.99405" lon="6.46483">
        <ele>1875.3</ele>
        <time>2022-01-14T11:24:19Z</time>
      </trkpt>
      <trkpt lat="44.99405" lon="6.46485">
        <ele>1875.3</ele>
        <time>2022-01-14T11:24:20Z</time>
      </trkpt>
      <trkpt lat="44.99404" lon="6.4649">
        <ele>1875.3</ele>
        <time>2022-01-14T11:24:21Z</time>
      </trkpt>
      <trkpt lat="44.99404" lon="6.46491">
        <ele>1875.3</ele>
        <time>2022-01-14T11:24:22Z</time>
      </trkpt>
      <trkpt lat="44.99404" lon="6.46493">
        <ele>1875.3</ele>
        <time>2022-01-14T11:24:23Z</time>
      </trkpt>
      <trkpt lat="44.99404" lon="6.46495">
        <ele>1868.5</ele>
        <time>2022-01-14T11:24:24Z</time>
      </trkpt>
      <trkpt lat="44.99404" lon="6.46496">
        <ele>1868.5</ele>
        <time>2022-01-14T11:24:25Z</time>
      </trkpt>
      <trkpt lat="44.99404" lon="6.46497">
        <ele>1868.5</ele>
        <time>2022-01-14T11:24:26Z</time>
      </trkpt>
      <trkpt lat="44.99405" lon="6.46499">
        <ele>1868.5</ele>
        <time>2022-01-14T11:24:27Z</time>
      </trkpt>
      <trkpt lat="44.99406" lon="6.46499">
        <ele>1868.5</ele>
        <time>2022-01-14T11:24:28Z</time>
      </trkpt>
      <trkpt lat="44.99407" lon="6.46499">
        <ele>1865.3</ele>
        <time>2022-01-14T11:24:29Z</time>
      </trkpt>
      <trkpt lat="44.99408" lon="6.46501">
        <ele>1865.3</ele>
        <time>2022-01-14T11:24:30Z</time>
      </trkpt>
      <trkpt lat="44.99408" lon="6.46503">
        <ele>1865.3</ele>
        <time>2022-01-14T11:24:31Z</time>
      </trkpt>
      <trkpt lat="44.99408" lon="6.46504">
        <ele>1865.3</ele>
        <time>2022-01-14T11:24:32Z</time>
      </trkpt>
      <trkpt lat="44.99407" lon="6.46508">
        <ele>1865.3</ele>
        <time>2022-01-14T11:24:33Z</time>
      </trkpt>
      <trkpt lat="44.99405" lon="6.46512">
        <ele>1862</ele>
        <time>2022-01-14T11:24:34Z</time>
      </trkpt>
      <trkpt lat="44.99405" lon="6.46514">
        <ele>1862</ele>
        <time>2022-01-14T11:24:35Z</time>
      </trkpt>
      <trkpt lat="44.99406" lon="6.46516">
        <ele>1858.7</ele>
        <time>2022-01-14T11:24:36Z</time>
      </trkpt>
      <trkpt lat="44.99408" lon="6.46516">
        <ele>1858.7</ele>
        <time>2022-01-14T11:24:37Z</time>
      </trkpt>
      <trkpt lat="44.99409" lon="6.46517">
        <ele>1858.7</ele>
        <time>2022-01-14T11:24:38Z</time>
      </trkpt>
      <trkpt lat="44.9941" lon="6.46517">
        <ele>1858.7</ele>
        <time>2022-01-14T11:24:39Z</time>
      </trkpt>
      <trkpt lat="44.9941" lon="6.46517">
        <ele>1858.7</ele>
        <time>2022-01-14T11:24:40Z</time>
      </trkpt>
      <trkpt lat="44.99411" lon="6.46517">
        <ele>1858.7</ele>
        <time>2022-01-14T11:24:41Z</time>
      </trkpt>
      <trkpt lat="44.99412" lon="6.46519">
        <ele>1858.7</ele>
        <time>2022-01-14T11:24:42Z</time>
      </trkpt>
      <trkpt lat="44.99412" lon="6.46521">
        <ele>1858.7</ele>
        <time>2022-01-14T11:24:43Z</time>
      </trkpt>
      <trkpt lat="44.99412" lon="6.46522">
        <ele>1858.7</ele>
        <time>2022-01-14T11:24:44Z</time>
      </trkpt>
      <trkpt lat="44.99411" lon="6.46526">
        <ele>1858.7</ele>
        <time>2022-01-14T11:24:45Z</time>
      </trkpt>
      <trkpt lat="44.99408" lon="6.46528">
        <ele>1851.5</ele>
        <time>2022-01-14T11:24:46Z</time>
      </trkpt>
      <trkpt lat="44.99408" lon="6.46529">
        <ele>1851.5</ele>
        <time>2022-01-14T11:24:47Z</time>
      </trkpt>
      <trkpt lat="44.99408" lon="6.46533">
        <ele>1851.5</ele>
        <time>2022-01-14T11:24:48Z</time>
      </trkpt>
      <trkpt lat="44.99408" lon="6.46535">
        <ele>1851.5</ele>
        <time>2022-01-14T11:24:49Z</time>
      </trkpt>
      <trkpt lat="44.99411" lon="6.46536">
        <ele>1851.5</ele>
        <time>2022-01-14T11:24:50Z</time>
      </trkpt>
      <trkpt lat="44.99412" lon="6.46537">
        <ele>1851.5</ele>
        <time>2022-01-14T11:24:51Z</time>
      </trkpt>
      <trkpt lat="44.99413" lon="6.46539">
        <ele>1851.5</ele>
        <time>2022-01-14T11:24:52Z</time>
      </trkpt>
      <trkpt lat="44.99413" lon="6.4654">
        <ele>1851.5</ele>
        <time>2022-01-14T11:24:53Z</time>
      </trkpt>
      <trkpt lat="44.99413" lon="6.46541">
        <ele>1851.5</ele>
        <time>2022-01-14T11:24:54Z</time>
      </trkpt>
      <trkpt lat="44.99412" lon="6.46543">
        <ele>1851.5</ele>
        <time>2022-01-14T11:24:55Z</time>
      </trkpt>
      <trkpt lat="44.99412" lon="6.46544">
        <ele>1851.5</ele>
        <time>2022-01-14T11:24:56Z</time>
      </trkpt>
      <trkpt lat="44.99412" lon="6.46544">
        <ele>1851.5</ele>
        <time>2022-01-14T11:24:57Z</time>
      </trkpt>
      <trkpt lat="44.99411" lon="6.46544">
        <ele>1851.5</ele>
        <time>2022-01-14T11:24:58Z</time>
      </trkpt>
      <trkpt lat="44.99411" lon="6.46544">
        <ele>1851.5</ele>
        <time>2022-01-14T11:24:59Z</time>
      </trkpt>
      <trkpt lat="44.99411" lon="6.46544">
        <ele>1851.5</ele>
        <time>2022-01-14T11:25:00Z</time>
      </trkpt>
      <trkpt lat="44.99411" lon="6.46544">
        <ele>1851.5</ele>
        <time>2022-01-14T11:25:01Z</time>
      </trkpt>
      <trkpt lat="44.99411" lon="6.46544">
        <ele>1851.5</ele>
        <time>2022-01-14T11:25:02Z</time>
      </trkpt>
      <trkpt lat="44.99411" lon="6.46544">
        <ele>1851.5</ele>
        <time>2022-01-14T11:25:03Z</time>
      </trkpt>
      <trkpt lat="44.99412" lon="6.46543">
        <ele>1851.5</ele>
        <time>2022-01-14T11:25:04Z</time>
      </trkpt>
      <trkpt lat="44.99412" lon="6.46543">
        <ele>1851.5</ele>
        <time>2022-01-14T11:25:05Z</time>
      </trkpt>
      <trkpt lat="44.99412" lon="6.46543">
        <ele>1851.5</ele>
        <time>2022-01-14T11:25:06Z</time>
      </trkpt>
      <trkpt lat="44.99412" lon="6.46543">
        <ele>1851.5</ele>
        <time>2022-01-14T11:25:07Z</time>
      </trkpt>
      <trkpt lat="44.99412" lon="6.46543">
        <ele>1851.5</ele>
        <time>2022-01-14T11:25:08Z</time>
      </trkpt>
      <trkpt lat="44.99412" lon="6.46543">
        <ele>1851.5</ele>
        <time>2022-01-14T11:25:09Z</time>
      </trkpt>
      <trkpt lat="44.99412" lon="6.46543">
        <ele>1851.5</ele>
        <time>2022-01-14T11:25:10Z</time>
      </trkpt>
      <trkpt lat="44.99412" lon="6.46543">
        <ele>1851.5</ele>
        <time>2022-01-14T11:25:11Z</time>
      </trkpt>
      <trkpt lat="44.99412" lon="6.46542">
        <ele>1851.5</ele>
        <time>2022-01-14T11:25:12Z</time>
      </trkpt>
      <trkpt lat="44.99412" lon="6.46542">
        <ele>1851.5</ele>
        <time>2022-01-14T11:25:13Z</time>
      </trkpt>
      <trkpt lat="44.99413" lon="6.46542">
        <ele>1851.5</ele>
        <time>2022-01-14T11:25:14Z</time>
      </trkpt>
      <trkpt lat="44.99413" lon="6.46542">
        <ele>1851.5</ele>
        <time>2022-01-14T11:25:15Z</time>
      </trkpt>
      <trkpt lat="44.99414" lon="6.46543">
        <ele>1851.5</ele>
        <time>2022-01-14T11:25:16Z</time>
      </trkpt>
      <trkpt lat="44.99415" lon="6.46544">
        <ele>1851.5</ele>
        <time>2022-01-14T11:25:17Z</time>
      </trkpt>
      <trkpt lat="44.99417" lon="6.46545">
        <ele>1851.5</ele>
        <time>2022-01-14T11:25:18Z</time>
      </trkpt>
      <trkpt lat="44.99419" lon="6.46546">
        <ele>1841.8</ele>
        <time>2022-01-14T11:25:19Z</time>
      </trkpt>
      <trkpt lat="44.9942" lon="6.46546">
        <ele>1841.8</ele>
        <time>2022-01-14T11:25:20Z</time>
      </trkpt>
      <trkpt lat="44.99421" lon="6.46547">
        <ele>1841.8</ele>
        <time>2022-01-14T11:25:21Z</time>
      </trkpt>
      <trkpt lat="44.99421" lon="6.46548">
        <ele>1841.8</ele>
        <time>2022-01-14T11:25:22Z</time>
      </trkpt>
      <trkpt lat="44.99422" lon="6.46549">
        <ele>1841.8</ele>
        <time>2022-01-14T11:25:23Z</time>
      </trkpt>
      <trkpt lat="44.99422" lon="6.4655">
        <ele>1841.8</ele>
        <time>2022-01-14T11:25:24Z</time>
      </trkpt>
      <trkpt lat="44.99421" lon="6.46554">
        <ele>1841.8</ele>
        <time>2022-01-14T11:25:25Z</time>
      </trkpt>
      <trkpt lat="44.9942" lon="6.46555">
        <ele>1841.8</ele>
        <time>2022-01-14T11:25:26Z</time>
      </trkpt>
      <trkpt lat="44.99419" lon="6.46556">
        <ele>1841.8</ele>
        <time>2022-01-14T11:25:27Z</time>
      </trkpt>
      <trkpt lat="44.99418" lon="6.46559">
        <ele>1841.8</ele>
        <time>2022-01-14T11:25:28Z</time>
      </trkpt>
      <trkpt lat="44.99417" lon="6.46564">
        <ele>1838.2</ele>
        <time>2022-01-14T11:25:29Z</time>
      </trkpt>
      <trkpt lat="44.99416" lon="6.46565">
        <ele>1838.2</ele>
        <time>2022-01-14T11:25:30Z</time>
      </trkpt>
      <trkpt lat="44.99416" lon="6.46566">
        <ele>1838.2</ele>
        <time>2022-01-14T11:25:31Z</time>
      </trkpt>
      <trkpt lat="44.99416" lon="6.46568">
        <ele>1838.2</ele>
        <time>2022-01-14T11:25:32Z</time>
      </trkpt>
      <trkpt lat="44.99416" lon="6.46569">
        <ele>1838.2</ele>
        <time>2022-01-14T11:25:33Z</time>
      </trkpt>
      <trkpt lat="44.99417" lon="6.46569">
        <ele>1838.2</ele>
        <time>2022-01-14T11:25:34Z</time>
      </trkpt>
      <trkpt lat="44.99417" lon="6.46572">
        <ele>1838.2</ele>
        <time>2022-01-14T11:25:35Z</time>
      </trkpt>
      <trkpt lat="44.99417" lon="6.46574">
        <ele>1838.2</ele>
        <time>2022-01-14T11:25:36Z</time>
      </trkpt>
      <trkpt lat="44.99417" lon="6.46578">
        <ele>1838.2</ele>
        <time>2022-01-14T11:25:37Z</time>
      </trkpt>
      <trkpt lat="44.99417" lon="6.4658">
        <ele>1838.2</ele>
        <time>2022-01-14T11:25:38Z</time>
      </trkpt>
      <trkpt lat="44.99418" lon="6.46581">
        <ele>1831.2</ele>
        <time>2022-01-14T11:25:39Z</time>
      </trkpt>
      <trkpt lat="44.99419" lon="6.46581">
        <ele>1828.3</ele>
        <time>2022-01-14T11:25:40Z</time>
      </trkpt>
      <trkpt lat="44.99421" lon="6.46585">
        <ele>1828.3</ele>
        <time>2022-01-14T11:25:41Z</time>
      </trkpt>
      <trkpt lat="44.99422" lon="6.46587">
        <ele>1828.3</ele>
        <time>2022-01-14T11:25:42Z</time>
      </trkpt>
      <trkpt lat="44.99421" lon="6.46592">
        <ele>1828.3</ele>
        <time>2022-01-14T11:25:43Z</time>
      </trkpt>
      <trkpt lat="44.99421" lon="6.46594">
        <ele>1828.3</ele>
        <time>2022-01-14T11:25:44Z</time>
      </trkpt>
      <trkpt lat="44.9942" lon="6.46598">
        <ele>1822</ele>
        <time>2022-01-14T11:25:45Z</time>
      </trkpt>
      <trkpt lat="44.99419" lon="6.46601">
        <ele>1822</ele>
        <time>2022-01-14T11:25:46Z</time>
      </trkpt>
      <trkpt lat="44.99419" lon="6.46606">
        <ele>1822</ele>
        <time>2022-01-14T11:25:47Z</time>
      </trkpt>
      <trkpt lat="44.99419" lon="6.46607">
        <ele>1822</ele>
        <time>2022-01-14T11:25:48Z</time>
      </trkpt>
      <trkpt lat="44.99418" lon="6.46607">
        <ele>1824.9</ele>
        <time>2022-01-14T11:25:49Z</time>
      </trkpt>
      <trkpt lat="44.99418" lon="6.46608">
        <ele>1822</ele>
        <time>2022-01-14T11:25:50Z</time>
      </trkpt>
      <trkpt lat="44.99419" lon="6.4661">
        <ele>1822</ele>
        <time>2022-01-14T11:25:51Z</time>
      </trkpt>
      <trkpt lat="44.99419" lon="6.46611">
        <ele>1822</ele>
        <time>2022-01-14T11:25:52Z</time>
      </trkpt>
      <trkpt lat="44.99419" lon="6.46612">
        <ele>1822</ele>
        <time>2022-01-14T11:25:53Z</time>
      </trkpt>
      <trkpt lat="44.99419" lon="6.46616">
        <ele>1815.1</ele>
        <time>2022-01-14T11:25:54Z</time>
      </trkpt>
      <trkpt lat="44.99417" lon="6.46619">
        <ele>1818.1</ele>
        <time>2022-01-14T11:25:55Z</time>
      </trkpt>
      <trkpt lat="44.99417" lon="6.4662">
        <ele>1818.1</ele>
        <time>2022-01-14T11:25:56Z</time>
      </trkpt>
      <trkpt lat="44.99416" lon="6.46623">
        <ele>1818.1</ele>
        <time>2022-01-14T11:25:57Z</time>
      </trkpt>
      <trkpt lat="44.99416" lon="6.46624">
        <ele>1818.1</ele>
        <time>2022-01-14T11:25:58Z</time>
      </trkpt>
      <trkpt lat="44.99415" lon="6.46625">
        <ele>1818.1</ele>
        <time>2022-01-14T11:25:59Z</time>
      </trkpt>
      <trkpt lat="44.99415" lon="6.46625">
        <ele>1818.1</ele>
        <time>2022-01-14T11:26:00Z</time>
      </trkpt>
      <trkpt lat="44.99415" lon="6.46625">
        <ele>1818.1</ele>
        <time>2022-01-14T11:26:01Z</time>
      </trkpt>
      <trkpt lat="44.99414" lon="6.46627">
        <ele>1818.1</ele>
        <time>2022-01-14T11:26:02Z</time>
      </trkpt>
      <trkpt lat="44.99414" lon="6.46629">
        <ele>1818.1</ele>
        <time>2022-01-14T11:26:03Z</time>
      </trkpt>
      <trkpt lat="44.99414" lon="6.4663">
        <ele>1818.1</ele>
        <time>2022-01-14T11:26:04Z</time>
      </trkpt>
      <trkpt lat="44.99414" lon="6.4663">
        <ele>1818.1</ele>
        <time>2022-01-14T11:26:05Z</time>
      </trkpt>
      <trkpt lat="44.99414" lon="6.4663">
        <ele>1818.1</ele>
        <time>2022-01-14T11:26:06Z</time>
      </trkpt>
      <trkpt lat="44.99415" lon="6.46631">
        <ele>1818.1</ele>
        <time>2022-01-14T11:26:07Z</time>
      </trkpt>
      <trkpt lat="44.99415" lon="6.46631">
        <ele>1818.1</ele>
        <time>2022-01-14T11:26:08Z</time>
      </trkpt>
      <trkpt lat="44.99415" lon="6.46631">
        <ele>1818.1</ele>
        <time>2022-01-14T11:26:09Z</time>
      </trkpt>
      <trkpt lat="44.99415" lon="6.46631">
        <ele>1812</ele>
        <time>2022-01-14T11:26:10Z</time>
      </trkpt>
      <trkpt lat="44.99415" lon="6.46632">
        <ele>1812</ele>
        <time>2022-01-14T11:26:11Z</time>
      </trkpt>
      <trkpt lat="44.99415" lon="6.46632">
        <ele>1812</ele>
        <time>2022-01-14T11:26:12Z</time>
      </trkpt>
      <trkpt lat="44.99415" lon="6.46632">
        <ele>1812</ele>
        <time>2022-01-14T11:26:13Z</time>
      </trkpt>
      <trkpt lat="44.99415" lon="6.46633">
        <ele>1812</ele>
        <time>2022-01-14T11:26:14Z</time>
      </trkpt>
      <trkpt lat="44.99415" lon="6.46633">
        <ele>1812</ele>
        <time>2022-01-14T11:26:15Z</time>
      </trkpt>
      <trkpt lat="44.99415" lon="6.46633">
        <ele>1812</ele>
        <time>2022-01-14T11:26:16Z</time>
      </trkpt>
      <trkpt lat="44.99415" lon="6.46633">
        <ele>1812</ele>
        <time>2022-01-14T11:26:17Z</time>
      </trkpt>
      <trkpt lat="44.99416" lon="6.46634">
        <ele>1812</ele>
        <time>2022-01-14T11:26:18Z</time>
      </trkpt>
      <trkpt lat="44.99416" lon="6.46634">
        <ele>1812</ele>
        <time>2022-01-14T11:26:19Z</time>
      </trkpt>
      <trkpt lat="44.99416" lon="6.46634">
        <ele>1812</ele>
        <time>2022-01-14T11:26:20Z</time>
      </trkpt>
      <trkpt lat="44.99416" lon="6.46636">
        <ele>1812</ele>
        <time>2022-01-14T11:26:21Z</time>
      </trkpt>
      <trkpt lat="44.99416" lon="6.46637">
        <ele>1812</ele>
        <time>2022-01-14T11:26:22Z</time>
      </trkpt>
      <trkpt lat="44.99416" lon="6.46638">
        <ele>1812</ele>
        <time>2022-01-14T11:26:23Z</time>
      </trkpt>
      <trkpt lat="44.99416" lon="6.46639">
        <ele>1812</ele>
        <time>2022-01-14T11:26:24Z</time>
      </trkpt>
      <trkpt lat="44.99416" lon="6.46639">
        <ele>1812</ele>
        <time>2022-01-14T11:26:25Z</time>
      </trkpt>
      <trkpt lat="44.99415" lon="6.4664">
        <ele>1812</ele>
        <time>2022-01-14T11:26:26Z</time>
      </trkpt>
      <trkpt lat="44.99415" lon="6.4664">
        <ele>1812</ele>
        <time>2022-01-14T11:26:27Z</time>
      </trkpt>
      <trkpt lat="44.99415" lon="6.46641">
        <ele>1812</ele>
        <time>2022-01-14T11:26:28Z</time>
      </trkpt>
      <trkpt lat="44.99414" lon="6.46641">
        <ele>1812</ele>
        <time>2022-01-14T11:26:29Z</time>
      </trkpt>
      <trkpt lat="44.99415" lon="6.46641">
        <ele>1812</ele>
        <time>2022-01-14T11:26:30Z</time>
      </trkpt>
      <trkpt lat="44.99415" lon="6.46642">
        <ele>1812</ele>
        <time>2022-01-14T11:26:31Z</time>
      </trkpt>
      <trkpt lat="44.99415" lon="6.46642">
        <ele>1812</ele>
        <time>2022-01-14T11:26:32Z</time>
      </trkpt>
      <trkpt lat="44.99416" lon="6.46642">
        <ele>1812</ele>
        <time>2022-01-14T11:26:33Z</time>
      </trkpt>
      <trkpt lat="44.99416" lon="6.46642">
        <ele>1812</ele>
        <time>2022-01-14T11:26:34Z</time>
      </trkpt>
      <trkpt lat="44.99416" lon="6.46642">
        <ele>1812</ele>
        <time>2022-01-14T11:26:35Z</time>
      </trkpt>
      <trkpt lat="44.99417" lon="6.46642">
        <ele>1812</ele>
        <time>2022-01-14T11:26:36Z</time>
      </trkpt>
      <trkpt lat="44.99417" lon="6.46642">
        <ele>1812</ele>
        <time>2022-01-14T11:26:37Z</time>
      </trkpt>
      <trkpt lat="44.99416" lon="6.46643">
        <ele>1812</ele>
        <time>2022-01-14T11:26:38Z</time>
      </trkpt>
      <trkpt lat="44.99416" lon="6.46643">
        <ele>1812</ele>
        <time>2022-01-14T11:26:39Z</time>
      </trkpt>
      <trkpt lat="44.99416" lon="6.46644">
        <ele>1811.9</ele>
        <time>2022-01-14T11:26:40Z</time>
      </trkpt>
      <trkpt lat="44.99415" lon="6.46644">
        <ele>1811.9</ele>
        <time>2022-01-14T11:26:41Z</time>
      </trkpt>
      <trkpt lat="44.99415" lon="6.46645">
        <ele>1811.8</ele>
        <time>2022-01-14T11:26:42Z</time>
      </trkpt>
      <trkpt lat="44.99415" lon="6.46645">
        <ele>1811.7</ele>
        <time>2022-01-14T11:26:43Z</time>
      </trkpt>
      <trkpt lat="44.99415" lon="6.46646">
        <ele>1811.7</ele>
        <time>2022-01-14T11:26:44Z</time>
      </trkpt>
      <trkpt lat="44.99414" lon="6.46646">
        <ele>1811.6</ele>
        <time>2022-01-14T11:26:45Z</time>
      </trkpt>
      <trkpt lat="44.99413" lon="6.46647">
        <ele>1811.6</ele>
        <time>2022-01-14T11:26:46Z</time>
      </trkpt>
      <trkpt lat="44.99412" lon="6.46647">
        <ele>1811.5</ele>
        <time>2022-01-14T11:26:47Z</time>
      </trkpt>
      <trkpt lat="44.99412" lon="6.46648">
        <ele>1811.4</ele>
        <time>2022-01-14T11:26:48Z</time>
      </trkpt>
      <trkpt lat="44.99409" lon="6.46649">
        <ele>1806.3</ele>
        <time>2022-01-14T11:26:49Z</time>
      </trkpt>
      <trkpt lat="44.99409" lon="6.4665">
        <ele>1806.3</ele>
        <time>2022-01-14T11:26:50Z</time>
      </trkpt>
      <trkpt lat="44.99409" lon="6.46649">
        <ele>1806.3</ele>
        <time>2022-01-14T11:26:51Z</time>
      </trkpt>
      <trkpt lat="44.99409" lon="6.46649">
        <ele>1806.3</ele>
        <time>2022-01-14T11:26:52Z</time>
      </trkpt>
      <trkpt lat="44.9941" lon="6.46649">
        <ele>1806.2</ele>
        <time>2022-01-14T11:26:53Z</time>
      </trkpt>
      <trkpt lat="44.9941" lon="6.46649">
        <ele>1806.2</ele>
        <time>2022-01-14T11:26:54Z</time>
      </trkpt>
      <trkpt lat="44.9941" lon="6.46648">
        <ele>1810.9</ele>
        <time>2022-01-14T11:26:55Z</time>
      </trkpt>
      <trkpt lat="44.99411" lon="6.46648">
        <ele>1810.8</ele>
        <time>2022-01-14T11:26:56Z</time>
      </trkpt>
      <trkpt lat="44.99411" lon="6.46648">
        <ele>1810.8</ele>
        <time>2022-01-14T11:26:57Z</time>
      </trkpt>
      <trkpt lat="44.99411" lon="6.46648">
        <ele>1810.7</ele>
        <time>2022-01-14T11:26:58Z</time>
      </trkpt>
      <trkpt lat="44.99411" lon="6.46648">
        <ele>1810.7</ele>
        <time>2022-01-14T11:26:59Z</time>
      </trkpt>
      <trkpt lat="44.99412" lon="6.46648">
        <ele>1810.7</ele>
        <time>2022-01-14T11:27:00Z</time>
      </trkpt>
      <trkpt lat="44.99412" lon="6.46648">
        <ele>1810.7</ele>
        <time>2022-01-14T11:27:01Z</time>
      </trkpt>
      <trkpt lat="44.99412" lon="6.46648">
        <ele>1810.6</ele>
        <time>2022-01-14T11:27:02Z</time>
      </trkpt>
      <trkpt lat="44.99412" lon="6.46648">
        <ele>1810.6</ele>
        <time>2022-01-14T11:27:03Z</time>
      </trkpt>
      <trkpt lat="44.99413" lon="6.46647">
        <ele>1810</ele>
        <time>2022-01-14T11:27:04Z</time>
      </trkpt>
      <trkpt lat="44.99415" lon="6.46645">
        <ele>1810.4</ele>
        <time>2022-01-14T11:27:05Z</time>
      </trkpt>
      <trkpt lat="44.99418" lon="6.46643">
        <ele>1810.5</ele>
        <time>2022-01-14T11:27:06Z</time>
      </trkpt>
      <trkpt lat="44.99419" lon="6.46643">
        <ele>1808.5</ele>
        <time>2022-01-14T11:27:07Z</time>
      </trkpt>
      <trkpt lat="44.99421" lon="6.46643">
        <ele>1808.2</ele>
        <time>2022-01-14T11:27:08Z</time>
      </trkpt>
      <trkpt lat="44.99421" lon="6.46645">
        <ele>1808</ele>
        <time>2022-01-14T11:27:09Z</time>
      </trkpt>
      <trkpt lat="44.99423" lon="6.46649">
        <ele>1804</ele>
        <time>2022-01-14T11:27:10Z</time>
      </trkpt>
      <trkpt lat="44.99423" lon="6.46654">
        <ele>1803.6</ele>
        <time>2022-01-14T11:27:11Z</time>
      </trkpt>
      <trkpt lat="44.99425" lon="6.46655">
        <ele>1803.3</ele>
        <time>2022-01-14T11:27:12Z</time>
      </trkpt>
      <trkpt lat="44.99426" lon="6.46656">
        <ele>1801.7</ele>
        <time>2022-01-14T11:27:13Z</time>
      </trkpt>
      <trkpt lat="44.99429" lon="6.4666">
        <ele>1801.1</ele>
        <time>2022-01-14T11:27:14Z</time>
      </trkpt>
      <trkpt lat="44.9943" lon="6.46663">
        <ele>1800.6</ele>
        <time>2022-01-14T11:27:15Z</time>
      </trkpt>
      <trkpt lat="44.99431" lon="6.46667">
        <ele>1795.1</ele>
        <time>2022-01-14T11:27:16Z</time>
      </trkpt>
      <trkpt lat="44.99433" lon="6.4667">
        <ele>1794.5</ele>
        <time>2022-01-14T11:27:17Z</time>
      </trkpt>
      <trkpt lat="44.99434" lon="6.46674">
        <ele>1794</ele>
        <time>2022-01-14T11:27:18Z</time>
      </trkpt>
      <trkpt lat="44.99434" lon="6.46676">
        <ele>1793.5</ele>
        <time>2022-01-14T11:27:19Z</time>
      </trkpt>
      <trkpt lat="44.99434" lon="6.46679">
        <ele>1793</ele>
        <time>2022-01-14T11:27:20Z</time>
      </trkpt>
      <trkpt lat="44.99434" lon="6.46681">
        <ele>1792.7</ele>
        <time>2022-01-14T11:27:21Z</time>
      </trkpt>
      <trkpt lat="44.99433" lon="6.46688">
        <ele>1789.5</ele>
        <time>2022-01-14T11:27:22Z</time>
      </trkpt>
      <trkpt lat="44.99431" lon="6.46692">
        <ele>1788.5</ele>
        <time>2022-01-14T11:27:23Z</time>
      </trkpt>
      <trkpt lat="44.99431" lon="6.46693">
        <ele>1787.9</ele>
        <time>2022-01-14T11:27:24Z</time>
      </trkpt>
      <trkpt lat="44.99431" lon="6.46696">
        <ele>1787.5</ele>
        <time>2022-01-14T11:27:25Z</time>
      </trkpt>
      <trkpt lat="44.99431" lon="6.46698">
        <ele>1787.1</ele>
        <time>2022-01-14T11:27:26Z</time>
      </trkpt>
      <trkpt lat="44.9943" lon="6.46704">
        <ele>1785.4</ele>
        <time>2022-01-14T11:27:27Z</time>
      </trkpt>
      <trkpt lat="44.9943" lon="6.46705">
        <ele>1784.9</ele>
        <time>2022-01-14T11:27:28Z</time>
      </trkpt>
      <trkpt lat="44.99429" lon="6.46709">
        <ele>1784.7</ele>
        <time>2022-01-14T11:27:29Z</time>
      </trkpt>
      <trkpt lat="44.99429" lon="6.46714">
        <ele>1784.2</ele>
        <time>2022-01-14T11:27:30Z</time>
      </trkpt>
      <trkpt lat="44.99429" lon="6.46716">
        <ele>1783.9</ele>
        <time>2022-01-14T11:27:31Z</time>
      </trkpt>
      <trkpt lat="44.99429" lon="6.46718">
        <ele>1781.6</ele>
        <time>2022-01-14T11:27:32Z</time>
      </trkpt>
      <trkpt lat="44.9943" lon="6.46719">
        <ele>1781.4</ele>
        <time>2022-01-14T11:27:33Z</time>
      </trkpt>
      <trkpt lat="44.9943" lon="6.46719">
        <ele>1781.2</ele>
        <time>2022-01-14T11:27:34Z</time>
      </trkpt>
      <trkpt lat="44.9943" lon="6.4672">
        <ele>1781</ele>
        <time>2022-01-14T11:27:35Z</time>
      </trkpt>
      <trkpt lat="44.99431" lon="6.46722">
        <ele>1779.9</ele>
        <time>2022-01-14T11:27:36Z</time>
      </trkpt>
      <trkpt lat="44.99431" lon="6.46724">
        <ele>1779.8</ele>
        <time>2022-01-14T11:27:37Z</time>
      </trkpt>
      <trkpt lat="44.99431" lon="6.46725">
        <ele>1779.3</ele>
        <time>2022-01-14T11:27:38Z</time>
      </trkpt>
      <trkpt lat="44.99431" lon="6.46725">
        <ele>1779</ele>
        <time>2022-01-14T11:27:39Z</time>
      </trkpt>
      <trkpt lat="44.99431" lon="6.46727">
        <ele>1778.8</ele>
        <time>2022-01-14T11:27:40Z</time>
      </trkpt>
      <trkpt lat="44.99431" lon="6.46728">
        <ele>1778.4</ele>
        <time>2022-01-14T11:27:41Z</time>
      </trkpt>
      <trkpt lat="44.99431" lon="6.46728">
        <ele>1778</ele>
        <time>2022-01-14T11:27:42Z</time>
      </trkpt>
      <trkpt lat="44.9943" lon="6.46729">
        <ele>1778.6</ele>
        <time>2022-01-14T11:27:43Z</time>
      </trkpt>
      <trkpt lat="44.9943" lon="6.46729">
        <ele>1778.4</ele>
        <time>2022-01-14T11:27:44Z</time>
      </trkpt>
      <trkpt lat="44.99429" lon="6.46731">
        <ele>1778.3</ele>
        <time>2022-01-14T11:27:45Z</time>
      </trkpt>
      <trkpt lat="44.99428" lon="6.46731">
        <ele>1778.1</ele>
        <time>2022-01-14T11:27:46Z</time>
      </trkpt>
      <trkpt lat="44.99428" lon="6.46731">
        <ele>1778</ele>
        <time>2022-01-14T11:27:47Z</time>
      </trkpt>
      <trkpt lat="44.99429" lon="6.46731">
        <ele>1777.9</ele>
        <time>2022-01-14T11:27:48Z</time>
      </trkpt>
      <trkpt lat="44.99429" lon="6.46731">
        <ele>1777.8</ele>
        <time>2022-01-14T11:27:49Z</time>
      </trkpt>
      <trkpt lat="44.99429" lon="6.46732">
        <ele>1777.7</ele>
        <time>2022-01-14T11:27:50Z</time>
      </trkpt>
      <trkpt lat="44.99429" lon="6.46732">
        <ele>1777.7</ele>
        <time>2022-01-14T11:27:51Z</time>
      </trkpt>
      <trkpt lat="44.99429" lon="6.46732">
        <ele>1777.9</ele>
        <time>2022-01-14T11:27:52Z</time>
      </trkpt>
      <trkpt lat="44.99429" lon="6.46733">
        <ele>1778.4</ele>
        <time>2022-01-14T11:27:53Z</time>
      </trkpt>
      <trkpt lat="44.99429" lon="6.46733">
        <ele>1778.1</ele>
        <time>2022-01-14T11:27:54Z</time>
      </trkpt>
      <trkpt lat="44.99429" lon="6.46733">
        <ele>1777.7</ele>
        <time>2022-01-14T11:27:55Z</time>
      </trkpt>
      <trkpt lat="44.99429" lon="6.46734">
        <ele>1777.5</ele>
        <time>2022-01-14T11:27:56Z</time>
      </trkpt>
      <trkpt lat="44.99429" lon="6.46734">
        <ele>1777.5</ele>
        <time>2022-01-14T11:27:57Z</time>
      </trkpt>
      <trkpt lat="44.99429" lon="6.46734">
        <ele>1776.7</ele>
        <time>2022-01-14T11:27:58Z</time>
      </trkpt>
      <trkpt lat="44.99429" lon="6.46735">
        <ele>1776.6</ele>
        <time>2022-01-14T11:27:59Z</time>
      </trkpt>
      <trkpt lat="44.99429" lon="6.46735">
        <ele>1776.4</ele>
        <time>2022-01-14T11:28:00Z</time>
      </trkpt>
      <trkpt lat="44.99429" lon="6.46736">
        <ele>1776.5</ele>
        <time>2022-01-14T11:28:01Z</time>
      </trkpt>
      <trkpt lat="44.99429" lon="6.46736">
        <ele>1776.3</ele>
        <time>2022-01-14T11:28:02Z</time>
      </trkpt>
      <trkpt lat="44.99429" lon="6.46736">
        <ele>1776.2</ele>
        <time>2022-01-14T11:28:03Z</time>
      </trkpt>
      <trkpt lat="44.99429" lon="6.46737">
        <ele>1775.8</ele>
        <time>2022-01-14T11:28:04Z</time>
      </trkpt>
      <trkpt lat="44.99429" lon="6.46737">
        <ele>1775</ele>
        <time>2022-01-14T11:28:05Z</time>
      </trkpt>
      <trkpt lat="44.99429" lon="6.46742">
        <ele>1773.7</ele>
        <time>2022-01-14T11:28:06Z</time>
      </trkpt>
      <trkpt lat="44.99429" lon="6.46745">
        <ele>1772</ele>
        <time>2022-01-14T11:28:07Z</time>
      </trkpt>
      <trkpt lat="44.9943" lon="6.46746">
        <ele>1771</ele>
        <time>2022-01-14T11:28:08Z</time>
      </trkpt>
      <trkpt lat="44.9943" lon="6.46748">
        <ele>1770.2</ele>
        <time>2022-01-14T11:28:09Z</time>
      </trkpt>
      <trkpt lat="44.99431" lon="6.46749">
        <ele>1769.2</ele>
        <time>2022-01-14T11:28:10Z</time>
      </trkpt>
      <trkpt lat="44.99432" lon="6.46755">
        <ele>1767.9</ele>
        <time>2022-01-14T11:28:11Z</time>
      </trkpt>
      <trkpt lat="44.99433" lon="6.46756">
        <ele>1767</ele>
        <time>2022-01-14T11:28:12Z</time>
      </trkpt>
      <trkpt lat="44.99433" lon="6.4676">
        <ele>1766.2</ele>
        <time>2022-01-14T11:28:13Z</time>
      </trkpt>
      <trkpt lat="44.99434" lon="6.46761">
        <ele>1765.7</ele>
        <time>2022-01-14T11:28:14Z</time>
      </trkpt>
      <trkpt lat="44.99436" lon="6.46764">
        <ele>1765.2</ele>
        <time>2022-01-14T11:28:15Z</time>
      </trkpt>
      <trkpt lat="44.99437" lon="6.46765">
        <ele>1764.5</ele>
        <time>2022-01-14T11:28:16Z</time>
      </trkpt>
      <trkpt lat="44.99438" lon="6.46766">
        <ele>1764</ele>
        <time>2022-01-14T11:28:17Z</time>
      </trkpt>
      <trkpt lat="44.99438" lon="6.46767">
        <ele>1763.6</ele>
        <time>2022-01-14T11:28:18Z</time>
      </trkpt>
      <trkpt lat="44.99439" lon="6.46769">
        <ele>1763.5</ele>
        <time>2022-01-14T11:28:19Z</time>
      </trkpt>
      <trkpt lat="44.99439" lon="6.4677">
        <ele>1763.1</ele>
        <time>2022-01-14T11:28:20Z</time>
      </trkpt>
      <trkpt lat="44.99441" lon="6.46773">
        <ele>1762.9</ele>
        <time>2022-01-14T11:28:21Z</time>
      </trkpt>
      <trkpt lat="44.99441" lon="6.46775">
        <ele>1762.7</ele>
        <time>2022-01-14T11:28:22Z</time>
      </trkpt>
      <trkpt lat="44.99442" lon="6.46783">
        <ele>1762.5</ele>
        <time>2022-01-14T11:28:23Z</time>
      </trkpt>
      <trkpt lat="44.99442" lon="6.46788">
        <ele>1760.7</ele>
        <time>2022-01-14T11:28:24Z</time>
      </trkpt>
      <trkpt lat="44.99442" lon="6.4679">
        <ele>1759.5</ele>
        <time>2022-01-14T11:28:25Z</time>
      </trkpt>
      <trkpt lat="44.99442" lon="6.46799">
        <ele>1758.3</ele>
        <time>2022-01-14T11:28:26Z</time>
      </trkpt>
      <trkpt lat="44.99442" lon="6.4681">
        <ele>1755.3</ele>
        <time>2022-01-14T11:28:27Z</time>
      </trkpt>
      <trkpt lat="44.99441" lon="6.46819">
        <ele>1751.7</ele>
        <time>2022-01-14T11:28:28Z</time>
      </trkpt>
      <trkpt lat="44.9944" lon="6.46829">
        <ele>1748.7</ele>
        <time>2022-01-14T11:28:29Z</time>
      </trkpt>
      <trkpt lat="44.99439" lon="6.46838">
        <ele>1746.3</ele>
        <time>2022-01-14T11:28:30Z</time>
      </trkpt>
      <trkpt lat="44.99438" lon="6.46845">
        <ele>1745.1</ele>
        <time>2022-01-14T11:28:31Z</time>
      </trkpt>
      <trkpt lat="44.99439" lon="6.4685">
        <ele>1744.5</ele>
        <time>2022-01-14T11:28:32Z</time>
      </trkpt>
      <trkpt lat="44.9944" lon="6.46851">
        <ele>1744.1</ele>
        <time>2022-01-14T11:28:33Z</time>
      </trkpt>
      <trkpt lat="44.99441" lon="6.46856">
        <ele>1743.7</ele>
        <time>2022-01-14T11:28:34Z</time>
      </trkpt>
      <trkpt lat="44.99442" lon="6.46858">
        <ele>1743.5</ele>
        <time>2022-01-14T11:28:35Z</time>
      </trkpt>
      <trkpt lat="44.99442" lon="6.46863">
        <ele>1743.3</ele>
        <time>2022-01-14T11:28:36Z</time>
      </trkpt>
      <trkpt lat="44.99443" lon="6.46865">
        <ele>1743.1</ele>
        <time>2022-01-14T11:28:37Z</time>
      </trkpt>
      <trkpt lat="44.99442" lon="6.46869">
        <ele>1742.1</ele>
        <time>2022-01-14T11:28:38Z</time>
      </trkpt>
      <trkpt lat="44.99442" lon="6.4687">
        <ele>1740.9</ele>
        <time>2022-01-14T11:28:39Z</time>
      </trkpt>
      <trkpt lat="44.99441" lon="6.46872">
        <ele>1740.1</ele>
        <time>2022-01-14T11:28:40Z</time>
      </trkpt>
      <trkpt lat="44.99442" lon="6.46874">
        <ele>1739.5</ele>
        <time>2022-01-14T11:28:41Z</time>
      </trkpt>
      <trkpt lat="44.99441" lon="6.46874">
        <ele>1738.7</ele>
        <time>2022-01-14T11:28:42Z</time>
      </trkpt>
      <trkpt lat="44.99441" lon="6.46874">
        <ele>1738.9</ele>
        <time>2022-01-14T11:28:43Z</time>
      </trkpt>
      <trkpt lat="44.99441" lon="6.46874">
        <ele>1738.9</ele>
        <time>2022-01-14T11:28:44Z</time>
      </trkpt>
      <trkpt lat="44.99441" lon="6.46874">
        <ele>1738.7</ele>
        <time>2022-01-14T11:28:45Z</time>
      </trkpt>
      <trkpt lat="44.99441" lon="6.46874">
        <ele>1738.7</ele>
        <time>2022-01-14T11:28:46Z</time>
      </trkpt>
      <trkpt lat="44.99441" lon="6.46874">
        <ele>1738.7</ele>
        <time>2022-01-14T11:28:47Z</time>
      </trkpt>
      <trkpt lat="44.99441" lon="6.46874">
        <ele>1738.7</ele>
        <time>2022-01-14T11:28:48Z</time>
      </trkpt>
      <trkpt lat="44.99441" lon="6.46874">
        <ele>1738.7</ele>
        <time>2022-01-14T11:28:49Z</time>
      </trkpt>
      <trkpt lat="44.99441" lon="6.46874">
        <ele>1738.7</ele>
        <time>2022-01-14T11:28:50Z</time>
      </trkpt>
      <trkpt lat="44.99441" lon="6.46874">
        <ele>1738.7</ele>
        <time>2022-01-14T11:28:51Z</time>
      </trkpt>
      <trkpt lat="44.99441" lon="6.46874">
        <ele>1738.5</ele>
        <time>2022-01-14T11:28:52Z</time>
      </trkpt>
      <trkpt lat="44.99441" lon="6.46874">
        <ele>1738.5</ele>
        <time>2022-01-14T11:28:53Z</time>
      </trkpt>
      <trkpt lat="44.99441" lon="6.46875">
        <ele>1738.5</ele>
        <time>2022-01-14T11:28:54Z</time>
      </trkpt>
      <trkpt lat="44.9944" lon="6.46875">
        <ele>1738.5</ele>
        <time>2022-01-14T11:28:55Z</time>
      </trkpt>
      <trkpt lat="44.9944" lon="6.46875">
        <ele>1738.3</ele>
        <time>2022-01-14T11:28:56Z</time>
      </trkpt>
      <trkpt lat="44.9944" lon="6.46877">
        <ele>1738.3</ele>
        <time>2022-01-14T11:28:57Z</time>
      </trkpt>
      <trkpt lat="44.9944" lon="6.46878">
        <ele>1737.7</ele>
        <time>2022-01-14T11:28:58Z</time>
      </trkpt>
      <trkpt lat="44.9944" lon="6.46881">
        <ele>1737.3</ele>
        <time>2022-01-14T11:28:59Z</time>
      </trkpt>
      <trkpt lat="44.9944" lon="6.46885">
        <ele>1736.5</ele>
        <time>2022-01-14T11:29:00Z</time>
      </trkpt>
      <trkpt lat="44.99441" lon="6.4689">
        <ele>1735.1</ele>
        <time>2022-01-14T11:29:01Z</time>
      </trkpt>
      <trkpt lat="44.99441" lon="6.4689">
        <ele>1733.5</ele>
        <time>2022-01-14T11:29:02Z</time>
      </trkpt>
      <trkpt lat="44.99442" lon="6.46893">
        <ele>1733.1</ele>
        <time>2022-01-14T11:29:03Z</time>
      </trkpt>
      <trkpt lat="44.99444" lon="6.46896">
        <ele>1732.3</ele>
        <time>2022-01-14T11:29:04Z</time>
      </trkpt>
      <trkpt lat="44.99445" lon="6.469">
        <ele>1731.3</ele>
        <time>2022-01-14T11:29:05Z</time>
      </trkpt>
      <trkpt lat="44.99446" lon="6.46902">
        <ele>1730.3</ele>
        <time>2022-01-14T11:29:06Z</time>
      </trkpt>
      <trkpt lat="44.99447" lon="6.46904">
        <ele>1729.3</ele>
        <time>2022-01-14T11:29:07Z</time>
      </trkpt>
      <trkpt lat="44.99448" lon="6.46905">
        <ele>1728.7</ele>
        <time>2022-01-14T11:29:08Z</time>
      </trkpt>
      <trkpt lat="44.99449" lon="6.46906">
        <ele>1728.3</ele>
        <time>2022-01-14T11:29:09Z</time>
      </trkpt>
      <trkpt lat="44.9945" lon="6.46907">
        <ele>1727.7</ele>
        <time>2022-01-14T11:29:10Z</time>
      </trkpt>
      <trkpt lat="44.99451" lon="6.46908">
        <ele>1727.5</ele>
        <time>2022-01-14T11:29:11Z</time>
      </trkpt>
      <trkpt lat="44.99451" lon="6.46909">
        <ele>1727.1</ele>
        <time>2022-01-14T11:29:12Z</time>
      </trkpt>
      <trkpt lat="44.99451" lon="6.46911">
        <ele>1726.5</ele>
        <time>2022-01-14T11:29:13Z</time>
      </trkpt>
      <trkpt lat="44.99452" lon="6.46913">
        <ele>1725.9</ele>
        <time>2022-01-14T11:29:14Z</time>
      </trkpt>
      <trkpt lat="44.99453" lon="6.46918">
        <ele>1725.1</ele>
        <time>2022-01-14T11:29:15Z</time>
      </trkpt>
      <trkpt lat="44.99453" lon="6.46918">
        <ele>1724.1</ele>
        <time>2022-01-14T11:29:16Z</time>
      </trkpt>
      <trkpt lat="44.99453" lon="6.4692">
        <ele>1723.7</ele>
        <time>2022-01-14T11:29:17Z</time>
      </trkpt>
      <trkpt lat="44.99454" lon="6.46921">
        <ele>1723.5</ele>
        <time>2022-01-14T11:29:18Z</time>
      </trkpt>
      <trkpt lat="44.99456" lon="6.46921">
        <ele>1723.5</ele>
        <time>2022-01-14T11:29:19Z</time>
      </trkpt>
      <trkpt lat="44.99458" lon="6.46925">
        <ele>1723.3</ele>
        <time>2022-01-14T11:29:20Z</time>
      </trkpt>
      <trkpt lat="44.99458" lon="6.46928">
        <ele>1722.9</ele>
        <time>2022-01-14T11:29:21Z</time>
      </trkpt>
      <trkpt lat="44.99457" lon="6.46933">
        <ele>1722.1</ele>
        <time>2022-01-14T11:29:22Z</time>
      </trkpt>
      <trkpt lat="44.99457" lon="6.46935">
        <ele>1721.5</ele>
        <time>2022-01-14T11:29:23Z</time>
      </trkpt>
      <trkpt lat="44.99455" lon="6.4694">
        <ele>1721.3</ele>
        <time>2022-01-14T11:29:24Z</time>
      </trkpt>
      <trkpt lat="44.99455" lon="6.46942">
        <ele>1721.1</ele>
        <time>2022-01-14T11:29:25Z</time>
      </trkpt>
      <trkpt lat="44.99454" lon="6.46947">
        <ele>1720.7</ele>
        <time>2022-01-14T11:29:26Z</time>
      </trkpt>
      <trkpt lat="44.99452" lon="6.46951">
        <ele>1719.9</ele>
        <time>2022-01-14T11:29:27Z</time>
      </trkpt>
      <trkpt lat="44.99452" lon="6.46952">
        <ele>1719.3</ele>
        <time>2022-01-14T11:29:28Z</time>
      </trkpt>
      <trkpt lat="44.99451" lon="6.46955">
        <ele>1718.7</ele>
        <time>2022-01-14T11:29:29Z</time>
      </trkpt>
      <trkpt lat="44.99451" lon="6.46957">
        <ele>1718.1</ele>
        <time>2022-01-14T11:29:30Z</time>
      </trkpt>
      <trkpt lat="44.9945" lon="6.46959">
        <ele>1717.7</ele>
        <time>2022-01-14T11:29:31Z</time>
      </trkpt>
      <trkpt lat="44.99449" lon="6.46961">
        <ele>1717.1</ele>
        <time>2022-01-14T11:29:32Z</time>
      </trkpt>
      <trkpt lat="44.99448" lon="6.46965">
        <ele>1716.5</ele>
        <time>2022-01-14T11:29:33Z</time>
      </trkpt>
      <trkpt lat="44.99448" lon="6.46967">
        <ele>1716.1</ele>
        <time>2022-01-14T11:29:34Z</time>
      </trkpt>
      <trkpt lat="44.99448" lon="6.46971">
        <ele>1715.1</ele>
        <time>2022-01-14T11:29:35Z</time>
      </trkpt>
      <trkpt lat="44.99448" lon="6.46974">
        <ele>1713.7</ele>
        <time>2022-01-14T11:29:36Z</time>
      </trkpt>
      <trkpt lat="44.99448" lon="6.46975">
        <ele>1711.3</ele>
        <time>2022-01-14T11:29:37Z</time>
      </trkpt>
      <trkpt lat="44.99448" lon="6.46976">
        <ele>1709.1</ele>
        <time>2022-01-14T11:29:38Z</time>
      </trkpt>
      <trkpt lat="44.99447" lon="6.46981">
        <ele>1711.5</ele>
        <time>2022-01-14T11:29:39Z</time>
      </trkpt>
      <trkpt lat="44.99448" lon="6.46986">
        <ele>1709.1</ele>
        <time>2022-01-14T11:29:40Z</time>
      </trkpt>
      <trkpt lat="44.99448" lon="6.46988">
        <ele>1706.7</ele>
        <time>2022-01-14T11:29:41Z</time>
      </trkpt>
      <trkpt lat="44.99449" lon="6.4699">
        <ele>1707.3</ele>
        <time>2022-01-14T11:29:42Z</time>
      </trkpt>
      <trkpt lat="44.9945" lon="6.4699">
        <ele>1706.9</ele>
        <time>2022-01-14T11:29:43Z</time>
      </trkpt>
      <trkpt lat="44.99451" lon="6.46991">
        <ele>1706.7</ele>
        <time>2022-01-14T11:29:44Z</time>
      </trkpt>
      <trkpt lat="44.99452" lon="6.46991">
        <ele>1706.3</ele>
        <time>2022-01-14T11:29:45Z</time>
      </trkpt>
      <trkpt lat="44.99453" lon="6.46993">
        <ele>1705.3</ele>
        <time>2022-01-14T11:29:46Z</time>
      </trkpt>
      <trkpt lat="44.99453" lon="6.46995">
        <ele>1702.1</ele>
        <time>2022-01-14T11:29:47Z</time>
      </trkpt>
      <trkpt lat="44.99453" lon="6.46996">
        <ele>1703.3</ele>
        <time>2022-01-14T11:29:48Z</time>
      </trkpt>
      <trkpt lat="44.99454" lon="6.46999">
        <ele>1703.1</ele>
        <time>2022-01-14T11:29:49Z</time>
      </trkpt>
      <trkpt lat="44.99454" lon="6.47001">
        <ele>1702.1</ele>
        <time>2022-01-14T11:29:50Z</time>
      </trkpt>
      <trkpt lat="44.99454" lon="6.47002">
        <ele>1701.3</ele>
        <time>2022-01-14T11:29:51Z</time>
      </trkpt>
      <trkpt lat="44.99455" lon="6.47003">
        <ele>1700.9</ele>
        <time>2022-01-14T11:29:52Z</time>
      </trkpt>
      <trkpt lat="44.99456" lon="6.47005">
        <ele>1700.5</ele>
        <time>2022-01-14T11:29:53Z</time>
      </trkpt>
      <trkpt lat="44.99457" lon="6.47006">
        <ele>1700.1</ele>
        <time>2022-01-14T11:29:54Z</time>
      </trkpt>
      <trkpt lat="44.99457" lon="6.47007">
        <ele>1699.5</ele>
        <time>2022-01-14T11:29:55Z</time>
      </trkpt>
      <trkpt lat="44.99458" lon="6.47008">
        <ele>1699.1</ele>
        <time>2022-01-14T11:29:56Z</time>
      </trkpt>
      <trkpt lat="44.99458" lon="6.47008">
        <ele>1698.9</ele>
        <time>2022-01-14T11:29:57Z</time>
      </trkpt>
      <trkpt lat="44.99458" lon="6.4701">
        <ele>1698.7</ele>
        <time>2022-01-14T11:29:58Z</time>
      </trkpt>
      <trkpt lat="44.99457" lon="6.47012">
        <ele>1698.3</ele>
        <time>2022-01-14T11:29:59Z</time>
      </trkpt>
      <trkpt lat="44.99457" lon="6.47012">
        <ele>1698.1</ele>
        <time>2022-01-14T11:30:00Z</time>
      </trkpt>
      <trkpt lat="44.99457" lon="6.47013">
        <ele>1698.1</ele>
        <time>2022-01-14T11:30:01Z</time>
      </trkpt>
      <trkpt lat="44.99457" lon="6.47013">
        <ele>1697.9</ele>
        <time>2022-01-14T11:30:02Z</time>
      </trkpt>
      <trkpt lat="44.99457" lon="6.47013">
        <ele>1697.9</ele>
        <time>2022-01-14T11:30:03Z</time>
      </trkpt>
      <trkpt lat="44.99457" lon="6.47013">
        <ele>1697.9</ele>
        <time>2022-01-14T11:30:04Z</time>
      </trkpt>
      <trkpt lat="44.99457" lon="6.47013">
        <ele>1697.9</ele>
        <time>2022-01-14T11:30:05Z</time>
      </trkpt>
      <trkpt lat="44.99457" lon="6.47013">
        <ele>1697.9</ele>
        <time>2022-01-14T11:30:06Z</time>
      </trkpt>
      <trkpt lat="44.99457" lon="6.47013">
        <ele>1697.9</ele>
        <time>2022-01-14T11:30:07Z</time>
      </trkpt>
      <trkpt lat="44.99457" lon="6.47013">
        <ele>1697.7</ele>
        <time>2022-01-14T11:30:08Z</time>
      </trkpt>
      <trkpt lat="44.99457" lon="6.47014">
        <ele>1697.7</ele>
        <time>2022-01-14T11:30:09Z</time>
      </trkpt>
      <trkpt lat="44.99457" lon="6.47014">
        <ele>1697.7</ele>
        <time>2022-01-14T11:30:10Z</time>
      </trkpt>
      <trkpt lat="44.99457" lon="6.47014">
        <ele>1697.7</ele>
        <time>2022-01-14T11:30:11Z</time>
      </trkpt>
      <trkpt lat="44.99457" lon="6.47014">
        <ele>1697.7</ele>
        <time>2022-01-14T11:30:12Z</time>
      </trkpt>
      <trkpt lat="44.99458" lon="6.47014">
        <ele>1697.7</ele>
        <time>2022-01-14T11:30:13Z</time>
      </trkpt>
      <trkpt lat="44.99458" lon="6.47014">
        <ele>1697.5</ele>
        <time>2022-01-14T11:30:14Z</time>
      </trkpt>
      <trkpt lat="44.99458" lon="6.47015">
        <ele>1697.5</ele>
        <time>2022-01-14T11:30:15Z</time>
      </trkpt>
      <trkpt lat="44.99458" lon="6.47015">
        <ele>1697.5</ele>
        <time>2022-01-14T11:30:16Z</time>
      </trkpt>
      <trkpt lat="44.99458" lon="6.47015">
        <ele>1697.5</ele>
        <time>2022-01-14T11:30:17Z</time>
      </trkpt>
      <trkpt lat="44.99458" lon="6.47015">
        <ele>1697.5</ele>
        <time>2022-01-14T11:30:18Z</time>
      </trkpt>
      <trkpt lat="44.99458" lon="6.47015">
        <ele>1697.5</ele>
        <time>2022-01-14T11:30:19Z</time>
      </trkpt>
      <trkpt lat="44.99458" lon="6.47016">
        <ele>1697.3</ele>
        <time>2022-01-14T11:30:20Z</time>
      </trkpt>
      <trkpt lat="44.99458" lon="6.47017">
        <ele>1697.3</ele>
        <time>2022-01-14T11:30:21Z</time>
      </trkpt>
      <trkpt lat="44.99458" lon="6.47017">
        <ele>1697.1</ele>
        <time>2022-01-14T11:30:22Z</time>
      </trkpt>
      <trkpt lat="44.99458" lon="6.47017">
        <ele>1697.1</ele>
        <time>2022-01-14T11:30:23Z</time>
      </trkpt>
      <trkpt lat="44.99458" lon="6.47017">
        <ele>1697.1</ele>
        <time>2022-01-14T11:30:24Z</time>
      </trkpt>
      <trkpt lat="44.99458" lon="6.47018">
        <ele>1696.9</ele>
        <time>2022-01-14T11:30:25Z</time>
      </trkpt>
      <trkpt lat="44.99458" lon="6.47018">
        <ele>1696.9</ele>
        <time>2022-01-14T11:30:26Z</time>
      </trkpt>
      <trkpt lat="44.99458" lon="6.47018">
        <ele>1696.9</ele>
        <time>2022-01-14T11:30:27Z</time>
      </trkpt>
      <trkpt lat="44.99458" lon="6.47019">
        <ele>1696.9</ele>
        <time>2022-01-14T11:30:28Z</time>
      </trkpt>
      <trkpt lat="44.99458" lon="6.47019">
        <ele>1696.9</ele>
        <time>2022-01-14T11:30:29Z</time>
      </trkpt>
      <trkpt lat="44.99458" lon="6.47019">
        <ele>1696.9</ele>
        <time>2022-01-14T11:30:30Z</time>
      </trkpt>
      <trkpt lat="44.99458" lon="6.47019">
        <ele>1696.9</ele>
        <time>2022-01-14T11:30:31Z</time>
      </trkpt>
      <trkpt lat="44.99458" lon="6.4702">
        <ele>1696.9</ele>
        <time>2022-01-14T11:30:32Z</time>
      </trkpt>
      <trkpt lat="44.99458" lon="6.4702">
        <ele>1696.9</ele>
        <time>2022-01-14T11:30:33Z</time>
      </trkpt>
      <trkpt lat="44.99458" lon="6.4702">
        <ele>1696.9</ele>
        <time>2022-01-14T11:30:34Z</time>
      </trkpt>
      <trkpt lat="44.99458" lon="6.47021">
        <ele>1696.9</ele>
        <time>2022-01-14T11:30:36Z</time>
      </trkpt>
      <trkpt lat="44.99458" lon="6.47021">
        <ele>1696.9</ele>
        <time>2022-01-14T11:30:37Z</time>
      </trkpt>
      <trkpt lat="44.99458" lon="6.47021">
        <ele>1696.9</ele>
        <time>2022-01-14T11:30:38Z</time>
      </trkpt>
      <trkpt lat="44.99458" lon="6.47021">
        <ele>1696.7</ele>
        <time>2022-01-14T11:30:39Z</time>
      </trkpt>
      <trkpt lat="44.99458" lon="6.47022">
        <ele>1696.7</ele>
        <time>2022-01-14T11:30:40Z</time>
      </trkpt>
      <trkpt lat="44.99458" lon="6.47026">
        <ele>1696.3</ele>
        <time>2022-01-14T11:30:41Z</time>
      </trkpt>
      <trkpt lat="44.99459" lon="6.47028">
        <ele>1695.9</ele>
        <time>2022-01-14T11:30:42Z</time>
      </trkpt>
      <trkpt lat="44.99462" lon="6.47032">
        <ele>1695.3</ele>
        <time>2022-01-14T11:30:43Z</time>
      </trkpt>
      <trkpt lat="44.99463" lon="6.47033">
        <ele>1694.3</ele>
        <time>2022-01-14T11:30:44Z</time>
      </trkpt>
      <trkpt lat="44.99466" lon="6.47038">
        <ele>1693.3</ele>
        <time>2022-01-14T11:30:45Z</time>
      </trkpt>
      <trkpt lat="44.99467" lon="6.47039">
        <ele>1692.3</ele>
        <time>2022-01-14T11:30:46Z</time>
      </trkpt>
      <trkpt lat="44.99469" lon="6.47043">
        <ele>1691.1</ele>
        <time>2022-01-14T11:30:47Z</time>
      </trkpt>
      <trkpt lat="44.99469" lon="6.47044">
        <ele>1690.3</ele>
        <time>2022-01-14T11:30:48Z</time>
      </trkpt>
      <trkpt lat="44.9947" lon="6.47047">
        <ele>1689.5</ele>
        <time>2022-01-14T11:30:49Z</time>
      </trkpt>
      <trkpt lat="44.99471" lon="6.47047">
        <ele>1688.7</ele>
        <time>2022-01-14T11:30:50Z</time>
      </trkpt>
      <trkpt lat="44.99471" lon="6.47047">
        <ele>1688.5</ele>
        <time>2022-01-14T11:30:51Z</time>
      </trkpt>
      <trkpt lat="44.99471" lon="6.47048">
        <ele>1688.3</ele>
        <time>2022-01-14T11:30:52Z</time>
      </trkpt>
      <trkpt lat="44.99472" lon="6.47049">
        <ele>1688.3</ele>
        <time>2022-01-14T11:30:53Z</time>
      </trkpt>
      <trkpt lat="44.99472" lon="6.4705">
        <ele>1687.9</ele>
        <time>2022-01-14T11:30:54Z</time>
      </trkpt>
      <trkpt lat="44.99473" lon="6.47051">
        <ele>1687.5</ele>
        <time>2022-01-14T11:30:55Z</time>
      </trkpt>
      <trkpt lat="44.99473" lon="6.47053">
        <ele>1687.1</ele>
        <time>2022-01-14T11:30:56Z</time>
      </trkpt>
      <trkpt lat="44.99473" lon="6.47054">
        <ele>1686.9</ele>
        <time>2022-01-14T11:30:57Z</time>
      </trkpt>
      <trkpt lat="44.99473" lon="6.47055">
        <ele>1686.7</ele>
        <time>2022-01-14T11:30:58Z</time>
      </trkpt>
      <trkpt lat="44.99473" lon="6.47056">
        <ele>1686.3</ele>
        <time>2022-01-14T11:30:59Z</time>
      </trkpt>
      <trkpt lat="44.99473" lon="6.47057">
        <ele>1685.9</ele>
        <time>2022-01-14T11:31:00Z</time>
      </trkpt>
      <trkpt lat="44.99471" lon="6.47063">
        <ele>1685.1</ele>
        <time>2022-01-14T11:31:01Z</time>
      </trkpt>
      <trkpt lat="44.9947" lon="6.47065">
        <ele>1684.1</ele>
        <time>2022-01-14T11:31:02Z</time>
      </trkpt>
      <trkpt lat="44.99469" lon="6.47069">
        <ele>1682.7</ele>
        <time>2022-01-14T11:31:03Z</time>
      </trkpt>
      <trkpt lat="44.99467" lon="6.47073">
        <ele>1681.5</ele>
        <time>2022-01-14T11:31:04Z</time>
      </trkpt>
      <trkpt lat="44.99466" lon="6.47078">
        <ele>1680.7</ele>
        <time>2022-01-14T11:31:05Z</time>
      </trkpt>
      <trkpt lat="44.99466" lon="6.47079">
        <ele>1679.9</ele>
        <time>2022-01-14T11:31:06Z</time>
      </trkpt>
      <trkpt lat="44.99466" lon="6.47081">
        <ele>1679.3</ele>
        <time>2022-01-14T11:31:07Z</time>
      </trkpt>
      <trkpt lat="44.99465" lon="6.47083">
        <ele>1678.7</ele>
        <time>2022-01-14T11:31:08Z</time>
      </trkpt>
      <trkpt lat="44.99464" lon="6.47085">
        <ele>1678.5</ele>
        <time>2022-01-14T11:31:09Z</time>
      </trkpt>
      <trkpt lat="44.99464" lon="6.47087">
        <ele>1678.3</ele>
        <time>2022-01-14T11:31:10Z</time>
      </trkpt>
      <trkpt lat="44.99464" lon="6.47088">
        <ele>1677.9</ele>
        <time>2022-01-14T11:31:11Z</time>
      </trkpt>
      <trkpt lat="44.99463" lon="6.4709">
        <ele>1677.5</ele>
        <time>2022-01-14T11:31:12Z</time>
      </trkpt>
      <trkpt lat="44.99463" lon="6.47091">
        <ele>1676.7</ele>
        <time>2022-01-14T11:31:13Z</time>
      </trkpt>
      <trkpt lat="44.99463" lon="6.47092">
        <ele>1676.3</ele>
        <time>2022-01-14T11:31:14Z</time>
      </trkpt>
      <trkpt lat="44.99462" lon="6.47094">
        <ele>1676.1</ele>
        <time>2022-01-14T11:31:15Z</time>
      </trkpt>
      <trkpt lat="44.99461" lon="6.47095">
        <ele>1675.7</ele>
        <time>2022-01-14T11:31:16Z</time>
      </trkpt>
      <trkpt lat="44.99461" lon="6.47096">
        <ele>1675.5</ele>
        <time>2022-01-14T11:31:17Z</time>
      </trkpt>
      <trkpt lat="44.99461" lon="6.47097">
        <ele>1675.3</ele>
        <time>2022-01-14T11:31:18Z</time>
      </trkpt>
      <trkpt lat="44.9946" lon="6.47099">
        <ele>1675.1</ele>
        <time>2022-01-14T11:31:19Z</time>
      </trkpt>
      <trkpt lat="44.9946" lon="6.47104">
        <ele>1674.7</ele>
        <time>2022-01-14T11:31:20Z</time>
      </trkpt>
      <trkpt lat="44.9946" lon="6.47106">
        <ele>1673.7</ele>
        <time>2022-01-14T11:31:21Z</time>
      </trkpt>
      <trkpt lat="44.9946" lon="6.47111">
        <ele>1672.3</ele>
        <time>2022-01-14T11:31:22Z</time>
      </trkpt>
      <trkpt lat="44.9946" lon="6.47117">
        <ele>1670.5</ele>
        <time>2022-01-14T11:31:23Z</time>
      </trkpt>
      <trkpt lat="44.99459" lon="6.47121">
        <ele>1668.7</ele>
        <time>2022-01-14T11:31:24Z</time>
      </trkpt>
      <trkpt lat="44.99458" lon="6.47126">
        <ele>1667.5</ele>
        <time>2022-01-14T11:31:25Z</time>
      </trkpt>
      <trkpt lat="44.99457" lon="6.4713">
        <ele>1666.3</ele>
        <time>2022-01-14T11:31:26Z</time>
      </trkpt>
      <trkpt lat="44.99456" lon="6.47136">
        <ele>1664.9</ele>
        <time>2022-01-14T11:31:27Z</time>
      </trkpt>
      <trkpt lat="44.99455" lon="6.47142">
        <ele>1663.5</ele>
        <time>2022-01-14T11:31:28Z</time>
      </trkpt>
      <trkpt lat="44.99455" lon="6.47149">
        <ele>1661.7</ele>
        <time>2022-01-14T11:31:29Z</time>
      </trkpt>
      <trkpt lat="44.99455" lon="6.47155">
        <ele>1659.3</ele>
        <time>2022-01-14T11:31:30Z</time>
      </trkpt>
      <trkpt lat="44.99454" lon="6.47162">
        <ele>1657.3</ele>
        <time>2022-01-14T11:31:31Z</time>
      </trkpt>
      <trkpt lat="44.99454" lon="6.47166">
        <ele>1655.1</ele>
        <time>2022-01-14T11:31:32Z</time>
      </trkpt>
      <trkpt lat="44.99454" lon="6.47168">
        <ele>1653.7</ele>
        <time>2022-01-14T11:31:33Z</time>
      </trkpt>
      <trkpt lat="44.99454" lon="6.47168">
        <ele>1653.3</ele>
        <time>2022-01-14T11:31:34Z</time>
      </trkpt>
      <trkpt lat="44.99454" lon="6.47169">
        <ele>1653.1</ele>
        <time>2022-01-14T11:31:35Z</time>
      </trkpt>
      <trkpt lat="44.99454" lon="6.47169">
        <ele>1652.9</ele>
        <time>2022-01-14T11:31:36Z</time>
      </trkpt>
      <trkpt lat="44.99453" lon="6.4717">
        <ele>1652.9</ele>
        <time>2022-01-14T11:31:37Z</time>
      </trkpt>
      <trkpt lat="44.99452" lon="6.47171">
        <ele>1652.9</ele>
        <time>2022-01-14T11:31:38Z</time>
      </trkpt>
      <trkpt lat="44.99451" lon="6.47173">
        <ele>1652.9</ele>
        <time>2022-01-14T11:31:39Z</time>
      </trkpt>
      <trkpt lat="44.99451" lon="6.47174">
        <ele>1652.7</ele>
        <time>2022-01-14T11:31:40Z</time>
      </trkpt>
      <trkpt lat="44.99451" lon="6.47175">
        <ele>1652.5</ele>
        <time>2022-01-14T11:31:41Z</time>
      </trkpt>
      <trkpt lat="44.99451" lon="6.47176">
        <ele>1652.5</ele>
        <time>2022-01-14T11:31:42Z</time>
      </trkpt>
      <trkpt lat="44.99451" lon="6.47176">
        <ele>1652.3</ele>
        <time>2022-01-14T11:31:43Z</time>
      </trkpt>
      <trkpt lat="44.99451" lon="6.47177">
        <ele>1652.3</ele>
        <time>2022-01-14T11:31:44Z</time>
      </trkpt>
      <trkpt lat="44.99452" lon="6.47178">
        <ele>1652.3</ele>
        <time>2022-01-14T11:31:45Z</time>
      </trkpt>
      <trkpt lat="44.99452" lon="6.47179">
        <ele>1652.1</ele>
        <time>2022-01-14T11:31:46Z</time>
      </trkpt>
      <trkpt lat="44.99451" lon="6.47179">
        <ele>1651.1</ele>
        <time>2022-01-14T11:31:47Z</time>
      </trkpt>
      <trkpt lat="44.99451" lon="6.4718">
        <ele>1651.1</ele>
        <time>2022-01-14T11:31:48Z</time>
      </trkpt>
      <trkpt lat="44.99451" lon="6.47182">
        <ele>1650.9</ele>
        <time>2022-01-14T11:31:49Z</time>
      </trkpt>
      <trkpt lat="44.9945" lon="6.47183">
        <ele>1650.5</ele>
        <time>2022-01-14T11:31:50Z</time>
      </trkpt>
      <trkpt lat="44.9945" lon="6.47183">
        <ele>1650.3</ele>
        <time>2022-01-14T11:31:51Z</time>
      </trkpt>
      <trkpt lat="44.99451" lon="6.47184">
        <ele>1650.1</ele>
        <time>2022-01-14T11:31:52Z</time>
      </trkpt>
      <trkpt lat="44.9945" lon="6.47183">
        <ele>1649.9</ele>
        <time>2022-01-14T11:31:53Z</time>
      </trkpt>
      <trkpt lat="44.9945" lon="6.47183">
        <ele>1650.1</ele>
        <time>2022-01-14T11:31:54Z</time>
      </trkpt>
      <trkpt lat="44.99451" lon="6.47183">
        <ele>1650.3</ele>
        <time>2022-01-14T11:31:55Z</time>
      </trkpt>
      <trkpt lat="44.9945" lon="6.47182">
        <ele>1650.1</ele>
        <time>2022-01-14T11:31:56Z</time>
      </trkpt>
      <trkpt lat="44.99451" lon="6.47187">
        <ele>1650.3</ele>
        <time>2022-01-14T11:31:57Z</time>
      </trkpt>
      <trkpt lat="44.99451" lon="6.47188">
        <ele>1649.1</ele>
        <time>2022-01-14T11:31:58Z</time>
      </trkpt>
      <trkpt lat="44.99451" lon="6.47188">
        <ele>1648.9</ele>
        <time>2022-01-14T11:31:59Z</time>
      </trkpt>
      <trkpt lat="44.99451" lon="6.47188">
        <ele>1648.9</ele>
        <time>2022-01-14T11:32:00Z</time>
      </trkpt>
      <trkpt lat="44.99451" lon="6.47189">
        <ele>1648.7</ele>
        <time>2022-01-14T11:32:01Z</time>
      </trkpt>
      <trkpt lat="44.99451" lon="6.47189">
        <ele>1648.5</ele>
        <time>2022-01-14T11:32:02Z</time>
      </trkpt>
      <trkpt lat="44.9945" lon="6.47188">
        <ele>1648.5</ele>
        <time>2022-01-14T11:32:03Z</time>
      </trkpt>
      <trkpt lat="44.9945" lon="6.47187">
        <ele>1648.9</ele>
        <time>2022-01-14T11:32:04Z</time>
      </trkpt>
      <trkpt lat="44.9945" lon="6.47187">
        <ele>1649.1</ele>
        <time>2022-01-14T11:32:05Z</time>
      </trkpt>
      <trkpt lat="44.9945" lon="6.47188">
        <ele>1649.1</ele>
        <time>2022-01-14T11:32:06Z</time>
      </trkpt>
      <trkpt lat="44.99449" lon="6.47188">
        <ele>1649.1</ele>
        <time>2022-01-14T11:32:07Z</time>
      </trkpt>
      <trkpt lat="44.99448" lon="6.47187">
        <ele>1648.9</ele>
        <time>2022-01-14T11:32:08Z</time>
      </trkpt>
      <trkpt lat="44.99447" lon="6.47187">
        <ele>1649.5</ele>
        <time>2022-01-14T11:32:09Z</time>
      </trkpt>
      <trkpt lat="44.99447" lon="6.47187">
        <ele>1649.3</ele>
        <time>2022-01-14T11:32:10Z</time>
      </trkpt>
      <trkpt lat="44.99447" lon="6.47187">
        <ele>1649.3</ele>
        <time>2022-01-14T11:32:11Z</time>
      </trkpt>
      <trkpt lat="44.99447" lon="6.47188">
        <ele>1649.3</ele>
        <time>2022-01-14T11:32:12Z</time>
      </trkpt>
      <trkpt lat="44.99447" lon="6.4719">
        <ele>1649.1</ele>
        <time>2022-01-14T11:32:13Z</time>
      </trkpt>
      <trkpt lat="44.99446" lon="6.4719">
        <ele>1648.7</ele>
        <time>2022-01-14T11:32:14Z</time>
      </trkpt>
      <trkpt lat="44.99446" lon="6.47189">
        <ele>1648.5</ele>
        <time>2022-01-14T11:32:15Z</time>
      </trkpt>
      <trkpt lat="44.99446" lon="6.47189">
        <ele>1648.7</ele>
        <time>2022-01-14T11:32:16Z</time>
      </trkpt>
      <trkpt lat="44.99445" lon="6.4719">
        <ele>1648.9</ele>
        <time>2022-01-14T11:32:17Z</time>
      </trkpt>
      <trkpt lat="44.99445" lon="6.47189">
        <ele>1648.7</ele>
        <time>2022-01-14T11:32:18Z</time>
      </trkpt>
      <trkpt lat="44.99444" lon="6.47189">
        <ele>1648.9</ele>
        <time>2022-01-14T11:32:19Z</time>
      </trkpt>
      <trkpt lat="44.99444" lon="6.47188">
        <ele>1649.1</ele>
        <time>2022-01-14T11:32:20Z</time>
      </trkpt>
      <trkpt lat="44.99444" lon="6.47187">
        <ele>1649.3</ele>
        <time>2022-01-14T11:32:21Z</time>
      </trkpt>
      <trkpt lat="44.99444" lon="6.47186">
        <ele>1649.5</ele>
        <time>2022-01-14T11:32:22Z</time>
      </trkpt>
      <trkpt lat="44.99444" lon="6.47186">
        <ele>1649.7</ele>
        <time>2022-01-14T11:32:23Z</time>
      </trkpt>
      <trkpt lat="44.99444" lon="6.47186">
        <ele>1649.9</ele>
        <time>2022-01-14T11:32:24Z</time>
      </trkpt>
      <trkpt lat="44.99444" lon="6.47186">
        <ele>1649.5</ele>
        <time>2022-01-14T11:32:25Z</time>
      </trkpt>
      <trkpt lat="44.99444" lon="6.47186">
        <ele>1649.5</ele>
        <time>2022-01-14T11:32:26Z</time>
      </trkpt>
      <trkpt lat="44.99444" lon="6.47186">
        <ele>1649.3</ele>
        <time>2022-01-14T11:32:27Z</time>
      </trkpt>
      <trkpt lat="44.99443" lon="6.47185">
        <ele>1649.3</ele>
        <time>2022-01-14T11:32:28Z</time>
      </trkpt>
      <trkpt lat="44.99443" lon="6.47185">
        <ele>1649.3</ele>
        <time>2022-01-14T11:32:29Z</time>
      </trkpt>
      <trkpt lat="44.99443" lon="6.47185">
        <ele>1649.1</ele>
        <time>2022-01-14T11:32:30Z</time>
      </trkpt>
      <trkpt lat="44.99443" lon="6.47185">
        <ele>1649.1</ele>
        <time>2022-01-14T11:32:31Z</time>
      </trkpt>
      <trkpt lat="44.99443" lon="6.47185">
        <ele>1649.1</ele>
        <time>2022-01-14T11:32:32Z</time>
      </trkpt>
      <trkpt lat="44.99443" lon="6.47185">
        <ele>1649.1</ele>
        <time>2022-01-14T11:32:33Z</time>
      </trkpt>
      <trkpt lat="44.99443" lon="6.47184">
        <ele>1649.1</ele>
        <time>2022-01-14T11:32:34Z</time>
      </trkpt>
      <trkpt lat="44.99443" lon="6.47184">
        <ele>1649.1</ele>
        <time>2022-01-14T11:32:35Z</time>
      </trkpt>
      <trkpt lat="44.99443" lon="6.47184">
        <ele>1648.9</ele>
        <time>2022-01-14T11:32:36Z</time>
      </trkpt>
      <trkpt lat="44.99443" lon="6.47184">
        <ele>1648.9</ele>
        <time>2022-01-14T11:32:37Z</time>
      </trkpt>
      <trkpt lat="44.99443" lon="6.47184">
        <ele>1649.3</ele>
        <time>2022-01-14T11:32:38Z</time>
      </trkpt>
      <trkpt lat="44.99443" lon="6.47184">
        <ele>1649.3</ele>
        <time>2022-01-14T11:32:39Z</time>
      </trkpt>
      <trkpt lat="44.99443" lon="6.47183">
        <ele>1649.9</ele>
        <time>2022-01-14T11:32:40Z</time>
      </trkpt>
      <trkpt lat="44.99443" lon="6.47183">
        <ele>1649.9</ele>
        <time>2022-01-14T11:32:41Z</time>
      </trkpt>
      <trkpt lat="44.99443" lon="6.47183">
        <ele>1649.9</ele>
        <time>2022-01-14T11:32:42Z</time>
      </trkpt>
      <trkpt lat="44.99443" lon="6.47183">
        <ele>1649.9</ele>
        <time>2022-01-14T11:32:43Z</time>
      </trkpt>
      <trkpt lat="44.99443" lon="6.47183">
        <ele>1649.9</ele>
        <time>2022-01-14T11:32:44Z</time>
      </trkpt>
      <trkpt lat="44.99443" lon="6.47183">
        <ele>1650.1</ele>
        <time>2022-01-14T11:32:45Z</time>
      </trkpt>
      <trkpt lat="44.99443" lon="6.47182">
        <ele>1650.5</ele>
        <time>2022-01-14T11:32:46Z</time>
      </trkpt>
      <trkpt lat="44.99443" lon="6.47181">
        <ele>1651.1</ele>
        <time>2022-01-14T11:32:47Z</time>
      </trkpt>
      <trkpt lat="44.99443" lon="6.47181">
        <ele>1651.7</ele>
        <time>2022-01-14T11:32:48Z</time>
      </trkpt>
      <trkpt lat="44.99443" lon="6.47181">
        <ele>1651.7</ele>
        <time>2022-01-14T11:32:49Z</time>
      </trkpt>
      <trkpt lat="44.99444" lon="6.47182">
        <ele>1651.7</ele>
        <time>2022-01-14T11:32:50Z</time>
      </trkpt>
      <trkpt lat="44.99444" lon="6.4718">
        <ele>1651.5</ele>
        <time>2022-01-14T11:32:51Z</time>
      </trkpt>
      <trkpt lat="44.99443" lon="6.47179">
        <ele>1651.9</ele>
        <time>2022-01-14T11:32:52Z</time>
      </trkpt>
      <trkpt lat="44.99443" lon="6.47179">
        <ele>1652.3</ele>
        <time>2022-01-14T11:32:53Z</time>
      </trkpt>
      <trkpt lat="44.99443" lon="6.47179">
        <ele>1652.3</ele>
        <time>2022-01-14T11:32:54Z</time>
      </trkpt>
      <trkpt lat="44.99444" lon="6.4718">
        <ele>1652.3</ele>
        <time>2022-01-14T11:32:55Z</time>
      </trkpt>
      <trkpt lat="44.99445" lon="6.4718">
        <ele>1652.1</ele>
        <time>2022-01-14T11:32:56Z</time>
      </trkpt>
      <trkpt lat="44.99446" lon="6.47181">
        <ele>1651.9</ele>
        <time>2022-01-14T11:32:57Z</time>
      </trkpt>
      <trkpt lat="44.99446" lon="6.47182">
        <ele>1651.7</ele>
        <time>2022-01-14T11:32:58Z</time>
      </trkpt>
      <trkpt lat="44.99447" lon="6.47183">
        <ele>1651.7</ele>
        <time>2022-01-14T11:32:59Z</time>
      </trkpt>
      <trkpt lat="44.99447" lon="6.47184">
        <ele>1651.3</ele>
        <time>2022-01-14T11:33:00Z</time>
      </trkpt>
      <trkpt lat="44.99447" lon="6.47185">
        <ele>1650.9</ele>
        <time>2022-01-14T11:33:01Z</time>
      </trkpt>
      <trkpt lat="44.99448" lon="6.47187">
        <ele>1650.3</ele>
        <time>2022-01-14T11:33:02Z</time>
      </trkpt>
      <trkpt lat="44.99448" lon="6.47189">
        <ele>1649.5</ele>
        <time>2022-01-14T11:33:03Z</time>
      </trkpt>
      <trkpt lat="44.99448" lon="6.47191">
        <ele>1648.7</ele>
        <time>2022-01-14T11:33:04Z</time>
      </trkpt>
      <trkpt lat="44.99449" lon="6.47194">
        <ele>1648.1</ele>
        <time>2022-01-14T11:33:05Z</time>
      </trkpt>
      <trkpt lat="44.99449" lon="6.47195">
        <ele>1647.3</ele>
        <time>2022-01-14T11:33:06Z</time>
      </trkpt>
      <trkpt lat="44.99449" lon="6.47196">
        <ele>1647.1</ele>
        <time>2022-01-14T11:33:07Z</time>
      </trkpt>
      <trkpt lat="44.99449" lon="6.47198">
        <ele>1646.7</ele>
        <time>2022-01-14T11:33:08Z</time>
      </trkpt>
      <trkpt lat="44.9945" lon="6.47202">
        <ele>1646.1</ele>
        <time>2022-01-14T11:33:09Z</time>
      </trkpt>
      <trkpt lat="44.9945" lon="6.47203">
        <ele>1645.3</ele>
        <time>2022-01-14T11:33:10Z</time>
      </trkpt>
      <trkpt lat="44.99451" lon="6.47207">
        <ele>1644.3</ele>
        <time>2022-01-14T11:33:11Z</time>
      </trkpt>
      <trkpt lat="44.99451" lon="6.47209">
        <ele>1643.3</ele>
        <time>2022-01-14T11:33:12Z</time>
      </trkpt>
      <trkpt lat="44.99453" lon="6.47214">
        <ele>1642.3</ele>
        <time>2022-01-14T11:33:13Z</time>
      </trkpt>
      <trkpt lat="44.99454" lon="6.47222">
        <ele>1640.5</ele>
        <time>2022-01-14T11:33:14Z</time>
      </trkpt>
      <trkpt lat="44.99455" lon="6.47228">
        <ele>1637.7</ele>
        <time>2022-01-14T11:33:15Z</time>
      </trkpt>
      <trkpt lat="44.99454" lon="6.47234">
        <ele>1636.9</ele>
        <time>2022-01-14T11:33:16Z</time>
      </trkpt>
      <trkpt lat="44.99454" lon="6.47236">
        <ele>1636.3</ele>
        <time>2022-01-14T11:33:17Z</time>
      </trkpt>
      <trkpt lat="44.99455" lon="6.47241">
        <ele>1635.9</ele>
        <time>2022-01-14T11:33:18Z</time>
      </trkpt>
      <trkpt lat="44.99455" lon="6.47244">
        <ele>1635.3</ele>
        <time>2022-01-14T11:33:19Z</time>
      </trkpt>
      <trkpt lat="44.99455" lon="6.47248">
        <ele>1634.9</ele>
        <time>2022-01-14T11:33:20Z</time>
      </trkpt>
      <trkpt lat="44.99455" lon="6.47252">
        <ele>1634.1</ele>
        <time>2022-01-14T11:33:21Z</time>
      </trkpt>
      <trkpt lat="44.99456" lon="6.47256">
        <ele>1633.3</ele>
        <time>2022-01-14T11:33:22Z</time>
      </trkpt>
      <trkpt lat="44.99456" lon="6.47261">
        <ele>1632.3</ele>
        <time>2022-01-14T11:33:23Z</time>
      </trkpt>
      <trkpt lat="44.99456" lon="6.4727">
        <ele>1631.3</ele>
        <time>2022-01-14T11:33:24Z</time>
      </trkpt>
      <trkpt lat="44.99455" lon="6.47279">
        <ele>1629.7</ele>
        <time>2022-01-14T11:33:25Z</time>
      </trkpt>
      <trkpt lat="44.99454" lon="6.47288">
        <ele>1627.9</ele>
        <time>2022-01-14T11:33:26Z</time>
      </trkpt>
      <trkpt lat="44.99453" lon="6.47295">
        <ele>1626.7</ele>
        <time>2022-01-14T11:33:27Z</time>
      </trkpt>
      <trkpt lat="44.99451" lon="6.47302">
        <ele>1626.1</ele>
        <time>2022-01-14T11:33:28Z</time>
      </trkpt>
      <trkpt lat="44.9945" lon="6.47309">
        <ele>1625.9</ele>
        <time>2022-01-14T11:33:29Z</time>
      </trkpt>
      <trkpt lat="44.9945" lon="6.47314">
        <ele>1624.9</ele>
        <time>2022-01-14T11:33:30Z</time>
      </trkpt>
      <trkpt lat="44.9945" lon="6.47319">
        <ele>1623.3</ele>
        <time>2022-01-14T11:33:31Z</time>
      </trkpt>
      <trkpt lat="44.99449" lon="6.47323">
        <ele>1621.7</ele>
        <time>2022-01-14T11:33:32Z</time>
      </trkpt>
      <trkpt lat="44.99448" lon="6.47328">
        <ele>1620.1</ele>
        <time>2022-01-14T11:33:33Z</time>
      </trkpt>
      <trkpt lat="44.99446" lon="6.47334">
        <ele>1619.1</ele>
        <time>2022-01-14T11:33:34Z</time>
      </trkpt>
      <trkpt lat="44.99447" lon="6.47339">
        <ele>1617.5</ele>
        <time>2022-01-14T11:33:35Z</time>
      </trkpt>
      <trkpt lat="44.99449" lon="6.47344">
        <ele>1615.9</ele>
        <time>2022-01-14T11:33:36Z</time>
      </trkpt>
      <trkpt lat="44.99449" lon="6.47348">
        <ele>1613.9</ele>
        <time>2022-01-14T11:33:37Z</time>
      </trkpt>
      <trkpt lat="44.99447" lon="6.47352">
        <ele>1612.7</ele>
        <time>2022-01-14T11:33:38Z</time>
      </trkpt>
      <trkpt lat="44.99447" lon="6.47353">
        <ele>1611.7</ele>
        <time>2022-01-14T11:33:39Z</time>
      </trkpt>
      <trkpt lat="44.99445" lon="6.47357">
        <ele>1611.1</ele>
        <time>2022-01-14T11:33:40Z</time>
      </trkpt>
      <trkpt lat="44.99444" lon="6.47359">
        <ele>1610.7</ele>
        <time>2022-01-14T11:33:41Z</time>
      </trkpt>
      <trkpt lat="44.99444" lon="6.47362">
        <ele>1609.3</ele>
        <time>2022-01-14T11:33:42Z</time>
      </trkpt>
      <trkpt lat="44.99445" lon="6.47363">
        <ele>1608.3</ele>
        <time>2022-01-14T11:33:43Z</time>
      </trkpt>
      <trkpt lat="44.99446" lon="6.47362">
        <ele>1608.1</ele>
        <time>2022-01-14T11:33:44Z</time>
      </trkpt>
      <trkpt lat="44.99448" lon="6.47367">
        <ele>1608.3</ele>
        <time>2022-01-14T11:33:45Z</time>
      </trkpt>
      <trkpt lat="44.99448" lon="6.47369">
        <ele>1607.3</ele>
        <time>2022-01-14T11:33:46Z</time>
      </trkpt>
      <trkpt lat="44.99446" lon="6.47373">
        <ele>1606.1</ele>
        <time>2022-01-14T11:33:47Z</time>
      </trkpt>
      <trkpt lat="44.99445" lon="6.47374">
        <ele>1605.1</ele>
        <time>2022-01-14T11:33:48Z</time>
      </trkpt>
      <trkpt lat="44.99442" lon="6.47378">
        <ele>1604.1</ele>
        <time>2022-01-14T11:33:49Z</time>
      </trkpt>
      <trkpt lat="44.99438" lon="6.47381">
        <ele>1602.9</ele>
        <time>2022-01-14T11:33:50Z</time>
      </trkpt>
      <trkpt lat="44.99435" lon="6.47383">
        <ele>1601.9</ele>
        <time>2022-01-14T11:33:51Z</time>
      </trkpt>
      <trkpt lat="44.99434" lon="6.47384">
        <ele>1601.1</ele>
        <time>2022-01-14T11:33:52Z</time>
      </trkpt>
      <trkpt lat="44.99434" lon="6.47385">
        <ele>1600.7</ele>
        <time>2022-01-14T11:33:53Z</time>
      </trkpt>
      <trkpt lat="44.99433" lon="6.47385">
        <ele>1600.5</ele>
        <time>2022-01-14T11:33:54Z</time>
      </trkpt>
      <trkpt lat="44.99433" lon="6.47386">
        <ele>1600.5</ele>
        <time>2022-01-14T11:33:55Z</time>
      </trkpt>
      <trkpt lat="44.99433" lon="6.47388">
        <ele>1600.1</ele>
        <time>2022-01-14T11:33:56Z</time>
      </trkpt>
      <trkpt lat="44.99432" lon="6.47388">
        <ele>1599.5</ele>
        <time>2022-01-14T11:33:57Z</time>
      </trkpt>
      <trkpt lat="44.99432" lon="6.47388">
        <ele>1599.3</ele>
        <time>2022-01-14T11:33:58Z</time>
      </trkpt>
      <trkpt lat="44.99431" lon="6.47389">
        <ele>1599.3</ele>
        <time>2022-01-14T11:33:59Z</time>
      </trkpt>
      <trkpt lat="44.99431" lon="6.47389">
        <ele>1599.1</ele>
        <time>2022-01-14T11:34:00Z</time>
      </trkpt>
      <trkpt lat="44.99432" lon="6.47389">
        <ele>1599.1</ele>
        <time>2022-01-14T11:34:01Z</time>
      </trkpt>
      <trkpt lat="44.99432" lon="6.47389">
        <ele>1599.1</ele>
        <time>2022-01-14T11:34:02Z</time>
      </trkpt>
      <trkpt lat="44.99432" lon="6.4739">
        <ele>1599.1</ele>
        <time>2022-01-14T11:34:03Z</time>
      </trkpt>
      <trkpt lat="44.99433" lon="6.47391">
        <ele>1598.7</ele>
        <time>2022-01-14T11:34:04Z</time>
      </trkpt>
      <trkpt lat="44.99433" lon="6.47391">
        <ele>1598.7</ele>
        <time>2022-01-14T11:34:05Z</time>
      </trkpt>
      <trkpt lat="44.99433" lon="6.47391">
        <ele>1598.7</ele>
        <time>2022-01-14T11:34:06Z</time>
      </trkpt>
      <trkpt lat="44.99433" lon="6.4739">
        <ele>1598.7</ele>
        <time>2022-01-14T11:34:07Z</time>
      </trkpt>
      <trkpt lat="44.99434" lon="6.47389">
        <ele>1598.7</ele>
        <time>2022-01-14T11:34:08Z</time>
      </trkpt>
      <trkpt lat="44.99434" lon="6.47388">
        <ele>1598.9</ele>
        <time>2022-01-14T11:34:09Z</time>
      </trkpt>
      <trkpt lat="44.99434" lon="6.47389">
        <ele>1599.1</ele>
        <time>2022-01-14T11:34:10Z</time>
      </trkpt>
      <trkpt lat="44.99434" lon="6.47389">
        <ele>1599.1</ele>
        <time>2022-01-14T11:34:11Z</time>
      </trkpt>
      <trkpt lat="44.99434" lon="6.47391">
        <ele>1598.9</ele>
        <time>2022-01-14T11:34:12Z</time>
      </trkpt>
      <trkpt lat="44.99433" lon="6.47392">
        <ele>1598.7</ele>
        <time>2022-01-14T11:34:13Z</time>
      </trkpt>
      <trkpt lat="44.99433" lon="6.47393">
        <ele>1598.3</ele>
        <time>2022-01-14T11:34:14Z</time>
      </trkpt>
      <trkpt lat="44.99433" lon="6.47393">
        <ele>1598.3</ele>
        <time>2022-01-14T11:34:15Z</time>
      </trkpt>
      <trkpt lat="44.99433" lon="6.47393">
        <ele>1598.3</ele>
        <time>2022-01-14T11:34:16Z</time>
      </trkpt>
      <trkpt lat="44.99433" lon="6.47395">
        <ele>1598.1</ele>
        <time>2022-01-14T11:34:17Z</time>
      </trkpt>
      <trkpt lat="44.99433" lon="6.47396">
        <ele>1597.7</ele>
        <time>2022-01-14T11:34:18Z</time>
      </trkpt>
      <trkpt lat="44.99433" lon="6.47396">
        <ele>1597.7</ele>
        <time>2022-01-14T11:34:19Z</time>
      </trkpt>
      <trkpt lat="44.99433" lon="6.47396">
        <ele>1597.7</ele>
        <time>2022-01-14T11:34:20Z</time>
      </trkpt>
      <trkpt lat="44.99433" lon="6.47395">
        <ele>1597.7</ele>
        <time>2022-01-14T11:34:21Z</time>
      </trkpt>
      <trkpt lat="44.99433" lon="6.47396">
        <ele>1597.7</ele>
        <time>2022-01-14T11:34:22Z</time>
      </trkpt>
      <trkpt lat="44.99432" lon="6.47397">
        <ele>1597.5</ele>
        <time>2022-01-14T11:34:23Z</time>
      </trkpt>
      <trkpt lat="44.99432" lon="6.47397">
        <ele>1597.5</ele>
        <time>2022-01-14T11:34:24Z</time>
      </trkpt>
      <trkpt lat="44.99432" lon="6.47397">
        <ele>1597.3</ele>
        <time>2022-01-14T11:34:25Z</time>
      </trkpt>
      <trkpt lat="44.99432" lon="6.47399">
        <ele>1597.3</ele>
        <time>2022-01-14T11:34:26Z</time>
      </trkpt>
      <trkpt lat="44.99432" lon="6.47404">
        <ele>1597.1</ele>
        <time>2022-01-14T11:34:27Z</time>
      </trkpt>
      <trkpt lat="44.99432" lon="6.47405">
        <ele>1596.7</ele>
        <time>2022-01-14T11:34:28Z</time>
      </trkpt>
      <trkpt lat="44.99432" lon="6.4741">
        <ele>1596.1</ele>
        <time>2022-01-14T11:34:29Z</time>
      </trkpt>
      <trkpt lat="44.99434" lon="6.47413">
        <ele>1595.1</ele>
        <time>2022-01-14T11:34:30Z</time>
      </trkpt>
      <trkpt lat="44.99435" lon="6.47413">
        <ele>1594.3</ele>
        <time>2022-01-14T11:34:31Z</time>
      </trkpt>
      <trkpt lat="44.99437" lon="6.47414">
        <ele>1593.5</ele>
        <time>2022-01-14T11:34:32Z</time>
      </trkpt>
      <trkpt lat="44.99438" lon="6.47415">
        <ele>1593.1</ele>
        <time>2022-01-14T11:34:33Z</time>
      </trkpt>
      <trkpt lat="44.99439" lon="6.47415">
        <ele>1592.5</ele>
        <time>2022-01-14T11:34:34Z</time>
      </trkpt>
      <trkpt lat="44.9944" lon="6.47416">
        <ele>1591.9</ele>
        <time>2022-01-14T11:34:35Z</time>
      </trkpt>
      <trkpt lat="44.99442" lon="6.47416">
        <ele>1591.3</ele>
        <time>2022-01-14T11:34:36Z</time>
      </trkpt>
      <trkpt lat="44.99443" lon="6.47417">
        <ele>1590.5</ele>
        <time>2022-01-14T11:34:37Z</time>
      </trkpt>
      <trkpt lat="44.99443" lon="6.47417">
        <ele>1590.1</ele>
        <time>2022-01-14T11:34:38Z</time>
      </trkpt>
      <trkpt lat="44.99443" lon="6.47418">
        <ele>1590.1</ele>
        <time>2022-01-14T11:34:39Z</time>
      </trkpt>
      <trkpt lat="44.99444" lon="6.47419">
        <ele>1589.9</ele>
        <time>2022-01-14T11:34:40Z</time>
      </trkpt>
      <trkpt lat="44.99445" lon="6.4742">
        <ele>1589.5</ele>
        <time>2022-01-14T11:34:41Z</time>
      </trkpt>
      <trkpt lat="44.99446" lon="6.47421">
        <ele>1589.5</ele>
        <time>2022-01-14T11:34:42Z</time>
      </trkpt>
      <trkpt lat="44.99447" lon="6.47421">
        <ele>1589.5</ele>
        <time>2022-01-14T11:34:43Z</time>
      </trkpt>
      <trkpt lat="44.99447" lon="6.47421">
        <ele>1589.5</ele>
        <time>2022-01-14T11:34:44Z</time>
      </trkpt>
      <trkpt lat="44.99449" lon="6.47421">
        <ele>1589.5</ele>
        <time>2022-01-14T11:34:45Z</time>
      </trkpt>
      <trkpt lat="44.9945" lon="6.47421">
        <ele>1589.5</ele>
        <time>2022-01-14T11:34:46Z</time>
      </trkpt>
      <trkpt lat="44.99451" lon="6.47421">
        <ele>1589.5</ele>
        <time>2022-01-14T11:34:47Z</time>
      </trkpt>
      <trkpt lat="44.99453" lon="6.4742">
        <ele>1589.5</ele>
        <time>2022-01-14T11:34:48Z</time>
      </trkpt>
      <trkpt lat="44.99454" lon="6.4742">
        <ele>1589.5</ele>
        <time>2022-01-14T11:34:49Z</time>
      </trkpt>
      <trkpt lat="44.99455" lon="6.4742">
        <ele>1589.5</ele>
        <time>2022-01-14T11:34:50Z</time>
      </trkpt>
      <trkpt lat="44.99457" lon="6.47419">
        <ele>1589.5</ele>
        <time>2022-01-14T11:34:51Z</time>
      </trkpt>
      <trkpt lat="44.99459" lon="6.47418">
        <ele>1589.5</ele>
        <time>2022-01-14T11:34:52Z</time>
      </trkpt>
      <trkpt lat="44.9946" lon="6.47417">
        <ele>1589.5</ele>
        <time>2022-01-14T11:34:53Z</time>
      </trkpt>
      <trkpt lat="44.9946" lon="6.47417">
        <ele>1589.5</ele>
        <time>2022-01-14T11:34:54Z</time>
      </trkpt>
      <trkpt lat="44.99461" lon="6.47417">
        <ele>1589.5</ele>
        <time>2022-01-14T11:34:55Z</time>
      </trkpt>
      <trkpt lat="44.99462" lon="6.47415">
        <ele>1589.5</ele>
        <time>2022-01-14T11:34:56Z</time>
      </trkpt>
      <trkpt lat="44.99463" lon="6.47414">
        <ele>1589.9</ele>
        <time>2022-01-14T11:34:57Z</time>
      </trkpt>
      <trkpt lat="44.99464" lon="6.47414">
        <ele>1590.1</ele>
        <time>2022-01-14T11:34:58Z</time>
      </trkpt>
      <trkpt lat="44.99465" lon="6.47413">
        <ele>1590.5</ele>
        <time>2022-01-14T11:34:59Z</time>
      </trkpt>
      <trkpt lat="44.99465" lon="6.47413">
        <ele>1590.5</ele>
        <time>2022-01-14T11:35:00Z</time>
      </trkpt>
      <trkpt lat="44.99466" lon="6.47413">
        <ele>1590.7</ele>
        <time>2022-01-14T11:35:01Z</time>
      </trkpt>
      <trkpt lat="44.99467" lon="6.47413">
        <ele>1590.7</ele>
        <time>2022-01-14T11:35:02Z</time>
      </trkpt>
      <trkpt lat="44.99467" lon="6.47413">
        <ele>1590.7</ele>
        <time>2022-01-14T11:35:03Z</time>
      </trkpt>
      <trkpt lat="44.99467" lon="6.47412">
        <ele>1590.9</ele>
        <time>2022-01-14T11:35:04Z</time>
      </trkpt>
      <trkpt lat="44.99468" lon="6.47412">
        <ele>1590.9</ele>
        <time>2022-01-14T11:35:05Z</time>
      </trkpt>
      <trkpt lat="44.99468" lon="6.47411">
        <ele>1591.1</ele>
        <time>2022-01-14T11:35:06Z</time>
      </trkpt>
      <trkpt lat="44.99468" lon="6.47411">
        <ele>1591.3</ele>
        <time>2022-01-14T11:35:07Z</time>
      </trkpt>
      <trkpt lat="44.99468" lon="6.47411">
        <ele>1591.3</ele>
        <time>2022-01-14T11:35:08Z</time>
      </trkpt>
      <trkpt lat="44.99468" lon="6.47411">
        <ele>1591.3</ele>
        <time>2022-01-14T11:35:09Z</time>
      </trkpt>
      <trkpt lat="44.99469" lon="6.47411">
        <ele>1591.3</ele>
        <time>2022-01-14T11:35:10Z</time>
      </trkpt>
      <trkpt lat="44.99469" lon="6.47411">
        <ele>1591.3</ele>
        <time>2022-01-14T11:35:11Z</time>
      </trkpt>
      <trkpt lat="44.9947" lon="6.4741">
        <ele>1591.3</ele>
        <time>2022-01-14T11:35:12Z</time>
      </trkpt>
      <trkpt lat="44.9947" lon="6.4741">
        <ele>1591.5</ele>
        <time>2022-01-14T11:35:13Z</time>
      </trkpt>
      <trkpt lat="44.9947" lon="6.47409">
        <ele>1591.7</ele>
        <time>2022-01-14T11:35:14Z</time>
      </trkpt>
      <trkpt lat="44.99471" lon="6.47408">
        <ele>1592.1</ele>
        <time>2022-01-14T11:35:15Z</time>
      </trkpt>
      <trkpt lat="44.99472" lon="6.47408">
        <ele>1592.3</ele>
        <time>2022-01-14T11:35:16Z</time>
      </trkpt>
      <trkpt lat="44.99472" lon="6.47408">
        <ele>1592.3</ele>
        <time>2022-01-14T11:35:17Z</time>
      </trkpt>
      <trkpt lat="44.99472" lon="6.47408">
        <ele>1592.3</ele>
        <time>2022-01-14T11:35:18Z</time>
      </trkpt>
      <trkpt lat="44.99472" lon="6.47408">
        <ele>1592.3</ele>
        <time>2022-01-14T11:35:19Z</time>
      </trkpt>
      <trkpt lat="44.99472" lon="6.47408">
        <ele>1592.3</ele>
        <time>2022-01-14T11:35:20Z</time>
      </trkpt>
      <trkpt lat="44.99472" lon="6.47408">
        <ele>1592.5</ele>
        <time>2022-01-14T11:35:21Z</time>
      </trkpt>
      <trkpt lat="44.99472" lon="6.47408">
        <ele>1592.5</ele>
        <time>2022-01-14T11:35:22Z</time>
      </trkpt>
      <trkpt lat="44.99473" lon="6.47408">
        <ele>1592.5</ele>
        <time>2022-01-14T11:35:23Z</time>
      </trkpt>
      <trkpt lat="44.99473" lon="6.47408">
        <ele>1592.5</ele>
        <time>2022-01-14T11:35:24Z</time>
      </trkpt>
      <trkpt lat="44.99474" lon="6.47408">
        <ele>1592.5</ele>
        <time>2022-01-14T11:35:25Z</time>
      </trkpt>
      <trkpt lat="44.99475" lon="6.47407">
        <ele>1592.5</ele>
        <time>2022-01-14T11:35:26Z</time>
      </trkpt>
      <trkpt lat="44.99475" lon="6.47406">
        <ele>1592.7</ele>
        <time>2022-01-14T11:35:27Z</time>
      </trkpt>
      <trkpt lat="44.99476" lon="6.47406">
        <ele>1592.9</ele>
        <time>2022-01-14T11:35:28Z</time>
      </trkpt>
      <trkpt lat="44.99476" lon="6.47406">
        <ele>1593.1</ele>
        <time>2022-01-14T11:35:29Z</time>
      </trkpt>
      <trkpt lat="44.99477" lon="6.47405">
        <ele>1593.1</ele>
        <time>2022-01-14T11:35:30Z</time>
      </trkpt>
      <trkpt lat="44.99478" lon="6.47405">
        <ele>1593.3</ele>
        <time>2022-01-14T11:35:31Z</time>
      </trkpt>
      <trkpt lat="44.99479" lon="6.47404">
        <ele>1593.5</ele>
        <time>2022-01-14T11:35:32Z</time>
      </trkpt>
      <trkpt lat="44.9948" lon="6.47403">
        <ele>1593.7</ele>
        <time>2022-01-14T11:35:33Z</time>
      </trkpt>
      <trkpt lat="44.9948" lon="6.47402">
        <ele>1594.1</ele>
        <time>2022-01-14T11:35:34Z</time>
      </trkpt>
      <trkpt lat="44.9948" lon="6.47402">
        <ele>1594.3</ele>
        <time>2022-01-14T11:35:35Z</time>
      </trkpt>
      <trkpt lat="44.99481" lon="6.47402">
        <ele>1594.5</ele>
        <time>2022-01-14T11:35:36Z</time>
      </trkpt>
      <trkpt lat="44.99481" lon="6.47402">
        <ele>1594.5</ele>
        <time>2022-01-14T11:35:37Z</time>
      </trkpt>
      <trkpt lat="44.99482" lon="6.47401">
        <ele>1594.5</ele>
        <time>2022-01-14T11:35:38Z</time>
      </trkpt>
      <trkpt lat="44.99482" lon="6.47401">
        <ele>1594.7</ele>
        <time>2022-01-14T11:35:39Z</time>
      </trkpt>
      <trkpt lat="44.99483" lon="6.47401">
        <ele>1594.9</ele>
        <time>2022-01-14T11:35:40Z</time>
      </trkpt>
      <trkpt lat="44.99484" lon="6.47401">
        <ele>1594.9</ele>
        <time>2022-01-14T11:35:41Z</time>
      </trkpt>
      <trkpt lat="44.99484" lon="6.47401">
        <ele>1594.9</ele>
        <time>2022-01-14T11:35:42Z</time>
      </trkpt>
      <trkpt lat="44.99486" lon="6.47401">
        <ele>1594.9</ele>
        <time>2022-01-14T11:35:43Z</time>
      </trkpt>
      <trkpt lat="44.99487" lon="6.47403">
        <ele>1595.1</ele>
        <time>2022-01-14T11:35:44Z</time>
      </trkpt>
      <trkpt lat="44.99488" lon="6.47404">
        <ele>1594.9</ele>
        <time>2022-01-14T11:35:45Z</time>
      </trkpt>
      <trkpt lat="44.9949" lon="6.47406">
        <ele>1594.1</ele>
        <time>2022-01-14T11:35:46Z</time>
      </trkpt>
      <trkpt lat="44.99491" lon="6.47407">
        <ele>1593.5</ele>
        <time>2022-01-14T11:35:47Z</time>
      </trkpt>
      <trkpt lat="44.99494" lon="6.4741">
        <ele>1592.9</ele>
        <time>2022-01-14T11:35:48Z</time>
      </trkpt>
      <trkpt lat="44.99495" lon="6.47411">
        <ele>1592.3</ele>
        <time>2022-01-14T11:35:49Z</time>
      </trkpt>
      <trkpt lat="44.99498" lon="6.47415">
        <ele>1591.3</ele>
        <time>2022-01-14T11:35:50Z</time>
      </trkpt>
      <trkpt lat="44.99501" lon="6.4742">
        <ele>1590.1</ele>
        <time>2022-01-14T11:35:51Z</time>
      </trkpt>
      <trkpt lat="44.99505" lon="6.47424">
        <ele>1589.5</ele>
        <time>2022-01-14T11:35:52Z</time>
      </trkpt>
      <trkpt lat="44.99508" lon="6.47427">
        <ele>1589.5</ele>
        <time>2022-01-14T11:35:53Z</time>
      </trkpt>
      <trkpt lat="44.99511" lon="6.47429">
        <ele>1589.5</ele>
        <time>2022-01-14T11:35:54Z</time>
      </trkpt>
      <trkpt lat="44.99513" lon="6.47433">
        <ele>1589.5</ele>
        <time>2022-01-14T11:35:55Z</time>
      </trkpt>
      <trkpt lat="44.99514" lon="6.47434">
        <ele>1589.5</ele>
        <time>2022-01-14T11:35:56Z</time>
      </trkpt>
      <trkpt lat="44.99517" lon="6.47437">
        <ele>1589.5</ele>
        <time>2022-01-14T11:35:57Z</time>
      </trkpt>
      <trkpt lat="44.99519" lon="6.4744">
        <ele>1589.5</ele>
        <time>2022-01-14T11:35:58Z</time>
      </trkpt>
      <trkpt lat="44.99521" lon="6.47442">
        <ele>1589.5</ele>
        <time>2022-01-14T11:35:59Z</time>
      </trkpt>
      <trkpt lat="44.99522" lon="6.47443">
        <ele>1589.5</ele>
        <time>2022-01-14T11:36:00Z</time>
      </trkpt>
      <trkpt lat="44.99523" lon="6.47444">
        <ele>1589.5</ele>
        <time>2022-01-14T11:36:01Z</time>
      </trkpt>
      <trkpt lat="44.99523" lon="6.47444">
        <ele>1589.5</ele>
        <time>2022-01-14T11:36:02Z</time>
      </trkpt>
      <trkpt lat="44.99524" lon="6.47446">
        <ele>1589.5</ele>
        <time>2022-01-14T11:36:03Z</time>
      </trkpt>
      <trkpt lat="44.99526" lon="6.47449">
        <ele>1588.9</ele>
        <time>2022-01-14T11:36:04Z</time>
      </trkpt>
      <trkpt lat="44.99528" lon="6.47452">
        <ele>1587.9</ele>
        <time>2022-01-14T11:36:05Z</time>
      </trkpt>
      <trkpt lat="44.99531" lon="6.47455">
        <ele>1586.9</ele>
        <time>2022-01-14T11:36:06Z</time>
      </trkpt>
      <trkpt lat="44.99532" lon="6.47456">
        <ele>1586.5</ele>
        <time>2022-01-14T11:36:07Z</time>
      </trkpt>
      <trkpt lat="44.99534" lon="6.47461">
        <ele>1585.5</ele>
        <time>2022-01-14T11:36:08Z</time>
      </trkpt>
      <trkpt lat="44.99535" lon="6.47462">
        <ele>1584.5</ele>
        <time>2022-01-14T11:36:09Z</time>
      </trkpt>
      <trkpt lat="44.99536" lon="6.47467">
        <ele>1583.5</ele>
        <time>2022-01-14T11:36:10Z</time>
      </trkpt>
      <trkpt lat="44.99538" lon="6.47472">
        <ele>1581.7</ele>
        <time>2022-01-14T11:36:11Z</time>
      </trkpt>
      <trkpt lat="44.9954" lon="6.47477">
        <ele>1580.1</ele>
        <time>2022-01-14T11:36:12Z</time>
      </trkpt>
      <trkpt lat="44.99544" lon="6.47482">
        <ele>1579.9</ele>
        <time>2022-01-14T11:36:13Z</time>
      </trkpt>
      <trkpt lat="44.99547" lon="6.47486">
        <ele>1579.7</ele>
        <time>2022-01-14T11:36:14Z</time>
      </trkpt>
      <trkpt lat="44.99551" lon="6.4749">
        <ele>1579.7</ele>
        <time>2022-01-14T11:36:15Z</time>
      </trkpt>
      <trkpt lat="44.99556" lon="6.47493">
        <ele>1579.7</ele>
        <time>2022-01-14T11:36:16Z</time>
      </trkpt>
      <trkpt lat="44.99559" lon="6.47496">
        <ele>1579.7</ele>
        <time>2022-01-14T11:36:17Z</time>
      </trkpt>
      <trkpt lat="44.99563" lon="6.47498">
        <ele>1579.7</ele>
        <time>2022-01-14T11:36:18Z</time>
      </trkpt>
      <trkpt lat="44.99566" lon="6.47501">
        <ele>1579.7</ele>
        <time>2022-01-14T11:36:19Z</time>
      </trkpt>
      <trkpt lat="44.99569" lon="6.47503">
        <ele>1579.5</ele>
        <time>2022-01-14T11:36:20Z</time>
      </trkpt>
      <trkpt lat="44.99572" lon="6.47507">
        <ele>1578.7</ele>
        <time>2022-01-14T11:36:21Z</time>
      </trkpt>
      <trkpt lat="44.99574" lon="6.4751">
        <ele>1577.5</ele>
        <time>2022-01-14T11:36:22Z</time>
      </trkpt>
      <trkpt lat="44.99577" lon="6.47514">
        <ele>1576.3</ele>
        <time>2022-01-14T11:36:23Z</time>
      </trkpt>
      <trkpt lat="44.9958" lon="6.47518">
        <ele>1575.1</ele>
        <time>2022-01-14T11:36:24Z</time>
      </trkpt>
      <trkpt lat="44.99583" lon="6.4752">
        <ele>1573.7</ele>
        <time>2022-01-14T11:36:25Z</time>
      </trkpt>
      <trkpt lat="44.99585" lon="6.47521">
        <ele>1572.9</ele>
        <time>2022-01-14T11:36:26Z</time>
      </trkpt>
      <trkpt lat="44.99585" lon="6.47522">
        <ele>1572.5</ele>
        <time>2022-01-14T11:36:27Z</time>
      </trkpt>
      <trkpt lat="44.99585" lon="6.47522">
        <ele>1572.3</ele>
        <time>2022-01-14T11:36:28Z</time>
      </trkpt>
      <trkpt lat="44.99584" lon="6.47523">
        <ele>1572.1</ele>
        <time>2022-01-14T11:36:29Z</time>
      </trkpt>
      <trkpt lat="44.99585" lon="6.47523">
        <ele>1571.9</ele>
        <time>2022-01-14T11:36:30Z</time>
      </trkpt>
      <trkpt lat="44.99587" lon="6.47524">
        <ele>1571.9</ele>
        <time>2022-01-14T11:36:31Z</time>
      </trkpt>
      <trkpt lat="44.99588" lon="6.47524">
        <ele>1571.7</ele>
        <time>2022-01-14T11:36:32Z</time>
      </trkpt>
      <trkpt lat="44.9959" lon="6.47526">
        <ele>1571.5</ele>
        <time>2022-01-14T11:36:33Z</time>
      </trkpt>
      <trkpt lat="44.9959" lon="6.47527">
        <ele>1571.5</ele>
        <time>2022-01-14T11:36:34Z</time>
      </trkpt>
      <trkpt lat="44.99591" lon="6.47529">
        <ele>1571</ele>
        <time>2022-01-14T11:36:35Z</time>
      </trkpt>
      <trkpt lat="44.99592" lon="6.4753">
        <ele>1571.2</ele>
        <time>2022-01-14T11:36:36Z</time>
      </trkpt>
      <trkpt lat="44.99593" lon="6.47533">
        <ele>1570.7</ele>
        <time>2022-01-14T11:36:37Z</time>
      </trkpt>
      <trkpt lat="44.99594" lon="6.47537">
        <ele>1570.7</ele>
        <time>2022-01-14T11:36:38Z</time>
      </trkpt>
      <trkpt lat="44.99596" lon="6.4754">
        <ele>1570.4</ele>
        <time>2022-01-14T11:36:39Z</time>
      </trkpt>
      <trkpt lat="44.99598" lon="6.47543">
        <ele>1570.2</ele>
        <time>2022-01-14T11:36:40Z</time>
      </trkpt>
      <trkpt lat="44.99598" lon="6.47544">
        <ele>1570.2</ele>
        <time>2022-01-14T11:36:41Z</time>
      </trkpt>
      <trkpt lat="44.99597" lon="6.47546">
        <ele>1569.4</ele>
        <time>2022-01-14T11:36:42Z</time>
      </trkpt>
      <trkpt lat="44.99596" lon="6.47547">
        <ele>1569.4</ele>
        <time>2022-01-14T11:36:43Z</time>
      </trkpt>
      <trkpt lat="44.99595" lon="6.47549">
        <ele>1569.4</ele>
        <time>2022-01-14T11:36:44Z</time>
      </trkpt>
      <trkpt lat="44.99594" lon="6.47556">
        <ele>1567.8</ele>
        <time>2022-01-14T11:36:45Z</time>
      </trkpt>
      <trkpt lat="44.99595" lon="6.47564">
        <ele>1566.4</ele>
        <time>2022-01-14T11:36:46Z</time>
      </trkpt>
      <trkpt lat="44.99599" lon="6.4757">
        <ele>1565.4</ele>
        <time>2022-01-14T11:36:47Z</time>
      </trkpt>
      <trkpt lat="44.99602" lon="6.47576">
        <ele>1565.4</ele>
        <time>2022-01-14T11:36:48Z</time>
      </trkpt>
      <trkpt lat="44.99606" lon="6.4758">
        <ele>1565.4</ele>
        <time>2022-01-14T11:36:49Z</time>
      </trkpt>
      <trkpt lat="44.99609" lon="6.47584">
        <ele>1565.3</ele>
        <time>2022-01-14T11:36:50Z</time>
      </trkpt>
      <trkpt lat="44.99613" lon="6.47588">
        <ele>1565.3</ele>
        <time>2022-01-14T11:36:51Z</time>
      </trkpt>
      <trkpt lat="44.99617" lon="6.4759">
        <ele>1565.3</ele>
        <time>2022-01-14T11:36:52Z</time>
      </trkpt>
      <trkpt lat="44.99621" lon="6.47592">
        <ele>1565.3</ele>
        <time>2022-01-14T11:36:53Z</time>
      </trkpt>
      <trkpt lat="44.99624" lon="6.47594">
        <ele>1565.3</ele>
        <time>2022-01-14T11:36:54Z</time>
      </trkpt>
      <trkpt lat="44.99627" lon="6.47595">
        <ele>1565.3</ele>
        <time>2022-01-14T11:36:55Z</time>
      </trkpt>
      <trkpt lat="44.9963" lon="6.47596">
        <ele>1565.3</ele>
        <time>2022-01-14T11:36:56Z</time>
      </trkpt>
      <trkpt lat="44.99632" lon="6.476">
        <ele>1565.2</ele>
        <time>2022-01-14T11:36:57Z</time>
      </trkpt>
      <trkpt lat="44.99632" lon="6.47601">
        <ele>1565.2</ele>
        <time>2022-01-14T11:36:58Z</time>
      </trkpt>
      <trkpt lat="44.99633" lon="6.47601">
        <ele>1565.2</ele>
        <time>2022-01-14T11:36:59Z</time>
      </trkpt>
      <trkpt lat="44.99633" lon="6.47601">
        <ele>1565.2</ele>
        <time>2022-01-14T11:37:00Z</time>
      </trkpt>
      <trkpt lat="44.99633" lon="6.47601">
        <ele>1565.2</ele>
        <time>2022-01-14T11:37:01Z</time>
      </trkpt>
      <trkpt lat="44.99633" lon="6.47601">
        <ele>1565.2</ele>
        <time>2022-01-14T11:37:02Z</time>
      </trkpt>
      <trkpt lat="44.99633" lon="6.47601">
        <ele>1565.2</ele>
        <time>2022-01-14T11:37:03Z</time>
      </trkpt>
      <trkpt lat="44.99633" lon="6.476">
        <ele>1565.2</ele>
        <time>2022-01-14T11:37:04Z</time>
      </trkpt>
      <trkpt lat="44.99634" lon="6.476">
        <ele>1565.2</ele>
        <time>2022-01-14T11:37:05Z</time>
      </trkpt>
      <trkpt lat="44.99634" lon="6.476">
        <ele>1565.2</ele>
        <time>2022-01-14T11:37:06Z</time>
      </trkpt>
      <trkpt lat="44.99634" lon="6.476">
        <ele>1565.2</ele>
        <time>2022-01-14T11:37:07Z</time>
      </trkpt>
      <trkpt lat="44.99634" lon="6.476">
        <ele>1565.2</ele>
        <time>2022-01-14T11:37:08Z</time>
      </trkpt>
      <trkpt lat="44.99634" lon="6.476">
        <ele>1565.2</ele>
        <time>2022-01-14T11:37:09Z</time>
      </trkpt>
      <trkpt lat="44.99634" lon="6.476">
        <ele>1565.2</ele>
        <time>2022-01-14T11:37:10Z</time>
      </trkpt>
      <trkpt lat="44.99635" lon="6.476">
        <ele>1565.2</ele>
        <time>2022-01-14T11:37:11Z</time>
      </trkpt>
      <trkpt lat="44.99635" lon="6.476">
        <ele>1565.2</ele>
        <time>2022-01-14T11:37:12Z</time>
      </trkpt>
      <trkpt lat="44.99635" lon="6.476">
        <ele>1565.2</ele>
        <time>2022-01-14T11:37:13Z</time>
      </trkpt>
      <trkpt lat="44.99635" lon="6.476">
        <ele>1565.2</ele>
        <time>2022-01-14T11:37:14Z</time>
      </trkpt>
      <trkpt lat="44.99635" lon="6.476">
        <ele>1565.2</ele>
        <time>2022-01-14T11:37:15Z</time>
      </trkpt>
      <trkpt lat="44.99636" lon="6.476">
        <ele>1565.2</ele>
        <time>2022-01-14T11:37:16Z</time>
      </trkpt>
      <trkpt lat="44.99636" lon="6.476">
        <ele>1565.2</ele>
        <time>2022-01-14T11:37:17Z</time>
      </trkpt>
      <trkpt lat="44.99636" lon="6.476">
        <ele>1565.2</ele>
        <time>2022-01-14T11:37:18Z</time>
      </trkpt>
      <trkpt lat="44.99636" lon="6.476">
        <ele>1565.2</ele>
        <time>2022-01-14T11:37:19Z</time>
      </trkpt>
      <trkpt lat="44.99636" lon="6.476">
        <ele>1565.2</ele>
        <time>2022-01-14T11:37:20Z</time>
      </trkpt>
      <trkpt lat="44.99636" lon="6.47599">
        <ele>1565.2</ele>
        <time>2022-01-14T11:37:21Z</time>
      </trkpt>
      <trkpt lat="44.99637" lon="6.47599">
        <ele>1565.2</ele>
        <time>2022-01-14T11:37:22Z</time>
      </trkpt>
      <trkpt lat="44.99637" lon="6.47599">
        <ele>1565.2</ele>
        <time>2022-01-14T11:37:23Z</time>
      </trkpt>
      <trkpt lat="44.99637" lon="6.47599">
        <ele>1565.2</ele>
        <time>2022-01-14T11:37:24Z</time>
      </trkpt>
      <trkpt lat="44.99637" lon="6.47599">
        <ele>1565.2</ele>
        <time>2022-01-14T11:37:25Z</time>
      </trkpt>
      <trkpt lat="44.9964" lon="6.47599">
        <ele>1565.2</ele>
        <time>2022-01-14T11:37:26Z</time>
      </trkpt>
      <trkpt lat="44.99641" lon="6.47599">
        <ele>1565.2</ele>
        <time>2022-01-14T11:37:27Z</time>
      </trkpt>
      <trkpt lat="44.99645" lon="6.47599">
        <ele>1565.2</ele>
        <time>2022-01-14T11:37:28Z</time>
      </trkpt>
      <trkpt lat="44.99646" lon="6.476">
        <ele>1565.2</ele>
        <time>2022-01-14T11:37:29Z</time>
      </trkpt>
      <trkpt lat="44.9965" lon="6.47601">
        <ele>1565.1</ele>
        <time>2022-01-14T11:37:30Z</time>
      </trkpt>
      <trkpt lat="44.99651" lon="6.47602">
        <ele>1565.1</ele>
        <time>2022-01-14T11:37:31Z</time>
      </trkpt>
      <trkpt lat="44.99654" lon="6.47602">
        <ele>1565.1</ele>
        <time>2022-01-14T11:37:32Z</time>
      </trkpt>
      <trkpt lat="44.99655" lon="6.47602">
        <ele>1565.1</ele>
        <time>2022-01-14T11:37:33Z</time>
      </trkpt>
      <trkpt lat="44.99658" lon="6.47603">
        <ele>1565.1</ele>
        <time>2022-01-14T11:37:34Z</time>
      </trkpt>
      <trkpt lat="44.99659" lon="6.47603">
        <ele>1565.1</ele>
        <time>2022-01-14T11:37:35Z</time>
      </trkpt>
      <trkpt lat="44.99662" lon="6.47603">
        <ele>1565.1</ele>
        <time>2022-01-14T11:37:36Z</time>
      </trkpt>
      <trkpt lat="44.99665" lon="6.47603">
        <ele>1565.1</ele>
        <time>2022-01-14T11:37:37Z</time>
      </trkpt>
      <trkpt lat="44.99666" lon="6.47603">
        <ele>1565.1</ele>
        <time>2022-01-14T11:37:38Z</time>
      </trkpt>
      <trkpt lat="44.99668" lon="6.47603">
        <ele>1565</ele>
        <time>2022-01-14T11:37:39Z</time>
      </trkpt>
      <trkpt lat="44.99669" lon="6.47604">
        <ele>1565</ele>
        <time>2022-01-14T11:37:40Z</time>
      </trkpt>
      <trkpt lat="44.9967" lon="6.47604">
        <ele>1565</ele>
        <time>2022-01-14T11:37:41Z</time>
      </trkpt>
      <trkpt lat="44.9967" lon="6.47604">
        <ele>1565</ele>
        <time>2022-01-14T11:37:42Z</time>
      </trkpt>
      <trkpt lat="44.9967" lon="6.47604">
        <ele>1565</ele>
        <time>2022-01-14T11:37:43Z</time>
      </trkpt>
      <trkpt lat="44.9967" lon="6.47604">
        <ele>1565</ele>
        <time>2022-01-14T11:37:44Z</time>
      </trkpt>
      <trkpt lat="44.9967" lon="6.47604">
        <ele>1565</ele>
        <time>2022-01-14T11:37:45Z</time>
      </trkpt>
      <trkpt lat="44.9967" lon="6.47604">
        <ele>1565</ele>
        <time>2022-01-14T11:37:46Z</time>
      </trkpt>
      <trkpt lat="44.9967" lon="6.47604">
        <ele>1565</ele>
        <time>2022-01-14T11:37:47Z</time>
      </trkpt>
      <trkpt lat="44.99671" lon="6.47605">
        <ele>1565</ele>
        <time>2022-01-14T11:37:48Z</time>
      </trkpt>
      <trkpt lat="44.99671" lon="6.47605">
        <ele>1565</ele>
        <time>2022-01-14T11:37:49Z</time>
      </trkpt>
      <trkpt lat="44.99671" lon="6.47605">
        <ele>1565</ele>
        <time>2022-01-14T11:37:50Z</time>
      </trkpt>
      <trkpt lat="44.99671" lon="6.47605">
        <ele>1565</ele>
        <time>2022-01-14T11:37:51Z</time>
      </trkpt>
      <trkpt lat="44.99671" lon="6.47605">
        <ele>1565</ele>
        <time>2022-01-14T11:37:52Z</time>
      </trkpt>
      <trkpt lat="44.9967" lon="6.47605">
        <ele>1565</ele>
        <time>2022-01-14T11:37:53Z</time>
      </trkpt>
      <trkpt lat="44.99671" lon="6.47605">
        <ele>1565</ele>
        <time>2022-01-14T11:37:54Z</time>
      </trkpt>
      <trkpt lat="44.99671" lon="6.47605">
        <ele>1565</ele>
        <time>2022-01-14T11:37:55Z</time>
      </trkpt>
      <trkpt lat="44.99671" lon="6.47605">
        <ele>1565</ele>
        <time>2022-01-14T11:37:56Z</time>
      </trkpt>
      <trkpt lat="44.99671" lon="6.47605">
        <ele>1565</ele>
        <time>2022-01-14T11:37:57Z</time>
      </trkpt>
      <trkpt lat="44.99671" lon="6.47605">
        <ele>1565</ele>
        <time>2022-01-14T11:37:58Z</time>
      </trkpt>
      <trkpt lat="44.99671" lon="6.47605">
        <ele>1565</ele>
        <time>2022-01-14T11:37:59Z</time>
      </trkpt>
      <trkpt lat="44.99671" lon="6.47605">
        <ele>1565</ele>
        <time>2022-01-14T11:38:00Z</time>
      </trkpt>
      <trkpt lat="44.99671" lon="6.47605">
        <ele>1565</ele>
        <time>2022-01-14T11:38:01Z</time>
      </trkpt>
      <trkpt lat="44.99672" lon="6.47604">
        <ele>1565</ele>
        <time>2022-01-14T11:38:02Z</time>
      </trkpt>
      <trkpt lat="44.99672" lon="6.47603">
        <ele>1565</ele>
        <time>2022-01-14T11:38:03Z</time>
      </trkpt>
      <trkpt lat="44.99672" lon="6.47603">
        <ele>1565</ele>
        <time>2022-01-14T11:38:04Z</time>
      </trkpt>
      <trkpt lat="44.99672" lon="6.47603">
        <ele>1565</ele>
        <time>2022-01-14T11:38:05Z</time>
      </trkpt>
      <trkpt lat="44.99672" lon="6.47603">
        <ele>1565</ele>
        <time>2022-01-14T11:38:06Z</time>
      </trkpt>
      <trkpt lat="44.99672" lon="6.47603">
        <ele>1565</ele>
        <time>2022-01-14T11:38:07Z</time>
      </trkpt>
      <trkpt lat="44.99672" lon="6.47603">
        <ele>1565</ele>
        <time>2022-01-14T11:38:08Z</time>
      </trkpt>
      <trkpt lat="44.99672" lon="6.47603">
        <ele>1565</ele>
        <time>2022-01-14T11:38:09Z</time>
      </trkpt>
      <trkpt lat="44.99672" lon="6.47603">
        <ele>1565</ele>
        <time>2022-01-14T11:38:10Z</time>
      </trkpt>
      <trkpt lat="44.99672" lon="6.47603">
        <ele>1565</ele>
        <time>2022-01-14T11:38:11Z</time>
      </trkpt>
      <trkpt lat="44.99671" lon="6.47603">
        <ele>1565</ele>
        <time>2022-01-14T11:38:12Z</time>
      </trkpt>
      <trkpt lat="44.99671" lon="6.47603">
        <ele>1565</ele>
        <time>2022-01-14T11:38:13Z</time>
      </trkpt>
      <trkpt lat="44.99672" lon="6.47603">
        <ele>1565</ele>
        <time>2022-01-14T11:38:14Z</time>
      </trkpt>
      <trkpt lat="44.99672" lon="6.47603">
        <ele>1565</ele>
        <time>2022-01-14T11:38:15Z</time>
      </trkpt>
      <trkpt lat="44.99672" lon="6.47603">
        <ele>1565</ele>
        <time>2022-01-14T11:38:16Z</time>
      </trkpt>
      <trkpt lat="44.99672" lon="6.47603">
        <ele>1565</ele>
        <time>2022-01-14T11:38:17Z</time>
      </trkpt>
      <trkpt lat="44.99672" lon="6.47603">
        <ele>1565</ele>
        <time>2022-01-14T11:38:18Z</time>
      </trkpt>
      <trkpt lat="44.99672" lon="6.47603">
        <ele>1565</ele>
        <time>2022-01-14T11:38:19Z</time>
      </trkpt>
      <trkpt lat="44.99671" lon="6.47604">
        <ele>1565</ele>
        <time>2022-01-14T11:38:20Z</time>
      </trkpt>
      <trkpt lat="44.99671" lon="6.47605">
        <ele>1565</ele>
        <time>2022-01-14T11:38:21Z</time>
      </trkpt>
      <trkpt lat="44.9967" lon="6.47604">
        <ele>1565</ele>
        <time>2022-01-14T11:38:22Z</time>
      </trkpt>
      <trkpt lat="44.9967" lon="6.47604">
        <ele>1565</ele>
        <time>2022-01-14T11:38:23Z</time>
      </trkpt>
      <trkpt lat="44.9967" lon="6.47604">
        <ele>1565</ele>
        <time>2022-01-14T11:38:24Z</time>
      </trkpt>
      <trkpt lat="44.9967" lon="6.47604">
        <ele>1565</ele>
        <time>2022-01-14T11:38:25Z</time>
      </trkpt>
      <trkpt lat="44.9967" lon="6.47604">
        <ele>1565</ele>
        <time>2022-01-14T11:38:26Z</time>
      </trkpt>
      <trkpt lat="44.9967" lon="6.47604">
        <ele>1565</ele>
        <time>2022-01-14T11:38:27Z</time>
      </trkpt>
      <trkpt lat="44.99669" lon="6.47604">
        <ele>1565</ele>
        <time>2022-01-14T11:38:28Z</time>
      </trkpt>
      <trkpt lat="44.99669" lon="6.47604">
        <ele>1565</ele>
        <time>2022-01-14T11:38:29Z</time>
      </trkpt>
      <trkpt lat="44.99669" lon="6.47605">
        <ele>1565</ele>
        <time>2022-01-14T11:38:30Z</time>
      </trkpt>
      <trkpt lat="44.99669" lon="6.47605">
        <ele>1565</ele>
        <time>2022-01-14T11:38:31Z</time>
      </trkpt>
      <trkpt lat="44.99669" lon="6.47606">
        <ele>1565</ele>
        <time>2022-01-14T11:38:32Z</time>
      </trkpt>
      <trkpt lat="44.99669" lon="6.47606">
        <ele>1565</ele>
        <time>2022-01-14T11:38:33Z</time>
      </trkpt>
      <trkpt lat="44.99669" lon="6.47606">
        <ele>1565</ele>
        <time>2022-01-14T11:38:34Z</time>
      </trkpt>
      <trkpt lat="44.99669" lon="6.47606">
        <ele>1565</ele>
        <time>2022-01-14T11:38:35Z</time>
      </trkpt>
      <trkpt lat="44.99669" lon="6.47606">
        <ele>1565</ele>
        <time>2022-01-14T11:38:36Z</time>
      </trkpt>
      <trkpt lat="44.99669" lon="6.47606">
        <ele>1565</ele>
        <time>2022-01-14T11:38:37Z</time>
      </trkpt>
      <trkpt lat="44.99669" lon="6.47606">
        <ele>1565</ele>
        <time>2022-01-14T11:38:38Z</time>
      </trkpt>
      <trkpt lat="44.99669" lon="6.47606">
        <ele>1565</ele>
        <time>2022-01-14T11:38:39Z</time>
      </trkpt>
      <trkpt lat="44.99669" lon="6.47606">
        <ele>1565</ele>
        <time>2022-01-14T11:38:40Z</time>
      </trkpt>
      <trkpt lat="44.99669" lon="6.47606">
        <ele>1565</ele>
        <time>2022-01-14T11:38:41Z</time>
      </trkpt>
      <trkpt lat="44.99669" lon="6.47606">
        <ele>1565</ele>
        <time>2022-01-14T11:38:42Z</time>
      </trkpt>
      <trkpt lat="44.99669" lon="6.47606">
        <ele>1565</ele>
        <time>2022-01-14T11:38:43Z</time>
      </trkpt>
      <trkpt lat="44.99669" lon="6.47606">
        <ele>1565</ele>
        <time>2022-01-14T11:38:44Z</time>
      </trkpt>
      <trkpt lat="44.99669" lon="6.47606">
        <ele>1565</ele>
        <time>2022-01-14T11:38:45Z</time>
      </trkpt>
      <trkpt lat="44.99669" lon="6.47605">
        <ele>1565</ele>
        <time>2022-01-14T11:38:46Z</time>
      </trkpt>
      <trkpt lat="44.99669" lon="6.47605">
        <ele>1565</ele>
        <time>2022-01-14T11:38:47Z</time>
      </trkpt>
      <trkpt lat="44.99669" lon="6.47605">
        <ele>1565</ele>
        <time>2022-01-14T11:38:48Z</time>
      </trkpt>
      <trkpt lat="44.9967" lon="6.47605">
        <ele>1565</ele>
        <time>2022-01-14T11:38:49Z</time>
      </trkpt>
      <trkpt lat="44.9967" lon="6.47605">
        <ele>1565</ele>
        <time>2022-01-14T11:38:50Z</time>
      </trkpt>
      <trkpt lat="44.99669" lon="6.47605">
        <ele>1565</ele>
        <time>2022-01-14T11:38:51Z</time>
      </trkpt>
      <trkpt lat="44.9967" lon="6.47605">
        <ele>1565</ele>
        <time>2022-01-14T11:38:52Z</time>
      </trkpt>
      <trkpt lat="44.9967" lon="6.47605">
        <ele>1565</ele>
        <time>2022-01-14T11:38:53Z</time>
      </trkpt>
      <trkpt lat="44.9967" lon="6.47605">
        <ele>1565</ele>
        <time>2022-01-14T11:38:54Z</time>
      </trkpt>
      <trkpt lat="44.99669" lon="6.47605">
        <ele>1565</ele>
        <time>2022-01-14T11:38:55Z</time>
      </trkpt>
      <trkpt lat="44.99669" lon="6.47605">
        <ele>1565</ele>
        <time>2022-01-14T11:38:56Z</time>
      </trkpt>
      <trkpt lat="44.99669" lon="6.47605">
        <ele>1565</ele>
        <time>2022-01-14T11:38:57Z</time>
      </trkpt>
      <trkpt lat="44.9967" lon="6.47605">
        <ele>1565</ele>
        <time>2022-01-14T11:38:58Z</time>
      </trkpt>
      <trkpt lat="44.9967" lon="6.47605">
        <ele>1565</ele>
        <time>2022-01-14T11:38:59Z</time>
      </trkpt>
      <trkpt lat="44.9967" lon="6.47605">
        <ele>1565</ele>
        <time>2022-01-14T11:39:00Z</time>
      </trkpt>
      <trkpt lat="44.9967" lon="6.47605">
        <ele>1565</ele>
        <time>2022-01-14T11:39:01Z</time>
      </trkpt>
      <trkpt lat="44.9967" lon="6.47605">
        <ele>1565</ele>
        <time>2022-01-14T11:39:02Z</time>
      </trkpt>
      <trkpt lat="44.9967" lon="6.47605">
        <ele>1565</ele>
        <time>2022-01-14T11:39:03Z</time>
      </trkpt>
      <trkpt lat="44.9967" lon="6.47605">
        <ele>1565</ele>
        <time>2022-01-14T11:39:04Z</time>
      </trkpt>
      <trkpt lat="44.9967" lon="6.47604">
        <ele>1565</ele>
        <time>2022-01-14T11:39:05Z</time>
      </trkpt>
      <trkpt lat="44.9967" lon="6.47604">
        <ele>1565</ele>
        <time>2022-01-14T11:39:06Z</time>
      </trkpt>
      <trkpt lat="44.9967" lon="6.47604">
        <ele>1565</ele>
        <time>2022-01-14T11:39:07Z</time>
      </trkpt>
      <trkpt lat="44.9967" lon="6.47604">
        <ele>1565</ele>
        <time>2022-01-14T11:39:08Z</time>
      </trkpt>
      <trkpt lat="44.9967" lon="6.47604">
        <ele>1564.9</ele>
        <time>2022-01-14T11:39:09Z</time>
      </trkpt>
      <trkpt lat="44.9967" lon="6.47604">
        <ele>1564.9</ele>
        <time>2022-01-14T11:39:10Z</time>
      </trkpt>
      <trkpt lat="44.9967" lon="6.47604">
        <ele>1564.9</ele>
        <time>2022-01-14T11:39:11Z</time>
      </trkpt>
      <trkpt lat="44.9967" lon="6.47604">
        <ele>1564.9</ele>
        <time>2022-01-14T11:39:12Z</time>
      </trkpt>
      <trkpt lat="44.9967" lon="6.47604">
        <ele>1564.9</ele>
        <time>2022-01-14T11:39:13Z</time>
      </trkpt>
      <trkpt lat="44.9967" lon="6.47603">
        <ele>1564.9</ele>
        <time>2022-01-14T11:39:14Z</time>
      </trkpt>
      <trkpt lat="44.9967" lon="6.47603">
        <ele>1564.9</ele>
        <time>2022-01-14T11:39:15Z</time>
      </trkpt>
      <trkpt lat="44.9967" lon="6.47604">
        <ele>1564.9</ele>
        <time>2022-01-14T11:39:16Z</time>
      </trkpt>
      <trkpt lat="44.99671" lon="6.47604">
        <ele>1564.9</ele>
        <time>2022-01-14T11:39:17Z</time>
      </trkpt>
      <trkpt lat="44.99671" lon="6.47604">
        <ele>1564.9</ele>
        <time>2022-01-14T11:39:18Z</time>
      </trkpt>
      <trkpt lat="44.99671" lon="6.47605">
        <ele>1564.9</ele>
        <time>2022-01-14T11:39:19Z</time>
      </trkpt>
      <trkpt lat="44.9967" lon="6.47605">
        <ele>1564.9</ele>
        <time>2022-01-14T11:39:20Z</time>
      </trkpt>
      <trkpt lat="44.99669" lon="6.47606">
        <ele>1564.9</ele>
        <time>2022-01-14T11:39:21Z</time>
      </trkpt>
      <trkpt lat="44.99668" lon="6.47606">
        <ele>1564.9</ele>
        <time>2022-01-14T11:39:22Z</time>
      </trkpt>
      <trkpt lat="44.99669" lon="6.47606">
        <ele>1564.9</ele>
        <time>2022-01-14T11:39:23Z</time>
      </trkpt>
      <trkpt lat="44.99668" lon="6.47607">
        <ele>1564.9</ele>
        <time>2022-01-14T11:39:24Z</time>
      </trkpt>
      <trkpt lat="44.99668" lon="6.47607">
        <ele>1564.9</ele>
        <time>2022-01-14T11:39:25Z</time>
      </trkpt>
      <trkpt lat="44.99667" lon="6.47606">
        <ele>1564.9</ele>
        <time>2022-01-14T11:39:26Z</time>
      </trkpt>
      <trkpt lat="44.99667" lon="6.47604">
        <ele>1564.9</ele>
        <time>2022-01-14T11:39:27Z</time>
      </trkpt>
      <trkpt lat="44.99666" lon="6.47602">
        <ele>1564.9</ele>
        <time>2022-01-14T11:39:28Z</time>
      </trkpt>
      <trkpt lat="44.99666" lon="6.47602">
        <ele>1564.9</ele>
        <time>2022-01-14T11:39:29Z</time>
      </trkpt>
      <trkpt lat="44.99666" lon="6.47602">
        <ele>1564.9</ele>
        <time>2022-01-14T11:39:30Z</time>
      </trkpt>
      <trkpt lat="44.99666" lon="6.47601">
        <ele>1564.9</ele>
        <time>2022-01-14T11:39:31Z</time>
      </trkpt>
      <trkpt lat="44.99664" lon="6.47601">
        <ele>1564.9</ele>
        <time>2022-01-14T11:39:32Z</time>
      </trkpt>
      <trkpt lat="44.99664" lon="6.47602">
        <ele>1564.9</ele>
        <time>2022-01-14T11:39:33Z</time>
      </trkpt>
      <trkpt lat="44.99664" lon="6.47602">
        <ele>1564.9</ele>
        <time>2022-01-14T11:39:34Z</time>
      </trkpt>
      <trkpt lat="44.99664" lon="6.47602">
        <ele>1564.9</ele>
        <time>2022-01-14T11:39:35Z</time>
      </trkpt>
      <trkpt lat="44.99664" lon="6.47602">
        <ele>1564.9</ele>
        <time>2022-01-14T11:39:36Z</time>
      </trkpt>
      <trkpt lat="44.99665" lon="6.47602">
        <ele>1564.9</ele>
        <time>2022-01-14T11:39:37Z</time>
      </trkpt>
      <trkpt lat="44.99665" lon="6.47602">
        <ele>1564.9</ele>
        <time>2022-01-14T11:39:38Z</time>
      </trkpt>
      <trkpt lat="44.99665" lon="6.47602">
        <ele>1564.9</ele>
        <time>2022-01-14T11:39:39Z</time>
      </trkpt>
      <trkpt lat="44.99665" lon="6.47602">
        <ele>1564.9</ele>
        <time>2022-01-14T11:39:40Z</time>
      </trkpt>
      <trkpt lat="44.99665" lon="6.47604">
        <ele>1564.9</ele>
        <time>2022-01-14T11:39:41Z</time>
      </trkpt>
      <trkpt lat="44.99664" lon="6.47604">
        <ele>1564.9</ele>
        <time>2022-01-14T11:39:42Z</time>
      </trkpt>
      <trkpt lat="44.99664" lon="6.47604">
        <ele>1564.9</ele>
        <time>2022-01-14T11:39:43Z</time>
      </trkpt>
      <trkpt lat="44.99664" lon="6.47605">
        <ele>1564.8</ele>
        <time>2022-01-14T11:39:44Z</time>
      </trkpt>
      <trkpt lat="44.99664" lon="6.47605">
        <ele>1564.8</ele>
        <time>2022-01-14T11:39:45Z</time>
      </trkpt>
      <trkpt lat="44.99665" lon="6.47605">
        <ele>1564.8</ele>
        <time>2022-01-14T11:39:46Z</time>
      </trkpt>
      <trkpt lat="44.99665" lon="6.47605">
        <ele>1564.8</ele>
        <time>2022-01-14T11:39:47Z</time>
      </trkpt>
      <trkpt lat="44.99665" lon="6.47606">
        <ele>1564.8</ele>
        <time>2022-01-14T11:39:48Z</time>
      </trkpt>
      <trkpt lat="44.99665" lon="6.47606">
        <ele>1564.8</ele>
        <time>2022-01-14T11:39:49Z</time>
      </trkpt>
      <trkpt lat="44.99665" lon="6.47606">
        <ele>1564.8</ele>
        <time>2022-01-14T11:39:50Z</time>
      </trkpt>
      <trkpt lat="44.99666" lon="6.47606">
        <ele>1564.8</ele>
        <time>2022-01-14T11:39:51Z</time>
      </trkpt>
      <trkpt lat="44.99666" lon="6.47607">
        <ele>1564.8</ele>
        <time>2022-01-14T11:39:52Z</time>
      </trkpt>
      <trkpt lat="44.99666" lon="6.47607">
        <ele>1564.8</ele>
        <time>2022-01-14T11:39:53Z</time>
      </trkpt>
      <trkpt lat="44.99666" lon="6.47607">
        <ele>1564.8</ele>
        <time>2022-01-14T11:39:54Z</time>
      </trkpt>
      <trkpt lat="44.99666" lon="6.47607">
        <ele>1564.8</ele>
        <time>2022-01-14T11:39:55Z</time>
      </trkpt>
      <trkpt lat="44.99667" lon="6.47607">
        <ele>1564.8</ele>
        <time>2022-01-14T11:39:56Z</time>
      </trkpt>
      <trkpt lat="44.99667" lon="6.47608">
        <ele>1564.8</ele>
        <time>2022-01-14T11:39:57Z</time>
      </trkpt>
      <trkpt lat="44.99667" lon="6.47608">
        <ele>1564.8</ele>
        <time>2022-01-14T11:39:58Z</time>
      </trkpt>
      <trkpt lat="44.99667" lon="6.47608">
        <ele>1564.8</ele>
        <time>2022-01-14T11:39:59Z</time>
      </trkpt>
      <trkpt lat="44.99667" lon="6.47609">
        <ele>1564.8</ele>
        <time>2022-01-14T11:40:00Z</time>
      </trkpt>
      <trkpt lat="44.99668" lon="6.4761">
        <ele>1564.8</ele>
        <time>2022-01-14T11:40:01Z</time>
      </trkpt>
      <trkpt lat="44.99669" lon="6.47609">
        <ele>1564.8</ele>
        <time>2022-01-14T11:40:02Z</time>
      </trkpt>
      <trkpt lat="44.99669" lon="6.47609">
        <ele>1564.8</ele>
        <time>2022-01-14T11:40:03Z</time>
      </trkpt>
      <trkpt lat="44.9967" lon="6.47609">
        <ele>1564.8</ele>
        <time>2022-01-14T11:40:04Z</time>
      </trkpt>
      <trkpt lat="44.9967" lon="6.47609">
        <ele>1564.8</ele>
        <time>2022-01-14T11:40:05Z</time>
      </trkpt>
      <trkpt lat="44.9967" lon="6.47609">
        <ele>1564.8</ele>
        <time>2022-01-14T11:40:06Z</time>
      </trkpt>
      <trkpt lat="44.9967" lon="6.4761">
        <ele>1564.8</ele>
        <time>2022-01-14T11:40:07Z</time>
      </trkpt>
      <trkpt lat="44.9967" lon="6.47609">
        <ele>1564.8</ele>
        <time>2022-01-14T11:40:08Z</time>
      </trkpt>
      <trkpt lat="44.9967" lon="6.47609">
        <ele>1564.8</ele>
        <time>2022-01-14T11:40:09Z</time>
      </trkpt>
      <trkpt lat="44.99669" lon="6.47608">
        <ele>1564.8</ele>
        <time>2022-01-14T11:40:10Z</time>
      </trkpt>
      <trkpt lat="44.99668" lon="6.47608">
        <ele>1564.8</ele>
        <time>2022-01-14T11:40:11Z</time>
      </trkpt>
      <trkpt lat="44.99669" lon="6.47607">
        <ele>1564.8</ele>
        <time>2022-01-14T11:40:12Z</time>
      </trkpt>
      <trkpt lat="44.99669" lon="6.47606">
        <ele>1564.8</ele>
        <time>2022-01-14T11:40:13Z</time>
      </trkpt>
      <trkpt lat="44.99669" lon="6.47606">
        <ele>1564.8</ele>
        <time>2022-01-14T11:40:14Z</time>
      </trkpt>
      <trkpt lat="44.99669" lon="6.47607">
        <ele>1564.8</ele>
        <time>2022-01-14T11:40:15Z</time>
      </trkpt>
      <trkpt lat="44.9967" lon="6.47609">
        <ele>1564.8</ele>
        <time>2022-01-14T11:40:16Z</time>
      </trkpt>
      <trkpt lat="44.9967" lon="6.4761">
        <ele>1564.7</ele>
        <time>2022-01-14T11:40:17Z</time>
      </trkpt>
      <trkpt lat="44.9967" lon="6.4761">
        <ele>1564.7</ele>
        <time>2022-01-14T11:40:18Z</time>
      </trkpt>
      <trkpt lat="44.9967" lon="6.47609">
        <ele>1564.7</ele>
        <time>2022-01-14T11:40:19Z</time>
      </trkpt>
      <trkpt lat="44.9967" lon="6.47609">
        <ele>1564.7</ele>
        <time>2022-01-14T11:40:20Z</time>
      </trkpt>
      <trkpt lat="44.9967" lon="6.47609">
        <ele>1564.7</ele>
        <time>2022-01-14T11:40:21Z</time>
      </trkpt>
      <trkpt lat="44.99671" lon="6.4761">
        <ele>1564.7</ele>
        <time>2022-01-14T11:40:22Z</time>
      </trkpt>
      <trkpt lat="44.99671" lon="6.47612">
        <ele>1564.7</ele>
        <time>2022-01-14T11:40:23Z</time>
      </trkpt>
      <trkpt lat="44.99671" lon="6.47612">
        <ele>1564.7</ele>
        <time>2022-01-14T11:40:24Z</time>
      </trkpt>
      <trkpt lat="44.99671" lon="6.47613">
        <ele>1564.7</ele>
        <time>2022-01-14T11:40:25Z</time>
      </trkpt>
      <trkpt lat="44.99672" lon="6.47613">
        <ele>1564.7</ele>
        <time>2022-01-14T11:40:26Z</time>
      </trkpt>
      <trkpt lat="44.99673" lon="6.47613">
        <ele>1564.7</ele>
        <time>2022-01-14T11:40:27Z</time>
      </trkpt>
      <trkpt lat="44.99674" lon="6.47613">
        <ele>1564.7</ele>
        <time>2022-01-14T11:40:28Z</time>
      </trkpt>
      <trkpt lat="44.99675" lon="6.47613">
        <ele>1564.7</ele>
        <time>2022-01-14T11:40:29Z</time>
      </trkpt>
      <trkpt lat="44.99675" lon="6.47613">
        <ele>1564.7</ele>
        <time>2022-01-14T11:40:30Z</time>
      </trkpt>
      <trkpt lat="44.99674" lon="6.47614">
        <ele>1564.7</ele>
        <time>2022-01-14T11:40:31Z</time>
      </trkpt>
      <trkpt lat="44.99675" lon="6.47614">
        <ele>1564.7</ele>
        <time>2022-01-14T11:40:32Z</time>
      </trkpt>
      <trkpt lat="44.99675" lon="6.47615">
        <ele>1564.7</ele>
        <time>2022-01-14T11:40:33Z</time>
      </trkpt>
      <trkpt lat="44.99675" lon="6.47615">
        <ele>1564.7</ele>
        <time>2022-01-14T11:40:34Z</time>
      </trkpt>
      <trkpt lat="44.99675" lon="6.47615">
        <ele>1564.7</ele>
        <time>2022-01-14T11:40:35Z</time>
      </trkpt>
      <trkpt lat="44.99675" lon="6.47615">
        <ele>1564.7</ele>
        <time>2022-01-14T11:40:36Z</time>
      </trkpt>
      <trkpt lat="44.99675" lon="6.47615">
        <ele>1564.7</ele>
        <time>2022-01-14T11:40:37Z</time>
      </trkpt>
      <trkpt lat="44.99675" lon="6.47615">
        <ele>1564.7</ele>
        <time>2022-01-14T11:40:38Z</time>
      </trkpt>
      <trkpt lat="44.99675" lon="6.47615">
        <ele>1564.7</ele>
        <time>2022-01-14T11:40:39Z</time>
      </trkpt>
      <trkpt lat="44.99674" lon="6.47615">
        <ele>1564.7</ele>
        <time>2022-01-14T11:40:40Z</time>
      </trkpt>
      <trkpt lat="44.99674" lon="6.47615">
        <ele>1564.7</ele>
        <time>2022-01-14T11:40:41Z</time>
      </trkpt>
      <trkpt lat="44.99674" lon="6.47615">
        <ele>1564.7</ele>
        <time>2022-01-14T11:40:42Z</time>
      </trkpt>
      <trkpt lat="44.99674" lon="6.47615">
        <ele>1564.7</ele>
        <time>2022-01-14T11:40:43Z</time>
      </trkpt>
      <trkpt lat="44.99674" lon="6.47615">
        <ele>1564.7</ele>
        <time>2022-01-14T11:40:44Z</time>
      </trkpt>
      <trkpt lat="44.99674" lon="6.47616">
        <ele>1564.7</ele>
        <time>2022-01-14T11:40:45Z</time>
      </trkpt>
      <trkpt lat="44.99674" lon="6.47616">
        <ele>1564.7</ele>
        <time>2022-01-14T11:40:46Z</time>
      </trkpt>
      <trkpt lat="44.99675" lon="6.47615">
        <ele>1564.7</ele>
        <time>2022-01-14T11:40:47Z</time>
      </trkpt>
      <trkpt lat="44.99675" lon="6.47613">
        <ele>1564.7</ele>
        <time>2022-01-14T11:40:48Z</time>
      </trkpt>
      <trkpt lat="44.99675" lon="6.47612">
        <ele>1564.7</ele>
        <time>2022-01-14T11:40:49Z</time>
      </trkpt>
      <trkpt lat="44.99675" lon="6.47611">
        <ele>1564.6</ele>
        <time>2022-01-14T11:40:50Z</time>
      </trkpt>
      <trkpt lat="44.99675" lon="6.47608">
        <ele>1564.6</ele>
        <time>2022-01-14T11:40:51Z</time>
      </trkpt>
      <trkpt lat="44.99676" lon="6.47608">
        <ele>1564.6</ele>
        <time>2022-01-14T11:40:52Z</time>
      </trkpt>
      <trkpt lat="44.99677" lon="6.47608">
        <ele>1564.6</ele>
        <time>2022-01-14T11:40:53Z</time>
      </trkpt>
      <trkpt lat="44.99677" lon="6.47608">
        <ele>1564.6</ele>
        <time>2022-01-14T11:40:54Z</time>
      </trkpt>
      <trkpt lat="44.99677" lon="6.47607">
        <ele>1564.6</ele>
        <time>2022-01-14T11:40:55Z</time>
      </trkpt>
      <trkpt lat="44.99677" lon="6.47606">
        <ele>1564.6</ele>
        <time>2022-01-14T11:40:56Z</time>
      </trkpt>
      <trkpt lat="44.99677" lon="6.47606">
        <ele>1564.6</ele>
        <time>2022-01-14T11:40:57Z</time>
      </trkpt>
      <trkpt lat="44.99676" lon="6.47607">
        <ele>1564.6</ele>
        <time>2022-01-14T11:40:58Z</time>
      </trkpt>
      <trkpt lat="44.99676" lon="6.47607">
        <ele>1564.6</ele>
        <time>2022-01-14T11:40:59Z</time>
      </trkpt>
      <trkpt lat="44.99676" lon="6.47606">
        <ele>1564.6</ele>
        <time>2022-01-14T11:41:00Z</time>
      </trkpt>
      <trkpt lat="44.99676" lon="6.47605">
        <ele>1564.6</ele>
        <time>2022-01-14T11:41:01Z</time>
      </trkpt>
      <trkpt lat="44.99676" lon="6.47606">
        <ele>1564.6</ele>
        <time>2022-01-14T11:41:02Z</time>
      </trkpt>
      <trkpt lat="44.99676" lon="6.47605">
        <ele>1564.6</ele>
        <time>2022-01-14T11:41:03Z</time>
      </trkpt>
      <trkpt lat="44.99676" lon="6.47606">
        <ele>1564.6</ele>
        <time>2022-01-14T11:41:04Z</time>
      </trkpt>
      <trkpt lat="44.99676" lon="6.47606">
        <ele>1564.6</ele>
        <time>2022-01-14T11:41:05Z</time>
      </trkpt>
      <trkpt lat="44.99676" lon="6.47606">
        <ele>1564.6</ele>
        <time>2022-01-14T11:41:06Z</time>
      </trkpt>
      <trkpt lat="44.99676" lon="6.47605">
        <ele>1564.6</ele>
        <time>2022-01-14T11:41:07Z</time>
      </trkpt>
      <trkpt lat="44.99675" lon="6.47605">
        <ele>1564.6</ele>
        <time>2022-01-14T11:41:08Z</time>
      </trkpt>
      <trkpt lat="44.99675" lon="6.47605">
        <ele>1564.6</ele>
        <time>2022-01-14T11:41:09Z</time>
      </trkpt>
      <trkpt lat="44.99675" lon="6.47605">
        <ele>1564.6</ele>
        <time>2022-01-14T11:41:10Z</time>
      </trkpt>
      <trkpt lat="44.99675" lon="6.47605">
        <ele>1564.6</ele>
        <time>2022-01-14T11:41:11Z</time>
      </trkpt>
      <trkpt lat="44.99675" lon="6.47605">
        <ele>1564.6</ele>
        <time>2022-01-14T11:41:12Z</time>
      </trkpt>
      <trkpt lat="44.99675" lon="6.47605">
        <ele>1564.6</ele>
        <time>2022-01-14T11:41:13Z</time>
      </trkpt>
      <trkpt lat="44.99675" lon="6.47604">
        <ele>1564.6</ele>
        <time>2022-01-14T11:41:14Z</time>
      </trkpt>
      <trkpt lat="44.99674" lon="6.47603">
        <ele>1564.6</ele>
        <time>2022-01-14T11:41:15Z</time>
      </trkpt>
      <trkpt lat="44.99673" lon="6.47602">
        <ele>1564.6</ele>
        <time>2022-01-14T11:41:16Z</time>
      </trkpt>
      <trkpt lat="44.99672" lon="6.47602">
        <ele>1564.6</ele>
        <time>2022-01-14T11:41:17Z</time>
      </trkpt>
      <trkpt lat="44.99671" lon="6.47601">
        <ele>1564.6</ele>
        <time>2022-01-14T11:41:18Z</time>
      </trkpt>
      <trkpt lat="44.99669" lon="6.476">
        <ele>1564.5</ele>
        <time>2022-01-14T11:41:19Z</time>
      </trkpt>
      <trkpt lat="44.99668" lon="6.47599">
        <ele>1564.5</ele>
        <time>2022-01-14T11:41:20Z</time>
      </trkpt>
      <trkpt lat="44.99668" lon="6.47599">
        <ele>1564.5</ele>
        <time>2022-01-14T11:41:21Z</time>
      </trkpt>
      <trkpt lat="44.99668" lon="6.47599">
        <ele>1564.5</ele>
        <time>2022-01-14T11:41:22Z</time>
      </trkpt>
      <trkpt lat="44.99668" lon="6.47599">
        <ele>1564.5</ele>
        <time>2022-01-14T11:41:23Z</time>
      </trkpt>
      <trkpt lat="44.99668" lon="6.476">
        <ele>1564.5</ele>
        <time>2022-01-14T11:41:24Z</time>
      </trkpt>
      <trkpt lat="44.99668" lon="6.476">
        <ele>1564.5</ele>
        <time>2022-01-14T11:41:25Z</time>
      </trkpt>
      <trkpt lat="44.99668" lon="6.476">
        <ele>1564.5</ele>
        <time>2022-01-14T11:41:26Z</time>
      </trkpt>
      <trkpt lat="44.99668" lon="6.476">
        <ele>1564.5</ele>
        <time>2022-01-14T11:41:27Z</time>
      </trkpt>
      <trkpt lat="44.99668" lon="6.476">
        <ele>1564.5</ele>
        <time>2022-01-14T11:41:28Z</time>
      </trkpt>
      <trkpt lat="44.99668" lon="6.476">
        <ele>1564.5</ele>
        <time>2022-01-14T11:41:29Z</time>
      </trkpt>
      <trkpt lat="44.99668" lon="6.476">
        <ele>1564.5</ele>
        <time>2022-01-14T11:41:30Z</time>
      </trkpt>
      <trkpt lat="44.99668" lon="6.476">
        <ele>1564.5</ele>
        <time>2022-01-14T11:41:31Z</time>
      </trkpt>
      <trkpt lat="44.99668" lon="6.476">
        <ele>1564.5</ele>
        <time>2022-01-14T11:41:32Z</time>
      </trkpt>
      <trkpt lat="44.99668" lon="6.476">
        <ele>1564.5</ele>
        <time>2022-01-14T11:41:33Z</time>
      </trkpt>
      <trkpt lat="44.99668" lon="6.476">
        <ele>1564.5</ele>
        <time>2022-01-14T11:41:34Z</time>
      </trkpt>
      <trkpt lat="44.99668" lon="6.47601">
        <ele>1564.5</ele>
        <time>2022-01-14T11:41:35Z</time>
      </trkpt>
      <trkpt lat="44.99668" lon="6.47601">
        <ele>1564.5</ele>
        <time>2022-01-14T11:41:36Z</time>
      </trkpt>
      <trkpt lat="44.99668" lon="6.47601">
        <ele>1564.5</ele>
        <time>2022-01-14T11:41:37Z</time>
      </trkpt>
      <trkpt lat="44.99668" lon="6.47601">
        <ele>1564.5</ele>
        <time>2022-01-14T11:41:38Z</time>
      </trkpt>
      <trkpt lat="44.99668" lon="6.47601">
        <ele>1564.5</ele>
        <time>2022-01-14T11:41:39Z</time>
      </trkpt>
      <trkpt lat="44.99668" lon="6.47601">
        <ele>1564.5</ele>
        <time>2022-01-14T11:41:40Z</time>
      </trkpt>
      <trkpt lat="44.99668" lon="6.47601">
        <ele>1564.5</ele>
        <time>2022-01-14T11:41:41Z</time>
      </trkpt>
      <trkpt lat="44.99668" lon="6.47601">
        <ele>1564.5</ele>
        <time>2022-01-14T11:41:42Z</time>
      </trkpt>
      <trkpt lat="44.99668" lon="6.47601">
        <ele>1564.5</ele>
        <time>2022-01-14T11:41:43Z</time>
      </trkpt>
      <trkpt lat="44.99668" lon="6.47601">
        <ele>1564.5</ele>
        <time>2022-01-14T11:41:44Z</time>
      </trkpt>
      <trkpt lat="44.99668" lon="6.47601">
        <ele>1564.5</ele>
        <time>2022-01-14T11:41:45Z</time>
      </trkpt>
      <trkpt lat="44.99668" lon="6.47601">
        <ele>1564.5</ele>
        <time>2022-01-14T11:41:46Z</time>
      </trkpt>
      <trkpt lat="44.99668" lon="6.47601">
        <ele>1564.5</ele>
        <time>2022-01-14T11:41:47Z</time>
      </trkpt>
      <trkpt lat="44.99668" lon="6.47602">
        <ele>1564.5</ele>
        <time>2022-01-14T11:41:48Z</time>
      </trkpt>
      <trkpt lat="44.99668" lon="6.47602">
        <ele>1564.5</ele>
        <time>2022-01-14T11:41:49Z</time>
      </trkpt>
      <trkpt lat="44.99668" lon="6.47602">
        <ele>1564.5</ele>
        <time>2022-01-14T11:41:50Z</time>
      </trkpt>
      <trkpt lat="44.99668" lon="6.47602">
        <ele>1564.5</ele>
        <time>2022-01-14T11:41:51Z</time>
      </trkpt>
      <trkpt lat="44.99668" lon="6.47602">
        <ele>1564.5</ele>
        <time>2022-01-14T11:41:52Z</time>
      </trkpt>
      <trkpt lat="44.99668" lon="6.47602">
        <ele>1564.5</ele>
        <time>2022-01-14T11:41:53Z</time>
      </trkpt>
      <trkpt lat="44.99668" lon="6.47602">
        <ele>1564.5</ele>
        <time>2022-01-14T11:41:54Z</time>
      </trkpt>
      <trkpt lat="44.99668" lon="6.47602">
        <ele>1564.5</ele>
        <time>2022-01-14T11:41:55Z</time>
      </trkpt>
      <trkpt lat="44.99668" lon="6.47601">
        <ele>1564.5</ele>
        <time>2022-01-14T11:41:56Z</time>
      </trkpt>
      <trkpt lat="44.99668" lon="6.47601">
        <ele>1564.5</ele>
        <time>2022-01-14T11:41:57Z</time>
      </trkpt>
      <trkpt lat="44.99668" lon="6.47602">
        <ele>1564.5</ele>
        <time>2022-01-14T11:41:58Z</time>
      </trkpt>
      <trkpt lat="44.99668" lon="6.47602">
        <ele>1564.5</ele>
        <time>2022-01-14T11:41:59Z</time>
      </trkpt>
      <trkpt lat="44.99668" lon="6.47602">
        <ele>1564.5</ele>
        <time>2022-01-14T11:42:00Z</time>
      </trkpt>
      <trkpt lat="44.99668" lon="6.47602">
        <ele>1564.5</ele>
        <time>2022-01-14T11:42:01Z</time>
      </trkpt>
      <trkpt lat="44.99668" lon="6.47602">
        <ele>1564.5</ele>
        <time>2022-01-14T11:42:02Z</time>
      </trkpt>
      <trkpt lat="44.99668" lon="6.47602">
        <ele>1564.5</ele>
        <time>2022-01-14T11:42:03Z</time>
      </trkpt>
      <trkpt lat="44.99668" lon="6.47602">
        <ele>1564.5</ele>
        <time>2022-01-14T11:42:04Z</time>
      </trkpt>
      <trkpt lat="44.99668" lon="6.47602">
        <ele>1564.5</ele>
        <time>2022-01-14T11:42:05Z</time>
      </trkpt>
      <trkpt lat="44.99668" lon="6.47603">
        <ele>1564.5</ele>
        <time>2022-01-14T11:42:06Z</time>
      </trkpt>
      <trkpt lat="44.99668" lon="6.47604">
        <ele>1564.5</ele>
        <time>2022-01-14T11:42:07Z</time>
      </trkpt>
      <trkpt lat="44.99668" lon="6.47604">
        <ele>1564.5</ele>
        <time>2022-01-14T11:42:08Z</time>
      </trkpt>
      <trkpt lat="44.99668" lon="6.47605">
        <ele>1564.5</ele>
        <time>2022-01-14T11:42:09Z</time>
      </trkpt>
      <trkpt lat="44.99668" lon="6.47605">
        <ele>1564.5</ele>
        <time>2022-01-14T11:42:10Z</time>
      </trkpt>
      <trkpt lat="44.99668" lon="6.47606">
        <ele>1564.5</ele>
        <time>2022-01-14T11:42:11Z</time>
      </trkpt>
      <trkpt lat="44.99668" lon="6.47606">
        <ele>1564.5</ele>
        <time>2022-01-14T11:42:12Z</time>
      </trkpt>
      <trkpt lat="44.99668" lon="6.47606">
        <ele>1564.5</ele>
        <time>2022-01-14T11:42:13Z</time>
      </trkpt>
      <trkpt lat="44.99668" lon="6.47606">
        <ele>1564.5</ele>
        <time>2022-01-14T11:42:14Z</time>
      </trkpt>
      <trkpt lat="44.99668" lon="6.47606">
        <ele>1564.5</ele>
        <time>2022-01-14T11:42:15Z</time>
      </trkpt>
      <trkpt lat="44.99668" lon="6.47606">
        <ele>1564.5</ele>
        <time>2022-01-14T11:42:16Z</time>
      </trkpt>
      <trkpt lat="44.99668" lon="6.47606">
        <ele>1564.5</ele>
        <time>2022-01-14T11:42:17Z</time>
      </trkpt>
      <trkpt lat="44.99668" lon="6.47606">
        <ele>1564.5</ele>
        <time>2022-01-14T11:42:18Z</time>
      </trkpt>
      <trkpt lat="44.99668" lon="6.47606">
        <ele>1564.5</ele>
        <time>2022-01-14T11:42:19Z</time>
      </trkpt>
      <trkpt lat="44.99668" lon="6.47606">
        <ele>1564.5</ele>
        <time>2022-01-14T11:42:20Z</time>
      </trkpt>
      <trkpt lat="44.99668" lon="6.47606">
        <ele>1564.5</ele>
        <time>2022-01-14T11:42:21Z</time>
      </trkpt>
      <trkpt lat="44.99668" lon="6.47606">
        <ele>1564.5</ele>
        <time>2022-01-14T11:42:22Z</time>
      </trkpt>
      <trkpt lat="44.99668" lon="6.47606">
        <ele>1564.5</ele>
        <time>2022-01-14T11:42:23Z</time>
      </trkpt>
      <trkpt lat="44.99668" lon="6.47606">
        <ele>1564.5</ele>
        <time>2022-01-14T11:42:24Z</time>
      </trkpt>
      <trkpt lat="44.99668" lon="6.47606">
        <ele>1564.5</ele>
        <time>2022-01-14T11:42:25Z</time>
      </trkpt>
      <trkpt lat="44.99668" lon="6.47606">
        <ele>1564.5</ele>
        <time>2022-01-14T11:42:26Z</time>
      </trkpt>
      <trkpt lat="44.99668" lon="6.47606">
        <ele>1564.5</ele>
        <time>2022-01-14T11:42:27Z</time>
      </trkpt>
      <trkpt lat="44.99668" lon="6.47607">
        <ele>1564.5</ele>
        <time>2022-01-14T11:42:28Z</time>
      </trkpt>
      <trkpt lat="44.99669" lon="6.47606">
        <ele>1564.5</ele>
        <time>2022-01-14T11:42:29Z</time>
      </trkpt>
      <trkpt lat="44.99669" lon="6.47606">
        <ele>1564.5</ele>
        <time>2022-01-14T11:42:30Z</time>
      </trkpt>
      <trkpt lat="44.99669" lon="6.47607">
        <ele>1564.5</ele>
        <time>2022-01-14T11:42:31Z</time>
      </trkpt>
      <trkpt lat="44.9967" lon="6.47607">
        <ele>1564.5</ele>
        <time>2022-01-14T11:42:32Z</time>
      </trkpt>
      <trkpt lat="44.9967" lon="6.47607">
        <ele>1564.5</ele>
        <time>2022-01-14T11:42:33Z</time>
      </trkpt>
      <trkpt lat="44.99671" lon="6.47607">
        <ele>1564.5</ele>
        <time>2022-01-14T11:42:34Z</time>
      </trkpt>
      <trkpt lat="44.99671" lon="6.47607">
        <ele>1564.5</ele>
        <time>2022-01-14T11:42:35Z</time>
      </trkpt>
      <trkpt lat="44.99671" lon="6.47608">
        <ele>1564.5</ele>
        <time>2022-01-14T11:42:36Z</time>
      </trkpt>
      <trkpt lat="44.99672" lon="6.47608">
        <ele>1564.5</ele>
        <time>2022-01-14T11:42:37Z</time>
      </trkpt>
      <trkpt lat="44.99671" lon="6.47608">
        <ele>1564.5</ele>
        <time>2022-01-14T11:42:38Z</time>
      </trkpt>
      <trkpt lat="44.99671" lon="6.47608">
        <ele>1564.5</ele>
        <time>2022-01-14T11:42:39Z</time>
      </trkpt>
      <trkpt lat="44.99671" lon="6.47608">
        <ele>1564.5</ele>
        <time>2022-01-14T11:42:40Z</time>
      </trkpt>
      <trkpt lat="44.99671" lon="6.47609">
        <ele>1564.5</ele>
        <time>2022-01-14T11:42:41Z</time>
      </trkpt>
      <trkpt lat="44.99671" lon="6.4761">
        <ele>1564.5</ele>
        <time>2022-01-14T11:42:42Z</time>
      </trkpt>
      <trkpt lat="44.99671" lon="6.4761">
        <ele>1564.5</ele>
        <time>2022-01-14T11:42:43Z</time>
      </trkpt>
      <trkpt lat="44.99671" lon="6.47611">
        <ele>1564.4</ele>
        <time>2022-01-14T11:42:44Z</time>
      </trkpt>
      <trkpt lat="44.99672" lon="6.47613">
        <ele>1564.4</ele>
        <time>2022-01-14T11:42:45Z</time>
      </trkpt>
      <trkpt lat="44.99672" lon="6.47614">
        <ele>1564.4</ele>
        <time>2022-01-14T11:42:46Z</time>
      </trkpt>
      <trkpt lat="44.99672" lon="6.47616">
        <ele>1564.4</ele>
        <time>2022-01-14T11:42:47Z</time>
      </trkpt>
      <trkpt lat="44.99673" lon="6.47617">
        <ele>1564.4</ele>
        <time>2022-01-14T11:42:48Z</time>
      </trkpt>
      <trkpt lat="44.99673" lon="6.47618">
        <ele>1564.4</ele>
        <time>2022-01-14T11:42:49Z</time>
      </trkpt>
      <trkpt lat="44.99673" lon="6.47619">
        <ele>1564.4</ele>
        <time>2022-01-14T11:42:50Z</time>
      </trkpt>
      <trkpt lat="44.99673" lon="6.4762">
        <ele>1564.4</ele>
        <time>2022-01-14T11:42:51Z</time>
      </trkpt>
      <trkpt lat="44.99674" lon="6.47621">
        <ele>1564.4</ele>
        <time>2022-01-14T11:42:52Z</time>
      </trkpt>
      <trkpt lat="44.99674" lon="6.47621">
        <ele>1564.4</ele>
        <time>2022-01-14T11:42:53Z</time>
      </trkpt>
      <trkpt lat="44.99674" lon="6.47622">
        <ele>1564.4</ele>
        <time>2022-01-14T11:42:54Z</time>
      </trkpt>
      <trkpt lat="44.99674" lon="6.47623">
        <ele>1564.4</ele>
        <time>2022-01-14T11:42:55Z</time>
      </trkpt>
      <trkpt lat="44.99674" lon="6.47623">
        <ele>1564.4</ele>
        <time>2022-01-14T11:42:56Z</time>
      </trkpt>
      <trkpt lat="44.99675" lon="6.47621">
        <ele>1564.4</ele>
        <time>2022-01-14T11:42:57Z</time>
      </trkpt>
      <trkpt lat="44.99674" lon="6.47622">
        <ele>1564.4</ele>
        <time>2022-01-14T11:42:58Z</time>
      </trkpt>
      <trkpt lat="44.99674" lon="6.47622">
        <ele>1564.4</ele>
        <time>2022-01-14T11:42:59Z</time>
      </trkpt>
      <trkpt lat="44.99675" lon="6.47622">
        <ele>1564.4</ele>
        <time>2022-01-14T11:43:00Z</time>
      </trkpt>
      <trkpt lat="44.99674" lon="6.47622">
        <ele>1564.4</ele>
        <time>2022-01-14T11:43:01Z</time>
      </trkpt>
      <trkpt lat="44.99674" lon="6.47622">
        <ele>1564.4</ele>
        <time>2022-01-14T11:43:02Z</time>
      </trkpt>
      <trkpt lat="44.99674" lon="6.47622">
        <ele>1564.4</ele>
        <time>2022-01-14T11:43:03Z</time>
      </trkpt>
      <trkpt lat="44.99674" lon="6.47624">
        <ele>1564.4</ele>
        <time>2022-01-14T11:43:04Z</time>
      </trkpt>
      <trkpt lat="44.99674" lon="6.47624">
        <ele>1564.4</ele>
        <time>2022-01-14T11:43:05Z</time>
      </trkpt>
      <trkpt lat="44.99675" lon="6.47624">
        <ele>1564.4</ele>
        <time>2022-01-14T11:43:06Z</time>
      </trkpt>
      <trkpt lat="44.99674" lon="6.47625">
        <ele>1564.4</ele>
        <time>2022-01-14T11:43:07Z</time>
      </trkpt>
      <trkpt lat="44.99674" lon="6.47626">
        <ele>1564.4</ele>
        <time>2022-01-14T11:43:08Z</time>
      </trkpt>
      <trkpt lat="44.99674" lon="6.47626">
        <ele>1564.4</ele>
        <time>2022-01-14T11:43:09Z</time>
      </trkpt>
      <trkpt lat="44.99674" lon="6.47626">
        <ele>1564.3</ele>
        <time>2022-01-14T11:43:10Z</time>
      </trkpt>
      <trkpt lat="44.99673" lon="6.47627">
        <ele>1564.3</ele>
        <time>2022-01-14T11:43:11Z</time>
      </trkpt>
      <trkpt lat="44.99674" lon="6.47627">
        <ele>1564.3</ele>
        <time>2022-01-14T11:43:12Z</time>
      </trkpt>
      <trkpt lat="44.99674" lon="6.47625">
        <ele>1564.3</ele>
        <time>2022-01-14T11:43:13Z</time>
      </trkpt>
      <trkpt lat="44.99674" lon="6.47624">
        <ele>1564.3</ele>
        <time>2022-01-14T11:43:14Z</time>
      </trkpt>
      <trkpt lat="44.99673" lon="6.47622">
        <ele>1564.3</ele>
        <time>2022-01-14T11:43:15Z</time>
      </trkpt>
      <trkpt lat="44.99673" lon="6.47622">
        <ele>1564.3</ele>
        <time>2022-01-14T11:43:16Z</time>
      </trkpt>
      <trkpt lat="44.99673" lon="6.47622">
        <ele>1564.3</ele>
        <time>2022-01-14T11:43:17Z</time>
      </trkpt>
      <trkpt lat="44.99673" lon="6.47622">
        <ele>1564.3</ele>
        <time>2022-01-14T11:43:18Z</time>
      </trkpt>
      <trkpt lat="44.99673" lon="6.47622">
        <ele>1564.3</ele>
        <time>2022-01-14T11:43:19Z</time>
      </trkpt>
      <trkpt lat="44.99673" lon="6.47622">
        <ele>1564.3</ele>
        <time>2022-01-14T11:43:20Z</time>
      </trkpt>
      <trkpt lat="44.99673" lon="6.47622">
        <ele>1564.3</ele>
        <time>2022-01-14T11:43:21Z</time>
      </trkpt>
      <trkpt lat="44.99673" lon="6.47623">
        <ele>1564.3</ele>
        <time>2022-01-14T11:43:22Z</time>
      </trkpt>
      <trkpt lat="44.99673" lon="6.47623">
        <ele>1564.3</ele>
        <time>2022-01-14T11:43:23Z</time>
      </trkpt>
      <trkpt lat="44.99673" lon="6.47622">
        <ele>1564.3</ele>
        <time>2022-01-14T11:43:24Z</time>
      </trkpt>
      <trkpt lat="44.99673" lon="6.47622">
        <ele>1564.3</ele>
        <time>2022-01-14T11:43:25Z</time>
      </trkpt>
      <trkpt lat="44.99673" lon="6.47622">
        <ele>1564.3</ele>
        <time>2022-01-14T11:43:26Z</time>
      </trkpt>
      <trkpt lat="44.99673" lon="6.47622">
        <ele>1564.3</ele>
        <time>2022-01-14T11:43:27Z</time>
      </trkpt>
      <trkpt lat="44.99673" lon="6.47622">
        <ele>1564.3</ele>
        <time>2022-01-14T11:43:28Z</time>
      </trkpt>
      <trkpt lat="44.99673" lon="6.47622">
        <ele>1564.3</ele>
        <time>2022-01-14T11:43:29Z</time>
      </trkpt>
      <trkpt lat="44.99673" lon="6.47622">
        <ele>1564.3</ele>
        <time>2022-01-14T11:43:30Z</time>
      </trkpt>
      <trkpt lat="44.99674" lon="6.47621">
        <ele>1564.3</ele>
        <time>2022-01-14T11:43:31Z</time>
      </trkpt>
      <trkpt lat="44.99674" lon="6.47621">
        <ele>1564.3</ele>
        <time>2022-01-14T11:43:32Z</time>
      </trkpt>
      <trkpt lat="44.99674" lon="6.4762">
        <ele>1564.3</ele>
        <time>2022-01-14T11:43:33Z</time>
      </trkpt>
      <trkpt lat="44.99675" lon="6.47619">
        <ele>1564.3</ele>
        <time>2022-01-14T11:43:34Z</time>
      </trkpt>
      <trkpt lat="44.99675" lon="6.47619">
        <ele>1564.3</ele>
        <time>2022-01-14T11:43:35Z</time>
      </trkpt>
      <trkpt lat="44.99676" lon="6.47619">
        <ele>1564.3</ele>
        <time>2022-01-14T11:43:36Z</time>
      </trkpt>
      <trkpt lat="44.99676" lon="6.47619">
        <ele>1564.3</ele>
        <time>2022-01-14T11:43:37Z</time>
      </trkpt>
      <trkpt lat="44.99676" lon="6.47619">
        <ele>1564.3</ele>
        <time>2022-01-14T11:43:38Z</time>
      </trkpt>
      <trkpt lat="44.99676" lon="6.47618">
        <ele>1564.3</ele>
        <time>2022-01-14T11:43:39Z</time>
      </trkpt>
      <trkpt lat="44.99676" lon="6.47618">
        <ele>1564.3</ele>
        <time>2022-01-14T11:43:40Z</time>
      </trkpt>
      <trkpt lat="44.99676" lon="6.47618">
        <ele>1564.3</ele>
        <time>2022-01-14T11:43:41Z</time>
      </trkpt>
      <trkpt lat="44.99676" lon="6.47618">
        <ele>1564.3</ele>
        <time>2022-01-14T11:43:42Z</time>
      </trkpt>
      <trkpt lat="44.99677" lon="6.47618">
        <ele>1564.3</ele>
        <time>2022-01-14T11:43:43Z</time>
      </trkpt>
      <trkpt lat="44.99679" lon="6.47618">
        <ele>1564.2</ele>
        <time>2022-01-14T11:43:44Z</time>
      </trkpt>
      <trkpt lat="44.99678" lon="6.47615">
        <ele>1564.2</ele>
        <time>2022-01-14T11:43:45Z</time>
      </trkpt>
      <trkpt lat="44.99677" lon="6.47614">
        <ele>1564.2</ele>
        <time>2022-01-14T11:43:46Z</time>
      </trkpt>
      <trkpt lat="44.99676" lon="6.47613">
        <ele>1564.2</ele>
        <time>2022-01-14T11:43:47Z</time>
      </trkpt>
      <trkpt lat="44.99675" lon="6.47612">
        <ele>1564.2</ele>
        <time>2022-01-14T11:43:48Z</time>
      </trkpt>
      <trkpt lat="44.99674" lon="6.47611">
        <ele>1564.2</ele>
        <time>2022-01-14T11:43:49Z</time>
      </trkpt>
      <trkpt lat="44.99674" lon="6.47611">
        <ele>1564.2</ele>
        <time>2022-01-14T11:43:50Z</time>
      </trkpt>
      <trkpt lat="44.99674" lon="6.4761">
        <ele>1564.2</ele>
        <time>2022-01-14T11:43:51Z</time>
      </trkpt>
      <trkpt lat="44.99674" lon="6.4761">
        <ele>1564.2</ele>
        <time>2022-01-14T11:43:52Z</time>
      </trkpt>
      <trkpt lat="44.99674" lon="6.4761">
        <ele>1564.2</ele>
        <time>2022-01-14T11:43:53Z</time>
      </trkpt>
      <trkpt lat="44.99674" lon="6.47609">
        <ele>1564.2</ele>
        <time>2022-01-14T11:43:54Z</time>
      </trkpt>
      <trkpt lat="44.99675" lon="6.47609">
        <ele>1564.2</ele>
        <time>2022-01-14T11:43:55Z</time>
      </trkpt>
      <trkpt lat="44.99675" lon="6.47609">
        <ele>1564.2</ele>
        <time>2022-01-14T11:43:56Z</time>
      </trkpt>
      <trkpt lat="44.99675" lon="6.47609">
        <ele>1564.2</ele>
        <time>2022-01-14T11:43:57Z</time>
      </trkpt>
      <trkpt lat="44.99676" lon="6.47608">
        <ele>1564.2</ele>
        <time>2022-01-14T11:43:58Z</time>
      </trkpt>
      <trkpt lat="44.99677" lon="6.47608">
        <ele>1564.2</ele>
        <time>2022-01-14T11:43:59Z</time>
      </trkpt>
      <trkpt lat="44.99677" lon="6.47608">
        <ele>1564.2</ele>
        <time>2022-01-14T11:44:00Z</time>
      </trkpt>
      <trkpt lat="44.99677" lon="6.47609">
        <ele>1564.2</ele>
        <time>2022-01-14T11:44:01Z</time>
      </trkpt>
      <trkpt lat="44.99677" lon="6.47609">
        <ele>1564.2</ele>
        <time>2022-01-14T11:44:02Z</time>
      </trkpt>
      <trkpt lat="44.99678" lon="6.47609">
        <ele>1564.2</ele>
        <time>2022-01-14T11:44:03Z</time>
      </trkpt>
      <trkpt lat="44.99678" lon="6.47611">
        <ele>1564.2</ele>
        <time>2022-01-14T11:44:04Z</time>
      </trkpt>
      <trkpt lat="44.99678" lon="6.47611">
        <ele>1564.2</ele>
        <time>2022-01-14T11:44:05Z</time>
      </trkpt>
      <trkpt lat="44.99678" lon="6.47611">
        <ele>1564.2</ele>
        <time>2022-01-14T11:44:06Z</time>
      </trkpt>
      <trkpt lat="44.99679" lon="6.47612">
        <ele>1564.1</ele>
        <time>2022-01-14T11:44:07Z</time>
      </trkpt>
      <trkpt lat="44.99679" lon="6.47612">
        <ele>1564.1</ele>
        <time>2022-01-14T11:44:08Z</time>
      </trkpt>
      <trkpt lat="44.99678" lon="6.47613">
        <ele>1564.1</ele>
        <time>2022-01-14T11:44:09Z</time>
      </trkpt>
      <trkpt lat="44.99678" lon="6.47613">
        <ele>1564.1</ele>
        <time>2022-01-14T11:44:10Z</time>
      </trkpt>
      <trkpt lat="44.99678" lon="6.47613">
        <ele>1564.1</ele>
        <time>2022-01-14T11:44:11Z</time>
      </trkpt>
      <trkpt lat="44.99679" lon="6.47613">
        <ele>1564.1</ele>
        <time>2022-01-14T11:44:12Z</time>
      </trkpt>
      <trkpt lat="44.99679" lon="6.47614">
        <ele>1564.1</ele>
        <time>2022-01-14T11:44:13Z</time>
      </trkpt>
      <trkpt lat="44.99679" lon="6.47614">
        <ele>1564.1</ele>
        <time>2022-01-14T11:44:14Z</time>
      </trkpt>
      <trkpt lat="44.99678" lon="6.47613">
        <ele>1564.1</ele>
        <time>2022-01-14T11:44:15Z</time>
      </trkpt>
      <trkpt lat="44.99677" lon="6.47613">
        <ele>1564.1</ele>
        <time>2022-01-14T11:44:16Z</time>
      </trkpt>
      <trkpt lat="44.99678" lon="6.47613">
        <ele>1564.1</ele>
        <time>2022-01-14T11:44:17Z</time>
      </trkpt>
      <trkpt lat="44.99677" lon="6.47613">
        <ele>1564.1</ele>
        <time>2022-01-14T11:44:18Z</time>
      </trkpt>
      <trkpt lat="44.99677" lon="6.47613">
        <ele>1564.1</ele>
        <time>2022-01-14T11:44:19Z</time>
      </trkpt>
      <trkpt lat="44.99676" lon="6.47614">
        <ele>1564.1</ele>
        <time>2022-01-14T11:44:20Z</time>
      </trkpt>
      <trkpt lat="44.99676" lon="6.47614">
        <ele>1564.1</ele>
        <time>2022-01-14T11:44:21Z</time>
      </trkpt>
      <trkpt lat="44.99676" lon="6.47615">
        <ele>1564.1</ele>
        <time>2022-01-14T11:44:22Z</time>
      </trkpt>
      <trkpt lat="44.99676" lon="6.47615">
        <ele>1564.1</ele>
        <time>2022-01-14T11:44:23Z</time>
      </trkpt>
      <trkpt lat="44.99676" lon="6.47616">
        <ele>1564.1</ele>
        <time>2022-01-14T11:44:24Z</time>
      </trkpt>
      <trkpt lat="44.99676" lon="6.47617">
        <ele>1564.1</ele>
        <time>2022-01-14T11:44:25Z</time>
      </trkpt>
      <trkpt lat="44.99676" lon="6.47618">
        <ele>1564.1</ele>
        <time>2022-01-14T11:44:26Z</time>
      </trkpt>
      <trkpt lat="44.99676" lon="6.47618">
        <ele>1564.1</ele>
        <time>2022-01-14T11:44:27Z</time>
      </trkpt>
      <trkpt lat="44.99676" lon="6.47618">
        <ele>1564.1</ele>
        <time>2022-01-14T11:44:28Z</time>
      </trkpt>
      <trkpt lat="44.99676" lon="6.47618">
        <ele>1564.1</ele>
        <time>2022-01-14T11:44:29Z</time>
      </trkpt>
      <trkpt lat="44.99676" lon="6.47618">
        <ele>1564.1</ele>
        <time>2022-01-14T11:44:30Z</time>
      </trkpt>
      <trkpt lat="44.99676" lon="6.47618">
        <ele>1564.1</ele>
        <time>2022-01-14T11:44:31Z</time>
      </trkpt>
      <trkpt lat="44.99675" lon="6.47617">
        <ele>1564.1</ele>
        <time>2022-01-14T11:44:32Z</time>
      </trkpt>
      <trkpt lat="44.99675" lon="6.47617">
        <ele>1564.1</ele>
        <time>2022-01-14T11:44:33Z</time>
      </trkpt>
      <trkpt lat="44.99675" lon="6.47617">
        <ele>1564.1</ele>
        <time>2022-01-14T11:44:34Z</time>
      </trkpt>
      <trkpt lat="44.99677" lon="6.47617">
        <ele>1564.1</ele>
        <time>2022-01-14T11:44:35Z</time>
      </trkpt>
      <trkpt lat="44.99677" lon="6.47617">
        <ele>1564.1</ele>
        <time>2022-01-14T11:44:36Z</time>
      </trkpt>
      <trkpt lat="44.99677" lon="6.47618">
        <ele>1564.1</ele>
        <time>2022-01-14T11:44:37Z</time>
      </trkpt>
      <trkpt lat="44.99677" lon="6.47618">
        <ele>1564.1</ele>
        <time>2022-01-14T11:44:38Z</time>
      </trkpt>
      <trkpt lat="44.99677" lon="6.47618">
        <ele>1564.1</ele>
        <time>2022-01-14T11:44:39Z</time>
      </trkpt>
      <trkpt lat="44.99678" lon="6.47618">
        <ele>1564.1</ele>
        <time>2022-01-14T11:44:40Z</time>
      </trkpt>
      <trkpt lat="44.99678" lon="6.47617">
        <ele>1564.1</ele>
        <time>2022-01-14T11:44:41Z</time>
      </trkpt>
      <trkpt lat="44.99678" lon="6.47617">
        <ele>1564.1</ele>
        <time>2022-01-14T11:44:42Z</time>
      </trkpt>
      <trkpt lat="44.99678" lon="6.47617">
        <ele>1564.1</ele>
        <time>2022-01-14T11:44:43Z</time>
      </trkpt>
      <trkpt lat="44.99678" lon="6.47617">
        <ele>1564.1</ele>
        <time>2022-01-14T11:44:44Z</time>
      </trkpt>
      <trkpt lat="44.99678" lon="6.47617">
        <ele>1564.1</ele>
        <time>2022-01-14T11:44:45Z</time>
      </trkpt>
      <trkpt lat="44.99678" lon="6.47617">
        <ele>1564</ele>
        <time>2022-01-14T11:44:46Z</time>
      </trkpt>
      <trkpt lat="44.99678" lon="6.47617">
        <ele>1564</ele>
        <time>2022-01-14T11:44:47Z</time>
      </trkpt>
      <trkpt lat="44.99678" lon="6.47617">
        <ele>1564</ele>
        <time>2022-01-14T11:44:48Z</time>
      </trkpt>
      <trkpt lat="44.99678" lon="6.47617">
        <ele>1564</ele>
        <time>2022-01-14T11:44:49Z</time>
      </trkpt>
      <trkpt lat="44.99678" lon="6.47617">
        <ele>1564</ele>
        <time>2022-01-14T11:44:50Z</time>
      </trkpt>
      <trkpt lat="44.99678" lon="6.47617">
        <ele>1564</ele>
        <time>2022-01-14T11:44:51Z</time>
      </trkpt>
      <trkpt lat="44.99678" lon="6.47617">
        <ele>1564</ele>
        <time>2022-01-14T11:44:52Z</time>
      </trkpt>
      <trkpt lat="44.99678" lon="6.47617">
        <ele>1564</ele>
        <time>2022-01-14T11:44:53Z</time>
      </trkpt>
      <trkpt lat="44.99678" lon="6.47617">
        <ele>1564</ele>
        <time>2022-01-14T11:44:54Z</time>
      </trkpt>
      <trkpt lat="44.99677" lon="6.47616">
        <ele>1564</ele>
        <time>2022-01-14T11:44:55Z</time>
      </trkpt>
      <trkpt lat="44.99677" lon="6.47616">
        <ele>1564</ele>
        <time>2022-01-14T11:44:56Z</time>
      </trkpt>
      <trkpt lat="44.99677" lon="6.47615">
        <ele>1564</ele>
        <time>2022-01-14T11:44:57Z</time>
      </trkpt>
      <trkpt lat="44.99677" lon="6.47615">
        <ele>1564</ele>
        <time>2022-01-14T11:44:58Z</time>
      </trkpt>
      <trkpt lat="44.99677" lon="6.47615">
        <ele>1564</ele>
        <time>2022-01-14T11:44:59Z</time>
      </trkpt>
      <trkpt lat="44.99676" lon="6.47614">
        <ele>1564</ele>
        <time>2022-01-14T11:45:00Z</time>
      </trkpt>
      <trkpt lat="44.99676" lon="6.47614">
        <ele>1564</ele>
        <time>2022-01-14T11:45:01Z</time>
      </trkpt>
      <trkpt lat="44.99675" lon="6.47613">
        <ele>1564</ele>
        <time>2022-01-14T11:45:02Z</time>
      </trkpt>
      <trkpt lat="44.99675" lon="6.47612">
        <ele>1564</ele>
        <time>2022-01-14T11:45:03Z</time>
      </trkpt>
      <trkpt lat="44.99674" lon="6.47611">
        <ele>1564</ele>
        <time>2022-01-14T11:45:04Z</time>
      </trkpt>
      <trkpt lat="44.99673" lon="6.47611">
        <ele>1564</ele>
        <time>2022-01-14T11:45:05Z</time>
      </trkpt>
      <trkpt lat="44.99674" lon="6.47611">
        <ele>1564</ele>
        <time>2022-01-14T11:45:06Z</time>
      </trkpt>
      <trkpt lat="44.99674" lon="6.47611">
        <ele>1564</ele>
        <time>2022-01-14T11:45:07Z</time>
      </trkpt>
      <trkpt lat="44.99674" lon="6.47611">
        <ele>1564</ele>
        <time>2022-01-14T11:45:08Z</time>
      </trkpt>
      <trkpt lat="44.99674" lon="6.47611">
        <ele>1564</ele>
        <time>2022-01-14T11:45:10Z</time>
      </trkpt>
      <trkpt lat="44.99675" lon="6.47611">
        <ele>1564</ele>
        <time>2022-01-14T11:45:11Z</time>
      </trkpt>
      <trkpt lat="44.99675" lon="6.47611">
        <ele>1564</ele>
        <time>2022-01-14T11:45:12Z</time>
      </trkpt>
      <trkpt lat="44.99676" lon="6.47611">
        <ele>1564</ele>
        <time>2022-01-14T11:45:14Z</time>
      </trkpt>
      <trkpt lat="44.99677" lon="6.47611">
        <ele>1564</ele>
        <time>2022-01-14T11:45:15Z</time>
      </trkpt>
      <trkpt lat="44.99677" lon="6.47612">
        <ele>1564</ele>
        <time>2022-01-14T11:45:16Z</time>
      </trkpt>
      <trkpt lat="44.99677" lon="6.47612">
        <ele>1564</ele>
        <time>2022-01-14T11:45:17Z</time>
      </trkpt>
      <trkpt lat="44.99676" lon="6.47612">
        <ele>1564</ele>
        <time>2022-01-14T11:45:18Z</time>
      </trkpt>
      <trkpt lat="44.99676" lon="6.47611">
        <ele>1564</ele>
        <time>2022-01-14T11:45:19Z</time>
      </trkpt>
      <trkpt lat="44.99676" lon="6.47611">
        <ele>1564</ele>
        <time>2022-01-14T11:45:20Z</time>
      </trkpt>
      <trkpt lat="44.99675" lon="6.47611">
        <ele>1564</ele>
        <time>2022-01-14T11:45:21Z</time>
      </trkpt>
      <trkpt lat="44.99675" lon="6.47611">
        <ele>1564</ele>
        <time>2022-01-14T11:45:22Z</time>
      </trkpt>
      <trkpt lat="44.99675" lon="6.4761">
        <ele>1564</ele>
        <time>2022-01-14T11:45:23Z</time>
      </trkpt>
      <trkpt lat="44.99675" lon="6.4761">
        <ele>1564</ele>
        <time>2022-01-14T11:45:24Z</time>
      </trkpt>
      <trkpt lat="44.99675" lon="6.4761">
        <ele>1564</ele>
        <time>2022-01-14T11:45:25Z</time>
      </trkpt>
      <trkpt lat="44.99675" lon="6.47609">
        <ele>1564</ele>
        <time>2022-01-14T11:45:26Z</time>
      </trkpt>
      <trkpt lat="44.99675" lon="6.47609">
        <ele>1564</ele>
        <time>2022-01-14T11:45:27Z</time>
      </trkpt>
      <trkpt lat="44.99675" lon="6.47609">
        <ele>1564</ele>
        <time>2022-01-14T11:45:28Z</time>
      </trkpt>
      <trkpt lat="44.99675" lon="6.47608">
        <ele>1564</ele>
        <time>2022-01-14T11:45:29Z</time>
      </trkpt>
      <trkpt lat="44.99675" lon="6.47608">
        <ele>1564</ele>
        <time>2022-01-14T11:45:30Z</time>
      </trkpt>
      <trkpt lat="44.99676" lon="6.47608">
        <ele>1564</ele>
        <time>2022-01-14T11:45:31Z</time>
      </trkpt>
      <trkpt lat="44.99677" lon="6.47608">
        <ele>1564</ele>
        <time>2022-01-14T11:45:32Z</time>
      </trkpt>
      <trkpt lat="44.99677" lon="6.47608">
        <ele>1563.9</ele>
        <time>2022-01-14T11:45:33Z</time>
      </trkpt>
      <trkpt lat="44.99678" lon="6.47608">
        <ele>1563.9</ele>
        <time>2022-01-14T11:45:34Z</time>
      </trkpt>
      <trkpt lat="44.99678" lon="6.47608">
        <ele>1563.9</ele>
        <time>2022-01-14T11:45:35Z</time>
      </trkpt>
      <trkpt lat="44.99678" lon="6.47608">
        <ele>1563.9</ele>
        <time>2022-01-14T11:45:36Z</time>
      </trkpt>
      <trkpt lat="44.99678" lon="6.47608">
        <ele>1563.9</ele>
        <time>2022-01-14T11:45:37Z</time>
      </trkpt>
      <trkpt lat="44.99678" lon="6.47608">
        <ele>1563.9</ele>
        <time>2022-01-14T11:45:38Z</time>
      </trkpt>
      <trkpt lat="44.99678" lon="6.47608">
        <ele>1563.9</ele>
        <time>2022-01-14T11:45:39Z</time>
      </trkpt>
      <trkpt lat="44.99677" lon="6.47609">
        <ele>1563.9</ele>
        <time>2022-01-14T11:45:40Z</time>
      </trkpt>
      <trkpt lat="44.99677" lon="6.47609">
        <ele>1563.9</ele>
        <time>2022-01-14T11:45:41Z</time>
      </trkpt>
      <trkpt lat="44.99677" lon="6.4761">
        <ele>1563.9</ele>
        <time>2022-01-14T11:45:42Z</time>
      </trkpt>
      <trkpt lat="44.99676" lon="6.4761">
        <ele>1563.9</ele>
        <time>2022-01-14T11:45:43Z</time>
      </trkpt>
      <trkpt lat="44.99676" lon="6.47611">
        <ele>1563.9</ele>
        <time>2022-01-14T11:45:44Z</time>
      </trkpt>
      <trkpt lat="44.99676" lon="6.47611">
        <ele>1563.9</ele>
        <time>2022-01-14T11:45:45Z</time>
      </trkpt>
      <trkpt lat="44.99676" lon="6.47612">
        <ele>1563.9</ele>
        <time>2022-01-14T11:45:46Z</time>
      </trkpt>
      <trkpt lat="44.99676" lon="6.47613">
        <ele>1563.9</ele>
        <time>2022-01-14T11:45:47Z</time>
      </trkpt>
      <trkpt lat="44.99676" lon="6.47613">
        <ele>1563.9</ele>
        <time>2022-01-14T11:45:48Z</time>
      </trkpt>
      <trkpt lat="44.99676" lon="6.47614">
        <ele>1563.9</ele>
        <time>2022-01-14T11:45:49Z</time>
      </trkpt>
      <trkpt lat="44.99676" lon="6.47614">
        <ele>1563.9</ele>
        <time>2022-01-14T11:45:50Z</time>
      </trkpt>
      <trkpt lat="44.99676" lon="6.47615">
        <ele>1563.9</ele>
        <time>2022-01-14T11:45:51Z</time>
      </trkpt>
      <trkpt lat="44.99676" lon="6.47615">
        <ele>1563.9</ele>
        <time>2022-01-14T11:45:52Z</time>
      </trkpt>
      <trkpt lat="44.99677" lon="6.47616">
        <ele>1563.9</ele>
        <time>2022-01-14T11:45:53Z</time>
      </trkpt>
      <trkpt lat="44.99677" lon="6.47616">
        <ele>1563.9</ele>
        <time>2022-01-14T11:45:54Z</time>
      </trkpt>
      <trkpt lat="44.99676" lon="6.47619">
        <ele>1563.9</ele>
        <time>2022-01-14T11:45:55Z</time>
      </trkpt>
      <trkpt lat="44.99676" lon="6.47621">
        <ele>1563.9</ele>
        <time>2022-01-14T11:45:56Z</time>
      </trkpt>
      <trkpt lat="44.99676" lon="6.47624">
        <ele>1563.9</ele>
        <time>2022-01-14T11:45:57Z</time>
      </trkpt>
      <trkpt lat="44.99676" lon="6.47625">
        <ele>1563.9</ele>
        <time>2022-01-14T11:45:58Z</time>
      </trkpt>
      <trkpt lat="44.99675" lon="6.47626">
        <ele>1563.9</ele>
        <time>2022-01-14T11:45:59Z</time>
      </trkpt>
      <trkpt lat="44.99675" lon="6.47628">
        <ele>1563.9</ele>
        <time>2022-01-14T11:46:00Z</time>
      </trkpt>
      <trkpt lat="44.99674" lon="6.47629">
        <ele>1563.9</ele>
        <time>2022-01-14T11:46:01Z</time>
      </trkpt>
      <trkpt lat="44.99674" lon="6.4763">
        <ele>1563.9</ele>
        <time>2022-01-14T11:46:02Z</time>
      </trkpt>
      <trkpt lat="44.99673" lon="6.47631">
        <ele>1563.9</ele>
        <time>2022-01-14T11:46:03Z</time>
      </trkpt>
      <trkpt lat="44.99673" lon="6.47631">
        <ele>1563.9</ele>
        <time>2022-01-14T11:46:04Z</time>
      </trkpt>
      <trkpt lat="44.99673" lon="6.47631">
        <ele>1563.9</ele>
        <time>2022-01-14T11:46:05Z</time>
      </trkpt>
      <trkpt lat="44.99672" lon="6.47631">
        <ele>1563.9</ele>
        <time>2022-01-14T11:46:06Z</time>
      </trkpt>
      <trkpt lat="44.99672" lon="6.4763">
        <ele>1563.8</ele>
        <time>2022-01-14T11:46:07Z</time>
      </trkpt>
      <trkpt lat="44.99672" lon="6.4763">
        <ele>1563.8</ele>
        <time>2022-01-14T11:46:08Z</time>
      </trkpt>
      <trkpt lat="44.99672" lon="6.4763">
        <ele>1563.8</ele>
        <time>2022-01-14T11:46:09Z</time>
      </trkpt>
      <trkpt lat="44.99672" lon="6.47631">
        <ele>1563.8</ele>
        <time>2022-01-14T11:46:10Z</time>
      </trkpt>
      <trkpt lat="44.99672" lon="6.47632">
        <ele>1563.8</ele>
        <time>2022-01-14T11:46:11Z</time>
      </trkpt>
      <trkpt lat="44.99672" lon="6.47633">
        <ele>1563.8</ele>
        <time>2022-01-14T11:46:12Z</time>
      </trkpt>
      <trkpt lat="44.99672" lon="6.47634">
        <ele>1563.8</ele>
        <time>2022-01-14T11:46:13Z</time>
      </trkpt>
      <trkpt lat="44.99672" lon="6.47636">
        <ele>1563.8</ele>
        <time>2022-01-14T11:46:14Z</time>
      </trkpt>
      <trkpt lat="44.99672" lon="6.47637">
        <ele>1563.8</ele>
        <time>2022-01-14T11:46:15Z</time>
      </trkpt>
      <trkpt lat="44.99671" lon="6.47638">
        <ele>1563.8</ele>
        <time>2022-01-14T11:46:16Z</time>
      </trkpt>
      <trkpt lat="44.99671" lon="6.47638">
        <ele>1563.9</ele>
        <time>2022-01-14T11:46:17Z</time>
      </trkpt>
      <trkpt lat="44.99671" lon="6.47638">
        <ele>1563.9</ele>
        <time>2022-01-14T11:46:18Z</time>
      </trkpt>
      <trkpt lat="44.99671" lon="6.47637">
        <ele>1563.9</ele>
        <time>2022-01-14T11:46:19Z</time>
      </trkpt>
      <trkpt lat="44.99672" lon="6.47637">
        <ele>1563.9</ele>
        <time>2022-01-14T11:46:20Z</time>
      </trkpt>
      <trkpt lat="44.99672" lon="6.47637">
        <ele>1563.9</ele>
        <time>2022-01-14T11:46:21Z</time>
      </trkpt>
      <trkpt lat="44.99672" lon="6.47636">
        <ele>1564</ele>
        <time>2022-01-14T11:46:22Z</time>
      </trkpt>
      <trkpt lat="44.99671" lon="6.47636">
        <ele>1564</ele>
        <time>2022-01-14T11:46:23Z</time>
      </trkpt>
      <trkpt lat="44.99671" lon="6.47636">
        <ele>1564</ele>
        <time>2022-01-14T11:46:24Z</time>
      </trkpt>
      <trkpt lat="44.99671" lon="6.47636">
        <ele>1564</ele>
        <time>2022-01-14T11:46:25Z</time>
      </trkpt>
      <trkpt lat="44.99671" lon="6.47636">
        <ele>1564</ele>
        <time>2022-01-14T11:46:26Z</time>
      </trkpt>
      <trkpt lat="44.99671" lon="6.47636">
        <ele>1564.1</ele>
        <time>2022-01-14T11:46:27Z</time>
      </trkpt>
      <trkpt lat="44.99671" lon="6.47637">
        <ele>1564.1</ele>
        <time>2022-01-14T11:46:28Z</time>
      </trkpt>
      <trkpt lat="44.99671" lon="6.47637">
        <ele>1564.1</ele>
        <time>2022-01-14T11:46:29Z</time>
      </trkpt>
      <trkpt lat="44.9967" lon="6.47636">
        <ele>1564.1</ele>
        <time>2022-01-14T11:46:30Z</time>
      </trkpt>
      <trkpt lat="44.9967" lon="6.47636">
        <ele>1564.1</ele>
        <time>2022-01-14T11:46:31Z</time>
      </trkpt>
      <trkpt lat="44.9967" lon="6.47636">
        <ele>1564.2</ele>
        <time>2022-01-14T11:46:32Z</time>
      </trkpt>
      <trkpt lat="44.9967" lon="6.47635">
        <ele>1564.2</ele>
        <time>2022-01-14T11:46:33Z</time>
      </trkpt>
      <trkpt lat="44.9967" lon="6.47633">
        <ele>1564.2</ele>
        <time>2022-01-14T11:46:34Z</time>
      </trkpt>
      <trkpt lat="44.99669" lon="6.47632">
        <ele>1564.2</ele>
        <time>2022-01-14T11:46:35Z</time>
      </trkpt>
      <trkpt lat="44.99669" lon="6.47632">
        <ele>1564.3</ele>
        <time>2022-01-14T11:46:36Z</time>
      </trkpt>
      <trkpt lat="44.99668" lon="6.47631">
        <ele>1564.3</ele>
        <time>2022-01-14T11:46:37Z</time>
      </trkpt>
      <trkpt lat="44.99669" lon="6.47631">
        <ele>1564.3</ele>
        <time>2022-01-14T11:46:38Z</time>
      </trkpt>
      <trkpt lat="44.99669" lon="6.47631">
        <ele>1564.3</ele>
        <time>2022-01-14T11:46:39Z</time>
      </trkpt>
      <trkpt lat="44.9967" lon="6.47631">
        <ele>1564.3</ele>
        <time>2022-01-14T11:46:40Z</time>
      </trkpt>
      <trkpt lat="44.9967" lon="6.47632">
        <ele>1564.4</ele>
        <time>2022-01-14T11:46:41Z</time>
      </trkpt>
      <trkpt lat="44.9967" lon="6.47632">
        <ele>1564.4</ele>
        <time>2022-01-14T11:46:42Z</time>
      </trkpt>
      <trkpt lat="44.99671" lon="6.47631">
        <ele>1564.4</ele>
        <time>2022-01-14T11:46:43Z</time>
      </trkpt>
      <trkpt lat="44.9967" lon="6.47631">
        <ele>1564.5</ele>
        <time>2022-01-14T11:46:44Z</time>
      </trkpt>
      <trkpt lat="44.9967" lon="6.4763">
        <ele>1564.5</ele>
        <time>2022-01-14T11:46:45Z</time>
      </trkpt>
      <trkpt lat="44.9967" lon="6.47629">
        <ele>1564.5</ele>
        <time>2022-01-14T11:46:46Z</time>
      </trkpt>
      <trkpt lat="44.99669" lon="6.47629">
        <ele>1564.5</ele>
        <time>2022-01-14T11:46:47Z</time>
      </trkpt>
      <trkpt lat="44.99669" lon="6.47629">
        <ele>1564.5</ele>
        <time>2022-01-14T11:46:48Z</time>
      </trkpt>
      <trkpt lat="44.9967" lon="6.47627">
        <ele>1564.6</ele>
        <time>2022-01-14T11:46:49Z</time>
      </trkpt>
      <trkpt lat="44.9967" lon="6.47626">
        <ele>1564.6</ele>
        <time>2022-01-14T11:46:50Z</time>
      </trkpt>
      <trkpt lat="44.9967" lon="6.47625">
        <ele>1564.6</ele>
        <time>2022-01-14T11:46:51Z</time>
      </trkpt>
      <trkpt lat="44.9967" lon="6.47625">
        <ele>1564.6</ele>
        <time>2022-01-14T11:46:52Z</time>
      </trkpt>
      <trkpt lat="44.99669" lon="6.47623">
        <ele>1564.7</ele>
        <time>2022-01-14T11:46:53Z</time>
      </trkpt>
      <trkpt lat="44.99669" lon="6.47623">
        <ele>1564.7</ele>
        <time>2022-01-14T11:46:54Z</time>
      </trkpt>
      <trkpt lat="44.99668" lon="6.47623">
        <ele>1564.7</ele>
        <time>2022-01-14T11:46:55Z</time>
      </trkpt>
      <trkpt lat="44.99668" lon="6.47622">
        <ele>1564.8</ele>
        <time>2022-01-14T11:46:56Z</time>
      </trkpt>
      <trkpt lat="44.99668" lon="6.47622">
        <ele>1564.8</ele>
        <time>2022-01-14T11:46:57Z</time>
      </trkpt>
      <trkpt lat="44.99668" lon="6.47622">
        <ele>1564.8</ele>
        <time>2022-01-14T11:46:58Z</time>
      </trkpt>
      <trkpt lat="44.9967" lon="6.47622">
        <ele>1564.8</ele>
        <time>2022-01-14T11:46:59Z</time>
      </trkpt>
      <trkpt lat="44.99671" lon="6.47621">
        <ele>1564.9</ele>
        <time>2022-01-14T11:47:00Z</time>
      </trkpt>
      <trkpt lat="44.99672" lon="6.47621">
        <ele>1564.9</ele>
        <time>2022-01-14T11:47:01Z</time>
      </trkpt>
      <trkpt lat="44.99673" lon="6.4762">
        <ele>1565</ele>
        <time>2022-01-14T11:47:02Z</time>
      </trkpt>
      <trkpt lat="44.99674" lon="6.4762">
        <ele>1564.9</ele>
        <time>2022-01-14T11:47:03Z</time>
      </trkpt>
      <trkpt lat="44.99674" lon="6.4762">
        <ele>1565</ele>
        <time>2022-01-14T11:47:04Z</time>
      </trkpt>
      <trkpt lat="44.99674" lon="6.4762">
        <ele>1565</ele>
        <time>2022-01-14T11:47:05Z</time>
      </trkpt>
      <trkpt lat="44.99675" lon="6.4762">
        <ele>1565</ele>
        <time>2022-01-14T11:47:06Z</time>
      </trkpt>
      <trkpt lat="44.99675" lon="6.4762">
        <ele>1565</ele>
        <time>2022-01-14T11:47:07Z</time>
      </trkpt>
      <trkpt lat="44.99675" lon="6.4762">
        <ele>1565.1</ele>
        <time>2022-01-14T11:47:08Z</time>
      </trkpt>
      <trkpt lat="44.99675" lon="6.4762">
        <ele>1565.1</ele>
        <time>2022-01-14T11:47:09Z</time>
      </trkpt>
      <trkpt lat="44.99675" lon="6.4762">
        <ele>1565.1</ele>
        <time>2022-01-14T11:47:10Z</time>
      </trkpt>
      <trkpt lat="44.99674" lon="6.4762">
        <ele>1565.1</ele>
        <time>2022-01-14T11:47:11Z</time>
      </trkpt>
      <trkpt lat="44.99674" lon="6.4762">
        <ele>1565.2</ele>
        <time>2022-01-14T11:47:12Z</time>
      </trkpt>
      <trkpt lat="44.99673" lon="6.4762">
        <ele>1565.2</ele>
        <time>2022-01-14T11:47:13Z</time>
      </trkpt>
      <trkpt lat="44.99673" lon="6.4762">
        <ele>1565.2</ele>
        <time>2022-01-14T11:47:14Z</time>
      </trkpt>
      <trkpt lat="44.99674" lon="6.47621">
        <ele>1565.2</ele>
        <time>2022-01-14T11:47:15Z</time>
      </trkpt>
      <trkpt lat="44.99673" lon="6.47621">
        <ele>1565.3</ele>
        <time>2022-01-14T11:47:16Z</time>
      </trkpt>
      <trkpt lat="44.99673" lon="6.47622">
        <ele>1565.3</ele>
        <time>2022-01-14T11:47:17Z</time>
      </trkpt>
      <trkpt lat="44.99673" lon="6.47622">
        <ele>1565.4</ele>
        <time>2022-01-14T11:47:18Z</time>
      </trkpt>
      <trkpt lat="44.99673" lon="6.47622">
        <ele>1565.4</ele>
        <time>2022-01-14T11:47:19Z</time>
      </trkpt>
      <trkpt lat="44.99673" lon="6.47622">
        <ele>1565.4</ele>
        <time>2022-01-14T11:47:20Z</time>
      </trkpt>
      <trkpt lat="44.99673" lon="6.47622">
        <ele>1565.4</ele>
        <time>2022-01-14T11:47:21Z</time>
      </trkpt>
      <trkpt lat="44.99673" lon="6.47622">
        <ele>1565.5</ele>
        <time>2022-01-14T11:47:22Z</time>
      </trkpt>
      <trkpt lat="44.99673" lon="6.47622">
        <ele>1565.5</ele>
        <time>2022-01-14T11:47:23Z</time>
      </trkpt>
      <trkpt lat="44.99673" lon="6.47622">
        <ele>1565.5</ele>
        <time>2022-01-14T11:47:24Z</time>
      </trkpt>
      <trkpt lat="44.99672" lon="6.47622">
        <ele>1565.5</ele>
        <time>2022-01-14T11:47:25Z</time>
      </trkpt>
      <trkpt lat="44.99671" lon="6.47623">
        <ele>1565.6</ele>
        <time>2022-01-14T11:47:26Z</time>
      </trkpt>
      <trkpt lat="44.9967" lon="6.47623">
        <ele>1565.6</ele>
        <time>2022-01-14T11:47:27Z</time>
      </trkpt>
      <trkpt lat="44.9967" lon="6.47623">
        <ele>1565.6</ele>
        <time>2022-01-14T11:47:28Z</time>
      </trkpt>
      <trkpt lat="44.9967" lon="6.47623">
        <ele>1565.6</ele>
        <time>2022-01-14T11:47:29Z</time>
      </trkpt>
      <trkpt lat="44.9967" lon="6.47623">
        <ele>1565.7</ele>
        <time>2022-01-14T11:47:30Z</time>
      </trkpt>
      <trkpt lat="44.99669" lon="6.47623">
        <ele>1565.7</ele>
        <time>2022-01-14T11:47:31Z</time>
      </trkpt>
      <trkpt lat="44.9967" lon="6.47623">
        <ele>1565.7</ele>
        <time>2022-01-14T11:47:32Z</time>
      </trkpt>
      <trkpt lat="44.9967" lon="6.47623">
        <ele>1565.8</ele>
        <time>2022-01-14T11:47:33Z</time>
      </trkpt>
      <trkpt lat="44.99669" lon="6.47624">
        <ele>1565.9</ele>
        <time>2022-01-14T11:47:34Z</time>
      </trkpt>
      <trkpt lat="44.99669" lon="6.47624">
        <ele>1565.9</ele>
        <time>2022-01-14T11:47:35Z</time>
      </trkpt>
      <trkpt lat="44.99669" lon="6.47624">
        <ele>1565.9</ele>
        <time>2022-01-14T11:47:36Z</time>
      </trkpt>
      <trkpt lat="44.99669" lon="6.47624">
        <ele>1565.9</ele>
        <time>2022-01-14T11:47:37Z</time>
      </trkpt>
      <trkpt lat="44.99668" lon="6.47624">
        <ele>1566</ele>
        <time>2022-01-14T11:47:38Z</time>
      </trkpt>
      <trkpt lat="44.99669" lon="6.47623">
        <ele>1566</ele>
        <time>2022-01-14T11:47:39Z</time>
      </trkpt>
      <trkpt lat="44.99668" lon="6.47622">
        <ele>1566</ele>
        <time>2022-01-14T11:47:40Z</time>
      </trkpt>
      <trkpt lat="44.99668" lon="6.47622">
        <ele>1566</ele>
        <time>2022-01-14T11:47:41Z</time>
      </trkpt>
      <trkpt lat="44.99669" lon="6.47622">
        <ele>1566.1</ele>
        <time>2022-01-14T11:47:42Z</time>
      </trkpt>
      <trkpt lat="44.99669" lon="6.47621">
        <ele>1566.1</ele>
        <time>2022-01-14T11:47:43Z</time>
      </trkpt>
      <trkpt lat="44.9967" lon="6.47621">
        <ele>1566.1</ele>
        <time>2022-01-14T11:47:44Z</time>
      </trkpt>
      <trkpt lat="44.99669" lon="6.4762">
        <ele>1566.2</ele>
        <time>2022-01-14T11:47:45Z</time>
      </trkpt>
      <trkpt lat="44.99669" lon="6.4762">
        <ele>1566.2</ele>
        <time>2022-01-14T11:47:46Z</time>
      </trkpt>
      <trkpt lat="44.99669" lon="6.4762">
        <ele>1566.3</ele>
        <time>2022-01-14T11:47:47Z</time>
      </trkpt>
      <trkpt lat="44.99669" lon="6.4762">
        <ele>1566.3</ele>
        <time>2022-01-14T11:47:48Z</time>
      </trkpt>
      <trkpt lat="44.99669" lon="6.47619">
        <ele>1566.4</ele>
        <time>2022-01-14T11:47:49Z</time>
      </trkpt>
      <trkpt lat="44.9967" lon="6.47619">
        <ele>1566.4</ele>
        <time>2022-01-14T11:47:50Z</time>
      </trkpt>
      <trkpt lat="44.9967" lon="6.47619">
        <ele>1566.4</ele>
        <time>2022-01-14T11:47:51Z</time>
      </trkpt>
      <trkpt lat="44.99671" lon="6.47618">
        <ele>1566.4</ele>
        <time>2022-01-14T11:47:52Z</time>
      </trkpt>
      <trkpt lat="44.99671" lon="6.47618">
        <ele>1566.5</ele>
        <time>2022-01-14T11:47:53Z</time>
      </trkpt>
      <trkpt lat="44.99672" lon="6.47618">
        <ele>1566.5</ele>
        <time>2022-01-14T11:47:54Z</time>
      </trkpt>
      <trkpt lat="44.99672" lon="6.47619">
        <ele>1566.5</ele>
        <time>2022-01-14T11:47:55Z</time>
      </trkpt>
      <trkpt lat="44.99673" lon="6.47619">
        <ele>1566.5</ele>
        <time>2022-01-14T11:47:56Z</time>
      </trkpt>
      <trkpt lat="44.99674" lon="6.4762">
        <ele>1566.5</ele>
        <time>2022-01-14T11:47:57Z</time>
      </trkpt>
      <trkpt lat="44.99674" lon="6.4762">
        <ele>1566.5</ele>
        <time>2022-01-14T11:47:58Z</time>
      </trkpt>
      <trkpt lat="44.99674" lon="6.47619">
        <ele>1566.5</ele>
        <time>2022-01-14T11:47:59Z</time>
      </trkpt>
      <trkpt lat="44.99674" lon="6.47619">
        <ele>1566.5</ele>
        <time>2022-01-14T11:48:00Z</time>
      </trkpt>
      <trkpt lat="44.99673" lon="6.47618">
        <ele>1566.6</ele>
        <time>2022-01-14T11:48:01Z</time>
      </trkpt>
      <trkpt lat="44.99673" lon="6.47618">
        <ele>1566.6</ele>
        <time>2022-01-14T11:48:02Z</time>
      </trkpt>
      <trkpt lat="44.99673" lon="6.47617">
        <ele>1566.6</ele>
        <time>2022-01-14T11:48:03Z</time>
      </trkpt>
      <trkpt lat="44.99673" lon="6.47617">
        <ele>1566.6</ele>
        <time>2022-01-14T11:48:04Z</time>
      </trkpt>
      <trkpt lat="44.99672" lon="6.47617">
        <ele>1566.6</ele>
        <time>2022-01-14T11:48:05Z</time>
      </trkpt>
      <trkpt lat="44.99672" lon="6.47617">
        <ele>1566.6</ele>
        <time>2022-01-14T11:48:06Z</time>
      </trkpt>
      <trkpt lat="44.99672" lon="6.47617">
        <ele>1566.6</ele>
        <time>2022-01-14T11:48:07Z</time>
      </trkpt>
      <trkpt lat="44.99672" lon="6.47617">
        <ele>1566.6</ele>
        <time>2022-01-14T11:48:08Z</time>
      </trkpt>
      <trkpt lat="44.99672" lon="6.47617">
        <ele>1566.6</ele>
        <time>2022-01-14T11:48:09Z</time>
      </trkpt>
      <trkpt lat="44.99672" lon="6.47617">
        <ele>1566.6</ele>
        <time>2022-01-14T11:48:10Z</time>
      </trkpt>
      <trkpt lat="44.99672" lon="6.47617">
        <ele>1566.6</ele>
        <time>2022-01-14T11:48:11Z</time>
      </trkpt>
      <trkpt lat="44.99672" lon="6.47617">
        <ele>1566.6</ele>
        <time>2022-01-14T11:48:12Z</time>
      </trkpt>
      <trkpt lat="44.99671" lon="6.47616">
        <ele>1566.6</ele>
        <time>2022-01-14T11:48:13Z</time>
      </trkpt>
      <trkpt lat="44.99672" lon="6.47617">
        <ele>1566.6</ele>
        <time>2022-01-14T11:48:14Z</time>
      </trkpt>
      <trkpt lat="44.99671" lon="6.47618">
        <ele>1566.6</ele>
        <time>2022-01-14T11:48:15Z</time>
      </trkpt>
      <trkpt lat="44.99671" lon="6.47618">
        <ele>1566.6</ele>
        <time>2022-01-14T11:48:16Z</time>
      </trkpt>
      <trkpt lat="44.99671" lon="6.47618">
        <ele>1566.6</ele>
        <time>2022-01-14T11:48:17Z</time>
      </trkpt>
      <trkpt lat="44.99671" lon="6.47617">
        <ele>1566.6</ele>
        <time>2022-01-14T11:48:18Z</time>
      </trkpt>
      <trkpt lat="44.99671" lon="6.47617">
        <ele>1566.6</ele>
        <time>2022-01-14T11:48:19Z</time>
      </trkpt>
      <trkpt lat="44.99671" lon="6.47617">
        <ele>1566.6</ele>
        <time>2022-01-14T11:48:20Z</time>
      </trkpt>
      <trkpt lat="44.99672" lon="6.47619">
        <ele>1566.6</ele>
        <time>2022-01-14T11:48:21Z</time>
      </trkpt>
      <trkpt lat="44.99672" lon="6.47619">
        <ele>1566.6</ele>
        <time>2022-01-14T11:48:22Z</time>
      </trkpt>
      <trkpt lat="44.99671" lon="6.47618">
        <ele>1566.7</ele>
        <time>2022-01-14T11:48:23Z</time>
      </trkpt>
      <trkpt lat="44.99671" lon="6.47619">
        <ele>1566.7</ele>
        <time>2022-01-14T11:48:24Z</time>
      </trkpt>
      <trkpt lat="44.99671" lon="6.4762">
        <ele>1566.7</ele>
        <time>2022-01-14T11:48:25Z</time>
      </trkpt>
      <trkpt lat="44.99671" lon="6.4762">
        <ele>1566.7</ele>
        <time>2022-01-14T11:48:26Z</time>
      </trkpt>
      <trkpt lat="44.99671" lon="6.47622">
        <ele>1566.7</ele>
        <time>2022-01-14T11:48:27Z</time>
      </trkpt>
      <trkpt lat="44.99671" lon="6.47623">
        <ele>1566.7</ele>
        <time>2022-01-14T11:48:28Z</time>
      </trkpt>
      <trkpt lat="44.99671" lon="6.47623">
        <ele>1566.7</ele>
        <time>2022-01-14T11:48:29Z</time>
      </trkpt>
      <trkpt lat="44.99672" lon="6.47624">
        <ele>1566.7</ele>
        <time>2022-01-14T11:48:30Z</time>
      </trkpt>
      <trkpt lat="44.99672" lon="6.47625">
        <ele>1566.7</ele>
        <time>2022-01-14T11:48:31Z</time>
      </trkpt>
      <trkpt lat="44.99672" lon="6.47627">
        <ele>1566.7</ele>
        <time>2022-01-14T11:48:32Z</time>
      </trkpt>
      <trkpt lat="44.99672" lon="6.47627">
        <ele>1566.8</ele>
        <time>2022-01-14T11:48:33Z</time>
      </trkpt>
      <trkpt lat="44.99672" lon="6.47628">
        <ele>1566.8</ele>
        <time>2022-01-14T11:48:34Z</time>
      </trkpt>
      <trkpt lat="44.99672" lon="6.4763">
        <ele>1566.8</ele>
        <time>2022-01-14T11:48:35Z</time>
      </trkpt>
      <trkpt lat="44.99672" lon="6.4763">
        <ele>1566.8</ele>
        <time>2022-01-14T11:48:36Z</time>
      </trkpt>
      <trkpt lat="44.99672" lon="6.4763">
        <ele>1566.8</ele>
        <time>2022-01-14T11:48:37Z</time>
      </trkpt>
      <trkpt lat="44.99672" lon="6.47629">
        <ele>1566.8</ele>
        <time>2022-01-14T11:48:38Z</time>
      </trkpt>
      <trkpt lat="44.99672" lon="6.47629">
        <ele>1566.8</ele>
        <time>2022-01-14T11:48:39Z</time>
      </trkpt>
      <trkpt lat="44.99672" lon="6.47631">
        <ele>1566.8</ele>
        <time>2022-01-14T11:48:40Z</time>
      </trkpt>
      <trkpt lat="44.99671" lon="6.47631">
        <ele>1566.8</ele>
        <time>2022-01-14T11:48:41Z</time>
      </trkpt>
      <trkpt lat="44.99671" lon="6.47632">
        <ele>1566.8</ele>
        <time>2022-01-14T11:48:42Z</time>
      </trkpt>
      <trkpt lat="44.99671" lon="6.47633">
        <ele>1566.8</ele>
        <time>2022-01-14T11:48:43Z</time>
      </trkpt>
      <trkpt lat="44.99671" lon="6.47632">
        <ele>1566.8</ele>
        <time>2022-01-14T11:48:44Z</time>
      </trkpt>
      <trkpt lat="44.9967" lon="6.47632">
        <ele>1566.8</ele>
        <time>2022-01-14T11:48:45Z</time>
      </trkpt>
      <trkpt lat="44.9967" lon="6.47632">
        <ele>1566.8</ele>
        <time>2022-01-14T11:48:46Z</time>
      </trkpt>
      <trkpt lat="44.9967" lon="6.47633">
        <ele>1566.8</ele>
        <time>2022-01-14T11:48:47Z</time>
      </trkpt>
      <trkpt lat="44.9967" lon="6.47633">
        <ele>1566.8</ele>
        <time>2022-01-14T11:48:48Z</time>
      </trkpt>
      <trkpt lat="44.9967" lon="6.47632">
        <ele>1566.8</ele>
        <time>2022-01-14T11:48:49Z</time>
      </trkpt>
      <trkpt lat="44.9967" lon="6.47632">
        <ele>1566.8</ele>
        <time>2022-01-14T11:48:50Z</time>
      </trkpt>
      <trkpt lat="44.99669" lon="6.47632">
        <ele>1566.9</ele>
        <time>2022-01-14T11:48:51Z</time>
      </trkpt>
      <trkpt lat="44.9967" lon="6.47632">
        <ele>1566.9</ele>
        <time>2022-01-14T11:48:52Z</time>
      </trkpt>
      <trkpt lat="44.9967" lon="6.4763">
        <ele>1566.9</ele>
        <time>2022-01-14T11:48:53Z</time>
      </trkpt>
      <trkpt lat="44.9967" lon="6.47631">
        <ele>1566.9</ele>
        <time>2022-01-14T11:48:54Z</time>
      </trkpt>
      <trkpt lat="44.9967" lon="6.47631">
        <ele>1566.9</ele>
        <time>2022-01-14T11:48:55Z</time>
      </trkpt>
      <trkpt lat="44.9967" lon="6.47632">
        <ele>1566.9</ele>
        <time>2022-01-14T11:48:56Z</time>
      </trkpt>
      <trkpt lat="44.9967" lon="6.47632">
        <ele>1566.9</ele>
        <time>2022-01-14T11:48:57Z</time>
      </trkpt>
      <trkpt lat="44.9967" lon="6.47631">
        <ele>1566.9</ele>
        <time>2022-01-14T11:48:58Z</time>
      </trkpt>
      <trkpt lat="44.9967" lon="6.47631">
        <ele>1566.9</ele>
        <time>2022-01-14T11:48:59Z</time>
      </trkpt>
      <trkpt lat="44.99671" lon="6.47632">
        <ele>1566.9</ele>
        <time>2022-01-14T11:49:00Z</time>
      </trkpt>
      <trkpt lat="44.99671" lon="6.47631">
        <ele>1566.9</ele>
        <time>2022-01-14T11:49:01Z</time>
      </trkpt>
      <trkpt lat="44.99671" lon="6.47632">
        <ele>1566.9</ele>
        <time>2022-01-14T11:49:02Z</time>
      </trkpt>
      <trkpt lat="44.9967" lon="6.47631">
        <ele>1566.9</ele>
        <time>2022-01-14T11:49:03Z</time>
      </trkpt>
      <trkpt lat="44.99669" lon="6.4763">
        <ele>1567</ele>
        <time>2022-01-14T11:49:04Z</time>
      </trkpt>
      <trkpt lat="44.99668" lon="6.4763">
        <ele>1567</ele>
        <time>2022-01-14T11:49:05Z</time>
      </trkpt>
      <trkpt lat="44.99667" lon="6.47629">
        <ele>1567</ele>
        <time>2022-01-14T11:49:06Z</time>
      </trkpt>
      <trkpt lat="44.99667" lon="6.4763">
        <ele>1567</ele>
        <time>2022-01-14T11:49:07Z</time>
      </trkpt>
      <trkpt lat="44.99666" lon="6.4763">
        <ele>1567</ele>
        <time>2022-01-14T11:49:08Z</time>
      </trkpt>
      <trkpt lat="44.99666" lon="6.4763">
        <ele>1567</ele>
        <time>2022-01-14T11:49:09Z</time>
      </trkpt>
      <trkpt lat="44.99666" lon="6.47629">
        <ele>1567</ele>
        <time>2022-01-14T11:49:10Z</time>
      </trkpt>
      <trkpt lat="44.99665" lon="6.47628">
        <ele>1567</ele>
        <time>2022-01-14T11:49:11Z</time>
      </trkpt>
      <trkpt lat="44.99664" lon="6.47628">
        <ele>1567</ele>
        <time>2022-01-14T11:49:12Z</time>
      </trkpt>
      <trkpt lat="44.99664" lon="6.47627">
        <ele>1567</ele>
        <time>2022-01-14T11:49:13Z</time>
      </trkpt>
      <trkpt lat="44.99664" lon="6.47626">
        <ele>1567</ele>
        <time>2022-01-14T11:49:14Z</time>
      </trkpt>
      <trkpt lat="44.99664" lon="6.47626">
        <ele>1567</ele>
        <time>2022-01-14T11:49:15Z</time>
      </trkpt>
      <trkpt lat="44.99664" lon="6.47626">
        <ele>1567</ele>
        <time>2022-01-14T11:49:16Z</time>
      </trkpt>
      <trkpt lat="44.99664" lon="6.47626">
        <ele>1567</ele>
        <time>2022-01-14T11:49:17Z</time>
      </trkpt>
      <trkpt lat="44.99663" lon="6.47626">
        <ele>1567</ele>
        <time>2022-01-14T11:49:18Z</time>
      </trkpt>
      <trkpt lat="44.99663" lon="6.47626">
        <ele>1567</ele>
        <time>2022-01-14T11:49:19Z</time>
      </trkpt>
      <trkpt lat="44.99663" lon="6.47626">
        <ele>1567.1</ele>
        <time>2022-01-14T11:49:20Z</time>
      </trkpt>
      <trkpt lat="44.99663" lon="6.47626">
        <ele>1567.1</ele>
        <time>2022-01-14T11:49:21Z</time>
      </trkpt>
      <trkpt lat="44.99663" lon="6.47625">
        <ele>1567.1</ele>
        <time>2022-01-14T11:49:22Z</time>
      </trkpt>
      <trkpt lat="44.99663" lon="6.47625">
        <ele>1567.1</ele>
        <time>2022-01-14T11:49:23Z</time>
      </trkpt>
      <trkpt lat="44.99663" lon="6.47625">
        <ele>1567.1</ele>
        <time>2022-01-14T11:49:24Z</time>
      </trkpt>
      <trkpt lat="44.99663" lon="6.47625">
        <ele>1567.1</ele>
        <time>2022-01-14T11:49:25Z</time>
      </trkpt>
      <trkpt lat="44.99663" lon="6.47625">
        <ele>1567.1</ele>
        <time>2022-01-14T11:49:26Z</time>
      </trkpt>
      <trkpt lat="44.99663" lon="6.47625">
        <ele>1567.1</ele>
        <time>2022-01-14T11:49:27Z</time>
      </trkpt>
      <trkpt lat="44.99662" lon="6.47625">
        <ele>1567.1</ele>
        <time>2022-01-14T11:49:28Z</time>
      </trkpt>
      <trkpt lat="44.99662" lon="6.47625">
        <ele>1567.1</ele>
        <time>2022-01-14T11:49:29Z</time>
      </trkpt>
      <trkpt lat="44.99662" lon="6.47625">
        <ele>1567.1</ele>
        <time>2022-01-14T11:49:30Z</time>
      </trkpt>
      <trkpt lat="44.99662" lon="6.47625">
        <ele>1567.1</ele>
        <time>2022-01-14T11:49:31Z</time>
      </trkpt>
      <trkpt lat="44.99662" lon="6.47625">
        <ele>1567.1</ele>
        <time>2022-01-14T11:49:32Z</time>
      </trkpt>
      <trkpt lat="44.99662" lon="6.47624">
        <ele>1567.1</ele>
        <time>2022-01-14T11:49:33Z</time>
      </trkpt>
      <trkpt lat="44.99662" lon="6.47624">
        <ele>1567.1</ele>
        <time>2022-01-14T11:49:34Z</time>
      </trkpt>
      <trkpt lat="44.99662" lon="6.47624">
        <ele>1567.1</ele>
        <time>2022-01-14T11:49:35Z</time>
      </trkpt>
      <trkpt lat="44.99662" lon="6.47624">
        <ele>1567.1</ele>
        <time>2022-01-14T11:49:36Z</time>
      </trkpt>
      <trkpt lat="44.99662" lon="6.47624">
        <ele>1567.1</ele>
        <time>2022-01-14T11:49:37Z</time>
      </trkpt>
      <trkpt lat="44.99662" lon="6.47624">
        <ele>1567.1</ele>
        <time>2022-01-14T11:49:38Z</time>
      </trkpt>
      <trkpt lat="44.99661" lon="6.47624">
        <ele>1567.1</ele>
        <time>2022-01-14T11:49:39Z</time>
      </trkpt>
      <trkpt lat="44.99661" lon="6.47624">
        <ele>1567.1</ele>
        <time>2022-01-14T11:49:40Z</time>
      </trkpt>
      <trkpt lat="44.99661" lon="6.47624">
        <ele>1567.1</ele>
        <time>2022-01-14T11:49:41Z</time>
      </trkpt>
      <trkpt lat="44.99661" lon="6.47624">
        <ele>1567.1</ele>
        <time>2022-01-14T11:49:42Z</time>
      </trkpt>
      <trkpt lat="44.99661" lon="6.47624">
        <ele>1567.1</ele>
        <time>2022-01-14T11:49:43Z</time>
      </trkpt>
      <trkpt lat="44.99659" lon="6.47622">
        <ele>1567.1</ele>
        <time>2022-01-14T11:49:44Z</time>
      </trkpt>
      <trkpt lat="44.99658" lon="6.47622">
        <ele>1567.1</ele>
        <time>2022-01-14T11:49:45Z</time>
      </trkpt>
      <trkpt lat="44.99657" lon="6.47621">
        <ele>1567.1</ele>
        <time>2022-01-14T11:49:46Z</time>
      </trkpt>
      <trkpt lat="44.99657" lon="6.4762">
        <ele>1567.1</ele>
        <time>2022-01-14T11:49:47Z</time>
      </trkpt>
      <trkpt lat="44.99658" lon="6.47619">
        <ele>1567.2</ele>
        <time>2022-01-14T11:49:48Z</time>
      </trkpt>
      <trkpt lat="44.99659" lon="6.47619">
        <ele>1567.2</ele>
        <time>2022-01-14T11:49:49Z</time>
      </trkpt>
      <trkpt lat="44.99659" lon="6.47619">
        <ele>1567.2</ele>
        <time>2022-01-14T11:49:50Z</time>
      </trkpt>
      <trkpt lat="44.9966" lon="6.47619">
        <ele>1567.2</ele>
        <time>2022-01-14T11:49:51Z</time>
      </trkpt>
      <trkpt lat="44.99661" lon="6.47618">
        <ele>1567.2</ele>
        <time>2022-01-14T11:49:52Z</time>
      </trkpt>
      <trkpt lat="44.99662" lon="6.47618">
        <ele>1567.2</ele>
        <time>2022-01-14T11:49:53Z</time>
      </trkpt>
      <trkpt lat="44.99662" lon="6.47618">
        <ele>1567.2</ele>
        <time>2022-01-14T11:49:54Z</time>
      </trkpt>
      <trkpt lat="44.99663" lon="6.47617">
        <ele>1567.2</ele>
        <time>2022-01-14T11:49:55Z</time>
      </trkpt>
      <trkpt lat="44.99664" lon="6.47617">
        <ele>1567.2</ele>
        <time>2022-01-14T11:49:56Z</time>
      </trkpt>
      <trkpt lat="44.99665" lon="6.47616">
        <ele>1567.2</ele>
        <time>2022-01-14T11:49:57Z</time>
      </trkpt>
      <trkpt lat="44.99666" lon="6.47615">
        <ele>1567.2</ele>
        <time>2022-01-14T11:49:58Z</time>
      </trkpt>
      <trkpt lat="44.99666" lon="6.47615">
        <ele>1567.3</ele>
        <time>2022-01-14T11:49:59Z</time>
      </trkpt>
      <trkpt lat="44.99667" lon="6.47615">
        <ele>1567.3</ele>
        <time>2022-01-14T11:50:00Z</time>
      </trkpt>
      <trkpt lat="44.99666" lon="6.47615">
        <ele>1567.3</ele>
        <time>2022-01-14T11:50:01Z</time>
      </trkpt>
      <trkpt lat="44.99666" lon="6.47615">
        <ele>1567.3</ele>
        <time>2022-01-14T11:50:02Z</time>
      </trkpt>
      <trkpt lat="44.99667" lon="6.47615">
        <ele>1567.3</ele>
        <time>2022-01-14T11:50:03Z</time>
      </trkpt>
      <trkpt lat="44.99668" lon="6.47615">
        <ele>1567.3</ele>
        <time>2022-01-14T11:50:04Z</time>
      </trkpt>
      <trkpt lat="44.99668" lon="6.47615">
        <ele>1567.3</ele>
        <time>2022-01-14T11:50:05Z</time>
      </trkpt>
      <trkpt lat="44.99669" lon="6.47615">
        <ele>1567.3</ele>
        <time>2022-01-14T11:50:06Z</time>
      </trkpt>
      <trkpt lat="44.9967" lon="6.47615">
        <ele>1567.3</ele>
        <time>2022-01-14T11:50:07Z</time>
      </trkpt>
      <trkpt lat="44.9967" lon="6.47615">
        <ele>1567.3</ele>
        <time>2022-01-14T11:50:08Z</time>
      </trkpt>
      <trkpt lat="44.99671" lon="6.47615">
        <ele>1567.3</ele>
        <time>2022-01-14T11:50:09Z</time>
      </trkpt>
      <trkpt lat="44.99672" lon="6.47614">
        <ele>1567.3</ele>
        <time>2022-01-14T11:50:10Z</time>
      </trkpt>
      <trkpt lat="44.99672" lon="6.47614">
        <ele>1567.3</ele>
        <time>2022-01-14T11:50:11Z</time>
      </trkpt>
      <trkpt lat="44.99673" lon="6.47616">
        <ele>1567.3</ele>
        <time>2022-01-14T11:50:12Z</time>
      </trkpt>
      <trkpt lat="44.99674" lon="6.47617">
        <ele>1567.4</ele>
        <time>2022-01-14T11:50:13Z</time>
      </trkpt>
      <trkpt lat="44.99674" lon="6.47616">
        <ele>1567.4</ele>
        <time>2022-01-14T11:50:14Z</time>
      </trkpt>
      <trkpt lat="44.99675" lon="6.47616">
        <ele>1567.4</ele>
        <time>2022-01-14T11:50:15Z</time>
      </trkpt>
      <trkpt lat="44.99675" lon="6.47617">
        <ele>1567.4</ele>
        <time>2022-01-14T11:50:16Z</time>
      </trkpt>
      <trkpt lat="44.99676" lon="6.47616">
        <ele>1567.4</ele>
        <time>2022-01-14T11:50:17Z</time>
      </trkpt>
      <trkpt lat="44.99676" lon="6.47615">
        <ele>1567.4</ele>
        <time>2022-01-14T11:50:18Z</time>
      </trkpt>
      <trkpt lat="44.99675" lon="6.47615">
        <ele>1567.4</ele>
        <time>2022-01-14T11:50:19Z</time>
      </trkpt>
      <trkpt lat="44.99674" lon="6.47616">
        <ele>1567.4</ele>
        <time>2022-01-14T11:50:20Z</time>
      </trkpt>
      <trkpt lat="44.99674" lon="6.47616">
        <ele>1567.4</ele>
        <time>2022-01-14T11:50:21Z</time>
      </trkpt>
      <trkpt lat="44.99674" lon="6.47615">
        <ele>1567.4</ele>
        <time>2022-01-14T11:50:22Z</time>
      </trkpt>
      <trkpt lat="44.99673" lon="6.47616">
        <ele>1567.4</ele>
        <time>2022-01-14T11:50:23Z</time>
      </trkpt>
      <trkpt lat="44.99673" lon="6.47616">
        <ele>1567.4</ele>
        <time>2022-01-14T11:50:24Z</time>
      </trkpt>
      <trkpt lat="44.99673" lon="6.47615">
        <ele>1567.4</ele>
        <time>2022-01-14T11:50:25Z</time>
      </trkpt>
      <trkpt lat="44.99673" lon="6.47614">
        <ele>1567.4</ele>
        <time>2022-01-14T11:50:26Z</time>
      </trkpt>
      <trkpt lat="44.99673" lon="6.47614">
        <ele>1567.4</ele>
        <time>2022-01-14T11:50:27Z</time>
      </trkpt>
      <trkpt lat="44.99673" lon="6.47614">
        <ele>1567.5</ele>
        <time>2022-01-14T11:50:28Z</time>
      </trkpt>
      <trkpt lat="44.99673" lon="6.47614">
        <ele>1567.5</ele>
        <time>2022-01-14T11:50:29Z</time>
      </trkpt>
      <trkpt lat="44.99672" lon="6.47613">
        <ele>1567.5</ele>
        <time>2022-01-14T11:50:30Z</time>
      </trkpt>
      <trkpt lat="44.99671" lon="6.47612">
        <ele>1567.5</ele>
        <time>2022-01-14T11:50:31Z</time>
      </trkpt>
      <trkpt lat="44.99671" lon="6.47611">
        <ele>1567.5</ele>
        <time>2022-01-14T11:50:32Z</time>
      </trkpt>
      <trkpt lat="44.99671" lon="6.47609">
        <ele>1567.5</ele>
        <time>2022-01-14T11:50:33Z</time>
      </trkpt>
      <trkpt lat="44.99671" lon="6.47608">
        <ele>1567.5</ele>
        <time>2022-01-14T11:50:34Z</time>
      </trkpt>
      <trkpt lat="44.9967" lon="6.47607">
        <ele>1567.5</ele>
        <time>2022-01-14T11:50:35Z</time>
      </trkpt>
      <trkpt lat="44.9967" lon="6.47606">
        <ele>1567.5</ele>
        <time>2022-01-14T11:50:36Z</time>
      </trkpt>
      <trkpt lat="44.9967" lon="6.47606">
        <ele>1567.5</ele>
        <time>2022-01-14T11:50:37Z</time>
      </trkpt>
      <trkpt lat="44.99669" lon="6.47605">
        <ele>1567.5</ele>
        <time>2022-01-14T11:50:38Z</time>
      </trkpt>
      <trkpt lat="44.99668" lon="6.47605">
        <ele>1567.5</ele>
        <time>2022-01-14T11:50:39Z</time>
      </trkpt>
      <trkpt lat="44.99667" lon="6.47604">
        <ele>1567.6</ele>
        <time>2022-01-14T11:50:40Z</time>
      </trkpt>
      <trkpt lat="44.99666" lon="6.47604">
        <ele>1567.6</ele>
        <time>2022-01-14T11:50:41Z</time>
      </trkpt>
      <trkpt lat="44.99665" lon="6.47604">
        <ele>1567.6</ele>
        <time>2022-01-14T11:50:42Z</time>
      </trkpt>
      <trkpt lat="44.99664" lon="6.47603">
        <ele>1567.6</ele>
        <time>2022-01-14T11:50:43Z</time>
      </trkpt>
      <trkpt lat="44.99662" lon="6.47603">
        <ele>1567.6</ele>
        <time>2022-01-14T11:50:44Z</time>
      </trkpt>
      <trkpt lat="44.99662" lon="6.47602">
        <ele>1567.6</ele>
        <time>2022-01-14T11:50:45Z</time>
      </trkpt>
      <trkpt lat="44.99662" lon="6.47601">
        <ele>1567.6</ele>
        <time>2022-01-14T11:50:46Z</time>
      </trkpt>
      <trkpt lat="44.99661" lon="6.47601">
        <ele>1567.6</ele>
        <time>2022-01-14T11:50:47Z</time>
      </trkpt>
      <trkpt lat="44.99659" lon="6.476">
        <ele>1567.6</ele>
        <time>2022-01-14T11:50:48Z</time>
      </trkpt>
      <trkpt lat="44.99659" lon="6.476">
        <ele>1567.7</ele>
        <time>2022-01-14T11:50:49Z</time>
      </trkpt>
      <trkpt lat="44.99658" lon="6.476">
        <ele>1567.7</ele>
        <time>2022-01-14T11:50:50Z</time>
      </trkpt>
      <trkpt lat="44.99657" lon="6.47599">
        <ele>1567.7</ele>
        <time>2022-01-14T11:50:51Z</time>
      </trkpt>
      <trkpt lat="44.99657" lon="6.47599">
        <ele>1567.7</ele>
        <time>2022-01-14T11:50:52Z</time>
      </trkpt>
      <trkpt lat="44.99656" lon="6.47599">
        <ele>1567.7</ele>
        <time>2022-01-14T11:50:53Z</time>
      </trkpt>
      <trkpt lat="44.99655" lon="6.47599">
        <ele>1567.7</ele>
        <time>2022-01-14T11:50:54Z</time>
      </trkpt>
      <trkpt lat="44.99654" lon="6.47599">
        <ele>1567.7</ele>
        <time>2022-01-14T11:50:55Z</time>
      </trkpt>
      <trkpt lat="44.99654" lon="6.47599">
        <ele>1567.7</ele>
        <time>2022-01-14T11:50:56Z</time>
      </trkpt>
      <trkpt lat="44.99654" lon="6.47599">
        <ele>1567.7</ele>
        <time>2022-01-14T11:50:57Z</time>
      </trkpt>
      <trkpt lat="44.99653" lon="6.47599">
        <ele>1567.7</ele>
        <time>2022-01-14T11:50:58Z</time>
      </trkpt>
      <trkpt lat="44.99652" lon="6.47598">
        <ele>1567.7</ele>
        <time>2022-01-14T11:50:59Z</time>
      </trkpt>
      <trkpt lat="44.9965" lon="6.47598">
        <ele>1567.7</ele>
        <time>2022-01-14T11:51:00Z</time>
      </trkpt>
      <trkpt lat="44.99649" lon="6.47598">
        <ele>1567.7</ele>
        <time>2022-01-14T11:51:01Z</time>
      </trkpt>
      <trkpt lat="44.99649" lon="6.47599">
        <ele>1567.7</ele>
        <time>2022-01-14T11:51:02Z</time>
      </trkpt>
      <trkpt lat="44.99648" lon="6.47599">
        <ele>1567.8</ele>
        <time>2022-01-14T11:51:03Z</time>
      </trkpt>
      <trkpt lat="44.99647" lon="6.476">
        <ele>1567.8</ele>
        <time>2022-01-14T11:51:04Z</time>
      </trkpt>
      <trkpt lat="44.99646" lon="6.476">
        <ele>1567.8</ele>
        <time>2022-01-14T11:51:05Z</time>
      </trkpt>
      <trkpt lat="44.99646" lon="6.476">
        <ele>1567.8</ele>
        <time>2022-01-14T11:51:06Z</time>
      </trkpt>
      <trkpt lat="44.99646" lon="6.476">
        <ele>1567.8</ele>
        <time>2022-01-14T11:51:07Z</time>
      </trkpt>
      <trkpt lat="44.99647" lon="6.47601">
        <ele>1567.8</ele>
        <time>2022-01-14T11:51:08Z</time>
      </trkpt>
      <trkpt lat="44.99646" lon="6.47601">
        <ele>1567.8</ele>
        <time>2022-01-14T11:51:09Z</time>
      </trkpt>
      <trkpt lat="44.99647" lon="6.47602">
        <ele>1567.8</ele>
        <time>2022-01-14T11:51:10Z</time>
      </trkpt>
      <trkpt lat="44.99649" lon="6.47603">
        <ele>1567.8</ele>
        <time>2022-01-14T11:51:11Z</time>
      </trkpt>
      <trkpt lat="44.9965" lon="6.47603">
        <ele>1567.8</ele>
        <time>2022-01-14T11:51:12Z</time>
      </trkpt>
      <trkpt lat="44.9965" lon="6.47603">
        <ele>1567.8</ele>
        <time>2022-01-14T11:51:13Z</time>
      </trkpt>
      <trkpt lat="44.99651" lon="6.47603">
        <ele>1567.8</ele>
        <time>2022-01-14T11:51:14Z</time>
      </trkpt>
      <trkpt lat="44.99651" lon="6.47604">
        <ele>1567.8</ele>
        <time>2022-01-14T11:51:15Z</time>
      </trkpt>
      <trkpt lat="44.99651" lon="6.47604">
        <ele>1567.8</ele>
        <time>2022-01-14T11:51:16Z</time>
      </trkpt>
      <trkpt lat="44.99651" lon="6.47604">
        <ele>1567.8</ele>
        <time>2022-01-14T11:51:17Z</time>
      </trkpt>
      <trkpt lat="44.99651" lon="6.47604">
        <ele>1567.8</ele>
        <time>2022-01-14T11:51:18Z</time>
      </trkpt>
      <trkpt lat="44.99651" lon="6.47604">
        <ele>1567.8</ele>
        <time>2022-01-14T11:51:19Z</time>
      </trkpt>
      <trkpt lat="44.99652" lon="6.47604">
        <ele>1567.8</ele>
        <time>2022-01-14T11:51:20Z</time>
      </trkpt>
      <trkpt lat="44.99652" lon="6.47605">
        <ele>1567.9</ele>
        <time>2022-01-14T11:51:21Z</time>
      </trkpt>
      <trkpt lat="44.99652" lon="6.47605">
        <ele>1567.9</ele>
        <time>2022-01-14T11:51:22Z</time>
      </trkpt>
      <trkpt lat="44.99652" lon="6.47605">
        <ele>1567.9</ele>
        <time>2022-01-14T11:51:23Z</time>
      </trkpt>
      <trkpt lat="44.99653" lon="6.47605">
        <ele>1567.9</ele>
        <time>2022-01-14T11:51:24Z</time>
      </trkpt>
      <trkpt lat="44.99653" lon="6.47605">
        <ele>1567.9</ele>
        <time>2022-01-14T11:51:25Z</time>
      </trkpt>
      <trkpt lat="44.99655" lon="6.47605">
        <ele>1567.9</ele>
        <time>2022-01-14T11:51:26Z</time>
      </trkpt>
      <trkpt lat="44.99655" lon="6.47605">
        <ele>1567.9</ele>
        <time>2022-01-14T11:51:27Z</time>
      </trkpt>
      <trkpt lat="44.99655" lon="6.47606">
        <ele>1567.9</ele>
        <time>2022-01-14T11:51:28Z</time>
      </trkpt>
      <trkpt lat="44.99655" lon="6.47605">
        <ele>1567.9</ele>
        <time>2022-01-14T11:51:29Z</time>
      </trkpt>
      <trkpt lat="44.99656" lon="6.47605">
        <ele>1567.9</ele>
        <time>2022-01-14T11:51:30Z</time>
      </trkpt>
      <trkpt lat="44.99656" lon="6.47606">
        <ele>1567.9</ele>
        <time>2022-01-14T11:51:31Z</time>
      </trkpt>
      <trkpt lat="44.99656" lon="6.47606">
        <ele>1567.9</ele>
        <time>2022-01-14T11:51:32Z</time>
      </trkpt>
      <trkpt lat="44.99656" lon="6.47606">
        <ele>1567.9</ele>
        <time>2022-01-14T11:51:33Z</time>
      </trkpt>
      <trkpt lat="44.99656" lon="6.47606">
        <ele>1567.9</ele>
        <time>2022-01-14T11:51:34Z</time>
      </trkpt>
      <trkpt lat="44.99656" lon="6.47606">
        <ele>1567.9</ele>
        <time>2022-01-14T11:51:35Z</time>
      </trkpt>
      <trkpt lat="44.99656" lon="6.47606">
        <ele>1567.9</ele>
        <time>2022-01-14T11:51:36Z</time>
      </trkpt>
      <trkpt lat="44.99656" lon="6.47607">
        <ele>1567.9</ele>
        <time>2022-01-14T11:51:37Z</time>
      </trkpt>
      <trkpt lat="44.99656" lon="6.47607">
        <ele>1567.9</ele>
        <time>2022-01-14T11:51:38Z</time>
      </trkpt>
      <trkpt lat="44.99656" lon="6.47607">
        <ele>1567.9</ele>
        <time>2022-01-14T11:51:39Z</time>
      </trkpt>
      <trkpt lat="44.99656" lon="6.47607">
        <ele>1567.9</ele>
        <time>2022-01-14T11:51:40Z</time>
      </trkpt>
      <trkpt lat="44.99656" lon="6.47607">
        <ele>1567.9</ele>
        <time>2022-01-14T11:51:41Z</time>
      </trkpt>
      <trkpt lat="44.99656" lon="6.47607">
        <ele>1567.9</ele>
        <time>2022-01-14T11:51:42Z</time>
      </trkpt>
      <trkpt lat="44.99657" lon="6.47607">
        <ele>1567.9</ele>
        <time>2022-01-14T11:51:43Z</time>
      </trkpt>
      <trkpt lat="44.99659" lon="6.47607">
        <ele>1567.9</ele>
        <time>2022-01-14T11:51:44Z</time>
      </trkpt>
      <trkpt lat="44.99659" lon="6.47608">
        <ele>1568</ele>
        <time>2022-01-14T11:51:45Z</time>
      </trkpt>
      <trkpt lat="44.9966" lon="6.47608">
        <ele>1568</ele>
        <time>2022-01-14T11:51:46Z</time>
      </trkpt>
      <trkpt lat="44.99661" lon="6.47608">
        <ele>1568</ele>
        <time>2022-01-14T11:51:47Z</time>
      </trkpt>
      <trkpt lat="44.99662" lon="6.47608">
        <ele>1568</ele>
        <time>2022-01-14T11:51:48Z</time>
      </trkpt>
      <trkpt lat="44.99662" lon="6.47608">
        <ele>1568</ele>
        <time>2022-01-14T11:51:49Z</time>
      </trkpt>
      <trkpt lat="44.99662" lon="6.47609">
        <ele>1568</ele>
        <time>2022-01-14T11:51:50Z</time>
      </trkpt>
      <trkpt lat="44.99662" lon="6.4761">
        <ele>1568</ele>
        <time>2022-01-14T11:51:51Z</time>
      </trkpt>
      <trkpt lat="44.99661" lon="6.47611">
        <ele>1568</ele>
        <time>2022-01-14T11:51:52Z</time>
      </trkpt>
      <trkpt lat="44.99662" lon="6.47611">
        <ele>1568</ele>
        <time>2022-01-14T11:51:53Z</time>
      </trkpt>
      <trkpt lat="44.99662" lon="6.47611">
        <ele>1568</ele>
        <time>2022-01-14T11:51:54Z</time>
      </trkpt>
      <trkpt lat="44.99663" lon="6.4761">
        <ele>1568</ele>
        <time>2022-01-14T11:51:55Z</time>
      </trkpt>
      <trkpt lat="44.99663" lon="6.47611">
        <ele>1568</ele>
        <time>2022-01-14T11:51:56Z</time>
      </trkpt>
      <trkpt lat="44.99663" lon="6.47612">
        <ele>1568</ele>
        <time>2022-01-14T11:51:57Z</time>
      </trkpt>
      <trkpt lat="44.99663" lon="6.47613">
        <ele>1568</ele>
        <time>2022-01-14T11:51:58Z</time>
      </trkpt>
      <trkpt lat="44.99663" lon="6.47614">
        <ele>1568</ele>
        <time>2022-01-14T11:51:59Z</time>
      </trkpt>
      <trkpt lat="44.99664" lon="6.47614">
        <ele>1568</ele>
        <time>2022-01-14T11:52:00Z</time>
      </trkpt>
      <trkpt lat="44.99665" lon="6.47615">
        <ele>1568.1</ele>
        <time>2022-01-14T11:52:01Z</time>
      </trkpt>
      <trkpt lat="44.99666" lon="6.47614">
        <ele>1568.1</ele>
        <time>2022-01-14T11:52:02Z</time>
      </trkpt>
      <trkpt lat="44.99667" lon="6.47614">
        <ele>1568.1</ele>
        <time>2022-01-14T11:52:03Z</time>
      </trkpt>
      <trkpt lat="44.99667" lon="6.47614">
        <ele>1568.1</ele>
        <time>2022-01-14T11:52:04Z</time>
      </trkpt>
      <trkpt lat="44.99668" lon="6.47614">
        <ele>1568.1</ele>
        <time>2022-01-14T11:52:05Z</time>
      </trkpt>
      <trkpt lat="44.99669" lon="6.47615">
        <ele>1568.1</ele>
        <time>2022-01-14T11:52:06Z</time>
      </trkpt>
      <trkpt lat="44.99669" lon="6.47615">
        <ele>1568.1</ele>
        <time>2022-01-14T11:52:07Z</time>
      </trkpt>
      <trkpt lat="44.99669" lon="6.47615">
        <ele>1568.1</ele>
        <time>2022-01-14T11:52:08Z</time>
      </trkpt>
      <trkpt lat="44.99669" lon="6.47614">
        <ele>1568.1</ele>
        <time>2022-01-14T11:52:09Z</time>
      </trkpt>
      <trkpt lat="44.99669" lon="6.47615">
        <ele>1568.1</ele>
        <time>2022-01-14T11:52:10Z</time>
      </trkpt>
      <trkpt lat="44.99669" lon="6.47615">
        <ele>1568.1</ele>
        <time>2022-01-14T11:52:11Z</time>
      </trkpt>
      <trkpt lat="44.99669" lon="6.47615">
        <ele>1568.1</ele>
        <time>2022-01-14T11:52:12Z</time>
      </trkpt>
      <trkpt lat="44.99669" lon="6.47615">
        <ele>1568.1</ele>
        <time>2022-01-14T11:52:13Z</time>
      </trkpt>
      <trkpt lat="44.9967" lon="6.47614">
        <ele>1568.1</ele>
        <time>2022-01-14T11:52:14Z</time>
      </trkpt>
      <trkpt lat="44.99671" lon="6.47614">
        <ele>1568.1</ele>
        <time>2022-01-14T11:52:15Z</time>
      </trkpt>
      <trkpt lat="44.99672" lon="6.47614">
        <ele>1568.1</ele>
        <time>2022-01-14T11:52:16Z</time>
      </trkpt>
      <trkpt lat="44.99674" lon="6.47613">
        <ele>1568.1</ele>
        <time>2022-01-14T11:52:17Z</time>
      </trkpt>
      <trkpt lat="44.99675" lon="6.47614">
        <ele>1568.2</ele>
        <time>2022-01-14T11:52:18Z</time>
      </trkpt>
      <trkpt lat="44.99675" lon="6.47614">
        <ele>1568.2</ele>
        <time>2022-01-14T11:52:19Z</time>
      </trkpt>
      <trkpt lat="44.99675" lon="6.47614">
        <ele>1568.2</ele>
        <time>2022-01-14T11:52:20Z</time>
      </trkpt>
      <trkpt lat="44.99676" lon="6.47614">
        <ele>1568.2</ele>
        <time>2022-01-14T11:52:21Z</time>
      </trkpt>
      <trkpt lat="44.99676" lon="6.47614">
        <ele>1568.2</ele>
        <time>2022-01-14T11:52:22Z</time>
      </trkpt>
      <trkpt lat="44.99676" lon="6.47614">
        <ele>1568.2</ele>
        <time>2022-01-14T11:52:23Z</time>
      </trkpt>
      <trkpt lat="44.99676" lon="6.47613">
        <ele>1568.2</ele>
        <time>2022-01-14T11:52:24Z</time>
      </trkpt>
      <trkpt lat="44.99677" lon="6.47613">
        <ele>1568.2</ele>
        <time>2022-01-14T11:52:25Z</time>
      </trkpt>
      <trkpt lat="44.99677" lon="6.47613">
        <ele>1568.2</ele>
        <time>2022-01-14T11:52:26Z</time>
      </trkpt>
      <trkpt lat="44.99678" lon="6.47614">
        <ele>1568.2</ele>
        <time>2022-01-14T11:52:27Z</time>
      </trkpt>
      <trkpt lat="44.99679" lon="6.47614">
        <ele>1568.2</ele>
        <time>2022-01-14T11:52:28Z</time>
      </trkpt>
      <trkpt lat="44.99679" lon="6.47614">
        <ele>1568.2</ele>
        <time>2022-01-14T11:52:29Z</time>
      </trkpt>
      <trkpt lat="44.9968" lon="6.47615">
        <ele>1568.2</ele>
        <time>2022-01-14T11:52:30Z</time>
      </trkpt>
      <trkpt lat="44.9968" lon="6.47615">
        <ele>1568.2</ele>
        <time>2022-01-14T11:52:31Z</time>
      </trkpt>
      <trkpt lat="44.9968" lon="6.47615">
        <ele>1568.2</ele>
        <time>2022-01-14T11:52:32Z</time>
      </trkpt>
      <trkpt lat="44.9968" lon="6.47615">
        <ele>1568.2</ele>
        <time>2022-01-14T11:52:33Z</time>
      </trkpt>
      <trkpt lat="44.99679" lon="6.47615">
        <ele>1568.2</ele>
        <time>2022-01-14T11:52:34Z</time>
      </trkpt>
      <trkpt lat="44.99678" lon="6.47615">
        <ele>1568.2</ele>
        <time>2022-01-14T11:52:35Z</time>
      </trkpt>
      <trkpt lat="44.99678" lon="6.47615">
        <ele>1568.2</ele>
        <time>2022-01-14T11:52:36Z</time>
      </trkpt>
      <trkpt lat="44.99677" lon="6.47614">
        <ele>1568.2</ele>
        <time>2022-01-14T11:52:37Z</time>
      </trkpt>
      <trkpt lat="44.99677" lon="6.47614">
        <ele>1568.2</ele>
        <time>2022-01-14T11:52:38Z</time>
      </trkpt>
      <trkpt lat="44.99677" lon="6.47614">
        <ele>1568.2</ele>
        <time>2022-01-14T11:52:39Z</time>
      </trkpt>
      <trkpt lat="44.99677" lon="6.47614">
        <ele>1568.2</ele>
        <time>2022-01-14T11:52:40Z</time>
      </trkpt>
      <trkpt lat="44.99678" lon="6.47614">
        <ele>1568.2</ele>
        <time>2022-01-14T11:52:41Z</time>
      </trkpt>
      <trkpt lat="44.99678" lon="6.47615">
        <ele>1568.2</ele>
        <time>2022-01-14T11:52:42Z</time>
      </trkpt>
      <trkpt lat="44.99678" lon="6.47616">
        <ele>1568.2</ele>
        <time>2022-01-14T11:52:43Z</time>
      </trkpt>
      <trkpt lat="44.99679" lon="6.47617">
        <ele>1568.3</ele>
        <time>2022-01-14T11:52:44Z</time>
      </trkpt>
      <trkpt lat="44.9968" lon="6.47617">
        <ele>1568.3</ele>
        <time>2022-01-14T11:52:45Z</time>
      </trkpt>
      <trkpt lat="44.9968" lon="6.47617">
        <ele>1568.3</ele>
        <time>2022-01-14T11:52:46Z</time>
      </trkpt>
      <trkpt lat="44.9968" lon="6.47616">
        <ele>1568.3</ele>
        <time>2022-01-14T11:52:47Z</time>
      </trkpt>
      <trkpt lat="44.9968" lon="6.47615">
        <ele>1568.3</ele>
        <time>2022-01-14T11:52:48Z</time>
      </trkpt>
      <trkpt lat="44.9968" lon="6.47615">
        <ele>1568.3</ele>
        <time>2022-01-14T11:52:49Z</time>
      </trkpt>
      <trkpt lat="44.9968" lon="6.47615">
        <ele>1568.3</ele>
        <time>2022-01-14T11:52:50Z</time>
      </trkpt>
      <trkpt lat="44.99679" lon="6.47615">
        <ele>1568.3</ele>
        <time>2022-01-14T11:52:51Z</time>
      </trkpt>
      <trkpt lat="44.99679" lon="6.47615">
        <ele>1568.3</ele>
        <time>2022-01-14T11:52:52Z</time>
      </trkpt>
      <trkpt lat="44.9968" lon="6.47614">
        <ele>1568.3</ele>
        <time>2022-01-14T11:52:53Z</time>
      </trkpt>
      <trkpt lat="44.9968" lon="6.47614">
        <ele>1568.3</ele>
        <time>2022-01-14T11:52:54Z</time>
      </trkpt>
      <trkpt lat="44.99679" lon="6.47613">
        <ele>1568.3</ele>
        <time>2022-01-14T11:52:55Z</time>
      </trkpt>
      <trkpt lat="44.9968" lon="6.47612">
        <ele>1568.3</ele>
        <time>2022-01-14T11:52:56Z</time>
      </trkpt>
      <trkpt lat="44.9968" lon="6.47611">
        <ele>1568.3</ele>
        <time>2022-01-14T11:52:57Z</time>
      </trkpt>
      <trkpt lat="44.9968" lon="6.47611">
        <ele>1568.3</ele>
        <time>2022-01-14T11:52:58Z</time>
      </trkpt>
      <trkpt lat="44.99681" lon="6.47612">
        <ele>1568.3</ele>
        <time>2022-01-14T11:52:59Z</time>
      </trkpt>
      <trkpt lat="44.99681" lon="6.47613">
        <ele>1568.3</ele>
        <time>2022-01-14T11:53:00Z</time>
      </trkpt>
      <trkpt lat="44.99681" lon="6.47614">
        <ele>1568.3</ele>
        <time>2022-01-14T11:53:01Z</time>
      </trkpt>
      <trkpt lat="44.99682" lon="6.47615">
        <ele>1568.3</ele>
        <time>2022-01-14T11:53:02Z</time>
      </trkpt>
      <trkpt lat="44.99682" lon="6.47616">
        <ele>1568.3</ele>
        <time>2022-01-14T11:53:03Z</time>
      </trkpt>
      <trkpt lat="44.99683" lon="6.47618">
        <ele>1568.4</ele>
        <time>2022-01-14T11:53:04Z</time>
      </trkpt>
      <trkpt lat="44.99682" lon="6.47618">
        <ele>1568.4</ele>
        <time>2022-01-14T11:53:05Z</time>
      </trkpt>
      <trkpt lat="44.99682" lon="6.47618">
        <ele>1568.4</ele>
        <time>2022-01-14T11:53:06Z</time>
      </trkpt>
      <trkpt lat="44.99681" lon="6.47618">
        <ele>1568.4</ele>
        <time>2022-01-14T11:53:07Z</time>
      </trkpt>
      <trkpt lat="44.99681" lon="6.47619">
        <ele>1568.4</ele>
        <time>2022-01-14T11:53:08Z</time>
      </trkpt>
      <trkpt lat="44.99681" lon="6.47619">
        <ele>1568.4</ele>
        <time>2022-01-14T11:53:09Z</time>
      </trkpt>
      <trkpt lat="44.99681" lon="6.47621">
        <ele>1568.4</ele>
        <time>2022-01-14T11:53:10Z</time>
      </trkpt>
      <trkpt lat="44.99681" lon="6.47622">
        <ele>1568.4</ele>
        <time>2022-01-14T11:53:11Z</time>
      </trkpt>
      <trkpt lat="44.99681" lon="6.47623">
        <ele>1568.4</ele>
        <time>2022-01-14T11:53:12Z</time>
      </trkpt>
      <trkpt lat="44.99681" lon="6.47624">
        <ele>1568.4</ele>
        <time>2022-01-14T11:53:13Z</time>
      </trkpt>
      <trkpt lat="44.99682" lon="6.47625">
        <ele>1568.4</ele>
        <time>2022-01-14T11:53:14Z</time>
      </trkpt>
      <trkpt lat="44.99683" lon="6.47625">
        <ele>1568.4</ele>
        <time>2022-01-14T11:53:15Z</time>
      </trkpt>
      <trkpt lat="44.99684" lon="6.47626">
        <ele>1568.4</ele>
        <time>2022-01-14T11:53:16Z</time>
      </trkpt>
      <trkpt lat="44.99685" lon="6.47627">
        <ele>1568.4</ele>
        <time>2022-01-14T11:53:17Z</time>
      </trkpt>
      <trkpt lat="44.99685" lon="6.47627">
        <ele>1568.4</ele>
        <time>2022-01-14T11:53:18Z</time>
      </trkpt>
      <trkpt lat="44.99686" lon="6.47627">
        <ele>1568.4</ele>
        <time>2022-01-14T11:53:19Z</time>
      </trkpt>
      <trkpt lat="44.99686" lon="6.47627">
        <ele>1568.4</ele>
        <time>2022-01-14T11:53:20Z</time>
      </trkpt>
      <trkpt lat="44.99686" lon="6.47628">
        <ele>1568.4</ele>
        <time>2022-01-14T11:53:21Z</time>
      </trkpt>
      <trkpt lat="44.99687" lon="6.47628">
        <ele>1568.4</ele>
        <time>2022-01-14T11:53:22Z</time>
      </trkpt>
      <trkpt lat="44.99687" lon="6.47628">
        <ele>1568.5</ele>
        <time>2022-01-14T11:53:23Z</time>
      </trkpt>
      <trkpt lat="44.99687" lon="6.47628">
        <ele>1568.5</ele>
        <time>2022-01-14T11:53:24Z</time>
      </trkpt>
      <trkpt lat="44.99687" lon="6.47628">
        <ele>1568.5</ele>
        <time>2022-01-14T11:53:25Z</time>
      </trkpt>
      <trkpt lat="44.99687" lon="6.47627">
        <ele>1568.5</ele>
        <time>2022-01-14T11:53:26Z</time>
      </trkpt>
      <trkpt lat="44.99687" lon="6.47626">
        <ele>1568.5</ele>
        <time>2022-01-14T11:53:27Z</time>
      </trkpt>
      <trkpt lat="44.99687" lon="6.47626">
        <ele>1568.5</ele>
        <time>2022-01-14T11:53:28Z</time>
      </trkpt>
      <trkpt lat="44.99687" lon="6.47626">
        <ele>1568.5</ele>
        <time>2022-01-14T11:53:29Z</time>
      </trkpt>
      <trkpt lat="44.99687" lon="6.47626">
        <ele>1568.5</ele>
        <time>2022-01-14T11:53:30Z</time>
      </trkpt>
      <trkpt lat="44.99687" lon="6.47626">
        <ele>1568.5</ele>
        <time>2022-01-14T11:53:31Z</time>
      </trkpt>
      <trkpt lat="44.99687" lon="6.47627">
        <ele>1568.5</ele>
        <time>2022-01-14T11:53:32Z</time>
      </trkpt>
      <trkpt lat="44.99687" lon="6.47629">
        <ele>1568.5</ele>
        <time>2022-01-14T11:53:33Z</time>
      </trkpt>
      <trkpt lat="44.99686" lon="6.47629">
        <ele>1568.5</ele>
        <time>2022-01-14T11:53:34Z</time>
      </trkpt>
      <trkpt lat="44.99686" lon="6.4763">
        <ele>1568.5</ele>
        <time>2022-01-14T11:53:35Z</time>
      </trkpt>
      <trkpt lat="44.99685" lon="6.47632">
        <ele>1568.5</ele>
        <time>2022-01-14T11:53:36Z</time>
      </trkpt>
      <trkpt lat="44.99685" lon="6.47632">
        <ele>1568.5</ele>
        <time>2022-01-14T11:53:37Z</time>
      </trkpt>
      <trkpt lat="44.99684" lon="6.47633">
        <ele>1568.5</ele>
        <time>2022-01-14T11:53:38Z</time>
      </trkpt>
      <trkpt lat="44.99684" lon="6.47634">
        <ele>1568.5</ele>
        <time>2022-01-14T11:53:39Z</time>
      </trkpt>
      <trkpt lat="44.99683" lon="6.47635">
        <ele>1568.5</ele>
        <time>2022-01-14T11:53:40Z</time>
      </trkpt>
      <trkpt lat="44.99683" lon="6.47635">
        <ele>1568.5</ele>
        <time>2022-01-14T11:53:41Z</time>
      </trkpt>
      <trkpt lat="44.99683" lon="6.47635">
        <ele>1568.5</ele>
        <time>2022-01-14T11:53:42Z</time>
      </trkpt>
      <trkpt lat="44.99683" lon="6.47636">
        <ele>1568.5</ele>
        <time>2022-01-14T11:53:43Z</time>
      </trkpt>
      <trkpt lat="44.99683" lon="6.47636">
        <ele>1568.5</ele>
        <time>2022-01-14T11:53:44Z</time>
      </trkpt>
      <trkpt lat="44.99683" lon="6.47636">
        <ele>1568.5</ele>
        <time>2022-01-14T11:53:45Z</time>
      </trkpt>
      <trkpt lat="44.99683" lon="6.47634">
        <ele>1568.5</ele>
        <time>2022-01-14T11:53:46Z</time>
      </trkpt>
      <trkpt lat="44.99684" lon="6.47634">
        <ele>1568.5</ele>
        <time>2022-01-14T11:53:47Z</time>
      </trkpt>
      <trkpt lat="44.99684" lon="6.47633">
        <ele>1568.6</ele>
        <time>2022-01-14T11:53:48Z</time>
      </trkpt>
      <trkpt lat="44.99684" lon="6.47632">
        <ele>1568.6</ele>
        <time>2022-01-14T11:53:49Z</time>
      </trkpt>
      <trkpt lat="44.99685" lon="6.47632">
        <ele>1568.6</ele>
        <time>2022-01-14T11:53:50Z</time>
      </trkpt>
      <trkpt lat="44.99685" lon="6.47632">
        <ele>1568.6</ele>
        <time>2022-01-14T11:53:51Z</time>
      </trkpt>
      <trkpt lat="44.99685" lon="6.47632">
        <ele>1568.6</ele>
        <time>2022-01-14T11:53:52Z</time>
      </trkpt>
      <trkpt lat="44.99685" lon="6.47632">
        <ele>1568.6</ele>
        <time>2022-01-14T11:53:53Z</time>
      </trkpt>
      <trkpt lat="44.99684" lon="6.47632">
        <ele>1568.6</ele>
        <time>2022-01-14T11:53:54Z</time>
      </trkpt>
      <trkpt lat="44.99683" lon="6.47631">
        <ele>1568.6</ele>
        <time>2022-01-14T11:53:55Z</time>
      </trkpt>
      <trkpt lat="44.99683" lon="6.4763">
        <ele>1568.6</ele>
        <time>2022-01-14T11:53:56Z</time>
      </trkpt>
      <trkpt lat="44.99682" lon="6.47628">
        <ele>1568.6</ele>
        <time>2022-01-14T11:53:57Z</time>
      </trkpt>
      <trkpt lat="44.99681" lon="6.47627">
        <ele>1568.6</ele>
        <time>2022-01-14T11:53:58Z</time>
      </trkpt>
      <trkpt lat="44.99681" lon="6.47626">
        <ele>1568.6</ele>
        <time>2022-01-14T11:53:59Z</time>
      </trkpt>
      <trkpt lat="44.99679" lon="6.47623">
        <ele>1568.6</ele>
        <time>2022-01-14T11:54:00Z</time>
      </trkpt>
      <trkpt lat="44.99679" lon="6.47622">
        <ele>1568.6</ele>
        <time>2022-01-14T11:54:01Z</time>
      </trkpt>
      <trkpt lat="44.99678" lon="6.4762">
        <ele>1568.6</ele>
        <time>2022-01-14T11:54:02Z</time>
      </trkpt>
      <trkpt lat="44.99678" lon="6.47619">
        <ele>1568.6</ele>
        <time>2022-01-14T11:54:03Z</time>
      </trkpt>
      <trkpt lat="44.99678" lon="6.47617">
        <ele>1568.7</ele>
        <time>2022-01-14T11:54:04Z</time>
      </trkpt>
      <trkpt lat="44.99677" lon="6.47615">
        <ele>1568.7</ele>
        <time>2022-01-14T11:54:05Z</time>
      </trkpt>
      <trkpt lat="44.99677" lon="6.47614">
        <ele>1568.7</ele>
        <time>2022-01-14T11:54:06Z</time>
      </trkpt>
      <trkpt lat="44.99677" lon="6.47614">
        <ele>1568.7</ele>
        <time>2022-01-14T11:54:07Z</time>
      </trkpt>
      <trkpt lat="44.99676" lon="6.47615">
        <ele>1568.7</ele>
        <time>2022-01-14T11:54:08Z</time>
      </trkpt>
      <trkpt lat="44.99676" lon="6.47615">
        <ele>1568.7</ele>
        <time>2022-01-14T11:54:09Z</time>
      </trkpt>
      <trkpt lat="44.99676" lon="6.47615">
        <ele>1568.7</ele>
        <time>2022-01-14T11:54:10Z</time>
      </trkpt>
      <trkpt lat="44.99676" lon="6.47615">
        <ele>1568.7</ele>
        <time>2022-01-14T11:54:11Z</time>
      </trkpt>
      <trkpt lat="44.99676" lon="6.47616">
        <ele>1568.7</ele>
        <time>2022-01-14T11:54:12Z</time>
      </trkpt>
      <trkpt lat="44.99676" lon="6.47615">
        <ele>1568.7</ele>
        <time>2022-01-14T11:54:13Z</time>
      </trkpt>
      <trkpt lat="44.99676" lon="6.47615">
        <ele>1568.7</ele>
        <time>2022-01-14T11:54:14Z</time>
      </trkpt>
      <trkpt lat="44.99676" lon="6.47615">
        <ele>1568.7</ele>
        <time>2022-01-14T11:54:15Z</time>
      </trkpt>
      <trkpt lat="44.99676" lon="6.47615">
        <ele>1568.7</ele>
        <time>2022-01-14T11:54:16Z</time>
      </trkpt>
      <trkpt lat="44.99676" lon="6.47615">
        <ele>1568.7</ele>
        <time>2022-01-14T11:54:17Z</time>
      </trkpt>
      <trkpt lat="44.99676" lon="6.47615">
        <ele>1568.7</ele>
        <time>2022-01-14T11:54:18Z</time>
      </trkpt>
      <trkpt lat="44.99676" lon="6.47615">
        <ele>1568.7</ele>
        <time>2022-01-14T11:54:19Z</time>
      </trkpt>
      <trkpt lat="44.99676" lon="6.47615">
        <ele>1568.7</ele>
        <time>2022-01-14T11:54:20Z</time>
      </trkpt>
      <trkpt lat="44.99676" lon="6.47615">
        <ele>1568.7</ele>
        <time>2022-01-14T11:54:21Z</time>
      </trkpt>
      <trkpt lat="44.99676" lon="6.47615">
        <ele>1568.7</ele>
        <time>2022-01-14T11:54:22Z</time>
      </trkpt>
      <trkpt lat="44.99675" lon="6.47615">
        <ele>1568.7</ele>
        <time>2022-01-14T11:54:23Z</time>
      </trkpt>
      <trkpt lat="44.99675" lon="6.47616">
        <ele>1568.7</ele>
        <time>2022-01-14T11:54:24Z</time>
      </trkpt>
      <trkpt lat="44.99675" lon="6.47616">
        <ele>1568.7</ele>
        <time>2022-01-14T11:54:25Z</time>
      </trkpt>
      <trkpt lat="44.99675" lon="6.47616">
        <ele>1568.7</ele>
        <time>2022-01-14T11:54:26Z</time>
      </trkpt>
      <trkpt lat="44.99675" lon="6.47616">
        <ele>1568.7</ele>
        <time>2022-01-14T11:54:27Z</time>
      </trkpt>
      <trkpt lat="44.99675" lon="6.47615">
        <ele>1568.7</ele>
        <time>2022-01-14T11:54:28Z</time>
      </trkpt>
      <trkpt lat="44.99675" lon="6.47614">
        <ele>1568.7</ele>
        <time>2022-01-14T11:54:29Z</time>
      </trkpt>
      <trkpt lat="44.99674" lon="6.47613">
        <ele>1568.7</ele>
        <time>2022-01-14T11:54:30Z</time>
      </trkpt>
      <trkpt lat="44.99674" lon="6.47612">
        <ele>1568.7</ele>
        <time>2022-01-14T11:54:31Z</time>
      </trkpt>
      <trkpt lat="44.99675" lon="6.47612">
        <ele>1568.7</ele>
        <time>2022-01-14T11:54:32Z</time>
      </trkpt>
      <trkpt lat="44.99675" lon="6.47612">
        <ele>1568.7</ele>
        <time>2022-01-14T11:54:33Z</time>
      </trkpt>
      <trkpt lat="44.99675" lon="6.4761">
        <ele>1568.7</ele>
        <time>2022-01-14T11:54:34Z</time>
      </trkpt>
      <trkpt lat="44.99675" lon="6.4761">
        <ele>1568.7</ele>
        <time>2022-01-14T11:54:35Z</time>
      </trkpt>
      <trkpt lat="44.99674" lon="6.47609">
        <ele>1568.7</ele>
        <time>2022-01-14T11:54:36Z</time>
      </trkpt>
      <trkpt lat="44.99673" lon="6.47607">
        <ele>1568.7</ele>
        <time>2022-01-14T11:54:37Z</time>
      </trkpt>
      <trkpt lat="44.99673" lon="6.47606">
        <ele>1568.8</ele>
        <time>2022-01-14T11:54:38Z</time>
      </trkpt>
      <trkpt lat="44.99674" lon="6.47604">
        <ele>1568.8</ele>
        <time>2022-01-14T11:54:39Z</time>
      </trkpt>
      <trkpt lat="44.99675" lon="6.47602">
        <ele>1568.8</ele>
        <time>2022-01-14T11:54:40Z</time>
      </trkpt>
      <trkpt lat="44.99676" lon="6.47601">
        <ele>1568.8</ele>
        <time>2022-01-14T11:54:41Z</time>
      </trkpt>
      <trkpt lat="44.99677" lon="6.476">
        <ele>1568.8</ele>
        <time>2022-01-14T11:54:42Z</time>
      </trkpt>
      <trkpt lat="44.99678" lon="6.476">
        <ele>1568.8</ele>
        <time>2022-01-14T11:54:43Z</time>
      </trkpt>
      <trkpt lat="44.99678" lon="6.47599">
        <ele>1568.8</ele>
        <time>2022-01-14T11:54:44Z</time>
      </trkpt>
      <trkpt lat="44.99679" lon="6.47599">
        <ele>1568.8</ele>
        <time>2022-01-14T11:54:45Z</time>
      </trkpt>
      <trkpt lat="44.99679" lon="6.47599">
        <ele>1568.8</ele>
        <time>2022-01-14T11:54:46Z</time>
      </trkpt>
      <trkpt lat="44.99679" lon="6.47599">
        <ele>1568.8</ele>
        <time>2022-01-14T11:54:47Z</time>
      </trkpt>
      <trkpt lat="44.99679" lon="6.47599">
        <ele>1568.8</ele>
        <time>2022-01-14T11:54:48Z</time>
      </trkpt>
      <trkpt lat="44.99678" lon="6.47599">
        <ele>1568.8</ele>
        <time>2022-01-14T11:54:49Z</time>
      </trkpt>
      <trkpt lat="44.99677" lon="6.47599">
        <ele>1568.8</ele>
        <time>2022-01-14T11:54:50Z</time>
      </trkpt>
      <trkpt lat="44.99677" lon="6.476">
        <ele>1568.8</ele>
        <time>2022-01-14T11:54:51Z</time>
      </trkpt>
      <trkpt lat="44.99676" lon="6.47601">
        <ele>1568.8</ele>
        <time>2022-01-14T11:54:52Z</time>
      </trkpt>
      <trkpt lat="44.99675" lon="6.47603">
        <ele>1568.8</ele>
        <time>2022-01-14T11:54:53Z</time>
      </trkpt>
      <trkpt lat="44.99675" lon="6.47604">
        <ele>1568.9</ele>
        <time>2022-01-14T11:54:54Z</time>
      </trkpt>
      <trkpt lat="44.99674" lon="6.47605">
        <ele>1568.9</ele>
        <time>2022-01-14T11:54:55Z</time>
      </trkpt>
      <trkpt lat="44.99674" lon="6.47607">
        <ele>1568.9</ele>
        <time>2022-01-14T11:54:56Z</time>
      </trkpt>
      <trkpt lat="44.99674" lon="6.47607">
        <ele>1568.9</ele>
        <time>2022-01-14T11:54:57Z</time>
      </trkpt>
      <trkpt lat="44.99674" lon="6.47608">
        <ele>1568.9</ele>
        <time>2022-01-14T11:54:58Z</time>
      </trkpt>
      <trkpt lat="44.99674" lon="6.47608">
        <ele>1568.9</ele>
        <time>2022-01-14T11:54:59Z</time>
      </trkpt>
      <trkpt lat="44.99675" lon="6.47608">
        <ele>1568.9</ele>
        <time>2022-01-14T11:55:00Z</time>
      </trkpt>
      <trkpt lat="44.99675" lon="6.47608">
        <ele>1568.9</ele>
        <time>2022-01-14T11:55:01Z</time>
      </trkpt>
      <trkpt lat="44.99675" lon="6.47608">
        <ele>1568.9</ele>
        <time>2022-01-14T11:55:02Z</time>
      </trkpt>
      <trkpt lat="44.99675" lon="6.47608">
        <ele>1568.9</ele>
        <time>2022-01-14T11:55:03Z</time>
      </trkpt>
      <trkpt lat="44.99675" lon="6.47609">
        <ele>1568.9</ele>
        <time>2022-01-14T11:55:04Z</time>
      </trkpt>
      <trkpt lat="44.99675" lon="6.47609">
        <ele>1568.9</ele>
        <time>2022-01-14T11:55:05Z</time>
      </trkpt>
      <trkpt lat="44.99675" lon="6.47609">
        <ele>1568.9</ele>
        <time>2022-01-14T11:55:06Z</time>
      </trkpt>
      <trkpt lat="44.99674" lon="6.4761">
        <ele>1568.9</ele>
        <time>2022-01-14T11:55:07Z</time>
      </trkpt>
      <trkpt lat="44.99674" lon="6.47608">
        <ele>1568.9</ele>
        <time>2022-01-14T11:55:08Z</time>
      </trkpt>
      <trkpt lat="44.99674" lon="6.47608">
        <ele>1568.9</ele>
        <time>2022-01-14T11:55:09Z</time>
      </trkpt>
      <trkpt lat="44.99674" lon="6.47608">
        <ele>1568.9</ele>
        <time>2022-01-14T11:55:10Z</time>
      </trkpt>
      <trkpt lat="44.99673" lon="6.47608">
        <ele>1568.9</ele>
        <time>2022-01-14T11:55:11Z</time>
      </trkpt>
      <trkpt lat="44.99673" lon="6.47609">
        <ele>1568.9</ele>
        <time>2022-01-14T11:55:12Z</time>
      </trkpt>
      <trkpt lat="44.99673" lon="6.47609">
        <ele>1568.9</ele>
        <time>2022-01-14T11:55:13Z</time>
      </trkpt>
      <trkpt lat="44.99673" lon="6.47609">
        <ele>1568.9</ele>
        <time>2022-01-14T11:55:14Z</time>
      </trkpt>
      <trkpt lat="44.99673" lon="6.47609">
        <ele>1568.9</ele>
        <time>2022-01-14T11:55:15Z</time>
      </trkpt>
      <trkpt lat="44.99673" lon="6.47609">
        <ele>1568.9</ele>
        <time>2022-01-14T11:55:16Z</time>
      </trkpt>
      <trkpt lat="44.99673" lon="6.47609">
        <ele>1568.9</ele>
        <time>2022-01-14T11:55:17Z</time>
      </trkpt>
      <trkpt lat="44.99673" lon="6.47609">
        <ele>1568.9</ele>
        <time>2022-01-14T11:55:18Z</time>
      </trkpt>
      <trkpt lat="44.99673" lon="6.47609">
        <ele>1568.9</ele>
        <time>2022-01-14T11:55:19Z</time>
      </trkpt>
      <trkpt lat="44.99675" lon="6.47609">
        <ele>1568.9</ele>
        <time>2022-01-14T11:55:20Z</time>
      </trkpt>
      <trkpt lat="44.99676" lon="6.4761">
        <ele>1568.9</ele>
        <time>2022-01-14T11:55:21Z</time>
      </trkpt>
      <trkpt lat="44.99676" lon="6.4761">
        <ele>1568.9</ele>
        <time>2022-01-14T11:55:22Z</time>
      </trkpt>
      <trkpt lat="44.99677" lon="6.4761">
        <ele>1568.9</ele>
        <time>2022-01-14T11:55:23Z</time>
      </trkpt>
      <trkpt lat="44.99676" lon="6.4761">
        <ele>1568.9</ele>
        <time>2022-01-14T11:55:24Z</time>
      </trkpt>
      <trkpt lat="44.99676" lon="6.4761">
        <ele>1568.9</ele>
        <time>2022-01-14T11:55:25Z</time>
      </trkpt>
      <trkpt lat="44.99676" lon="6.4761">
        <ele>1568.9</ele>
        <time>2022-01-14T11:55:26Z</time>
      </trkpt>
      <trkpt lat="44.99676" lon="6.4761">
        <ele>1568.9</ele>
        <time>2022-01-14T11:55:27Z</time>
      </trkpt>
      <trkpt lat="44.99676" lon="6.4761">
        <ele>1568.9</ele>
        <time>2022-01-14T11:55:28Z</time>
      </trkpt>
      <trkpt lat="44.99676" lon="6.4761">
        <ele>1568.9</ele>
        <time>2022-01-14T11:55:29Z</time>
      </trkpt>
      <trkpt lat="44.99675" lon="6.4761">
        <ele>1568.9</ele>
        <time>2022-01-14T11:55:30Z</time>
      </trkpt>
      <trkpt lat="44.99675" lon="6.4761">
        <ele>1568.9</ele>
        <time>2022-01-14T11:55:31Z</time>
      </trkpt>
      <trkpt lat="44.99675" lon="6.4761">
        <ele>1568.9</ele>
        <time>2022-01-14T11:55:32Z</time>
      </trkpt>
      <trkpt lat="44.99675" lon="6.47609">
        <ele>1568.9</ele>
        <time>2022-01-14T11:55:33Z</time>
      </trkpt>
      <trkpt lat="44.99675" lon="6.47609">
        <ele>1568.9</ele>
        <time>2022-01-14T11:55:34Z</time>
      </trkpt>
      <trkpt lat="44.99674" lon="6.47609">
        <ele>1568.9</ele>
        <time>2022-01-14T11:55:35Z</time>
      </trkpt>
      <trkpt lat="44.99674" lon="6.47609">
        <ele>1568.9</ele>
        <time>2022-01-14T11:55:36Z</time>
      </trkpt>
      <trkpt lat="44.99674" lon="6.47609">
        <ele>1568.9</ele>
        <time>2022-01-14T11:55:37Z</time>
      </trkpt>
      <trkpt lat="44.99674" lon="6.47609">
        <ele>1568.9</ele>
        <time>2022-01-14T11:55:38Z</time>
      </trkpt>
      <trkpt lat="44.99674" lon="6.47609">
        <ele>1568.9</ele>
        <time>2022-01-14T11:55:39Z</time>
      </trkpt>
      <trkpt lat="44.99674" lon="6.47609">
        <ele>1568.9</ele>
        <time>2022-01-14T11:55:40Z</time>
      </trkpt>
      <trkpt lat="44.99673" lon="6.47609">
        <ele>1568.9</ele>
        <time>2022-01-14T11:55:41Z</time>
      </trkpt>
      <trkpt lat="44.99673" lon="6.47609">
        <ele>1568.9</ele>
        <time>2022-01-14T11:55:42Z</time>
      </trkpt>
      <trkpt lat="44.99673" lon="6.47609">
        <ele>1568.9</ele>
        <time>2022-01-14T11:55:43Z</time>
      </trkpt>
      <trkpt lat="44.99673" lon="6.47609">
        <ele>1568.9</ele>
        <time>2022-01-14T11:55:44Z</time>
      </trkpt>
      <trkpt lat="44.99673" lon="6.47609">
        <ele>1568.9</ele>
        <time>2022-01-14T11:55:45Z</time>
      </trkpt>
      <trkpt lat="44.99673" lon="6.47609">
        <ele>1568.9</ele>
        <time>2022-01-14T11:55:46Z</time>
      </trkpt>
      <trkpt lat="44.99672" lon="6.47609">
        <ele>1568.9</ele>
        <time>2022-01-14T11:55:47Z</time>
      </trkpt>
      <trkpt lat="44.99672" lon="6.47608">
        <ele>1568.9</ele>
        <time>2022-01-14T11:55:48Z</time>
      </trkpt>
      <trkpt lat="44.99671" lon="6.4761">
        <ele>1569</ele>
        <time>2022-01-14T11:55:49Z</time>
      </trkpt>
      <trkpt lat="44.99671" lon="6.47609">
        <ele>1569</ele>
        <time>2022-01-14T11:55:50Z</time>
      </trkpt>
      <trkpt lat="44.99671" lon="6.4761">
        <ele>1569</ele>
        <time>2022-01-14T11:55:51Z</time>
      </trkpt>
      <trkpt lat="44.9967" lon="6.4761">
        <ele>1569</ele>
        <time>2022-01-14T11:55:52Z</time>
      </trkpt>
      <trkpt lat="44.99669" lon="6.4761">
        <ele>1569</ele>
        <time>2022-01-14T11:55:53Z</time>
      </trkpt>
      <trkpt lat="44.99669" lon="6.4761">
        <ele>1569</ele>
        <time>2022-01-14T11:55:54Z</time>
      </trkpt>
      <trkpt lat="44.99668" lon="6.47611">
        <ele>1569</ele>
        <time>2022-01-14T11:55:55Z</time>
      </trkpt>
      <trkpt lat="44.99668" lon="6.47611">
        <ele>1569</ele>
        <time>2022-01-14T11:55:56Z</time>
      </trkpt>
      <trkpt lat="44.99668" lon="6.47611">
        <ele>1569</ele>
        <time>2022-01-14T11:55:57Z</time>
      </trkpt>
      <trkpt lat="44.99667" lon="6.47611">
        <ele>1569</ele>
        <time>2022-01-14T11:55:58Z</time>
      </trkpt>
      <trkpt lat="44.99667" lon="6.47611">
        <ele>1569</ele>
        <time>2022-01-14T11:55:59Z</time>
      </trkpt>
      <trkpt lat="44.99667" lon="6.47611">
        <ele>1569</ele>
        <time>2022-01-14T11:56:00Z</time>
      </trkpt>
      <trkpt lat="44.99668" lon="6.4761">
        <ele>1569</ele>
        <time>2022-01-14T11:56:01Z</time>
      </trkpt>
      <trkpt lat="44.99667" lon="6.47612">
        <ele>1569</ele>
        <time>2022-01-14T11:56:02Z</time>
      </trkpt>
      <trkpt lat="44.99667" lon="6.47612">
        <ele>1569</ele>
        <time>2022-01-14T11:56:03Z</time>
      </trkpt>
      <trkpt lat="44.99667" lon="6.47612">
        <ele>1569</ele>
        <time>2022-01-14T11:56:04Z</time>
      </trkpt>
      <trkpt lat="44.99667" lon="6.47612">
        <ele>1569</ele>
        <time>2022-01-14T11:56:05Z</time>
      </trkpt>
      <trkpt lat="44.99667" lon="6.47612">
        <ele>1569</ele>
        <time>2022-01-14T11:56:06Z</time>
      </trkpt>
      <trkpt lat="44.99667" lon="6.47611">
        <ele>1569</ele>
        <time>2022-01-14T11:56:07Z</time>
      </trkpt>
      <trkpt lat="44.99667" lon="6.47612">
        <ele>1569</ele>
        <time>2022-01-14T11:56:08Z</time>
      </trkpt>
      <trkpt lat="44.99668" lon="6.47611">
        <ele>1569</ele>
        <time>2022-01-14T11:56:09Z</time>
      </trkpt>
      <trkpt lat="44.99668" lon="6.47611">
        <ele>1569</ele>
        <time>2022-01-14T11:56:10Z</time>
      </trkpt>
      <trkpt lat="44.99668" lon="6.47611">
        <ele>1569</ele>
        <time>2022-01-14T11:56:11Z</time>
      </trkpt>
      <trkpt lat="44.99668" lon="6.47612">
        <ele>1569</ele>
        <time>2022-01-14T11:56:12Z</time>
      </trkpt>
      <trkpt lat="44.99668" lon="6.47612">
        <ele>1569</ele>
        <time>2022-01-14T11:56:13Z</time>
      </trkpt>
      <trkpt lat="44.99668" lon="6.47611">
        <ele>1569</ele>
        <time>2022-01-14T11:56:14Z</time>
      </trkpt>
      <trkpt lat="44.99668" lon="6.47611">
        <ele>1569</ele>
        <time>2022-01-14T11:56:15Z</time>
      </trkpt>
      <trkpt lat="44.99668" lon="6.4761">
        <ele>1569</ele>
        <time>2022-01-14T11:56:16Z</time>
      </trkpt>
      <trkpt lat="44.99667" lon="6.4761">
        <ele>1569</ele>
        <time>2022-01-14T11:56:17Z</time>
      </trkpt>
      <trkpt lat="44.99667" lon="6.47609">
        <ele>1569</ele>
        <time>2022-01-14T11:56:18Z</time>
      </trkpt>
      <trkpt lat="44.99667" lon="6.47609">
        <ele>1569</ele>
        <time>2022-01-14T11:56:19Z</time>
      </trkpt>
      <trkpt lat="44.99667" lon="6.47609">
        <ele>1569</ele>
        <time>2022-01-14T11:56:20Z</time>
      </trkpt>
      <trkpt lat="44.99667" lon="6.47609">
        <ele>1569</ele>
        <time>2022-01-14T11:56:21Z</time>
      </trkpt>
      <trkpt lat="44.99668" lon="6.4761">
        <ele>1569</ele>
        <time>2022-01-14T11:56:22Z</time>
      </trkpt>
      <trkpt lat="44.99668" lon="6.4761">
        <ele>1569</ele>
        <time>2022-01-14T11:56:23Z</time>
      </trkpt>
      <trkpt lat="44.99669" lon="6.4761">
        <ele>1569</ele>
        <time>2022-01-14T11:56:24Z</time>
      </trkpt>
      <trkpt lat="44.99669" lon="6.47611">
        <ele>1569.1</ele>
        <time>2022-01-14T11:56:25Z</time>
      </trkpt>
      <trkpt lat="44.99669" lon="6.47613">
        <ele>1569.1</ele>
        <time>2022-01-14T11:56:26Z</time>
      </trkpt>
      <trkpt lat="44.99669" lon="6.47613">
        <ele>1569.1</ele>
        <time>2022-01-14T11:56:27Z</time>
      </trkpt>
      <trkpt lat="44.99669" lon="6.47613">
        <ele>1569.1</ele>
        <time>2022-01-14T11:56:28Z</time>
      </trkpt>
      <trkpt lat="44.99668" lon="6.47612">
        <ele>1569.1</ele>
        <time>2022-01-14T11:56:29Z</time>
      </trkpt>
      <trkpt lat="44.99669" lon="6.47612">
        <ele>1569.1</ele>
        <time>2022-01-14T11:56:30Z</time>
      </trkpt>
      <trkpt lat="44.99669" lon="6.47612">
        <ele>1569.1</ele>
        <time>2022-01-14T11:56:31Z</time>
      </trkpt>
      <trkpt lat="44.99668" lon="6.47613">
        <ele>1569.1</ele>
        <time>2022-01-14T11:56:32Z</time>
      </trkpt>
      <trkpt lat="44.99668" lon="6.47614">
        <ele>1569.1</ele>
        <time>2022-01-14T11:56:33Z</time>
      </trkpt>
      <trkpt lat="44.99668" lon="6.47613">
        <ele>1569.1</ele>
        <time>2022-01-14T11:56:34Z</time>
      </trkpt>
      <trkpt lat="44.99668" lon="6.47613">
        <ele>1569.1</ele>
        <time>2022-01-14T11:56:35Z</time>
      </trkpt>
      <trkpt lat="44.99668" lon="6.47612">
        <ele>1569.1</ele>
        <time>2022-01-14T11:56:36Z</time>
      </trkpt>
      <trkpt lat="44.99669" lon="6.47613">
        <ele>1569.1</ele>
        <time>2022-01-14T11:56:37Z</time>
      </trkpt>
      <trkpt lat="44.99669" lon="6.47613">
        <ele>1569.1</ele>
        <time>2022-01-14T11:56:38Z</time>
      </trkpt>
      <trkpt lat="44.99669" lon="6.47613">
        <ele>1569.1</ele>
        <time>2022-01-14T11:56:39Z</time>
      </trkpt>
      <trkpt lat="44.99669" lon="6.47613">
        <ele>1569.1</ele>
        <time>2022-01-14T11:56:40Z</time>
      </trkpt>
      <trkpt lat="44.99669" lon="6.47612">
        <ele>1569.1</ele>
        <time>2022-01-14T11:56:41Z</time>
      </trkpt>
      <trkpt lat="44.99668" lon="6.47611">
        <ele>1569.1</ele>
        <time>2022-01-14T11:56:42Z</time>
      </trkpt>
      <trkpt lat="44.99668" lon="6.4761">
        <ele>1569.1</ele>
        <time>2022-01-14T11:56:43Z</time>
      </trkpt>
      <trkpt lat="44.99667" lon="6.4761">
        <ele>1569.1</ele>
        <time>2022-01-14T11:56:44Z</time>
      </trkpt>
      <trkpt lat="44.99667" lon="6.47609">
        <ele>1569.1</ele>
        <time>2022-01-14T11:56:45Z</time>
      </trkpt>
      <trkpt lat="44.99665" lon="6.47608">
        <ele>1569.1</ele>
        <time>2022-01-14T11:56:46Z</time>
      </trkpt>
      <trkpt lat="44.99665" lon="6.47608">
        <ele>1569.1</ele>
        <time>2022-01-14T11:56:47Z</time>
      </trkpt>
      <trkpt lat="44.99665" lon="6.47608">
        <ele>1569.1</ele>
        <time>2022-01-14T11:56:48Z</time>
      </trkpt>
      <trkpt lat="44.99665" lon="6.47608">
        <ele>1569.1</ele>
        <time>2022-01-14T11:56:49Z</time>
      </trkpt>
      <trkpt lat="44.99664" lon="6.47609">
        <ele>1569.1</ele>
        <time>2022-01-14T11:56:50Z</time>
      </trkpt>
      <trkpt lat="44.99664" lon="6.47609">
        <ele>1569.1</ele>
        <time>2022-01-14T11:56:51Z</time>
      </trkpt>
      <trkpt lat="44.99665" lon="6.47608">
        <ele>1569.1</ele>
        <time>2022-01-14T11:56:52Z</time>
      </trkpt>
      <trkpt lat="44.99666" lon="6.47608">
        <ele>1569.1</ele>
        <time>2022-01-14T11:56:53Z</time>
      </trkpt>
      <trkpt lat="44.99666" lon="6.47607">
        <ele>1569.1</ele>
        <time>2022-01-14T11:56:54Z</time>
      </trkpt>
      <trkpt lat="44.99666" lon="6.47607">
        <ele>1569.2</ele>
        <time>2022-01-14T11:56:55Z</time>
      </trkpt>
      <trkpt lat="44.99666" lon="6.47606">
        <ele>1569.2</ele>
        <time>2022-01-14T11:56:56Z</time>
      </trkpt>
      <trkpt lat="44.99667" lon="6.47605">
        <ele>1569.2</ele>
        <time>2022-01-14T11:56:57Z</time>
      </trkpt>
      <trkpt lat="44.99667" lon="6.47605">
        <ele>1569.2</ele>
        <time>2022-01-14T11:56:58Z</time>
      </trkpt>
      <trkpt lat="44.99667" lon="6.47605">
        <ele>1569.2</ele>
        <time>2022-01-14T11:56:59Z</time>
      </trkpt>
      <trkpt lat="44.99667" lon="6.47605">
        <ele>1569.2</ele>
        <time>2022-01-14T11:57:00Z</time>
      </trkpt>
      <trkpt lat="44.99667" lon="6.47605">
        <ele>1569.2</ele>
        <time>2022-01-14T11:57:01Z</time>
      </trkpt>
      <trkpt lat="44.99668" lon="6.47604">
        <ele>1569.2</ele>
        <time>2022-01-14T11:57:02Z</time>
      </trkpt>
      <trkpt lat="44.99668" lon="6.47604">
        <ele>1569.2</ele>
        <time>2022-01-14T11:57:03Z</time>
      </trkpt>
      <trkpt lat="44.99668" lon="6.47604">
        <ele>1569.2</ele>
        <time>2022-01-14T11:57:04Z</time>
      </trkpt>
      <trkpt lat="44.99668" lon="6.47604">
        <ele>1569.2</ele>
        <time>2022-01-14T11:57:05Z</time>
      </trkpt>
      <trkpt lat="44.99668" lon="6.47604">
        <ele>1569.2</ele>
        <time>2022-01-14T11:57:06Z</time>
      </trkpt>
      <trkpt lat="44.99668" lon="6.47604">
        <ele>1569.2</ele>
        <time>2022-01-14T11:57:07Z</time>
      </trkpt>
      <trkpt lat="44.99668" lon="6.47604">
        <ele>1569.2</ele>
        <time>2022-01-14T11:57:08Z</time>
      </trkpt>
      <trkpt lat="44.99668" lon="6.47604">
        <ele>1569.2</ele>
        <time>2022-01-14T11:57:09Z</time>
      </trkpt>
      <trkpt lat="44.99668" lon="6.47604">
        <ele>1569.2</ele>
        <time>2022-01-14T11:57:10Z</time>
      </trkpt>
      <trkpt lat="44.99668" lon="6.47604">
        <ele>1569.2</ele>
        <time>2022-01-14T11:57:11Z</time>
      </trkpt>
      <trkpt lat="44.99668" lon="6.47604">
        <ele>1569.2</ele>
        <time>2022-01-14T11:57:12Z</time>
      </trkpt>
      <trkpt lat="44.99669" lon="6.47604">
        <ele>1569.2</ele>
        <time>2022-01-14T11:57:13Z</time>
      </trkpt>
      <trkpt lat="44.99669" lon="6.47604">
        <ele>1569.2</ele>
        <time>2022-01-14T11:57:14Z</time>
      </trkpt>
      <trkpt lat="44.99669" lon="6.47603">
        <ele>1569.2</ele>
        <time>2022-01-14T11:57:15Z</time>
      </trkpt>
      <trkpt lat="44.99669" lon="6.47603">
        <ele>1569.2</ele>
        <time>2022-01-14T11:57:16Z</time>
      </trkpt>
      <trkpt lat="44.99669" lon="6.47603">
        <ele>1569.2</ele>
        <time>2022-01-14T11:57:17Z</time>
      </trkpt>
      <trkpt lat="44.99669" lon="6.47603">
        <ele>1569.2</ele>
        <time>2022-01-14T11:57:18Z</time>
      </trkpt>
      <trkpt lat="44.99669" lon="6.47603">
        <ele>1569.2</ele>
        <time>2022-01-14T11:57:19Z</time>
      </trkpt>
      <trkpt lat="44.99669" lon="6.47603">
        <ele>1569.2</ele>
        <time>2022-01-14T11:57:20Z</time>
      </trkpt>
      <trkpt lat="44.99669" lon="6.47603">
        <ele>1569.2</ele>
        <time>2022-01-14T11:57:21Z</time>
      </trkpt>
      <trkpt lat="44.99669" lon="6.47603">
        <ele>1569.2</ele>
        <time>2022-01-14T11:57:22Z</time>
      </trkpt>
      <trkpt lat="44.9967" lon="6.47603">
        <ele>1569.2</ele>
        <time>2022-01-14T11:57:23Z</time>
      </trkpt>
      <trkpt lat="44.9967" lon="6.47603">
        <ele>1569.2</ele>
        <time>2022-01-14T11:57:24Z</time>
      </trkpt>
      <trkpt lat="44.9967" lon="6.47603">
        <ele>1569.2</ele>
        <time>2022-01-14T11:57:25Z</time>
      </trkpt>
      <trkpt lat="44.9967" lon="6.47603">
        <ele>1569.2</ele>
        <time>2022-01-14T11:57:26Z</time>
      </trkpt>
      <trkpt lat="44.9967" lon="6.47602">
        <ele>1569.2</ele>
        <time>2022-01-14T11:57:27Z</time>
      </trkpt>
      <trkpt lat="44.9967" lon="6.47602">
        <ele>1569.2</ele>
        <time>2022-01-14T11:57:28Z</time>
      </trkpt>
      <trkpt lat="44.9967" lon="6.47602">
        <ele>1569.2</ele>
        <time>2022-01-14T11:57:29Z</time>
      </trkpt>
      <trkpt lat="44.9967" lon="6.47602">
        <ele>1569.2</ele>
        <time>2022-01-14T11:57:30Z</time>
      </trkpt>
      <trkpt lat="44.9967" lon="6.47602">
        <ele>1569.2</ele>
        <time>2022-01-14T11:57:31Z</time>
      </trkpt>
      <trkpt lat="44.99671" lon="6.47603">
        <ele>1569.2</ele>
        <time>2022-01-14T11:57:32Z</time>
      </trkpt>
      <trkpt lat="44.9967" lon="6.47604">
        <ele>1569.2</ele>
        <time>2022-01-14T11:57:33Z</time>
      </trkpt>
      <trkpt lat="44.9967" lon="6.47604">
        <ele>1569.2</ele>
        <time>2022-01-14T11:57:34Z</time>
      </trkpt>
      <trkpt lat="44.99669" lon="6.47603">
        <ele>1569.2</ele>
        <time>2022-01-14T11:57:35Z</time>
      </trkpt>
      <trkpt lat="44.9967" lon="6.47602">
        <ele>1569.2</ele>
        <time>2022-01-14T11:57:36Z</time>
      </trkpt>
      <trkpt lat="44.9967" lon="6.47602">
        <ele>1569.2</ele>
        <time>2022-01-14T11:57:37Z</time>
      </trkpt>
      <trkpt lat="44.9967" lon="6.47601">
        <ele>1569.2</ele>
        <time>2022-01-14T11:57:38Z</time>
      </trkpt>
      <trkpt lat="44.99669" lon="6.47602">
        <ele>1569.2</ele>
        <time>2022-01-14T11:57:39Z</time>
      </trkpt>
      <trkpt lat="44.99669" lon="6.47602">
        <ele>1569.2</ele>
        <time>2022-01-14T11:57:40Z</time>
      </trkpt>
      <trkpt lat="44.99669" lon="6.47602">
        <ele>1569.2</ele>
        <time>2022-01-14T11:57:41Z</time>
      </trkpt>
      <trkpt lat="44.99669" lon="6.47602">
        <ele>1569.2</ele>
        <time>2022-01-14T11:57:42Z</time>
      </trkpt>
      <trkpt lat="44.99669" lon="6.47602">
        <ele>1569.2</ele>
        <time>2022-01-14T11:57:43Z</time>
      </trkpt>
      <trkpt lat="44.99669" lon="6.47602">
        <ele>1569.2</ele>
        <time>2022-01-14T11:57:44Z</time>
      </trkpt>
      <trkpt lat="44.99669" lon="6.47602">
        <ele>1569.2</ele>
        <time>2022-01-14T11:57:45Z</time>
      </trkpt>
      <trkpt lat="44.99669" lon="6.47602">
        <ele>1569.2</ele>
        <time>2022-01-14T11:57:46Z</time>
      </trkpt>
      <trkpt lat="44.99669" lon="6.47602">
        <ele>1569.2</ele>
        <time>2022-01-14T11:57:47Z</time>
      </trkpt>
      <trkpt lat="44.99669" lon="6.47602">
        <ele>1569.2</ele>
        <time>2022-01-14T11:57:48Z</time>
      </trkpt>
      <trkpt lat="44.99669" lon="6.47602">
        <ele>1569.2</ele>
        <time>2022-01-14T11:57:49Z</time>
      </trkpt>
      <trkpt lat="44.99669" lon="6.47602">
        <ele>1569.2</ele>
        <time>2022-01-14T11:57:50Z</time>
      </trkpt>
      <trkpt lat="44.99669" lon="6.47603">
        <ele>1569.2</ele>
        <time>2022-01-14T11:57:51Z</time>
      </trkpt>
      <trkpt lat="44.99669" lon="6.47603">
        <ele>1569.2</ele>
        <time>2022-01-14T11:57:52Z</time>
      </trkpt>
      <trkpt lat="44.99669" lon="6.47603">
        <ele>1569.2</ele>
        <time>2022-01-14T11:57:53Z</time>
      </trkpt>
      <trkpt lat="44.9967" lon="6.47603">
        <ele>1569.2</ele>
        <time>2022-01-14T11:57:54Z</time>
      </trkpt>
      <trkpt lat="44.99669" lon="6.47602">
        <ele>1569.2</ele>
        <time>2022-01-14T11:57:55Z</time>
      </trkpt>
      <trkpt lat="44.99668" lon="6.47602">
        <ele>1569.2</ele>
        <time>2022-01-14T11:57:56Z</time>
      </trkpt>
      <trkpt lat="44.99668" lon="6.47602">
        <ele>1569.2</ele>
        <time>2022-01-14T11:57:57Z</time>
      </trkpt>
      <trkpt lat="44.99668" lon="6.47601">
        <ele>1569.2</ele>
        <time>2022-01-14T11:57:58Z</time>
      </trkpt>
      <trkpt lat="44.99668" lon="6.47601">
        <ele>1569.2</ele>
        <time>2022-01-14T11:57:59Z</time>
      </trkpt>
      <trkpt lat="44.99669" lon="6.476">
        <ele>1569.2</ele>
        <time>2022-01-14T11:58:00Z</time>
      </trkpt>
      <trkpt lat="44.99669" lon="6.476">
        <ele>1569.2</ele>
        <time>2022-01-14T11:58:01Z</time>
      </trkpt>
      <trkpt lat="44.99669" lon="6.476">
        <ele>1569.2</ele>
        <time>2022-01-14T11:58:02Z</time>
      </trkpt>
      <trkpt lat="44.99669" lon="6.476">
        <ele>1569.2</ele>
        <time>2022-01-14T11:58:03Z</time>
      </trkpt>
      <trkpt lat="44.99669" lon="6.476">
        <ele>1569.2</ele>
        <time>2022-01-14T11:58:04Z</time>
      </trkpt>
      <trkpt lat="44.99669" lon="6.476">
        <ele>1569.2</ele>
        <time>2022-01-14T11:58:05Z</time>
      </trkpt>
      <trkpt lat="44.99669" lon="6.47601">
        <ele>1569.3</ele>
        <time>2022-01-14T11:58:06Z</time>
      </trkpt>
      <trkpt lat="44.99668" lon="6.476">
        <ele>1569.3</ele>
        <time>2022-01-14T11:58:07Z</time>
      </trkpt>
      <trkpt lat="44.99668" lon="6.476">
        <ele>1569.3</ele>
        <time>2022-01-14T11:58:08Z</time>
      </trkpt>
      <trkpt lat="44.99668" lon="6.47601">
        <ele>1569.3</ele>
        <time>2022-01-14T11:58:09Z</time>
      </trkpt>
      <trkpt lat="44.99668" lon="6.47601">
        <ele>1569.3</ele>
        <time>2022-01-14T11:58:10Z</time>
      </trkpt>
      <trkpt lat="44.99669" lon="6.47602">
        <ele>1569.3</ele>
        <time>2022-01-14T11:58:11Z</time>
      </trkpt>
      <trkpt lat="44.9967" lon="6.47602">
        <ele>1569.3</ele>
        <time>2022-01-14T11:58:12Z</time>
      </trkpt>
      <trkpt lat="44.99669" lon="6.47603">
        <ele>1569.3</ele>
        <time>2022-01-14T11:58:13Z</time>
      </trkpt>
      <trkpt lat="44.99669" lon="6.47603">
        <ele>1569.3</ele>
        <time>2022-01-14T11:58:14Z</time>
      </trkpt>
      <trkpt lat="44.9967" lon="6.47604">
        <ele>1569.3</ele>
        <time>2022-01-14T11:58:15Z</time>
      </trkpt>
      <trkpt lat="44.9967" lon="6.47604">
        <ele>1569.3</ele>
        <time>2022-01-14T11:58:16Z</time>
      </trkpt>
      <trkpt lat="44.9967" lon="6.47604">
        <ele>1569.3</ele>
        <time>2022-01-14T11:58:17Z</time>
      </trkpt>
      <trkpt lat="44.9967" lon="6.47604">
        <ele>1569.3</ele>
        <time>2022-01-14T11:58:18Z</time>
      </trkpt>
      <trkpt lat="44.9967" lon="6.47604">
        <ele>1569.3</ele>
        <time>2022-01-14T11:58:19Z</time>
      </trkpt>
      <trkpt lat="44.9967" lon="6.47604">
        <ele>1569.3</ele>
        <time>2022-01-14T11:58:20Z</time>
      </trkpt>
      <trkpt lat="44.9967" lon="6.47604">
        <ele>1569.3</ele>
        <time>2022-01-14T11:58:21Z</time>
      </trkpt>
      <trkpt lat="44.9967" lon="6.47604">
        <ele>1569.3</ele>
        <time>2022-01-14T11:58:22Z</time>
      </trkpt>
      <trkpt lat="44.9967" lon="6.47604">
        <ele>1569.3</ele>
        <time>2022-01-14T11:58:23Z</time>
      </trkpt>
      <trkpt lat="44.9967" lon="6.47604">
        <ele>1569.3</ele>
        <time>2022-01-14T11:58:24Z</time>
      </trkpt>
      <trkpt lat="44.9967" lon="6.47604">
        <ele>1569.3</ele>
        <time>2022-01-14T11:58:25Z</time>
      </trkpt>
      <trkpt lat="44.9967" lon="6.47604">
        <ele>1569.3</ele>
        <time>2022-01-14T11:58:26Z</time>
      </trkpt>
      <trkpt lat="44.9967" lon="6.47604">
        <ele>1569.3</ele>
        <time>2022-01-14T11:58:27Z</time>
      </trkpt>
      <trkpt lat="44.9967" lon="6.47604">
        <ele>1569.3</ele>
        <time>2022-01-14T11:58:28Z</time>
      </trkpt>
      <trkpt lat="44.99669" lon="6.47603">
        <ele>1569.3</ele>
        <time>2022-01-14T11:58:29Z</time>
      </trkpt>
      <trkpt lat="44.99669" lon="6.47603">
        <ele>1569.3</ele>
        <time>2022-01-14T11:58:30Z</time>
      </trkpt>
      <trkpt lat="44.99669" lon="6.47604">
        <ele>1569.3</ele>
        <time>2022-01-14T11:58:31Z</time>
      </trkpt>
      <trkpt lat="44.99669" lon="6.47604">
        <ele>1569.3</ele>
        <time>2022-01-14T11:58:32Z</time>
      </trkpt>
      <trkpt lat="44.99669" lon="6.47605">
        <ele>1569.3</ele>
        <time>2022-01-14T11:58:33Z</time>
      </trkpt>
      <trkpt lat="44.99669" lon="6.47605">
        <ele>1569.3</ele>
        <time>2022-01-14T11:58:34Z</time>
      </trkpt>
      <trkpt lat="44.99669" lon="6.47605">
        <ele>1569.3</ele>
        <time>2022-01-14T11:58:35Z</time>
      </trkpt>
      <trkpt lat="44.99669" lon="6.47605">
        <ele>1569.3</ele>
        <time>2022-01-14T11:58:36Z</time>
      </trkpt>
      <trkpt lat="44.99669" lon="6.47605">
        <ele>1569.3</ele>
        <time>2022-01-14T11:58:37Z</time>
      </trkpt>
      <trkpt lat="44.99669" lon="6.47605">
        <ele>1569.3</ele>
        <time>2022-01-14T11:58:38Z</time>
      </trkpt>
      <trkpt lat="44.99669" lon="6.47605">
        <ele>1569.3</ele>
        <time>2022-01-14T11:58:39Z</time>
      </trkpt>
      <trkpt lat="44.99669" lon="6.47605">
        <ele>1569.3</ele>
        <time>2022-01-14T11:58:40Z</time>
      </trkpt>
      <trkpt lat="44.99669" lon="6.47605">
        <ele>1569.3</ele>
        <time>2022-01-14T11:58:41Z</time>
      </trkpt>
      <trkpt lat="44.99669" lon="6.47605">
        <ele>1569.3</ele>
        <time>2022-01-14T11:58:42Z</time>
      </trkpt>
      <trkpt lat="44.99669" lon="6.47605">
        <ele>1569.3</ele>
        <time>2022-01-14T11:58:43Z</time>
      </trkpt>
      <trkpt lat="44.99669" lon="6.47605">
        <ele>1569.3</ele>
        <time>2022-01-14T11:58:44Z</time>
      </trkpt>
      <trkpt lat="44.99669" lon="6.47605">
        <ele>1569.3</ele>
        <time>2022-01-14T11:58:45Z</time>
      </trkpt>
      <trkpt lat="44.99669" lon="6.47605">
        <ele>1569.3</ele>
        <time>2022-01-14T11:58:46Z</time>
      </trkpt>
      <trkpt lat="44.99669" lon="6.47605">
        <ele>1569.3</ele>
        <time>2022-01-14T11:58:47Z</time>
      </trkpt>
      <trkpt lat="44.99669" lon="6.47605">
        <ele>1569.3</ele>
        <time>2022-01-14T11:58:48Z</time>
      </trkpt>
      <trkpt lat="44.99669" lon="6.47605">
        <ele>1569.3</ele>
        <time>2022-01-14T11:58:49Z</time>
      </trkpt>
      <trkpt lat="44.99669" lon="6.47605">
        <ele>1569.3</ele>
        <time>2022-01-14T11:58:50Z</time>
      </trkpt>
      <trkpt lat="44.99669" lon="6.47605">
        <ele>1569.3</ele>
        <time>2022-01-14T11:58:51Z</time>
      </trkpt>
      <trkpt lat="44.9967" lon="6.47605">
        <ele>1569.3</ele>
        <time>2022-01-14T11:58:52Z</time>
      </trkpt>
      <trkpt lat="44.9967" lon="6.47605">
        <ele>1569.3</ele>
        <time>2022-01-14T11:58:53Z</time>
      </trkpt>
      <trkpt lat="44.9967" lon="6.47605">
        <ele>1569.3</ele>
        <time>2022-01-14T11:58:54Z</time>
      </trkpt>
      <trkpt lat="44.9967" lon="6.47605">
        <ele>1569.3</ele>
        <time>2022-01-14T11:58:55Z</time>
      </trkpt>
      <trkpt lat="44.9967" lon="6.47604">
        <ele>1569.3</ele>
        <time>2022-01-14T11:58:56Z</time>
      </trkpt>
      <trkpt lat="44.9967" lon="6.47604">
        <ele>1569.3</ele>
        <time>2022-01-14T11:58:57Z</time>
      </trkpt>
      <trkpt lat="44.9967" lon="6.47604">
        <ele>1569.3</ele>
        <time>2022-01-14T11:58:58Z</time>
      </trkpt>
      <trkpt lat="44.9967" lon="6.47604">
        <ele>1569.3</ele>
        <time>2022-01-14T11:58:59Z</time>
      </trkpt>
      <trkpt lat="44.9967" lon="6.47604">
        <ele>1569.3</ele>
        <time>2022-01-14T11:59:00Z</time>
      </trkpt>
      <trkpt lat="44.9967" lon="6.47604">
        <ele>1569.3</ele>
        <time>2022-01-14T11:59:01Z</time>
      </trkpt>
      <trkpt lat="44.9967" lon="6.47604">
        <ele>1569.3</ele>
        <time>2022-01-14T11:59:02Z</time>
      </trkpt>
      <trkpt lat="44.9967" lon="6.47604">
        <ele>1569.3</ele>
        <time>2022-01-14T11:59:03Z</time>
      </trkpt>
      <trkpt lat="44.9967" lon="6.47604">
        <ele>1569.3</ele>
        <time>2022-01-14T11:59:04Z</time>
      </trkpt>
      <trkpt lat="44.9967" lon="6.47603">
        <ele>1569.3</ele>
        <time>2022-01-14T11:59:05Z</time>
      </trkpt>
      <trkpt lat="44.9967" lon="6.47602">
        <ele>1569.3</ele>
        <time>2022-01-14T11:59:06Z</time>
      </trkpt>
      <trkpt lat="44.9967" lon="6.47602">
        <ele>1569.3</ele>
        <time>2022-01-14T11:59:07Z</time>
      </trkpt>
      <trkpt lat="44.9967" lon="6.47602">
        <ele>1569.3</ele>
        <time>2022-01-14T11:59:08Z</time>
      </trkpt>
      <trkpt lat="44.9967" lon="6.47601">
        <ele>1569.3</ele>
        <time>2022-01-14T11:59:09Z</time>
      </trkpt>
      <trkpt lat="44.9967" lon="6.47602">
        <ele>1569.3</ele>
        <time>2022-01-14T11:59:10Z</time>
      </trkpt>
      <trkpt lat="44.99671" lon="6.47602">
        <ele>1569.4</ele>
        <time>2022-01-14T11:59:11Z</time>
      </trkpt>
      <trkpt lat="44.99671" lon="6.47602">
        <ele>1569.4</ele>
        <time>2022-01-14T11:59:12Z</time>
      </trkpt>
      <trkpt lat="44.99671" lon="6.47602">
        <ele>1569.4</ele>
        <time>2022-01-14T11:59:13Z</time>
      </trkpt>
      <trkpt lat="44.99671" lon="6.47602">
        <ele>1569.4</ele>
        <time>2022-01-14T11:59:14Z</time>
      </trkpt>
      <trkpt lat="44.99671" lon="6.47601">
        <ele>1569.4</ele>
        <time>2022-01-14T11:59:15Z</time>
      </trkpt>
      <trkpt lat="44.99671" lon="6.47601">
        <ele>1569.4</ele>
        <time>2022-01-14T11:59:16Z</time>
      </trkpt>
      <trkpt lat="44.99671" lon="6.47601">
        <ele>1569.4</ele>
        <time>2022-01-14T11:59:17Z</time>
      </trkpt>
      <trkpt lat="44.99672" lon="6.47602">
        <ele>1569.4</ele>
        <time>2022-01-14T11:59:18Z</time>
      </trkpt>
      <trkpt lat="44.99672" lon="6.47601">
        <ele>1569.4</ele>
        <time>2022-01-14T11:59:19Z</time>
      </trkpt>
      <trkpt lat="44.99672" lon="6.47601">
        <ele>1569.4</ele>
        <time>2022-01-14T11:59:20Z</time>
      </trkpt>
      <trkpt lat="44.99672" lon="6.476">
        <ele>1569.4</ele>
        <time>2022-01-14T11:59:21Z</time>
      </trkpt>
      <trkpt lat="44.99673" lon="6.47599">
        <ele>1569.4</ele>
        <time>2022-01-14T11:59:22Z</time>
      </trkpt>
      <trkpt lat="44.99671" lon="6.476">
        <ele>1569.4</ele>
        <time>2022-01-14T11:59:23Z</time>
      </trkpt>
      <trkpt lat="44.99671" lon="6.47599">
        <ele>1569.4</ele>
        <time>2022-01-14T11:59:24Z</time>
      </trkpt>
      <trkpt lat="44.99669" lon="6.47597">
        <ele>1569.4</ele>
        <time>2022-01-14T11:59:25Z</time>
      </trkpt>
      <trkpt lat="44.99669" lon="6.47596">
        <ele>1569.4</ele>
        <time>2022-01-14T11:59:26Z</time>
      </trkpt>
      <trkpt lat="44.9967" lon="6.47597">
        <ele>1569.4</ele>
        <time>2022-01-14T11:59:27Z</time>
      </trkpt>
      <trkpt lat="44.9967" lon="6.47598">
        <ele>1569.4</ele>
        <time>2022-01-14T11:59:28Z</time>
      </trkpt>
      <trkpt lat="44.9967" lon="6.47597">
        <ele>1569.4</ele>
        <time>2022-01-14T11:59:29Z</time>
      </trkpt>
      <trkpt lat="44.9967" lon="6.47597">
        <ele>1569.4</ele>
        <time>2022-01-14T11:59:30Z</time>
      </trkpt>
      <trkpt lat="44.9967" lon="6.47596">
        <ele>1569.4</ele>
        <time>2022-01-14T11:59:31Z</time>
      </trkpt>
      <trkpt lat="44.99669" lon="6.47597">
        <ele>1569.4</ele>
        <time>2022-01-14T11:59:32Z</time>
      </trkpt>
      <trkpt lat="44.99669" lon="6.47597">
        <ele>1569.5</ele>
        <time>2022-01-14T11:59:33Z</time>
      </trkpt>
      <trkpt lat="44.99669" lon="6.47598">
        <ele>1569.5</ele>
        <time>2022-01-14T11:59:34Z</time>
      </trkpt>
      <trkpt lat="44.99669" lon="6.47599">
        <ele>1569.5</ele>
        <time>2022-01-14T11:59:35Z</time>
      </trkpt>
      <trkpt lat="44.99669" lon="6.47599">
        <ele>1569.5</ele>
        <time>2022-01-14T11:59:36Z</time>
      </trkpt>
      <trkpt lat="44.99669" lon="6.47598">
        <ele>1569.5</ele>
        <time>2022-01-14T11:59:37Z</time>
      </trkpt>
      <trkpt lat="44.99669" lon="6.47598">
        <ele>1569.5</ele>
        <time>2022-01-14T11:59:38Z</time>
      </trkpt>
      <trkpt lat="44.99669" lon="6.47596">
        <ele>1569.5</ele>
        <time>2022-01-14T11:59:39Z</time>
      </trkpt>
      <trkpt lat="44.99669" lon="6.47596">
        <ele>1569.5</ele>
        <time>2022-01-14T11:59:40Z</time>
      </trkpt>
      <trkpt lat="44.99669" lon="6.47597">
        <ele>1569.5</ele>
        <time>2022-01-14T11:59:41Z</time>
      </trkpt>
      <trkpt lat="44.99669" lon="6.47597">
        <ele>1569.5</ele>
        <time>2022-01-14T11:59:42Z</time>
      </trkpt>
      <trkpt lat="44.99669" lon="6.47597">
        <ele>1569.5</ele>
        <time>2022-01-14T11:59:43Z</time>
      </trkpt>
      <trkpt lat="44.9967" lon="6.47597">
        <ele>1569.5</ele>
        <time>2022-01-14T11:59:44Z</time>
      </trkpt>
      <trkpt lat="44.9967" lon="6.47597">
        <ele>1569.5</ele>
        <time>2022-01-14T11:59:45Z</time>
      </trkpt>
      <trkpt lat="44.9967" lon="6.47597">
        <ele>1569.5</ele>
        <time>2022-01-14T11:59:46Z</time>
      </trkpt>
      <trkpt lat="44.9967" lon="6.47596">
        <ele>1569.5</ele>
        <time>2022-01-14T11:59:47Z</time>
      </trkpt>
      <trkpt lat="44.99671" lon="6.47596">
        <ele>1569.5</ele>
        <time>2022-01-14T11:59:48Z</time>
      </trkpt>
      <trkpt lat="44.99672" lon="6.47595">
        <ele>1569.5</ele>
        <time>2022-01-14T11:59:49Z</time>
      </trkpt>
      <trkpt lat="44.99672" lon="6.47595">
        <ele>1569.5</ele>
        <time>2022-01-14T11:59:50Z</time>
      </trkpt>
      <trkpt lat="44.99671" lon="6.47596">
        <ele>1569.5</ele>
        <time>2022-01-14T11:59:51Z</time>
      </trkpt>
      <trkpt lat="44.99673" lon="6.47597">
        <ele>1569.5</ele>
        <time>2022-01-14T11:59:52Z</time>
      </trkpt>
      <trkpt lat="44.99673" lon="6.47598">
        <ele>1569.5</ele>
        <time>2022-01-14T11:59:53Z</time>
      </trkpt>
      <trkpt lat="44.99673" lon="6.47598">
        <ele>1569.5</ele>
        <time>2022-01-14T11:59:54Z</time>
      </trkpt>
      <trkpt lat="44.99674" lon="6.47599">
        <ele>1569.5</ele>
        <time>2022-01-14T11:59:55Z</time>
      </trkpt>
      <trkpt lat="44.99674" lon="6.476">
        <ele>1569.5</ele>
        <time>2022-01-14T11:59:56Z</time>
      </trkpt>
      <trkpt lat="44.99674" lon="6.476">
        <ele>1569.5</ele>
        <time>2022-01-14T11:59:57Z</time>
      </trkpt>
      <trkpt lat="44.99675" lon="6.47599">
        <ele>1569.5</ele>
        <time>2022-01-14T11:59:58Z</time>
      </trkpt>
      <trkpt lat="44.99676" lon="6.47599">
        <ele>1569.5</ele>
        <time>2022-01-14T11:59:59Z</time>
      </trkpt>
      <trkpt lat="44.99677" lon="6.47598">
        <ele>1569.5</ele>
        <time>2022-01-14T12:00:00Z</time>
      </trkpt>
      <trkpt lat="44.99677" lon="6.47598">
        <ele>1569.5</ele>
        <time>2022-01-14T12:00:01Z</time>
      </trkpt>
      <trkpt lat="44.99678" lon="6.47598">
        <ele>1569.6</ele>
        <time>2022-01-14T12:00:02Z</time>
      </trkpt>
      <trkpt lat="44.99678" lon="6.47597">
        <ele>1569.6</ele>
        <time>2022-01-14T12:00:03Z</time>
      </trkpt>
      <trkpt lat="44.99678" lon="6.47597">
        <ele>1569.6</ele>
        <time>2022-01-14T12:00:04Z</time>
      </trkpt>
      <trkpt lat="44.99679" lon="6.47597">
        <ele>1569.6</ele>
        <time>2022-01-14T12:00:05Z</time>
      </trkpt>
      <trkpt lat="44.99679" lon="6.47597">
        <ele>1569.6</ele>
        <time>2022-01-14T12:00:06Z</time>
      </trkpt>
      <trkpt lat="44.9968" lon="6.47597">
        <ele>1569.6</ele>
        <time>2022-01-14T12:00:07Z</time>
      </trkpt>
      <trkpt lat="44.99682" lon="6.47598">
        <ele>1569.6</ele>
        <time>2022-01-14T12:00:08Z</time>
      </trkpt>
      <trkpt lat="44.99683" lon="6.47598">
        <ele>1569.6</ele>
        <time>2022-01-14T12:00:09Z</time>
      </trkpt>
      <trkpt lat="44.99684" lon="6.47598">
        <ele>1569.6</ele>
        <time>2022-01-14T12:00:10Z</time>
      </trkpt>
      <trkpt lat="44.99685" lon="6.47597">
        <ele>1569.6</ele>
        <time>2022-01-14T12:00:11Z</time>
      </trkpt>
      <trkpt lat="44.99686" lon="6.47597">
        <ele>1569.6</ele>
        <time>2022-01-14T12:00:12Z</time>
      </trkpt>
      <trkpt lat="44.99686" lon="6.47597">
        <ele>1569.6</ele>
        <time>2022-01-14T12:00:13Z</time>
      </trkpt>
      <trkpt lat="44.99687" lon="6.47596">
        <ele>1569.6</ele>
        <time>2022-01-14T12:00:14Z</time>
      </trkpt>
      <trkpt lat="44.99688" lon="6.47595">
        <ele>1569.6</ele>
        <time>2022-01-14T12:00:15Z</time>
      </trkpt>
      <trkpt lat="44.9969" lon="6.47595">
        <ele>1569.6</ele>
        <time>2022-01-14T12:00:16Z</time>
      </trkpt>
      <trkpt lat="44.99691" lon="6.47594">
        <ele>1569.6</ele>
        <time>2022-01-14T12:00:17Z</time>
      </trkpt>
      <trkpt lat="44.99691" lon="6.47594">
        <ele>1569.6</ele>
        <time>2022-01-14T12:00:18Z</time>
      </trkpt>
      <trkpt lat="44.99692" lon="6.47592">
        <ele>1569.6</ele>
        <time>2022-01-14T12:00:19Z</time>
      </trkpt>
      <trkpt lat="44.99693" lon="6.47592">
        <ele>1569.6</ele>
        <time>2022-01-14T12:00:20Z</time>
      </trkpt>
      <trkpt lat="44.99693" lon="6.47593">
        <ele>1569.6</ele>
        <time>2022-01-14T12:00:21Z</time>
      </trkpt>
      <trkpt lat="44.99695" lon="6.47592">
        <ele>1569.6</ele>
        <time>2022-01-14T12:00:22Z</time>
      </trkpt>
      <trkpt lat="44.99695" lon="6.47591">
        <ele>1569.6</ele>
        <time>2022-01-14T12:00:23Z</time>
      </trkpt>
      <trkpt lat="44.99697" lon="6.47591">
        <ele>1569.7</ele>
        <time>2022-01-14T12:00:24Z</time>
      </trkpt>
      <trkpt lat="44.99698" lon="6.47591">
        <ele>1569.7</ele>
        <time>2022-01-14T12:00:25Z</time>
      </trkpt>
      <trkpt lat="44.99698" lon="6.47591">
        <ele>1569.7</ele>
        <time>2022-01-14T12:00:26Z</time>
      </trkpt>
      <trkpt lat="44.99699" lon="6.4759">
        <ele>1569.7</ele>
        <time>2022-01-14T12:00:27Z</time>
      </trkpt>
      <trkpt lat="44.997" lon="6.4759">
        <ele>1569.7</ele>
        <time>2022-01-14T12:00:28Z</time>
      </trkpt>
      <trkpt lat="44.99701" lon="6.47588">
        <ele>1569.7</ele>
        <time>2022-01-14T12:00:29Z</time>
      </trkpt>
      <trkpt lat="44.99702" lon="6.47588">
        <ele>1569.7</ele>
        <time>2022-01-14T12:00:30Z</time>
      </trkpt>
      <trkpt lat="44.99702" lon="6.47587">
        <ele>1569.7</ele>
        <time>2022-01-14T12:00:31Z</time>
      </trkpt>
      <trkpt lat="44.99703" lon="6.47586">
        <ele>1569.7</ele>
        <time>2022-01-14T12:00:32Z</time>
      </trkpt>
      <trkpt lat="44.99703" lon="6.47586">
        <ele>1569.7</ele>
        <time>2022-01-14T12:00:33Z</time>
      </trkpt>
      <trkpt lat="44.99704" lon="6.47586">
        <ele>1569.7</ele>
        <time>2022-01-14T12:00:34Z</time>
      </trkpt>
      <trkpt lat="44.99705" lon="6.47584">
        <ele>1569.7</ele>
        <time>2022-01-14T12:00:35Z</time>
      </trkpt>
      <trkpt lat="44.99705" lon="6.47583">
        <ele>1569.7</ele>
        <time>2022-01-14T12:00:36Z</time>
      </trkpt>
      <trkpt lat="44.99706" lon="6.47582">
        <ele>1569.7</ele>
        <time>2022-01-14T12:00:37Z</time>
      </trkpt>
      <trkpt lat="44.99706" lon="6.47582">
        <ele>1569.7</ele>
        <time>2022-01-14T12:00:38Z</time>
      </trkpt>
      <trkpt lat="44.99706" lon="6.47581">
        <ele>1569.7</ele>
        <time>2022-01-14T12:00:39Z</time>
      </trkpt>
      <trkpt lat="44.99707" lon="6.4758">
        <ele>1569.7</ele>
        <time>2022-01-14T12:00:40Z</time>
      </trkpt>
      <trkpt lat="44.99707" lon="6.47579">
        <ele>1569.7</ele>
        <time>2022-01-14T12:00:41Z</time>
      </trkpt>
      <trkpt lat="44.99708" lon="6.47578">
        <ele>1569.7</ele>
        <time>2022-01-14T12:00:42Z</time>
      </trkpt>
      <trkpt lat="44.99708" lon="6.47578">
        <ele>1569.7</ele>
        <time>2022-01-14T12:00:43Z</time>
      </trkpt>
      <trkpt lat="44.99709" lon="6.47578">
        <ele>1569.7</ele>
        <time>2022-01-14T12:00:44Z</time>
      </trkpt>
      <trkpt lat="44.99709" lon="6.47578">
        <ele>1569.7</ele>
        <time>2022-01-14T12:00:45Z</time>
      </trkpt>
      <trkpt lat="44.9971" lon="6.47577">
        <ele>1569.7</ele>
        <time>2022-01-14T12:00:46Z</time>
      </trkpt>
      <trkpt lat="44.99711" lon="6.47577">
        <ele>1569.7</ele>
        <time>2022-01-14T12:00:47Z</time>
      </trkpt>
      <trkpt lat="44.99713" lon="6.47575">
        <ele>1569.8</ele>
        <time>2022-01-14T12:00:48Z</time>
      </trkpt>
      <trkpt lat="44.99714" lon="6.47575">
        <ele>1569.8</ele>
        <time>2022-01-14T12:00:49Z</time>
      </trkpt>
      <trkpt lat="44.99715" lon="6.47574">
        <ele>1569.8</ele>
        <time>2022-01-14T12:00:50Z</time>
      </trkpt>
      <trkpt lat="44.99715" lon="6.47573">
        <ele>1569.8</ele>
        <time>2022-01-14T12:00:51Z</time>
      </trkpt>
      <trkpt lat="44.99715" lon="6.47573">
        <ele>1569.8</ele>
        <time>2022-01-14T12:00:52Z</time>
      </trkpt>
      <trkpt lat="44.99716" lon="6.47571">
        <ele>1569.8</ele>
        <time>2022-01-14T12:00:53Z</time>
      </trkpt>
      <trkpt lat="44.99717" lon="6.47571">
        <ele>1569.8</ele>
        <time>2022-01-14T12:00:54Z</time>
      </trkpt>
      <trkpt lat="44.99717" lon="6.47571">
        <ele>1569.8</ele>
        <time>2022-01-14T12:00:55Z</time>
      </trkpt>
      <trkpt lat="44.99717" lon="6.4757">
        <ele>1569.8</ele>
        <time>2022-01-14T12:00:56Z</time>
      </trkpt>
      <trkpt lat="44.99718" lon="6.4757">
        <ele>1569.8</ele>
        <time>2022-01-14T12:00:57Z</time>
      </trkpt>
      <trkpt lat="44.99719" lon="6.47569">
        <ele>1569.8</ele>
        <time>2022-01-14T12:00:58Z</time>
      </trkpt>
      <trkpt lat="44.9972" lon="6.4757">
        <ele>1569.8</ele>
        <time>2022-01-14T12:00:59Z</time>
      </trkpt>
      <trkpt lat="44.99722" lon="6.47571">
        <ele>1569.8</ele>
        <time>2022-01-14T12:01:00Z</time>
      </trkpt>
      <trkpt lat="44.99723" lon="6.47572">
        <ele>1569.8</ele>
        <time>2022-01-14T12:01:01Z</time>
      </trkpt>
      <trkpt lat="44.99724" lon="6.47573">
        <ele>1569.8</ele>
        <time>2022-01-14T12:01:02Z</time>
      </trkpt>
      <trkpt lat="44.99724" lon="6.47572">
        <ele>1569.8</ele>
        <time>2022-01-14T12:01:03Z</time>
      </trkpt>
      <trkpt lat="44.99725" lon="6.47572">
        <ele>1569.8</ele>
        <time>2022-01-14T12:01:04Z</time>
      </trkpt>
      <trkpt lat="44.99725" lon="6.47571">
        <ele>1569.8</ele>
        <time>2022-01-14T12:01:05Z</time>
      </trkpt>
      <trkpt lat="44.99725" lon="6.47571">
        <ele>1569.8</ele>
        <time>2022-01-14T12:01:06Z</time>
      </trkpt>
      <trkpt lat="44.99726" lon="6.47571">
        <ele>1569.8</ele>
        <time>2022-01-14T12:01:07Z</time>
      </trkpt>
      <trkpt lat="44.99726" lon="6.4757">
        <ele>1569.8</ele>
        <time>2022-01-14T12:01:08Z</time>
      </trkpt>
      <trkpt lat="44.99727" lon="6.4757">
        <ele>1569.8</ele>
        <time>2022-01-14T12:01:09Z</time>
      </trkpt>
      <trkpt lat="44.99728" lon="6.4757">
        <ele>1569.8</ele>
        <time>2022-01-14T12:01:10Z</time>
      </trkpt>
      <trkpt lat="44.99728" lon="6.47569">
        <ele>1569.8</ele>
        <time>2022-01-14T12:01:11Z</time>
      </trkpt>
      <trkpt lat="44.99729" lon="6.47569">
        <ele>1569.8</ele>
        <time>2022-01-14T12:01:12Z</time>
      </trkpt>
      <trkpt lat="44.9973" lon="6.47569">
        <ele>1569.8</ele>
        <time>2022-01-14T12:01:13Z</time>
      </trkpt>
      <trkpt lat="44.9973" lon="6.47569">
        <ele>1569.8</ele>
        <time>2022-01-14T12:01:14Z</time>
      </trkpt>
      <trkpt lat="44.99731" lon="6.47568">
        <ele>1569.8</ele>
        <time>2022-01-14T12:01:15Z</time>
      </trkpt>
      <trkpt lat="44.99732" lon="6.47568">
        <ele>1569.8</ele>
        <time>2022-01-14T12:01:16Z</time>
      </trkpt>
      <trkpt lat="44.99732" lon="6.47568">
        <ele>1569.8</ele>
        <time>2022-01-14T12:01:17Z</time>
      </trkpt>
      <trkpt lat="44.99732" lon="6.47568">
        <ele>1569.8</ele>
        <time>2022-01-14T12:01:18Z</time>
      </trkpt>
      <trkpt lat="44.99732" lon="6.47568">
        <ele>1569.8</ele>
        <time>2022-01-14T12:01:19Z</time>
      </trkpt>
      <trkpt lat="44.99733" lon="6.47568">
        <ele>1569.8</ele>
        <time>2022-01-14T12:01:20Z</time>
      </trkpt>
      <trkpt lat="44.99733" lon="6.47568">
        <ele>1569.8</ele>
        <time>2022-01-14T12:01:21Z</time>
      </trkpt>
      <trkpt lat="44.99734" lon="6.47567">
        <ele>1569.8</ele>
        <time>2022-01-14T12:01:22Z</time>
      </trkpt>
      <trkpt lat="44.99735" lon="6.47567">
        <ele>1569.9</ele>
        <time>2022-01-14T12:01:23Z</time>
      </trkpt>
      <trkpt lat="44.99737" lon="6.47565">
        <ele>1569.9</ele>
        <time>2022-01-14T12:01:24Z</time>
      </trkpt>
      <trkpt lat="44.99738" lon="6.47565">
        <ele>1569.9</ele>
        <time>2022-01-14T12:01:25Z</time>
      </trkpt>
      <trkpt lat="44.9974" lon="6.47564">
        <ele>1569.9</ele>
        <time>2022-01-14T12:01:26Z</time>
      </trkpt>
      <trkpt lat="44.99741" lon="6.47564">
        <ele>1569.9</ele>
        <time>2022-01-14T12:01:27Z</time>
      </trkpt>
      <trkpt lat="44.99742" lon="6.47562">
        <ele>1569.9</ele>
        <time>2022-01-14T12:01:28Z</time>
      </trkpt>
      <trkpt lat="44.99743" lon="6.47561">
        <ele>1569.9</ele>
        <time>2022-01-14T12:01:29Z</time>
      </trkpt>
      <trkpt lat="44.99744" lon="6.47561">
        <ele>1569.9</ele>
        <time>2022-01-14T12:01:30Z</time>
      </trkpt>
      <trkpt lat="44.99744" lon="6.47561">
        <ele>1569.9</ele>
        <time>2022-01-14T12:01:31Z</time>
      </trkpt>
      <trkpt lat="44.99745" lon="6.4756">
        <ele>1569.9</ele>
        <time>2022-01-14T12:01:32Z</time>
      </trkpt>
      <trkpt lat="44.99745" lon="6.47561">
        <ele>1569.9</ele>
        <time>2022-01-14T12:01:33Z</time>
      </trkpt>
      <trkpt lat="44.99746" lon="6.47562">
        <ele>1569.9</ele>
        <time>2022-01-14T12:01:34Z</time>
      </trkpt>
      <trkpt lat="44.99746" lon="6.47562">
        <ele>1569.9</ele>
        <time>2022-01-14T12:01:35Z</time>
      </trkpt>
      <trkpt lat="44.99746" lon="6.47562">
        <ele>1569.9</ele>
        <time>2022-01-14T12:01:36Z</time>
      </trkpt>
      <trkpt lat="44.99747" lon="6.47562">
        <ele>1569.9</ele>
        <time>2022-01-14T12:01:37Z</time>
      </trkpt>
      <trkpt lat="44.99747" lon="6.47562">
        <ele>1569.9</ele>
        <time>2022-01-14T12:01:38Z</time>
      </trkpt>
      <trkpt lat="44.99748" lon="6.47561">
        <ele>1569.9</ele>
        <time>2022-01-14T12:01:39Z</time>
      </trkpt>
      <trkpt lat="44.99748" lon="6.47561">
        <ele>1569.9</ele>
        <time>2022-01-14T12:01:40Z</time>
      </trkpt>
      <trkpt lat="44.99748" lon="6.47561">
        <ele>1569.9</ele>
        <time>2022-01-14T12:01:41Z</time>
      </trkpt>
      <trkpt lat="44.99749" lon="6.47562">
        <ele>1569.9</ele>
        <time>2022-01-14T12:01:42Z</time>
      </trkpt>
      <trkpt lat="44.99751" lon="6.47562">
        <ele>1569.9</ele>
        <time>2022-01-14T12:01:43Z</time>
      </trkpt>
      <trkpt lat="44.99751" lon="6.47562">
        <ele>1569.9</ele>
        <time>2022-01-14T12:01:44Z</time>
      </trkpt>
      <trkpt lat="44.99752" lon="6.47561">
        <ele>1569.9</ele>
        <time>2022-01-14T12:01:45Z</time>
      </trkpt>
      <trkpt lat="44.99753" lon="6.47561">
        <ele>1569.9</ele>
        <time>2022-01-14T12:01:46Z</time>
      </trkpt>
      <trkpt lat="44.99753" lon="6.47561">
        <ele>1569.9</ele>
        <time>2022-01-14T12:01:47Z</time>
      </trkpt>
      <trkpt lat="44.99754" lon="6.47561">
        <ele>1569.9</ele>
        <time>2022-01-14T12:01:48Z</time>
      </trkpt>
      <trkpt lat="44.99755" lon="6.47562">
        <ele>1569.9</ele>
        <time>2022-01-14T12:01:49Z</time>
      </trkpt>
      <trkpt lat="44.99756" lon="6.47561">
        <ele>1569.9</ele>
        <time>2022-01-14T12:01:50Z</time>
      </trkpt>
      <trkpt lat="44.99757" lon="6.4756">
        <ele>1569.9</ele>
        <time>2022-01-14T12:01:51Z</time>
      </trkpt>
      <trkpt lat="44.99757" lon="6.4756">
        <ele>1569.9</ele>
        <time>2022-01-14T12:01:52Z</time>
      </trkpt>
      <trkpt lat="44.99758" lon="6.47559">
        <ele>1569.9</ele>
        <time>2022-01-14T12:01:53Z</time>
      </trkpt>
      <trkpt lat="44.99758" lon="6.4756">
        <ele>1569.9</ele>
        <time>2022-01-14T12:01:54Z</time>
      </trkpt>
      <trkpt lat="44.99759" lon="6.4756">
        <ele>1570</ele>
        <time>2022-01-14T12:01:55Z</time>
      </trkpt>
      <trkpt lat="44.99759" lon="6.4756">
        <ele>1570</ele>
        <time>2022-01-14T12:01:56Z</time>
      </trkpt>
      <trkpt lat="44.9976" lon="6.47561">
        <ele>1570</ele>
        <time>2022-01-14T12:01:57Z</time>
      </trkpt>
      <trkpt lat="44.99761" lon="6.47561">
        <ele>1570</ele>
        <time>2022-01-14T12:01:58Z</time>
      </trkpt>
      <trkpt lat="44.99762" lon="6.4756">
        <ele>1570</ele>
        <time>2022-01-14T12:01:59Z</time>
      </trkpt>
      <trkpt lat="44.99764" lon="6.47561">
        <ele>1570</ele>
        <time>2022-01-14T12:02:00Z</time>
      </trkpt>
      <trkpt lat="44.99764" lon="6.4756">
        <ele>1570</ele>
        <time>2022-01-14T12:02:01Z</time>
      </trkpt>
      <trkpt lat="44.99765" lon="6.4756">
        <ele>1570</ele>
        <time>2022-01-14T12:02:02Z</time>
      </trkpt>
      <trkpt lat="44.99765" lon="6.47559">
        <ele>1570</ele>
        <time>2022-01-14T12:02:03Z</time>
      </trkpt>
      <trkpt lat="44.99765" lon="6.47559">
        <ele>1570</ele>
        <time>2022-01-14T12:02:04Z</time>
      </trkpt>
      <trkpt lat="44.99766" lon="6.4756">
        <ele>1570</ele>
        <time>2022-01-14T12:02:05Z</time>
      </trkpt>
      <trkpt lat="44.99765" lon="6.47559">
        <ele>1570</ele>
        <time>2022-01-14T12:02:06Z</time>
      </trkpt>
      <trkpt lat="44.99766" lon="6.47558">
        <ele>1570</ele>
        <time>2022-01-14T12:02:07Z</time>
      </trkpt>
      <trkpt lat="44.99766" lon="6.47559">
        <ele>1570</ele>
        <time>2022-01-14T12:02:08Z</time>
      </trkpt>
      <trkpt lat="44.99767" lon="6.47558">
        <ele>1570</ele>
        <time>2022-01-14T12:02:09Z</time>
      </trkpt>
      <trkpt lat="44.99768" lon="6.47557">
        <ele>1570</ele>
        <time>2022-01-14T12:02:10Z</time>
      </trkpt>
      <trkpt lat="44.99768" lon="6.47556">
        <ele>1570</ele>
        <time>2022-01-14T12:02:11Z</time>
      </trkpt>
      <trkpt lat="44.99768" lon="6.47556">
        <ele>1570</ele>
        <time>2022-01-14T12:02:12Z</time>
      </trkpt>
      <trkpt lat="44.99769" lon="6.47555">
        <ele>1570</ele>
        <time>2022-01-14T12:02:13Z</time>
      </trkpt>
      <trkpt lat="44.99769" lon="6.47556">
        <ele>1570</ele>
        <time>2022-01-14T12:02:14Z</time>
      </trkpt>
      <trkpt lat="44.99769" lon="6.47556">
        <ele>1570</ele>
        <time>2022-01-14T12:02:15Z</time>
      </trkpt>
      <trkpt lat="44.99769" lon="6.47556">
        <ele>1570</ele>
        <time>2022-01-14T12:02:16Z</time>
      </trkpt>
      <trkpt lat="44.99769" lon="6.47556">
        <ele>1570</ele>
        <time>2022-01-14T12:02:17Z</time>
      </trkpt>
      <trkpt lat="44.9977" lon="6.47556">
        <ele>1570</ele>
        <time>2022-01-14T12:02:18Z</time>
      </trkpt>
      <trkpt lat="44.9977" lon="6.47556">
        <ele>1570</ele>
        <time>2022-01-14T12:02:19Z</time>
      </trkpt>
      <trkpt lat="44.9977" lon="6.47556">
        <ele>1570</ele>
        <time>2022-01-14T12:02:20Z</time>
      </trkpt>
      <trkpt lat="44.9977" lon="6.47556">
        <ele>1570</ele>
        <time>2022-01-14T12:02:21Z</time>
      </trkpt>
      <trkpt lat="44.9977" lon="6.47556">
        <ele>1570</ele>
        <time>2022-01-14T12:02:22Z</time>
      </trkpt>
      <trkpt lat="44.9977" lon="6.47556">
        <ele>1570</ele>
        <time>2022-01-14T12:02:23Z</time>
      </trkpt>
      <trkpt lat="44.9977" lon="6.47556">
        <ele>1570</ele>
        <time>2022-01-14T12:02:24Z</time>
      </trkpt>
      <trkpt lat="44.9977" lon="6.47557">
        <ele>1570</ele>
        <time>2022-01-14T12:02:25Z</time>
      </trkpt>
      <trkpt lat="44.9977" lon="6.47557">
        <ele>1570</ele>
        <time>2022-01-14T12:02:26Z</time>
      </trkpt>
      <trkpt lat="44.99771" lon="6.47557">
        <ele>1570</ele>
        <time>2022-01-14T12:02:27Z</time>
      </trkpt>
      <trkpt lat="44.99771" lon="6.47557">
        <ele>1570</ele>
        <time>2022-01-14T12:02:28Z</time>
      </trkpt>
      <trkpt lat="44.99771" lon="6.47557">
        <ele>1570</ele>
        <time>2022-01-14T12:02:29Z</time>
      </trkpt>
      <trkpt lat="44.99771" lon="6.47557">
        <ele>1570</ele>
        <time>2022-01-14T12:02:30Z</time>
      </trkpt>
      <trkpt lat="44.99771" lon="6.47557">
        <ele>1570</ele>
        <time>2022-01-14T12:02:31Z</time>
      </trkpt>
      <trkpt lat="44.99771" lon="6.47557">
        <ele>1570</ele>
        <time>2022-01-14T12:02:32Z</time>
      </trkpt>
      <trkpt lat="44.99771" lon="6.47557">
        <ele>1570</ele>
        <time>2022-01-14T12:02:33Z</time>
      </trkpt>
      <trkpt lat="44.99771" lon="6.47557">
        <ele>1570</ele>
        <time>2022-01-14T12:02:34Z</time>
      </trkpt>
      <trkpt lat="44.99772" lon="6.47557">
        <ele>1570</ele>
        <time>2022-01-14T12:02:35Z</time>
      </trkpt>
      <trkpt lat="44.99772" lon="6.47557">
        <ele>1570</ele>
        <time>2022-01-14T12:02:36Z</time>
      </trkpt>
      <trkpt lat="44.99772" lon="6.47557">
        <ele>1570</ele>
        <time>2022-01-14T12:02:37Z</time>
      </trkpt>
      <trkpt lat="44.99772" lon="6.47557">
        <ele>1570</ele>
        <time>2022-01-14T12:02:38Z</time>
      </trkpt>
      <trkpt lat="44.99772" lon="6.47558">
        <ele>1570</ele>
        <time>2022-01-14T12:02:39Z</time>
      </trkpt>
      <trkpt lat="44.99772" lon="6.47558">
        <ele>1570</ele>
        <time>2022-01-14T12:02:40Z</time>
      </trkpt>
      <trkpt lat="44.99772" lon="6.47558">
        <ele>1570</ele>
        <time>2022-01-14T12:02:41Z</time>
      </trkpt>
      <trkpt lat="44.99774" lon="6.47558">
        <ele>1570</ele>
        <time>2022-01-14T12:02:42Z</time>
      </trkpt>
      <trkpt lat="44.99776" lon="6.47559">
        <ele>1570</ele>
        <time>2022-01-14T12:02:43Z</time>
      </trkpt>
      <trkpt lat="44.99777" lon="6.4756">
        <ele>1570</ele>
        <time>2022-01-14T12:02:44Z</time>
      </trkpt>
      <trkpt lat="44.99778" lon="6.47562">
        <ele>1570</ele>
        <time>2022-01-14T12:02:45Z</time>
      </trkpt>
      <trkpt lat="44.9978" lon="6.47565">
        <ele>1569.5</ele>
        <time>2022-01-14T12:02:46Z</time>
      </trkpt>
      <trkpt lat="44.9978" lon="6.47566">
        <ele>1569.5</ele>
        <time>2022-01-14T12:02:47Z</time>
      </trkpt>
      <trkpt lat="44.99782" lon="6.47569">
        <ele>1568.9</ele>
        <time>2022-01-14T12:02:48Z</time>
      </trkpt>
      <trkpt lat="44.99783" lon="6.4757">
        <ele>1568.9</ele>
        <time>2022-01-14T12:02:49Z</time>
      </trkpt>
      <trkpt lat="44.99784" lon="6.47571">
        <ele>1568.4</ele>
        <time>2022-01-14T12:02:50Z</time>
      </trkpt>
      <trkpt lat="44.99786" lon="6.47572">
        <ele>1568.4</ele>
        <time>2022-01-14T12:02:51Z</time>
      </trkpt>
      <trkpt lat="44.99788" lon="6.47574">
        <ele>1568.4</ele>
        <time>2022-01-14T12:02:52Z</time>
      </trkpt>
      <trkpt lat="44.99789" lon="6.47575">
        <ele>1568.3</ele>
        <time>2022-01-14T12:02:53Z</time>
      </trkpt>
      <trkpt lat="44.99791" lon="6.47577">
        <ele>1567.8</ele>
        <time>2022-01-14T12:02:54Z</time>
      </trkpt>
      <trkpt lat="44.99792" lon="6.47577">
        <ele>1567.8</ele>
        <time>2022-01-14T12:02:55Z</time>
      </trkpt>
      <trkpt lat="44.99792" lon="6.47578">
        <ele>1567.7</ele>
        <time>2022-01-14T12:02:56Z</time>
      </trkpt>
      <trkpt lat="44.99795" lon="6.47579">
        <ele>1567.7</ele>
        <time>2022-01-14T12:02:57Z</time>
      </trkpt>
      <trkpt lat="44.99795" lon="6.47579">
        <ele>1567.5</ele>
        <time>2022-01-14T12:02:58Z</time>
      </trkpt>
      <trkpt lat="44.99796" lon="6.47579">
        <ele>1567.5</ele>
        <time>2022-01-14T12:02:59Z</time>
      </trkpt>
      <trkpt lat="44.99796" lon="6.4758">
        <ele>1567.5</ele>
        <time>2022-01-14T12:03:00Z</time>
      </trkpt>
      <trkpt lat="44.99796" lon="6.47581">
        <ele>1567.2</ele>
        <time>2022-01-14T12:03:01Z</time>
      </trkpt>
      <trkpt lat="44.99797" lon="6.47582">
        <ele>1567.1</ele>
        <time>2022-01-14T12:03:02Z</time>
      </trkpt>
      <trkpt lat="44.99797" lon="6.47582">
        <ele>1567.1</ele>
        <time>2022-01-14T12:03:03Z</time>
      </trkpt>
      <trkpt lat="44.99798" lon="6.47583">
        <ele>1567.1</ele>
        <time>2022-01-14T12:03:04Z</time>
      </trkpt>
      <trkpt lat="44.99798" lon="6.47584">
        <ele>1567.1</ele>
        <time>2022-01-14T12:03:05Z</time>
      </trkpt>
      <trkpt lat="44.99799" lon="6.47585">
        <ele>1566.7</ele>
        <time>2022-01-14T12:03:06Z</time>
      </trkpt>
      <trkpt lat="44.998" lon="6.47586">
        <ele>1566.6</ele>
        <time>2022-01-14T12:03:07Z</time>
      </trkpt>
      <trkpt lat="44.99801" lon="6.47589">
        <ele>1566</ele>
        <time>2022-01-14T12:03:08Z</time>
      </trkpt>
      <trkpt lat="44.99802" lon="6.4759">
        <ele>1566</ele>
        <time>2022-01-14T12:03:09Z</time>
      </trkpt>
      <trkpt lat="44.99803" lon="6.47592">
        <ele>1565.9</ele>
        <time>2022-01-14T12:03:10Z</time>
      </trkpt>
      <trkpt lat="44.99805" lon="6.47596">
        <ele>1565.2</ele>
        <time>2022-01-14T12:03:11Z</time>
      </trkpt>
      <trkpt lat="44.99807" lon="6.476">
        <ele>1564.4</ele>
        <time>2022-01-14T12:03:12Z</time>
      </trkpt>
      <trkpt lat="44.99808" lon="6.47605">
        <ele>1563.8</ele>
        <time>2022-01-14T12:03:13Z</time>
      </trkpt>
      <trkpt lat="44.99809" lon="6.4761">
        <ele>1563</ele>
        <time>2022-01-14T12:03:14Z</time>
      </trkpt>
      <trkpt lat="44.99809" lon="6.47614">
        <ele>1561.5</ele>
        <time>2022-01-14T12:03:15Z</time>
      </trkpt>
      <trkpt lat="44.9981" lon="6.47621">
        <ele>1560.6</ele>
        <time>2022-01-14T12:03:16Z</time>
      </trkpt>
      <trkpt lat="44.9981" lon="6.4763">
        <ele>1558.3</ele>
        <time>2022-01-14T12:03:17Z</time>
      </trkpt>
      <trkpt lat="44.9981" lon="6.4764">
        <ele>1558</ele>
        <time>2022-01-14T12:03:18Z</time>
      </trkpt>
      <trkpt lat="44.99811" lon="6.47651">
        <ele>1557.7</ele>
        <time>2022-01-14T12:03:19Z</time>
      </trkpt>
      <trkpt lat="44.99812" lon="6.47662">
        <ele>1557.6</ele>
        <time>2022-01-14T12:03:20Z</time>
      </trkpt>
      <trkpt lat="44.99813" lon="6.47672">
        <ele>1557.5</ele>
        <time>2022-01-14T12:03:21Z</time>
      </trkpt>
      <trkpt lat="44.99816" lon="6.47679">
        <ele>1557.5</ele>
        <time>2022-01-14T12:03:22Z</time>
      </trkpt>
      <trkpt lat="44.99817" lon="6.47687">
        <ele>1557.5</ele>
        <time>2022-01-14T12:03:23Z</time>
      </trkpt>
      <trkpt lat="44.99818" lon="6.47694">
        <ele>1557.5</ele>
        <time>2022-01-14T12:03:24Z</time>
      </trkpt>
      <trkpt lat="44.99818" lon="6.47697">
        <ele>1557.5</ele>
        <time>2022-01-14T12:03:25Z</time>
      </trkpt>
      <trkpt lat="44.99818" lon="6.477">
        <ele>1557.5</ele>
        <time>2022-01-14T12:03:26Z</time>
      </trkpt>
      <trkpt lat="44.99818" lon="6.477">
        <ele>1557.5</ele>
        <time>2022-01-14T12:03:27Z</time>
      </trkpt>
      <trkpt lat="44.99817" lon="6.47701">
        <ele>1557.5</ele>
        <time>2022-01-14T12:03:28Z</time>
      </trkpt>
      <trkpt lat="44.99816" lon="6.47702">
        <ele>1557.5</ele>
        <time>2022-01-14T12:03:29Z</time>
      </trkpt>
      <trkpt lat="44.99815" lon="6.47704">
        <ele>1557.5</ele>
        <time>2022-01-14T12:03:30Z</time>
      </trkpt>
      <trkpt lat="44.99815" lon="6.47705">
        <ele>1557.5</ele>
        <time>2022-01-14T12:03:31Z</time>
      </trkpt>
      <trkpt lat="44.99815" lon="6.47705">
        <ele>1557.5</ele>
        <time>2022-01-14T12:03:32Z</time>
      </trkpt>
      <trkpt lat="44.99815" lon="6.47705">
        <ele>1557.5</ele>
        <time>2022-01-14T12:03:33Z</time>
      </trkpt>
      <trkpt lat="44.99815" lon="6.47706">
        <ele>1557.5</ele>
        <time>2022-01-14T12:03:34Z</time>
      </trkpt>
      <trkpt lat="44.99815" lon="6.47707">
        <ele>1557.5</ele>
        <time>2022-01-14T12:03:35Z</time>
      </trkpt>
      <trkpt lat="44.99816" lon="6.47707">
        <ele>1557.6</ele>
        <time>2022-01-14T12:03:36Z</time>
      </trkpt>
      <trkpt lat="44.99815" lon="6.47709">
        <ele>1557.6</ele>
        <time>2022-01-14T12:03:37Z</time>
      </trkpt>
      <trkpt lat="44.99815" lon="6.4771">
        <ele>1557.6</ele>
        <time>2022-01-14T12:03:38Z</time>
      </trkpt>
      <trkpt lat="44.99815" lon="6.47709">
        <ele>1557.6</ele>
        <time>2022-01-14T12:03:39Z</time>
      </trkpt>
      <trkpt lat="44.99814" lon="6.4771">
        <ele>1557.6</ele>
        <time>2022-01-14T12:03:40Z</time>
      </trkpt>
      <trkpt lat="44.99814" lon="6.47712">
        <ele>1557.6</ele>
        <time>2022-01-14T12:03:41Z</time>
      </trkpt>
      <trkpt lat="44.99813" lon="6.47713">
        <ele>1557.6</ele>
        <time>2022-01-14T12:03:42Z</time>
      </trkpt>
      <trkpt lat="44.99812" lon="6.47714">
        <ele>1557.6</ele>
        <time>2022-01-14T12:03:43Z</time>
      </trkpt>
      <trkpt lat="44.99812" lon="6.47714">
        <ele>1557.6</ele>
        <time>2022-01-14T12:03:44Z</time>
      </trkpt>
      <trkpt lat="44.99811" lon="6.47713">
        <ele>1557.6</ele>
        <time>2022-01-14T12:03:45Z</time>
      </trkpt>
      <trkpt lat="44.99811" lon="6.47713">
        <ele>1557.6</ele>
        <time>2022-01-14T12:03:46Z</time>
      </trkpt>
      <trkpt lat="44.9981" lon="6.47713">
        <ele>1557.6</ele>
        <time>2022-01-14T12:03:47Z</time>
      </trkpt>
      <trkpt lat="44.99809" lon="6.47714">
        <ele>1557.6</ele>
        <time>2022-01-14T12:03:48Z</time>
      </trkpt>
      <trkpt lat="44.99806" lon="6.47714">
        <ele>1557.6</ele>
        <time>2022-01-14T12:03:49Z</time>
      </trkpt>
      <trkpt lat="44.99805" lon="6.47714">
        <ele>1557.6</ele>
        <time>2022-01-14T12:03:50Z</time>
      </trkpt>
      <trkpt lat="44.99802" lon="6.47713">
        <ele>1557.5</ele>
        <time>2022-01-14T12:03:51Z</time>
      </trkpt>
      <trkpt lat="44.99801" lon="6.47713">
        <ele>1557.5</ele>
        <time>2022-01-14T12:03:52Z</time>
      </trkpt>
      <trkpt lat="44.99797" lon="6.47713">
        <ele>1557.5</ele>
        <time>2022-01-14T12:03:53Z</time>
      </trkpt>
      <trkpt lat="44.99796" lon="6.47713">
        <ele>1557.5</ele>
        <time>2022-01-14T12:03:54Z</time>
      </trkpt>
      <trkpt lat="44.99794" lon="6.47712">
        <ele>1557.5</ele>
        <time>2022-01-14T12:03:55Z</time>
      </trkpt>
      <trkpt lat="44.99793" lon="6.47712">
        <ele>1557.5</ele>
        <time>2022-01-14T12:03:56Z</time>
      </trkpt>
      <trkpt lat="44.99791" lon="6.47712">
        <ele>1557.4</ele>
        <time>2022-01-14T12:03:57Z</time>
      </trkpt>
      <trkpt lat="44.99788" lon="6.47712">
        <ele>1557.4</ele>
        <time>2022-01-14T12:03:58Z</time>
      </trkpt>
      <trkpt lat="44.99785" lon="6.47714">
        <ele>1557.3</ele>
        <time>2022-01-14T12:03:59Z</time>
      </trkpt>
      <trkpt lat="44.99782" lon="6.47715">
        <ele>1557.3</ele>
        <time>2022-01-14T12:04:00Z</time>
      </trkpt>
      <trkpt lat="44.99779" lon="6.47716">
        <ele>1557.2</ele>
        <time>2022-01-14T12:04:01Z</time>
      </trkpt>
      <trkpt lat="44.99775" lon="6.47718">
        <ele>1557.1</ele>
        <time>2022-01-14T12:04:02Z</time>
      </trkpt>
      <trkpt lat="44.99774" lon="6.47719">
        <ele>1557.1</ele>
        <time>2022-01-14T12:04:03Z</time>
      </trkpt>
      <trkpt lat="44.99771" lon="6.47721">
        <ele>1557</ele>
        <time>2022-01-14T12:04:04Z</time>
      </trkpt>
      <trkpt lat="44.99768" lon="6.47724">
        <ele>1556.9</ele>
        <time>2022-01-14T12:04:05Z</time>
      </trkpt>
      <trkpt lat="44.99766" lon="6.47725">
        <ele>1556.9</ele>
        <time>2022-01-14T12:04:06Z</time>
      </trkpt>
      <trkpt lat="44.99762" lon="6.47727">
        <ele>1556.8</ele>
        <time>2022-01-14T12:04:07Z</time>
      </trkpt>
      <trkpt lat="44.9976" lon="6.47731">
        <ele>1556.7</ele>
        <time>2022-01-14T12:04:08Z</time>
      </trkpt>
      <trkpt lat="44.99757" lon="6.47733">
        <ele>1556.6</ele>
        <time>2022-01-14T12:04:09Z</time>
      </trkpt>
      <trkpt lat="44.99754" lon="6.47735">
        <ele>1556.4</ele>
        <time>2022-01-14T12:04:10Z</time>
      </trkpt>
      <trkpt lat="44.99753" lon="6.47736">
        <ele>1556.4</ele>
        <time>2022-01-14T12:04:11Z</time>
      </trkpt>
      <trkpt lat="44.9975" lon="6.47738">
        <ele>1556.3</ele>
        <time>2022-01-14T12:04:12Z</time>
      </trkpt>
      <trkpt lat="44.99749" lon="6.47739">
        <ele>1556.3</ele>
        <time>2022-01-14T12:04:13Z</time>
      </trkpt>
      <trkpt lat="44.99746" lon="6.47741">
        <ele>1556.1</ele>
        <time>2022-01-14T12:04:14Z</time>
      </trkpt>
      <trkpt lat="44.99744" lon="6.47743">
        <ele>1556</ele>
        <time>2022-01-14T12:04:15Z</time>
      </trkpt>
      <trkpt lat="44.99742" lon="6.47746">
        <ele>1555.9</ele>
        <time>2022-01-14T12:04:16Z</time>
      </trkpt>
      <trkpt lat="44.99739" lon="6.47747">
        <ele>1555.8</ele>
        <time>2022-01-14T12:04:17Z</time>
      </trkpt>
      <trkpt lat="44.99735" lon="6.47749">
        <ele>1555.6</ele>
        <time>2022-01-14T12:04:18Z</time>
      </trkpt>
      <trkpt lat="44.99733" lon="6.47749">
        <ele>1555.5</ele>
        <time>2022-01-14T12:04:19Z</time>
      </trkpt>
      <trkpt lat="44.9973" lon="6.47751">
        <ele>1555.4</ele>
        <time>2022-01-14T12:04:20Z</time>
      </trkpt>
      <trkpt lat="44.99727" lon="6.47751">
        <ele>1555.3</ele>
        <time>2022-01-14T12:04:21Z</time>
      </trkpt>
      <trkpt lat="44.99724" lon="6.47751">
        <ele>1555.2</ele>
        <time>2022-01-14T12:04:22Z</time>
      </trkpt>
      <trkpt lat="44.9972" lon="6.47751">
        <ele>1555</ele>
        <time>2022-01-14T12:04:23Z</time>
      </trkpt>
      <trkpt lat="44.99719" lon="6.47752">
        <ele>1555</ele>
        <time>2022-01-14T12:04:24Z</time>
      </trkpt>
      <trkpt lat="44.99715" lon="6.47752">
        <ele>1554.8</ele>
        <time>2022-01-14T12:04:25Z</time>
      </trkpt>
      <trkpt lat="44.99714" lon="6.47752">
        <ele>1554.8</ele>
        <time>2022-01-14T12:04:26Z</time>
      </trkpt>
      <trkpt lat="44.99713" lon="6.47751">
        <ele>1554.7</ele>
        <time>2022-01-14T12:04:27Z</time>
      </trkpt>
      <trkpt lat="44.99713" lon="6.47751">
        <ele>1554.7</ele>
        <time>2022-01-14T12:04:28Z</time>
      </trkpt>
      <trkpt lat="44.99713" lon="6.47751">
        <ele>1554.7</ele>
        <time>2022-01-14T12:04:29Z</time>
      </trkpt>
      <trkpt lat="44.99713" lon="6.4775">
        <ele>1554.7</ele>
        <time>2022-01-14T12:04:30Z</time>
      </trkpt>
      <trkpt lat="44.99713" lon="6.4775">
        <ele>1554.7</ele>
        <time>2022-01-14T12:04:31Z</time>
      </trkpt>
      <trkpt lat="44.99713" lon="6.4775">
        <ele>1554.7</ele>
        <time>2022-01-14T12:04:32Z</time>
      </trkpt>
      <trkpt lat="44.99713" lon="6.47749">
        <ele>1554.7</ele>
        <time>2022-01-14T12:04:33Z</time>
      </trkpt>
      <trkpt lat="44.99713" lon="6.47749">
        <ele>1554.7</ele>
        <time>2022-01-14T12:04:34Z</time>
      </trkpt>
      <trkpt lat="44.99713" lon="6.47749">
        <ele>1554.7</ele>
        <time>2022-01-14T12:04:35Z</time>
      </trkpt>
      <trkpt lat="44.99713" lon="6.47748">
        <ele>1554.7</ele>
        <time>2022-01-14T12:04:36Z</time>
      </trkpt>
      <trkpt lat="44.99713" lon="6.47748">
        <ele>1554.7</ele>
        <time>2022-01-14T12:04:37Z</time>
      </trkpt>
      <trkpt lat="44.99713" lon="6.47748">
        <ele>1554.7</ele>
        <time>2022-01-14T12:04:38Z</time>
      </trkpt>
      <trkpt lat="44.99713" lon="6.47747">
        <ele>1554.7</ele>
        <time>2022-01-14T12:04:39Z</time>
      </trkpt>
      <trkpt lat="44.99713" lon="6.47747">
        <ele>1554.7</ele>
        <time>2022-01-14T12:04:40Z</time>
      </trkpt>
      <trkpt lat="44.99713" lon="6.47747">
        <ele>1554.7</ele>
        <time>2022-01-14T12:04:41Z</time>
      </trkpt>
      <trkpt lat="44.99713" lon="6.47747">
        <ele>1554.7</ele>
        <time>2022-01-14T12:04:42Z</time>
      </trkpt>
      <trkpt lat="44.99712" lon="6.47745">
        <ele>1554.7</ele>
        <time>2022-01-14T12:04:43Z</time>
      </trkpt>
      <trkpt lat="44.99712" lon="6.47744">
        <ele>1554.6</ele>
        <time>2022-01-14T12:04:44Z</time>
      </trkpt>
      <trkpt lat="44.99711" lon="6.47742">
        <ele>1554.6</ele>
        <time>2022-01-14T12:04:45Z</time>
      </trkpt>
      <trkpt lat="44.99711" lon="6.47743">
        <ele>1554.6</ele>
        <time>2022-01-14T12:04:46Z</time>
      </trkpt>
      <trkpt lat="44.9971" lon="6.47742">
        <ele>1554.6</ele>
        <time>2022-01-14T12:04:47Z</time>
      </trkpt>
      <trkpt lat="44.99709" lon="6.47741">
        <ele>1554.6</ele>
        <time>2022-01-14T12:04:48Z</time>
      </trkpt>
      <trkpt lat="44.9971" lon="6.47738">
        <ele>1554.6</ele>
        <time>2022-01-14T12:04:49Z</time>
      </trkpt>
      <trkpt lat="44.99707" lon="6.4774">
        <ele>1554.5</ele>
        <time>2022-01-14T12:04:50Z</time>
      </trkpt>
      <trkpt lat="44.99706" lon="6.4774">
        <ele>1554.5</ele>
        <time>2022-01-14T12:04:51Z</time>
      </trkpt>
      <trkpt lat="44.99706" lon="6.4774">
        <ele>1554.5</ele>
        <time>2022-01-14T12:04:52Z</time>
      </trkpt>
      <trkpt lat="44.99704" lon="6.47739">
        <ele>1554.5</ele>
        <time>2022-01-14T12:04:53Z</time>
      </trkpt>
      <trkpt lat="44.99703" lon="6.47739">
        <ele>1554.5</ele>
        <time>2022-01-14T12:04:54Z</time>
      </trkpt>
      <trkpt lat="44.99702" lon="6.4774">
        <ele>1554.5</ele>
        <time>2022-01-14T12:04:55Z</time>
      </trkpt>
      <trkpt lat="44.99702" lon="6.47739">
        <ele>1554.5</ele>
        <time>2022-01-14T12:04:56Z</time>
      </trkpt>
      <trkpt lat="44.99701" lon="6.47738">
        <ele>1554.5</ele>
        <time>2022-01-14T12:04:57Z</time>
      </trkpt>
      <trkpt lat="44.99701" lon="6.47736">
        <ele>1554.4</ele>
        <time>2022-01-14T12:04:58Z</time>
      </trkpt>
      <trkpt lat="44.997" lon="6.47736">
        <ele>1554.4</ele>
        <time>2022-01-14T12:04:59Z</time>
      </trkpt>
      <trkpt lat="44.997" lon="6.47736">
        <ele>1554.4</ele>
        <time>2022-01-14T12:05:00Z</time>
      </trkpt>
      <trkpt lat="44.99699" lon="6.47735">
        <ele>1554.4</ele>
        <time>2022-01-14T12:05:01Z</time>
      </trkpt>
      <trkpt lat="44.99699" lon="6.47734">
        <ele>1554.4</ele>
        <time>2022-01-14T12:05:02Z</time>
      </trkpt>
      <trkpt lat="44.99699" lon="6.47734">
        <ele>1554.4</ele>
        <time>2022-01-14T12:05:03Z</time>
      </trkpt>
      <trkpt lat="44.99698" lon="6.47733">
        <ele>1554.4</ele>
        <time>2022-01-14T12:05:04Z</time>
      </trkpt>
      <trkpt lat="44.99698" lon="6.47733">
        <ele>1554.4</ele>
        <time>2022-01-14T12:05:05Z</time>
      </trkpt>
      <trkpt lat="44.99697" lon="6.47732">
        <ele>1554.4</ele>
        <time>2022-01-14T12:05:06Z</time>
      </trkpt>
      <trkpt lat="44.99696" lon="6.47731">
        <ele>1554.4</ele>
        <time>2022-01-14T12:05:07Z</time>
      </trkpt>
      <trkpt lat="44.99696" lon="6.47731">
        <ele>1554.4</ele>
        <time>2022-01-14T12:05:08Z</time>
      </trkpt>
      <trkpt lat="44.99696" lon="6.47732">
        <ele>1554.4</ele>
        <time>2022-01-14T12:05:09Z</time>
      </trkpt>
      <trkpt lat="44.99696" lon="6.47733">
        <ele>1554.4</ele>
        <time>2022-01-14T12:05:10Z</time>
      </trkpt>
      <trkpt lat="44.99697" lon="6.47734">
        <ele>1554.3</ele>
        <time>2022-01-14T12:05:11Z</time>
      </trkpt>
      <trkpt lat="44.99696" lon="6.47734">
        <ele>1554.3</ele>
        <time>2022-01-14T12:05:12Z</time>
      </trkpt>
      <trkpt lat="44.99696" lon="6.47734">
        <ele>1554.3</ele>
        <time>2022-01-14T12:05:13Z</time>
      </trkpt>
      <trkpt lat="44.99696" lon="6.47734">
        <ele>1554.3</ele>
        <time>2022-01-14T12:05:14Z</time>
      </trkpt>
      <trkpt lat="44.99696" lon="6.47734">
        <ele>1554.3</ele>
        <time>2022-01-14T12:05:15Z</time>
      </trkpt>
      <trkpt lat="44.99696" lon="6.47734">
        <ele>1554.3</ele>
        <time>2022-01-14T12:05:16Z</time>
      </trkpt>
      <trkpt lat="44.99697" lon="6.47734">
        <ele>1554.3</ele>
        <time>2022-01-14T12:05:17Z</time>
      </trkpt>
      <trkpt lat="44.99697" lon="6.47734">
        <ele>1554.3</ele>
        <time>2022-01-14T12:05:18Z</time>
      </trkpt>
      <trkpt lat="44.99697" lon="6.47732">
        <ele>1554.3</ele>
        <time>2022-01-14T12:05:19Z</time>
      </trkpt>
      <trkpt lat="44.99697" lon="6.47734">
        <ele>1554.3</ele>
        <time>2022-01-14T12:05:20Z</time>
      </trkpt>
      <trkpt lat="44.99697" lon="6.47735">
        <ele>1554.3</ele>
        <time>2022-01-14T12:05:21Z</time>
      </trkpt>
      <trkpt lat="44.99696" lon="6.47734">
        <ele>1554.3</ele>
        <time>2022-01-14T12:05:22Z</time>
      </trkpt>
      <trkpt lat="44.99696" lon="6.47733">
        <ele>1554.3</ele>
        <time>2022-01-14T12:05:23Z</time>
      </trkpt>
      <trkpt lat="44.99696" lon="6.47733">
        <ele>1554.3</ele>
        <time>2022-01-14T12:05:24Z</time>
      </trkpt>
      <trkpt lat="44.99696" lon="6.47732">
        <ele>1554.3</ele>
        <time>2022-01-14T12:05:25Z</time>
      </trkpt>
      <trkpt lat="44.99696" lon="6.47731">
        <ele>1554.3</ele>
        <time>2022-01-14T12:05:26Z</time>
      </trkpt>
      <trkpt lat="44.99697" lon="6.4773">
        <ele>1554.2</ele>
        <time>2022-01-14T12:05:27Z</time>
      </trkpt>
      <trkpt lat="44.99696" lon="6.47731">
        <ele>1554.2</ele>
        <time>2022-01-14T12:05:28Z</time>
      </trkpt>
      <trkpt lat="44.99695" lon="6.4773">
        <ele>1554.2</ele>
        <time>2022-01-14T12:05:29Z</time>
      </trkpt>
      <trkpt lat="44.99695" lon="6.4773">
        <ele>1554.2</ele>
        <time>2022-01-14T12:05:30Z</time>
      </trkpt>
      <trkpt lat="44.99696" lon="6.47731">
        <ele>1554.2</ele>
        <time>2022-01-14T12:05:31Z</time>
      </trkpt>
      <trkpt lat="44.99695" lon="6.47731">
        <ele>1554.2</ele>
        <time>2022-01-14T12:05:32Z</time>
      </trkpt>
      <trkpt lat="44.99695" lon="6.47732">
        <ele>1554.2</ele>
        <time>2022-01-14T12:05:33Z</time>
      </trkpt>
      <trkpt lat="44.99694" lon="6.47732">
        <ele>1554.2</ele>
        <time>2022-01-14T12:05:34Z</time>
      </trkpt>
      <trkpt lat="44.99694" lon="6.47733">
        <ele>1554.2</ele>
        <time>2022-01-14T12:05:35Z</time>
      </trkpt>
      <trkpt lat="44.99695" lon="6.47734">
        <ele>1554.2</ele>
        <time>2022-01-14T12:05:36Z</time>
      </trkpt>
      <trkpt lat="44.99695" lon="6.47734">
        <ele>1554.1</ele>
        <time>2022-01-14T12:05:37Z</time>
      </trkpt>
      <trkpt lat="44.99696" lon="6.47734">
        <ele>1554.1</ele>
        <time>2022-01-14T12:05:38Z</time>
      </trkpt>
      <trkpt lat="44.99697" lon="6.47734">
        <ele>1554.1</ele>
        <time>2022-01-14T12:05:39Z</time>
      </trkpt>
      <trkpt lat="44.99697" lon="6.47734">
        <ele>1554.1</ele>
        <time>2022-01-14T12:05:40Z</time>
      </trkpt>
      <trkpt lat="44.99699" lon="6.47733">
        <ele>1554.1</ele>
        <time>2022-01-14T12:05:41Z</time>
      </trkpt>
      <trkpt lat="44.997" lon="6.47733">
        <ele>1554.1</ele>
        <time>2022-01-14T12:05:42Z</time>
      </trkpt>
      <trkpt lat="44.99701" lon="6.47733">
        <ele>1554.1</ele>
        <time>2022-01-14T12:05:43Z</time>
      </trkpt>
      <trkpt lat="44.99701" lon="6.47732">
        <ele>1554.1</ele>
        <time>2022-01-14T12:05:44Z</time>
      </trkpt>
      <trkpt lat="44.99701" lon="6.47731">
        <ele>1554.1</ele>
        <time>2022-01-14T12:05:45Z</time>
      </trkpt>
      <trkpt lat="44.99702" lon="6.4773">
        <ele>1554.1</ele>
        <time>2022-01-14T12:05:46Z</time>
      </trkpt>
      <trkpt lat="44.99703" lon="6.47731">
        <ele>1554</ele>
        <time>2022-01-14T12:05:47Z</time>
      </trkpt>
    </trkseg>
  </trk>
</gpx>